<?xml version="1.0" encoding="UTF-8" standalone="no" ?><gpx xmlns="http://www.topografix.com/GPX/1/1" xmlns:gpxx="http://www.garmin.com/xmlschemas/GpxExtensions/v3" xmlns:wptx1="http://www.garmin.com/xmlschemas/WaypointExtension/v1" xmlns:gpxtpx="http://www.garmin.com/xmlschemas/TrackPointExtension/v1" creator="Alpha 50 EU" version="1.1" xmlns:xsi="http://www.w3.org/2001/XMLSchema-instance" xsi:schemaLocation="http://www.topografix.com/GPX/1/1 http://www.topografix.com/GPX/1/1/gpx.xsd http://www.garmin.com/xmlschemas/GpxExtensions/v3 http://www8.garmin.com/xmlschemas/GpxExtensionsv3.xsd http://www.garmin.com/xmlschemas/WaypointExtension/v1 http://www8.garmin.com/xmlschemas/WaypointExtensionv1.xsd http://www.garmin.com/xmlschemas/TrackPointExtension/v1 http://www.garmin.com/xmlschemas/TrackPointExtensionv1.xsd"><metadata><link href="http://www.garmin.com"><text>Garmin International</text></link><time>2026-09-01T17:03:03Z</time></metadata><trk><name>2026-09-01 20:03:02</name><extensions><gpxx:TrackExtension><gpxx:DisplayColor>DarkGreen</gpxx:DisplayColor></gpxx:TrackExtension></extensions><trkseg><trkpt lat="59.2489457130" lon="30.6913161278"><time>2026-09-01T11:28:35Z</time></trkpt><trkpt lat="59.2489457130" lon="30.6913161278"><time>2026-09-01T11:28:25Z</time></trkpt><trkpt lat="59.2489457130" lon="30.6912732124"><time>2026-09-01T11:28:44Z</time></trkpt><trkpt lat="59.2489457130" lon="30.6912517548"><time>2026-09-01T11:28:45Z</time></trkpt><trkpt lat="59.2489457130" lon="30.6911873817"><time>2026-09-01T11:28:48Z</time></trkpt><trkpt lat="59.2489457130" lon="30.6912517548"><time>2026-09-01T11:28:55Z</time></trkpt><trkpt lat="59.2489457130" lon="30.6912732124"><time>2026-09-01T11:28:58Z</time></trkpt><trkpt lat="59.2489457130" lon="30.6912517548"><time>2026-09-01T11:29:00Z</time></trkpt><trkpt lat="59.2489242554" lon="30.6912302971"><time>2026-09-01T11:29:03Z</time></trkpt><trkpt lat="59.2489457130" lon="30.6912517548"><time>2026-09-01T11:29:05Z</time></trkpt><trkpt lat="59.2489457130" lon="30.6912732124"><time>2026-09-01T11:29:08Z</time></trkpt><trkpt lat="59.2489457130" lon="30.6912732124"><time>2026-09-01T11:29:10Z</time></trkpt><trkpt lat="59.2489457130" lon="30.6912088394"><time>2026-09-01T11:29:13Z</time></trkpt><trkpt lat="59.2489457130" lon="30.6911873817"><time>2026-09-01T11:29:15Z</time></trkpt><trkpt lat="59.2489457130" lon="30.6912517548"><time>2026-09-01T11:29:18Z</time></trkpt><trkpt lat="59.2489457130" lon="30.6912302971"><time>2026-09-01T11:29:20Z</time></trkpt><trkpt lat="59.2489457130" lon="30.6912517548"><time>2026-09-01T11:29:23Z</time></trkpt><trkpt lat="59.2489457130" lon="30.6912732124"><time>2026-09-01T11:29:25Z</time></trkpt><trkpt lat="59.2489457130" lon="30.6912732124"><time>2026-09-01T11:29:28Z</time></trkpt><trkpt lat="59.2489457130" lon="30.6912732124"><time>2026-09-01T11:29:30Z</time></trkpt><trkpt lat="59.2489457130" lon="30.6912517548"><time>2026-09-01T11:29:33Z</time></trkpt><trkpt lat="59.2489457130" lon="30.6911659241"><time>2026-09-01T11:29:35Z</time></trkpt><trkpt lat="59.2489457130" lon="30.6912088394"><time>2026-09-01T11:29:38Z</time></trkpt><trkpt lat="59.2489457130" lon="30.6912517548"><time>2026-09-01T11:29:40Z</time></trkpt><trkpt lat="59.2489457130" lon="30.6912732124"><time>2026-09-01T11:29:43Z</time></trkpt><trkpt lat="59.2489457130" lon="30.6912517548"><time>2026-09-01T11:29:45Z</time></trkpt><trkpt lat="59.2489457130" lon="30.6912517548"><time>2026-09-01T11:29:48Z</time></trkpt><trkpt lat="59.2489242554" lon="30.6913161278"><time>2026-09-01T11:29:50Z</time></trkpt><trkpt lat="59.2489027977" lon="30.6912732124"><time>2026-09-01T11:29:53Z</time></trkpt><trkpt lat="59.2489027977" lon="30.6912946701"><time>2026-09-01T11:29:55Z</time></trkpt><trkpt lat="59.2489242554" lon="30.6912946701"><time>2026-09-01T11:29:58Z</time></trkpt><trkpt lat="59.2489457130" lon="30.6912732124"><time>2026-09-01T11:30:00Z</time></trkpt><trkpt lat="59.2489457130" lon="30.6912732124"><time>2026-09-01T11:30:03Z</time></trkpt><trkpt lat="59.2489242554" lon="30.6912946701"><time>2026-09-01T11:30:05Z</time></trkpt><trkpt lat="59.2489242554" lon="30.6912946701"><time>2026-09-01T11:30:08Z</time></trkpt><trkpt lat="59.2489242554" lon="30.6912946701"><time>2026-09-01T11:30:10Z</time></trkpt><trkpt lat="59.2489242554" lon="30.6912946701"><time>2026-09-01T11:30:13Z</time></trkpt><trkpt lat="59.2489242554" lon="30.6912946701"><time>2026-09-01T11:30:15Z</time></trkpt><trkpt lat="59.2489242554" lon="30.6912946701"><time>2026-09-01T11:30:18Z</time></trkpt><trkpt lat="59.2489457130" lon="30.6912732124"><time>2026-09-01T11:30:20Z</time></trkpt><trkpt lat="59.2489242554" lon="30.6912517548"><time>2026-09-01T11:30:23Z</time></trkpt><trkpt lat="59.2489242554" lon="30.6912517548"><time>2026-09-01T11:30:25Z</time></trkpt><trkpt lat="59.2489242554" lon="30.6912732124"><time>2026-09-01T11:30:28Z</time></trkpt><trkpt lat="59.2489242554" lon="30.6912946701"><time>2026-09-01T11:30:30Z</time></trkpt><trkpt lat="59.2489457130" lon="30.6912946701"><time>2026-09-01T11:30:33Z</time></trkpt><trkpt lat="59.2489457130" lon="30.6912732124"><time>2026-09-01T11:30:35Z</time></trkpt><trkpt lat="59.2489457130" lon="30.6912732124"><time>2026-09-01T11:30:38Z</time></trkpt><trkpt lat="59.2489457130" lon="30.6912732124"><time>2026-09-01T11:30:40Z</time></trkpt><trkpt lat="59.2489457130" lon="30.6912732124"><time>2026-09-01T11:30:43Z</time></trkpt><trkpt lat="59.2489457130" lon="30.6912732124"><time>2026-09-01T11:30:45Z</time></trkpt><trkpt lat="59.2489457130" lon="30.6912732124"><time>2026-09-01T11:30:48Z</time></trkpt><trkpt lat="59.2489457130" lon="30.6912946701"><time>2026-09-01T11:30:50Z</time></trkpt><trkpt lat="59.2489457130" lon="30.6912946701"><time>2026-09-01T11:30:53Z</time></trkpt><trkpt lat="59.2489457130" lon="30.6912946701"><time>2026-09-01T11:30:55Z</time></trkpt><trkpt lat="59.2489457130" lon="30.6912946701"><time>2026-09-01T11:30:58Z</time></trkpt><trkpt lat="59.2489457130" lon="30.6912946701"><time>2026-09-01T11:31:00Z</time></trkpt><trkpt lat="59.2489457130" lon="30.6912946701"><time>2026-09-01T11:31:03Z</time></trkpt><trkpt lat="59.2489457130" lon="30.6912946701"><time>2026-09-01T11:31:05Z</time></trkpt><trkpt lat="59.2489457130" lon="30.6912946701"><time>2026-09-01T11:31:08Z</time></trkpt><trkpt lat="59.2489457130" lon="30.6912946701"><time>2026-09-01T11:31:10Z</time></trkpt><trkpt lat="59.2489457130" lon="30.6912946701"><time>2026-09-01T11:31:13Z</time></trkpt><trkpt lat="59.2489457130" lon="30.6912946701"><time>2026-09-01T11:31:15Z</time></trkpt><trkpt lat="59.2489457130" lon="30.6912946701"><time>2026-09-01T11:31:18Z</time></trkpt><trkpt lat="59.2489242554" lon="30.6912946701"><time>2026-09-01T11:31:20Z</time></trkpt><trkpt lat="59.2489242554" lon="30.6912946701"><time>2026-09-01T11:31:23Z</time></trkpt><trkpt lat="59.2489671707" lon="30.6913161278"><time>2026-09-01T11:31:25Z</time></trkpt><trkpt lat="59.2489886284" lon="30.6913161278"><time>2026-09-01T11:31:28Z</time></trkpt><trkpt lat="59.2489457130" lon="30.6912946701"><time>2026-09-01T11:31:30Z</time></trkpt><trkpt lat="59.2489457130" lon="30.6912946701"><time>2026-09-01T11:31:33Z</time></trkpt><trkpt lat="59.2489457130" lon="30.6912946701"><time>2026-09-01T11:31:35Z</time></trkpt><trkpt lat="59.2489242554" lon="30.6913161278"><time>2026-09-01T11:31:38Z</time></trkpt><trkpt lat="59.2489242554" lon="30.6913161278"><time>2026-09-01T11:31:40Z</time></trkpt><trkpt lat="59.2489242554" lon="30.6913161278"><time>2026-09-01T11:31:43Z</time></trkpt><trkpt lat="59.2489242554" lon="30.6913375854"><time>2026-09-01T11:31:45Z</time></trkpt><trkpt lat="59.2489242554" lon="30.6913375854"><time>2026-09-01T11:31:48Z</time></trkpt><trkpt lat="59.2489242554" lon="30.6913375854"><time>2026-09-01T11:31:50Z</time></trkpt><trkpt lat="59.2489242554" lon="30.6913161278"><time>2026-09-01T11:31:53Z</time></trkpt><trkpt lat="59.2489242554" lon="30.6912946701"><time>2026-09-01T11:31:55Z</time></trkpt><trkpt lat="59.2489242554" lon="30.6912946701"><time>2026-09-01T11:31:58Z</time></trkpt><trkpt lat="59.2489457130" lon="30.6912946701"><time>2026-09-01T11:32:00Z</time></trkpt><trkpt lat="59.2489457130" lon="30.6912946701"><time>2026-09-01T11:32:03Z</time></trkpt><trkpt lat="59.2489457130" lon="30.6913161278"><time>2026-09-01T11:32:05Z</time></trkpt><trkpt lat="59.2489457130" lon="30.6913161278"><time>2026-09-01T11:32:08Z</time></trkpt><trkpt lat="59.2489457130" lon="30.6913161278"><time>2026-09-01T11:32:10Z</time></trkpt><trkpt lat="59.2489457130" lon="30.6913161278"><time>2026-09-01T11:32:13Z</time></trkpt><trkpt lat="59.2489457130" lon="30.6913161278"><time>2026-09-01T11:32:15Z</time></trkpt><trkpt lat="59.2489242554" lon="30.6912732124"><time>2026-09-01T11:32:18Z</time></trkpt><trkpt lat="59.2489242554" lon="30.6912302971"><time>2026-09-01T11:32:20Z</time></trkpt><trkpt lat="59.2489457130" lon="30.6912517548"><time>2026-09-01T11:32:23Z</time></trkpt><trkpt lat="59.2489457130" lon="30.6912946701"><time>2026-09-01T11:32:25Z</time></trkpt><trkpt lat="59.2489457130" lon="30.6912946701"><time>2026-09-01T11:32:28Z</time></trkpt><trkpt lat="59.2489457130" lon="30.6912946701"><time>2026-09-01T11:32:30Z</time></trkpt><trkpt lat="59.2489242554" lon="30.6912946701"><time>2026-09-01T11:32:33Z</time></trkpt><trkpt lat="59.2489242554" lon="30.6912946701"><time>2026-09-01T11:32:35Z</time></trkpt><trkpt lat="59.2489242554" lon="30.6912946701"><time>2026-09-01T11:32:38Z</time></trkpt><trkpt lat="59.2489242554" lon="30.6913161278"><time>2026-09-01T11:32:40Z</time></trkpt><trkpt lat="59.2489457130" lon="30.6913161278"><time>2026-09-01T11:32:43Z</time></trkpt><trkpt lat="59.2489886284" lon="30.6912946701"><time>2026-09-01T11:32:45Z</time></trkpt><trkpt lat="59.2490100861" lon="30.6912946701"><time>2026-09-01T11:32:48Z</time></trkpt><trkpt lat="59.2490530014" lon="30.6912946701"><time>2026-09-01T11:32:50Z</time></trkpt><trkpt lat="59.2490744591" lon="30.6913161278"><time>2026-09-01T11:32:53Z</time></trkpt><trkpt lat="59.2490315437" lon="30.6913590431"><time>2026-09-01T11:32:55Z</time></trkpt><trkpt lat="59.2490100861" lon="30.6913375854"><time>2026-09-01T11:32:58Z</time></trkpt><trkpt lat="59.2490315437" lon="30.6913375854"><time>2026-09-01T11:33:00Z</time></trkpt><trkpt lat="59.2490530014" lon="30.6913375854"><time>2026-09-01T11:33:03Z</time></trkpt><trkpt lat="59.2490530014" lon="30.6913375854"><time>2026-09-01T11:33:05Z</time></trkpt><trkpt lat="59.2490959167" lon="30.6913161278"><time>2026-09-01T11:33:08Z</time></trkpt><trkpt lat="59.2490530014" lon="30.6913375854"><time>2026-09-01T11:33:10Z</time></trkpt><trkpt lat="59.2489886284" lon="30.6913590431"><time>2026-09-01T11:33:13Z</time></trkpt><trkpt lat="59.2489671707" lon="30.6913375854"><time>2026-09-01T11:33:15Z</time></trkpt><trkpt lat="59.2490100861" lon="30.6913375854"><time>2026-09-01T11:33:18Z</time></trkpt><trkpt lat="59.2490100861" lon="30.6913590431"><time>2026-09-01T11:33:20Z</time></trkpt><trkpt lat="59.2489886284" lon="30.6913161278"><time>2026-09-01T11:33:23Z</time></trkpt><trkpt lat="59.2489886284" lon="30.6913161278"><time>2026-09-01T11:33:25Z</time></trkpt><trkpt lat="59.2489886284" lon="30.6913161278"><time>2026-09-01T11:33:28Z</time></trkpt><trkpt lat="59.2489886284" lon="30.6913161278"><time>2026-09-01T11:33:30Z</time></trkpt><trkpt lat="59.2490315437" lon="30.6913375854"><time>2026-09-01T11:33:33Z</time></trkpt><trkpt lat="59.2491173744" lon="30.6913375854"><time>2026-09-01T11:33:35Z</time></trkpt><trkpt lat="59.2491173744" lon="30.6912517548"><time>2026-09-01T11:33:38Z</time></trkpt><trkpt lat="59.2490744591" lon="30.6912302971"><time>2026-09-01T11:33:40Z</time></trkpt><trkpt lat="59.2490959167" lon="30.6912088394"><time>2026-09-01T11:33:43Z</time></trkpt><trkpt lat="59.2490744591" lon="30.6911659241"><time>2026-09-01T11:33:45Z</time></trkpt><trkpt lat="59.2490744591" lon="30.6911659241"><time>2026-09-01T11:33:48Z</time></trkpt><trkpt lat="59.2490744591" lon="30.6911659241"><time>2026-09-01T11:33:50Z</time></trkpt><trkpt lat="59.2490959167" lon="30.6911659241"><time>2026-09-01T11:33:53Z</time></trkpt><trkpt lat="59.2491388321" lon="30.6912088394"><time>2026-09-01T11:33:55Z</time></trkpt><trkpt lat="59.2491173744" lon="30.6912517548"><time>2026-09-01T11:33:58Z</time></trkpt><trkpt lat="59.2490315437" lon="30.6913805008"><time>2026-09-01T11:34:00Z</time></trkpt><trkpt lat="59.2489886284" lon="30.6913805008"><time>2026-09-01T11:34:03Z</time></trkpt><trkpt lat="59.2489886284" lon="30.6913805008"><time>2026-09-01T11:34:05Z</time></trkpt><trkpt lat="59.2490315437" lon="30.6913590431"><time>2026-09-01T11:34:08Z</time></trkpt><trkpt lat="59.2490959167" lon="30.6913805008"><time>2026-09-01T11:34:10Z</time></trkpt><trkpt lat="59.2491173744" lon="30.6914234161"><time>2026-09-01T11:34:13Z</time></trkpt><trkpt lat="59.2491602898" lon="30.6914019585"><time>2026-09-01T11:34:15Z</time></trkpt><trkpt lat="59.2491173744" lon="30.6913375854"><time>2026-09-01T11:34:18Z</time></trkpt><trkpt lat="59.2490100861" lon="30.6913590431"><time>2026-09-01T11:34:20Z</time></trkpt><trkpt lat="59.2489886284" lon="30.6913375854"><time>2026-09-01T11:34:23Z</time></trkpt><trkpt lat="59.2490315437" lon="30.6913805008"><time>2026-09-01T11:34:25Z</time></trkpt><trkpt lat="59.2490530014" lon="30.6913590431"><time>2026-09-01T11:34:28Z</time></trkpt><trkpt lat="59.2490959167" lon="30.6913375854"><time>2026-09-01T11:34:30Z</time></trkpt><trkpt lat="59.2490959167" lon="30.6913375854"><time>2026-09-01T11:34:33Z</time></trkpt><trkpt lat="59.2491173744" lon="30.6913375854"><time>2026-09-01T11:34:35Z</time></trkpt><trkpt lat="59.2491173744" lon="30.6913375854"><time>2026-09-01T11:34:38Z</time></trkpt><trkpt lat="59.2491173744" lon="30.6913375854"><time>2026-09-01T11:34:40Z</time></trkpt><trkpt lat="59.2491173744" lon="30.6913375854"><time>2026-09-01T11:34:43Z</time></trkpt><trkpt lat="59.2491173744" lon="30.6913375854"><time>2026-09-01T11:34:45Z</time></trkpt><trkpt lat="59.2491173744" lon="30.6913375854"><time>2026-09-01T11:34:48Z</time></trkpt><trkpt lat="59.2491173744" lon="30.6913161278"><time>2026-09-01T11:34:50Z</time></trkpt><trkpt lat="59.2491173744" lon="30.6912946701"><time>2026-09-01T11:34:53Z</time></trkpt><trkpt lat="59.2490959167" lon="30.6912946701"><time>2026-09-01T11:34:55Z</time></trkpt><trkpt lat="59.2490959167" lon="30.6912946701"><time>2026-09-01T11:34:58Z</time></trkpt><trkpt lat="59.2490959167" lon="30.6912946701"><time>2026-09-01T11:35:00Z</time></trkpt><trkpt lat="59.2490744591" lon="30.6913161278"><time>2026-09-01T11:35:03Z</time></trkpt><trkpt lat="59.2490744591" lon="30.6913375854"><time>2026-09-01T11:35:05Z</time></trkpt><trkpt lat="59.2490744591" lon="30.6913375854"><time>2026-09-01T11:35:08Z</time></trkpt><trkpt lat="59.2490959167" lon="30.6913375854"><time>2026-09-01T11:35:10Z</time></trkpt><trkpt lat="59.2491173744" lon="30.6913161278"><time>2026-09-01T11:35:13Z</time></trkpt><trkpt lat="59.2491173744" lon="30.6913161278"><time>2026-09-01T11:35:15Z</time></trkpt><trkpt lat="59.2490959167" lon="30.6913375854"><time>2026-09-01T11:35:18Z</time></trkpt><trkpt lat="59.2490530014" lon="30.6913805008"><time>2026-09-01T11:35:20Z</time></trkpt><trkpt lat="59.2490315437" lon="30.6913805008"><time>2026-09-01T11:35:23Z</time></trkpt><trkpt lat="59.2490744591" lon="30.6913590431"><time>2026-09-01T11:35:25Z</time></trkpt><trkpt lat="59.2491173744" lon="30.6913375854"><time>2026-09-01T11:35:28Z</time></trkpt><trkpt lat="59.2491388321" lon="30.6913375854"><time>2026-09-01T11:35:30Z</time></trkpt><trkpt lat="59.2491388321" lon="30.6913375854"><time>2026-09-01T11:35:33Z</time></trkpt><trkpt lat="59.2491173744" lon="30.6913375854"><time>2026-09-01T11:35:35Z</time></trkpt><trkpt lat="59.2491173744" lon="30.6913161278"><time>2026-09-01T11:35:38Z</time></trkpt><trkpt lat="59.2491817474" lon="30.6912517548"><time>2026-09-01T11:35:40Z</time></trkpt><trkpt lat="59.2491817474" lon="30.6912302971"><time>2026-09-01T11:35:43Z</time></trkpt><trkpt lat="59.2491817474" lon="30.6912088394"><time>2026-09-01T11:35:45Z</time></trkpt><trkpt lat="59.2491817474" lon="30.6912088394"><time>2026-09-01T11:35:48Z</time></trkpt><trkpt lat="59.2492032051" lon="30.6912088394"><time>2026-09-01T11:35:50Z</time></trkpt><trkpt lat="59.2492675781" lon="30.6911444664"><time>2026-09-01T11:35:53Z</time></trkpt><trkpt lat="59.2493319511" lon="30.6910371780"><time>2026-09-01T11:35:55Z</time></trkpt><trkpt lat="59.2493319511" lon="30.6910371780"><time>2026-09-01T11:35:58Z</time></trkpt><trkpt lat="59.2492675781" lon="30.6910586357"><time>2026-09-01T11:36:00Z</time></trkpt><trkpt lat="59.2492461205" lon="30.6910800934"><time>2026-09-01T11:36:03Z</time></trkpt><trkpt lat="59.2492675781" lon="30.6910586357"><time>2026-09-01T11:36:05Z</time></trkpt><trkpt lat="59.2493104935" lon="30.6909942627"><time>2026-09-01T11:36:08Z</time></trkpt><trkpt lat="59.2493748665" lon="30.6909728050"><time>2026-09-01T11:36:10Z</time></trkpt><trkpt lat="59.2494177818" lon="30.6909728050"><time>2026-09-01T11:36:13Z</time></trkpt><trkpt lat="59.2494392395" lon="30.6909298897"><time>2026-09-01T11:36:15Z</time></trkpt><trkpt lat="59.2494821548" lon="30.6909084320"><time>2026-09-01T11:36:18Z</time></trkpt><trkpt lat="59.2495465279" lon="30.6909084320"><time>2026-09-01T11:36:20Z</time></trkpt><trkpt lat="59.2495894432" lon="30.6908655167"><time>2026-09-01T11:36:23Z</time></trkpt><trkpt lat="59.2495894432" lon="30.6908226013"><time>2026-09-01T11:36:25Z</time></trkpt><trkpt lat="59.2495894432" lon="30.6908011436"><time>2026-09-01T11:36:28Z</time></trkpt><trkpt lat="59.2496323586" lon="30.6907796860"><time>2026-09-01T11:36:30Z</time></trkpt><trkpt lat="59.2496752739" lon="30.6907582283"><time>2026-09-01T11:36:33Z</time></trkpt><trkpt lat="59.2497396469" lon="30.6907153130"><time>2026-09-01T11:36:35Z</time></trkpt><trkpt lat="59.2497611046" lon="30.6907153130"><time>2026-09-01T11:36:38Z</time></trkpt><trkpt lat="59.2496752739" lon="30.6907367706"><time>2026-09-01T11:36:40Z</time></trkpt><trkpt lat="59.2496323586" lon="30.6907796860"><time>2026-09-01T11:36:43Z</time></trkpt><trkpt lat="59.2496323586" lon="30.6907582283"><time>2026-09-01T11:36:45Z</time></trkpt><trkpt lat="59.2496752739" lon="30.6907153130"><time>2026-09-01T11:36:48Z</time></trkpt><trkpt lat="59.2497611046" lon="30.6906294823"><time>2026-09-01T11:36:50Z</time></trkpt><trkpt lat="59.2497825623" lon="30.6906080246"><time>2026-09-01T11:36:53Z</time></trkpt><trkpt lat="59.2497825623" lon="30.6906294823"><time>2026-09-01T11:36:55Z</time></trkpt><trkpt lat="59.2497825623" lon="30.6906509399"><time>2026-09-01T11:36:58Z</time></trkpt><trkpt lat="59.2498040199" lon="30.6906723976"><time>2026-09-01T11:37:00Z</time></trkpt><trkpt lat="59.2498040199" lon="30.6906080246"><time>2026-09-01T11:37:03Z</time></trkpt><trkpt lat="59.2498254776" lon="30.6905651093"><time>2026-09-01T11:37:05Z</time></trkpt><trkpt lat="59.2498254776" lon="30.6905651093"><time>2026-09-01T11:37:08Z</time></trkpt><trkpt lat="59.2499113083" lon="30.6904792786"><time>2026-09-01T11:37:10Z</time></trkpt><trkpt lat="59.2499971390" lon="30.6903719902"><time>2026-09-01T11:37:13Z</time></trkpt><trkpt lat="59.2500185966" lon="30.6903290749"><time>2026-09-01T11:37:15Z</time></trkpt><trkpt lat="59.2499971390" lon="30.6903934479"><time>2026-09-01T11:37:18Z</time></trkpt><trkpt lat="59.2500615120" lon="30.6903076172"><time>2026-09-01T11:37:20Z</time></trkpt><trkpt lat="59.2500829697" lon="30.6903290749"><time>2026-09-01T11:37:23Z</time></trkpt><trkpt lat="59.2500829697" lon="30.6903290749"><time>2026-09-01T11:37:25Z</time></trkpt><trkpt lat="59.2500185966" lon="30.6903719902"><time>2026-09-01T11:37:28Z</time></trkpt><trkpt lat="59.2500185966" lon="30.6904363632"><time>2026-09-01T11:37:30Z</time></trkpt><trkpt lat="59.2500615120" lon="30.6904149055"><time>2026-09-01T11:37:33Z</time></trkpt><trkpt lat="59.2500829697" lon="30.6903934479"><time>2026-09-01T11:37:35Z</time></trkpt><trkpt lat="59.2500829697" lon="30.6904149055"><time>2026-09-01T11:37:38Z</time></trkpt><trkpt lat="59.2500829697" lon="30.6903719902"><time>2026-09-01T11:37:40Z</time></trkpt><trkpt lat="59.2501044273" lon="30.6903505325"><time>2026-09-01T11:37:43Z</time></trkpt><trkpt lat="59.2501258850" lon="30.6904149055"><time>2026-09-01T11:37:45Z</time></trkpt><trkpt lat="59.2501688004" lon="30.6904149055"><time>2026-09-01T11:37:48Z</time></trkpt><trkpt lat="59.2502331734" lon="30.6903290749"><time>2026-09-01T11:37:50Z</time></trkpt><trkpt lat="59.2502117157" lon="30.6902861595"><time>2026-09-01T11:37:53Z</time></trkpt><trkpt lat="59.2501902580" lon="30.6902647018"><time>2026-09-01T11:37:55Z</time></trkpt><trkpt lat="59.2501902580" lon="30.6902647018"><time>2026-09-01T11:37:58Z</time></trkpt><trkpt lat="59.2502760887" lon="30.6902003288"><time>2026-09-01T11:38:00Z</time></trkpt><trkpt lat="59.2503190041" lon="30.6901788712"><time>2026-09-01T11:38:03Z</time></trkpt><trkpt lat="59.2503190041" lon="30.6901788712"><time>2026-09-01T11:38:05Z</time></trkpt><trkpt lat="59.2502546310" lon="30.6902003288"><time>2026-09-01T11:38:08Z</time></trkpt><trkpt lat="59.2502760887" lon="30.6902003288"><time>2026-09-01T11:38:10Z</time></trkpt><trkpt lat="59.2503190041" lon="30.6901574135"><time>2026-09-01T11:38:13Z</time></trkpt><trkpt lat="59.2503619194" lon="30.6901144981"><time>2026-09-01T11:38:15Z</time></trkpt><trkpt lat="59.2503619194" lon="30.6901144981"><time>2026-09-01T11:38:18Z</time></trkpt><trkpt lat="59.2504048347" lon="30.6900715828"><time>2026-09-01T11:38:20Z</time></trkpt><trkpt lat="59.2504048347" lon="30.6900715828"><time>2026-09-01T11:38:23Z</time></trkpt><trkpt lat="59.2504262924" lon="30.6900501251"><time>2026-09-01T11:38:25Z</time></trkpt><trkpt lat="59.2504477501" lon="30.6900286674"><time>2026-09-01T11:38:28Z</time></trkpt><trkpt lat="59.2504477501" lon="30.6900286674"><time>2026-09-01T11:38:30Z</time></trkpt><trkpt lat="59.2504477501" lon="30.6900286674"><time>2026-09-01T11:38:33Z</time></trkpt><trkpt lat="59.2504477501" lon="30.6900501251"><time>2026-09-01T11:38:35Z</time></trkpt><trkpt lat="59.2504262924" lon="30.6900501251"><time>2026-09-01T11:38:38Z</time></trkpt><trkpt lat="59.2504906654" lon="30.6900072098"><time>2026-09-01T11:38:40Z</time></trkpt><trkpt lat="59.2505121231" lon="30.6900072098"><time>2026-09-01T11:38:43Z</time></trkpt><trkpt lat="59.2505550385" lon="30.6899213791"><time>2026-09-01T11:38:45Z</time></trkpt><trkpt lat="59.2506194115" lon="30.6898784637"><time>2026-09-01T11:38:48Z</time></trkpt><trkpt lat="59.2506623268" lon="30.6898140907"><time>2026-09-01T11:38:50Z</time></trkpt><trkpt lat="59.2506837845" lon="30.6898140907"><time>2026-09-01T11:38:53Z</time></trkpt><trkpt lat="59.2506623268" lon="30.6898784637"><time>2026-09-01T11:38:55Z</time></trkpt><trkpt lat="59.2506408691" lon="30.6899642944"><time>2026-09-01T11:38:58Z</time></trkpt><trkpt lat="59.2506408691" lon="30.6899857521"><time>2026-09-01T11:39:00Z</time></trkpt><trkpt lat="59.2506623268" lon="30.6899642944"><time>2026-09-01T11:39:03Z</time></trkpt><trkpt lat="59.2506837845" lon="30.6899428368"><time>2026-09-01T11:39:05Z</time></trkpt><trkpt lat="59.2506837845" lon="30.6899428368"><time>2026-09-01T11:39:08Z</time></trkpt><trkpt lat="59.2506837845" lon="30.6899428368"><time>2026-09-01T11:39:10Z</time></trkpt><trkpt lat="59.2507052422" lon="30.6898570061"><time>2026-09-01T11:39:13Z</time></trkpt><trkpt lat="59.2507481575" lon="30.6898355484"><time>2026-09-01T11:39:15Z</time></trkpt><trkpt lat="59.2507266998" lon="30.6898140907"><time>2026-09-01T11:39:18Z</time></trkpt><trkpt lat="59.2507266998" lon="30.6897926331"><time>2026-09-01T11:39:20Z</time></trkpt><trkpt lat="59.2507481575" lon="30.6898140907"><time>2026-09-01T11:39:23Z</time></trkpt><trkpt lat="59.2508125305" lon="30.6897068024"><time>2026-09-01T11:39:25Z</time></trkpt><trkpt lat="59.2508554459" lon="30.6896638870"><time>2026-09-01T11:39:28Z</time></trkpt><trkpt lat="59.2508339882" lon="30.6896638870"><time>2026-09-01T11:39:30Z</time></trkpt><trkpt lat="59.2508125305" lon="30.6896638870"><time>2026-09-01T11:39:33Z</time></trkpt><trkpt lat="59.2508339882" lon="30.6896853447"><time>2026-09-01T11:39:35Z</time></trkpt><trkpt lat="59.2508983612" lon="30.6896638870"><time>2026-09-01T11:39:38Z</time></trkpt><trkpt lat="59.2509198189" lon="30.6896209717"><time>2026-09-01T11:39:40Z</time></trkpt><trkpt lat="59.2509198189" lon="30.6896209717"><time>2026-09-01T11:39:43Z</time></trkpt><trkpt lat="59.2509198189" lon="30.6896209717"><time>2026-09-01T11:39:45Z</time></trkpt><trkpt lat="59.2509198189" lon="30.6895995140"><time>2026-09-01T11:39:48Z</time></trkpt><trkpt lat="59.2510056496" lon="30.6895136833"><time>2026-09-01T11:39:50Z</time></trkpt><trkpt lat="59.2510914803" lon="30.6894493103"><time>2026-09-01T11:39:53Z</time></trkpt><trkpt lat="59.2511558533" lon="30.6894063950"><time>2026-09-01T11:39:55Z</time></trkpt><trkpt lat="59.2511558533" lon="30.6893849373"><time>2026-09-01T11:39:58Z</time></trkpt><trkpt lat="59.2510700226" lon="30.6894278526"><time>2026-09-01T11:40:00Z</time></trkpt><trkpt lat="59.2510271072" lon="30.6894493103"><time>2026-09-01T11:40:03Z</time></trkpt><trkpt lat="59.2511129379" lon="30.6894063950"><time>2026-09-01T11:40:05Z</time></trkpt><trkpt lat="59.2511343956" lon="30.6894063950"><time>2026-09-01T11:40:08Z</time></trkpt><trkpt lat="59.2511343956" lon="30.6893849373"><time>2026-09-01T11:40:10Z</time></trkpt><trkpt lat="59.2511129379" lon="30.6894278526"><time>2026-09-01T11:40:13Z</time></trkpt><trkpt lat="59.2510914803" lon="30.6894707680"><time>2026-09-01T11:40:15Z</time></trkpt><trkpt lat="59.2511343956" lon="30.6895136833"><time>2026-09-01T11:40:18Z</time></trkpt><trkpt lat="59.2511129379" lon="30.6895780563"><time>2026-09-01T11:40:20Z</time></trkpt><trkpt lat="59.2511343956" lon="30.6895351410"><time>2026-09-01T11:40:23Z</time></trkpt><trkpt lat="59.2511773109" lon="30.6894063950"><time>2026-09-01T11:40:25Z</time></trkpt><trkpt lat="59.2511773109" lon="30.6894063950"><time>2026-09-01T11:40:28Z</time></trkpt><trkpt lat="59.2511773109" lon="30.6894063950"><time>2026-09-01T11:40:30Z</time></trkpt><trkpt lat="59.2511773109" lon="30.6894063950"><time>2026-09-01T11:40:33Z</time></trkpt><trkpt lat="59.2511987686" lon="30.6893849373"><time>2026-09-01T11:40:35Z</time></trkpt><trkpt lat="59.2511987686" lon="30.6893634796"><time>2026-09-01T11:40:38Z</time></trkpt><trkpt lat="59.2511773109" lon="30.6893849373"><time>2026-09-01T11:40:40Z</time></trkpt><trkpt lat="59.2511773109" lon="30.6893849373"><time>2026-09-01T11:40:43Z</time></trkpt><trkpt lat="59.2511773109" lon="30.6893849373"><time>2026-09-01T11:40:45Z</time></trkpt><trkpt lat="59.2511773109" lon="30.6893849373"><time>2026-09-01T11:40:48Z</time></trkpt><trkpt lat="59.2511773109" lon="30.6893849373"><time>2026-09-01T11:40:50Z</time></trkpt><trkpt lat="59.2511773109" lon="30.6893849373"><time>2026-09-01T11:40:53Z</time></trkpt><trkpt lat="59.2511773109" lon="30.6893849373"><time>2026-09-01T11:40:55Z</time></trkpt><trkpt lat="59.2511773109" lon="30.6893849373"><time>2026-09-01T11:40:58Z</time></trkpt><trkpt lat="59.2511773109" lon="30.6893849373"><time>2026-09-01T11:41:00Z</time></trkpt><trkpt lat="59.2511773109" lon="30.6893849373"><time>2026-09-01T11:41:03Z</time></trkpt><trkpt lat="59.2511773109" lon="30.6893849373"><time>2026-09-01T11:41:05Z</time></trkpt><trkpt lat="59.2511773109" lon="30.6893849373"><time>2026-09-01T11:41:08Z</time></trkpt><trkpt lat="59.2511773109" lon="30.6893849373"><time>2026-09-01T11:41:10Z</time></trkpt><trkpt lat="59.2511773109" lon="30.6893849373"><time>2026-09-01T11:41:13Z</time></trkpt><trkpt lat="59.2511773109" lon="30.6893849373"><time>2026-09-01T11:41:15Z</time></trkpt><trkpt lat="59.2511773109" lon="30.6893849373"><time>2026-09-01T11:41:18Z</time></trkpt><trkpt lat="59.2511987686" lon="30.6893634796"><time>2026-09-01T11:41:20Z</time></trkpt><trkpt lat="59.2511987686" lon="30.6893634796"><time>2026-09-01T11:41:23Z</time></trkpt><trkpt lat="59.2511987686" lon="30.6893634796"><time>2026-09-01T11:41:25Z</time></trkpt><trkpt lat="59.2511987686" lon="30.6893634796"><time>2026-09-01T11:41:28Z</time></trkpt><trkpt lat="59.2511987686" lon="30.6893634796"><time>2026-09-01T11:41:30Z</time></trkpt><trkpt lat="59.2511987686" lon="30.6893634796"><time>2026-09-01T11:41:33Z</time></trkpt><trkpt lat="59.2511987686" lon="30.6893634796"><time>2026-09-01T11:41:35Z</time></trkpt><trkpt lat="59.2511987686" lon="30.6893634796"><time>2026-09-01T11:41:38Z</time></trkpt><trkpt lat="59.2511987686" lon="30.6893634796"><time>2026-09-01T11:41:40Z</time></trkpt><trkpt lat="59.2511987686" lon="30.6893634796"><time>2026-09-01T11:41:43Z</time></trkpt><trkpt lat="59.2511773109" lon="30.6893634796"><time>2026-09-01T11:41:45Z</time></trkpt><trkpt lat="59.2511987686" lon="30.6893634796"><time>2026-09-01T11:41:48Z</time></trkpt><trkpt lat="59.2512202263" lon="30.6893634796"><time>2026-09-01T11:41:50Z</time></trkpt><trkpt lat="59.2511773109" lon="30.6893634796"><time>2026-09-01T11:41:53Z</time></trkpt><trkpt lat="59.2511773109" lon="30.6893849373"><time>2026-09-01T11:41:55Z</time></trkpt><trkpt lat="59.2511773109" lon="30.6893634796"><time>2026-09-01T11:41:58Z</time></trkpt><trkpt lat="59.2511987686" lon="30.6894278526"><time>2026-09-01T11:42:00Z</time></trkpt><trkpt lat="59.2511773109" lon="30.6894707680"><time>2026-09-01T11:42:03Z</time></trkpt><trkpt lat="59.2511558533" lon="30.6895136833"><time>2026-09-01T11:42:05Z</time></trkpt><trkpt lat="59.2512202263" lon="30.6895995140"><time>2026-09-01T11:42:08Z</time></trkpt><trkpt lat="59.2512631416" lon="30.6895351410"><time>2026-09-01T11:42:10Z</time></trkpt><trkpt lat="59.2512416840" lon="30.6894063950"><time>2026-09-01T11:42:13Z</time></trkpt><trkpt lat="59.2511773109" lon="30.6893849373"><time>2026-09-01T11:42:15Z</time></trkpt><trkpt lat="59.2511558533" lon="30.6893849373"><time>2026-09-01T11:42:18Z</time></trkpt><trkpt lat="59.2511129379" lon="30.6894063950"><time>2026-09-01T11:42:20Z</time></trkpt><trkpt lat="59.2511129379" lon="30.6893849373"><time>2026-09-01T11:42:23Z</time></trkpt><trkpt lat="59.2511987686" lon="30.6893420219"><time>2026-09-01T11:42:25Z</time></trkpt><trkpt lat="59.2512631416" lon="30.6892991066"><time>2026-09-01T11:42:28Z</time></trkpt><trkpt lat="59.2512845993" lon="30.6892776489"><time>2026-09-01T11:42:30Z</time></trkpt><trkpt lat="59.2512631416" lon="30.6892991066"><time>2026-09-01T11:42:33Z</time></trkpt><trkpt lat="59.2512416840" lon="30.6893849373"><time>2026-09-01T11:42:35Z</time></trkpt><trkpt lat="59.2512631416" lon="30.6894707680"><time>2026-09-01T11:42:38Z</time></trkpt><trkpt lat="59.2513060570" lon="30.6896209717"><time>2026-09-01T11:42:40Z</time></trkpt><trkpt lat="59.2513275146" lon="30.6896424294"><time>2026-09-01T11:42:43Z</time></trkpt><trkpt lat="59.2512845993" lon="30.6895351410"><time>2026-09-01T11:42:45Z</time></trkpt><trkpt lat="59.2512631416" lon="30.6894493103"><time>2026-09-01T11:42:48Z</time></trkpt><trkpt lat="59.2512631416" lon="30.6894063950"><time>2026-09-01T11:42:50Z</time></trkpt><trkpt lat="59.2512631416" lon="30.6894707680"><time>2026-09-01T11:42:53Z</time></trkpt><trkpt lat="59.2513060570" lon="30.6895995140"><time>2026-09-01T11:42:55Z</time></trkpt><trkpt lat="59.2513060570" lon="30.6896638870"><time>2026-09-01T11:42:58Z</time></trkpt><trkpt lat="59.2513060570" lon="30.6895995140"><time>2026-09-01T11:43:00Z</time></trkpt><trkpt lat="59.2512631416" lon="30.6894922256"><time>2026-09-01T11:43:03Z</time></trkpt><trkpt lat="59.2512631416" lon="30.6894493103"><time>2026-09-01T11:43:05Z</time></trkpt><trkpt lat="59.2512631416" lon="30.6894278526"><time>2026-09-01T11:43:08Z</time></trkpt><trkpt lat="59.2512631416" lon="30.6894278526"><time>2026-09-01T11:43:10Z</time></trkpt><trkpt lat="59.2512631416" lon="30.6894493103"><time>2026-09-01T11:43:13Z</time></trkpt><trkpt lat="59.2512631416" lon="30.6894493103"><time>2026-09-01T11:43:15Z</time></trkpt><trkpt lat="59.2512631416" lon="30.6894493103"><time>2026-09-01T11:43:18Z</time></trkpt><trkpt lat="59.2512631416" lon="30.6894493103"><time>2026-09-01T11:43:20Z</time></trkpt><trkpt lat="59.2512845993" lon="30.6894278526"><time>2026-09-01T11:43:23Z</time></trkpt><trkpt lat="59.2512845993" lon="30.6894278526"><time>2026-09-01T11:43:25Z</time></trkpt><trkpt lat="59.2513060570" lon="30.6894063950"><time>2026-09-01T11:43:28Z</time></trkpt><trkpt lat="59.2513275146" lon="30.6893849373"><time>2026-09-01T11:43:30Z</time></trkpt><trkpt lat="59.2513489723" lon="30.6894063950"><time>2026-09-01T11:43:33Z</time></trkpt><trkpt lat="59.2513704300" lon="30.6893849373"><time>2026-09-01T11:43:35Z</time></trkpt><trkpt lat="59.2513275146" lon="30.6893849373"><time>2026-09-01T11:43:38Z</time></trkpt><trkpt lat="59.2512845993" lon="30.6893849373"><time>2026-09-01T11:43:40Z</time></trkpt><trkpt lat="59.2512631416" lon="30.6893849373"><time>2026-09-01T11:43:43Z</time></trkpt><trkpt lat="59.2512202263" lon="30.6893849373"><time>2026-09-01T11:43:45Z</time></trkpt><trkpt lat="59.2511987686" lon="30.6893634796"><time>2026-09-01T11:43:48Z</time></trkpt><trkpt lat="59.2512202263" lon="30.6893634796"><time>2026-09-01T11:43:50Z</time></trkpt><trkpt lat="59.2512845993" lon="30.6894063950"><time>2026-09-01T11:43:53Z</time></trkpt><trkpt lat="59.2513060570" lon="30.6893849373"><time>2026-09-01T11:43:55Z</time></trkpt><trkpt lat="59.2513060570" lon="30.6893849373"><time>2026-09-01T11:43:58Z</time></trkpt><trkpt lat="59.2512845993" lon="30.6893849373"><time>2026-09-01T11:44:00Z</time></trkpt><trkpt lat="59.2513060570" lon="30.6894063950"><time>2026-09-01T11:44:03Z</time></trkpt><trkpt lat="59.2513060570" lon="30.6894063950"><time>2026-09-01T11:44:05Z</time></trkpt><trkpt lat="59.2513060570" lon="30.6894063950"><time>2026-09-01T11:44:08Z</time></trkpt><trkpt lat="59.2513060570" lon="30.6894063950"><time>2026-09-01T11:44:10Z</time></trkpt><trkpt lat="59.2512845993" lon="30.6894063950"><time>2026-09-01T11:44:13Z</time></trkpt><trkpt lat="59.2512416840" lon="30.6894063950"><time>2026-09-01T11:44:15Z</time></trkpt><trkpt lat="59.2512845993" lon="30.6894063950"><time>2026-09-01T11:44:18Z</time></trkpt><trkpt lat="59.2512845993" lon="30.6893849373"><time>2026-09-01T11:44:20Z</time></trkpt><trkpt lat="59.2512845993" lon="30.6893634796"><time>2026-09-01T11:44:23Z</time></trkpt><trkpt lat="59.2513275146" lon="30.6893420219"><time>2026-09-01T11:44:25Z</time></trkpt><trkpt lat="59.2513275146" lon="30.6892991066"><time>2026-09-01T11:44:28Z</time></trkpt><trkpt lat="59.2513275146" lon="30.6892561913"><time>2026-09-01T11:44:30Z</time></trkpt><trkpt lat="59.2513275146" lon="30.6892347336"><time>2026-09-01T11:44:33Z</time></trkpt><trkpt lat="59.2513918877" lon="30.6891918182"><time>2026-09-01T11:44:35Z</time></trkpt><trkpt lat="59.2514348030" lon="30.6891489029"><time>2026-09-01T11:44:38Z</time></trkpt><trkpt lat="59.2514133453" lon="30.6891703606"><time>2026-09-01T11:44:40Z</time></trkpt><trkpt lat="59.2513918877" lon="30.6892347336"><time>2026-09-01T11:44:43Z</time></trkpt><trkpt lat="59.2514133453" lon="30.6891489029"><time>2026-09-01T11:44:45Z</time></trkpt><trkpt lat="59.2514562607" lon="30.6891059875"><time>2026-09-01T11:44:48Z</time></trkpt><trkpt lat="59.2514991760" lon="30.6891059875"><time>2026-09-01T11:44:50Z</time></trkpt><trkpt lat="59.2515420914" lon="30.6890845299"><time>2026-09-01T11:44:53Z</time></trkpt><trkpt lat="59.2515420914" lon="30.6890630722"><time>2026-09-01T11:44:55Z</time></trkpt><trkpt lat="59.2515420914" lon="30.6890630722"><time>2026-09-01T11:44:58Z</time></trkpt><trkpt lat="59.2515206337" lon="30.6891059875"><time>2026-09-01T11:45:00Z</time></trkpt><trkpt lat="59.2515420914" lon="30.6891918182"><time>2026-09-01T11:45:03Z</time></trkpt><trkpt lat="59.2515420914" lon="30.6891274452"><time>2026-09-01T11:45:05Z</time></trkpt><trkpt lat="59.2516279221" lon="30.6890416145"><time>2026-09-01T11:45:08Z</time></trkpt><trkpt lat="59.2516493797" lon="30.6889772415"><time>2026-09-01T11:45:10Z</time></trkpt><trkpt lat="59.2516708374" lon="30.6889343262"><time>2026-09-01T11:45:13Z</time></trkpt><trkpt lat="59.2516922951" lon="30.6888914108"><time>2026-09-01T11:45:15Z</time></trkpt><trkpt lat="59.2517781258" lon="30.6888270378"><time>2026-09-01T11:45:18Z</time></trkpt><trkpt lat="59.2518210411" lon="30.6887841225"><time>2026-09-01T11:45:20Z</time></trkpt><trkpt lat="59.2518210411" lon="30.6887841225"><time>2026-09-01T11:45:23Z</time></trkpt><trkpt lat="59.2517566681" lon="30.6888484955"><time>2026-09-01T11:45:25Z</time></trkpt><trkpt lat="59.2517566681" lon="30.6889986992"><time>2026-09-01T11:45:28Z</time></trkpt><trkpt lat="59.2517995834" lon="30.6890201569"><time>2026-09-01T11:45:30Z</time></trkpt><trkpt lat="59.2518424988" lon="30.6890416145"><time>2026-09-01T11:45:33Z</time></trkpt><trkpt lat="59.2518639565" lon="30.6889986992"><time>2026-09-01T11:45:35Z</time></trkpt><trkpt lat="59.2519068718" lon="30.6889128685"><time>2026-09-01T11:45:38Z</time></trkpt><trkpt lat="59.2519068718" lon="30.6888699532"><time>2026-09-01T11:45:40Z</time></trkpt><trkpt lat="59.2519068718" lon="30.6888699532"><time>2026-09-01T11:45:43Z</time></trkpt><trkpt lat="59.2519068718" lon="30.6888699532"><time>2026-09-01T11:45:45Z</time></trkpt><trkpt lat="59.2519068718" lon="30.6888699532"><time>2026-09-01T11:45:48Z</time></trkpt><trkpt lat="59.2519283295" lon="30.6888484955"><time>2026-09-01T11:45:50Z</time></trkpt><trkpt lat="59.2519712448" lon="30.6888055801"><time>2026-09-01T11:45:53Z</time></trkpt><trkpt lat="59.2519712448" lon="30.6887841225"><time>2026-09-01T11:45:55Z</time></trkpt><trkpt lat="59.2519712448" lon="30.6887841225"><time>2026-09-01T11:45:58Z</time></trkpt><trkpt lat="59.2519712448" lon="30.6887841225"><time>2026-09-01T11:46:00Z</time></trkpt><trkpt lat="59.2519712448" lon="30.6887841225"><time>2026-09-01T11:46:03Z</time></trkpt><trkpt lat="59.2519712448" lon="30.6887841225"><time>2026-09-01T11:46:05Z</time></trkpt><trkpt lat="59.2519712448" lon="30.6887626648"><time>2026-09-01T11:46:08Z</time></trkpt><trkpt lat="59.2519927025" lon="30.6887412071"><time>2026-09-01T11:46:10Z</time></trkpt><trkpt lat="59.2519927025" lon="30.6887412071"><time>2026-09-01T11:46:13Z</time></trkpt><trkpt lat="59.2519927025" lon="30.6887197495"><time>2026-09-01T11:46:15Z</time></trkpt><trkpt lat="59.2519927025" lon="30.6886982918"><time>2026-09-01T11:46:18Z</time></trkpt><trkpt lat="59.2520356178" lon="30.6886553764"><time>2026-09-01T11:46:20Z</time></trkpt><trkpt lat="59.2520356178" lon="30.6886339188"><time>2026-09-01T11:46:23Z</time></trkpt><trkpt lat="59.2520356178" lon="30.6886339188"><time>2026-09-01T11:46:25Z</time></trkpt><trkpt lat="59.2520570755" lon="30.6886339188"><time>2026-09-01T11:46:28Z</time></trkpt><trkpt lat="59.2520570755" lon="30.6886553764"><time>2026-09-01T11:46:30Z</time></trkpt><trkpt lat="59.2520570755" lon="30.6886768341"><time>2026-09-01T11:46:33Z</time></trkpt><trkpt lat="59.2520785332" lon="30.6887197495"><time>2026-09-01T11:46:35Z</time></trkpt><trkpt lat="59.2520999908" lon="30.6887197495"><time>2026-09-01T11:46:38Z</time></trkpt><trkpt lat="59.2520999908" lon="30.6887197495"><time>2026-09-01T11:46:40Z</time></trkpt><trkpt lat="59.2520999908" lon="30.6887197495"><time>2026-09-01T11:46:43Z</time></trkpt><trkpt lat="59.2520999908" lon="30.6887197495"><time>2026-09-01T11:46:45Z</time></trkpt><trkpt lat="59.2521214485" lon="30.6887412071"><time>2026-09-01T11:46:48Z</time></trkpt><trkpt lat="59.2521214485" lon="30.6887412071"><time>2026-09-01T11:46:50Z</time></trkpt><trkpt lat="59.2521429062" lon="30.6886982918"><time>2026-09-01T11:46:53Z</time></trkpt><trkpt lat="59.2521643639" lon="30.6886768341"><time>2026-09-01T11:46:55Z</time></trkpt><trkpt lat="59.2521858215" lon="30.6886553764"><time>2026-09-01T11:46:58Z</time></trkpt><trkpt lat="59.2521858215" lon="30.6886553764"><time>2026-09-01T11:47:00Z</time></trkpt><trkpt lat="59.2521858215" lon="30.6886553764"><time>2026-09-01T11:47:03Z</time></trkpt><trkpt lat="59.2521858215" lon="30.6886553764"><time>2026-09-01T11:47:05Z</time></trkpt><trkpt lat="59.2522072792" lon="30.6886982918"><time>2026-09-01T11:47:08Z</time></trkpt><trkpt lat="59.2522287369" lon="30.6886768341"><time>2026-09-01T11:47:10Z</time></trkpt><trkpt lat="59.2522501945" lon="30.6886982918"><time>2026-09-01T11:47:13Z</time></trkpt><trkpt lat="59.2522501945" lon="30.6886768341"><time>2026-09-01T11:47:15Z</time></trkpt><trkpt lat="59.2522501945" lon="30.6886553764"><time>2026-09-01T11:47:18Z</time></trkpt><trkpt lat="59.2522931099" lon="30.6886339188"><time>2026-09-01T11:47:20Z</time></trkpt><trkpt lat="59.2523145676" lon="30.6886124611"><time>2026-09-01T11:47:23Z</time></trkpt><trkpt lat="59.2523360252" lon="30.6885910034"><time>2026-09-01T11:47:25Z</time></trkpt><trkpt lat="59.2523145676" lon="30.6885695457"><time>2026-09-01T11:47:28Z</time></trkpt><trkpt lat="59.2523360252" lon="30.6885051727"><time>2026-09-01T11:47:30Z</time></trkpt><trkpt lat="59.2523360252" lon="30.6884622574"><time>2026-09-01T11:47:33Z</time></trkpt><trkpt lat="59.2523145676" lon="30.6884622574"><time>2026-09-01T11:47:35Z</time></trkpt><trkpt lat="59.2523574829" lon="30.6884407997"><time>2026-09-01T11:47:38Z</time></trkpt><trkpt lat="59.2523574829" lon="30.6883978844"><time>2026-09-01T11:47:40Z</time></trkpt><trkpt lat="59.2523789406" lon="30.6884193420"><time>2026-09-01T11:47:43Z</time></trkpt><trkpt lat="59.2524003983" lon="30.6884622574"><time>2026-09-01T11:47:45Z</time></trkpt><trkpt lat="59.2524433136" lon="30.6884193420"><time>2026-09-01T11:47:48Z</time></trkpt><trkpt lat="59.2524433136" lon="30.6884193420"><time>2026-09-01T11:47:50Z</time></trkpt><trkpt lat="59.2524647713" lon="30.6883978844"><time>2026-09-01T11:47:53Z</time></trkpt><trkpt lat="59.2524862289" lon="30.6883978844"><time>2026-09-01T11:47:55Z</time></trkpt><trkpt lat="59.2524862289" lon="30.6883978844"><time>2026-09-01T11:47:58Z</time></trkpt><trkpt lat="59.2524862289" lon="30.6883978844"><time>2026-09-01T11:48:00Z</time></trkpt><trkpt lat="59.2524862289" lon="30.6883978844"><time>2026-09-01T11:48:03Z</time></trkpt><trkpt lat="59.2525291443" lon="30.6883978844"><time>2026-09-01T11:48:05Z</time></trkpt><trkpt lat="59.2525506020" lon="30.6883978844"><time>2026-09-01T11:48:08Z</time></trkpt><trkpt lat="59.2525291443" lon="30.6884193420"><time>2026-09-01T11:48:10Z</time></trkpt><trkpt lat="59.2525291443" lon="30.6884193420"><time>2026-09-01T11:48:13Z</time></trkpt><trkpt lat="59.2525506020" lon="30.6883978844"><time>2026-09-01T11:48:15Z</time></trkpt><trkpt lat="59.2525720596" lon="30.6883549690"><time>2026-09-01T11:48:18Z</time></trkpt><trkpt lat="59.2525935173" lon="30.6883120537"><time>2026-09-01T11:48:20Z</time></trkpt><trkpt lat="59.2525935173" lon="30.6882691383"><time>2026-09-01T11:48:23Z</time></trkpt><trkpt lat="59.2526149750" lon="30.6882047653"><time>2026-09-01T11:48:25Z</time></trkpt><trkpt lat="59.2526364326" lon="30.6881618500"><time>2026-09-01T11:48:28Z</time></trkpt><trkpt lat="59.2526364326" lon="30.6881189346"><time>2026-09-01T11:48:30Z</time></trkpt><trkpt lat="59.2526364326" lon="30.6880974770"><time>2026-09-01T11:48:33Z</time></trkpt><trkpt lat="59.2526364326" lon="30.6880974770"><time>2026-09-01T11:48:35Z</time></trkpt><trkpt lat="59.2526578903" lon="30.6880760193"><time>2026-09-01T11:48:38Z</time></trkpt><trkpt lat="59.2526793480" lon="30.6880545616"><time>2026-09-01T11:48:40Z</time></trkpt><trkpt lat="59.2527008057" lon="30.6880331039"><time>2026-09-01T11:48:43Z</time></trkpt><trkpt lat="59.2527008057" lon="30.6880116463"><time>2026-09-01T11:48:45Z</time></trkpt><trkpt lat="59.2527222633" lon="30.6880116463"><time>2026-09-01T11:48:48Z</time></trkpt><trkpt lat="59.2527222633" lon="30.6880116463"><time>2026-09-01T11:48:50Z</time></trkpt><trkpt lat="59.2527222633" lon="30.6880116463"><time>2026-09-01T11:48:53Z</time></trkpt><trkpt lat="59.2527222633" lon="30.6880116463"><time>2026-09-01T11:48:55Z</time></trkpt><trkpt lat="59.2527222633" lon="30.6880116463"><time>2026-09-01T11:48:58Z</time></trkpt><trkpt lat="59.2527222633" lon="30.6880116463"><time>2026-09-01T11:49:00Z</time></trkpt><trkpt lat="59.2527437210" lon="30.6880331039"><time>2026-09-01T11:49:03Z</time></trkpt><trkpt lat="59.2528295517" lon="30.6879901886"><time>2026-09-01T11:49:05Z</time></trkpt><trkpt lat="59.2528510094" lon="30.6879687309"><time>2026-09-01T11:49:08Z</time></trkpt><trkpt lat="59.2528510094" lon="30.6879258156"><time>2026-09-01T11:49:10Z</time></trkpt><trkpt lat="59.2528724670" lon="30.6879258156"><time>2026-09-01T11:49:13Z</time></trkpt><trkpt lat="59.2529368401" lon="30.6879043579"><time>2026-09-01T11:49:15Z</time></trkpt><trkpt lat="59.2529368401" lon="30.6878829002"><time>2026-09-01T11:49:18Z</time></trkpt><trkpt lat="59.2529582977" lon="30.6878185272"><time>2026-09-01T11:49:20Z</time></trkpt><trkpt lat="59.2529797554" lon="30.6877970695"><time>2026-09-01T11:49:23Z</time></trkpt><trkpt lat="59.2529797554" lon="30.6877970695"><time>2026-09-01T11:49:25Z</time></trkpt><trkpt lat="59.2529797554" lon="30.6877970695"><time>2026-09-01T11:49:28Z</time></trkpt><trkpt lat="59.2529797554" lon="30.6877970695"><time>2026-09-01T11:49:30Z</time></trkpt><trkpt lat="59.2529797554" lon="30.6877970695"><time>2026-09-01T11:49:33Z</time></trkpt><trkpt lat="59.2529582977" lon="30.6877970695"><time>2026-09-01T11:49:35Z</time></trkpt><trkpt lat="59.2529368401" lon="30.6878185272"><time>2026-09-01T11:49:38Z</time></trkpt><trkpt lat="59.2529368401" lon="30.6878185272"><time>2026-09-01T11:49:40Z</time></trkpt><trkpt lat="59.2529368401" lon="30.6878185272"><time>2026-09-01T11:49:43Z</time></trkpt><trkpt lat="59.2529582977" lon="30.6877970695"><time>2026-09-01T11:49:45Z</time></trkpt><trkpt lat="59.2530226707" lon="30.6877541542"><time>2026-09-01T11:49:48Z</time></trkpt><trkpt lat="59.2530655861" lon="30.6877112389"><time>2026-09-01T11:49:50Z</time></trkpt><trkpt lat="59.2530870438" lon="30.6877112389"><time>2026-09-01T11:49:53Z</time></trkpt><trkpt lat="59.2530870438" lon="30.6877112389"><time>2026-09-01T11:49:55Z</time></trkpt><trkpt lat="59.2530870438" lon="30.6877112389"><time>2026-09-01T11:49:58Z</time></trkpt><trkpt lat="59.2530870438" lon="30.6877112389"><time>2026-09-01T11:50:00Z</time></trkpt><trkpt lat="59.2530870438" lon="30.6877112389"><time>2026-09-01T11:50:03Z</time></trkpt><trkpt lat="59.2530870438" lon="30.6877112389"><time>2026-09-01T11:50:05Z</time></trkpt><trkpt lat="59.2531085014" lon="30.6876683235"><time>2026-09-01T11:50:08Z</time></trkpt><trkpt lat="59.2531514168" lon="30.6876254082"><time>2026-09-01T11:50:10Z</time></trkpt><trkpt lat="59.2531943321" lon="30.6876039505"><time>2026-09-01T11:50:13Z</time></trkpt><trkpt lat="59.2532157898" lon="30.6875824928"><time>2026-09-01T11:50:15Z</time></trkpt><trkpt lat="59.2532157898" lon="30.6875824928"><time>2026-09-01T11:50:18Z</time></trkpt><trkpt lat="59.2532157898" lon="30.6875824928"><time>2026-09-01T11:50:20Z</time></trkpt><trkpt lat="59.2532157898" lon="30.6875824928"><time>2026-09-01T11:50:23Z</time></trkpt><trkpt lat="59.2532157898" lon="30.6875824928"><time>2026-09-01T11:50:25Z</time></trkpt><trkpt lat="59.2532372475" lon="30.6876039505"><time>2026-09-01T11:50:28Z</time></trkpt><trkpt lat="59.2532372475" lon="30.6876254082"><time>2026-09-01T11:50:30Z</time></trkpt><trkpt lat="59.2532587051" lon="30.6876039505"><time>2026-09-01T11:50:33Z</time></trkpt><trkpt lat="59.2532587051" lon="30.6875824928"><time>2026-09-01T11:50:35Z</time></trkpt><trkpt lat="59.2532587051" lon="30.6876039505"><time>2026-09-01T11:50:38Z</time></trkpt><trkpt lat="59.2533230782" lon="30.6876468658"><time>2026-09-01T11:50:40Z</time></trkpt><trkpt lat="59.2533445358" lon="30.6875610352"><time>2026-09-01T11:50:43Z</time></trkpt><trkpt lat="59.2533445358" lon="30.6875181198"><time>2026-09-01T11:50:45Z</time></trkpt><trkpt lat="59.2533445358" lon="30.6875181198"><time>2026-09-01T11:50:48Z</time></trkpt><trkpt lat="59.2533874512" lon="30.6874966621"><time>2026-09-01T11:50:50Z</time></trkpt><trkpt lat="59.2534089088" lon="30.6874966621"><time>2026-09-01T11:50:53Z</time></trkpt><trkpt lat="59.2534089088" lon="30.6874966621"><time>2026-09-01T11:50:55Z</time></trkpt><trkpt lat="59.2534089088" lon="30.6874537468"><time>2026-09-01T11:51:00Z</time></trkpt><trkpt lat="59.2534089088" lon="30.6874537468"><time>2026-09-01T11:51:03Z</time></trkpt><trkpt lat="59.2534089088" lon="30.6874537468"><time>2026-09-01T11:51:05Z</time></trkpt><trkpt lat="59.2534089088" lon="30.6874537468"><time>2026-09-01T11:51:08Z</time></trkpt><trkpt lat="59.2534089088" lon="30.6874537468"><time>2026-09-01T11:51:10Z</time></trkpt><trkpt lat="59.2534303665" lon="30.6874322891"><time>2026-09-01T11:51:13Z</time></trkpt><trkpt lat="59.2534732819" lon="30.6874322891"><time>2026-09-01T11:51:15Z</time></trkpt><trkpt lat="59.2534947395" lon="30.6874322891"><time>2026-09-01T11:51:18Z</time></trkpt><trkpt lat="59.2535161972" lon="30.6874322891"><time>2026-09-01T11:51:20Z</time></trkpt><trkpt lat="59.2535376549" lon="30.6873893738"><time>2026-09-01T11:51:23Z</time></trkpt><trkpt lat="59.2535591125" lon="30.6873464584"><time>2026-09-01T11:51:25Z</time></trkpt><trkpt lat="59.2535591125" lon="30.6873250008"><time>2026-09-01T11:51:28Z</time></trkpt><trkpt lat="59.2535805702" lon="30.6873035431"><time>2026-09-01T11:51:30Z</time></trkpt><trkpt lat="59.2535805702" lon="30.6872820854"><time>2026-09-01T11:51:33Z</time></trkpt><trkpt lat="59.2535805702" lon="30.6872820854"><time>2026-09-01T11:51:35Z</time></trkpt><trkpt lat="59.2535805702" lon="30.6872820854"><time>2026-09-01T11:51:38Z</time></trkpt><trkpt lat="59.2535805702" lon="30.6872820854"><time>2026-09-01T11:51:40Z</time></trkpt><trkpt lat="59.2535805702" lon="30.6872820854"><time>2026-09-01T11:51:43Z</time></trkpt><trkpt lat="59.2535805702" lon="30.6872391701"><time>2026-09-01T11:51:45Z</time></trkpt><trkpt lat="59.2535805702" lon="30.6872391701"><time>2026-09-01T11:51:48Z</time></trkpt><trkpt lat="59.2535805702" lon="30.6872391701"><time>2026-09-01T11:51:50Z</time></trkpt><trkpt lat="59.2535805702" lon="30.6872391701"><time>2026-09-01T11:51:53Z</time></trkpt><trkpt lat="59.2535805702" lon="30.6872391701"><time>2026-09-01T11:51:55Z</time></trkpt><trkpt lat="59.2535805702" lon="30.6872391701"><time>2026-09-01T11:51:58Z</time></trkpt><trkpt lat="59.2535805702" lon="30.6872391701"><time>2026-09-01T11:52:00Z</time></trkpt><trkpt lat="59.2535805702" lon="30.6872391701"><time>2026-09-01T11:52:03Z</time></trkpt><trkpt lat="59.2535805702" lon="30.6872391701"><time>2026-09-01T11:52:05Z</time></trkpt><trkpt lat="59.2535805702" lon="30.6873035431"><time>2026-09-01T11:52:08Z</time></trkpt><trkpt lat="59.2535805702" lon="30.6873035431"><time>2026-09-01T11:52:10Z</time></trkpt><trkpt lat="59.2535805702" lon="30.6873035431"><time>2026-09-01T11:52:13Z</time></trkpt><trkpt lat="59.2535805702" lon="30.6873035431"><time>2026-09-01T11:52:15Z</time></trkpt><trkpt lat="59.2535805702" lon="30.6873035431"><time>2026-09-01T11:52:18Z</time></trkpt><trkpt lat="59.2535805702" lon="30.6873035431"><time>2026-09-01T11:52:20Z</time></trkpt><trkpt lat="59.2535805702" lon="30.6873035431"><time>2026-09-01T11:52:23Z</time></trkpt><trkpt lat="59.2535805702" lon="30.6873035431"><time>2026-09-01T11:52:25Z</time></trkpt><trkpt lat="59.2535805702" lon="30.6873035431"><time>2026-09-01T11:52:28Z</time></trkpt><trkpt lat="59.2535805702" lon="30.6873035431"><time>2026-09-01T11:52:30Z</time></trkpt><trkpt lat="59.2535805702" lon="30.6873035431"><time>2026-09-01T11:52:33Z</time></trkpt><trkpt lat="59.2535805702" lon="30.6873035431"><time>2026-09-01T11:52:35Z</time></trkpt><trkpt lat="59.2535805702" lon="30.6873035431"><time>2026-09-01T11:52:38Z</time></trkpt><trkpt lat="59.2535805702" lon="30.6873035431"><time>2026-09-01T11:52:40Z</time></trkpt><trkpt lat="59.2535805702" lon="30.6873035431"><time>2026-09-01T11:52:43Z</time></trkpt><trkpt lat="59.2535805702" lon="30.6873035431"><time>2026-09-01T11:52:45Z</time></trkpt><trkpt lat="59.2535805702" lon="30.6873035431"><time>2026-09-01T11:52:48Z</time></trkpt><trkpt lat="59.2535805702" lon="30.6873035431"><time>2026-09-01T11:52:50Z</time></trkpt><trkpt lat="59.2535805702" lon="30.6873035431"><time>2026-09-01T11:52:53Z</time></trkpt><trkpt lat="59.2535805702" lon="30.6873035431"><time>2026-09-01T11:52:55Z</time></trkpt><trkpt lat="59.2535805702" lon="30.6873035431"><time>2026-09-01T11:52:58Z</time></trkpt><trkpt lat="59.2535805702" lon="30.6873250008"><time>2026-09-01T11:53:00Z</time></trkpt><trkpt lat="59.2535805702" lon="30.6873250008"><time>2026-09-01T11:53:03Z</time></trkpt><trkpt lat="59.2535805702" lon="30.6873250008"><time>2026-09-01T11:53:05Z</time></trkpt><trkpt lat="59.2535805702" lon="30.6873250008"><time>2026-09-01T11:53:08Z</time></trkpt><trkpt lat="59.2535805702" lon="30.6873250008"><time>2026-09-01T11:53:10Z</time></trkpt><trkpt lat="59.2535805702" lon="30.6873250008"><time>2026-09-01T11:53:13Z</time></trkpt><trkpt lat="59.2535805702" lon="30.6873250008"><time>2026-09-01T11:53:15Z</time></trkpt><trkpt lat="59.2535805702" lon="30.6873250008"><time>2026-09-01T11:53:18Z</time></trkpt><trkpt lat="59.2535805702" lon="30.6873250008"><time>2026-09-01T11:53:20Z</time></trkpt><trkpt lat="59.2535805702" lon="30.6873250008"><time>2026-09-01T11:53:23Z</time></trkpt><trkpt lat="59.2535805702" lon="30.6873250008"><time>2026-09-01T11:53:25Z</time></trkpt><trkpt lat="59.2535805702" lon="30.6873250008"><time>2026-09-01T11:53:28Z</time></trkpt><trkpt lat="59.2535805702" lon="30.6873250008"><time>2026-09-01T11:53:30Z</time></trkpt><trkpt lat="59.2535805702" lon="30.6873250008"><time>2026-09-01T11:53:33Z</time></trkpt><trkpt lat="59.2535805702" lon="30.6873250008"><time>2026-09-01T11:53:35Z</time></trkpt><trkpt lat="59.2535805702" lon="30.6873250008"><time>2026-09-01T11:53:38Z</time></trkpt><trkpt lat="59.2535805702" lon="30.6873250008"><time>2026-09-01T11:53:40Z</time></trkpt><trkpt lat="59.2535805702" lon="30.6873250008"><time>2026-09-01T11:53:43Z</time></trkpt><trkpt lat="59.2535805702" lon="30.6873035431"><time>2026-09-01T11:53:45Z</time></trkpt><trkpt lat="59.2535805702" lon="30.6873035431"><time>2026-09-01T11:53:48Z</time></trkpt><trkpt lat="59.2535805702" lon="30.6873035431"><time>2026-09-01T11:53:50Z</time></trkpt><trkpt lat="59.2535805702" lon="30.6873035431"><time>2026-09-01T11:53:53Z</time></trkpt><trkpt lat="59.2535805702" lon="30.6873035431"><time>2026-09-01T11:53:55Z</time></trkpt><trkpt lat="59.2535805702" lon="30.6873035431"><time>2026-09-01T11:53:58Z</time></trkpt><trkpt lat="59.2535805702" lon="30.6873035431"><time>2026-09-01T11:54:00Z</time></trkpt><trkpt lat="59.2535805702" lon="30.6873035431"><time>2026-09-01T11:54:03Z</time></trkpt><trkpt lat="59.2535805702" lon="30.6873035431"><time>2026-09-01T11:54:05Z</time></trkpt><trkpt lat="59.2535805702" lon="30.6873035431"><time>2026-09-01T11:54:08Z</time></trkpt><trkpt lat="59.2535805702" lon="30.6873035431"><time>2026-09-01T11:54:10Z</time></trkpt><trkpt lat="59.2535805702" lon="30.6873035431"><time>2026-09-01T11:54:13Z</time></trkpt><trkpt lat="59.2535805702" lon="30.6873035431"><time>2026-09-01T11:54:15Z</time></trkpt><trkpt lat="59.2535805702" lon="30.6873035431"><time>2026-09-01T11:54:18Z</time></trkpt><trkpt lat="59.2535805702" lon="30.6872820854"><time>2026-09-01T11:54:20Z</time></trkpt><trkpt lat="59.2535805702" lon="30.6872820854"><time>2026-09-01T11:54:23Z</time></trkpt><trkpt lat="59.2535805702" lon="30.6872606277"><time>2026-09-01T11:54:25Z</time></trkpt><trkpt lat="59.2535805702" lon="30.6872606277"><time>2026-09-01T11:54:28Z</time></trkpt><trkpt lat="59.2535805702" lon="30.6872606277"><time>2026-09-01T11:54:30Z</time></trkpt><trkpt lat="59.2535591125" lon="30.6872606277"><time>2026-09-01T11:54:33Z</time></trkpt><trkpt lat="59.2535591125" lon="30.6872606277"><time>2026-09-01T11:54:35Z</time></trkpt><trkpt lat="59.2535805702" lon="30.6872606277"><time>2026-09-01T11:54:38Z</time></trkpt><trkpt lat="59.2535805702" lon="30.6872391701"><time>2026-09-01T11:54:43Z</time></trkpt><trkpt lat="59.2535805702" lon="30.6872391701"><time>2026-09-01T11:54:45Z</time></trkpt><trkpt lat="59.2535805702" lon="30.6871962547"><time>2026-09-01T11:54:48Z</time></trkpt><trkpt lat="59.2535805702" lon="30.6871962547"><time>2026-09-01T11:54:50Z</time></trkpt><trkpt lat="59.2535805702" lon="30.6871747971"><time>2026-09-01T11:54:53Z</time></trkpt><trkpt lat="59.2535805702" lon="30.6871747971"><time>2026-09-01T11:54:55Z</time></trkpt><trkpt lat="59.2535805702" lon="30.6871747971"><time>2026-09-01T11:54:58Z</time></trkpt><trkpt lat="59.2536020279" lon="30.6871533394"><time>2026-09-01T11:55:00Z</time></trkpt><trkpt lat="59.2536020279" lon="30.6871533394"><time>2026-09-01T11:55:03Z</time></trkpt><trkpt lat="59.2535805702" lon="30.6871318817"><time>2026-09-01T11:55:05Z</time></trkpt><trkpt lat="59.2535805702" lon="30.6871104240"><time>2026-09-01T11:55:08Z</time></trkpt><trkpt lat="59.2536020279" lon="30.6871104240"><time>2026-09-01T11:55:10Z</time></trkpt><trkpt lat="59.2536234856" lon="30.6871104240"><time>2026-09-01T11:55:13Z</time></trkpt><trkpt lat="59.2536449432" lon="30.6870889664"><time>2026-09-01T11:55:15Z</time></trkpt><trkpt lat="59.2536878586" lon="30.6871104240"><time>2026-09-01T11:55:18Z</time></trkpt><trkpt lat="59.2537093163" lon="30.6871104240"><time>2026-09-01T11:55:20Z</time></trkpt><trkpt lat="59.2536878586" lon="30.6871104240"><time>2026-09-01T11:55:23Z</time></trkpt><trkpt lat="59.2536664009" lon="30.6870889664"><time>2026-09-01T11:55:25Z</time></trkpt><trkpt lat="59.2536664009" lon="30.6870889664"><time>2026-09-01T11:55:28Z</time></trkpt><trkpt lat="59.2536664009" lon="30.6870889664"><time>2026-09-01T11:55:30Z</time></trkpt><trkpt lat="59.2536664009" lon="30.6870889664"><time>2026-09-01T11:55:33Z</time></trkpt><trkpt lat="59.2536878586" lon="30.6870675087"><time>2026-09-01T11:55:35Z</time></trkpt><trkpt lat="59.2536878586" lon="30.6870675087"><time>2026-09-01T11:55:38Z</time></trkpt><trkpt lat="59.2537307739" lon="30.6870889664"><time>2026-09-01T11:55:40Z</time></trkpt><trkpt lat="59.2537307739" lon="30.6870889664"><time>2026-09-01T11:55:43Z</time></trkpt><trkpt lat="59.2536878586" lon="30.6870889664"><time>2026-09-01T11:55:45Z</time></trkpt><trkpt lat="59.2536878586" lon="30.6870889664"><time>2026-09-01T11:55:48Z</time></trkpt><trkpt lat="59.2537093163" lon="30.6870675087"><time>2026-09-01T11:55:50Z</time></trkpt><trkpt lat="59.2537522316" lon="30.6870460510"><time>2026-09-01T11:55:53Z</time></trkpt><trkpt lat="59.2537951469" lon="30.6870460510"><time>2026-09-01T11:55:55Z</time></trkpt><trkpt lat="59.2538380623" lon="30.6870460510"><time>2026-09-01T11:55:58Z</time></trkpt><trkpt lat="59.2538166046" lon="30.6870460510"><time>2026-09-01T11:56:00Z</time></trkpt><trkpt lat="59.2537736893" lon="30.6870675087"><time>2026-09-01T11:56:03Z</time></trkpt><trkpt lat="59.2537307739" lon="30.6870460510"><time>2026-09-01T11:56:05Z</time></trkpt><trkpt lat="59.2537736893" lon="30.6870031357"><time>2026-09-01T11:56:08Z</time></trkpt><trkpt lat="59.2538380623" lon="30.6869387627"><time>2026-09-01T11:56:10Z</time></trkpt><trkpt lat="59.2538380623" lon="30.6869173050"><time>2026-09-01T11:56:13Z</time></trkpt><trkpt lat="59.2538380623" lon="30.6869173050"><time>2026-09-01T11:56:15Z</time></trkpt><trkpt lat="59.2538380623" lon="30.6868958473"><time>2026-09-01T11:56:18Z</time></trkpt><trkpt lat="59.2538380623" lon="30.6868958473"><time>2026-09-01T11:56:20Z</time></trkpt><trkpt lat="59.2538380623" lon="30.6868958473"><time>2026-09-01T11:56:23Z</time></trkpt><trkpt lat="59.2538380623" lon="30.6868958473"><time>2026-09-01T11:56:25Z</time></trkpt><trkpt lat="59.2538380623" lon="30.6868958473"><time>2026-09-01T11:56:28Z</time></trkpt><trkpt lat="59.2538380623" lon="30.6868743896"><time>2026-09-01T11:56:30Z</time></trkpt><trkpt lat="59.2538809776" lon="30.6868529320"><time>2026-09-01T11:56:33Z</time></trkpt><trkpt lat="59.2539238930" lon="30.6868743896"><time>2026-09-01T11:56:35Z</time></trkpt><trkpt lat="59.2539024353" lon="30.6868529320"><time>2026-09-01T11:56:38Z</time></trkpt><trkpt lat="59.2539024353" lon="30.6868100166"><time>2026-09-01T11:56:40Z</time></trkpt><trkpt lat="59.2539024353" lon="30.6868100166"><time>2026-09-01T11:56:43Z</time></trkpt><trkpt lat="59.2538809776" lon="30.6867885590"><time>2026-09-01T11:56:45Z</time></trkpt><trkpt lat="59.2538809776" lon="30.6867885590"><time>2026-09-01T11:56:48Z</time></trkpt><trkpt lat="59.2538809776" lon="30.6867885590"><time>2026-09-01T11:56:50Z</time></trkpt><trkpt lat="59.2539024353" lon="30.6867885590"><time>2026-09-01T11:56:53Z</time></trkpt><trkpt lat="59.2539024353" lon="30.6868100166"><time>2026-09-01T11:56:55Z</time></trkpt><trkpt lat="59.2539024353" lon="30.6867885590"><time>2026-09-01T11:56:58Z</time></trkpt><trkpt lat="59.2538809776" lon="30.6867885590"><time>2026-09-01T11:57:00Z</time></trkpt><trkpt lat="59.2538809776" lon="30.6867885590"><time>2026-09-01T11:57:03Z</time></trkpt><trkpt lat="59.2539024353" lon="30.6867885590"><time>2026-09-01T11:57:05Z</time></trkpt><trkpt lat="59.2539238930" lon="30.6867885590"><time>2026-09-01T11:57:08Z</time></trkpt><trkpt lat="59.2539453506" lon="30.6867885590"><time>2026-09-01T11:57:10Z</time></trkpt><trkpt lat="59.2539882660" lon="30.6867671013"><time>2026-09-01T11:57:13Z</time></trkpt><trkpt lat="59.2540311813" lon="30.6867885590"><time>2026-09-01T11:57:15Z</time></trkpt><trkpt lat="59.2540526390" lon="30.6867885590"><time>2026-09-01T11:57:18Z</time></trkpt><trkpt lat="59.2540526390" lon="30.6868100166"><time>2026-09-01T11:57:20Z</time></trkpt><trkpt lat="59.2540526390" lon="30.6868100166"><time>2026-09-01T11:57:23Z</time></trkpt><trkpt lat="59.2540097237" lon="30.6867885590"><time>2026-09-01T11:57:25Z</time></trkpt><trkpt lat="59.2539882660" lon="30.6867671013"><time>2026-09-01T11:57:28Z</time></trkpt><trkpt lat="59.2539882660" lon="30.6867241859"><time>2026-09-01T11:57:30Z</time></trkpt><trkpt lat="59.2540097237" lon="30.6866812706"><time>2026-09-01T11:57:33Z</time></trkpt><trkpt lat="59.2540097237" lon="30.6866812706"><time>2026-09-01T11:57:35Z</time></trkpt><trkpt lat="59.2540311813" lon="30.6867241859"><time>2026-09-01T11:57:38Z</time></trkpt><trkpt lat="59.2540526390" lon="30.6866812706"><time>2026-09-01T11:57:40Z</time></trkpt><trkpt lat="59.2540740967" lon="30.6866598129"><time>2026-09-01T11:57:43Z</time></trkpt><trkpt lat="59.2541170120" lon="30.6866598129"><time>2026-09-01T11:57:45Z</time></trkpt><trkpt lat="59.2541384697" lon="30.6866812706"><time>2026-09-01T11:57:48Z</time></trkpt><trkpt lat="59.2541170120" lon="30.6866812706"><time>2026-09-01T11:57:50Z</time></trkpt><trkpt lat="59.2540955544" lon="30.6867027283"><time>2026-09-01T11:57:53Z</time></trkpt><trkpt lat="59.2540955544" lon="30.6867027283"><time>2026-09-01T11:57:55Z</time></trkpt><trkpt lat="59.2540955544" lon="30.6867027283"><time>2026-09-01T11:57:58Z</time></trkpt><trkpt lat="59.2540955544" lon="30.6867027283"><time>2026-09-01T11:58:00Z</time></trkpt><trkpt lat="59.2540955544" lon="30.6866812706"><time>2026-09-01T11:58:03Z</time></trkpt><trkpt lat="59.2541170120" lon="30.6866598129"><time>2026-09-01T11:58:05Z</time></trkpt><trkpt lat="59.2541384697" lon="30.6866168976"><time>2026-09-01T11:58:08Z</time></trkpt><trkpt lat="59.2541813850" lon="30.6865310669"><time>2026-09-01T11:58:10Z</time></trkpt><trkpt lat="59.2541813850" lon="30.6864666939"><time>2026-09-01T11:58:13Z</time></trkpt><trkpt lat="59.2541813850" lon="30.6864452362"><time>2026-09-01T11:58:15Z</time></trkpt><trkpt lat="59.2541813850" lon="30.6864452362"><time>2026-09-01T11:58:18Z</time></trkpt><trkpt lat="59.2541813850" lon="30.6864452362"><time>2026-09-01T11:58:20Z</time></trkpt><trkpt lat="59.2541813850" lon="30.6864452362"><time>2026-09-01T11:58:23Z</time></trkpt><trkpt lat="59.2541813850" lon="30.6864452362"><time>2026-09-01T11:58:25Z</time></trkpt><trkpt lat="59.2542028427" lon="30.6864666939"><time>2026-09-01T11:58:28Z</time></trkpt><trkpt lat="59.2542028427" lon="30.6864666939"><time>2026-09-01T11:58:30Z</time></trkpt><trkpt lat="59.2542243004" lon="30.6865096092"><time>2026-09-01T11:58:33Z</time></trkpt><trkpt lat="59.2542457581" lon="30.6865310669"><time>2026-09-01T11:58:35Z</time></trkpt><trkpt lat="59.2542672157" lon="30.6865739822"><time>2026-09-01T11:58:38Z</time></trkpt><trkpt lat="59.2542672157" lon="30.6865954399"><time>2026-09-01T11:58:40Z</time></trkpt><trkpt lat="59.2542886734" lon="30.6865954399"><time>2026-09-01T11:58:43Z</time></trkpt><trkpt lat="59.2543101311" lon="30.6865954399"><time>2026-09-01T11:58:45Z</time></trkpt><trkpt lat="59.2543101311" lon="30.6865954399"><time>2026-09-01T11:58:48Z</time></trkpt><trkpt lat="59.2543101311" lon="30.6865954399"><time>2026-09-01T11:58:50Z</time></trkpt><trkpt lat="59.2543101311" lon="30.6865954399"><time>2026-09-01T11:58:53Z</time></trkpt><trkpt lat="59.2543101311" lon="30.6865954399"><time>2026-09-01T11:58:55Z</time></trkpt><trkpt lat="59.2543101311" lon="30.6865954399"><time>2026-09-01T11:58:58Z</time></trkpt><trkpt lat="59.2543315887" lon="30.6865954399"><time>2026-09-01T11:59:00Z</time></trkpt><trkpt lat="59.2543530464" lon="30.6865954399"><time>2026-09-01T11:59:03Z</time></trkpt><trkpt lat="59.2543530464" lon="30.6865525246"><time>2026-09-01T11:59:05Z</time></trkpt><trkpt lat="59.2543530464" lon="30.6865525246"><time>2026-09-01T11:59:08Z</time></trkpt><trkpt lat="59.2543959618" lon="30.6864881516"><time>2026-09-01T11:59:10Z</time></trkpt><trkpt lat="59.2544174194" lon="30.6864881516"><time>2026-09-01T11:59:13Z</time></trkpt><trkpt lat="59.2544603348" lon="30.6864881516"><time>2026-09-01T11:59:15Z</time></trkpt><trkpt lat="59.2544817924" lon="30.6864881516"><time>2026-09-01T11:59:18Z</time></trkpt><trkpt lat="59.2544817924" lon="30.6864666939"><time>2026-09-01T11:59:20Z</time></trkpt><trkpt lat="59.2545032501" lon="30.6864666939"><time>2026-09-01T11:59:23Z</time></trkpt><trkpt lat="59.2545247078" lon="30.6864666939"><time>2026-09-01T11:59:25Z</time></trkpt><trkpt lat="59.2545247078" lon="30.6864666939"><time>2026-09-01T11:59:28Z</time></trkpt><trkpt lat="59.2545247078" lon="30.6864666939"><time>2026-09-01T11:59:30Z</time></trkpt><trkpt lat="59.2545247078" lon="30.6864666939"><time>2026-09-01T11:59:33Z</time></trkpt><trkpt lat="59.2545461655" lon="30.6864881516"><time>2026-09-01T11:59:35Z</time></trkpt><trkpt lat="59.2545461655" lon="30.6864666939"><time>2026-09-01T11:59:38Z</time></trkpt><trkpt lat="59.2545461655" lon="30.6864666939"><time>2026-09-01T11:59:40Z</time></trkpt><trkpt lat="59.2545676231" lon="30.6864666939"><time>2026-09-01T11:59:43Z</time></trkpt><trkpt lat="59.2545676231" lon="30.6864881516"><time>2026-09-01T11:59:45Z</time></trkpt><trkpt lat="59.2546105385" lon="30.6865096092"><time>2026-09-01T11:59:48Z</time></trkpt><trkpt lat="59.2546319962" lon="30.6864237785"><time>2026-09-01T11:59:50Z</time></trkpt><trkpt lat="59.2546319962" lon="30.6863808632"><time>2026-09-01T11:59:53Z</time></trkpt><trkpt lat="59.2546319962" lon="30.6863594055"><time>2026-09-01T11:59:55Z</time></trkpt><trkpt lat="59.2546319962" lon="30.6863379478"><time>2026-09-01T11:59:58Z</time></trkpt><trkpt lat="59.2546319962" lon="30.6863379478"><time>2026-09-01T12:00:00Z</time></trkpt><trkpt lat="59.2546534538" lon="30.6862950325"><time>2026-09-01T12:00:03Z</time></trkpt><trkpt lat="59.2546749115" lon="30.6862950325"><time>2026-09-01T12:00:05Z</time></trkpt><trkpt lat="59.2546749115" lon="30.6862950325"><time>2026-09-01T12:00:08Z</time></trkpt><trkpt lat="59.2546749115" lon="30.6862735748"><time>2026-09-01T12:00:10Z</time></trkpt><trkpt lat="59.2546749115" lon="30.6862521172"><time>2026-09-01T12:00:13Z</time></trkpt><trkpt lat="59.2547178268" lon="30.6861877441"><time>2026-09-01T12:00:15Z</time></trkpt><trkpt lat="59.2547392845" lon="30.6861877441"><time>2026-09-01T12:00:18Z</time></trkpt><trkpt lat="59.2547821999" lon="30.6861877441"><time>2026-09-01T12:00:20Z</time></trkpt><trkpt lat="59.2547821999" lon="30.6861877441"><time>2026-09-01T12:00:23Z</time></trkpt><trkpt lat="59.2547821999" lon="30.6861877441"><time>2026-09-01T12:00:25Z</time></trkpt><trkpt lat="59.2547392845" lon="30.6861662865"><time>2026-09-01T12:00:28Z</time></trkpt><trkpt lat="59.2547392845" lon="30.6861662865"><time>2026-09-01T12:00:30Z</time></trkpt><trkpt lat="59.2546963692" lon="30.6862092018"><time>2026-09-01T12:00:33Z</time></trkpt><trkpt lat="59.2546963692" lon="30.6862092018"><time>2026-09-01T12:00:35Z</time></trkpt><trkpt lat="59.2547178268" lon="30.6861662865"><time>2026-09-01T12:00:38Z</time></trkpt><trkpt lat="59.2547821999" lon="30.6861448288"><time>2026-09-01T12:00:40Z</time></trkpt><trkpt lat="59.2548036575" lon="30.6861877441"><time>2026-09-01T12:00:43Z</time></trkpt><trkpt lat="59.2548251152" lon="30.6861877441"><time>2026-09-01T12:00:45Z</time></trkpt><trkpt lat="59.2548036575" lon="30.6861662865"><time>2026-09-01T12:00:48Z</time></trkpt><trkpt lat="59.2548036575" lon="30.6861233711"><time>2026-09-01T12:00:50Z</time></trkpt><trkpt lat="59.2548465729" lon="30.6860589981"><time>2026-09-01T12:00:53Z</time></trkpt><trkpt lat="59.2548894882" lon="30.6860375404"><time>2026-09-01T12:00:55Z</time></trkpt><trkpt lat="59.2549324036" lon="30.6859946251"><time>2026-09-01T12:00:58Z</time></trkpt><trkpt lat="59.2549538612" lon="30.6859731674"><time>2026-09-01T12:01:00Z</time></trkpt><trkpt lat="59.2549967766" lon="30.6859302521"><time>2026-09-01T12:01:03Z</time></trkpt><trkpt lat="59.2550182343" lon="30.6859087944"><time>2026-09-01T12:01:05Z</time></trkpt><trkpt lat="59.2550182343" lon="30.6858873367"><time>2026-09-01T12:01:08Z</time></trkpt><trkpt lat="59.2550182343" lon="30.6858873367"><time>2026-09-01T12:01:10Z</time></trkpt><trkpt lat="59.2549967766" lon="30.6858873367"><time>2026-09-01T12:01:13Z</time></trkpt><trkpt lat="59.2550396919" lon="30.6858444214"><time>2026-09-01T12:01:15Z</time></trkpt><trkpt lat="59.2551255226" lon="30.6857800484"><time>2026-09-01T12:01:18Z</time></trkpt><trkpt lat="59.2551469803" lon="30.6857371330"><time>2026-09-01T12:01:20Z</time></trkpt><trkpt lat="59.2551898956" lon="30.6856942177"><time>2026-09-01T12:01:23Z</time></trkpt><trkpt lat="59.2551898956" lon="30.6856942177"><time>2026-09-01T12:01:25Z</time></trkpt><trkpt lat="59.2551898956" lon="30.6857156754"><time>2026-09-01T12:01:28Z</time></trkpt><trkpt lat="59.2551898956" lon="30.6857156754"><time>2026-09-01T12:01:30Z</time></trkpt><trkpt lat="59.2551684380" lon="30.6856942177"><time>2026-09-01T12:01:33Z</time></trkpt><trkpt lat="59.2551684380" lon="30.6856513023"><time>2026-09-01T12:01:35Z</time></trkpt><trkpt lat="59.2551898956" lon="30.6856727600"><time>2026-09-01T12:01:38Z</time></trkpt><trkpt lat="59.2551898956" lon="30.6856727600"><time>2026-09-01T12:01:40Z</time></trkpt><trkpt lat="59.2551898956" lon="30.6856727600"><time>2026-09-01T12:01:43Z</time></trkpt><trkpt lat="59.2551898956" lon="30.6856727600"><time>2026-09-01T12:01:45Z</time></trkpt><trkpt lat="59.2551898956" lon="30.6856727600"><time>2026-09-01T12:01:48Z</time></trkpt><trkpt lat="59.2551684380" lon="30.6856727600"><time>2026-09-01T12:01:50Z</time></trkpt><trkpt lat="59.2551898956" lon="30.6856727600"><time>2026-09-01T12:01:53Z</time></trkpt><trkpt lat="59.2551898956" lon="30.6856727600"><time>2026-09-01T12:01:55Z</time></trkpt><trkpt lat="59.2551898956" lon="30.6856727600"><time>2026-09-01T12:01:58Z</time></trkpt><trkpt lat="59.2551898956" lon="30.6856727600"><time>2026-09-01T12:02:00Z</time></trkpt><trkpt lat="59.2551898956" lon="30.6856727600"><time>2026-09-01T12:02:03Z</time></trkpt><trkpt lat="59.2551898956" lon="30.6856727600"><time>2026-09-01T12:02:05Z</time></trkpt><trkpt lat="59.2551898956" lon="30.6856727600"><time>2026-09-01T12:02:08Z</time></trkpt><trkpt lat="59.2551898956" lon="30.6856727600"><time>2026-09-01T12:02:10Z</time></trkpt><trkpt lat="59.2551898956" lon="30.6856727600"><time>2026-09-01T12:02:13Z</time></trkpt><trkpt lat="59.2551898956" lon="30.6856727600"><time>2026-09-01T12:02:18Z</time></trkpt><trkpt lat="59.2551898956" lon="30.6856942177"><time>2026-09-01T12:02:20Z</time></trkpt><trkpt lat="59.2551898956" lon="30.6856942177"><time>2026-09-01T12:02:23Z</time></trkpt><trkpt lat="59.2551898956" lon="30.6856942177"><time>2026-09-01T12:02:25Z</time></trkpt><trkpt lat="59.2551898956" lon="30.6856942177"><time>2026-09-01T12:02:28Z</time></trkpt><trkpt lat="59.2551898956" lon="30.6856942177"><time>2026-09-01T12:02:30Z</time></trkpt><trkpt lat="59.2551898956" lon="30.6856942177"><time>2026-09-01T12:02:33Z</time></trkpt><trkpt lat="59.2551898956" lon="30.6856942177"><time>2026-09-01T12:02:35Z</time></trkpt><trkpt lat="59.2551898956" lon="30.6856942177"><time>2026-09-01T12:02:38Z</time></trkpt><trkpt lat="59.2551898956" lon="30.6856942177"><time>2026-09-01T12:02:40Z</time></trkpt><trkpt lat="59.2551898956" lon="30.6856942177"><time>2026-09-01T12:02:43Z</time></trkpt><trkpt lat="59.2551898956" lon="30.6856942177"><time>2026-09-01T12:02:45Z</time></trkpt><trkpt lat="59.2551898956" lon="30.6856942177"><time>2026-09-01T12:02:48Z</time></trkpt><trkpt lat="59.2551898956" lon="30.6856942177"><time>2026-09-01T12:02:50Z</time></trkpt><trkpt lat="59.2551898956" lon="30.6856942177"><time>2026-09-01T12:02:53Z</time></trkpt><trkpt lat="59.2551898956" lon="30.6856942177"><time>2026-09-01T12:02:55Z</time></trkpt><trkpt lat="59.2551898956" lon="30.6856942177"><time>2026-09-01T12:02:58Z</time></trkpt><trkpt lat="59.2551898956" lon="30.6856942177"><time>2026-09-01T12:03:00Z</time></trkpt><trkpt lat="59.2551898956" lon="30.6856942177"><time>2026-09-01T12:03:03Z</time></trkpt><trkpt lat="59.2551898956" lon="30.6856942177"><time>2026-09-01T12:03:05Z</time></trkpt><trkpt lat="59.2551898956" lon="30.6856942177"><time>2026-09-01T12:03:08Z</time></trkpt><trkpt lat="59.2551898956" lon="30.6856942177"><time>2026-09-01T12:03:10Z</time></trkpt><trkpt lat="59.2551898956" lon="30.6856942177"><time>2026-09-01T12:03:13Z</time></trkpt><trkpt lat="59.2551684380" lon="30.6856298447"><time>2026-09-01T12:03:15Z</time></trkpt><trkpt lat="59.2551684380" lon="30.6855869293"><time>2026-09-01T12:03:18Z</time></trkpt><trkpt lat="59.2551469803" lon="30.6856513023"><time>2026-09-01T12:03:20Z</time></trkpt><trkpt lat="59.2551255226" lon="30.6856298447"><time>2026-09-01T12:03:23Z</time></trkpt><trkpt lat="59.2551255226" lon="30.6856083870"><time>2026-09-01T12:03:25Z</time></trkpt><trkpt lat="59.2551255226" lon="30.6855869293"><time>2026-09-01T12:03:28Z</time></trkpt><trkpt lat="59.2551040649" lon="30.6855654716"><time>2026-09-01T12:03:30Z</time></trkpt><trkpt lat="59.2550826073" lon="30.6855010986"><time>2026-09-01T12:03:33Z</time></trkpt><trkpt lat="59.2550611496" lon="30.6855010986"><time>2026-09-01T12:03:35Z</time></trkpt><trkpt lat="59.2550611496" lon="30.6854796410"><time>2026-09-01T12:03:38Z</time></trkpt><trkpt lat="59.2550611496" lon="30.6854796410"><time>2026-09-01T12:03:40Z</time></trkpt><trkpt lat="59.2550611496" lon="30.6854796410"><time>2026-09-01T12:03:43Z</time></trkpt><trkpt lat="59.2550611496" lon="30.6854367256"><time>2026-09-01T12:03:45Z</time></trkpt><trkpt lat="59.2550611496" lon="30.6854367256"><time>2026-09-01T12:03:48Z</time></trkpt><trkpt lat="59.2550396919" lon="30.6853723526"><time>2026-09-01T12:03:50Z</time></trkpt><trkpt lat="59.2550396919" lon="30.6853508949"><time>2026-09-01T12:03:53Z</time></trkpt><trkpt lat="59.2550826073" lon="30.6853294373"><time>2026-09-01T12:03:55Z</time></trkpt><trkpt lat="59.2551040649" lon="30.6852865219"><time>2026-09-01T12:03:58Z</time></trkpt><trkpt lat="59.2551040649" lon="30.6852650642"><time>2026-09-01T12:04:00Z</time></trkpt><trkpt lat="59.2550826073" lon="30.6852650642"><time>2026-09-01T12:04:03Z</time></trkpt><trkpt lat="59.2550826073" lon="30.6852650642"><time>2026-09-01T12:04:05Z</time></trkpt><trkpt lat="59.2550826073" lon="30.6852650642"><time>2026-09-01T12:04:08Z</time></trkpt><trkpt lat="59.2550826073" lon="30.6852221489"><time>2026-09-01T12:04:10Z</time></trkpt><trkpt lat="59.2551040649" lon="30.6851792336"><time>2026-09-01T12:04:13Z</time></trkpt><trkpt lat="59.2551255226" lon="30.6852006912"><time>2026-09-01T12:04:15Z</time></trkpt><trkpt lat="59.2551040649" lon="30.6852436066"><time>2026-09-01T12:04:18Z</time></trkpt><trkpt lat="59.2550826073" lon="30.6852436066"><time>2026-09-01T12:04:20Z</time></trkpt><trkpt lat="59.2550826073" lon="30.6852006912"><time>2026-09-01T12:04:23Z</time></trkpt><trkpt lat="59.2551040649" lon="30.6851792336"><time>2026-09-01T12:04:25Z</time></trkpt><trkpt lat="59.2551040649" lon="30.6851577759"><time>2026-09-01T12:04:28Z</time></trkpt><trkpt lat="59.2551255226" lon="30.6850934029"><time>2026-09-01T12:04:30Z</time></trkpt><trkpt lat="59.2551469803" lon="30.6850504875"><time>2026-09-01T12:04:33Z</time></trkpt><trkpt lat="59.2551684380" lon="30.6849431992"><time>2026-09-01T12:04:35Z</time></trkpt><trkpt lat="59.2551684380" lon="30.6849002838"><time>2026-09-01T12:04:38Z</time></trkpt><trkpt lat="59.2551469803" lon="30.6849646568"><time>2026-09-01T12:04:40Z</time></trkpt><trkpt lat="59.2551469803" lon="30.6849861145"><time>2026-09-01T12:04:43Z</time></trkpt><trkpt lat="59.2551684380" lon="30.6849002838"><time>2026-09-01T12:04:45Z</time></trkpt><trkpt lat="59.2551469803" lon="30.6848788261"><time>2026-09-01T12:04:48Z</time></trkpt><trkpt lat="59.2551469803" lon="30.6848788261"><time>2026-09-01T12:04:50Z</time></trkpt><trkpt lat="59.2551469803" lon="30.6848788261"><time>2026-09-01T12:04:53Z</time></trkpt><trkpt lat="59.2551684380" lon="30.6848573685"><time>2026-09-01T12:04:55Z</time></trkpt><trkpt lat="59.2551684380" lon="30.6847929955"><time>2026-09-01T12:04:58Z</time></trkpt><trkpt lat="59.2551898956" lon="30.6847286224"><time>2026-09-01T12:05:00Z</time></trkpt><trkpt lat="59.2551684380" lon="30.6847286224"><time>2026-09-01T12:05:03Z</time></trkpt><trkpt lat="59.2551684380" lon="30.6847500801"><time>2026-09-01T12:05:05Z</time></trkpt><trkpt lat="59.2551684380" lon="30.6847500801"><time>2026-09-01T12:05:08Z</time></trkpt><trkpt lat="59.2551684380" lon="30.6847500801"><time>2026-09-01T12:05:10Z</time></trkpt><trkpt lat="59.2551684380" lon="30.6847500801"><time>2026-09-01T12:05:13Z</time></trkpt><trkpt lat="59.2551684380" lon="30.6847929955"><time>2026-09-01T12:05:15Z</time></trkpt><trkpt lat="59.2551684380" lon="30.6847500801"><time>2026-09-01T12:05:18Z</time></trkpt><trkpt lat="59.2551898956" lon="30.6847286224"><time>2026-09-01T12:05:20Z</time></trkpt><trkpt lat="59.2551898956" lon="30.6846642494"><time>2026-09-01T12:05:23Z</time></trkpt><trkpt lat="59.2551898956" lon="30.6845784187"><time>2026-09-01T12:05:25Z</time></trkpt><trkpt lat="59.2551898956" lon="30.6845998764"><time>2026-09-01T12:05:28Z</time></trkpt><trkpt lat="59.2551898956" lon="30.6845569611"><time>2026-09-01T12:05:30Z</time></trkpt><trkpt lat="59.2551898956" lon="30.6845355034"><time>2026-09-01T12:05:33Z</time></trkpt><trkpt lat="59.2552113533" lon="30.6844067574"><time>2026-09-01T12:05:35Z</time></trkpt><trkpt lat="59.2552113533" lon="30.6843423843"><time>2026-09-01T12:05:38Z</time></trkpt><trkpt lat="59.2552113533" lon="30.6843209267"><time>2026-09-01T12:05:40Z</time></trkpt><trkpt lat="59.2552113533" lon="30.6843209267"><time>2026-09-01T12:05:43Z</time></trkpt><trkpt lat="59.2552113533" lon="30.6843209267"><time>2026-09-01T12:05:45Z</time></trkpt><trkpt lat="59.2552542686" lon="30.6842994690"><time>2026-09-01T12:05:48Z</time></trkpt><trkpt lat="59.2552757263" lon="30.6841921806"><time>2026-09-01T12:05:50Z</time></trkpt><trkpt lat="59.2552757263" lon="30.6841492653"><time>2026-09-01T12:05:53Z</time></trkpt><trkpt lat="59.2552757263" lon="30.6841921806"><time>2026-09-01T12:05:55Z</time></trkpt><trkpt lat="59.2552757263" lon="30.6842136383"><time>2026-09-01T12:05:58Z</time></trkpt><trkpt lat="59.2552757263" lon="30.6842136383"><time>2026-09-01T12:06:00Z</time></trkpt><trkpt lat="59.2552757263" lon="30.6842136383"><time>2026-09-01T12:06:03Z</time></trkpt><trkpt lat="59.2552757263" lon="30.6842136383"><time>2026-09-01T12:06:05Z</time></trkpt><trkpt lat="59.2552971840" lon="30.6842136383"><time>2026-09-01T12:06:08Z</time></trkpt><trkpt lat="59.2552971840" lon="30.6842136383"><time>2026-09-01T12:06:10Z</time></trkpt><trkpt lat="59.2553186417" lon="30.6841921806"><time>2026-09-01T12:06:13Z</time></trkpt><trkpt lat="59.2553615570" lon="30.6840634346"><time>2026-09-01T12:06:15Z</time></trkpt><trkpt lat="59.2553615570" lon="30.6841063499"><time>2026-09-01T12:06:18Z</time></trkpt><trkpt lat="59.2553615570" lon="30.6840848923"><time>2026-09-01T12:06:20Z</time></trkpt><trkpt lat="59.2553830147" lon="30.6839990616"><time>2026-09-01T12:06:23Z</time></trkpt><trkpt lat="59.2554259300" lon="30.6838703156"><time>2026-09-01T12:06:25Z</time></trkpt><trkpt lat="59.2554259300" lon="30.6838488579"><time>2026-09-01T12:06:28Z</time></trkpt><trkpt lat="59.2554044724" lon="30.6838274002"><time>2026-09-01T12:06:30Z</time></trkpt><trkpt lat="59.2554259300" lon="30.6838059425"><time>2026-09-01T12:06:33Z</time></trkpt><trkpt lat="59.2554259300" lon="30.6837415695"><time>2026-09-01T12:06:35Z</time></trkpt><trkpt lat="59.2554473877" lon="30.6837415695"><time>2026-09-01T12:06:38Z</time></trkpt><trkpt lat="59.2554473877" lon="30.6837630272"><time>2026-09-01T12:06:40Z</time></trkpt><trkpt lat="59.2554473877" lon="30.6837201118"><time>2026-09-01T12:06:43Z</time></trkpt><trkpt lat="59.2554259300" lon="30.6836557388"><time>2026-09-01T12:06:45Z</time></trkpt><trkpt lat="59.2554259300" lon="30.6836342812"><time>2026-09-01T12:06:48Z</time></trkpt><trkpt lat="59.2554473877" lon="30.6835913658"><time>2026-09-01T12:06:50Z</time></trkpt><trkpt lat="59.2554473877" lon="30.6835484505"><time>2026-09-01T12:06:53Z</time></trkpt><trkpt lat="59.2554688454" lon="30.6834626198"><time>2026-09-01T12:06:55Z</time></trkpt><trkpt lat="59.2554473877" lon="30.6834626198"><time>2026-09-01T12:06:58Z</time></trkpt><trkpt lat="59.2554688454" lon="30.6833982468"><time>2026-09-01T12:07:00Z</time></trkpt><trkpt lat="59.2554688454" lon="30.6833338737"><time>2026-09-01T12:07:03Z</time></trkpt><trkpt lat="59.2554903030" lon="30.6832265854"><time>2026-09-01T12:07:05Z</time></trkpt><trkpt lat="59.2554903030" lon="30.6832051277"><time>2026-09-01T12:07:08Z</time></trkpt><trkpt lat="59.2554903030" lon="30.6832051277"><time>2026-09-01T12:07:10Z</time></trkpt><trkpt lat="59.2554903030" lon="30.6832051277"><time>2026-09-01T12:07:13Z</time></trkpt><trkpt lat="59.2554903030" lon="30.6831622124"><time>2026-09-01T12:07:15Z</time></trkpt><trkpt lat="59.2554903030" lon="30.6831192970"><time>2026-09-01T12:07:18Z</time></trkpt><trkpt lat="59.2555117607" lon="30.6830549240"><time>2026-09-01T12:07:20Z</time></trkpt><trkpt lat="59.2555332184" lon="30.6829905510"><time>2026-09-01T12:07:23Z</time></trkpt><trkpt lat="59.2555332184" lon="30.6829690933"><time>2026-09-01T12:07:25Z</time></trkpt><trkpt lat="59.2555332184" lon="30.6829690933"><time>2026-09-01T12:07:28Z</time></trkpt><trkpt lat="59.2555546761" lon="30.6828832626"><time>2026-09-01T12:07:30Z</time></trkpt><trkpt lat="59.2555546761" lon="30.6828403473"><time>2026-09-01T12:07:33Z</time></trkpt><trkpt lat="59.2555546761" lon="30.6827974319"><time>2026-09-01T12:07:35Z</time></trkpt><trkpt lat="59.2555332184" lon="30.6828618050"><time>2026-09-01T12:07:38Z</time></trkpt><trkpt lat="59.2555332184" lon="30.6828618050"><time>2026-09-01T12:07:40Z</time></trkpt><trkpt lat="59.2555332184" lon="30.6828403473"><time>2026-09-01T12:07:43Z</time></trkpt><trkpt lat="59.2555332184" lon="30.6827759743"><time>2026-09-01T12:07:45Z</time></trkpt><trkpt lat="59.2555332184" lon="30.6827116013"><time>2026-09-01T12:07:48Z</time></trkpt><trkpt lat="59.2555546761" lon="30.6826472282"><time>2026-09-01T12:07:50Z</time></trkpt><trkpt lat="59.2555546761" lon="30.6826257706"><time>2026-09-01T12:07:53Z</time></trkpt><trkpt lat="59.2555546761" lon="30.6826257706"><time>2026-09-01T12:07:55Z</time></trkpt><trkpt lat="59.2555546761" lon="30.6826257706"><time>2026-09-01T12:07:58Z</time></trkpt><trkpt lat="59.2555975914" lon="30.6826043129"><time>2026-09-01T12:08:00Z</time></trkpt><trkpt lat="59.2555975914" lon="30.6825613976"><time>2026-09-01T12:08:03Z</time></trkpt><trkpt lat="59.2555975914" lon="30.6825184822"><time>2026-09-01T12:08:05Z</time></trkpt><trkpt lat="59.2555761337" lon="30.6824970245"><time>2026-09-01T12:08:08Z</time></trkpt><trkpt lat="59.2555761337" lon="30.6824755669"><time>2026-09-01T12:08:10Z</time></trkpt><trkpt lat="59.2555761337" lon="30.6824541092"><time>2026-09-01T12:08:13Z</time></trkpt><trkpt lat="59.2555975914" lon="30.6823039055"><time>2026-09-01T12:08:15Z</time></trkpt><trkpt lat="59.2556190491" lon="30.6822180748"><time>2026-09-01T12:08:18Z</time></trkpt><trkpt lat="59.2556190491" lon="30.6821322441"><time>2026-09-01T12:08:20Z</time></trkpt><trkpt lat="59.2556190491" lon="30.6821322441"><time>2026-09-01T12:08:23Z</time></trkpt><trkpt lat="59.2556405067" lon="30.6820464134"><time>2026-09-01T12:08:25Z</time></trkpt><trkpt lat="59.2556619644" lon="30.6819605827"><time>2026-09-01T12:08:28Z</time></trkpt><trkpt lat="59.2556834221" lon="30.6818747520"><time>2026-09-01T12:08:30Z</time></trkpt><trkpt lat="59.2557263374" lon="30.6818747520"><time>2026-09-01T12:08:33Z</time></trkpt><trkpt lat="59.2557263374" lon="30.6819176674"><time>2026-09-01T12:08:35Z</time></trkpt><trkpt lat="59.2557263374" lon="30.6818962097"><time>2026-09-01T12:08:38Z</time></trkpt><trkpt lat="59.2557048798" lon="30.6818747520"><time>2026-09-01T12:08:40Z</time></trkpt><trkpt lat="59.2556834221" lon="30.6818318367"><time>2026-09-01T12:08:43Z</time></trkpt><trkpt lat="59.2557048798" lon="30.6817460060"><time>2026-09-01T12:08:45Z</time></trkpt><trkpt lat="59.2557263374" lon="30.6817030907"><time>2026-09-01T12:08:48Z</time></trkpt><trkpt lat="59.2557263374" lon="30.6816387177"><time>2026-09-01T12:08:50Z</time></trkpt><trkpt lat="59.2557048798" lon="30.6816387177"><time>2026-09-01T12:08:53Z</time></trkpt><trkpt lat="59.2557048798" lon="30.6816172600"><time>2026-09-01T12:08:55Z</time></trkpt><trkpt lat="59.2557477951" lon="30.6814885139"><time>2026-09-01T12:08:58Z</time></trkpt><trkpt lat="59.2557692528" lon="30.6813383102"><time>2026-09-01T12:09:00Z</time></trkpt><trkpt lat="59.2557907104" lon="30.6812953949"><time>2026-09-01T12:09:03Z</time></trkpt><trkpt lat="59.2557907104" lon="30.6812524796"><time>2026-09-01T12:09:05Z</time></trkpt><trkpt lat="59.2557907104" lon="30.6812524796"><time>2026-09-01T12:09:08Z</time></trkpt><trkpt lat="59.2557907104" lon="30.6812524796"><time>2026-09-01T12:09:10Z</time></trkpt><trkpt lat="59.2557907104" lon="30.6812524796"><time>2026-09-01T12:09:13Z</time></trkpt><trkpt lat="59.2557692528" lon="30.6812524796"><time>2026-09-01T12:09:15Z</time></trkpt><trkpt lat="59.2557692528" lon="30.6812524796"><time>2026-09-01T12:09:18Z</time></trkpt><trkpt lat="59.2557692528" lon="30.6812524796"><time>2026-09-01T12:09:20Z</time></trkpt><trkpt lat="59.2557692528" lon="30.6812524796"><time>2026-09-01T12:09:23Z</time></trkpt><trkpt lat="59.2557692528" lon="30.6812524796"><time>2026-09-01T12:09:25Z</time></trkpt><trkpt lat="59.2557692528" lon="30.6812524796"><time>2026-09-01T12:09:28Z</time></trkpt><trkpt lat="59.2557692528" lon="30.6812524796"><time>2026-09-01T12:09:30Z</time></trkpt><trkpt lat="59.2557692528" lon="30.6812524796"><time>2026-09-01T12:09:33Z</time></trkpt><trkpt lat="59.2557692528" lon="30.6812524796"><time>2026-09-01T12:09:35Z</time></trkpt><trkpt lat="59.2557692528" lon="30.6812524796"><time>2026-09-01T12:09:38Z</time></trkpt><trkpt lat="59.2557692528" lon="30.6812524796"><time>2026-09-01T12:09:40Z</time></trkpt><trkpt lat="59.2557692528" lon="30.6812524796"><time>2026-09-01T12:09:43Z</time></trkpt><trkpt lat="59.2557692528" lon="30.6812524796"><time>2026-09-01T12:09:45Z</time></trkpt><trkpt lat="59.2557692528" lon="30.6812524796"><time>2026-09-01T12:09:48Z</time></trkpt><trkpt lat="59.2557692528" lon="30.6812524796"><time>2026-09-01T12:09:50Z</time></trkpt><trkpt lat="59.2557692528" lon="30.6812524796"><time>2026-09-01T12:09:53Z</time></trkpt><trkpt lat="59.2557692528" lon="30.6812524796"><time>2026-09-01T12:09:55Z</time></trkpt><trkpt lat="59.2557692528" lon="30.6812524796"><time>2026-09-01T12:09:58Z</time></trkpt><trkpt lat="59.2557692528" lon="30.6812524796"><time>2026-09-01T12:10:00Z</time></trkpt><trkpt lat="59.2557692528" lon="30.6812524796"><time>2026-09-01T12:10:03Z</time></trkpt><trkpt lat="59.2557692528" lon="30.6812524796"><time>2026-09-01T12:10:05Z</time></trkpt><trkpt lat="59.2557692528" lon="30.6812524796"><time>2026-09-01T12:10:08Z</time></trkpt><trkpt lat="59.2557692528" lon="30.6812524796"><time>2026-09-01T12:10:10Z</time></trkpt><trkpt lat="59.2557692528" lon="30.6812524796"><time>2026-09-01T12:10:13Z</time></trkpt><trkpt lat="59.2557692528" lon="30.6812524796"><time>2026-09-01T12:10:15Z</time></trkpt><trkpt lat="59.2557692528" lon="30.6812524796"><time>2026-09-01T12:10:18Z</time></trkpt><trkpt lat="59.2557692528" lon="30.6812310219"><time>2026-09-01T12:10:20Z</time></trkpt><trkpt lat="59.2557692528" lon="30.6812095642"><time>2026-09-01T12:10:23Z</time></trkpt><trkpt lat="59.2557907104" lon="30.6810808182"><time>2026-09-01T12:10:25Z</time></trkpt><trkpt lat="59.2557907104" lon="30.6810808182"><time>2026-09-01T12:10:28Z</time></trkpt><trkpt lat="59.2557907104" lon="30.6810808182"><time>2026-09-01T12:10:30Z</time></trkpt><trkpt lat="59.2557692528" lon="30.6810808182"><time>2026-09-01T12:10:33Z</time></trkpt><trkpt lat="59.2557692528" lon="30.6809949875"><time>2026-09-01T12:10:35Z</time></trkpt><trkpt lat="59.2557907104" lon="30.6809520721"><time>2026-09-01T12:10:38Z</time></trkpt><trkpt lat="59.2557692528" lon="30.6809306145"><time>2026-09-01T12:10:40Z</time></trkpt><trkpt lat="59.2557907104" lon="30.6808876991"><time>2026-09-01T12:10:43Z</time></trkpt><trkpt lat="59.2558121681" lon="30.6808018684"><time>2026-09-01T12:10:45Z</time></trkpt><trkpt lat="59.2558336258" lon="30.6807374954"><time>2026-09-01T12:10:48Z</time></trkpt><trkpt lat="59.2558336258" lon="30.6806945801"><time>2026-09-01T12:10:50Z</time></trkpt><trkpt lat="59.2558336258" lon="30.6806945801"><time>2026-09-01T12:10:53Z</time></trkpt><trkpt lat="59.2558336258" lon="30.6806945801"><time>2026-09-01T12:10:55Z</time></trkpt><trkpt lat="59.2558336258" lon="30.6806516647"><time>2026-09-01T12:10:58Z</time></trkpt><trkpt lat="59.2558765411" lon="30.6804800034"><time>2026-09-01T12:11:00Z</time></trkpt><trkpt lat="59.2558765411" lon="30.6804156303"><time>2026-09-01T12:11:03Z</time></trkpt><trkpt lat="59.2558765411" lon="30.6804585457"><time>2026-09-01T12:11:05Z</time></trkpt><trkpt lat="59.2558765411" lon="30.6804370880"><time>2026-09-01T12:11:08Z</time></trkpt><trkpt lat="59.2558765411" lon="30.6803941727"><time>2026-09-01T12:11:10Z</time></trkpt><trkpt lat="59.2558979988" lon="30.6803727150"><time>2026-09-01T12:11:13Z</time></trkpt><trkpt lat="59.2559194565" lon="30.6802010536"><time>2026-09-01T12:11:15Z</time></trkpt><trkpt lat="59.2559409142" lon="30.6802010536"><time>2026-09-01T12:11:18Z</time></trkpt><trkpt lat="59.2558979988" lon="30.6802439690"><time>2026-09-01T12:11:20Z</time></trkpt><trkpt lat="59.2558979988" lon="30.6802010536"><time>2026-09-01T12:11:23Z</time></trkpt><trkpt lat="59.2559194565" lon="30.6800723076"><time>2026-09-01T12:11:25Z</time></trkpt><trkpt lat="59.2559409142" lon="30.6800079346"><time>2026-09-01T12:11:28Z</time></trkpt><trkpt lat="59.2559409142" lon="30.6799435616"><time>2026-09-01T12:11:30Z</time></trkpt><trkpt lat="59.2559409142" lon="30.6799435616"><time>2026-09-01T12:11:33Z</time></trkpt><trkpt lat="59.2559409142" lon="30.6799435616"><time>2026-09-01T12:11:35Z</time></trkpt><trkpt lat="59.2559409142" lon="30.6799435616"><time>2026-09-01T12:11:38Z</time></trkpt><trkpt lat="59.2559838295" lon="30.6797933578"><time>2026-09-01T12:11:40Z</time></trkpt><trkpt lat="59.2560052872" lon="30.6796860695"><time>2026-09-01T12:11:43Z</time></trkpt><trkpt lat="59.2560052872" lon="30.6796216965"><time>2026-09-01T12:11:45Z</time></trkpt><trkpt lat="59.2560052872" lon="30.6796216965"><time>2026-09-01T12:11:48Z</time></trkpt><trkpt lat="59.2560052872" lon="30.6796216965"><time>2026-09-01T12:11:50Z</time></trkpt><trkpt lat="59.2560052872" lon="30.6796216965"><time>2026-09-01T12:11:53Z</time></trkpt><trkpt lat="59.2560482025" lon="30.6795573235"><time>2026-09-01T12:11:55Z</time></trkpt><trkpt lat="59.2560696602" lon="30.6794285774"><time>2026-09-01T12:11:58Z</time></trkpt><trkpt lat="59.2560696602" lon="30.6793427467"><time>2026-09-01T12:12:00Z</time></trkpt><trkpt lat="59.2560696602" lon="30.6793642044"><time>2026-09-01T12:12:03Z</time></trkpt><trkpt lat="59.2560482025" lon="30.6793427467"><time>2026-09-01T12:12:05Z</time></trkpt><trkpt lat="59.2560696602" lon="30.6793427467"><time>2026-09-01T12:12:08Z</time></trkpt><trkpt lat="59.2560911179" lon="30.6792783737"><time>2026-09-01T12:12:10Z</time></trkpt><trkpt lat="59.2560911179" lon="30.6791496277"><time>2026-09-01T12:12:13Z</time></trkpt><trkpt lat="59.2560911179" lon="30.6790637970"><time>2026-09-01T12:12:15Z</time></trkpt><trkpt lat="59.2560911179" lon="30.6790208817"><time>2026-09-01T12:12:18Z</time></trkpt><trkpt lat="59.2560911179" lon="30.6790208817"><time>2026-09-01T12:12:20Z</time></trkpt><trkpt lat="59.2560911179" lon="30.6790208817"><time>2026-09-01T12:12:23Z</time></trkpt><trkpt lat="59.2560911179" lon="30.6790208817"><time>2026-09-01T12:12:25Z</time></trkpt><trkpt lat="59.2560911179" lon="30.6789994240"><time>2026-09-01T12:12:28Z</time></trkpt><trkpt lat="59.2561125755" lon="30.6788921356"><time>2026-09-01T12:12:30Z</time></trkpt><trkpt lat="59.2561340332" lon="30.6788277626"><time>2026-09-01T12:12:33Z</time></trkpt><trkpt lat="59.2561554909" lon="30.6786990166"><time>2026-09-01T12:12:35Z</time></trkpt><trkpt lat="59.2561554909" lon="30.6786561012"><time>2026-09-01T12:12:38Z</time></trkpt><trkpt lat="59.2561554909" lon="30.6786346436"><time>2026-09-01T12:12:40Z</time></trkpt><trkpt lat="59.2561769485" lon="30.6785702705"><time>2026-09-01T12:12:43Z</time></trkpt><trkpt lat="59.2561984062" lon="30.6785273552"><time>2026-09-01T12:12:45Z</time></trkpt><trkpt lat="59.2561984062" lon="30.6785273552"><time>2026-09-01T12:12:48Z</time></trkpt><trkpt lat="59.2561984062" lon="30.6785488129"><time>2026-09-01T12:12:50Z</time></trkpt><trkpt lat="59.2561984062" lon="30.6785488129"><time>2026-09-01T12:12:53Z</time></trkpt><trkpt lat="59.2561984062" lon="30.6784844398"><time>2026-09-01T12:12:55Z</time></trkpt><trkpt lat="59.2562198639" lon="30.6784415245"><time>2026-09-01T12:12:58Z</time></trkpt><trkpt lat="59.2562413216" lon="30.6783556938"><time>2026-09-01T12:13:00Z</time></trkpt><trkpt lat="59.2562413216" lon="30.6783127785"><time>2026-09-01T12:13:03Z</time></trkpt><trkpt lat="59.2562413216" lon="30.6782269478"><time>2026-09-01T12:13:05Z</time></trkpt><trkpt lat="59.2562413216" lon="30.6782054901"><time>2026-09-01T12:13:08Z</time></trkpt><trkpt lat="59.2562413216" lon="30.6782054901"><time>2026-09-01T12:13:10Z</time></trkpt><trkpt lat="59.2562627792" lon="30.6781411171"><time>2026-09-01T12:13:13Z</time></trkpt><trkpt lat="59.2562842369" lon="30.6780338287"><time>2026-09-01T12:13:15Z</time></trkpt><trkpt lat="59.2562842369" lon="30.6779909134"><time>2026-09-01T12:13:18Z</time></trkpt><trkpt lat="59.2562627792" lon="30.6779694557"><time>2026-09-01T12:13:20Z</time></trkpt><trkpt lat="59.2562627792" lon="30.6779694557"><time>2026-09-01T12:13:23Z</time></trkpt><trkpt lat="59.2562842369" lon="30.6779694557"><time>2026-09-01T12:13:25Z</time></trkpt><trkpt lat="59.2562842369" lon="30.6779694557"><time>2026-09-01T12:13:28Z</time></trkpt><trkpt lat="59.2562842369" lon="30.6779694557"><time>2026-09-01T12:13:30Z</time></trkpt><trkpt lat="59.2563056946" lon="30.6779479980"><time>2026-09-01T12:13:33Z</time></trkpt><trkpt lat="59.2563271523" lon="30.6778836250"><time>2026-09-01T12:13:35Z</time></trkpt><trkpt lat="59.2563271523" lon="30.6778836250"><time>2026-09-01T12:13:38Z</time></trkpt><trkpt lat="59.2563271523" lon="30.6778836250"><time>2026-09-01T12:13:40Z</time></trkpt><trkpt lat="59.2563271523" lon="30.6778836250"><time>2026-09-01T12:13:43Z</time></trkpt><trkpt lat="59.2563700676" lon="30.6778621674"><time>2026-09-01T12:13:45Z</time></trkpt><trkpt lat="59.2563915253" lon="30.6778192520"><time>2026-09-01T12:13:48Z</time></trkpt><trkpt lat="59.2563915253" lon="30.6778192520"><time>2026-09-01T12:13:50Z</time></trkpt><trkpt lat="59.2563915253" lon="30.6778621674"><time>2026-09-01T12:13:53Z</time></trkpt><trkpt lat="59.2564129829" lon="30.6779050827"><time>2026-09-01T12:13:55Z</time></trkpt><trkpt lat="59.2564129829" lon="30.6779265404"><time>2026-09-01T12:13:58Z</time></trkpt><trkpt lat="59.2564344406" lon="30.6779265404"><time>2026-09-01T12:14:00Z</time></trkpt><trkpt lat="59.2564558983" lon="30.6779694557"><time>2026-09-01T12:14:03Z</time></trkpt><trkpt lat="59.2564773560" lon="30.6779694557"><time>2026-09-01T12:14:05Z</time></trkpt><trkpt lat="59.2564773560" lon="30.6779694557"><time>2026-09-01T12:14:08Z</time></trkpt><trkpt lat="59.2564773560" lon="30.6779265404"><time>2026-09-01T12:14:10Z</time></trkpt><trkpt lat="59.2564773560" lon="30.6779265404"><time>2026-09-01T12:14:13Z</time></trkpt><trkpt lat="59.2564773560" lon="30.6779694557"><time>2026-09-01T12:14:15Z</time></trkpt><trkpt lat="59.2564988136" lon="30.6779694557"><time>2026-09-01T12:14:18Z</time></trkpt><trkpt lat="59.2564988136" lon="30.6779479980"><time>2026-09-01T12:14:20Z</time></trkpt><trkpt lat="59.2565202713" lon="30.6779479980"><time>2026-09-01T12:14:23Z</time></trkpt><trkpt lat="59.2565202713" lon="30.6779694557"><time>2026-09-01T12:14:25Z</time></trkpt><trkpt lat="59.2565202713" lon="30.6779694557"><time>2026-09-01T12:14:28Z</time></trkpt><trkpt lat="59.2565417290" lon="30.6779694557"><time>2026-09-01T12:14:30Z</time></trkpt><trkpt lat="59.2565417290" lon="30.6779909134"><time>2026-09-01T12:14:33Z</time></trkpt><trkpt lat="59.2565417290" lon="30.6780338287"><time>2026-09-01T12:14:35Z</time></trkpt><trkpt lat="59.2565417290" lon="30.6780123711"><time>2026-09-01T12:14:38Z</time></trkpt><trkpt lat="59.2565417290" lon="30.6780123711"><time>2026-09-01T12:14:40Z</time></trkpt><trkpt lat="59.2565631866" lon="30.6780552864"><time>2026-09-01T12:14:43Z</time></trkpt><trkpt lat="59.2565631866" lon="30.6780982018"><time>2026-09-01T12:14:45Z</time></trkpt><trkpt lat="59.2565417290" lon="30.6781196594"><time>2026-09-01T12:14:48Z</time></trkpt><trkpt lat="59.2565202713" lon="30.6781196594"><time>2026-09-01T12:14:50Z</time></trkpt><trkpt lat="59.2565417290" lon="30.6780982018"><time>2026-09-01T12:14:53Z</time></trkpt><trkpt lat="59.2565631866" lon="30.6781625748"><time>2026-09-01T12:14:55Z</time></trkpt><trkpt lat="59.2565846443" lon="30.6781625748"><time>2026-09-01T12:14:58Z</time></trkpt><trkpt lat="59.2565846443" lon="30.6780982018"><time>2026-09-01T12:15:00Z</time></trkpt><trkpt lat="59.2565846443" lon="30.6780982018"><time>2026-09-01T12:15:03Z</time></trkpt><trkpt lat="59.2565846443" lon="30.6780982018"><time>2026-09-01T12:15:05Z</time></trkpt><trkpt lat="59.2565631866" lon="30.6780982018"><time>2026-09-01T12:15:08Z</time></trkpt><trkpt lat="59.2565631866" lon="30.6781196594"><time>2026-09-01T12:15:10Z</time></trkpt><trkpt lat="59.2565631866" lon="30.6781840324"><time>2026-09-01T12:15:13Z</time></trkpt><trkpt lat="59.2565846443" lon="30.6782054901"><time>2026-09-01T12:15:15Z</time></trkpt><trkpt lat="59.2566061020" lon="30.6782269478"><time>2026-09-01T12:15:18Z</time></trkpt><trkpt lat="59.2566061020" lon="30.6782269478"><time>2026-09-01T12:15:20Z</time></trkpt><trkpt lat="59.2566061020" lon="30.6782269478"><time>2026-09-01T12:15:23Z</time></trkpt><trkpt lat="59.2566275597" lon="30.6782698631"><time>2026-09-01T12:15:25Z</time></trkpt><trkpt lat="59.2566490173" lon="30.6782913208"><time>2026-09-01T12:15:28Z</time></trkpt><trkpt lat="59.2566490173" lon="30.6783127785"><time>2026-09-01T12:15:30Z</time></trkpt><trkpt lat="59.2566490173" lon="30.6783127785"><time>2026-09-01T12:15:33Z</time></trkpt><trkpt lat="59.2566704750" lon="30.6783127785"><time>2026-09-01T12:15:35Z</time></trkpt><trkpt lat="59.2566919327" lon="30.6783127785"><time>2026-09-01T12:15:38Z</time></trkpt><trkpt lat="59.2566919327" lon="30.6782913208"><time>2026-09-01T12:15:40Z</time></trkpt><trkpt lat="59.2567133904" lon="30.6782913208"><time>2026-09-01T12:15:43Z</time></trkpt><trkpt lat="59.2567348480" lon="30.6782484055"><time>2026-09-01T12:15:45Z</time></trkpt><trkpt lat="59.2567348480" lon="30.6782269478"><time>2026-09-01T12:15:48Z</time></trkpt><trkpt lat="59.2567348480" lon="30.6782269478"><time>2026-09-01T12:15:50Z</time></trkpt><trkpt lat="59.2567563057" lon="30.6782269478"><time>2026-09-01T12:15:53Z</time></trkpt><trkpt lat="59.2567563057" lon="30.6782269478"><time>2026-09-01T12:15:55Z</time></trkpt><trkpt lat="59.2567563057" lon="30.6782269478"><time>2026-09-01T12:15:58Z</time></trkpt><trkpt lat="59.2567563057" lon="30.6782269478"><time>2026-09-01T12:16:00Z</time></trkpt><trkpt lat="59.2567563057" lon="30.6782269478"><time>2026-09-01T12:16:03Z</time></trkpt><trkpt lat="59.2567563057" lon="30.6782269478"><time>2026-09-01T12:16:05Z</time></trkpt><trkpt lat="59.2567563057" lon="30.6782269478"><time>2026-09-01T12:16:08Z</time></trkpt><trkpt lat="59.2567563057" lon="30.6782269478"><time>2026-09-01T12:16:10Z</time></trkpt><trkpt lat="59.2567563057" lon="30.6782269478"><time>2026-09-01T12:16:13Z</time></trkpt><trkpt lat="59.2567563057" lon="30.6782269478"><time>2026-09-01T12:16:15Z</time></trkpt><trkpt lat="59.2567563057" lon="30.6782269478"><time>2026-09-01T12:16:18Z</time></trkpt><trkpt lat="59.2567563057" lon="30.6782269478"><time>2026-09-01T12:16:20Z</time></trkpt><trkpt lat="59.2567563057" lon="30.6782269478"><time>2026-09-01T12:16:23Z</time></trkpt><trkpt lat="59.2567563057" lon="30.6782269478"><time>2026-09-01T12:16:25Z</time></trkpt><trkpt lat="59.2567563057" lon="30.6782269478"><time>2026-09-01T12:16:28Z</time></trkpt><trkpt lat="59.2567563057" lon="30.6782269478"><time>2026-09-01T12:16:30Z</time></trkpt><trkpt lat="59.2567563057" lon="30.6782269478"><time>2026-09-01T12:16:33Z</time></trkpt><trkpt lat="59.2567563057" lon="30.6782269478"><time>2026-09-01T12:16:35Z</time></trkpt><trkpt lat="59.2567563057" lon="30.6782269478"><time>2026-09-01T12:16:38Z</time></trkpt><trkpt lat="59.2567563057" lon="30.6782269478"><time>2026-09-01T12:16:40Z</time></trkpt><trkpt lat="59.2567563057" lon="30.6782269478"><time>2026-09-01T12:16:43Z</time></trkpt><trkpt lat="59.2567563057" lon="30.6782269478"><time>2026-09-01T12:16:45Z</time></trkpt><trkpt lat="59.2567563057" lon="30.6782269478"><time>2026-09-01T12:16:48Z</time></trkpt><trkpt lat="59.2567563057" lon="30.6782269478"><time>2026-09-01T12:16:50Z</time></trkpt><trkpt lat="59.2567563057" lon="30.6782269478"><time>2026-09-01T12:16:53Z</time></trkpt><trkpt lat="59.2567563057" lon="30.6782269478"><time>2026-09-01T12:16:55Z</time></trkpt><trkpt lat="59.2567563057" lon="30.6782269478"><time>2026-09-01T12:16:58Z</time></trkpt><trkpt lat="59.2567563057" lon="30.6782269478"><time>2026-09-01T12:17:00Z</time></trkpt><trkpt lat="59.2567563057" lon="30.6782269478"><time>2026-09-01T12:17:03Z</time></trkpt><trkpt lat="59.2567563057" lon="30.6782269478"><time>2026-09-01T12:17:05Z</time></trkpt><trkpt lat="59.2567563057" lon="30.6782269478"><time>2026-09-01T12:17:08Z</time></trkpt><trkpt lat="59.2567563057" lon="30.6782269478"><time>2026-09-01T12:17:10Z</time></trkpt><trkpt lat="59.2567563057" lon="30.6782269478"><time>2026-09-01T12:17:13Z</time></trkpt><trkpt lat="59.2567563057" lon="30.6782269478"><time>2026-09-01T12:17:15Z</time></trkpt><trkpt lat="59.2567563057" lon="30.6782269478"><time>2026-09-01T12:17:18Z</time></trkpt><trkpt lat="59.2567563057" lon="30.6782269478"><time>2026-09-01T12:17:20Z</time></trkpt><trkpt lat="59.2567563057" lon="30.6782269478"><time>2026-09-01T12:17:23Z</time></trkpt><trkpt lat="59.2567563057" lon="30.6782269478"><time>2026-09-01T12:17:25Z</time></trkpt><trkpt lat="59.2567563057" lon="30.6782269478"><time>2026-09-01T12:17:28Z</time></trkpt><trkpt lat="59.2567563057" lon="30.6782269478"><time>2026-09-01T12:17:30Z</time></trkpt><trkpt lat="59.2567348480" lon="30.6782484055"><time>2026-09-01T12:17:33Z</time></trkpt><trkpt lat="59.2567348480" lon="30.6782269478"><time>2026-09-01T12:17:35Z</time></trkpt><trkpt lat="59.2567563057" lon="30.6782269478"><time>2026-09-01T12:17:38Z</time></trkpt><trkpt lat="59.2567563057" lon="30.6782269478"><time>2026-09-01T12:17:40Z</time></trkpt><trkpt lat="59.2567563057" lon="30.6782269478"><time>2026-09-01T12:17:43Z</time></trkpt><trkpt lat="59.2567563057" lon="30.6782484055"><time>2026-09-01T12:17:45Z</time></trkpt><trkpt lat="59.2567348480" lon="30.6782698631"><time>2026-09-01T12:17:48Z</time></trkpt><trkpt lat="59.2567348480" lon="30.6782698631"><time>2026-09-01T12:17:50Z</time></trkpt><trkpt lat="59.2567348480" lon="30.6782698631"><time>2026-09-01T12:17:53Z</time></trkpt><trkpt lat="59.2567348480" lon="30.6782698631"><time>2026-09-01T12:17:55Z</time></trkpt><trkpt lat="59.2567348480" lon="30.6782698631"><time>2026-09-01T12:17:58Z</time></trkpt><trkpt lat="59.2567348480" lon="30.6782698631"><time>2026-09-01T12:18:00Z</time></trkpt><trkpt lat="59.2567133904" lon="30.6782698631"><time>2026-09-01T12:18:03Z</time></trkpt><trkpt lat="59.2567133904" lon="30.6783127785"><time>2026-09-01T12:18:05Z</time></trkpt><trkpt lat="59.2567133904" lon="30.6783771515"><time>2026-09-01T12:18:08Z</time></trkpt><trkpt lat="59.2567133904" lon="30.6783556938"><time>2026-09-01T12:18:10Z</time></trkpt><trkpt lat="59.2567348480" lon="30.6782913208"><time>2026-09-01T12:18:13Z</time></trkpt><trkpt lat="59.2567133904" lon="30.6782269478"><time>2026-09-01T12:18:15Z</time></trkpt><trkpt lat="59.2567133904" lon="30.6782484055"><time>2026-09-01T12:18:18Z</time></trkpt><trkpt lat="59.2567348480" lon="30.6782484055"><time>2026-09-01T12:18:20Z</time></trkpt><trkpt lat="59.2567348480" lon="30.6782913208"><time>2026-09-01T12:18:23Z</time></trkpt><trkpt lat="59.2567133904" lon="30.6784415245"><time>2026-09-01T12:18:25Z</time></trkpt><trkpt lat="59.2567133904" lon="30.6784629822"><time>2026-09-01T12:18:28Z</time></trkpt><trkpt lat="59.2567133904" lon="30.6784629822"><time>2026-09-01T12:18:30Z</time></trkpt><trkpt lat="59.2567133904" lon="30.6785273552"><time>2026-09-01T12:18:33Z</time></trkpt><trkpt lat="59.2566919327" lon="30.6785917282"><time>2026-09-01T12:18:35Z</time></trkpt><trkpt lat="59.2566704750" lon="30.6785917282"><time>2026-09-01T12:18:38Z</time></trkpt><trkpt lat="59.2566490173" lon="30.6785488129"><time>2026-09-01T12:18:40Z</time></trkpt><trkpt lat="59.2566490173" lon="30.6785488129"><time>2026-09-01T12:18:43Z</time></trkpt><trkpt lat="59.2566704750" lon="30.6786346436"><time>2026-09-01T12:18:45Z</time></trkpt><trkpt lat="59.2566704750" lon="30.6787419319"><time>2026-09-01T12:18:48Z</time></trkpt><trkpt lat="59.2566919327" lon="30.6788063049"><time>2026-09-01T12:18:50Z</time></trkpt><trkpt lat="59.2567133904" lon="30.6788492203"><time>2026-09-01T12:18:53Z</time></trkpt><trkpt lat="59.2567348480" lon="30.6789350510"><time>2026-09-01T12:18:55Z</time></trkpt><trkpt lat="59.2567133904" lon="30.6789565086"><time>2026-09-01T12:18:58Z</time></trkpt><trkpt lat="59.2567133904" lon="30.6789994240"><time>2026-09-01T12:19:00Z</time></trkpt><trkpt lat="59.2566919327" lon="30.6790637970"><time>2026-09-01T12:19:03Z</time></trkpt><trkpt lat="59.2567133904" lon="30.6790208817"><time>2026-09-01T12:19:05Z</time></trkpt><trkpt lat="59.2567133904" lon="30.6789994240"><time>2026-09-01T12:19:08Z</time></trkpt><trkpt lat="59.2567348480" lon="30.6790208817"><time>2026-09-01T12:19:10Z</time></trkpt><trkpt lat="59.2567348480" lon="30.6790637970"><time>2026-09-01T12:19:13Z</time></trkpt><trkpt lat="59.2567348480" lon="30.6791281700"><time>2026-09-01T12:19:15Z</time></trkpt><trkpt lat="59.2567348480" lon="30.6791925430"><time>2026-09-01T12:19:18Z</time></trkpt><trkpt lat="59.2567348480" lon="30.6792783737"><time>2026-09-01T12:19:20Z</time></trkpt><trkpt lat="59.2567133904" lon="30.6793212891"><time>2026-09-01T12:19:23Z</time></trkpt><trkpt lat="59.2566704750" lon="30.6793856621"><time>2026-09-01T12:19:25Z</time></trkpt><trkpt lat="59.2566704750" lon="30.6794285774"><time>2026-09-01T12:19:28Z</time></trkpt><trkpt lat="59.2566919327" lon="30.6793642044"><time>2026-09-01T12:19:30Z</time></trkpt><trkpt lat="59.2566919327" lon="30.6793212891"><time>2026-09-01T12:19:33Z</time></trkpt><trkpt lat="59.2567133904" lon="30.6792998314"><time>2026-09-01T12:19:35Z</time></trkpt><trkpt lat="59.2566919327" lon="30.6792998314"><time>2026-09-01T12:19:38Z</time></trkpt><trkpt lat="59.2566704750" lon="30.6792998314"><time>2026-09-01T12:19:40Z</time></trkpt><trkpt lat="59.2566490173" lon="30.6793427467"><time>2026-09-01T12:19:43Z</time></trkpt><trkpt lat="59.2566490173" lon="30.6793856621"><time>2026-09-01T12:19:45Z</time></trkpt><trkpt lat="59.2566275597" lon="30.6794714928"><time>2026-09-01T12:19:48Z</time></trkpt><trkpt lat="59.2565846443" lon="30.6795573235"><time>2026-09-01T12:19:50Z</time></trkpt><trkpt lat="59.2565846443" lon="30.6796002388"><time>2026-09-01T12:19:53Z</time></trkpt><trkpt lat="59.2565846443" lon="30.6797075272"><time>2026-09-01T12:19:55Z</time></trkpt><trkpt lat="59.2565846443" lon="30.6797933578"><time>2026-09-01T12:19:58Z</time></trkpt><trkpt lat="59.2566061020" lon="30.6798577309"><time>2026-09-01T12:20:00Z</time></trkpt><trkpt lat="59.2566061020" lon="30.6798577309"><time>2026-09-01T12:20:03Z</time></trkpt><trkpt lat="59.2566061020" lon="30.6798577309"><time>2026-09-01T12:20:05Z</time></trkpt><trkpt lat="59.2566061020" lon="30.6798577309"><time>2026-09-01T12:20:08Z</time></trkpt><trkpt lat="59.2565846443" lon="30.6798362732"><time>2026-09-01T12:20:10Z</time></trkpt><trkpt lat="59.2565846443" lon="30.6798148155"><time>2026-09-01T12:20:13Z</time></trkpt><trkpt lat="59.2565846443" lon="30.6798791885"><time>2026-09-01T12:20:15Z</time></trkpt><trkpt lat="59.2565846443" lon="30.6799435616"><time>2026-09-01T12:20:18Z</time></trkpt><trkpt lat="59.2565631866" lon="30.6800293922"><time>2026-09-01T12:20:20Z</time></trkpt><trkpt lat="59.2565631866" lon="30.6800293922"><time>2026-09-01T12:20:23Z</time></trkpt><trkpt lat="59.2565631866" lon="30.6799864769"><time>2026-09-01T12:20:25Z</time></trkpt><trkpt lat="59.2565417290" lon="30.6799650192"><time>2026-09-01T12:20:28Z</time></trkpt><trkpt lat="59.2565202713" lon="30.6799221039"><time>2026-09-01T12:20:30Z</time></trkpt><trkpt lat="59.2564988136" lon="30.6799435616"><time>2026-09-01T12:20:33Z</time></trkpt><trkpt lat="59.2564773560" lon="30.6799864769"><time>2026-09-01T12:20:35Z</time></trkpt><trkpt lat="59.2564773560" lon="30.6799650192"><time>2026-09-01T12:20:38Z</time></trkpt><trkpt lat="59.2564344406" lon="30.6799864769"><time>2026-09-01T12:20:40Z</time></trkpt><trkpt lat="59.2564344406" lon="30.6800508499"><time>2026-09-01T12:20:43Z</time></trkpt><trkpt lat="59.2564773560" lon="30.6800723076"><time>2026-09-01T12:20:45Z</time></trkpt><trkpt lat="59.2564988136" lon="30.6800937653"><time>2026-09-01T12:20:48Z</time></trkpt><trkpt lat="59.2564773560" lon="30.6801795959"><time>2026-09-01T12:20:50Z</time></trkpt><trkpt lat="59.2564988136" lon="30.6802439690"><time>2026-09-01T12:20:53Z</time></trkpt><trkpt lat="59.2564988136" lon="30.6803297997"><time>2026-09-01T12:20:55Z</time></trkpt><trkpt lat="59.2565202713" lon="30.6804156303"><time>2026-09-01T12:20:58Z</time></trkpt><trkpt lat="59.2565202713" lon="30.6805014610"><time>2026-09-01T12:21:00Z</time></trkpt><trkpt lat="59.2565417290" lon="30.6805443764"><time>2026-09-01T12:21:03Z</time></trkpt><trkpt lat="59.2565202713" lon="30.6805014610"><time>2026-09-01T12:21:05Z</time></trkpt><trkpt lat="59.2564988136" lon="30.6804800034"><time>2026-09-01T12:21:08Z</time></trkpt><trkpt lat="59.2564988136" lon="30.6804585457"><time>2026-09-01T12:21:10Z</time></trkpt><trkpt lat="59.2564988136" lon="30.6804585457"><time>2026-09-01T12:21:13Z</time></trkpt><trkpt lat="59.2564558983" lon="30.6804370880"><time>2026-09-01T12:21:15Z</time></trkpt><trkpt lat="59.2564558983" lon="30.6804370880"><time>2026-09-01T12:21:18Z</time></trkpt><trkpt lat="59.2564558983" lon="30.6804800034"><time>2026-09-01T12:21:20Z</time></trkpt><trkpt lat="59.2564344406" lon="30.6805014610"><time>2026-09-01T12:21:23Z</time></trkpt><trkpt lat="59.2564129829" lon="30.6805658340"><time>2026-09-01T12:21:25Z</time></trkpt><trkpt lat="59.2564129829" lon="30.6805872917"><time>2026-09-01T12:21:28Z</time></trkpt><trkpt lat="59.2563700676" lon="30.6806516647"><time>2026-09-01T12:21:30Z</time></trkpt><trkpt lat="59.2563486099" lon="30.6806945801"><time>2026-09-01T12:21:33Z</time></trkpt><trkpt lat="59.2563700676" lon="30.6807589531"><time>2026-09-01T12:21:35Z</time></trkpt><trkpt lat="59.2563915253" lon="30.6807804108"><time>2026-09-01T12:21:38Z</time></trkpt><trkpt lat="59.2564344406" lon="30.6808447838"><time>2026-09-01T12:21:40Z</time></trkpt><trkpt lat="59.2564344406" lon="30.6808662415"><time>2026-09-01T12:21:43Z</time></trkpt><trkpt lat="59.2564558983" lon="30.6809306145"><time>2026-09-01T12:21:45Z</time></trkpt><trkpt lat="59.2564773560" lon="30.6809735298"><time>2026-09-01T12:21:48Z</time></trkpt><trkpt lat="59.2564988136" lon="30.6809735298"><time>2026-09-01T12:21:50Z</time></trkpt><trkpt lat="59.2565202713" lon="30.6809520721"><time>2026-09-01T12:21:53Z</time></trkpt><trkpt lat="59.2565417290" lon="30.6809306145"><time>2026-09-01T12:21:55Z</time></trkpt><trkpt lat="59.2565417290" lon="30.6809306145"><time>2026-09-01T12:21:58Z</time></trkpt><trkpt lat="59.2565202713" lon="30.6809306145"><time>2026-09-01T12:22:00Z</time></trkpt><trkpt lat="59.2564988136" lon="30.6809735298"><time>2026-09-01T12:22:03Z</time></trkpt><trkpt lat="59.2564988136" lon="30.6809949875"><time>2026-09-01T12:22:05Z</time></trkpt><trkpt lat="59.2564988136" lon="30.6809949875"><time>2026-09-01T12:22:08Z</time></trkpt><trkpt lat="59.2564988136" lon="30.6810379028"><time>2026-09-01T12:22:10Z</time></trkpt><trkpt lat="59.2564988136" lon="30.6810593605"><time>2026-09-01T12:22:13Z</time></trkpt><trkpt lat="59.2564988136" lon="30.6811022758"><time>2026-09-01T12:22:15Z</time></trkpt><trkpt lat="59.2564988136" lon="30.6811451912"><time>2026-09-01T12:22:18Z</time></trkpt><trkpt lat="59.2565202713" lon="30.6811666489"><time>2026-09-01T12:22:20Z</time></trkpt><trkpt lat="59.2565202713" lon="30.6811666489"><time>2026-09-01T12:22:23Z</time></trkpt><trkpt lat="59.2564988136" lon="30.6812524796"><time>2026-09-01T12:22:25Z</time></trkpt><trkpt lat="59.2564773560" lon="30.6812953949"><time>2026-09-01T12:22:28Z</time></trkpt><trkpt lat="59.2564773560" lon="30.6813597679"><time>2026-09-01T12:22:30Z</time></trkpt><trkpt lat="59.2564558983" lon="30.6814241409"><time>2026-09-01T12:22:33Z</time></trkpt><trkpt lat="59.2564344406" lon="30.6815099716"><time>2026-09-01T12:22:35Z</time></trkpt><trkpt lat="59.2564344406" lon="30.6815314293"><time>2026-09-01T12:22:38Z</time></trkpt><trkpt lat="59.2564558983" lon="30.6815099716"><time>2026-09-01T12:22:40Z</time></trkpt><trkpt lat="59.2564558983" lon="30.6815099716"><time>2026-09-01T12:22:43Z</time></trkpt><trkpt lat="59.2564558983" lon="30.6815099716"><time>2026-09-01T12:22:45Z</time></trkpt><trkpt lat="59.2564558983" lon="30.6815099716"><time>2026-09-01T12:22:48Z</time></trkpt><trkpt lat="59.2564558983" lon="30.6814455986"><time>2026-09-01T12:22:50Z</time></trkpt><trkpt lat="59.2564558983" lon="30.6814241409"><time>2026-09-01T12:22:53Z</time></trkpt><trkpt lat="59.2564344406" lon="30.6814670563"><time>2026-09-01T12:22:55Z</time></trkpt><trkpt lat="59.2564344406" lon="30.6815314293"><time>2026-09-01T12:22:58Z</time></trkpt><trkpt lat="59.2564344406" lon="30.6815743446"><time>2026-09-01T12:23:00Z</time></trkpt><trkpt lat="59.2564344406" lon="30.6815743446"><time>2026-09-01T12:23:03Z</time></trkpt><trkpt lat="59.2564129829" lon="30.6816172600"><time>2026-09-01T12:23:05Z</time></trkpt><trkpt lat="59.2564129829" lon="30.6816387177"><time>2026-09-01T12:23:08Z</time></trkpt><trkpt lat="59.2564129829" lon="30.6817245483"><time>2026-09-01T12:23:10Z</time></trkpt><trkpt lat="59.2564129829" lon="30.6817889214"><time>2026-09-01T12:23:13Z</time></trkpt><trkpt lat="59.2564129829" lon="30.6817889214"><time>2026-09-01T12:23:15Z</time></trkpt><trkpt lat="59.2564129829" lon="30.6817889214"><time>2026-09-01T12:23:18Z</time></trkpt><trkpt lat="59.2564129829" lon="30.6817889214"><time>2026-09-01T12:23:20Z</time></trkpt><trkpt lat="59.2564129829" lon="30.6817889214"><time>2026-09-01T12:23:23Z</time></trkpt><trkpt lat="59.2564129829" lon="30.6817889214"><time>2026-09-01T12:23:25Z</time></trkpt><trkpt lat="59.2564129829" lon="30.6817889214"><time>2026-09-01T12:23:28Z</time></trkpt><trkpt lat="59.2564129829" lon="30.6817889214"><time>2026-09-01T12:23:30Z</time></trkpt><trkpt lat="59.2564129829" lon="30.6817889214"><time>2026-09-01T12:23:33Z</time></trkpt><trkpt lat="59.2564129829" lon="30.6818103790"><time>2026-09-01T12:23:35Z</time></trkpt><trkpt lat="59.2563915253" lon="30.6818962097"><time>2026-09-01T12:23:38Z</time></trkpt><trkpt lat="59.2563915253" lon="30.6819605827"><time>2026-09-01T12:23:40Z</time></trkpt><trkpt lat="59.2563915253" lon="30.6819605827"><time>2026-09-01T12:23:43Z</time></trkpt><trkpt lat="59.2563915253" lon="30.6820034981"><time>2026-09-01T12:23:45Z</time></trkpt><trkpt lat="59.2563915253" lon="30.6820464134"><time>2026-09-01T12:23:48Z</time></trkpt><trkpt lat="59.2563915253" lon="30.6821322441"><time>2026-09-01T12:23:50Z</time></trkpt><trkpt lat="59.2563700676" lon="30.6821537018"><time>2026-09-01T12:23:53Z</time></trkpt><trkpt lat="59.2563486099" lon="30.6822180748"><time>2026-09-01T12:23:55Z</time></trkpt><trkpt lat="59.2563486099" lon="30.6822824478"><time>2026-09-01T12:23:58Z</time></trkpt><trkpt lat="59.2563056946" lon="30.6823468208"><time>2026-09-01T12:24:00Z</time></trkpt><trkpt lat="59.2563056946" lon="30.6823897362"><time>2026-09-01T12:24:03Z</time></trkpt><trkpt lat="59.2563056946" lon="30.6824326515"><time>2026-09-01T12:24:05Z</time></trkpt><trkpt lat="59.2563271523" lon="30.6824111938"><time>2026-09-01T12:24:08Z</time></trkpt><trkpt lat="59.2563486099" lon="30.6824326515"><time>2026-09-01T12:24:10Z</time></trkpt><trkpt lat="59.2563486099" lon="30.6824326515"><time>2026-09-01T12:24:13Z</time></trkpt><trkpt lat="59.2563271523" lon="30.6824541092"><time>2026-09-01T12:24:15Z</time></trkpt><trkpt lat="59.2563056946" lon="30.6824755669"><time>2026-09-01T12:24:18Z</time></trkpt><trkpt lat="59.2563056946" lon="30.6824755669"><time>2026-09-01T12:24:20Z</time></trkpt><trkpt lat="59.2563056946" lon="30.6824755669"><time>2026-09-01T12:24:23Z</time></trkpt><trkpt lat="59.2563271523" lon="30.6824755669"><time>2026-09-01T12:24:25Z</time></trkpt><trkpt lat="59.2563271523" lon="30.6824755669"><time>2026-09-01T12:24:28Z</time></trkpt><trkpt lat="59.2563056946" lon="30.6825184822"><time>2026-09-01T12:24:30Z</time></trkpt><trkpt lat="59.2562842369" lon="30.6825613976"><time>2026-09-01T12:24:33Z</time></trkpt><trkpt lat="59.2562627792" lon="30.6826472282"><time>2026-09-01T12:24:35Z</time></trkpt><trkpt lat="59.2562413216" lon="30.6826901436"><time>2026-09-01T12:24:38Z</time></trkpt><trkpt lat="59.2562198639" lon="30.6827116013"><time>2026-09-01T12:24:40Z</time></trkpt><trkpt lat="59.2561984062" lon="30.6827116013"><time>2026-09-01T12:24:43Z</time></trkpt><trkpt lat="59.2561984062" lon="30.6827330589"><time>2026-09-01T12:24:45Z</time></trkpt><trkpt lat="59.2562198639" lon="30.6827330589"><time>2026-09-01T12:24:48Z</time></trkpt><trkpt lat="59.2562413216" lon="30.6827974319"><time>2026-09-01T12:24:50Z</time></trkpt><trkpt lat="59.2562413216" lon="30.6827974319"><time>2026-09-01T12:24:53Z</time></trkpt><trkpt lat="59.2562627792" lon="30.6828618050"><time>2026-09-01T12:24:55Z</time></trkpt><trkpt lat="59.2562627792" lon="30.6829047203"><time>2026-09-01T12:24:58Z</time></trkpt><trkpt lat="59.2562627792" lon="30.6829476357"><time>2026-09-01T12:25:00Z</time></trkpt><trkpt lat="59.2562627792" lon="30.6829905510"><time>2026-09-01T12:25:03Z</time></trkpt><trkpt lat="59.2562627792" lon="30.6830549240"><time>2026-09-01T12:25:05Z</time></trkpt><trkpt lat="59.2562627792" lon="30.6830763817"><time>2026-09-01T12:25:08Z</time></trkpt><trkpt lat="59.2562627792" lon="30.6830334663"><time>2026-09-01T12:25:10Z</time></trkpt><trkpt lat="59.2562842369" lon="30.6829905510"><time>2026-09-01T12:25:13Z</time></trkpt><trkpt lat="59.2562842369" lon="30.6829261780"><time>2026-09-01T12:25:15Z</time></trkpt><trkpt lat="59.2562627792" lon="30.6828832626"><time>2026-09-01T12:25:18Z</time></trkpt><trkpt lat="59.2562413216" lon="30.6828832626"><time>2026-09-01T12:25:20Z</time></trkpt><trkpt lat="59.2562198639" lon="30.6829047203"><time>2026-09-01T12:25:23Z</time></trkpt><trkpt lat="59.2562198639" lon="30.6829047203"><time>2026-09-01T12:25:25Z</time></trkpt><trkpt lat="59.2562198639" lon="30.6829261780"><time>2026-09-01T12:25:28Z</time></trkpt><trkpt lat="59.2562198639" lon="30.6829690933"><time>2026-09-01T12:25:30Z</time></trkpt><trkpt lat="59.2561984062" lon="30.6829690933"><time>2026-09-01T12:25:33Z</time></trkpt><trkpt lat="59.2561769485" lon="30.6829690933"><time>2026-09-01T12:25:35Z</time></trkpt><trkpt lat="59.2561769485" lon="30.6829690933"><time>2026-09-01T12:25:38Z</time></trkpt><trkpt lat="59.2561769485" lon="30.6829905510"><time>2026-09-01T12:25:40Z</time></trkpt><trkpt lat="59.2561769485" lon="30.6830334663"><time>2026-09-01T12:25:43Z</time></trkpt><trkpt lat="59.2561984062" lon="30.6830549240"><time>2026-09-01T12:25:45Z</time></trkpt><trkpt lat="59.2561984062" lon="30.6830763817"><time>2026-09-01T12:25:48Z</time></trkpt><trkpt lat="59.2562198639" lon="30.6831192970"><time>2026-09-01T12:25:50Z</time></trkpt><trkpt lat="59.2562198639" lon="30.6831192970"><time>2026-09-01T12:25:53Z</time></trkpt><trkpt lat="59.2562413216" lon="30.6831836700"><time>2026-09-01T12:25:55Z</time></trkpt><trkpt lat="59.2562413216" lon="30.6832051277"><time>2026-09-01T12:25:58Z</time></trkpt><trkpt lat="59.2562413216" lon="30.6832051277"><time>2026-09-01T12:26:00Z</time></trkpt><trkpt lat="59.2562413216" lon="30.6832265854"><time>2026-09-01T12:26:03Z</time></trkpt><trkpt lat="59.2562413216" lon="30.6832695007"><time>2026-09-01T12:26:05Z</time></trkpt><trkpt lat="59.2562413216" lon="30.6832695007"><time>2026-09-01T12:26:08Z</time></trkpt><trkpt lat="59.2562413216" lon="30.6832695007"><time>2026-09-01T12:26:10Z</time></trkpt><trkpt lat="59.2562413216" lon="30.6832695007"><time>2026-09-01T12:26:13Z</time></trkpt><trkpt lat="59.2562413216" lon="30.6832695007"><time>2026-09-01T12:26:15Z</time></trkpt><trkpt lat="59.2562413216" lon="30.6832695007"><time>2026-09-01T12:26:18Z</time></trkpt><trkpt lat="59.2562413216" lon="30.6832695007"><time>2026-09-01T12:26:20Z</time></trkpt><trkpt lat="59.2562413216" lon="30.6832695007"><time>2026-09-01T12:26:23Z</time></trkpt><trkpt lat="59.2562413216" lon="30.6832695007"><time>2026-09-01T12:26:25Z</time></trkpt><trkpt lat="59.2562198639" lon="30.6832480431"><time>2026-09-01T12:26:28Z</time></trkpt><trkpt lat="59.2562198639" lon="30.6832480431"><time>2026-09-01T12:26:30Z</time></trkpt><trkpt lat="59.2562198639" lon="30.6832265854"><time>2026-09-01T12:26:33Z</time></trkpt><trkpt lat="59.2562413216" lon="30.6832480431"><time>2026-09-01T12:26:35Z</time></trkpt><trkpt lat="59.2562413216" lon="30.6832480431"><time>2026-09-01T12:26:38Z</time></trkpt><trkpt lat="59.2562413216" lon="30.6832480431"><time>2026-09-01T12:26:40Z</time></trkpt><trkpt lat="59.2562627792" lon="30.6832480431"><time>2026-09-01T12:26:43Z</time></trkpt><trkpt lat="59.2562627792" lon="30.6832695007"><time>2026-09-01T12:26:45Z</time></trkpt><trkpt lat="59.2562627792" lon="30.6832695007"><time>2026-09-01T12:26:48Z</time></trkpt><trkpt lat="59.2562627792" lon="30.6832480431"><time>2026-09-01T12:26:50Z</time></trkpt><trkpt lat="59.2562627792" lon="30.6832480431"><time>2026-09-01T12:26:53Z</time></trkpt><trkpt lat="59.2562627792" lon="30.6832480431"><time>2026-09-01T12:26:55Z</time></trkpt><trkpt lat="59.2562842369" lon="30.6832480431"><time>2026-09-01T12:26:58Z</time></trkpt><trkpt lat="59.2562842369" lon="30.6832480431"><time>2026-09-01T12:27:00Z</time></trkpt><trkpt lat="59.2562842369" lon="30.6832480431"><time>2026-09-01T12:27:03Z</time></trkpt><trkpt lat="59.2562842369" lon="30.6832480431"><time>2026-09-01T12:27:05Z</time></trkpt><trkpt lat="59.2562842369" lon="30.6832480431"><time>2026-09-01T12:27:08Z</time></trkpt><trkpt lat="59.2562842369" lon="30.6832480431"><time>2026-09-01T12:27:10Z</time></trkpt><trkpt lat="59.2562842369" lon="30.6832480431"><time>2026-09-01T12:27:13Z</time></trkpt><trkpt lat="59.2562842369" lon="30.6832480431"><time>2026-09-01T12:27:15Z</time></trkpt><trkpt lat="59.2562842369" lon="30.6832480431"><time>2026-09-01T12:27:18Z</time></trkpt><trkpt lat="59.2562842369" lon="30.6832480431"><time>2026-09-01T12:27:20Z</time></trkpt><trkpt lat="59.2562842369" lon="30.6832480431"><time>2026-09-01T12:27:23Z</time></trkpt><trkpt lat="59.2562842369" lon="30.6832480431"><time>2026-09-01T12:27:25Z</time></trkpt><trkpt lat="59.2562842369" lon="30.6832480431"><time>2026-09-01T12:27:28Z</time></trkpt><trkpt lat="59.2562842369" lon="30.6832480431"><time>2026-09-01T12:27:30Z</time></trkpt><trkpt lat="59.2562842369" lon="30.6832480431"><time>2026-09-01T12:27:33Z</time></trkpt><trkpt lat="59.2562842369" lon="30.6832480431"><time>2026-09-01T12:27:35Z</time></trkpt><trkpt lat="59.2562842369" lon="30.6832480431"><time>2026-09-01T12:27:38Z</time></trkpt><trkpt lat="59.2562842369" lon="30.6832480431"><time>2026-09-01T12:27:40Z</time></trkpt><trkpt lat="59.2562842369" lon="30.6832695007"><time>2026-09-01T12:27:43Z</time></trkpt><trkpt lat="59.2562842369" lon="30.6832695007"><time>2026-09-01T12:27:45Z</time></trkpt><trkpt lat="59.2562842369" lon="30.6832695007"><time>2026-09-01T12:27:48Z</time></trkpt><trkpt lat="59.2562842369" lon="30.6832695007"><time>2026-09-01T12:27:50Z</time></trkpt><trkpt lat="59.2562842369" lon="30.6832695007"><time>2026-09-01T12:27:53Z</time></trkpt><trkpt lat="59.2562842369" lon="30.6832909584"><time>2026-09-01T12:27:55Z</time></trkpt><trkpt lat="59.2563056946" lon="30.6833124161"><time>2026-09-01T12:27:58Z</time></trkpt><trkpt lat="59.2562842369" lon="30.6833124161"><time>2026-09-01T12:28:00Z</time></trkpt><trkpt lat="59.2562842369" lon="30.6833338737"><time>2026-09-01T12:28:03Z</time></trkpt><trkpt lat="59.2562842369" lon="30.6833767891"><time>2026-09-01T12:28:05Z</time></trkpt><trkpt lat="59.2562627792" lon="30.6834197044"><time>2026-09-01T12:28:08Z</time></trkpt><trkpt lat="59.2562842369" lon="30.6834626198"><time>2026-09-01T12:28:10Z</time></trkpt><trkpt lat="59.2562842369" lon="30.6834840775"><time>2026-09-01T12:28:13Z</time></trkpt><trkpt lat="59.2562627792" lon="30.6835269928"><time>2026-09-01T12:28:15Z</time></trkpt><trkpt lat="59.2562413216" lon="30.6836128235"><time>2026-09-01T12:28:18Z</time></trkpt><trkpt lat="59.2562198639" lon="30.6836557388"><time>2026-09-01T12:28:20Z</time></trkpt><trkpt lat="59.2562198639" lon="30.6836771965"><time>2026-09-01T12:28:23Z</time></trkpt><trkpt lat="59.2562413216" lon="30.6836986542"><time>2026-09-01T12:28:25Z</time></trkpt><trkpt lat="59.2562198639" lon="30.6837415695"><time>2026-09-01T12:28:28Z</time></trkpt><trkpt lat="59.2562198639" lon="30.6837415695"><time>2026-09-01T12:28:30Z</time></trkpt><trkpt lat="59.2562198639" lon="30.6838274002"><time>2026-09-01T12:28:33Z</time></trkpt><trkpt lat="59.2562198639" lon="30.6839132309"><time>2026-09-01T12:28:35Z</time></trkpt><trkpt lat="59.2561984062" lon="30.6839990616"><time>2026-09-01T12:28:38Z</time></trkpt><trkpt lat="59.2561769485" lon="30.6841278076"><time>2026-09-01T12:28:40Z</time></trkpt><trkpt lat="59.2561769485" lon="30.6841921806"><time>2026-09-01T12:28:43Z</time></trkpt><trkpt lat="59.2561554909" lon="30.6842565536"><time>2026-09-01T12:28:45Z</time></trkpt><trkpt lat="59.2561554909" lon="30.6842780113"><time>2026-09-01T12:28:48Z</time></trkpt><trkpt lat="59.2561554909" lon="30.6843209267"><time>2026-09-01T12:28:50Z</time></trkpt><trkpt lat="59.2561340332" lon="30.6843423843"><time>2026-09-01T12:28:53Z</time></trkpt><trkpt lat="59.2561340332" lon="30.6844282150"><time>2026-09-01T12:28:55Z</time></trkpt><trkpt lat="59.2561125755" lon="30.6844711304"><time>2026-09-01T12:28:58Z</time></trkpt><trkpt lat="59.2561125755" lon="30.6845140457"><time>2026-09-01T12:29:00Z</time></trkpt><trkpt lat="59.2561340332" lon="30.6845784187"><time>2026-09-01T12:29:03Z</time></trkpt><trkpt lat="59.2561125755" lon="30.6845784187"><time>2026-09-01T12:29:05Z</time></trkpt><trkpt lat="59.2561125755" lon="30.6845998764"><time>2026-09-01T12:29:08Z</time></trkpt><trkpt lat="59.2561340332" lon="30.6846642494"><time>2026-09-01T12:29:10Z</time></trkpt><trkpt lat="59.2561554909" lon="30.6847286224"><time>2026-09-01T12:29:13Z</time></trkpt><trkpt lat="59.2561554909" lon="30.6847929955"><time>2026-09-01T12:29:15Z</time></trkpt><trkpt lat="59.2561554909" lon="30.6847929955"><time>2026-09-01T12:29:18Z</time></trkpt><trkpt lat="59.2561769485" lon="30.6848359108"><time>2026-09-01T12:29:20Z</time></trkpt><trkpt lat="59.2561984062" lon="30.6848573685"><time>2026-09-01T12:29:23Z</time></trkpt><trkpt lat="59.2562198639" lon="30.6849002838"><time>2026-09-01T12:29:25Z</time></trkpt><trkpt lat="59.2562198639" lon="30.6849431992"><time>2026-09-01T12:29:28Z</time></trkpt><trkpt lat="59.2562413216" lon="30.6850075722"><time>2026-09-01T12:29:30Z</time></trkpt><trkpt lat="59.2562413216" lon="30.6850719452"><time>2026-09-01T12:29:33Z</time></trkpt><trkpt lat="59.2562198639" lon="30.6851577759"><time>2026-09-01T12:29:35Z</time></trkpt><trkpt lat="59.2562198639" lon="30.6851577759"><time>2026-09-01T12:29:38Z</time></trkpt><trkpt lat="59.2562198639" lon="30.6851577759"><time>2026-09-01T12:29:40Z</time></trkpt><trkpt lat="59.2562198639" lon="30.6851577759"><time>2026-09-01T12:29:43Z</time></trkpt><trkpt lat="59.2562198639" lon="30.6851577759"><time>2026-09-01T12:29:45Z</time></trkpt><trkpt lat="59.2562198639" lon="30.6851577759"><time>2026-09-01T12:29:48Z</time></trkpt><trkpt lat="59.2562198639" lon="30.6851792336"><time>2026-09-01T12:29:50Z</time></trkpt><trkpt lat="59.2562627792" lon="30.6852436066"><time>2026-09-01T12:29:53Z</time></trkpt><trkpt lat="59.2562842369" lon="30.6853079796"><time>2026-09-01T12:29:55Z</time></trkpt><trkpt lat="59.2562842369" lon="30.6853294373"><time>2026-09-01T12:29:58Z</time></trkpt><trkpt lat="59.2563056946" lon="30.6853294373"><time>2026-09-01T12:30:00Z</time></trkpt><trkpt lat="59.2563271523" lon="30.6853938103"><time>2026-09-01T12:30:03Z</time></trkpt><trkpt lat="59.2563700676" lon="30.6855010986"><time>2026-09-01T12:30:05Z</time></trkpt><trkpt lat="59.2563700676" lon="30.6855654716"><time>2026-09-01T12:30:08Z</time></trkpt><trkpt lat="59.2563915253" lon="30.6856083870"><time>2026-09-01T12:30:10Z</time></trkpt><trkpt lat="59.2563915253" lon="30.6856083870"><time>2026-09-01T12:30:13Z</time></trkpt><trkpt lat="59.2563915253" lon="30.6856083870"><time>2026-09-01T12:30:15Z</time></trkpt><trkpt lat="59.2563915253" lon="30.6856083870"><time>2026-09-01T12:30:18Z</time></trkpt><trkpt lat="59.2563700676" lon="30.6855654716"><time>2026-09-01T12:30:20Z</time></trkpt><trkpt lat="59.2563700676" lon="30.6855440140"><time>2026-09-01T12:30:23Z</time></trkpt><trkpt lat="59.2563700676" lon="30.6855654716"><time>2026-09-01T12:30:25Z</time></trkpt><trkpt lat="59.2563915253" lon="30.6855654716"><time>2026-09-01T12:30:28Z</time></trkpt><trkpt lat="59.2564129829" lon="30.6856513023"><time>2026-09-01T12:30:30Z</time></trkpt><trkpt lat="59.2564129829" lon="30.6857156754"><time>2026-09-01T12:30:33Z</time></trkpt><trkpt lat="59.2564344406" lon="30.6857371330"><time>2026-09-01T12:30:35Z</time></trkpt><trkpt lat="59.2564344406" lon="30.6857371330"><time>2026-09-01T12:30:38Z</time></trkpt><trkpt lat="59.2564344406" lon="30.6857585907"><time>2026-09-01T12:30:40Z</time></trkpt><trkpt lat="59.2564344406" lon="30.6858015060"><time>2026-09-01T12:30:43Z</time></trkpt><trkpt lat="59.2564773560" lon="30.6859087944"><time>2026-09-01T12:30:45Z</time></trkpt><trkpt lat="59.2564988136" lon="30.6859731674"><time>2026-09-01T12:30:48Z</time></trkpt><trkpt lat="59.2564988136" lon="30.6859517097"><time>2026-09-01T12:30:50Z</time></trkpt><trkpt lat="59.2564988136" lon="30.6859517097"><time>2026-09-01T12:30:53Z</time></trkpt><trkpt lat="59.2564988136" lon="30.6859517097"><time>2026-09-01T12:30:55Z</time></trkpt><trkpt lat="59.2564988136" lon="30.6859517097"><time>2026-09-01T12:30:58Z</time></trkpt><trkpt lat="59.2564988136" lon="30.6859517097"><time>2026-09-01T12:31:00Z</time></trkpt><trkpt lat="59.2565202713" lon="30.6860375404"><time>2026-09-01T12:31:03Z</time></trkpt><trkpt lat="59.2565631866" lon="30.6861662865"><time>2026-09-01T12:31:05Z</time></trkpt><trkpt lat="59.2565846443" lon="30.6862521172"><time>2026-09-01T12:31:08Z</time></trkpt><trkpt lat="59.2566061020" lon="30.6863379478"><time>2026-09-01T12:31:10Z</time></trkpt><trkpt lat="59.2566061020" lon="30.6863379478"><time>2026-09-01T12:31:13Z</time></trkpt><trkpt lat="59.2566061020" lon="30.6863379478"><time>2026-09-01T12:31:15Z</time></trkpt><trkpt lat="59.2566061020" lon="30.6863379478"><time>2026-09-01T12:31:18Z</time></trkpt><trkpt lat="59.2566061020" lon="30.6863594055"><time>2026-09-01T12:31:20Z</time></trkpt><trkpt lat="59.2566275597" lon="30.6864237785"><time>2026-09-01T12:31:23Z</time></trkpt><trkpt lat="59.2566919327" lon="30.6865310669"><time>2026-09-01T12:31:25Z</time></trkpt><trkpt lat="59.2567133904" lon="30.6866383553"><time>2026-09-01T12:31:28Z</time></trkpt><trkpt lat="59.2567563057" lon="30.6867456436"><time>2026-09-01T12:31:30Z</time></trkpt><trkpt lat="59.2567777634" lon="30.6867885590"><time>2026-09-01T12:31:33Z</time></trkpt><trkpt lat="59.2567992210" lon="30.6868743896"><time>2026-09-01T12:31:35Z</time></trkpt><trkpt lat="59.2567992210" lon="30.6869173050"><time>2026-09-01T12:31:38Z</time></trkpt><trkpt lat="59.2568206787" lon="30.6869387627"><time>2026-09-01T12:31:40Z</time></trkpt><trkpt lat="59.2568206787" lon="30.6869387627"><time>2026-09-01T12:31:43Z</time></trkpt><trkpt lat="59.2568206787" lon="30.6869387627"><time>2026-09-01T12:31:45Z</time></trkpt><trkpt lat="59.2568421364" lon="30.6869816780"><time>2026-09-01T12:31:48Z</time></trkpt><trkpt lat="59.2568421364" lon="30.6870245934"><time>2026-09-01T12:31:50Z</time></trkpt><trkpt lat="59.2568635941" lon="30.6870675087"><time>2026-09-01T12:31:53Z</time></trkpt><trkpt lat="59.2569065094" lon="30.6871747971"><time>2026-09-01T12:31:55Z</time></trkpt><trkpt lat="59.2569065094" lon="30.6872391701"><time>2026-09-01T12:31:58Z</time></trkpt><trkpt lat="59.2569065094" lon="30.6872606277"><time>2026-09-01T12:32:00Z</time></trkpt><trkpt lat="59.2569279671" lon="30.6873035431"><time>2026-09-01T12:32:03Z</time></trkpt><trkpt lat="59.2569494247" lon="30.6873679161"><time>2026-09-01T12:32:05Z</time></trkpt><trkpt lat="59.2569494247" lon="30.6873893738"><time>2026-09-01T12:32:08Z</time></trkpt><trkpt lat="59.2569494247" lon="30.6873893738"><time>2026-09-01T12:32:10Z</time></trkpt><trkpt lat="59.2569494247" lon="30.6873893738"><time>2026-09-01T12:32:13Z</time></trkpt><trkpt lat="59.2569494247" lon="30.6874108315"><time>2026-09-01T12:32:15Z</time></trkpt><trkpt lat="59.2569708824" lon="30.6874322891"><time>2026-09-01T12:32:18Z</time></trkpt><trkpt lat="59.2569494247" lon="30.6874108315"><time>2026-09-01T12:32:20Z</time></trkpt><trkpt lat="59.2569494247" lon="30.6874108315"><time>2026-09-01T12:32:23Z</time></trkpt><trkpt lat="59.2569494247" lon="30.6874108315"><time>2026-09-01T12:32:25Z</time></trkpt><trkpt lat="59.2569708824" lon="30.6874322891"><time>2026-09-01T12:32:28Z</time></trkpt><trkpt lat="59.2570137978" lon="30.6874966621"><time>2026-09-01T12:32:30Z</time></trkpt><trkpt lat="59.2570352554" lon="30.6875395775"><time>2026-09-01T12:32:33Z</time></trkpt><trkpt lat="59.2570567131" lon="30.6875610352"><time>2026-09-01T12:32:35Z</time></trkpt><trkpt lat="59.2570352554" lon="30.6874752045"><time>2026-09-01T12:32:38Z</time></trkpt><trkpt lat="59.2570352554" lon="30.6874537468"><time>2026-09-01T12:32:40Z</time></trkpt><trkpt lat="59.2570352554" lon="30.6874537468"><time>2026-09-01T12:32:43Z</time></trkpt><trkpt lat="59.2570352554" lon="30.6874537468"><time>2026-09-01T12:32:45Z</time></trkpt><trkpt lat="59.2570352554" lon="30.6874537468"><time>2026-09-01T12:32:48Z</time></trkpt><trkpt lat="59.2570352554" lon="30.6874537468"><time>2026-09-01T12:32:50Z</time></trkpt><trkpt lat="59.2570352554" lon="30.6874537468"><time>2026-09-01T12:32:53Z</time></trkpt><trkpt lat="59.2570352554" lon="30.6874537468"><time>2026-09-01T12:32:55Z</time></trkpt><trkpt lat="59.2570352554" lon="30.6874537468"><time>2026-09-01T12:32:58Z</time></trkpt><trkpt lat="59.2570352554" lon="30.6874537468"><time>2026-09-01T12:33:00Z</time></trkpt><trkpt lat="59.2570352554" lon="30.6874537468"><time>2026-09-01T12:33:03Z</time></trkpt><trkpt lat="59.2570352554" lon="30.6874537468"><time>2026-09-01T12:33:05Z</time></trkpt><trkpt lat="59.2570352554" lon="30.6874537468"><time>2026-09-01T12:33:08Z</time></trkpt><trkpt lat="59.2570352554" lon="30.6874537468"><time>2026-09-01T12:33:10Z</time></trkpt><trkpt lat="59.2570352554" lon="30.6874537468"><time>2026-09-01T12:33:13Z</time></trkpt><trkpt lat="59.2570352554" lon="30.6874537468"><time>2026-09-01T12:33:15Z</time></trkpt><trkpt lat="59.2570352554" lon="30.6874537468"><time>2026-09-01T12:33:18Z</time></trkpt><trkpt lat="59.2570352554" lon="30.6874537468"><time>2026-09-01T12:33:20Z</time></trkpt><trkpt lat="59.2570352554" lon="30.6874537468"><time>2026-09-01T12:33:23Z</time></trkpt><trkpt lat="59.2570352554" lon="30.6874537468"><time>2026-09-01T12:33:25Z</time></trkpt><trkpt lat="59.2570352554" lon="30.6874537468"><time>2026-09-01T12:33:28Z</time></trkpt><trkpt lat="59.2570352554" lon="30.6874537468"><time>2026-09-01T12:33:30Z</time></trkpt><trkpt lat="59.2570352554" lon="30.6874537468"><time>2026-09-01T12:33:33Z</time></trkpt><trkpt lat="59.2570352554" lon="30.6874537468"><time>2026-09-01T12:33:35Z</time></trkpt><trkpt lat="59.2570352554" lon="30.6874537468"><time>2026-09-01T12:33:38Z</time></trkpt><trkpt lat="59.2570352554" lon="30.6874537468"><time>2026-09-01T12:33:40Z</time></trkpt><trkpt lat="59.2570352554" lon="30.6874537468"><time>2026-09-01T12:33:43Z</time></trkpt><trkpt lat="59.2570352554" lon="30.6874537468"><time>2026-09-01T12:33:45Z</time></trkpt><trkpt lat="59.2570352554" lon="30.6874537468"><time>2026-09-01T12:33:48Z</time></trkpt><trkpt lat="59.2570352554" lon="30.6874537468"><time>2026-09-01T12:33:50Z</time></trkpt><trkpt lat="59.2570352554" lon="30.6874537468"><time>2026-09-01T12:33:53Z</time></trkpt><trkpt lat="59.2570352554" lon="30.6874537468"><time>2026-09-01T12:33:55Z</time></trkpt><trkpt lat="59.2570352554" lon="30.6874537468"><time>2026-09-01T12:33:58Z</time></trkpt><trkpt lat="59.2570352554" lon="30.6874537468"><time>2026-09-01T12:34:00Z</time></trkpt><trkpt lat="59.2570352554" lon="30.6874537468"><time>2026-09-01T12:34:03Z</time></trkpt><trkpt lat="59.2570352554" lon="30.6874537468"><time>2026-09-01T12:34:05Z</time></trkpt><trkpt lat="59.2570352554" lon="30.6874537468"><time>2026-09-01T12:34:08Z</time></trkpt><trkpt lat="59.2570352554" lon="30.6874537468"><time>2026-09-01T12:34:10Z</time></trkpt><trkpt lat="59.2570352554" lon="30.6874537468"><time>2026-09-01T12:34:13Z</time></trkpt><trkpt lat="59.2570352554" lon="30.6874537468"><time>2026-09-01T12:34:15Z</time></trkpt><trkpt lat="59.2570352554" lon="30.6874537468"><time>2026-09-01T12:34:18Z</time></trkpt><trkpt lat="59.2570352554" lon="30.6874537468"><time>2026-09-01T12:34:20Z</time></trkpt><trkpt lat="59.2570352554" lon="30.6874537468"><time>2026-09-01T12:34:23Z</time></trkpt><trkpt lat="59.2570352554" lon="30.6874537468"><time>2026-09-01T12:34:25Z</time></trkpt><trkpt lat="59.2570352554" lon="30.6874537468"><time>2026-09-01T12:34:28Z</time></trkpt><trkpt lat="59.2570352554" lon="30.6874537468"><time>2026-09-01T12:34:30Z</time></trkpt><trkpt lat="59.2570352554" lon="30.6874537468"><time>2026-09-01T12:34:33Z</time></trkpt><trkpt lat="59.2570352554" lon="30.6874537468"><time>2026-09-01T12:34:35Z</time></trkpt><trkpt lat="59.2570352554" lon="30.6874537468"><time>2026-09-01T12:34:38Z</time></trkpt><trkpt lat="59.2570352554" lon="30.6874537468"><time>2026-09-01T12:34:40Z</time></trkpt><trkpt lat="59.2570352554" lon="30.6874537468"><time>2026-09-01T12:34:43Z</time></trkpt><trkpt lat="59.2570352554" lon="30.6874537468"><time>2026-09-01T12:34:45Z</time></trkpt><trkpt lat="59.2570352554" lon="30.6874537468"><time>2026-09-01T12:34:48Z</time></trkpt><trkpt lat="59.2570352554" lon="30.6874537468"><time>2026-09-01T12:34:50Z</time></trkpt><trkpt lat="59.2570352554" lon="30.6874537468"><time>2026-09-01T12:34:53Z</time></trkpt><trkpt lat="59.2570352554" lon="30.6874537468"><time>2026-09-01T12:34:55Z</time></trkpt><trkpt lat="59.2570352554" lon="30.6874537468"><time>2026-09-01T12:34:58Z</time></trkpt><trkpt lat="59.2570352554" lon="30.6874537468"><time>2026-09-01T12:35:00Z</time></trkpt><trkpt lat="59.2570352554" lon="30.6874537468"><time>2026-09-01T12:35:03Z</time></trkpt><trkpt lat="59.2570352554" lon="30.6874537468"><time>2026-09-01T12:35:05Z</time></trkpt><trkpt lat="59.2570352554" lon="30.6874537468"><time>2026-09-01T12:35:08Z</time></trkpt><trkpt lat="59.2570352554" lon="30.6874537468"><time>2026-09-01T12:35:10Z</time></trkpt><trkpt lat="59.2570352554" lon="30.6874537468"><time>2026-09-01T12:35:13Z</time></trkpt><trkpt lat="59.2570352554" lon="30.6874537468"><time>2026-09-01T12:35:15Z</time></trkpt><trkpt lat="59.2570352554" lon="30.6874537468"><time>2026-09-01T12:35:18Z</time></trkpt><trkpt lat="59.2570352554" lon="30.6874537468"><time>2026-09-01T12:35:20Z</time></trkpt><trkpt lat="59.2570352554" lon="30.6874322891"><time>2026-09-01T12:35:23Z</time></trkpt><trkpt lat="59.2570567131" lon="30.6874752045"><time>2026-09-01T12:35:25Z</time></trkpt><trkpt lat="59.2570781708" lon="30.6874537468"><time>2026-09-01T12:35:28Z</time></trkpt><trkpt lat="59.2571425438" lon="30.6874108315"><time>2026-09-01T12:35:30Z</time></trkpt><trkpt lat="59.2571640015" lon="30.6873679161"><time>2026-09-01T12:35:33Z</time></trkpt><trkpt lat="59.2571854591" lon="30.6873250008"><time>2026-09-01T12:35:35Z</time></trkpt><trkpt lat="59.2571854591" lon="30.6873250008"><time>2026-09-01T12:35:38Z</time></trkpt><trkpt lat="59.2572069168" lon="30.6872391701"><time>2026-09-01T12:35:40Z</time></trkpt><trkpt lat="59.2572069168" lon="30.6871962547"><time>2026-09-01T12:35:43Z</time></trkpt><trkpt lat="59.2571854591" lon="30.6871962547"><time>2026-09-01T12:35:45Z</time></trkpt><trkpt lat="59.2571640015" lon="30.6871533394"><time>2026-09-01T12:35:48Z</time></trkpt><trkpt lat="59.2571425438" lon="30.6871318817"><time>2026-09-01T12:35:50Z</time></trkpt><trkpt lat="59.2571640015" lon="30.6871747971"><time>2026-09-01T12:35:53Z</time></trkpt><trkpt lat="59.2571425438" lon="30.6872177124"><time>2026-09-01T12:35:55Z</time></trkpt><trkpt lat="59.2571210861" lon="30.6872606277"><time>2026-09-01T12:35:58Z</time></trkpt><trkpt lat="59.2571210861" lon="30.6872820854"><time>2026-09-01T12:36:00Z</time></trkpt><trkpt lat="59.2570996284" lon="30.6873250008"><time>2026-09-01T12:36:03Z</time></trkpt><trkpt lat="59.2571210861" lon="30.6873893738"><time>2026-09-01T12:36:05Z</time></trkpt><trkpt lat="59.2571425438" lon="30.6874322891"><time>2026-09-01T12:36:08Z</time></trkpt><trkpt lat="59.2571854591" lon="30.6874108315"><time>2026-09-01T12:36:10Z</time></trkpt><trkpt lat="59.2571854591" lon="30.6873679161"><time>2026-09-01T12:36:13Z</time></trkpt><trkpt lat="59.2572069168" lon="30.6872820854"><time>2026-09-01T12:36:15Z</time></trkpt><trkpt lat="59.2572069168" lon="30.6872177124"><time>2026-09-01T12:36:18Z</time></trkpt><trkpt lat="59.2571640015" lon="30.6871533394"><time>2026-09-01T12:36:20Z</time></trkpt><trkpt lat="59.2571425438" lon="30.6871318817"><time>2026-09-01T12:36:23Z</time></trkpt><trkpt lat="59.2571210861" lon="30.6871533394"><time>2026-09-01T12:36:25Z</time></trkpt><trkpt lat="59.2571425438" lon="30.6871962547"><time>2026-09-01T12:36:28Z</time></trkpt><trkpt lat="59.2571425438" lon="30.6872820854"><time>2026-09-01T12:36:30Z</time></trkpt><trkpt lat="59.2570996284" lon="30.6873035431"><time>2026-09-01T12:36:33Z</time></trkpt><trkpt lat="59.2570567131" lon="30.6873464584"><time>2026-09-01T12:36:35Z</time></trkpt><trkpt lat="59.2570781708" lon="30.6873893738"><time>2026-09-01T12:36:38Z</time></trkpt><trkpt lat="59.2571640015" lon="30.6873893738"><time>2026-09-01T12:36:40Z</time></trkpt><trkpt lat="59.2572069168" lon="30.6873893738"><time>2026-09-01T12:36:43Z</time></trkpt><trkpt lat="59.2572283745" lon="30.6873679161"><time>2026-09-01T12:36:45Z</time></trkpt><trkpt lat="59.2572069168" lon="30.6873035431"><time>2026-09-01T12:36:48Z</time></trkpt><trkpt lat="59.2571425438" lon="30.6873464584"><time>2026-09-01T12:36:50Z</time></trkpt><trkpt lat="59.2570996284" lon="30.6873464584"><time>2026-09-01T12:36:53Z</time></trkpt><trkpt lat="59.2570781708" lon="30.6874108315"><time>2026-09-01T12:36:55Z</time></trkpt><trkpt lat="59.2570996284" lon="30.6874537468"><time>2026-09-01T12:36:58Z</time></trkpt><trkpt lat="59.2571425438" lon="30.6874537468"><time>2026-09-01T12:37:00Z</time></trkpt><trkpt lat="59.2571854591" lon="30.6874108315"><time>2026-09-01T12:37:03Z</time></trkpt><trkpt lat="59.2571854591" lon="30.6873035431"><time>2026-09-01T12:37:05Z</time></trkpt><trkpt lat="59.2571854591" lon="30.6872606277"><time>2026-09-01T12:37:08Z</time></trkpt><trkpt lat="59.2571640015" lon="30.6872606277"><time>2026-09-01T12:37:10Z</time></trkpt><trkpt lat="59.2571640015" lon="30.6872606277"><time>2026-09-01T12:37:13Z</time></trkpt><trkpt lat="59.2571640015" lon="30.6872606277"><time>2026-09-01T12:37:15Z</time></trkpt><trkpt lat="59.2571640015" lon="30.6872606277"><time>2026-09-01T12:37:18Z</time></trkpt><trkpt lat="59.2571425438" lon="30.6872606277"><time>2026-09-01T12:37:20Z</time></trkpt><trkpt lat="59.2571640015" lon="30.6873035431"><time>2026-09-01T12:37:23Z</time></trkpt><trkpt lat="59.2571854591" lon="30.6872606277"><time>2026-09-01T12:37:25Z</time></trkpt><trkpt lat="59.2571640015" lon="30.6872391701"><time>2026-09-01T12:37:28Z</time></trkpt><trkpt lat="59.2570996284" lon="30.6872391701"><time>2026-09-01T12:37:30Z</time></trkpt><trkpt lat="59.2570567131" lon="30.6871747971"><time>2026-09-01T12:37:33Z</time></trkpt><trkpt lat="59.2570137978" lon="30.6871104240"><time>2026-09-01T12:37:35Z</time></trkpt><trkpt lat="59.2569923401" lon="30.6871533394"><time>2026-09-01T12:37:38Z</time></trkpt><trkpt lat="59.2569923401" lon="30.6871747971"><time>2026-09-01T12:37:40Z</time></trkpt><trkpt lat="59.2570137978" lon="30.6871747971"><time>2026-09-01T12:37:43Z</time></trkpt><trkpt lat="59.2570352554" lon="30.6871747971"><time>2026-09-01T12:37:45Z</time></trkpt><trkpt lat="59.2570352554" lon="30.6871747971"><time>2026-09-01T12:37:48Z</time></trkpt><trkpt lat="59.2570781708" lon="30.6871747971"><time>2026-09-01T12:37:50Z</time></trkpt><trkpt lat="59.2571210861" lon="30.6871533394"><time>2026-09-01T12:37:53Z</time></trkpt><trkpt lat="59.2571210861" lon="30.6871533394"><time>2026-09-01T12:37:55Z</time></trkpt><trkpt lat="59.2571210861" lon="30.6871533394"><time>2026-09-01T12:37:58Z</time></trkpt><trkpt lat="59.2571210861" lon="30.6871533394"><time>2026-09-01T12:38:00Z</time></trkpt><trkpt lat="59.2571210861" lon="30.6870889664"><time>2026-09-01T12:38:03Z</time></trkpt><trkpt lat="59.2571210861" lon="30.6870245934"><time>2026-09-01T12:38:05Z</time></trkpt><trkpt lat="59.2571425438" lon="30.6869173050"><time>2026-09-01T12:38:08Z</time></trkpt><trkpt lat="59.2571425438" lon="30.6868529320"><time>2026-09-01T12:38:10Z</time></trkpt><trkpt lat="59.2571210861" lon="30.6868100166"><time>2026-09-01T12:38:13Z</time></trkpt><trkpt lat="59.2571210861" lon="30.6868100166"><time>2026-09-01T12:38:15Z</time></trkpt><trkpt lat="59.2571210861" lon="30.6868743896"><time>2026-09-01T12:38:18Z</time></trkpt><trkpt lat="59.2571425438" lon="30.6868743896"><time>2026-09-01T12:38:20Z</time></trkpt><trkpt lat="59.2571640015" lon="30.6868743896"><time>2026-09-01T12:38:23Z</time></trkpt><trkpt lat="59.2571640015" lon="30.6868743896"><time>2026-09-01T12:38:25Z</time></trkpt><trkpt lat="59.2571854591" lon="30.6868100166"><time>2026-09-01T12:38:28Z</time></trkpt><trkpt lat="59.2572283745" lon="30.6867241859"><time>2026-09-01T12:38:30Z</time></trkpt><trkpt lat="59.2572283745" lon="30.6866598129"><time>2026-09-01T12:38:33Z</time></trkpt><trkpt lat="59.2572712898" lon="30.6865739822"><time>2026-09-01T12:38:35Z</time></trkpt><trkpt lat="59.2572712898" lon="30.6865096092"><time>2026-09-01T12:38:38Z</time></trkpt><trkpt lat="59.2572712898" lon="30.6864023209"><time>2026-09-01T12:38:40Z</time></trkpt><trkpt lat="59.2572712898" lon="30.6863808632"><time>2026-09-01T12:38:43Z</time></trkpt><trkpt lat="59.2572283745" lon="30.6863594055"><time>2026-09-01T12:38:45Z</time></trkpt><trkpt lat="59.2572283745" lon="30.6863594055"><time>2026-09-01T12:38:48Z</time></trkpt><trkpt lat="59.2572069168" lon="30.6863808632"><time>2026-09-01T12:38:50Z</time></trkpt><trkpt lat="59.2572069168" lon="30.6864023209"><time>2026-09-01T12:38:53Z</time></trkpt><trkpt lat="59.2572069168" lon="30.6864023209"><time>2026-09-01T12:38:55Z</time></trkpt><trkpt lat="59.2572069168" lon="30.6864023209"><time>2026-09-01T12:38:58Z</time></trkpt><trkpt lat="59.2572069168" lon="30.6864023209"><time>2026-09-01T12:39:00Z</time></trkpt><trkpt lat="59.2572069168" lon="30.6864023209"><time>2026-09-01T12:39:03Z</time></trkpt><trkpt lat="59.2572069168" lon="30.6864023209"><time>2026-09-01T12:39:05Z</time></trkpt><trkpt lat="59.2572069168" lon="30.6864023209"><time>2026-09-01T12:39:08Z</time></trkpt><trkpt lat="59.2572069168" lon="30.6864023209"><time>2026-09-01T12:39:10Z</time></trkpt><trkpt lat="59.2572283745" lon="30.6864023209"><time>2026-09-01T12:39:13Z</time></trkpt><trkpt lat="59.2572283745" lon="30.6863379478"><time>2026-09-01T12:39:15Z</time></trkpt><trkpt lat="59.2572498322" lon="30.6863379478"><time>2026-09-01T12:39:18Z</time></trkpt><trkpt lat="59.2572712898" lon="30.6863808632"><time>2026-09-01T12:39:20Z</time></trkpt><trkpt lat="59.2572712898" lon="30.6863808632"><time>2026-09-01T12:39:23Z</time></trkpt><trkpt lat="59.2573142052" lon="30.6863594055"><time>2026-09-01T12:39:25Z</time></trkpt><trkpt lat="59.2573356628" lon="30.6862735748"><time>2026-09-01T12:39:28Z</time></trkpt><trkpt lat="59.2574000359" lon="30.6862092018"><time>2026-09-01T12:39:30Z</time></trkpt><trkpt lat="59.2574214935" lon="30.6861877441"><time>2026-09-01T12:39:33Z</time></trkpt><trkpt lat="59.2574429512" lon="30.6862306595"><time>2026-09-01T12:39:35Z</time></trkpt><trkpt lat="59.2574429512" lon="30.6862306595"><time>2026-09-01T12:39:38Z</time></trkpt><trkpt lat="59.2574644089" lon="30.6862735748"><time>2026-09-01T12:39:40Z</time></trkpt><trkpt lat="59.2575073242" lon="30.6863379478"><time>2026-09-01T12:39:43Z</time></trkpt><trkpt lat="59.2575502396" lon="30.6864452362"><time>2026-09-01T12:39:45Z</time></trkpt><trkpt lat="59.2575716972" lon="30.6864666939"><time>2026-09-01T12:39:48Z</time></trkpt><trkpt lat="59.2575716972" lon="30.6864023209"><time>2026-09-01T12:39:50Z</time></trkpt><trkpt lat="59.2575716972" lon="30.6864023209"><time>2026-09-01T12:39:53Z</time></trkpt><trkpt lat="59.2576146126" lon="30.6864452362"><time>2026-09-01T12:39:55Z</time></trkpt><trkpt lat="59.2576575279" lon="30.6864452362"><time>2026-09-01T12:39:58Z</time></trkpt><trkpt lat="59.2577004433" lon="30.6864237785"><time>2026-09-01T12:40:00Z</time></trkpt><trkpt lat="59.2577219009" lon="30.6863594055"><time>2026-09-01T12:40:03Z</time></trkpt><trkpt lat="59.2577433586" lon="30.6863808632"><time>2026-09-01T12:40:05Z</time></trkpt><trkpt lat="59.2577648163" lon="30.6863808632"><time>2026-09-01T12:40:08Z</time></trkpt><trkpt lat="59.2577862740" lon="30.6863808632"><time>2026-09-01T12:40:10Z</time></trkpt><trkpt lat="59.2577862740" lon="30.6863808632"><time>2026-09-01T12:40:13Z</time></trkpt><trkpt lat="59.2577648163" lon="30.6863164902"><time>2026-09-01T12:40:15Z</time></trkpt><trkpt lat="59.2577433586" lon="30.6862950325"><time>2026-09-01T12:40:18Z</time></trkpt><trkpt lat="59.2576789856" lon="30.6862735748"><time>2026-09-01T12:40:20Z</time></trkpt><trkpt lat="59.2577004433" lon="30.6862735748"><time>2026-09-01T12:40:25Z</time></trkpt><trkpt lat="59.2577219009" lon="30.6862521172"><time>2026-09-01T12:40:28Z</time></trkpt><trkpt lat="59.2577433586" lon="30.6861877441"><time>2026-09-01T12:40:30Z</time></trkpt><trkpt lat="59.2577433586" lon="30.6861662865"><time>2026-09-01T12:40:33Z</time></trkpt><trkpt lat="59.2577648163" lon="30.6860804558"><time>2026-09-01T12:40:35Z</time></trkpt><trkpt lat="59.2577862740" lon="30.6860160828"><time>2026-09-01T12:40:38Z</time></trkpt><trkpt lat="59.2577862740" lon="30.6859946251"><time>2026-09-01T12:40:40Z</time></trkpt><trkpt lat="59.2577648163" lon="30.6859087944"><time>2026-09-01T12:40:43Z</time></trkpt><trkpt lat="59.2577433586" lon="30.6858444214"><time>2026-09-01T12:40:45Z</time></trkpt><trkpt lat="59.2577219009" lon="30.6858229637"><time>2026-09-01T12:40:48Z</time></trkpt><trkpt lat="59.2577433586" lon="30.6858444214"><time>2026-09-01T12:40:50Z</time></trkpt><trkpt lat="59.2577433586" lon="30.6858444214"><time>2026-09-01T12:40:53Z</time></trkpt><trkpt lat="59.2577433586" lon="30.6858444214"><time>2026-09-01T12:40:55Z</time></trkpt><trkpt lat="59.2577433586" lon="30.6858444214"><time>2026-09-01T12:40:58Z</time></trkpt><trkpt lat="59.2577433586" lon="30.6858229637"><time>2026-09-01T12:41:00Z</time></trkpt><trkpt lat="59.2577648163" lon="30.6858015060"><time>2026-09-01T12:41:03Z</time></trkpt><trkpt lat="59.2578077316" lon="30.6857156754"><time>2026-09-01T12:41:05Z</time></trkpt><trkpt lat="59.2578291893" lon="30.6856942177"><time>2026-09-01T12:41:08Z</time></trkpt><trkpt lat="59.2578291893" lon="30.6856298447"><time>2026-09-01T12:41:10Z</time></trkpt><trkpt lat="59.2578291893" lon="30.6856083870"><time>2026-09-01T12:41:13Z</time></trkpt><trkpt lat="59.2578077316" lon="30.6855869293"><time>2026-09-01T12:41:15Z</time></trkpt><trkpt lat="59.2578077316" lon="30.6855654716"><time>2026-09-01T12:41:18Z</time></trkpt><trkpt lat="59.2578077316" lon="30.6855654716"><time>2026-09-01T12:41:20Z</time></trkpt><trkpt lat="59.2578077316" lon="30.6855654716"><time>2026-09-01T12:41:23Z</time></trkpt><trkpt lat="59.2578077316" lon="30.6855654716"><time>2026-09-01T12:41:25Z</time></trkpt><trkpt lat="59.2578077316" lon="30.6855440140"><time>2026-09-01T12:41:28Z</time></trkpt><trkpt lat="59.2578077316" lon="30.6855010986"><time>2026-09-01T12:41:30Z</time></trkpt><trkpt lat="59.2578077316" lon="30.6855010986"><time>2026-09-01T12:41:33Z</time></trkpt><trkpt lat="59.2578077316" lon="30.6854367256"><time>2026-09-01T12:41:35Z</time></trkpt><trkpt lat="59.2578077316" lon="30.6854152679"><time>2026-09-01T12:41:38Z</time></trkpt><trkpt lat="59.2578077316" lon="30.6853723526"><time>2026-09-01T12:41:40Z</time></trkpt><trkpt lat="59.2578077316" lon="30.6853723526"><time>2026-09-01T12:41:43Z</time></trkpt><trkpt lat="59.2578077316" lon="30.6853294373"><time>2026-09-01T12:41:45Z</time></trkpt><trkpt lat="59.2578291893" lon="30.6852865219"><time>2026-09-01T12:41:48Z</time></trkpt><trkpt lat="59.2578291893" lon="30.6852221489"><time>2026-09-01T12:41:50Z</time></trkpt><trkpt lat="59.2578291893" lon="30.6852221489"><time>2026-09-01T12:41:53Z</time></trkpt><trkpt lat="59.2578291893" lon="30.6852436066"><time>2026-09-01T12:41:55Z</time></trkpt><trkpt lat="59.2578291893" lon="30.6852436066"><time>2026-09-01T12:41:58Z</time></trkpt><trkpt lat="59.2578291893" lon="30.6852436066"><time>2026-09-01T12:42:00Z</time></trkpt><trkpt lat="59.2578291893" lon="30.6852436066"><time>2026-09-01T12:42:03Z</time></trkpt><trkpt lat="59.2578291893" lon="30.6852436066"><time>2026-09-01T12:42:05Z</time></trkpt><trkpt lat="59.2578506470" lon="30.6852436066"><time>2026-09-01T12:42:08Z</time></trkpt><trkpt lat="59.2578721046" lon="30.6852006912"><time>2026-09-01T12:42:10Z</time></trkpt><trkpt lat="59.2578935623" lon="30.6851792336"><time>2026-09-01T12:42:13Z</time></trkpt><trkpt lat="59.2579364777" lon="30.6851792336"><time>2026-09-01T12:42:15Z</time></trkpt><trkpt lat="59.2579579353" lon="30.6852006912"><time>2026-09-01T12:42:18Z</time></trkpt><trkpt lat="59.2579793930" lon="30.6851792336"><time>2026-09-01T12:42:20Z</time></trkpt><trkpt lat="59.2579793930" lon="30.6851792336"><time>2026-09-01T12:42:23Z</time></trkpt><trkpt lat="59.2579793930" lon="30.6851792336"><time>2026-09-01T12:42:25Z</time></trkpt><trkpt lat="59.2579793930" lon="30.6851577759"><time>2026-09-01T12:42:28Z</time></trkpt><trkpt lat="59.2580008507" lon="30.6851577759"><time>2026-09-01T12:42:30Z</time></trkpt><trkpt lat="59.2580008507" lon="30.6851577759"><time>2026-09-01T12:42:33Z</time></trkpt><trkpt lat="59.2580008507" lon="30.6851577759"><time>2026-09-01T12:42:35Z</time></trkpt><trkpt lat="59.2580008507" lon="30.6851577759"><time>2026-09-01T12:42:38Z</time></trkpt><trkpt lat="59.2580008507" lon="30.6851577759"><time>2026-09-01T12:42:40Z</time></trkpt><trkpt lat="59.2580008507" lon="30.6851577759"><time>2026-09-01T12:42:43Z</time></trkpt><trkpt lat="59.2580008507" lon="30.6851577759"><time>2026-09-01T12:42:45Z</time></trkpt><trkpt lat="59.2580008507" lon="30.6851577759"><time>2026-09-01T12:42:48Z</time></trkpt><trkpt lat="59.2580008507" lon="30.6851577759"><time>2026-09-01T12:42:50Z</time></trkpt><trkpt lat="59.2580437660" lon="30.6851363182"><time>2026-09-01T12:42:53Z</time></trkpt><trkpt lat="59.2580437660" lon="30.6850934029"><time>2026-09-01T12:42:55Z</time></trkpt><trkpt lat="59.2580437660" lon="30.6851148605"><time>2026-09-01T12:42:58Z</time></trkpt><trkpt lat="59.2580437660" lon="30.6851148605"><time>2026-09-01T12:43:00Z</time></trkpt><trkpt lat="59.2580652237" lon="30.6851148605"><time>2026-09-01T12:43:03Z</time></trkpt><trkpt lat="59.2580866814" lon="30.6851148605"><time>2026-09-01T12:43:05Z</time></trkpt><trkpt lat="59.2580866814" lon="30.6851148605"><time>2026-09-01T12:43:08Z</time></trkpt><trkpt lat="59.2580866814" lon="30.6851148605"><time>2026-09-01T12:43:10Z</time></trkpt><trkpt lat="59.2580866814" lon="30.6851148605"><time>2026-09-01T12:43:13Z</time></trkpt><trkpt lat="59.2581081390" lon="30.6851363182"><time>2026-09-01T12:43:15Z</time></trkpt><trkpt lat="59.2581510544" lon="30.6851577759"><time>2026-09-01T12:43:18Z</time></trkpt><trkpt lat="59.2581939697" lon="30.6851792336"><time>2026-09-01T12:43:20Z</time></trkpt><trkpt lat="59.2582154274" lon="30.6851792336"><time>2026-09-01T12:43:23Z</time></trkpt><trkpt lat="59.2582154274" lon="30.6851792336"><time>2026-09-01T12:43:25Z</time></trkpt><trkpt lat="59.2582154274" lon="30.6851577759"><time>2026-09-01T12:43:28Z</time></trkpt><trkpt lat="59.2582154274" lon="30.6851363182"><time>2026-09-01T12:43:30Z</time></trkpt><trkpt lat="59.2582154274" lon="30.6851363182"><time>2026-09-01T12:43:33Z</time></trkpt><trkpt lat="59.2582154274" lon="30.6851363182"><time>2026-09-01T12:43:35Z</time></trkpt><trkpt lat="59.2582154274" lon="30.6851363182"><time>2026-09-01T12:43:38Z</time></trkpt><trkpt lat="59.2582154274" lon="30.6851363182"><time>2026-09-01T12:43:40Z</time></trkpt><trkpt lat="59.2582154274" lon="30.6851363182"><time>2026-09-01T12:43:43Z</time></trkpt><trkpt lat="59.2582154274" lon="30.6851363182"><time>2026-09-01T12:43:45Z</time></trkpt><trkpt lat="59.2582154274" lon="30.6851363182"><time>2026-09-01T12:43:48Z</time></trkpt><trkpt lat="59.2582154274" lon="30.6851363182"><time>2026-09-01T12:43:50Z</time></trkpt><trkpt lat="59.2582154274" lon="30.6851363182"><time>2026-09-01T12:43:53Z</time></trkpt><trkpt lat="59.2582154274" lon="30.6851363182"><time>2026-09-01T12:43:55Z</time></trkpt><trkpt lat="59.2582154274" lon="30.6851363182"><time>2026-09-01T12:43:58Z</time></trkpt><trkpt lat="59.2582154274" lon="30.6851363182"><time>2026-09-01T12:44:00Z</time></trkpt><trkpt lat="59.2582154274" lon="30.6851363182"><time>2026-09-01T12:44:03Z</time></trkpt><trkpt lat="59.2582154274" lon="30.6851363182"><time>2026-09-01T12:44:05Z</time></trkpt><trkpt lat="59.2582154274" lon="30.6851363182"><time>2026-09-01T12:44:08Z</time></trkpt><trkpt lat="59.2582154274" lon="30.6851363182"><time>2026-09-01T12:44:10Z</time></trkpt><trkpt lat="59.2582154274" lon="30.6851363182"><time>2026-09-01T12:44:13Z</time></trkpt><trkpt lat="59.2582154274" lon="30.6851363182"><time>2026-09-01T12:44:15Z</time></trkpt><trkpt lat="59.2582154274" lon="30.6851363182"><time>2026-09-01T12:44:18Z</time></trkpt><trkpt lat="59.2582154274" lon="30.6851363182"><time>2026-09-01T12:44:20Z</time></trkpt><trkpt lat="59.2582154274" lon="30.6851363182"><time>2026-09-01T12:44:23Z</time></trkpt><trkpt lat="59.2582154274" lon="30.6851363182"><time>2026-09-01T12:44:25Z</time></trkpt><trkpt lat="59.2582154274" lon="30.6851363182"><time>2026-09-01T12:44:28Z</time></trkpt><trkpt lat="59.2582154274" lon="30.6851363182"><time>2026-09-01T12:44:30Z</time></trkpt><trkpt lat="59.2582154274" lon="30.6851363182"><time>2026-09-01T12:44:33Z</time></trkpt><trkpt lat="59.2581939697" lon="30.6851363182"><time>2026-09-01T12:44:35Z</time></trkpt><trkpt lat="59.2581939697" lon="30.6851363182"><time>2026-09-01T12:44:38Z</time></trkpt><trkpt lat="59.2582154274" lon="30.6851577759"><time>2026-09-01T12:44:40Z</time></trkpt><trkpt lat="59.2582368851" lon="30.6851792336"><time>2026-09-01T12:44:43Z</time></trkpt><trkpt lat="59.2582368851" lon="30.6851792336"><time>2026-09-01T12:44:45Z</time></trkpt><trkpt lat="59.2582368851" lon="30.6851792336"><time>2026-09-01T12:44:48Z</time></trkpt><trkpt lat="59.2582368851" lon="30.6851577759"><time>2026-09-01T12:44:50Z</time></trkpt><trkpt lat="59.2582583427" lon="30.6851577759"><time>2026-09-01T12:44:53Z</time></trkpt><trkpt lat="59.2582798004" lon="30.6851792336"><time>2026-09-01T12:44:55Z</time></trkpt><trkpt lat="59.2582798004" lon="30.6851792336"><time>2026-09-01T12:44:58Z</time></trkpt><trkpt lat="59.2582583427" lon="30.6851363182"><time>2026-09-01T12:45:00Z</time></trkpt><trkpt lat="59.2582583427" lon="30.6851363182"><time>2026-09-01T12:45:03Z</time></trkpt><trkpt lat="59.2582798004" lon="30.6851577759"><time>2026-09-01T12:45:05Z</time></trkpt><trkpt lat="59.2583012581" lon="30.6851577759"><time>2026-09-01T12:45:08Z</time></trkpt><trkpt lat="59.2583012581" lon="30.6851792336"><time>2026-09-01T12:45:10Z</time></trkpt><trkpt lat="59.2583441734" lon="30.6851792336"><time>2026-09-01T12:45:13Z</time></trkpt><trkpt lat="59.2583441734" lon="30.6852221489"><time>2026-09-01T12:45:15Z</time></trkpt><trkpt lat="59.2583656311" lon="30.6852221489"><time>2026-09-01T12:45:18Z</time></trkpt><trkpt lat="59.2583656311" lon="30.6852006912"><time>2026-09-01T12:45:20Z</time></trkpt><trkpt lat="59.2583870888" lon="30.6852006912"><time>2026-09-01T12:45:23Z</time></trkpt><trkpt lat="59.2584085464" lon="30.6851792336"><time>2026-09-01T12:45:25Z</time></trkpt><trkpt lat="59.2584300041" lon="30.6851363182"><time>2026-09-01T12:45:28Z</time></trkpt><trkpt lat="59.2584729195" lon="30.6850719452"><time>2026-09-01T12:45:30Z</time></trkpt><trkpt lat="59.2584729195" lon="30.6850719452"><time>2026-09-01T12:45:33Z</time></trkpt><trkpt lat="59.2584943771" lon="30.6850719452"><time>2026-09-01T12:45:35Z</time></trkpt><trkpt lat="59.2585158348" lon="30.6850504875"><time>2026-09-01T12:45:38Z</time></trkpt><trkpt lat="59.2585158348" lon="30.6850504875"><time>2026-09-01T12:45:40Z</time></trkpt><trkpt lat="59.2585158348" lon="30.6850504875"><time>2026-09-01T12:45:43Z</time></trkpt><trkpt lat="59.2585587502" lon="30.6850290298"><time>2026-09-01T12:45:45Z</time></trkpt><trkpt lat="59.2586016655" lon="30.6850075722"><time>2026-09-01T12:45:48Z</time></trkpt><trkpt lat="59.2586016655" lon="30.6850290298"><time>2026-09-01T12:45:50Z</time></trkpt><trkpt lat="59.2586016655" lon="30.6850290298"><time>2026-09-01T12:45:53Z</time></trkpt><trkpt lat="59.2586016655" lon="30.6850290298"><time>2026-09-01T12:45:55Z</time></trkpt><trkpt lat="59.2586016655" lon="30.6850290298"><time>2026-09-01T12:45:58Z</time></trkpt><trkpt lat="59.2586016655" lon="30.6850290298"><time>2026-09-01T12:46:00Z</time></trkpt><trkpt lat="59.2586231232" lon="30.6850290298"><time>2026-09-01T12:46:03Z</time></trkpt><trkpt lat="59.2586445808" lon="30.6850075722"><time>2026-09-01T12:46:05Z</time></trkpt><trkpt lat="59.2586660385" lon="30.6849861145"><time>2026-09-01T12:46:08Z</time></trkpt><trkpt lat="59.2586874962" lon="30.6849861145"><time>2026-09-01T12:46:10Z</time></trkpt><trkpt lat="59.2586874962" lon="30.6849861145"><time>2026-09-01T12:46:13Z</time></trkpt><trkpt lat="59.2586874962" lon="30.6849646568"><time>2026-09-01T12:46:15Z</time></trkpt><trkpt lat="59.2587089539" lon="30.6849646568"><time>2026-09-01T12:46:18Z</time></trkpt><trkpt lat="59.2587304115" lon="30.6850075722"><time>2026-09-01T12:46:20Z</time></trkpt><trkpt lat="59.2587518692" lon="30.6850075722"><time>2026-09-01T12:46:23Z</time></trkpt><trkpt lat="59.2587518692" lon="30.6850075722"><time>2026-09-01T12:46:25Z</time></trkpt><trkpt lat="59.2587733269" lon="30.6849861145"><time>2026-09-01T12:46:30Z</time></trkpt><trkpt lat="59.2587733269" lon="30.6849861145"><time>2026-09-01T12:46:33Z</time></trkpt><trkpt lat="59.2587947845" lon="30.6850075722"><time>2026-09-01T12:46:35Z</time></trkpt><trkpt lat="59.2588162422" lon="30.6849861145"><time>2026-09-01T12:46:38Z</time></trkpt><trkpt lat="59.2588591576" lon="30.6849861145"><time>2026-09-01T12:46:40Z</time></trkpt><trkpt lat="59.2588591576" lon="30.6849861145"><time>2026-09-01T12:46:43Z</time></trkpt><trkpt lat="59.2588806152" lon="30.6849646568"><time>2026-09-01T12:46:45Z</time></trkpt><trkpt lat="59.2589020729" lon="30.6849217415"><time>2026-09-01T12:46:48Z</time></trkpt><trkpt lat="59.2589235306" lon="30.6848788261"><time>2026-09-01T12:46:50Z</time></trkpt><trkpt lat="59.2589449883" lon="30.6848788261"><time>2026-09-01T12:46:53Z</time></trkpt><trkpt lat="59.2589664459" lon="30.6848573685"><time>2026-09-01T12:46:55Z</time></trkpt><trkpt lat="59.2589664459" lon="30.6848359108"><time>2026-09-01T12:46:58Z</time></trkpt><trkpt lat="59.2589664459" lon="30.6848359108"><time>2026-09-01T12:47:00Z</time></trkpt><trkpt lat="59.2589664459" lon="30.6848359108"><time>2026-09-01T12:47:03Z</time></trkpt><trkpt lat="59.2589879036" lon="30.6848359108"><time>2026-09-01T12:47:05Z</time></trkpt><trkpt lat="59.2589879036" lon="30.6848144531"><time>2026-09-01T12:47:08Z</time></trkpt><trkpt lat="59.2590093613" lon="30.6848144531"><time>2026-09-01T12:47:10Z</time></trkpt><trkpt lat="59.2590308189" lon="30.6848144531"><time>2026-09-01T12:47:13Z</time></trkpt><trkpt lat="59.2590737343" lon="30.6847715378"><time>2026-09-01T12:47:15Z</time></trkpt><trkpt lat="59.2590951920" lon="30.6847500801"><time>2026-09-01T12:47:18Z</time></trkpt><trkpt lat="59.2591166496" lon="30.6846857071"><time>2026-09-01T12:47:20Z</time></trkpt><trkpt lat="59.2591166496" lon="30.6847071648"><time>2026-09-01T12:47:23Z</time></trkpt><trkpt lat="59.2591381073" lon="30.6847500801"><time>2026-09-01T12:47:25Z</time></trkpt><trkpt lat="59.2591381073" lon="30.6848144531"><time>2026-09-01T12:47:28Z</time></trkpt><trkpt lat="59.2591810226" lon="30.6848144531"><time>2026-09-01T12:47:30Z</time></trkpt><trkpt lat="59.2592024803" lon="30.6848144531"><time>2026-09-01T12:47:33Z</time></trkpt><trkpt lat="59.2592239380" lon="30.6847715378"><time>2026-09-01T12:47:35Z</time></trkpt><trkpt lat="59.2592453957" lon="30.6847286224"><time>2026-09-01T12:47:38Z</time></trkpt><trkpt lat="59.2592453957" lon="30.6847286224"><time>2026-09-01T12:47:43Z</time></trkpt><trkpt lat="59.2592453957" lon="30.6847286224"><time>2026-09-01T12:47:45Z</time></trkpt><trkpt lat="59.2592453957" lon="30.6847286224"><time>2026-09-01T12:47:48Z</time></trkpt><trkpt lat="59.2592883110" lon="30.6847071648"><time>2026-09-01T12:47:50Z</time></trkpt><trkpt lat="59.2593097687" lon="30.6846857071"><time>2026-09-01T12:47:53Z</time></trkpt><trkpt lat="59.2593312263" lon="30.6846857071"><time>2026-09-01T12:47:55Z</time></trkpt><trkpt lat="59.2593526840" lon="30.6846857071"><time>2026-09-01T12:47:58Z</time></trkpt><trkpt lat="59.2593526840" lon="30.6846857071"><time>2026-09-01T12:48:00Z</time></trkpt><trkpt lat="59.2593526840" lon="30.6846857071"><time>2026-09-01T12:48:03Z</time></trkpt><trkpt lat="59.2593741417" lon="30.6846857071"><time>2026-09-01T12:48:05Z</time></trkpt><trkpt lat="59.2593955994" lon="30.6847071648"><time>2026-09-01T12:48:08Z</time></trkpt><trkpt lat="59.2594170570" lon="30.6847286224"><time>2026-09-01T12:48:10Z</time></trkpt><trkpt lat="59.2594385147" lon="30.6847286224"><time>2026-09-01T12:48:13Z</time></trkpt><trkpt lat="59.2594599724" lon="30.6847500801"><time>2026-09-01T12:48:15Z</time></trkpt><trkpt lat="59.2594814301" lon="30.6847286224"><time>2026-09-01T12:48:18Z</time></trkpt><trkpt lat="59.2594599724" lon="30.6847071648"><time>2026-09-01T12:48:20Z</time></trkpt><trkpt lat="59.2594385147" lon="30.6847071648"><time>2026-09-01T12:48:23Z</time></trkpt><trkpt lat="59.2594385147" lon="30.6847715378"><time>2026-09-01T12:48:25Z</time></trkpt><trkpt lat="59.2594385147" lon="30.6847715378"><time>2026-09-01T12:48:28Z</time></trkpt><trkpt lat="59.2594385147" lon="30.6847929955"><time>2026-09-01T12:48:30Z</time></trkpt><trkpt lat="59.2594599724" lon="30.6848359108"><time>2026-09-01T12:48:33Z</time></trkpt><trkpt lat="59.2594599724" lon="30.6849002838"><time>2026-09-01T12:48:35Z</time></trkpt><trkpt lat="59.2594814301" lon="30.6849002838"><time>2026-09-01T12:48:38Z</time></trkpt><trkpt lat="59.2594814301" lon="30.6848573685"><time>2026-09-01T12:48:40Z</time></trkpt><trkpt lat="59.2595028877" lon="30.6848359108"><time>2026-09-01T12:48:43Z</time></trkpt><trkpt lat="59.2595243454" lon="30.6848359108"><time>2026-09-01T12:48:45Z</time></trkpt><trkpt lat="59.2595243454" lon="30.6848359108"><time>2026-09-01T12:48:48Z</time></trkpt><trkpt lat="59.2595458031" lon="30.6848359108"><time>2026-09-01T12:48:50Z</time></trkpt><trkpt lat="59.2595458031" lon="30.6848144531"><time>2026-09-01T12:48:53Z</time></trkpt><trkpt lat="59.2595458031" lon="30.6847500801"><time>2026-09-01T12:48:55Z</time></trkpt><trkpt lat="59.2595458031" lon="30.6847500801"><time>2026-09-01T12:48:58Z</time></trkpt><trkpt lat="59.2595458031" lon="30.6847500801"><time>2026-09-01T12:49:00Z</time></trkpt><trkpt lat="59.2595458031" lon="30.6847500801"><time>2026-09-01T12:49:03Z</time></trkpt><trkpt lat="59.2595243454" lon="30.6847286224"><time>2026-09-01T12:49:05Z</time></trkpt><trkpt lat="59.2595243454" lon="30.6847071648"><time>2026-09-01T12:49:08Z</time></trkpt><trkpt lat="59.2595243454" lon="30.6846857071"><time>2026-09-01T12:49:10Z</time></trkpt><trkpt lat="59.2595243454" lon="30.6846857071"><time>2026-09-01T12:49:13Z</time></trkpt><trkpt lat="59.2595028877" lon="30.6846642494"><time>2026-09-01T12:49:15Z</time></trkpt><trkpt lat="59.2595028877" lon="30.6846642494"><time>2026-09-01T12:49:18Z</time></trkpt><trkpt lat="59.2595243454" lon="30.6846857071"><time>2026-09-01T12:49:20Z</time></trkpt><trkpt lat="59.2595458031" lon="30.6847500801"><time>2026-09-01T12:49:23Z</time></trkpt><trkpt lat="59.2595672607" lon="30.6848144531"><time>2026-09-01T12:49:25Z</time></trkpt><trkpt lat="59.2596101761" lon="30.6848144531"><time>2026-09-01T12:49:28Z</time></trkpt><trkpt lat="59.2596316338" lon="30.6848359108"><time>2026-09-01T12:49:30Z</time></trkpt><trkpt lat="59.2596530914" lon="30.6848359108"><time>2026-09-01T12:49:33Z</time></trkpt><trkpt lat="59.2596745491" lon="30.6849002838"><time>2026-09-01T12:49:35Z</time></trkpt><trkpt lat="59.2597174644" lon="30.6849217415"><time>2026-09-01T12:49:38Z</time></trkpt><trkpt lat="59.2597603798" lon="30.6849646568"><time>2026-09-01T12:49:40Z</time></trkpt><trkpt lat="59.2597603798" lon="30.6849646568"><time>2026-09-01T12:49:43Z</time></trkpt><trkpt lat="59.2597603798" lon="30.6849646568"><time>2026-09-01T12:49:45Z</time></trkpt><trkpt lat="59.2597603798" lon="30.6849646568"><time>2026-09-01T12:49:48Z</time></trkpt><trkpt lat="59.2597603798" lon="30.6849646568"><time>2026-09-01T12:49:50Z</time></trkpt><trkpt lat="59.2597603798" lon="30.6849646568"><time>2026-09-01T12:49:53Z</time></trkpt><trkpt lat="59.2597818375" lon="30.6850075722"><time>2026-09-01T12:49:55Z</time></trkpt><trkpt lat="59.2597818375" lon="30.6850504875"><time>2026-09-01T12:49:58Z</time></trkpt><trkpt lat="59.2597818375" lon="30.6850719452"><time>2026-09-01T12:50:00Z</time></trkpt><trkpt lat="59.2597818375" lon="30.6850934029"><time>2026-09-01T12:50:03Z</time></trkpt><trkpt lat="59.2597818375" lon="30.6850934029"><time>2026-09-01T12:50:05Z</time></trkpt><trkpt lat="59.2598032951" lon="30.6850504875"><time>2026-09-01T12:50:08Z</time></trkpt><trkpt lat="59.2598247528" lon="30.6850504875"><time>2026-09-01T12:50:10Z</time></trkpt><trkpt lat="59.2598247528" lon="30.6850504875"><time>2026-09-01T12:50:13Z</time></trkpt><trkpt lat="59.2598462105" lon="30.6850504875"><time>2026-09-01T12:50:15Z</time></trkpt><trkpt lat="59.2598462105" lon="30.6850504875"><time>2026-09-01T12:50:18Z</time></trkpt><trkpt lat="59.2598462105" lon="30.6850504875"><time>2026-09-01T12:50:20Z</time></trkpt><trkpt lat="59.2598676682" lon="30.6850290298"><time>2026-09-01T12:50:23Z</time></trkpt><trkpt lat="59.2599105835" lon="30.6850290298"><time>2026-09-01T12:50:25Z</time></trkpt><trkpt lat="59.2599105835" lon="30.6849646568"><time>2026-09-01T12:50:28Z</time></trkpt><trkpt lat="59.2599105835" lon="30.6849646568"><time>2026-09-01T12:50:30Z</time></trkpt><trkpt lat="59.2599320412" lon="30.6850290298"><time>2026-09-01T12:50:33Z</time></trkpt><trkpt lat="59.2599534988" lon="30.6850719452"><time>2026-09-01T12:50:35Z</time></trkpt><trkpt lat="59.2599964142" lon="30.6850934029"><time>2026-09-01T12:50:38Z</time></trkpt><trkpt lat="59.2599964142" lon="30.6851363182"><time>2026-09-01T12:50:40Z</time></trkpt><trkpt lat="59.2600178719" lon="30.6851363182"><time>2026-09-01T12:50:43Z</time></trkpt><trkpt lat="59.2600393295" lon="30.6851363182"><time>2026-09-01T12:50:45Z</time></trkpt><trkpt lat="59.2600607872" lon="30.6851577759"><time>2026-09-01T12:50:48Z</time></trkpt><trkpt lat="59.2600607872" lon="30.6851363182"><time>2026-09-01T12:50:50Z</time></trkpt><trkpt lat="59.2600607872" lon="30.6851363182"><time>2026-09-01T12:50:53Z</time></trkpt><trkpt lat="59.2600607872" lon="30.6851148605"><time>2026-09-01T12:50:55Z</time></trkpt><trkpt lat="59.2600393295" lon="30.6851148605"><time>2026-09-01T12:50:58Z</time></trkpt><trkpt lat="59.2600178719" lon="30.6850719452"><time>2026-09-01T12:51:00Z</time></trkpt><trkpt lat="59.2599964142" lon="30.6850504875"><time>2026-09-01T12:51:03Z</time></trkpt><trkpt lat="59.2599749565" lon="30.6850719452"><time>2026-09-01T12:51:05Z</time></trkpt><trkpt lat="59.2599749565" lon="30.6850719452"><time>2026-09-01T12:51:08Z</time></trkpt><trkpt lat="59.2599749565" lon="30.6850719452"><time>2026-09-01T12:51:10Z</time></trkpt><trkpt lat="59.2599749565" lon="30.6850719452"><time>2026-09-01T12:51:13Z</time></trkpt><trkpt lat="59.2599749565" lon="30.6850934029"><time>2026-09-01T12:51:15Z</time></trkpt><trkpt lat="59.2599749565" lon="30.6850934029"><time>2026-09-01T12:51:18Z</time></trkpt><trkpt lat="59.2599749565" lon="30.6850934029"><time>2026-09-01T12:51:20Z</time></trkpt><trkpt lat="59.2599749565" lon="30.6850934029"><time>2026-09-01T12:51:23Z</time></trkpt><trkpt lat="59.2599749565" lon="30.6850934029"><time>2026-09-01T12:51:25Z</time></trkpt><trkpt lat="59.2599749565" lon="30.6850934029"><time>2026-09-01T12:51:28Z</time></trkpt><trkpt lat="59.2599749565" lon="30.6850934029"><time>2026-09-01T12:51:30Z</time></trkpt><trkpt lat="59.2599749565" lon="30.6850934029"><time>2026-09-01T12:51:33Z</time></trkpt><trkpt lat="59.2599749565" lon="30.6850934029"><time>2026-09-01T12:51:35Z</time></trkpt><trkpt lat="59.2599749565" lon="30.6850934029"><time>2026-09-01T12:51:38Z</time></trkpt><trkpt lat="59.2599749565" lon="30.6850934029"><time>2026-09-01T12:51:40Z</time></trkpt><trkpt lat="59.2599749565" lon="30.6850934029"><time>2026-09-01T12:51:43Z</time></trkpt><trkpt lat="59.2599749565" lon="30.6850934029"><time>2026-09-01T12:51:45Z</time></trkpt><trkpt lat="59.2599749565" lon="30.6850934029"><time>2026-09-01T12:51:48Z</time></trkpt><trkpt lat="59.2599749565" lon="30.6850934029"><time>2026-09-01T12:51:50Z</time></trkpt><trkpt lat="59.2599749565" lon="30.6850934029"><time>2026-09-01T12:51:53Z</time></trkpt><trkpt lat="59.2599964142" lon="30.6851148605"><time>2026-09-01T12:51:55Z</time></trkpt><trkpt lat="59.2599964142" lon="30.6851148605"><time>2026-09-01T12:51:58Z</time></trkpt><trkpt lat="59.2599964142" lon="30.6851148605"><time>2026-09-01T12:52:00Z</time></trkpt><trkpt lat="59.2599964142" lon="30.6851148605"><time>2026-09-01T12:52:03Z</time></trkpt><trkpt lat="59.2599964142" lon="30.6851148605"><time>2026-09-01T12:52:05Z</time></trkpt><trkpt lat="59.2599964142" lon="30.6851148605"><time>2026-09-01T12:52:08Z</time></trkpt><trkpt lat="59.2599964142" lon="30.6851148605"><time>2026-09-01T12:52:10Z</time></trkpt><trkpt lat="59.2599964142" lon="30.6851148605"><time>2026-09-01T12:52:13Z</time></trkpt><trkpt lat="59.2599964142" lon="30.6851148605"><time>2026-09-01T12:52:15Z</time></trkpt><trkpt lat="59.2599964142" lon="30.6851148605"><time>2026-09-01T12:52:18Z</time></trkpt><trkpt lat="59.2599964142" lon="30.6851363182"><time>2026-09-01T12:52:20Z</time></trkpt><trkpt lat="59.2599964142" lon="30.6851363182"><time>2026-09-01T12:52:23Z</time></trkpt><trkpt lat="59.2599964142" lon="30.6851363182"><time>2026-09-01T12:52:25Z</time></trkpt><trkpt lat="59.2599964142" lon="30.6851363182"><time>2026-09-01T12:52:28Z</time></trkpt><trkpt lat="59.2599964142" lon="30.6851363182"><time>2026-09-01T12:52:30Z</time></trkpt><trkpt lat="59.2599964142" lon="30.6851363182"><time>2026-09-01T12:52:33Z</time></trkpt><trkpt lat="59.2599964142" lon="30.6851363182"><time>2026-09-01T12:52:35Z</time></trkpt><trkpt lat="59.2599964142" lon="30.6851577759"><time>2026-09-01T12:52:38Z</time></trkpt><trkpt lat="59.2600178719" lon="30.6852006912"><time>2026-09-01T12:52:40Z</time></trkpt><trkpt lat="59.2600178719" lon="30.6852221489"><time>2026-09-01T12:52:43Z</time></trkpt><trkpt lat="59.2600178719" lon="30.6852436066"><time>2026-09-01T12:52:45Z</time></trkpt><trkpt lat="59.2600178719" lon="30.6852436066"><time>2026-09-01T12:52:48Z</time></trkpt><trkpt lat="59.2600393295" lon="30.6853079796"><time>2026-09-01T12:52:50Z</time></trkpt><trkpt lat="59.2600607872" lon="30.6853294373"><time>2026-09-01T12:52:53Z</time></trkpt><trkpt lat="59.2600822449" lon="30.6853723526"><time>2026-09-01T12:52:55Z</time></trkpt><trkpt lat="59.2600822449" lon="30.6853723526"><time>2026-09-01T12:52:58Z</time></trkpt><trkpt lat="59.2600822449" lon="30.6853723526"><time>2026-09-01T12:53:00Z</time></trkpt><trkpt lat="59.2600822449" lon="30.6853723526"><time>2026-09-01T12:53:03Z</time></trkpt><trkpt lat="59.2600822449" lon="30.6854367256"><time>2026-09-01T12:53:05Z</time></trkpt><trkpt lat="59.2600822449" lon="30.6854581833"><time>2026-09-01T12:53:08Z</time></trkpt><trkpt lat="59.2600822449" lon="30.6855225563"><time>2026-09-01T12:53:10Z</time></trkpt><trkpt lat="59.2600822449" lon="30.6855225563"><time>2026-09-01T12:53:13Z</time></trkpt><trkpt lat="59.2601037025" lon="30.6855440140"><time>2026-09-01T12:53:15Z</time></trkpt><trkpt lat="59.2601251602" lon="30.6855440140"><time>2026-09-01T12:53:18Z</time></trkpt><trkpt lat="59.2601251602" lon="30.6855654716"><time>2026-09-01T12:53:20Z</time></trkpt><trkpt lat="59.2601251602" lon="30.6855654716"><time>2026-09-01T12:53:23Z</time></trkpt><trkpt lat="59.2601037025" lon="30.6855654716"><time>2026-09-01T12:53:25Z</time></trkpt><trkpt lat="59.2601251602" lon="30.6856083870"><time>2026-09-01T12:53:28Z</time></trkpt><trkpt lat="59.2601466179" lon="30.6856513023"><time>2026-09-01T12:53:30Z</time></trkpt><trkpt lat="59.2601680756" lon="30.6857371330"><time>2026-09-01T12:53:33Z</time></trkpt><trkpt lat="59.2602109909" lon="30.6857800484"><time>2026-09-01T12:53:35Z</time></trkpt><trkpt lat="59.2602109909" lon="30.6857800484"><time>2026-09-01T12:53:38Z</time></trkpt><trkpt lat="59.2602109909" lon="30.6857800484"><time>2026-09-01T12:53:40Z</time></trkpt><trkpt lat="59.2602109909" lon="30.6857800484"><time>2026-09-01T12:53:43Z</time></trkpt><trkpt lat="59.2602324486" lon="30.6858015060"><time>2026-09-01T12:53:45Z</time></trkpt><trkpt lat="59.2602753639" lon="30.6858658791"><time>2026-09-01T12:53:48Z</time></trkpt><trkpt lat="59.2602753639" lon="30.6858873367"><time>2026-09-01T12:53:50Z</time></trkpt><trkpt lat="59.2602753639" lon="30.6858444214"><time>2026-09-01T12:53:53Z</time></trkpt><trkpt lat="59.2602753639" lon="30.6858444214"><time>2026-09-01T12:53:55Z</time></trkpt><trkpt lat="59.2602968216" lon="30.6858873367"><time>2026-09-01T12:53:58Z</time></trkpt><trkpt lat="59.2602968216" lon="30.6859087944"><time>2026-09-01T12:54:00Z</time></trkpt><trkpt lat="59.2603397369" lon="30.6859731674"><time>2026-09-01T12:54:03Z</time></trkpt><trkpt lat="59.2603397369" lon="30.6860160828"><time>2026-09-01T12:54:05Z</time></trkpt><trkpt lat="59.2603397369" lon="30.6860375404"><time>2026-09-01T12:54:08Z</time></trkpt><trkpt lat="59.2603397369" lon="30.6860160828"><time>2026-09-01T12:54:10Z</time></trkpt><trkpt lat="59.2603397369" lon="30.6860375404"><time>2026-09-01T12:54:13Z</time></trkpt><trkpt lat="59.2603397369" lon="30.6860804558"><time>2026-09-01T12:54:15Z</time></trkpt><trkpt lat="59.2603826523" lon="30.6861662865"><time>2026-09-01T12:54:18Z</time></trkpt><trkpt lat="59.2604041100" lon="30.6861662865"><time>2026-09-01T12:54:20Z</time></trkpt><trkpt lat="59.2604041100" lon="30.6861662865"><time>2026-09-01T12:54:23Z</time></trkpt><trkpt lat="59.2604470253" lon="30.6862092018"><time>2026-09-01T12:54:25Z</time></trkpt><trkpt lat="59.2604470253" lon="30.6862092018"><time>2026-09-01T12:54:28Z</time></trkpt><trkpt lat="59.2604470253" lon="30.6862092018"><time>2026-09-01T12:54:30Z</time></trkpt><trkpt lat="59.2604470253" lon="30.6862092018"><time>2026-09-01T12:54:33Z</time></trkpt><trkpt lat="59.2604470253" lon="30.6862092018"><time>2026-09-01T12:54:35Z</time></trkpt><trkpt lat="59.2604684830" lon="30.6862306595"><time>2026-09-01T12:54:38Z</time></trkpt><trkpt lat="59.2604899406" lon="30.6862521172"><time>2026-09-01T12:54:40Z</time></trkpt><trkpt lat="59.2604899406" lon="30.6862521172"><time>2026-09-01T12:54:43Z</time></trkpt><trkpt lat="59.2605113983" lon="30.6862735748"><time>2026-09-01T12:54:45Z</time></trkpt><trkpt lat="59.2605113983" lon="30.6862950325"><time>2026-09-01T12:54:48Z</time></trkpt><trkpt lat="59.2605543137" lon="30.6863379478"><time>2026-09-01T12:54:50Z</time></trkpt><trkpt lat="59.2605543137" lon="30.6863594055"><time>2026-09-01T12:54:53Z</time></trkpt><trkpt lat="59.2605543137" lon="30.6863594055"><time>2026-09-01T12:54:55Z</time></trkpt><trkpt lat="59.2605757713" lon="30.6863594055"><time>2026-09-01T12:54:58Z</time></trkpt><trkpt lat="59.2605757713" lon="30.6863808632"><time>2026-09-01T12:55:00Z</time></trkpt><trkpt lat="59.2605757713" lon="30.6864023209"><time>2026-09-01T12:55:03Z</time></trkpt><trkpt lat="59.2605972290" lon="30.6864237785"><time>2026-09-01T12:55:05Z</time></trkpt><trkpt lat="59.2606186867" lon="30.6864237785"><time>2026-09-01T12:55:08Z</time></trkpt><trkpt lat="59.2606186867" lon="30.6864237785"><time>2026-09-01T12:55:10Z</time></trkpt><trkpt lat="59.2606186867" lon="30.6864452362"><time>2026-09-01T12:55:13Z</time></trkpt><trkpt lat="59.2606616020" lon="30.6864666939"><time>2026-09-01T12:55:15Z</time></trkpt><trkpt lat="59.2606616020" lon="30.6864881516"><time>2026-09-01T12:55:18Z</time></trkpt><trkpt lat="59.2606616020" lon="30.6864666939"><time>2026-09-01T12:55:20Z</time></trkpt><trkpt lat="59.2606616020" lon="30.6864452362"><time>2026-09-01T12:55:23Z</time></trkpt><trkpt lat="59.2606616020" lon="30.6864666939"><time>2026-09-01T12:55:25Z</time></trkpt><trkpt lat="59.2606616020" lon="30.6864881516"><time>2026-09-01T12:55:28Z</time></trkpt><trkpt lat="59.2606616020" lon="30.6864881516"><time>2026-09-01T12:55:30Z</time></trkpt><trkpt lat="59.2606616020" lon="30.6864881516"><time>2026-09-01T12:55:33Z</time></trkpt><trkpt lat="59.2606830597" lon="30.6865096092"><time>2026-09-01T12:55:35Z</time></trkpt><trkpt lat="59.2606830597" lon="30.6865096092"><time>2026-09-01T12:55:38Z</time></trkpt><trkpt lat="59.2606830597" lon="30.6865096092"><time>2026-09-01T12:55:40Z</time></trkpt><trkpt lat="59.2606830597" lon="30.6865310669"><time>2026-09-01T12:55:43Z</time></trkpt><trkpt lat="59.2607045174" lon="30.6865310669"><time>2026-09-01T12:55:45Z</time></trkpt><trkpt lat="59.2607259750" lon="30.6865096092"><time>2026-09-01T12:55:48Z</time></trkpt><trkpt lat="59.2607259750" lon="30.6865096092"><time>2026-09-01T12:55:50Z</time></trkpt><trkpt lat="59.2607259750" lon="30.6865096092"><time>2026-09-01T12:55:53Z</time></trkpt><trkpt lat="59.2607259750" lon="30.6865525246"><time>2026-09-01T12:55:55Z</time></trkpt><trkpt lat="59.2607474327" lon="30.6865525246"><time>2026-09-01T12:55:58Z</time></trkpt><trkpt lat="59.2607474327" lon="30.6865739822"><time>2026-09-01T12:56:00Z</time></trkpt><trkpt lat="59.2607688904" lon="30.6865954399"><time>2026-09-01T12:56:03Z</time></trkpt><trkpt lat="59.2607688904" lon="30.6866168976"><time>2026-09-01T12:56:05Z</time></trkpt><trkpt lat="59.2607688904" lon="30.6866383553"><time>2026-09-01T12:56:08Z</time></trkpt><trkpt lat="59.2607903481" lon="30.6866812706"><time>2026-09-01T12:56:10Z</time></trkpt><trkpt lat="59.2607903481" lon="30.6866812706"><time>2026-09-01T12:56:13Z</time></trkpt><trkpt lat="59.2608118057" lon="30.6866598129"><time>2026-09-01T12:56:15Z</time></trkpt><trkpt lat="59.2608118057" lon="30.6866598129"><time>2026-09-01T12:56:18Z</time></trkpt><trkpt lat="59.2608332634" lon="30.6866598129"><time>2026-09-01T12:56:20Z</time></trkpt><trkpt lat="59.2608332634" lon="30.6866812706"><time>2026-09-01T12:56:23Z</time></trkpt><trkpt lat="59.2608332634" lon="30.6866812706"><time>2026-09-01T12:56:25Z</time></trkpt><trkpt lat="59.2608332634" lon="30.6866812706"><time>2026-09-01T12:56:28Z</time></trkpt><trkpt lat="59.2608332634" lon="30.6867027283"><time>2026-09-01T12:56:30Z</time></trkpt><trkpt lat="59.2608332634" lon="30.6867027283"><time>2026-09-01T12:56:33Z</time></trkpt><trkpt lat="59.2608332634" lon="30.6867027283"><time>2026-09-01T12:56:35Z</time></trkpt><trkpt lat="59.2608332634" lon="30.6867027283"><time>2026-09-01T12:56:38Z</time></trkpt><trkpt lat="59.2608332634" lon="30.6867241859"><time>2026-09-01T12:56:40Z</time></trkpt><trkpt lat="59.2608547211" lon="30.6867456436"><time>2026-09-01T12:56:43Z</time></trkpt><trkpt lat="59.2608332634" lon="30.6867456436"><time>2026-09-01T12:56:45Z</time></trkpt><trkpt lat="59.2608332634" lon="30.6867885590"><time>2026-09-01T12:56:48Z</time></trkpt><trkpt lat="59.2608332634" lon="30.6867671013"><time>2026-09-01T12:56:53Z</time></trkpt><trkpt lat="59.2608547211" lon="30.6868100166"><time>2026-09-01T12:56:55Z</time></trkpt><trkpt lat="59.2608547211" lon="30.6868314743"><time>2026-09-01T12:56:58Z</time></trkpt><trkpt lat="59.2608761787" lon="30.6868314743"><time>2026-09-01T12:57:00Z</time></trkpt><trkpt lat="59.2608761787" lon="30.6868529320"><time>2026-09-01T12:57:03Z</time></trkpt><trkpt lat="59.2608976364" lon="30.6868958473"><time>2026-09-01T12:57:05Z</time></trkpt><trkpt lat="59.2608976364" lon="30.6868958473"><time>2026-09-01T12:57:08Z</time></trkpt><trkpt lat="59.2609405518" lon="30.6869602203"><time>2026-09-01T12:57:10Z</time></trkpt><trkpt lat="59.2609620094" lon="30.6869816780"><time>2026-09-01T12:57:13Z</time></trkpt><trkpt lat="59.2610049248" lon="30.6870675087"><time>2026-09-01T12:57:15Z</time></trkpt><trkpt lat="59.2610263824" lon="30.6871104240"><time>2026-09-01T12:57:18Z</time></trkpt><trkpt lat="59.2610692978" lon="30.6871318817"><time>2026-09-01T12:57:20Z</time></trkpt><trkpt lat="59.2610692978" lon="30.6871318817"><time>2026-09-01T12:57:23Z</time></trkpt><trkpt lat="59.2610692978" lon="30.6871318817"><time>2026-09-01T12:57:25Z</time></trkpt><trkpt lat="59.2610263824" lon="30.6870889664"><time>2026-09-01T12:57:28Z</time></trkpt><trkpt lat="59.2609834671" lon="30.6870031357"><time>2026-09-01T12:57:30Z</time></trkpt><trkpt lat="59.2609620094" lon="30.6870031357"><time>2026-09-01T12:57:33Z</time></trkpt><trkpt lat="59.2609620094" lon="30.6870031357"><time>2026-09-01T12:57:35Z</time></trkpt><trkpt lat="59.2609620094" lon="30.6870031357"><time>2026-09-01T12:57:38Z</time></trkpt><trkpt lat="59.2610263824" lon="30.6870889664"><time>2026-09-01T12:57:40Z</time></trkpt><trkpt lat="59.2610478401" lon="30.6871533394"><time>2026-09-01T12:57:43Z</time></trkpt><trkpt lat="59.2610907555" lon="30.6871962547"><time>2026-09-01T12:57:45Z</time></trkpt><trkpt lat="59.2610907555" lon="30.6872177124"><time>2026-09-01T12:57:48Z</time></trkpt><trkpt lat="59.2610907555" lon="30.6872177124"><time>2026-09-01T12:57:50Z</time></trkpt><trkpt lat="59.2610907555" lon="30.6872177124"><time>2026-09-01T12:57:53Z</time></trkpt><trkpt lat="59.2611122131" lon="30.6872606277"><time>2026-09-01T12:57:55Z</time></trkpt><trkpt lat="59.2611336708" lon="30.6873035431"><time>2026-09-01T12:57:58Z</time></trkpt><trkpt lat="59.2611336708" lon="30.6873464584"><time>2026-09-01T12:58:00Z</time></trkpt><trkpt lat="59.2611336708" lon="30.6873464584"><time>2026-09-01T12:58:03Z</time></trkpt><trkpt lat="59.2611336708" lon="30.6873464584"><time>2026-09-01T12:58:05Z</time></trkpt><trkpt lat="59.2611336708" lon="30.6873464584"><time>2026-09-01T12:58:08Z</time></trkpt><trkpt lat="59.2611336708" lon="30.6873464584"><time>2026-09-01T12:58:10Z</time></trkpt><trkpt lat="59.2611336708" lon="30.6873250008"><time>2026-09-01T12:58:13Z</time></trkpt><trkpt lat="59.2611336708" lon="30.6872820854"><time>2026-09-01T12:58:15Z</time></trkpt><trkpt lat="59.2611336708" lon="30.6872820854"><time>2026-09-01T12:58:18Z</time></trkpt><trkpt lat="59.2611336708" lon="30.6872820854"><time>2026-09-01T12:58:20Z</time></trkpt><trkpt lat="59.2611122131" lon="30.6872606277"><time>2026-09-01T12:58:23Z</time></trkpt><trkpt lat="59.2610907555" lon="30.6872606277"><time>2026-09-01T12:58:25Z</time></trkpt><trkpt lat="59.2611122131" lon="30.6872391701"><time>2026-09-01T12:58:28Z</time></trkpt><trkpt lat="59.2611122131" lon="30.6872391701"><time>2026-09-01T12:58:30Z</time></trkpt><trkpt lat="59.2611122131" lon="30.6872391701"><time>2026-09-01T12:58:33Z</time></trkpt><trkpt lat="59.2611122131" lon="30.6872606277"><time>2026-09-01T12:58:35Z</time></trkpt><trkpt lat="59.2611122131" lon="30.6872820854"><time>2026-09-01T12:58:38Z</time></trkpt><trkpt lat="59.2610907555" lon="30.6872820854"><time>2026-09-01T12:58:40Z</time></trkpt><trkpt lat="59.2610907555" lon="30.6873250008"><time>2026-09-01T12:58:43Z</time></trkpt><trkpt lat="59.2610907555" lon="30.6873250008"><time>2026-09-01T12:58:45Z</time></trkpt><trkpt lat="59.2610907555" lon="30.6873250008"><time>2026-09-01T12:58:48Z</time></trkpt><trkpt lat="59.2610907555" lon="30.6873250008"><time>2026-09-01T12:58:50Z</time></trkpt><trkpt lat="59.2610907555" lon="30.6873250008"><time>2026-09-01T12:58:53Z</time></trkpt><trkpt lat="59.2610692978" lon="30.6873464584"><time>2026-09-01T12:58:55Z</time></trkpt><trkpt lat="59.2610692978" lon="30.6873464584"><time>2026-09-01T12:58:58Z</time></trkpt><trkpt lat="59.2610478401" lon="30.6874108315"><time>2026-09-01T12:59:00Z</time></trkpt><trkpt lat="59.2610263824" lon="30.6874537468"><time>2026-09-01T12:59:03Z</time></trkpt><trkpt lat="59.2610263824" lon="30.6875181198"><time>2026-09-01T12:59:05Z</time></trkpt><trkpt lat="59.2610263824" lon="30.6875395775"><time>2026-09-01T12:59:08Z</time></trkpt><trkpt lat="59.2610478401" lon="30.6875181198"><time>2026-09-01T12:59:10Z</time></trkpt><trkpt lat="59.2610478401" lon="30.6874966621"><time>2026-09-01T12:59:13Z</time></trkpt><trkpt lat="59.2610263824" lon="30.6874966621"><time>2026-09-01T12:59:15Z</time></trkpt><trkpt lat="59.2610263824" lon="30.6875181198"><time>2026-09-01T12:59:18Z</time></trkpt><trkpt lat="59.2610263824" lon="30.6875395775"><time>2026-09-01T12:59:20Z</time></trkpt><trkpt lat="59.2610263824" lon="30.6875610352"><time>2026-09-01T12:59:23Z</time></trkpt><trkpt lat="59.2610263824" lon="30.6876254082"><time>2026-09-01T12:59:25Z</time></trkpt><trkpt lat="59.2610263824" lon="30.6876468658"><time>2026-09-01T12:59:28Z</time></trkpt><trkpt lat="59.2610692978" lon="30.6876897812"><time>2026-09-01T12:59:30Z</time></trkpt><trkpt lat="59.2610692978" lon="30.6877112389"><time>2026-09-01T12:59:33Z</time></trkpt><trkpt lat="59.2610907555" lon="30.6877112389"><time>2026-09-01T12:59:35Z</time></trkpt><trkpt lat="59.2610907555" lon="30.6877112389"><time>2026-09-01T12:59:38Z</time></trkpt><trkpt lat="59.2610907555" lon="30.6876897812"><time>2026-09-01T12:59:40Z</time></trkpt><trkpt lat="59.2610692978" lon="30.6876683235"><time>2026-09-01T12:59:43Z</time></trkpt><trkpt lat="59.2610692978" lon="30.6877112389"><time>2026-09-01T12:59:45Z</time></trkpt><trkpt lat="59.2610692978" lon="30.6877326965"><time>2026-09-01T12:59:48Z</time></trkpt><trkpt lat="59.2610692978" lon="30.6877112389"><time>2026-09-01T12:59:50Z</time></trkpt><trkpt lat="59.2610478401" lon="30.6876254082"><time>2026-09-01T12:59:53Z</time></trkpt><trkpt lat="59.2610478401" lon="30.6876468658"><time>2026-09-01T12:59:55Z</time></trkpt><trkpt lat="59.2610478401" lon="30.6876897812"><time>2026-09-01T12:59:58Z</time></trkpt><trkpt lat="59.2610692978" lon="30.6877326965"><time>2026-09-01T13:00:00Z</time></trkpt><trkpt lat="59.2610692978" lon="30.6877326965"><time>2026-09-01T13:00:03Z</time></trkpt><trkpt lat="59.2610692978" lon="30.6877326965"><time>2026-09-01T13:00:05Z</time></trkpt><trkpt lat="59.2610692978" lon="30.6877326965"><time>2026-09-01T13:00:08Z</time></trkpt><trkpt lat="59.2610692978" lon="30.6877326965"><time>2026-09-01T13:00:10Z</time></trkpt><trkpt lat="59.2610692978" lon="30.6877326965"><time>2026-09-01T13:00:13Z</time></trkpt><trkpt lat="59.2610692978" lon="30.6877326965"><time>2026-09-01T13:00:15Z</time></trkpt><trkpt lat="59.2610692978" lon="30.6877326965"><time>2026-09-01T13:00:18Z</time></trkpt><trkpt lat="59.2610692978" lon="30.6877326965"><time>2026-09-01T13:00:20Z</time></trkpt><trkpt lat="59.2610692978" lon="30.6877326965"><time>2026-09-01T13:00:23Z</time></trkpt><trkpt lat="59.2610692978" lon="30.6877326965"><time>2026-09-01T13:00:25Z</time></trkpt><trkpt lat="59.2610692978" lon="30.6877326965"><time>2026-09-01T13:00:28Z</time></trkpt><trkpt lat="59.2610692978" lon="30.6877326965"><time>2026-09-01T13:00:30Z</time></trkpt><trkpt lat="59.2610692978" lon="30.6877326965"><time>2026-09-01T13:00:33Z</time></trkpt><trkpt lat="59.2610692978" lon="30.6877326965"><time>2026-09-01T13:00:35Z</time></trkpt><trkpt lat="59.2610692978" lon="30.6877326965"><time>2026-09-01T13:00:38Z</time></trkpt><trkpt lat="59.2610692978" lon="30.6877326965"><time>2026-09-01T13:00:40Z</time></trkpt><trkpt lat="59.2610692978" lon="30.6877326965"><time>2026-09-01T13:00:43Z</time></trkpt><trkpt lat="59.2610692978" lon="30.6877112389"><time>2026-09-01T13:00:45Z</time></trkpt><trkpt lat="59.2610692978" lon="30.6877112389"><time>2026-09-01T13:00:48Z</time></trkpt><trkpt lat="59.2610692978" lon="30.6877112389"><time>2026-09-01T13:00:50Z</time></trkpt><trkpt lat="59.2610692978" lon="30.6877112389"><time>2026-09-01T13:00:53Z</time></trkpt><trkpt lat="59.2610692978" lon="30.6877112389"><time>2026-09-01T13:00:55Z</time></trkpt><trkpt lat="59.2610692978" lon="30.6877112389"><time>2026-09-01T13:00:58Z</time></trkpt><trkpt lat="59.2610692978" lon="30.6877112389"><time>2026-09-01T13:01:00Z</time></trkpt><trkpt lat="59.2610692978" lon="30.6877541542"><time>2026-09-01T13:01:03Z</time></trkpt><trkpt lat="59.2610478401" lon="30.6877756119"><time>2026-09-01T13:01:05Z</time></trkpt><trkpt lat="59.2610478401" lon="30.6877756119"><time>2026-09-01T13:01:08Z</time></trkpt><trkpt lat="59.2610478401" lon="30.6877756119"><time>2026-09-01T13:01:10Z</time></trkpt><trkpt lat="59.2610478401" lon="30.6877756119"><time>2026-09-01T13:01:13Z</time></trkpt><trkpt lat="59.2610478401" lon="30.6877756119"><time>2026-09-01T13:01:15Z</time></trkpt><trkpt lat="59.2610478401" lon="30.6877541542"><time>2026-09-01T13:01:18Z</time></trkpt><trkpt lat="59.2610478401" lon="30.6877541542"><time>2026-09-01T13:01:20Z</time></trkpt><trkpt lat="59.2610692978" lon="30.6877326965"><time>2026-09-01T13:01:23Z</time></trkpt><trkpt lat="59.2610692978" lon="30.6877326965"><time>2026-09-01T13:01:25Z</time></trkpt><trkpt lat="59.2610692978" lon="30.6877541542"><time>2026-09-01T13:01:28Z</time></trkpt><trkpt lat="59.2610692978" lon="30.6877541542"><time>2026-09-01T13:01:30Z</time></trkpt><trkpt lat="59.2610692978" lon="30.6877541542"><time>2026-09-01T13:01:33Z</time></trkpt><trkpt lat="59.2610692978" lon="30.6877541542"><time>2026-09-01T13:01:35Z</time></trkpt><trkpt lat="59.2610692978" lon="30.6877541542"><time>2026-09-01T13:01:38Z</time></trkpt><trkpt lat="59.2610692978" lon="30.6877541542"><time>2026-09-01T13:01:40Z</time></trkpt><trkpt lat="59.2610692978" lon="30.6877541542"><time>2026-09-01T13:01:43Z</time></trkpt><trkpt lat="59.2610692978" lon="30.6877541542"><time>2026-09-01T13:01:45Z</time></trkpt><trkpt lat="59.2610692978" lon="30.6877541542"><time>2026-09-01T13:01:48Z</time></trkpt><trkpt lat="59.2610692978" lon="30.6877541542"><time>2026-09-01T13:01:50Z</time></trkpt><trkpt lat="59.2610692978" lon="30.6877541542"><time>2026-09-01T13:01:53Z</time></trkpt><trkpt lat="59.2610692978" lon="30.6877541542"><time>2026-09-01T13:01:55Z</time></trkpt><trkpt lat="59.2610692978" lon="30.6877541542"><time>2026-09-01T13:01:58Z</time></trkpt><trkpt lat="59.2610692978" lon="30.6877326965"><time>2026-09-01T13:02:00Z</time></trkpt><trkpt lat="59.2610692978" lon="30.6877326965"><time>2026-09-01T13:02:03Z</time></trkpt><trkpt lat="59.2610692978" lon="30.6877326965"><time>2026-09-01T13:02:05Z</time></trkpt><trkpt lat="59.2610692978" lon="30.6877326965"><time>2026-09-01T13:02:08Z</time></trkpt><trkpt lat="59.2610692978" lon="30.6877326965"><time>2026-09-01T13:02:10Z</time></trkpt><trkpt lat="59.2610692978" lon="30.6877326965"><time>2026-09-01T13:02:13Z</time></trkpt><trkpt lat="59.2610692978" lon="30.6877326965"><time>2026-09-01T13:02:15Z</time></trkpt><trkpt lat="59.2610692978" lon="30.6877326965"><time>2026-09-01T13:02:18Z</time></trkpt><trkpt lat="59.2610692978" lon="30.6877326965"><time>2026-09-01T13:02:20Z</time></trkpt><trkpt lat="59.2610692978" lon="30.6877326965"><time>2026-09-01T13:02:23Z</time></trkpt><trkpt lat="59.2610692978" lon="30.6877326965"><time>2026-09-01T13:02:25Z</time></trkpt><trkpt lat="59.2610692978" lon="30.6877326965"><time>2026-09-01T13:02:28Z</time></trkpt><trkpt lat="59.2610692978" lon="30.6877326965"><time>2026-09-01T13:02:30Z</time></trkpt><trkpt lat="59.2610692978" lon="30.6877326965"><time>2026-09-01T13:02:33Z</time></trkpt><trkpt lat="59.2610692978" lon="30.6877326965"><time>2026-09-01T13:02:35Z</time></trkpt><trkpt lat="59.2610692978" lon="30.6877326965"><time>2026-09-01T13:02:38Z</time></trkpt><trkpt lat="59.2610692978" lon="30.6877326965"><time>2026-09-01T13:02:40Z</time></trkpt><trkpt lat="59.2610692978" lon="30.6877326965"><time>2026-09-01T13:02:43Z</time></trkpt><trkpt lat="59.2610692978" lon="30.6877326965"><time>2026-09-01T13:02:45Z</time></trkpt><trkpt lat="59.2610692978" lon="30.6877326965"><time>2026-09-01T13:02:48Z</time></trkpt><trkpt lat="59.2610692978" lon="30.6877326965"><time>2026-09-01T13:02:50Z</time></trkpt><trkpt lat="59.2610692978" lon="30.6877326965"><time>2026-09-01T13:02:53Z</time></trkpt><trkpt lat="59.2610692978" lon="30.6877326965"><time>2026-09-01T13:02:55Z</time></trkpt><trkpt lat="59.2610692978" lon="30.6877326965"><time>2026-09-01T13:02:58Z</time></trkpt><trkpt lat="59.2610692978" lon="30.6877541542"><time>2026-09-01T13:03:00Z</time></trkpt><trkpt lat="59.2610692978" lon="30.6877326965"><time>2026-09-01T13:03:03Z</time></trkpt><trkpt lat="59.2610692978" lon="30.6877112389"><time>2026-09-01T13:03:05Z</time></trkpt><trkpt lat="59.2610692978" lon="30.6877112389"><time>2026-09-01T13:03:08Z</time></trkpt><trkpt lat="59.2610692978" lon="30.6877112389"><time>2026-09-01T13:03:10Z</time></trkpt><trkpt lat="59.2610263824" lon="30.6876897812"><time>2026-09-01T13:03:13Z</time></trkpt><trkpt lat="59.2610263824" lon="30.6876683235"><time>2026-09-01T13:03:15Z</time></trkpt><trkpt lat="59.2610478401" lon="30.6877112389"><time>2026-09-01T13:03:18Z</time></trkpt><trkpt lat="59.2610692978" lon="30.6877541542"><time>2026-09-01T13:03:20Z</time></trkpt><trkpt lat="59.2610692978" lon="30.6877756119"><time>2026-09-01T13:03:23Z</time></trkpt><trkpt lat="59.2610692978" lon="30.6877541542"><time>2026-09-01T13:03:25Z</time></trkpt><trkpt lat="59.2610692978" lon="30.6877326965"><time>2026-09-01T13:03:28Z</time></trkpt><trkpt lat="59.2610263824" lon="30.6877112389"><time>2026-09-01T13:03:33Z</time></trkpt><trkpt lat="59.2610049248" lon="30.6876897812"><time>2026-09-01T13:03:35Z</time></trkpt><trkpt lat="59.2610049248" lon="30.6877112389"><time>2026-09-01T13:03:38Z</time></trkpt><trkpt lat="59.2610049248" lon="30.6877326965"><time>2026-09-01T13:03:40Z</time></trkpt><trkpt lat="59.2610049248" lon="30.6877326965"><time>2026-09-01T13:03:43Z</time></trkpt><trkpt lat="59.2610049248" lon="30.6877326965"><time>2026-09-01T13:03:45Z</time></trkpt><trkpt lat="59.2610049248" lon="30.6877326965"><time>2026-09-01T13:03:48Z</time></trkpt><trkpt lat="59.2610049248" lon="30.6877326965"><time>2026-09-01T13:03:50Z</time></trkpt><trkpt lat="59.2610049248" lon="30.6877326965"><time>2026-09-01T13:03:53Z</time></trkpt><trkpt lat="59.2610049248" lon="30.6877326965"><time>2026-09-01T13:03:55Z</time></trkpt><trkpt lat="59.2610049248" lon="30.6877326965"><time>2026-09-01T13:03:58Z</time></trkpt><trkpt lat="59.2610049248" lon="30.6877112389"><time>2026-09-01T13:04:00Z</time></trkpt><trkpt lat="59.2609834671" lon="30.6876897812"><time>2026-09-01T13:04:03Z</time></trkpt><trkpt lat="59.2609620094" lon="30.6876468658"><time>2026-09-01T13:04:05Z</time></trkpt><trkpt lat="59.2609620094" lon="30.6876468658"><time>2026-09-01T13:04:08Z</time></trkpt><trkpt lat="59.2609620094" lon="30.6876468658"><time>2026-09-01T13:04:10Z</time></trkpt><trkpt lat="59.2609834671" lon="30.6876039505"><time>2026-09-01T13:04:13Z</time></trkpt><trkpt lat="59.2609834671" lon="30.6876254082"><time>2026-09-01T13:04:15Z</time></trkpt><trkpt lat="59.2610049248" lon="30.6876683235"><time>2026-09-01T13:04:18Z</time></trkpt><trkpt lat="59.2610049248" lon="30.6876897812"><time>2026-09-01T13:04:20Z</time></trkpt><trkpt lat="59.2610049248" lon="30.6876897812"><time>2026-09-01T13:04:23Z</time></trkpt><trkpt lat="59.2609834671" lon="30.6876897812"><time>2026-09-01T13:04:25Z</time></trkpt><trkpt lat="59.2609620094" lon="30.6876683235"><time>2026-09-01T13:04:28Z</time></trkpt><trkpt lat="59.2609620094" lon="30.6876039505"><time>2026-09-01T13:04:30Z</time></trkpt><trkpt lat="59.2609834671" lon="30.6875824928"><time>2026-09-01T13:04:33Z</time></trkpt><trkpt lat="59.2609834671" lon="30.6875395775"><time>2026-09-01T13:04:35Z</time></trkpt><trkpt lat="59.2609834671" lon="30.6875181198"><time>2026-09-01T13:04:38Z</time></trkpt><trkpt lat="59.2609620094" lon="30.6874966621"><time>2026-09-01T13:04:40Z</time></trkpt><trkpt lat="59.2609405518" lon="30.6875181198"><time>2026-09-01T13:04:43Z</time></trkpt><trkpt lat="59.2609405518" lon="30.6875610352"><time>2026-09-01T13:04:45Z</time></trkpt><trkpt lat="59.2609405518" lon="30.6875610352"><time>2026-09-01T13:04:48Z</time></trkpt><trkpt lat="59.2609405518" lon="30.6875824928"><time>2026-09-01T13:04:50Z</time></trkpt><trkpt lat="59.2609190941" lon="30.6875610352"><time>2026-09-01T13:04:53Z</time></trkpt><trkpt lat="59.2609190941" lon="30.6874966621"><time>2026-09-01T13:04:55Z</time></trkpt><trkpt lat="59.2609620094" lon="30.6875181198"><time>2026-09-01T13:04:58Z</time></trkpt><trkpt lat="59.2609834671" lon="30.6876039505"><time>2026-09-01T13:05:00Z</time></trkpt><trkpt lat="59.2610049248" lon="30.6876468658"><time>2026-09-01T13:05:03Z</time></trkpt><trkpt lat="59.2610478401" lon="30.6876897812"><time>2026-09-01T13:05:05Z</time></trkpt><trkpt lat="59.2610478401" lon="30.6876897812"><time>2026-09-01T13:05:08Z</time></trkpt><trkpt lat="59.2610049248" lon="30.6876897812"><time>2026-09-01T13:05:13Z</time></trkpt><trkpt lat="59.2609834671" lon="30.6877326965"><time>2026-09-01T13:05:15Z</time></trkpt><trkpt lat="59.2609620094" lon="30.6877326965"><time>2026-09-01T13:05:18Z</time></trkpt><trkpt lat="59.2609190941" lon="30.6876897812"><time>2026-09-01T13:05:20Z</time></trkpt><trkpt lat="59.2608976364" lon="30.6876683235"><time>2026-09-01T13:05:23Z</time></trkpt><trkpt lat="59.2609190941" lon="30.6876254082"><time>2026-09-01T13:05:25Z</time></trkpt><trkpt lat="59.2609190941" lon="30.6876683235"><time>2026-09-01T13:05:28Z</time></trkpt><trkpt lat="59.2609190941" lon="30.6876897812"><time>2026-09-01T13:05:30Z</time></trkpt><trkpt lat="59.2609190941" lon="30.6877326965"><time>2026-09-01T13:05:33Z</time></trkpt><trkpt lat="59.2608976364" lon="30.6877326965"><time>2026-09-01T13:05:35Z</time></trkpt><trkpt lat="59.2608761787" lon="30.6877326965"><time>2026-09-01T13:05:38Z</time></trkpt><trkpt lat="59.2608332634" lon="30.6877756119"><time>2026-09-01T13:05:40Z</time></trkpt><trkpt lat="59.2608332634" lon="30.6878399849"><time>2026-09-01T13:05:43Z</time></trkpt><trkpt lat="59.2608332634" lon="30.6879043579"><time>2026-09-01T13:05:45Z</time></trkpt><trkpt lat="59.2608332634" lon="30.6879472733"><time>2026-09-01T13:05:48Z</time></trkpt><trkpt lat="59.2608332634" lon="30.6879472733"><time>2026-09-01T13:05:50Z</time></trkpt><trkpt lat="59.2608332634" lon="30.6879472733"><time>2026-09-01T13:05:53Z</time></trkpt><trkpt lat="59.2608332634" lon="30.6879258156"><time>2026-09-01T13:05:55Z</time></trkpt><trkpt lat="59.2608332634" lon="30.6879043579"><time>2026-09-01T13:05:58Z</time></trkpt><trkpt lat="59.2608118057" lon="30.6878829002"><time>2026-09-01T13:06:00Z</time></trkpt><trkpt lat="59.2608118057" lon="30.6879043579"><time>2026-09-01T13:06:03Z</time></trkpt><trkpt lat="59.2608118057" lon="30.6879258156"><time>2026-09-01T13:06:05Z</time></trkpt><trkpt lat="59.2608118057" lon="30.6879043579"><time>2026-09-01T13:06:08Z</time></trkpt><trkpt lat="59.2607903481" lon="30.6879258156"><time>2026-09-01T13:06:10Z</time></trkpt><trkpt lat="59.2608118057" lon="30.6879472733"><time>2026-09-01T13:06:13Z</time></trkpt><trkpt lat="59.2608118057" lon="30.6879901886"><time>2026-09-01T13:06:15Z</time></trkpt><trkpt lat="59.2607903481" lon="30.6879901886"><time>2026-09-01T13:06:18Z</time></trkpt><trkpt lat="59.2607903481" lon="30.6879901886"><time>2026-09-01T13:06:20Z</time></trkpt><trkpt lat="59.2607688904" lon="30.6879687309"><time>2026-09-01T13:06:23Z</time></trkpt><trkpt lat="59.2607688904" lon="30.6879687309"><time>2026-09-01T13:06:25Z</time></trkpt><trkpt lat="59.2607474327" lon="30.6879687309"><time>2026-09-01T13:06:28Z</time></trkpt><trkpt lat="59.2607045174" lon="30.6879687309"><time>2026-09-01T13:06:30Z</time></trkpt><trkpt lat="59.2606830597" lon="30.6879901886"><time>2026-09-01T13:06:33Z</time></trkpt><trkpt lat="59.2606830597" lon="30.6880116463"><time>2026-09-01T13:06:35Z</time></trkpt><trkpt lat="59.2606616020" lon="30.6880116463"><time>2026-09-01T13:06:38Z</time></trkpt><trkpt lat="59.2606616020" lon="30.6880116463"><time>2026-09-01T13:06:40Z</time></trkpt><trkpt lat="59.2606616020" lon="30.6880116463"><time>2026-09-01T13:06:43Z</time></trkpt><trkpt lat="59.2606616020" lon="30.6880116463"><time>2026-09-01T13:06:45Z</time></trkpt><trkpt lat="59.2606616020" lon="30.6880116463"><time>2026-09-01T13:06:48Z</time></trkpt><trkpt lat="59.2606616020" lon="30.6879901886"><time>2026-09-01T13:06:50Z</time></trkpt><trkpt lat="59.2606401443" lon="30.6879901886"><time>2026-09-01T13:06:53Z</time></trkpt><trkpt lat="59.2606186867" lon="30.6879472733"><time>2026-09-01T13:06:55Z</time></trkpt><trkpt lat="59.2606186867" lon="30.6879043579"><time>2026-09-01T13:06:58Z</time></trkpt><trkpt lat="59.2606186867" lon="30.6879043579"><time>2026-09-01T13:07:00Z</time></trkpt><trkpt lat="59.2606186867" lon="30.6879043579"><time>2026-09-01T13:07:03Z</time></trkpt><trkpt lat="59.2606186867" lon="30.6879258156"><time>2026-09-01T13:07:05Z</time></trkpt><trkpt lat="59.2606186867" lon="30.6878829002"><time>2026-09-01T13:07:08Z</time></trkpt><trkpt lat="59.2606401443" lon="30.6878614426"><time>2026-09-01T13:07:10Z</time></trkpt><trkpt lat="59.2606186867" lon="30.6878614426"><time>2026-09-01T13:07:13Z</time></trkpt><trkpt lat="59.2605972290" lon="30.6878614426"><time>2026-09-01T13:07:15Z</time></trkpt><trkpt lat="59.2605972290" lon="30.6878399849"><time>2026-09-01T13:07:18Z</time></trkpt><trkpt lat="59.2605972290" lon="30.6878185272"><time>2026-09-01T13:07:20Z</time></trkpt><trkpt lat="59.2605757713" lon="30.6877970695"><time>2026-09-01T13:07:23Z</time></trkpt><trkpt lat="59.2605543137" lon="30.6878185272"><time>2026-09-01T13:07:25Z</time></trkpt><trkpt lat="59.2605543137" lon="30.6878185272"><time>2026-09-01T13:07:28Z</time></trkpt><trkpt lat="59.2605113983" lon="30.6877970695"><time>2026-09-01T13:07:30Z</time></trkpt><trkpt lat="59.2605113983" lon="30.6877756119"><time>2026-09-01T13:07:33Z</time></trkpt><trkpt lat="59.2604899406" lon="30.6877970695"><time>2026-09-01T13:07:35Z</time></trkpt><trkpt lat="59.2604899406" lon="30.6878185272"><time>2026-09-01T13:07:38Z</time></trkpt><trkpt lat="59.2604899406" lon="30.6878185272"><time>2026-09-01T13:07:40Z</time></trkpt><trkpt lat="59.2604899406" lon="30.6878185272"><time>2026-09-01T13:07:43Z</time></trkpt><trkpt lat="59.2604684830" lon="30.6878399849"><time>2026-09-01T13:07:45Z</time></trkpt><trkpt lat="59.2604470253" lon="30.6878185272"><time>2026-09-01T13:07:48Z</time></trkpt><trkpt lat="59.2604255676" lon="30.6877970695"><time>2026-09-01T13:07:50Z</time></trkpt><trkpt lat="59.2604255676" lon="30.6877970695"><time>2026-09-01T13:07:53Z</time></trkpt><trkpt lat="59.2604470253" lon="30.6878185272"><time>2026-09-01T13:07:55Z</time></trkpt><trkpt lat="59.2604470253" lon="30.6878185272"><time>2026-09-01T13:07:58Z</time></trkpt><trkpt lat="59.2604470253" lon="30.6878185272"><time>2026-09-01T13:08:00Z</time></trkpt><trkpt lat="59.2604470253" lon="30.6878185272"><time>2026-09-01T13:08:03Z</time></trkpt><trkpt lat="59.2604255676" lon="30.6878614426"><time>2026-09-01T13:08:05Z</time></trkpt><trkpt lat="59.2604255676" lon="30.6878614426"><time>2026-09-01T13:08:08Z</time></trkpt><trkpt lat="59.2604255676" lon="30.6878614426"><time>2026-09-01T13:08:10Z</time></trkpt><trkpt lat="59.2604255676" lon="30.6878614426"><time>2026-09-01T13:08:13Z</time></trkpt><trkpt lat="59.2604255676" lon="30.6878829002"><time>2026-09-01T13:08:15Z</time></trkpt><trkpt lat="59.2604255676" lon="30.6878829002"><time>2026-09-01T13:08:18Z</time></trkpt><trkpt lat="59.2604255676" lon="30.6878829002"><time>2026-09-01T13:08:20Z</time></trkpt><trkpt lat="59.2604041100" lon="30.6879043579"><time>2026-09-01T13:08:23Z</time></trkpt><trkpt lat="59.2604041100" lon="30.6879258156"><time>2026-09-01T13:08:25Z</time></trkpt><trkpt lat="59.2604041100" lon="30.6879258156"><time>2026-09-01T13:08:28Z</time></trkpt><trkpt lat="59.2604041100" lon="30.6879258156"><time>2026-09-01T13:08:30Z</time></trkpt><trkpt lat="59.2604041100" lon="30.6879258156"><time>2026-09-01T13:08:33Z</time></trkpt><trkpt lat="59.2604041100" lon="30.6879258156"><time>2026-09-01T13:08:35Z</time></trkpt><trkpt lat="59.2604041100" lon="30.6879258156"><time>2026-09-01T13:08:38Z</time></trkpt><trkpt lat="59.2603826523" lon="30.6879687309"><time>2026-09-01T13:08:40Z</time></trkpt><trkpt lat="59.2603611946" lon="30.6879901886"><time>2026-09-01T13:08:43Z</time></trkpt><trkpt lat="59.2603397369" lon="30.6879901886"><time>2026-09-01T13:08:45Z</time></trkpt><trkpt lat="59.2603182793" lon="30.6880116463"><time>2026-09-01T13:08:48Z</time></trkpt><trkpt lat="59.2602968216" lon="30.6880116463"><time>2026-09-01T13:08:50Z</time></trkpt><trkpt lat="59.2602968216" lon="30.6880116463"><time>2026-09-01T13:08:53Z</time></trkpt><trkpt lat="59.2602968216" lon="30.6880116463"><time>2026-09-01T13:08:55Z</time></trkpt><trkpt lat="59.2602968216" lon="30.6880116463"><time>2026-09-01T13:08:58Z</time></trkpt><trkpt lat="59.2602968216" lon="30.6880331039"><time>2026-09-01T13:09:00Z</time></trkpt><trkpt lat="59.2602968216" lon="30.6880116463"><time>2026-09-01T13:09:03Z</time></trkpt><trkpt lat="59.2602539063" lon="30.6880331039"><time>2026-09-01T13:09:05Z</time></trkpt><trkpt lat="59.2602324486" lon="30.6880760193"><time>2026-09-01T13:09:08Z</time></trkpt><trkpt lat="59.2602324486" lon="30.6880545616"><time>2026-09-01T13:09:10Z</time></trkpt><trkpt lat="59.2602539063" lon="30.6880545616"><time>2026-09-01T13:09:13Z</time></trkpt><trkpt lat="59.2602753639" lon="30.6880545616"><time>2026-09-01T13:09:15Z</time></trkpt><trkpt lat="59.2602539063" lon="30.6880331039"><time>2026-09-01T13:09:18Z</time></trkpt><trkpt lat="59.2602539063" lon="30.6880331039"><time>2026-09-01T13:09:20Z</time></trkpt><trkpt lat="59.2602539063" lon="30.6880545616"><time>2026-09-01T13:09:23Z</time></trkpt><trkpt lat="59.2602539063" lon="30.6880545616"><time>2026-09-01T13:09:25Z</time></trkpt><trkpt lat="59.2602539063" lon="30.6880545616"><time>2026-09-01T13:09:28Z</time></trkpt><trkpt lat="59.2602753639" lon="30.6880331039"><time>2026-09-01T13:09:30Z</time></trkpt><trkpt lat="59.2602753639" lon="30.6880116463"><time>2026-09-01T13:09:33Z</time></trkpt><trkpt lat="59.2602753639" lon="30.6880116463"><time>2026-09-01T13:09:35Z</time></trkpt><trkpt lat="59.2602753639" lon="30.6880116463"><time>2026-09-01T13:09:38Z</time></trkpt><trkpt lat="59.2602753639" lon="30.6880116463"><time>2026-09-01T13:09:40Z</time></trkpt><trkpt lat="59.2602753639" lon="30.6880116463"><time>2026-09-01T13:09:43Z</time></trkpt><trkpt lat="59.2602753639" lon="30.6880331039"><time>2026-09-01T13:09:45Z</time></trkpt><trkpt lat="59.2602753639" lon="30.6880331039"><time>2026-09-01T13:09:48Z</time></trkpt><trkpt lat="59.2602753639" lon="30.6880331039"><time>2026-09-01T13:09:50Z</time></trkpt><trkpt lat="59.2602753639" lon="30.6880331039"><time>2026-09-01T13:09:53Z</time></trkpt><trkpt lat="59.2602753639" lon="30.6880331039"><time>2026-09-01T13:09:55Z</time></trkpt><trkpt lat="59.2602753639" lon="30.6880331039"><time>2026-09-01T13:09:58Z</time></trkpt><trkpt lat="59.2602753639" lon="30.6880331039"><time>2026-09-01T13:10:00Z</time></trkpt><trkpt lat="59.2602753639" lon="30.6880331039"><time>2026-09-01T13:10:03Z</time></trkpt><trkpt lat="59.2602753639" lon="30.6880331039"><time>2026-09-01T13:10:05Z</time></trkpt><trkpt lat="59.2602753639" lon="30.6880331039"><time>2026-09-01T13:10:08Z</time></trkpt><trkpt lat="59.2602753639" lon="30.6880331039"><time>2026-09-01T13:10:10Z</time></trkpt><trkpt lat="59.2602753639" lon="30.6880331039"><time>2026-09-01T13:10:13Z</time></trkpt><trkpt lat="59.2602753639" lon="30.6880331039"><time>2026-09-01T13:10:15Z</time></trkpt><trkpt lat="59.2602753639" lon="30.6880331039"><time>2026-09-01T13:10:18Z</time></trkpt><trkpt lat="59.2602753639" lon="30.6880331039"><time>2026-09-01T13:10:20Z</time></trkpt><trkpt lat="59.2602753639" lon="30.6880331039"><time>2026-09-01T13:10:23Z</time></trkpt><trkpt lat="59.2602753639" lon="30.6880331039"><time>2026-09-01T13:10:25Z</time></trkpt><trkpt lat="59.2602753639" lon="30.6880331039"><time>2026-09-01T13:10:28Z</time></trkpt><trkpt lat="59.2602753639" lon="30.6880331039"><time>2026-09-01T13:10:30Z</time></trkpt><trkpt lat="59.2602753639" lon="30.6880331039"><time>2026-09-01T13:10:33Z</time></trkpt><trkpt lat="59.2602753639" lon="30.6880331039"><time>2026-09-01T13:10:35Z</time></trkpt><trkpt lat="59.2602753639" lon="30.6880331039"><time>2026-09-01T13:10:38Z</time></trkpt><trkpt lat="59.2602753639" lon="30.6880331039"><time>2026-09-01T13:10:40Z</time></trkpt><trkpt lat="59.2602753639" lon="30.6880331039"><time>2026-09-01T13:10:43Z</time></trkpt><trkpt lat="59.2602753639" lon="30.6880331039"><time>2026-09-01T13:10:45Z</time></trkpt><trkpt lat="59.2602539063" lon="30.6880331039"><time>2026-09-01T13:10:48Z</time></trkpt><trkpt lat="59.2602539063" lon="30.6880331039"><time>2026-09-01T13:10:50Z</time></trkpt><trkpt lat="59.2602539063" lon="30.6880331039"><time>2026-09-01T13:10:53Z</time></trkpt><trkpt lat="59.2602539063" lon="30.6880331039"><time>2026-09-01T13:10:55Z</time></trkpt><trkpt lat="59.2602539063" lon="30.6880331039"><time>2026-09-01T13:10:58Z</time></trkpt><trkpt lat="59.2602109909" lon="30.6879901886"><time>2026-09-01T13:11:00Z</time></trkpt><trkpt lat="59.2601895332" lon="30.6879687309"><time>2026-09-01T13:11:03Z</time></trkpt><trkpt lat="59.2601895332" lon="30.6879687309"><time>2026-09-01T13:11:05Z</time></trkpt><trkpt lat="59.2601895332" lon="30.6879687309"><time>2026-09-01T13:11:08Z</time></trkpt><trkpt lat="59.2601895332" lon="30.6879687309"><time>2026-09-01T13:11:10Z</time></trkpt><trkpt lat="59.2601895332" lon="30.6879901886"><time>2026-09-01T13:11:13Z</time></trkpt><trkpt lat="59.2601895332" lon="30.6879901886"><time>2026-09-01T13:11:15Z</time></trkpt><trkpt lat="59.2601895332" lon="30.6879901886"><time>2026-09-01T13:11:18Z</time></trkpt><trkpt lat="59.2601895332" lon="30.6879901886"><time>2026-09-01T13:11:20Z</time></trkpt><trkpt lat="59.2601680756" lon="30.6879901886"><time>2026-09-01T13:11:23Z</time></trkpt><trkpt lat="59.2601466179" lon="30.6879472733"><time>2026-09-01T13:11:25Z</time></trkpt><trkpt lat="59.2601251602" lon="30.6879258156"><time>2026-09-01T13:11:28Z</time></trkpt><trkpt lat="59.2600822449" lon="30.6879258156"><time>2026-09-01T13:11:30Z</time></trkpt><trkpt lat="59.2600607872" lon="30.6879472733"><time>2026-09-01T13:11:33Z</time></trkpt><trkpt lat="59.2600607872" lon="30.6879258156"><time>2026-09-01T13:11:35Z</time></trkpt><trkpt lat="59.2600607872" lon="30.6879258156"><time>2026-09-01T13:11:38Z</time></trkpt><trkpt lat="59.2600607872" lon="30.6879043579"><time>2026-09-01T13:11:40Z</time></trkpt><trkpt lat="59.2600607872" lon="30.6879043579"><time>2026-09-01T13:11:43Z</time></trkpt><trkpt lat="59.2600822449" lon="30.6878614426"><time>2026-09-01T13:11:45Z</time></trkpt><trkpt lat="59.2600822449" lon="30.6878185272"><time>2026-09-01T13:11:48Z</time></trkpt><trkpt lat="59.2600607872" lon="30.6877970695"><time>2026-09-01T13:11:50Z</time></trkpt><trkpt lat="59.2600393295" lon="30.6877756119"><time>2026-09-01T13:11:53Z</time></trkpt><trkpt lat="59.2600393295" lon="30.6877112389"><time>2026-09-01T13:11:55Z</time></trkpt><trkpt lat="59.2600393295" lon="30.6876897812"><time>2026-09-01T13:11:58Z</time></trkpt><trkpt lat="59.2600393295" lon="30.6877541542"><time>2026-09-01T13:12:00Z</time></trkpt><trkpt lat="59.2600393295" lon="30.6877970695"><time>2026-09-01T13:12:03Z</time></trkpt><trkpt lat="59.2600178719" lon="30.6878614426"><time>2026-09-01T13:12:05Z</time></trkpt><trkpt lat="59.2599964142" lon="30.6879043579"><time>2026-09-01T13:12:08Z</time></trkpt><trkpt lat="59.2599749565" lon="30.6879043579"><time>2026-09-01T13:12:10Z</time></trkpt><trkpt lat="59.2599534988" lon="30.6879472733"><time>2026-09-01T13:12:13Z</time></trkpt><trkpt lat="59.2599534988" lon="30.6879472733"><time>2026-09-01T13:12:15Z</time></trkpt><trkpt lat="59.2599320412" lon="30.6879901886"><time>2026-09-01T13:12:18Z</time></trkpt><trkpt lat="59.2599534988" lon="30.6880760193"><time>2026-09-01T13:12:20Z</time></trkpt><trkpt lat="59.2599534988" lon="30.6880760193"><time>2026-09-01T13:12:23Z</time></trkpt><trkpt lat="59.2599320412" lon="30.6880331039"><time>2026-09-01T13:12:25Z</time></trkpt><trkpt lat="59.2599320412" lon="30.6880331039"><time>2026-09-01T13:12:28Z</time></trkpt><trkpt lat="59.2599105835" lon="30.6880331039"><time>2026-09-01T13:12:30Z</time></trkpt><trkpt lat="59.2599105835" lon="30.6879901886"><time>2026-09-01T13:12:33Z</time></trkpt><trkpt lat="59.2598676682" lon="30.6879687309"><time>2026-09-01T13:12:35Z</time></trkpt><trkpt lat="59.2598462105" lon="30.6879687309"><time>2026-09-01T13:12:38Z</time></trkpt><trkpt lat="59.2598032951" lon="30.6879687309"><time>2026-09-01T13:12:40Z</time></trkpt><trkpt lat="59.2597818375" lon="30.6879472733"><time>2026-09-01T13:12:45Z</time></trkpt><trkpt lat="59.2597818375" lon="30.6879472733"><time>2026-09-01T13:12:48Z</time></trkpt><trkpt lat="59.2597818375" lon="30.6879687309"><time>2026-09-01T13:12:50Z</time></trkpt><trkpt lat="59.2597818375" lon="30.6879901886"><time>2026-09-01T13:12:53Z</time></trkpt><trkpt lat="59.2597603798" lon="30.6880116463"><time>2026-09-01T13:12:55Z</time></trkpt><trkpt lat="59.2597389221" lon="30.6880116463"><time>2026-09-01T13:12:58Z</time></trkpt><trkpt lat="59.2597174644" lon="30.6880116463"><time>2026-09-01T13:13:00Z</time></trkpt><trkpt lat="59.2597174644" lon="30.6880116463"><time>2026-09-01T13:13:03Z</time></trkpt><trkpt lat="59.2596960068" lon="30.6880760193"><time>2026-09-01T13:13:05Z</time></trkpt><trkpt lat="59.2596960068" lon="30.6880545616"><time>2026-09-01T13:13:08Z</time></trkpt><trkpt lat="59.2596960068" lon="30.6880545616"><time>2026-09-01T13:13:10Z</time></trkpt><trkpt lat="59.2596960068" lon="30.6880545616"><time>2026-09-01T13:13:13Z</time></trkpt><trkpt lat="59.2596745491" lon="30.6880331039"><time>2026-09-01T13:13:15Z</time></trkpt><trkpt lat="59.2596530914" lon="30.6880331039"><time>2026-09-01T13:13:18Z</time></trkpt><trkpt lat="59.2596316338" lon="30.6880331039"><time>2026-09-01T13:13:20Z</time></trkpt><trkpt lat="59.2596316338" lon="30.6880331039"><time>2026-09-01T13:13:23Z</time></trkpt><trkpt lat="59.2596316338" lon="30.6880331039"><time>2026-09-01T13:13:25Z</time></trkpt><trkpt lat="59.2596316338" lon="30.6880331039"><time>2026-09-01T13:13:28Z</time></trkpt><trkpt lat="59.2595887184" lon="30.6880545616"><time>2026-09-01T13:13:30Z</time></trkpt><trkpt lat="59.2595672607" lon="30.6880760193"><time>2026-09-01T13:13:33Z</time></trkpt><trkpt lat="59.2595458031" lon="30.6881403923"><time>2026-09-01T13:13:35Z</time></trkpt><trkpt lat="59.2595458031" lon="30.6881403923"><time>2026-09-01T13:13:38Z</time></trkpt><trkpt lat="59.2595243454" lon="30.6881403923"><time>2026-09-01T13:13:40Z</time></trkpt><trkpt lat="59.2595243454" lon="30.6881403923"><time>2026-09-01T13:13:43Z</time></trkpt><trkpt lat="59.2595243454" lon="30.6881403923"><time>2026-09-01T13:13:45Z</time></trkpt><trkpt lat="59.2595243454" lon="30.6881403923"><time>2026-09-01T13:13:48Z</time></trkpt><trkpt lat="59.2595243454" lon="30.6881403923"><time>2026-09-01T13:13:50Z</time></trkpt><trkpt lat="59.2595243454" lon="30.6881403923"><time>2026-09-01T13:13:53Z</time></trkpt><trkpt lat="59.2595028877" lon="30.6881403923"><time>2026-09-01T13:13:55Z</time></trkpt><trkpt lat="59.2594814301" lon="30.6881833076"><time>2026-09-01T13:13:58Z</time></trkpt><trkpt lat="59.2594385147" lon="30.6882047653"><time>2026-09-01T13:14:00Z</time></trkpt><trkpt lat="59.2594385147" lon="30.6882047653"><time>2026-09-01T13:14:03Z</time></trkpt><trkpt lat="59.2594385147" lon="30.6881833076"><time>2026-09-01T13:14:05Z</time></trkpt><trkpt lat="59.2594385147" lon="30.6881833076"><time>2026-09-01T13:14:08Z</time></trkpt><trkpt lat="59.2594385147" lon="30.6881618500"><time>2026-09-01T13:14:10Z</time></trkpt><trkpt lat="59.2594385147" lon="30.6881618500"><time>2026-09-01T13:14:13Z</time></trkpt><trkpt lat="59.2594385147" lon="30.6881618500"><time>2026-09-01T13:14:15Z</time></trkpt><trkpt lat="59.2594385147" lon="30.6881403923"><time>2026-09-01T13:14:18Z</time></trkpt><trkpt lat="59.2594170570" lon="30.6881189346"><time>2026-09-01T13:14:20Z</time></trkpt><trkpt lat="59.2594170570" lon="30.6881189346"><time>2026-09-01T13:14:23Z</time></trkpt><trkpt lat="59.2593955994" lon="30.6881403923"><time>2026-09-01T13:14:25Z</time></trkpt><trkpt lat="59.2593955994" lon="30.6881403923"><time>2026-09-01T13:14:28Z</time></trkpt><trkpt lat="59.2593955994" lon="30.6881189346"><time>2026-09-01T13:14:30Z</time></trkpt><trkpt lat="59.2593741417" lon="30.6880760193"><time>2026-09-01T13:14:33Z</time></trkpt><trkpt lat="59.2593741417" lon="30.6880331039"><time>2026-09-01T13:14:35Z</time></trkpt><trkpt lat="59.2593741417" lon="30.6880116463"><time>2026-09-01T13:14:38Z</time></trkpt><trkpt lat="59.2593741417" lon="30.6879687309"><time>2026-09-01T13:14:40Z</time></trkpt><trkpt lat="59.2593741417" lon="30.6879687309"><time>2026-09-01T13:14:43Z</time></trkpt><trkpt lat="59.2593526840" lon="30.6878829002"><time>2026-09-01T13:14:45Z</time></trkpt><trkpt lat="59.2593526840" lon="30.6878829002"><time>2026-09-01T13:14:48Z</time></trkpt><trkpt lat="59.2593312263" lon="30.6879258156"><time>2026-09-01T13:14:50Z</time></trkpt><trkpt lat="59.2593097687" lon="30.6879472733"><time>2026-09-01T13:14:53Z</time></trkpt><trkpt lat="59.2592668533" lon="30.6879043579"><time>2026-09-01T13:14:55Z</time></trkpt><trkpt lat="59.2592453957" lon="30.6879043579"><time>2026-09-01T13:14:58Z</time></trkpt><trkpt lat="59.2592239380" lon="30.6879043579"><time>2026-09-01T13:15:00Z</time></trkpt><trkpt lat="59.2592239380" lon="30.6879043579"><time>2026-09-01T13:15:03Z</time></trkpt><trkpt lat="59.2592239380" lon="30.6879043579"><time>2026-09-01T13:15:05Z</time></trkpt><trkpt lat="59.2592239380" lon="30.6879043579"><time>2026-09-01T13:15:08Z</time></trkpt><trkpt lat="59.2592239380" lon="30.6879258156"><time>2026-09-01T13:15:10Z</time></trkpt><trkpt lat="59.2592239380" lon="30.6879258156"><time>2026-09-01T13:15:13Z</time></trkpt><trkpt lat="59.2592239380" lon="30.6879258156"><time>2026-09-01T13:15:15Z</time></trkpt><trkpt lat="59.2592239380" lon="30.6879258156"><time>2026-09-01T13:15:18Z</time></trkpt><trkpt lat="59.2592239380" lon="30.6879258156"><time>2026-09-01T13:15:20Z</time></trkpt><trkpt lat="59.2592239380" lon="30.6879043579"><time>2026-09-01T13:15:23Z</time></trkpt><trkpt lat="59.2592024803" lon="30.6879043579"><time>2026-09-01T13:15:25Z</time></trkpt><trkpt lat="59.2592024803" lon="30.6879472733"><time>2026-09-01T13:15:28Z</time></trkpt><trkpt lat="59.2591810226" lon="30.6879901886"><time>2026-09-01T13:15:30Z</time></trkpt><trkpt lat="59.2591810226" lon="30.6879901886"><time>2026-09-01T13:15:33Z</time></trkpt><trkpt lat="59.2591810226" lon="30.6879901886"><time>2026-09-01T13:15:35Z</time></trkpt><trkpt lat="59.2591595650" lon="30.6880545616"><time>2026-09-01T13:15:38Z</time></trkpt><trkpt lat="59.2591381073" lon="30.6880545616"><time>2026-09-01T13:15:40Z</time></trkpt><trkpt lat="59.2591166496" lon="30.6880116463"><time>2026-09-01T13:15:43Z</time></trkpt><trkpt lat="59.2590951920" lon="30.6880116463"><time>2026-09-01T13:15:45Z</time></trkpt><trkpt lat="59.2590951920" lon="30.6880116463"><time>2026-09-01T13:15:48Z</time></trkpt><trkpt lat="59.2590951920" lon="30.6880545616"><time>2026-09-01T13:15:50Z</time></trkpt><trkpt lat="59.2590737343" lon="30.6880974770"><time>2026-09-01T13:15:53Z</time></trkpt><trkpt lat="59.2590737343" lon="30.6880974770"><time>2026-09-01T13:15:55Z</time></trkpt><trkpt lat="59.2590737343" lon="30.6880760193"><time>2026-09-01T13:15:58Z</time></trkpt><trkpt lat="59.2590522766" lon="30.6880545616"><time>2026-09-01T13:16:00Z</time></trkpt><trkpt lat="59.2590522766" lon="30.6880331039"><time>2026-09-01T13:16:03Z</time></trkpt><trkpt lat="59.2590308189" lon="30.6880331039"><time>2026-09-01T13:16:05Z</time></trkpt><trkpt lat="59.2590093613" lon="30.6880331039"><time>2026-09-01T13:16:08Z</time></trkpt><trkpt lat="59.2589879036" lon="30.6880331039"><time>2026-09-01T13:16:10Z</time></trkpt><trkpt lat="59.2589879036" lon="30.6880545616"><time>2026-09-01T13:16:13Z</time></trkpt><trkpt lat="59.2589664459" lon="30.6881189346"><time>2026-09-01T13:16:15Z</time></trkpt><trkpt lat="59.2589664459" lon="30.6881618500"><time>2026-09-01T13:16:18Z</time></trkpt><trkpt lat="59.2589664459" lon="30.6882047653"><time>2026-09-01T13:16:20Z</time></trkpt><trkpt lat="59.2589664459" lon="30.6882047653"><time>2026-09-01T13:16:23Z</time></trkpt><trkpt lat="59.2589664459" lon="30.6882047653"><time>2026-09-01T13:16:25Z</time></trkpt><trkpt lat="59.2589664459" lon="30.6882047653"><time>2026-09-01T13:16:28Z</time></trkpt><trkpt lat="59.2589449883" lon="30.6882047653"><time>2026-09-01T13:16:30Z</time></trkpt><trkpt lat="59.2589235306" lon="30.6881833076"><time>2026-09-01T13:16:33Z</time></trkpt><trkpt lat="59.2589020729" lon="30.6882047653"><time>2026-09-01T13:16:35Z</time></trkpt><trkpt lat="59.2589020729" lon="30.6882476807"><time>2026-09-01T13:16:38Z</time></trkpt><trkpt lat="59.2589235306" lon="30.6882262230"><time>2026-09-01T13:16:40Z</time></trkpt><trkpt lat="59.2589235306" lon="30.6882262230"><time>2026-09-01T13:16:43Z</time></trkpt><trkpt lat="59.2589020729" lon="30.6882047653"><time>2026-09-01T13:16:45Z</time></trkpt><trkpt lat="59.2589020729" lon="30.6882047653"><time>2026-09-01T13:16:48Z</time></trkpt><trkpt lat="59.2589020729" lon="30.6882262230"><time>2026-09-01T13:16:50Z</time></trkpt><trkpt lat="59.2588806152" lon="30.6882691383"><time>2026-09-01T13:16:53Z</time></trkpt><trkpt lat="59.2588806152" lon="30.6882691383"><time>2026-09-01T13:16:55Z</time></trkpt><trkpt lat="59.2588806152" lon="30.6882691383"><time>2026-09-01T13:16:58Z</time></trkpt><trkpt lat="59.2588591576" lon="30.6883335114"><time>2026-09-01T13:17:00Z</time></trkpt><trkpt lat="59.2588591576" lon="30.6883549690"><time>2026-09-01T13:17:03Z</time></trkpt><trkpt lat="59.2588162422" lon="30.6883549690"><time>2026-09-01T13:17:05Z</time></trkpt><trkpt lat="59.2587947845" lon="30.6883549690"><time>2026-09-01T13:17:08Z</time></trkpt><trkpt lat="59.2587733269" lon="30.6883549690"><time>2026-09-01T13:17:10Z</time></trkpt><trkpt lat="59.2587518692" lon="30.6883549690"><time>2026-09-01T13:17:13Z</time></trkpt><trkpt lat="59.2587518692" lon="30.6883549690"><time>2026-09-01T13:17:15Z</time></trkpt><trkpt lat="59.2587518692" lon="30.6883549690"><time>2026-09-01T13:17:18Z</time></trkpt><trkpt lat="59.2587304115" lon="30.6883978844"><time>2026-09-01T13:17:20Z</time></trkpt><trkpt lat="59.2587304115" lon="30.6884407997"><time>2026-09-01T13:17:23Z</time></trkpt><trkpt lat="59.2587304115" lon="30.6884407997"><time>2026-09-01T13:17:25Z</time></trkpt><trkpt lat="59.2587304115" lon="30.6884193420"><time>2026-09-01T13:17:28Z</time></trkpt><trkpt lat="59.2587304115" lon="30.6883978844"><time>2026-09-01T13:17:30Z</time></trkpt><trkpt lat="59.2587304115" lon="30.6883978844"><time>2026-09-01T13:17:33Z</time></trkpt><trkpt lat="59.2587304115" lon="30.6883764267"><time>2026-09-01T13:17:35Z</time></trkpt><trkpt lat="59.2587304115" lon="30.6883764267"><time>2026-09-01T13:17:38Z</time></trkpt><trkpt lat="59.2587089539" lon="30.6883764267"><time>2026-09-01T13:17:40Z</time></trkpt><trkpt lat="59.2587089539" lon="30.6884193420"><time>2026-09-01T13:17:43Z</time></trkpt><trkpt lat="59.2586874962" lon="30.6884622574"><time>2026-09-01T13:17:45Z</time></trkpt><trkpt lat="59.2586874962" lon="30.6884407997"><time>2026-09-01T13:17:48Z</time></trkpt><trkpt lat="59.2586445808" lon="30.6884407997"><time>2026-09-01T13:17:50Z</time></trkpt><trkpt lat="59.2586445808" lon="30.6884407997"><time>2026-09-01T13:17:53Z</time></trkpt><trkpt lat="59.2586231232" lon="30.6884193420"><time>2026-09-01T13:17:55Z</time></trkpt><trkpt lat="59.2586016655" lon="30.6884407997"><time>2026-09-01T13:17:58Z</time></trkpt><trkpt lat="59.2586016655" lon="30.6884407997"><time>2026-09-01T13:18:00Z</time></trkpt><trkpt lat="59.2585802078" lon="30.6884193420"><time>2026-09-01T13:18:03Z</time></trkpt><trkpt lat="59.2585587502" lon="30.6884407997"><time>2026-09-01T13:18:05Z</time></trkpt><trkpt lat="59.2585587502" lon="30.6884407997"><time>2026-09-01T13:18:08Z</time></trkpt><trkpt lat="59.2585587502" lon="30.6884407997"><time>2026-09-01T13:18:10Z</time></trkpt><trkpt lat="59.2585587502" lon="30.6884407997"><time>2026-09-01T13:18:13Z</time></trkpt><trkpt lat="59.2585587502" lon="30.6884837151"><time>2026-09-01T13:18:15Z</time></trkpt><trkpt lat="59.2585372925" lon="30.6885051727"><time>2026-09-01T13:18:18Z</time></trkpt><trkpt lat="59.2585372925" lon="30.6885051727"><time>2026-09-01T13:18:20Z</time></trkpt><trkpt lat="59.2585372925" lon="30.6885480881"><time>2026-09-01T13:18:23Z</time></trkpt><trkpt lat="59.2585587502" lon="30.6886124611"><time>2026-09-01T13:18:25Z</time></trkpt><trkpt lat="59.2585587502" lon="30.6885910034"><time>2026-09-01T13:18:28Z</time></trkpt><trkpt lat="59.2585372925" lon="30.6885695457"><time>2026-09-01T13:18:30Z</time></trkpt><trkpt lat="59.2585158348" lon="30.6885695457"><time>2026-09-01T13:18:33Z</time></trkpt><trkpt lat="59.2584943771" lon="30.6885480881"><time>2026-09-01T13:18:35Z</time></trkpt><trkpt lat="59.2584729195" lon="30.6885051727"><time>2026-09-01T13:18:38Z</time></trkpt><trkpt lat="59.2584729195" lon="30.6885266304"><time>2026-09-01T13:18:40Z</time></trkpt><trkpt lat="59.2584729195" lon="30.6885266304"><time>2026-09-01T13:18:43Z</time></trkpt><trkpt lat="59.2584514618" lon="30.6885266304"><time>2026-09-01T13:18:45Z</time></trkpt><trkpt lat="59.2584514618" lon="30.6885480881"><time>2026-09-01T13:18:48Z</time></trkpt><trkpt lat="59.2584729195" lon="30.6885695457"><time>2026-09-01T13:18:50Z</time></trkpt><trkpt lat="59.2584729195" lon="30.6885695457"><time>2026-09-01T13:18:53Z</time></trkpt><trkpt lat="59.2584729195" lon="30.6885695457"><time>2026-09-01T13:18:55Z</time></trkpt><trkpt lat="59.2584729195" lon="30.6885695457"><time>2026-09-01T13:18:58Z</time></trkpt><trkpt lat="59.2584729195" lon="30.6885695457"><time>2026-09-01T13:19:00Z</time></trkpt><trkpt lat="59.2584729195" lon="30.6885695457"><time>2026-09-01T13:19:03Z</time></trkpt><trkpt lat="59.2584729195" lon="30.6885695457"><time>2026-09-01T13:19:05Z</time></trkpt><trkpt lat="59.2584729195" lon="30.6885695457"><time>2026-09-01T13:19:08Z</time></trkpt><trkpt lat="59.2584729195" lon="30.6885695457"><time>2026-09-01T13:19:10Z</time></trkpt><trkpt lat="59.2584729195" lon="30.6885695457"><time>2026-09-01T13:19:13Z</time></trkpt><trkpt lat="59.2584729195" lon="30.6885695457"><time>2026-09-01T13:19:15Z</time></trkpt><trkpt lat="59.2584729195" lon="30.6885695457"><time>2026-09-01T13:19:18Z</time></trkpt><trkpt lat="59.2584729195" lon="30.6885695457"><time>2026-09-01T13:19:20Z</time></trkpt><trkpt lat="59.2584729195" lon="30.6885695457"><time>2026-09-01T13:19:23Z</time></trkpt><trkpt lat="59.2584943771" lon="30.6885266304"><time>2026-09-01T13:19:25Z</time></trkpt><trkpt lat="59.2584729195" lon="30.6885266304"><time>2026-09-01T13:19:28Z</time></trkpt><trkpt lat="59.2584729195" lon="30.6885266304"><time>2026-09-01T13:19:30Z</time></trkpt><trkpt lat="59.2584514618" lon="30.6885266304"><time>2026-09-01T13:19:33Z</time></trkpt><trkpt lat="59.2584514618" lon="30.6885266304"><time>2026-09-01T13:19:35Z</time></trkpt><trkpt lat="59.2584514618" lon="30.6885051727"><time>2026-09-01T13:19:38Z</time></trkpt><trkpt lat="59.2584514618" lon="30.6885051727"><time>2026-09-01T13:19:40Z</time></trkpt><trkpt lat="59.2584514618" lon="30.6885051727"><time>2026-09-01T13:19:43Z</time></trkpt><trkpt lat="59.2584300041" lon="30.6885051727"><time>2026-09-01T13:19:45Z</time></trkpt><trkpt lat="59.2584300041" lon="30.6884837151"><time>2026-09-01T13:19:48Z</time></trkpt><trkpt lat="59.2584085464" lon="30.6885051727"><time>2026-09-01T13:19:50Z</time></trkpt><trkpt lat="59.2583870888" lon="30.6885051727"><time>2026-09-01T13:19:53Z</time></trkpt><trkpt lat="59.2583870888" lon="30.6885266304"><time>2026-09-01T13:19:55Z</time></trkpt><trkpt lat="59.2583656311" lon="30.6885266304"><time>2026-09-01T13:19:58Z</time></trkpt><trkpt lat="59.2583441734" lon="30.6885910034"><time>2026-09-01T13:20:00Z</time></trkpt><trkpt lat="59.2583441734" lon="30.6886124611"><time>2026-09-01T13:20:03Z</time></trkpt><trkpt lat="59.2583441734" lon="30.6886339188"><time>2026-09-01T13:20:05Z</time></trkpt><trkpt lat="59.2583227158" lon="30.6886339188"><time>2026-09-01T13:20:08Z</time></trkpt><trkpt lat="59.2583227158" lon="30.6886124611"><time>2026-09-01T13:20:10Z</time></trkpt><trkpt lat="59.2583012581" lon="30.6886124611"><time>2026-09-01T13:20:13Z</time></trkpt><trkpt lat="59.2583012581" lon="30.6886124611"><time>2026-09-01T13:20:15Z</time></trkpt><trkpt lat="59.2583012581" lon="30.6886124611"><time>2026-09-01T13:20:18Z</time></trkpt><trkpt lat="59.2583012581" lon="30.6886124611"><time>2026-09-01T13:20:20Z</time></trkpt><trkpt lat="59.2583012581" lon="30.6886124611"><time>2026-09-01T13:20:23Z</time></trkpt><trkpt lat="59.2582798004" lon="30.6885695457"><time>2026-09-01T13:20:25Z</time></trkpt><trkpt lat="59.2582798004" lon="30.6885480881"><time>2026-09-01T13:20:28Z</time></trkpt><trkpt lat="59.2582798004" lon="30.6885051727"><time>2026-09-01T13:20:30Z</time></trkpt><trkpt lat="59.2582798004" lon="30.6885051727"><time>2026-09-01T13:20:33Z</time></trkpt><trkpt lat="59.2582368851" lon="30.6884407997"><time>2026-09-01T13:20:35Z</time></trkpt><trkpt lat="59.2582368851" lon="30.6884193420"><time>2026-09-01T13:20:38Z</time></trkpt><trkpt lat="59.2582368851" lon="30.6883764267"><time>2026-09-01T13:20:40Z</time></trkpt><trkpt lat="59.2582368851" lon="30.6883120537"><time>2026-09-01T13:20:43Z</time></trkpt><trkpt lat="59.2581939697" lon="30.6882476807"><time>2026-09-01T13:20:45Z</time></trkpt><trkpt lat="59.2581725121" lon="30.6882262230"><time>2026-09-01T13:20:48Z</time></trkpt><trkpt lat="59.2581295967" lon="30.6882262230"><time>2026-09-01T13:20:50Z</time></trkpt><trkpt lat="59.2581081390" lon="30.6881833076"><time>2026-09-01T13:20:53Z</time></trkpt><trkpt lat="59.2581081390" lon="30.6881833076"><time>2026-09-01T13:20:55Z</time></trkpt><trkpt lat="59.2581295967" lon="30.6882047653"><time>2026-09-01T13:20:58Z</time></trkpt><trkpt lat="59.2581295967" lon="30.6882262230"><time>2026-09-01T13:21:00Z</time></trkpt><trkpt lat="59.2581295967" lon="30.6882262230"><time>2026-09-01T13:21:03Z</time></trkpt><trkpt lat="59.2581295967" lon="30.6882047653"><time>2026-09-01T13:21:05Z</time></trkpt><trkpt lat="59.2581081390" lon="30.6881833076"><time>2026-09-01T13:21:08Z</time></trkpt><trkpt lat="59.2581081390" lon="30.6882047653"><time>2026-09-01T13:21:10Z</time></trkpt><trkpt lat="59.2580866814" lon="30.6882047653"><time>2026-09-01T13:21:13Z</time></trkpt><trkpt lat="59.2581081390" lon="30.6882047653"><time>2026-09-01T13:21:15Z</time></trkpt><trkpt lat="59.2581081390" lon="30.6882047653"><time>2026-09-01T13:21:18Z</time></trkpt><trkpt lat="59.2580866814" lon="30.6882476807"><time>2026-09-01T13:21:20Z</time></trkpt><trkpt lat="59.2580866814" lon="30.6882476807"><time>2026-09-01T13:21:23Z</time></trkpt><trkpt lat="59.2580437660" lon="30.6882262230"><time>2026-09-01T13:21:25Z</time></trkpt><trkpt lat="59.2580223083" lon="30.6882262230"><time>2026-09-01T13:21:28Z</time></trkpt><trkpt lat="59.2580437660" lon="30.6882262230"><time>2026-09-01T13:21:30Z</time></trkpt><trkpt lat="59.2580437660" lon="30.6882262230"><time>2026-09-01T13:21:33Z</time></trkpt><trkpt lat="59.2580437660" lon="30.6882047653"><time>2026-09-01T13:21:35Z</time></trkpt><trkpt lat="59.2580437660" lon="30.6881833076"><time>2026-09-01T13:21:38Z</time></trkpt><trkpt lat="59.2580437660" lon="30.6881618500"><time>2026-09-01T13:21:40Z</time></trkpt><trkpt lat="59.2580437660" lon="30.6881833076"><time>2026-09-01T13:21:43Z</time></trkpt><trkpt lat="59.2580008507" lon="30.6881833076"><time>2026-09-01T13:21:45Z</time></trkpt><trkpt lat="59.2579793930" lon="30.6881833076"><time>2026-09-01T13:21:48Z</time></trkpt><trkpt lat="59.2579579353" lon="30.6881618500"><time>2026-09-01T13:21:50Z</time></trkpt><trkpt lat="59.2579579353" lon="30.6881833076"><time>2026-09-01T13:21:53Z</time></trkpt><trkpt lat="59.2579579353" lon="30.6881833076"><time>2026-09-01T13:21:55Z</time></trkpt><trkpt lat="59.2579579353" lon="30.6881833076"><time>2026-09-01T13:21:58Z</time></trkpt><trkpt lat="59.2579579353" lon="30.6881833076"><time>2026-09-01T13:22:00Z</time></trkpt><trkpt lat="59.2579579353" lon="30.6881833076"><time>2026-09-01T13:22:03Z</time></trkpt><trkpt lat="59.2579364777" lon="30.6882047653"><time>2026-09-01T13:22:05Z</time></trkpt><trkpt lat="59.2579364777" lon="30.6882047653"><time>2026-09-01T13:22:08Z</time></trkpt><trkpt lat="59.2579364777" lon="30.6882047653"><time>2026-09-01T13:22:10Z</time></trkpt><trkpt lat="59.2579364777" lon="30.6882047653"><time>2026-09-01T13:22:13Z</time></trkpt><trkpt lat="59.2579364777" lon="30.6882047653"><time>2026-09-01T13:22:15Z</time></trkpt><trkpt lat="59.2579364777" lon="30.6882047653"><time>2026-09-01T13:22:18Z</time></trkpt><trkpt lat="59.2579364777" lon="30.6882047653"><time>2026-09-01T13:22:20Z</time></trkpt><trkpt lat="59.2579364777" lon="30.6882047653"><time>2026-09-01T13:22:23Z</time></trkpt><trkpt lat="59.2578935623" lon="30.6882047653"><time>2026-09-01T13:22:25Z</time></trkpt><trkpt lat="59.2578721046" lon="30.6882476807"><time>2026-09-01T13:22:28Z</time></trkpt><trkpt lat="59.2578506470" lon="30.6882691383"><time>2026-09-01T13:22:30Z</time></trkpt><trkpt lat="59.2578291893" lon="30.6882691383"><time>2026-09-01T13:22:33Z</time></trkpt><trkpt lat="59.2577862740" lon="30.6882476807"><time>2026-09-01T13:22:35Z</time></trkpt><trkpt lat="59.2577862740" lon="30.6882691383"><time>2026-09-01T13:22:38Z</time></trkpt><trkpt lat="59.2577862740" lon="30.6882905960"><time>2026-09-01T13:22:40Z</time></trkpt><trkpt lat="59.2577862740" lon="30.6882905960"><time>2026-09-01T13:22:43Z</time></trkpt><trkpt lat="59.2577862740" lon="30.6883120537"><time>2026-09-01T13:22:45Z</time></trkpt><trkpt lat="59.2577433586" lon="30.6883120537"><time>2026-09-01T13:22:48Z</time></trkpt><trkpt lat="59.2577219009" lon="30.6883335114"><time>2026-09-01T13:22:50Z</time></trkpt><trkpt lat="59.2577219009" lon="30.6883335114"><time>2026-09-01T13:22:53Z</time></trkpt><trkpt lat="59.2577219009" lon="30.6883120537"><time>2026-09-01T13:22:55Z</time></trkpt><trkpt lat="59.2577219009" lon="30.6883120537"><time>2026-09-01T13:22:58Z</time></trkpt><trkpt lat="59.2577219009" lon="30.6883335114"><time>2026-09-01T13:23:00Z</time></trkpt><trkpt lat="59.2577219009" lon="30.6883335114"><time>2026-09-01T13:23:03Z</time></trkpt><trkpt lat="59.2577219009" lon="30.6883764267"><time>2026-09-01T13:23:05Z</time></trkpt><trkpt lat="59.2577219009" lon="30.6883978844"><time>2026-09-01T13:23:08Z</time></trkpt><trkpt lat="59.2577219009" lon="30.6883764267"><time>2026-09-01T13:23:10Z</time></trkpt><trkpt lat="59.2577219009" lon="30.6883764267"><time>2026-09-01T13:23:13Z</time></trkpt><trkpt lat="59.2577219009" lon="30.6883764267"><time>2026-09-01T13:23:15Z</time></trkpt><trkpt lat="59.2577219009" lon="30.6883978844"><time>2026-09-01T13:23:18Z</time></trkpt><trkpt lat="59.2577219009" lon="30.6883978844"><time>2026-09-01T13:23:20Z</time></trkpt><trkpt lat="59.2577219009" lon="30.6884622574"><time>2026-09-01T13:23:23Z</time></trkpt><trkpt lat="59.2577219009" lon="30.6884837151"><time>2026-09-01T13:23:25Z</time></trkpt><trkpt lat="59.2577219009" lon="30.6884837151"><time>2026-09-01T13:23:28Z</time></trkpt><trkpt lat="59.2577219009" lon="30.6884837151"><time>2026-09-01T13:23:30Z</time></trkpt><trkpt lat="59.2577219009" lon="30.6884837151"><time>2026-09-01T13:23:33Z</time></trkpt><trkpt lat="59.2577219009" lon="30.6884837151"><time>2026-09-01T13:23:35Z</time></trkpt><trkpt lat="59.2577219009" lon="30.6884837151"><time>2026-09-01T13:23:38Z</time></trkpt><trkpt lat="59.2577219009" lon="30.6884837151"><time>2026-09-01T13:23:40Z</time></trkpt><trkpt lat="59.2577219009" lon="30.6884837151"><time>2026-09-01T13:23:43Z</time></trkpt><trkpt lat="59.2577219009" lon="30.6884837151"><time>2026-09-01T13:23:45Z</time></trkpt><trkpt lat="59.2577219009" lon="30.6884837151"><time>2026-09-01T13:23:48Z</time></trkpt><trkpt lat="59.2577219009" lon="30.6884837151"><time>2026-09-01T13:23:50Z</time></trkpt><trkpt lat="59.2577219009" lon="30.6884837151"><time>2026-09-01T13:23:53Z</time></trkpt><trkpt lat="59.2577219009" lon="30.6884837151"><time>2026-09-01T13:23:55Z</time></trkpt><trkpt lat="59.2577219009" lon="30.6884837151"><time>2026-09-01T13:23:58Z</time></trkpt><trkpt lat="59.2577219009" lon="30.6884837151"><time>2026-09-01T13:24:00Z</time></trkpt><trkpt lat="59.2577219009" lon="30.6884837151"><time>2026-09-01T13:24:03Z</time></trkpt><trkpt lat="59.2577219009" lon="30.6884837151"><time>2026-09-01T13:24:05Z</time></trkpt><trkpt lat="59.2577219009" lon="30.6884837151"><time>2026-09-01T13:24:08Z</time></trkpt><trkpt lat="59.2577219009" lon="30.6884837151"><time>2026-09-01T13:24:10Z</time></trkpt><trkpt lat="59.2577219009" lon="30.6884837151"><time>2026-09-01T13:24:13Z</time></trkpt><trkpt lat="59.2577219009" lon="30.6884837151"><time>2026-09-01T13:24:15Z</time></trkpt><trkpt lat="59.2577219009" lon="30.6884837151"><time>2026-09-01T13:24:18Z</time></trkpt><trkpt lat="59.2577219009" lon="30.6884837151"><time>2026-09-01T13:24:20Z</time></trkpt><trkpt lat="59.2577219009" lon="30.6884837151"><time>2026-09-01T13:24:23Z</time></trkpt><trkpt lat="59.2577219009" lon="30.6884837151"><time>2026-09-01T13:24:25Z</time></trkpt><trkpt lat="59.2577219009" lon="30.6884837151"><time>2026-09-01T13:24:28Z</time></trkpt><trkpt lat="59.2577219009" lon="30.6884837151"><time>2026-09-01T13:24:30Z</time></trkpt><trkpt lat="59.2577219009" lon="30.6884837151"><time>2026-09-01T13:24:33Z</time></trkpt><trkpt lat="59.2577219009" lon="30.6884837151"><time>2026-09-01T13:24:35Z</time></trkpt><trkpt lat="59.2577219009" lon="30.6884837151"><time>2026-09-01T13:24:38Z</time></trkpt><trkpt lat="59.2577219009" lon="30.6884837151"><time>2026-09-01T13:24:40Z</time></trkpt><trkpt lat="59.2577219009" lon="30.6884837151"><time>2026-09-01T13:24:43Z</time></trkpt><trkpt lat="59.2577219009" lon="30.6884837151"><time>2026-09-01T13:24:45Z</time></trkpt><trkpt lat="59.2577219009" lon="30.6884837151"><time>2026-09-01T13:24:48Z</time></trkpt><trkpt lat="59.2577219009" lon="30.6884837151"><time>2026-09-01T13:24:50Z</time></trkpt><trkpt lat="59.2577219009" lon="30.6884837151"><time>2026-09-01T13:24:53Z</time></trkpt><trkpt lat="59.2577219009" lon="30.6884837151"><time>2026-09-01T13:24:55Z</time></trkpt><trkpt lat="59.2577219009" lon="30.6884837151"><time>2026-09-01T13:24:58Z</time></trkpt><trkpt lat="59.2577219009" lon="30.6884837151"><time>2026-09-01T13:25:00Z</time></trkpt><trkpt lat="59.2577219009" lon="30.6884837151"><time>2026-09-01T13:25:03Z</time></trkpt><trkpt lat="59.2577219009" lon="30.6884837151"><time>2026-09-01T13:25:05Z</time></trkpt><trkpt lat="59.2577219009" lon="30.6884837151"><time>2026-09-01T13:25:08Z</time></trkpt><trkpt lat="59.2577219009" lon="30.6884837151"><time>2026-09-01T13:25:10Z</time></trkpt><trkpt lat="59.2577219009" lon="30.6884837151"><time>2026-09-01T13:25:13Z</time></trkpt><trkpt lat="59.2577219009" lon="30.6884837151"><time>2026-09-01T13:25:15Z</time></trkpt><trkpt lat="59.2577219009" lon="30.6884837151"><time>2026-09-01T13:25:18Z</time></trkpt><trkpt lat="59.2577219009" lon="30.6884837151"><time>2026-09-01T13:25:20Z</time></trkpt><trkpt lat="59.2577219009" lon="30.6884837151"><time>2026-09-01T13:25:23Z</time></trkpt><trkpt lat="59.2577219009" lon="30.6884837151"><time>2026-09-01T13:25:25Z</time></trkpt><trkpt lat="59.2577219009" lon="30.6884837151"><time>2026-09-01T13:25:28Z</time></trkpt><trkpt lat="59.2577219009" lon="30.6884837151"><time>2026-09-01T13:25:30Z</time></trkpt><trkpt lat="59.2577219009" lon="30.6885051727"><time>2026-09-01T13:25:33Z</time></trkpt><trkpt lat="59.2577219009" lon="30.6885051727"><time>2026-09-01T13:25:35Z</time></trkpt><trkpt lat="59.2577219009" lon="30.6885051727"><time>2026-09-01T13:25:38Z</time></trkpt><trkpt lat="59.2577219009" lon="30.6885051727"><time>2026-09-01T13:25:40Z</time></trkpt><trkpt lat="59.2577219009" lon="30.6885051727"><time>2026-09-01T13:25:43Z</time></trkpt><trkpt lat="59.2577219009" lon="30.6885051727"><time>2026-09-01T13:25:45Z</time></trkpt><trkpt lat="59.2577219009" lon="30.6885266304"><time>2026-09-01T13:25:48Z</time></trkpt><trkpt lat="59.2577219009" lon="30.6885266304"><time>2026-09-01T13:25:50Z</time></trkpt><trkpt lat="59.2577219009" lon="30.6885266304"><time>2026-09-01T13:25:53Z</time></trkpt><trkpt lat="59.2577219009" lon="30.6885266304"><time>2026-09-01T13:25:55Z</time></trkpt><trkpt lat="59.2577219009" lon="30.6885266304"><time>2026-09-01T13:25:58Z</time></trkpt><trkpt lat="59.2577219009" lon="30.6885266304"><time>2026-09-01T13:26:00Z</time></trkpt><trkpt lat="59.2577219009" lon="30.6885266304"><time>2026-09-01T13:26:03Z</time></trkpt><trkpt lat="59.2577219009" lon="30.6885266304"><time>2026-09-01T13:26:05Z</time></trkpt><trkpt lat="59.2577219009" lon="30.6885266304"><time>2026-09-01T13:26:08Z</time></trkpt><trkpt lat="59.2577219009" lon="30.6885266304"><time>2026-09-01T13:26:10Z</time></trkpt><trkpt lat="59.2577219009" lon="30.6885266304"><time>2026-09-01T13:26:13Z</time></trkpt><trkpt lat="59.2577219009" lon="30.6885266304"><time>2026-09-01T13:26:15Z</time></trkpt><trkpt lat="59.2577004433" lon="30.6885480881"><time>2026-09-01T13:26:18Z</time></trkpt><trkpt lat="59.2577004433" lon="30.6885480881"><time>2026-09-01T13:26:20Z</time></trkpt><trkpt lat="59.2577004433" lon="30.6885480881"><time>2026-09-01T13:26:23Z</time></trkpt><trkpt lat="59.2577219009" lon="30.6885480881"><time>2026-09-01T13:26:25Z</time></trkpt><trkpt lat="59.2577219009" lon="30.6885480881"><time>2026-09-01T13:26:28Z</time></trkpt><trkpt lat="59.2577219009" lon="30.6885480881"><time>2026-09-01T13:26:30Z</time></trkpt><trkpt lat="59.2577219009" lon="30.6885480881"><time>2026-09-01T13:26:33Z</time></trkpt><trkpt lat="59.2577219009" lon="30.6885480881"><time>2026-09-01T13:26:35Z</time></trkpt><trkpt lat="59.2577219009" lon="30.6885480881"><time>2026-09-01T13:26:38Z</time></trkpt><trkpt lat="59.2577219009" lon="30.6885480881"><time>2026-09-01T13:26:40Z</time></trkpt><trkpt lat="59.2577219009" lon="30.6885480881"><time>2026-09-01T13:26:43Z</time></trkpt><trkpt lat="59.2577219009" lon="30.6885480881"><time>2026-09-01T13:26:45Z</time></trkpt><trkpt lat="59.2577219009" lon="30.6885480881"><time>2026-09-01T13:26:48Z</time></trkpt><trkpt lat="59.2577219009" lon="30.6885480881"><time>2026-09-01T13:26:50Z</time></trkpt><trkpt lat="59.2577219009" lon="30.6885480881"><time>2026-09-01T13:26:53Z</time></trkpt><trkpt lat="59.2577219009" lon="30.6885480881"><time>2026-09-01T13:26:55Z</time></trkpt><trkpt lat="59.2577219009" lon="30.6885480881"><time>2026-09-01T13:26:58Z</time></trkpt><trkpt lat="59.2577219009" lon="30.6885480881"><time>2026-09-01T13:27:00Z</time></trkpt><trkpt lat="59.2577219009" lon="30.6885266304"><time>2026-09-01T13:27:03Z</time></trkpt><trkpt lat="59.2577219009" lon="30.6885480881"><time>2026-09-01T13:27:05Z</time></trkpt><trkpt lat="59.2577219009" lon="30.6885480881"><time>2026-09-01T13:27:08Z</time></trkpt><trkpt lat="59.2577219009" lon="30.6885480881"><time>2026-09-01T13:27:10Z</time></trkpt><trkpt lat="59.2577219009" lon="30.6885480881"><time>2026-09-01T13:27:13Z</time></trkpt><trkpt lat="59.2577219009" lon="30.6885480881"><time>2026-09-01T13:27:15Z</time></trkpt><trkpt lat="59.2577219009" lon="30.6885480881"><time>2026-09-01T13:27:18Z</time></trkpt><trkpt lat="59.2577219009" lon="30.6885480881"><time>2026-09-01T13:27:20Z</time></trkpt><trkpt lat="59.2577219009" lon="30.6885480881"><time>2026-09-01T13:27:23Z</time></trkpt><trkpt lat="59.2577219009" lon="30.6885480881"><time>2026-09-01T13:27:25Z</time></trkpt><trkpt lat="59.2577219009" lon="30.6885480881"><time>2026-09-01T13:27:28Z</time></trkpt><trkpt lat="59.2577219009" lon="30.6885480881"><time>2026-09-01T13:27:30Z</time></trkpt><trkpt lat="59.2577219009" lon="30.6885480881"><time>2026-09-01T13:27:33Z</time></trkpt><trkpt lat="59.2577219009" lon="30.6885480881"><time>2026-09-01T13:27:35Z</time></trkpt><trkpt lat="59.2577219009" lon="30.6885480881"><time>2026-09-01T13:27:38Z</time></trkpt><trkpt lat="59.2577219009" lon="30.6885480881"><time>2026-09-01T13:27:40Z</time></trkpt><trkpt lat="59.2577219009" lon="30.6885480881"><time>2026-09-01T13:27:43Z</time></trkpt><trkpt lat="59.2577219009" lon="30.6885266304"><time>2026-09-01T13:27:45Z</time></trkpt><trkpt lat="59.2577219009" lon="30.6885266304"><time>2026-09-01T13:27:48Z</time></trkpt><trkpt lat="59.2577219009" lon="30.6885266304"><time>2026-09-01T13:27:50Z</time></trkpt><trkpt lat="59.2577219009" lon="30.6885480881"><time>2026-09-01T13:27:53Z</time></trkpt><trkpt lat="59.2577219009" lon="30.6885480881"><time>2026-09-01T13:27:55Z</time></trkpt><trkpt lat="59.2577219009" lon="30.6885480881"><time>2026-09-01T13:27:58Z</time></trkpt><trkpt lat="59.2577219009" lon="30.6885480881"><time>2026-09-01T13:28:00Z</time></trkpt><trkpt lat="59.2577219009" lon="30.6885266304"><time>2026-09-01T13:28:03Z</time></trkpt><trkpt lat="59.2577219009" lon="30.6885266304"><time>2026-09-01T13:28:05Z</time></trkpt><trkpt lat="59.2577433586" lon="30.6885266304"><time>2026-09-01T13:28:08Z</time></trkpt><trkpt lat="59.2577433586" lon="30.6885266304"><time>2026-09-01T13:28:10Z</time></trkpt><trkpt lat="59.2577433586" lon="30.6885266304"><time>2026-09-01T13:28:15Z</time></trkpt><trkpt lat="59.2577433586" lon="30.6885266304"><time>2026-09-01T13:28:18Z</time></trkpt><trkpt lat="59.2577433586" lon="30.6885266304"><time>2026-09-01T13:28:20Z</time></trkpt><trkpt lat="59.2577433586" lon="30.6885266304"><time>2026-09-01T13:28:23Z</time></trkpt><trkpt lat="59.2577433586" lon="30.6885266304"><time>2026-09-01T13:28:25Z</time></trkpt><trkpt lat="59.2577433586" lon="30.6885266304"><time>2026-09-01T13:28:28Z</time></trkpt><trkpt lat="59.2577433586" lon="30.6885266304"><time>2026-09-01T13:28:30Z</time></trkpt><trkpt lat="59.2577433586" lon="30.6885266304"><time>2026-09-01T13:28:33Z</time></trkpt><trkpt lat="59.2577433586" lon="30.6885266304"><time>2026-09-01T13:28:35Z</time></trkpt><trkpt lat="59.2577219009" lon="30.6885480881"><time>2026-09-01T13:28:38Z</time></trkpt><trkpt lat="59.2577219009" lon="30.6885266304"><time>2026-09-01T13:28:40Z</time></trkpt><trkpt lat="59.2577219009" lon="30.6885480881"><time>2026-09-01T13:28:43Z</time></trkpt><trkpt lat="59.2577004433" lon="30.6885266304"><time>2026-09-01T13:28:45Z</time></trkpt><trkpt lat="59.2577004433" lon="30.6885266304"><time>2026-09-01T13:28:48Z</time></trkpt><trkpt lat="59.2576789856" lon="30.6885266304"><time>2026-09-01T13:28:50Z</time></trkpt><trkpt lat="59.2576789856" lon="30.6885480881"><time>2026-09-01T13:28:53Z</time></trkpt><trkpt lat="59.2576789856" lon="30.6885480881"><time>2026-09-01T13:28:55Z</time></trkpt><trkpt lat="59.2576789856" lon="30.6885695457"><time>2026-09-01T13:28:58Z</time></trkpt><trkpt lat="59.2576789856" lon="30.6885480881"><time>2026-09-01T13:29:00Z</time></trkpt><trkpt lat="59.2576789856" lon="30.6885480881"><time>2026-09-01T13:29:03Z</time></trkpt><trkpt lat="59.2576789856" lon="30.6885480881"><time>2026-09-01T13:29:05Z</time></trkpt><trkpt lat="59.2576789856" lon="30.6885266304"><time>2026-09-01T13:29:08Z</time></trkpt><trkpt lat="59.2576789856" lon="30.6885266304"><time>2026-09-01T13:29:10Z</time></trkpt><trkpt lat="59.2576789856" lon="30.6885266304"><time>2026-09-01T13:29:13Z</time></trkpt><trkpt lat="59.2576789856" lon="30.6885266304"><time>2026-09-01T13:29:15Z</time></trkpt><trkpt lat="59.2576789856" lon="30.6885266304"><time>2026-09-01T13:29:18Z</time></trkpt><trkpt lat="59.2576575279" lon="30.6885051727"><time>2026-09-01T13:29:20Z</time></trkpt><trkpt lat="59.2576575279" lon="30.6885051727"><time>2026-09-01T13:29:23Z</time></trkpt><trkpt lat="59.2576575279" lon="30.6885051727"><time>2026-09-01T13:29:25Z</time></trkpt><trkpt lat="59.2576575279" lon="30.6885051727"><time>2026-09-01T13:29:28Z</time></trkpt><trkpt lat="59.2576575279" lon="30.6884837151"><time>2026-09-01T13:29:30Z</time></trkpt><trkpt lat="59.2576575279" lon="30.6884837151"><time>2026-09-01T13:29:33Z</time></trkpt><trkpt lat="59.2576575279" lon="30.6884837151"><time>2026-09-01T13:29:35Z</time></trkpt><trkpt lat="59.2576360703" lon="30.6884622574"><time>2026-09-01T13:29:38Z</time></trkpt><trkpt lat="59.2576360703" lon="30.6884622574"><time>2026-09-01T13:29:40Z</time></trkpt><trkpt lat="59.2576146126" lon="30.6884837151"><time>2026-09-01T13:29:43Z</time></trkpt><trkpt lat="59.2575931549" lon="30.6885695457"><time>2026-09-01T13:29:45Z</time></trkpt><trkpt lat="59.2575502396" lon="30.6886339188"><time>2026-09-01T13:29:48Z</time></trkpt><trkpt lat="59.2575502396" lon="30.6886339188"><time>2026-09-01T13:29:50Z</time></trkpt><trkpt lat="59.2575502396" lon="30.6885910034"><time>2026-09-01T13:29:53Z</time></trkpt><trkpt lat="59.2575287819" lon="30.6885695457"><time>2026-09-01T13:29:55Z</time></trkpt><trkpt lat="59.2575073242" lon="30.6885910034"><time>2026-09-01T13:29:58Z</time></trkpt><trkpt lat="59.2574644089" lon="30.6885910034"><time>2026-09-01T13:30:00Z</time></trkpt><trkpt lat="59.2574429512" lon="30.6886124611"><time>2026-09-01T13:30:03Z</time></trkpt><trkpt lat="59.2574429512" lon="30.6886124611"><time>2026-09-01T13:30:05Z</time></trkpt><trkpt lat="59.2574429512" lon="30.6886124611"><time>2026-09-01T13:30:08Z</time></trkpt><trkpt lat="59.2574214935" lon="30.6885910034"><time>2026-09-01T13:30:10Z</time></trkpt><trkpt lat="59.2574214935" lon="30.6885910034"><time>2026-09-01T13:30:13Z</time></trkpt><trkpt lat="59.2574214935" lon="30.6885910034"><time>2026-09-01T13:30:15Z</time></trkpt><trkpt lat="59.2574214935" lon="30.6885910034"><time>2026-09-01T13:30:18Z</time></trkpt><trkpt lat="59.2574214935" lon="30.6885480881"><time>2026-09-01T13:30:20Z</time></trkpt><trkpt lat="59.2574000359" lon="30.6885266304"><time>2026-09-01T13:30:23Z</time></trkpt><trkpt lat="59.2574000359" lon="30.6885266304"><time>2026-09-01T13:30:25Z</time></trkpt><trkpt lat="59.2574000359" lon="30.6885266304"><time>2026-09-01T13:30:28Z</time></trkpt><trkpt lat="59.2574000359" lon="30.6885266304"><time>2026-09-01T13:30:30Z</time></trkpt><trkpt lat="59.2573785782" lon="30.6884622574"><time>2026-09-01T13:30:33Z</time></trkpt><trkpt lat="59.2573571205" lon="30.6883978844"><time>2026-09-01T13:30:35Z</time></trkpt><trkpt lat="59.2573356628" lon="30.6883120537"><time>2026-09-01T13:30:38Z</time></trkpt><trkpt lat="59.2573356628" lon="30.6883120537"><time>2026-09-01T13:30:40Z</time></trkpt><trkpt lat="59.2573142052" lon="30.6882691383"><time>2026-09-01T13:30:43Z</time></trkpt><trkpt lat="59.2573142052" lon="30.6882476807"><time>2026-09-01T13:30:45Z</time></trkpt><trkpt lat="59.2572927475" lon="30.6882047653"><time>2026-09-01T13:30:48Z</time></trkpt><trkpt lat="59.2572712898" lon="30.6880974770"><time>2026-09-01T13:30:50Z</time></trkpt><trkpt lat="59.2572712898" lon="30.6880116463"><time>2026-09-01T13:30:53Z</time></trkpt><trkpt lat="59.2572712898" lon="30.6879901886"><time>2026-09-01T13:30:55Z</time></trkpt><trkpt lat="59.2572712898" lon="30.6880545616"><time>2026-09-01T13:30:58Z</time></trkpt><trkpt lat="59.2572927475" lon="30.6881833076"><time>2026-09-01T13:31:00Z</time></trkpt><trkpt lat="59.2572712898" lon="30.6882476807"><time>2026-09-01T13:31:03Z</time></trkpt><trkpt lat="59.2572498322" lon="30.6882905960"><time>2026-09-01T13:31:05Z</time></trkpt><trkpt lat="59.2572498322" lon="30.6882905960"><time>2026-09-01T13:31:08Z</time></trkpt><trkpt lat="59.2572498322" lon="30.6882905960"><time>2026-09-01T13:31:10Z</time></trkpt><trkpt lat="59.2572498322" lon="30.6882905960"><time>2026-09-01T13:31:13Z</time></trkpt><trkpt lat="59.2572283745" lon="30.6883120537"><time>2026-09-01T13:31:15Z</time></trkpt><trkpt lat="59.2572069168" lon="30.6883335114"><time>2026-09-01T13:31:18Z</time></trkpt><trkpt lat="59.2571854591" lon="30.6883764267"><time>2026-09-01T13:31:20Z</time></trkpt><trkpt lat="59.2571854591" lon="30.6883978844"><time>2026-09-01T13:31:23Z</time></trkpt><trkpt lat="59.2571854591" lon="30.6884193420"><time>2026-09-01T13:31:25Z</time></trkpt><trkpt lat="59.2571854591" lon="30.6884193420"><time>2026-09-01T13:31:28Z</time></trkpt><trkpt lat="59.2571854591" lon="30.6884193420"><time>2026-09-01T13:31:30Z</time></trkpt><trkpt lat="59.2571854591" lon="30.6884193420"><time>2026-09-01T13:31:33Z</time></trkpt><trkpt lat="59.2571854591" lon="30.6884193420"><time>2026-09-01T13:31:35Z</time></trkpt><trkpt lat="59.2571854591" lon="30.6884193420"><time>2026-09-01T13:31:38Z</time></trkpt><trkpt lat="59.2571854591" lon="30.6883978844"><time>2026-09-01T13:31:40Z</time></trkpt><trkpt lat="59.2571854591" lon="30.6883978844"><time>2026-09-01T13:31:43Z</time></trkpt><trkpt lat="59.2571854591" lon="30.6883978844"><time>2026-09-01T13:31:45Z</time></trkpt><trkpt lat="59.2571854591" lon="30.6883978844"><time>2026-09-01T13:31:48Z</time></trkpt><trkpt lat="59.2571640015" lon="30.6883978844"><time>2026-09-01T13:31:50Z</time></trkpt><trkpt lat="59.2571640015" lon="30.6883978844"><time>2026-09-01T13:31:53Z</time></trkpt><trkpt lat="59.2571640015" lon="30.6883978844"><time>2026-09-01T13:31:55Z</time></trkpt><trkpt lat="59.2571425438" lon="30.6883764267"><time>2026-09-01T13:31:58Z</time></trkpt><trkpt lat="59.2571210861" lon="30.6883764267"><time>2026-09-01T13:32:00Z</time></trkpt><trkpt lat="59.2570996284" lon="30.6883978844"><time>2026-09-01T13:32:03Z</time></trkpt><trkpt lat="59.2570996284" lon="30.6884193420"><time>2026-09-01T13:32:05Z</time></trkpt><trkpt lat="59.2570781708" lon="30.6883978844"><time>2026-09-01T13:32:08Z</time></trkpt><trkpt lat="59.2570781708" lon="30.6883549690"><time>2026-09-01T13:32:10Z</time></trkpt><trkpt lat="59.2570567131" lon="30.6883335114"><time>2026-09-01T13:32:13Z</time></trkpt><trkpt lat="59.2570352554" lon="30.6882905960"><time>2026-09-01T13:32:15Z</time></trkpt><trkpt lat="59.2570137978" lon="30.6882905960"><time>2026-09-01T13:32:18Z</time></trkpt><trkpt lat="59.2570137978" lon="30.6882905960"><time>2026-09-01T13:32:20Z</time></trkpt><trkpt lat="59.2569923401" lon="30.6883120537"><time>2026-09-01T13:32:23Z</time></trkpt><trkpt lat="59.2569708824" lon="30.6883120537"><time>2026-09-01T13:32:25Z</time></trkpt><trkpt lat="59.2569708824" lon="30.6883120537"><time>2026-09-01T13:32:28Z</time></trkpt><trkpt lat="59.2569494247" lon="30.6883120537"><time>2026-09-01T13:32:30Z</time></trkpt><trkpt lat="59.2569494247" lon="30.6883549690"><time>2026-09-01T13:32:33Z</time></trkpt><trkpt lat="59.2569065094" lon="30.6883764267"><time>2026-09-01T13:32:35Z</time></trkpt><trkpt lat="59.2568850517" lon="30.6883764267"><time>2026-09-01T13:32:38Z</time></trkpt><trkpt lat="59.2568850517" lon="30.6883978844"><time>2026-09-01T13:32:40Z</time></trkpt><trkpt lat="59.2568635941" lon="30.6884193420"><time>2026-09-01T13:32:43Z</time></trkpt><trkpt lat="59.2568421364" lon="30.6884407997"><time>2026-09-01T13:32:45Z</time></trkpt><trkpt lat="59.2568421364" lon="30.6884622574"><time>2026-09-01T13:32:48Z</time></trkpt><trkpt lat="59.2568206787" lon="30.6884837151"><time>2026-09-01T13:32:50Z</time></trkpt><trkpt lat="59.2567992210" lon="30.6884837151"><time>2026-09-01T13:32:53Z</time></trkpt><trkpt lat="59.2567992210" lon="30.6884837151"><time>2026-09-01T13:32:55Z</time></trkpt><trkpt lat="59.2567777634" lon="30.6884622574"><time>2026-09-01T13:32:58Z</time></trkpt><trkpt lat="59.2567563057" lon="30.6884837151"><time>2026-09-01T13:33:00Z</time></trkpt><trkpt lat="59.2567348480" lon="30.6885266304"><time>2026-09-01T13:33:03Z</time></trkpt><trkpt lat="59.2567133904" lon="30.6885480881"><time>2026-09-01T13:33:05Z</time></trkpt><trkpt lat="59.2567133904" lon="30.6885480881"><time>2026-09-01T13:33:08Z</time></trkpt><trkpt lat="59.2566919327" lon="30.6885695457"><time>2026-09-01T13:33:10Z</time></trkpt><trkpt lat="59.2566919327" lon="30.6885910034"><time>2026-09-01T13:33:13Z</time></trkpt><trkpt lat="59.2566704750" lon="30.6886553764"><time>2026-09-01T13:33:15Z</time></trkpt><trkpt lat="59.2566704750" lon="30.6886982918"><time>2026-09-01T13:33:18Z</time></trkpt><trkpt lat="59.2566275597" lon="30.6887412071"><time>2026-09-01T13:33:20Z</time></trkpt><trkpt lat="59.2566275597" lon="30.6887412071"><time>2026-09-01T13:33:23Z</time></trkpt><trkpt lat="59.2566061020" lon="30.6888055801"><time>2026-09-01T13:33:25Z</time></trkpt><trkpt lat="59.2565846443" lon="30.6888055801"><time>2026-09-01T13:33:28Z</time></trkpt><trkpt lat="59.2565846443" lon="30.6888484955"><time>2026-09-01T13:33:30Z</time></trkpt><trkpt lat="59.2565846443" lon="30.6888914108"><time>2026-09-01T13:33:33Z</time></trkpt><trkpt lat="59.2565631866" lon="30.6889128685"><time>2026-09-01T13:33:35Z</time></trkpt><trkpt lat="59.2565631866" lon="30.6889557838"><time>2026-09-01T13:33:38Z</time></trkpt><trkpt lat="59.2565417290" lon="30.6890630722"><time>2026-09-01T13:33:40Z</time></trkpt><trkpt lat="59.2565417290" lon="30.6891059875"><time>2026-09-01T13:33:43Z</time></trkpt><trkpt lat="59.2565417290" lon="30.6891059875"><time>2026-09-01T13:33:45Z</time></trkpt><trkpt lat="59.2565417290" lon="30.6891059875"><time>2026-09-01T13:33:48Z</time></trkpt><trkpt lat="59.2565202713" lon="30.6891059875"><time>2026-09-01T13:33:50Z</time></trkpt><trkpt lat="59.2565202713" lon="30.6891059875"><time>2026-09-01T13:33:53Z</time></trkpt><trkpt lat="59.2565202713" lon="30.6890845299"><time>2026-09-01T13:33:55Z</time></trkpt><trkpt lat="59.2565202713" lon="30.6890845299"><time>2026-09-01T13:33:58Z</time></trkpt><trkpt lat="59.2564773560" lon="30.6890416145"><time>2026-09-01T13:34:00Z</time></trkpt><trkpt lat="59.2564773560" lon="30.6890201569"><time>2026-09-01T13:34:03Z</time></trkpt><trkpt lat="59.2564558983" lon="30.6889986992"><time>2026-09-01T13:34:05Z</time></trkpt><trkpt lat="59.2564344406" lon="30.6889772415"><time>2026-09-01T13:34:08Z</time></trkpt><trkpt lat="59.2564129829" lon="30.6889557838"><time>2026-09-01T13:34:10Z</time></trkpt><trkpt lat="59.2564129829" lon="30.6889557838"><time>2026-09-01T13:34:13Z</time></trkpt><trkpt lat="59.2564129829" lon="30.6889557838"><time>2026-09-01T13:34:15Z</time></trkpt><trkpt lat="59.2563915253" lon="30.6889343262"><time>2026-09-01T13:34:18Z</time></trkpt><trkpt lat="59.2563915253" lon="30.6889343262"><time>2026-09-01T13:34:20Z</time></trkpt><trkpt lat="59.2563915253" lon="30.6889343262"><time>2026-09-01T13:34:23Z</time></trkpt><trkpt lat="59.2563915253" lon="30.6889343262"><time>2026-09-01T13:34:25Z</time></trkpt><trkpt lat="59.2563915253" lon="30.6889343262"><time>2026-09-01T13:34:28Z</time></trkpt><trkpt lat="59.2563915253" lon="30.6889128685"><time>2026-09-01T13:34:30Z</time></trkpt><trkpt lat="59.2563486099" lon="30.6888914108"><time>2026-09-01T13:34:33Z</time></trkpt><trkpt lat="59.2563486099" lon="30.6888914108"><time>2026-09-01T13:34:35Z</time></trkpt><trkpt lat="59.2563486099" lon="30.6888914108"><time>2026-09-01T13:34:38Z</time></trkpt><trkpt lat="59.2563486099" lon="30.6888914108"><time>2026-09-01T13:34:40Z</time></trkpt><trkpt lat="59.2563486099" lon="30.6888914108"><time>2026-09-01T13:34:43Z</time></trkpt><trkpt lat="59.2563486099" lon="30.6888914108"><time>2026-09-01T13:34:45Z</time></trkpt><trkpt lat="59.2563486099" lon="30.6888914108"><time>2026-09-01T13:34:48Z</time></trkpt><trkpt lat="59.2563486099" lon="30.6888914108"><time>2026-09-01T13:34:50Z</time></trkpt><trkpt lat="59.2563486099" lon="30.6888914108"><time>2026-09-01T13:34:53Z</time></trkpt><trkpt lat="59.2563486099" lon="30.6888914108"><time>2026-09-01T13:34:55Z</time></trkpt><trkpt lat="59.2563486099" lon="30.6888914108"><time>2026-09-01T13:34:58Z</time></trkpt><trkpt lat="59.2563486099" lon="30.6888914108"><time>2026-09-01T13:35:00Z</time></trkpt><trkpt lat="59.2563486099" lon="30.6888914108"><time>2026-09-01T13:35:03Z</time></trkpt><trkpt lat="59.2563486099" lon="30.6888914108"><time>2026-09-01T13:35:05Z</time></trkpt><trkpt lat="59.2563486099" lon="30.6888914108"><time>2026-09-01T13:35:08Z</time></trkpt><trkpt lat="59.2563486099" lon="30.6888914108"><time>2026-09-01T13:35:10Z</time></trkpt><trkpt lat="59.2563486099" lon="30.6888914108"><time>2026-09-01T13:35:13Z</time></trkpt><trkpt lat="59.2563486099" lon="30.6888914108"><time>2026-09-01T13:35:15Z</time></trkpt><trkpt lat="59.2563056946" lon="30.6888699532"><time>2026-09-01T13:35:18Z</time></trkpt><trkpt lat="59.2563056946" lon="30.6888699532"><time>2026-09-01T13:35:20Z</time></trkpt><trkpt lat="59.2563056946" lon="30.6888699532"><time>2026-09-01T13:35:23Z</time></trkpt><trkpt lat="59.2563056946" lon="30.6888699532"><time>2026-09-01T13:35:25Z</time></trkpt><trkpt lat="59.2563056946" lon="30.6888484955"><time>2026-09-01T13:35:28Z</time></trkpt><trkpt lat="59.2563271523" lon="30.6888055801"><time>2026-09-01T13:35:30Z</time></trkpt><trkpt lat="59.2563271523" lon="30.6887626648"><time>2026-09-01T13:35:33Z</time></trkpt><trkpt lat="59.2563486099" lon="30.6887412071"><time>2026-09-01T13:35:35Z</time></trkpt><trkpt lat="59.2563700676" lon="30.6886982918"><time>2026-09-01T13:35:38Z</time></trkpt><trkpt lat="59.2563915253" lon="30.6886982918"><time>2026-09-01T13:35:40Z</time></trkpt><trkpt lat="59.2563915253" lon="30.6886982918"><time>2026-09-01T13:35:43Z</time></trkpt><trkpt lat="59.2564129829" lon="30.6886553764"><time>2026-09-01T13:35:45Z</time></trkpt><trkpt lat="59.2564129829" lon="30.6886553764"><time>2026-09-01T13:35:48Z</time></trkpt><trkpt lat="59.2564129829" lon="30.6886124611"><time>2026-09-01T13:35:50Z</time></trkpt><trkpt lat="59.2564129829" lon="30.6886124611"><time>2026-09-01T13:35:53Z</time></trkpt><trkpt lat="59.2564344406" lon="30.6885910034"><time>2026-09-01T13:35:55Z</time></trkpt><trkpt lat="59.2564558983" lon="30.6885480881"><time>2026-09-01T13:35:58Z</time></trkpt><trkpt lat="59.2564558983" lon="30.6885480881"><time>2026-09-01T13:36:00Z</time></trkpt><trkpt lat="59.2564773560" lon="30.6885051727"><time>2026-09-01T13:36:03Z</time></trkpt><trkpt lat="59.2564558983" lon="30.6884837151"><time>2026-09-01T13:36:05Z</time></trkpt><trkpt lat="59.2564558983" lon="30.6884837151"><time>2026-09-01T13:36:08Z</time></trkpt><trkpt lat="59.2564558983" lon="30.6884837151"><time>2026-09-01T13:36:10Z</time></trkpt><trkpt lat="59.2564558983" lon="30.6884837151"><time>2026-09-01T13:36:13Z</time></trkpt><trkpt lat="59.2564344406" lon="30.6884837151"><time>2026-09-01T13:36:15Z</time></trkpt><trkpt lat="59.2564558983" lon="30.6884622574"><time>2026-09-01T13:36:18Z</time></trkpt><trkpt lat="59.2564558983" lon="30.6884622574"><time>2026-09-01T13:36:20Z</time></trkpt><trkpt lat="59.2564558983" lon="30.6884837151"><time>2026-09-01T13:36:23Z</time></trkpt><trkpt lat="59.2564558983" lon="30.6884837151"><time>2026-09-01T13:36:25Z</time></trkpt><trkpt lat="59.2564558983" lon="30.6885051727"><time>2026-09-01T13:36:28Z</time></trkpt><trkpt lat="59.2564558983" lon="30.6885051727"><time>2026-09-01T13:36:30Z</time></trkpt><trkpt lat="59.2564558983" lon="30.6885051727"><time>2026-09-01T13:36:33Z</time></trkpt><trkpt lat="59.2564558983" lon="30.6885051727"><time>2026-09-01T13:36:35Z</time></trkpt><trkpt lat="59.2564558983" lon="30.6885051727"><time>2026-09-01T13:36:38Z</time></trkpt><trkpt lat="59.2564558983" lon="30.6884837151"><time>2026-09-01T13:36:40Z</time></trkpt><trkpt lat="59.2564558983" lon="30.6884622574"><time>2026-09-01T13:36:43Z</time></trkpt><trkpt lat="59.2564558983" lon="30.6884622574"><time>2026-09-01T13:36:45Z</time></trkpt><trkpt lat="59.2564558983" lon="30.6884622574"><time>2026-09-01T13:36:48Z</time></trkpt><trkpt lat="59.2564558983" lon="30.6884622574"><time>2026-09-01T13:36:50Z</time></trkpt><trkpt lat="59.2564558983" lon="30.6884622574"><time>2026-09-01T13:36:53Z</time></trkpt><trkpt lat="59.2564558983" lon="30.6884622574"><time>2026-09-01T13:36:55Z</time></trkpt><trkpt lat="59.2564558983" lon="30.6884622574"><time>2026-09-01T13:36:58Z</time></trkpt><trkpt lat="59.2564558983" lon="30.6884622574"><time>2026-09-01T13:37:00Z</time></trkpt><trkpt lat="59.2564558983" lon="30.6884837151"><time>2026-09-01T13:37:03Z</time></trkpt><trkpt lat="59.2564558983" lon="30.6884837151"><time>2026-09-01T13:37:05Z</time></trkpt><trkpt lat="59.2564344406" lon="30.6884837151"><time>2026-09-01T13:37:08Z</time></trkpt><trkpt lat="59.2564129829" lon="30.6885051727"><time>2026-09-01T13:37:10Z</time></trkpt><trkpt lat="59.2563915253" lon="30.6885480881"><time>2026-09-01T13:37:13Z</time></trkpt><trkpt lat="59.2563915253" lon="30.6885695457"><time>2026-09-01T13:37:15Z</time></trkpt><trkpt lat="59.2563915253" lon="30.6885910034"><time>2026-09-01T13:37:18Z</time></trkpt><trkpt lat="59.2563915253" lon="30.6885910034"><time>2026-09-01T13:37:20Z</time></trkpt><trkpt lat="59.2563915253" lon="30.6885910034"><time>2026-09-01T13:37:23Z</time></trkpt><trkpt lat="59.2563700676" lon="30.6886339188"><time>2026-09-01T13:37:25Z</time></trkpt><trkpt lat="59.2563486099" lon="30.6886553764"><time>2026-09-01T13:37:28Z</time></trkpt><trkpt lat="59.2563056946" lon="30.6886768341"><time>2026-09-01T13:37:30Z</time></trkpt><trkpt lat="59.2562627792" lon="30.6887197495"><time>2026-09-01T13:37:33Z</time></trkpt><trkpt lat="59.2562413216" lon="30.6887197495"><time>2026-09-01T13:37:35Z</time></trkpt><trkpt lat="59.2562198639" lon="30.6887412071"><time>2026-09-01T13:37:38Z</time></trkpt><trkpt lat="59.2562198639" lon="30.6887626648"><time>2026-09-01T13:37:40Z</time></trkpt><trkpt lat="59.2562198639" lon="30.6887841225"><time>2026-09-01T13:37:43Z</time></trkpt><trkpt lat="59.2561984062" lon="30.6888055801"><time>2026-09-01T13:37:45Z</time></trkpt><trkpt lat="59.2561554909" lon="30.6888270378"><time>2026-09-01T13:37:48Z</time></trkpt><trkpt lat="59.2561340332" lon="30.6888484955"><time>2026-09-01T13:37:50Z</time></trkpt><trkpt lat="59.2560911179" lon="30.6888699532"><time>2026-09-01T13:37:53Z</time></trkpt><trkpt lat="59.2560911179" lon="30.6888699532"><time>2026-09-01T13:37:55Z</time></trkpt><trkpt lat="59.2560911179" lon="30.6888699532"><time>2026-09-01T13:37:58Z</time></trkpt><trkpt lat="59.2560911179" lon="30.6888699532"><time>2026-09-01T13:38:00Z</time></trkpt><trkpt lat="59.2560911179" lon="30.6888699532"><time>2026-09-01T13:38:03Z</time></trkpt><trkpt lat="59.2560911179" lon="30.6888699532"><time>2026-09-01T13:38:05Z</time></trkpt><trkpt lat="59.2560482025" lon="30.6888699532"><time>2026-09-01T13:38:08Z</time></trkpt><trkpt lat="59.2560052872" lon="30.6888914108"><time>2026-09-01T13:38:10Z</time></trkpt><trkpt lat="59.2560052872" lon="30.6888914108"><time>2026-09-01T13:38:13Z</time></trkpt><trkpt lat="59.2559838295" lon="30.6889128685"><time>2026-09-01T13:38:15Z</time></trkpt><trkpt lat="59.2559838295" lon="30.6889128685"><time>2026-09-01T13:38:18Z</time></trkpt><trkpt lat="59.2559838295" lon="30.6889343262"><time>2026-09-01T13:38:20Z</time></trkpt><trkpt lat="59.2559838295" lon="30.6889343262"><time>2026-09-01T13:38:23Z</time></trkpt><trkpt lat="59.2559838295" lon="30.6889343262"><time>2026-09-01T13:38:25Z</time></trkpt><trkpt lat="59.2559409142" lon="30.6889557838"><time>2026-09-01T13:38:28Z</time></trkpt><trkpt lat="59.2559194565" lon="30.6889772415"><time>2026-09-01T13:38:30Z</time></trkpt><trkpt lat="59.2558979988" lon="30.6889986992"><time>2026-09-01T13:38:33Z</time></trkpt><trkpt lat="59.2558765411" lon="30.6890201569"><time>2026-09-01T13:38:35Z</time></trkpt><trkpt lat="59.2558765411" lon="30.6890416145"><time>2026-09-01T13:38:38Z</time></trkpt><trkpt lat="59.2558765411" lon="30.6890416145"><time>2026-09-01T13:38:40Z</time></trkpt><trkpt lat="59.2558765411" lon="30.6890416145"><time>2026-09-01T13:38:43Z</time></trkpt><trkpt lat="59.2558765411" lon="30.6890416145"><time>2026-09-01T13:38:45Z</time></trkpt><trkpt lat="59.2558765411" lon="30.6890416145"><time>2026-09-01T13:38:48Z</time></trkpt><trkpt lat="59.2558765411" lon="30.6890416145"><time>2026-09-01T13:38:50Z</time></trkpt><trkpt lat="59.2558765411" lon="30.6890416145"><time>2026-09-01T13:38:53Z</time></trkpt><trkpt lat="59.2558765411" lon="30.6890416145"><time>2026-09-01T13:38:55Z</time></trkpt><trkpt lat="59.2558765411" lon="30.6890416145"><time>2026-09-01T13:38:58Z</time></trkpt><trkpt lat="59.2558765411" lon="30.6890416145"><time>2026-09-01T13:39:00Z</time></trkpt><trkpt lat="59.2558765411" lon="30.6890416145"><time>2026-09-01T13:39:03Z</time></trkpt><trkpt lat="59.2558765411" lon="30.6890416145"><time>2026-09-01T13:39:05Z</time></trkpt><trkpt lat="59.2558765411" lon="30.6890416145"><time>2026-09-01T13:39:08Z</time></trkpt><trkpt lat="59.2558765411" lon="30.6890416145"><time>2026-09-01T13:39:10Z</time></trkpt><trkpt lat="59.2558765411" lon="30.6890416145"><time>2026-09-01T13:39:13Z</time></trkpt><trkpt lat="59.2558765411" lon="30.6890416145"><time>2026-09-01T13:39:15Z</time></trkpt><trkpt lat="59.2558765411" lon="30.6890201569"><time>2026-09-01T13:39:18Z</time></trkpt><trkpt lat="59.2558765411" lon="30.6890201569"><time>2026-09-01T13:39:20Z</time></trkpt><trkpt lat="59.2558765411" lon="30.6890201569"><time>2026-09-01T13:39:23Z</time></trkpt><trkpt lat="59.2558765411" lon="30.6890201569"><time>2026-09-01T13:39:25Z</time></trkpt><trkpt lat="59.2558765411" lon="30.6890201569"><time>2026-09-01T13:39:28Z</time></trkpt><trkpt lat="59.2558765411" lon="30.6890201569"><time>2026-09-01T13:39:30Z</time></trkpt><trkpt lat="59.2558765411" lon="30.6890201569"><time>2026-09-01T13:39:33Z</time></trkpt><trkpt lat="59.2558765411" lon="30.6890201569"><time>2026-09-01T13:39:35Z</time></trkpt><trkpt lat="59.2558765411" lon="30.6890416145"><time>2026-09-01T13:39:38Z</time></trkpt><trkpt lat="59.2558765411" lon="30.6890416145"><time>2026-09-01T13:39:40Z</time></trkpt><trkpt lat="59.2558765411" lon="30.6890416145"><time>2026-09-01T13:39:43Z</time></trkpt><trkpt lat="59.2558765411" lon="30.6890416145"><time>2026-09-01T13:39:45Z</time></trkpt><trkpt lat="59.2558765411" lon="30.6890201569"><time>2026-09-01T13:39:48Z</time></trkpt><trkpt lat="59.2558765411" lon="30.6890201569"><time>2026-09-01T13:39:50Z</time></trkpt><trkpt lat="59.2558765411" lon="30.6890201569"><time>2026-09-01T13:39:53Z</time></trkpt><trkpt lat="59.2558550835" lon="30.6890201569"><time>2026-09-01T13:39:55Z</time></trkpt><trkpt lat="59.2558550835" lon="30.6890416145"><time>2026-09-01T13:39:58Z</time></trkpt><trkpt lat="59.2558336258" lon="30.6890416145"><time>2026-09-01T13:40:00Z</time></trkpt><trkpt lat="59.2558336258" lon="30.6890416145"><time>2026-09-01T13:40:03Z</time></trkpt><trkpt lat="59.2558336258" lon="30.6890201569"><time>2026-09-01T13:40:05Z</time></trkpt><trkpt lat="59.2558550835" lon="30.6890201569"><time>2026-09-01T13:40:08Z</time></trkpt><trkpt lat="59.2558550835" lon="30.6890201569"><time>2026-09-01T13:40:10Z</time></trkpt><trkpt lat="59.2558550835" lon="30.6890201569"><time>2026-09-01T13:40:13Z</time></trkpt><trkpt lat="59.2558336258" lon="30.6889986992"><time>2026-09-01T13:40:15Z</time></trkpt><trkpt lat="59.2558336258" lon="30.6889986992"><time>2026-09-01T13:40:18Z</time></trkpt><trkpt lat="59.2558550835" lon="30.6890201569"><time>2026-09-01T13:40:20Z</time></trkpt><trkpt lat="59.2558550835" lon="30.6890416145"><time>2026-09-01T13:40:23Z</time></trkpt><trkpt lat="59.2558550835" lon="30.6890416145"><time>2026-09-01T13:40:25Z</time></trkpt><trkpt lat="59.2558550835" lon="30.6890416145"><time>2026-09-01T13:40:28Z</time></trkpt><trkpt lat="59.2558550835" lon="30.6890416145"><time>2026-09-01T13:40:30Z</time></trkpt><trkpt lat="59.2558550835" lon="30.6890416145"><time>2026-09-01T13:40:33Z</time></trkpt><trkpt lat="59.2558550835" lon="30.6890201569"><time>2026-09-01T13:40:35Z</time></trkpt><trkpt lat="59.2558336258" lon="30.6890201569"><time>2026-09-01T13:40:38Z</time></trkpt><trkpt lat="59.2558336258" lon="30.6890201569"><time>2026-09-01T13:40:40Z</time></trkpt><trkpt lat="59.2558550835" lon="30.6890201569"><time>2026-09-01T13:40:43Z</time></trkpt><trkpt lat="59.2558336258" lon="30.6890630722"><time>2026-09-01T13:40:45Z</time></trkpt><trkpt lat="59.2558336258" lon="30.6890630722"><time>2026-09-01T13:40:48Z</time></trkpt><trkpt lat="59.2558336258" lon="30.6890630722"><time>2026-09-01T13:40:50Z</time></trkpt><trkpt lat="59.2558336258" lon="30.6890630722"><time>2026-09-01T13:40:53Z</time></trkpt><trkpt lat="59.2558336258" lon="30.6890630722"><time>2026-09-01T13:40:55Z</time></trkpt><trkpt lat="59.2558336258" lon="30.6890630722"><time>2026-09-01T13:40:58Z</time></trkpt><trkpt lat="59.2558336258" lon="30.6890630722"><time>2026-09-01T13:41:00Z</time></trkpt><trkpt lat="59.2558336258" lon="30.6890630722"><time>2026-09-01T13:41:03Z</time></trkpt><trkpt lat="59.2558336258" lon="30.6890630722"><time>2026-09-01T13:41:05Z</time></trkpt><trkpt lat="59.2558336258" lon="30.6890845299"><time>2026-09-01T13:41:08Z</time></trkpt><trkpt lat="59.2558336258" lon="30.6890845299"><time>2026-09-01T13:41:10Z</time></trkpt><trkpt lat="59.2558336258" lon="30.6890845299"><time>2026-09-01T13:41:13Z</time></trkpt><trkpt lat="59.2558336258" lon="30.6890845299"><time>2026-09-01T13:41:15Z</time></trkpt><trkpt lat="59.2558336258" lon="30.6890845299"><time>2026-09-01T13:41:18Z</time></trkpt><trkpt lat="59.2558336258" lon="30.6890845299"><time>2026-09-01T13:41:20Z</time></trkpt><trkpt lat="59.2558336258" lon="30.6890845299"><time>2026-09-01T13:41:23Z</time></trkpt><trkpt lat="59.2558336258" lon="30.6890845299"><time>2026-09-01T13:41:25Z</time></trkpt><trkpt lat="59.2558336258" lon="30.6890845299"><time>2026-09-01T13:41:28Z</time></trkpt><trkpt lat="59.2558336258" lon="30.6891274452"><time>2026-09-01T13:41:30Z</time></trkpt><trkpt lat="59.2558121681" lon="30.6891703606"><time>2026-09-01T13:41:33Z</time></trkpt><trkpt lat="59.2558121681" lon="30.6891703606"><time>2026-09-01T13:41:35Z</time></trkpt><trkpt lat="59.2558121681" lon="30.6891703606"><time>2026-09-01T13:41:38Z</time></trkpt><trkpt lat="59.2558121681" lon="30.6891703606"><time>2026-09-01T13:41:40Z</time></trkpt><trkpt lat="59.2558121681" lon="30.6891703606"><time>2026-09-01T13:41:43Z</time></trkpt><trkpt lat="59.2558121681" lon="30.6891703606"><time>2026-09-01T13:41:45Z</time></trkpt><trkpt lat="59.2557907104" lon="30.6891918182"><time>2026-09-01T13:41:48Z</time></trkpt><trkpt lat="59.2557907104" lon="30.6892347336"><time>2026-09-01T13:41:50Z</time></trkpt><trkpt lat="59.2557692528" lon="30.6892561913"><time>2026-09-01T13:41:53Z</time></trkpt><trkpt lat="59.2557477951" lon="30.6892776489"><time>2026-09-01T13:41:55Z</time></trkpt><trkpt lat="59.2557477951" lon="30.6892776489"><time>2026-09-01T13:41:58Z</time></trkpt><trkpt lat="59.2557477951" lon="30.6892991066"><time>2026-09-01T13:42:00Z</time></trkpt><trkpt lat="59.2557477951" lon="30.6892991066"><time>2026-09-01T13:42:03Z</time></trkpt><trkpt lat="59.2557477951" lon="30.6892991066"><time>2026-09-01T13:42:05Z</time></trkpt><trkpt lat="59.2557263374" lon="30.6893420219"><time>2026-09-01T13:42:08Z</time></trkpt><trkpt lat="59.2556834221" lon="30.6894278526"><time>2026-09-01T13:42:10Z</time></trkpt><trkpt lat="59.2556619644" lon="30.6894707680"><time>2026-09-01T13:42:13Z</time></trkpt><trkpt lat="59.2556619644" lon="30.6894922256"><time>2026-09-01T13:42:15Z</time></trkpt><trkpt lat="59.2556619644" lon="30.6894922256"><time>2026-09-01T13:42:18Z</time></trkpt><trkpt lat="59.2556619644" lon="30.6894922256"><time>2026-09-01T13:42:20Z</time></trkpt><trkpt lat="59.2556619644" lon="30.6895136833"><time>2026-09-01T13:42:23Z</time></trkpt><trkpt lat="59.2555975914" lon="30.6895780563"><time>2026-09-01T13:42:25Z</time></trkpt><trkpt lat="59.2555761337" lon="30.6896209717"><time>2026-09-01T13:42:28Z</time></trkpt><trkpt lat="59.2555332184" lon="30.6897068024"><time>2026-09-01T13:42:30Z</time></trkpt><trkpt lat="59.2555332184" lon="30.6897068024"><time>2026-09-01T13:42:33Z</time></trkpt><trkpt lat="59.2555117607" lon="30.6896853447"><time>2026-09-01T13:42:35Z</time></trkpt><trkpt lat="59.2555117607" lon="30.6897068024"><time>2026-09-01T13:42:38Z</time></trkpt><trkpt lat="59.2555117607" lon="30.6897282600"><time>2026-09-01T13:42:40Z</time></trkpt><trkpt lat="59.2555117607" lon="30.6897068024"><time>2026-09-01T13:42:43Z</time></trkpt><trkpt lat="59.2554903030" lon="30.6897497177"><time>2026-09-01T13:42:45Z</time></trkpt><trkpt lat="59.2554903030" lon="30.6897497177"><time>2026-09-01T13:42:48Z</time></trkpt><trkpt lat="59.2554903030" lon="30.6897282600"><time>2026-09-01T13:42:50Z</time></trkpt><trkpt lat="59.2554688454" lon="30.6897497177"><time>2026-09-01T13:42:53Z</time></trkpt><trkpt lat="59.2554473877" lon="30.6897711754"><time>2026-09-01T13:42:55Z</time></trkpt><trkpt lat="59.2554259300" lon="30.6897926331"><time>2026-09-01T13:42:58Z</time></trkpt><trkpt lat="59.2554044724" lon="30.6898355484"><time>2026-09-01T13:43:00Z</time></trkpt><trkpt lat="59.2554044724" lon="30.6898355484"><time>2026-09-01T13:43:03Z</time></trkpt><trkpt lat="59.2554044724" lon="30.6898355484"><time>2026-09-01T13:43:05Z</time></trkpt><trkpt lat="59.2554044724" lon="30.6898355484"><time>2026-09-01T13:43:08Z</time></trkpt><trkpt lat="59.2554044724" lon="30.6898355484"><time>2026-09-01T13:43:10Z</time></trkpt><trkpt lat="59.2554044724" lon="30.6898355484"><time>2026-09-01T13:43:13Z</time></trkpt><trkpt lat="59.2554044724" lon="30.6898355484"><time>2026-09-01T13:43:15Z</time></trkpt><trkpt lat="59.2554044724" lon="30.6898355484"><time>2026-09-01T13:43:18Z</time></trkpt><trkpt lat="59.2553830147" lon="30.6898355484"><time>2026-09-01T13:43:20Z</time></trkpt><trkpt lat="59.2553830147" lon="30.6898570061"><time>2026-09-01T13:43:23Z</time></trkpt><trkpt lat="59.2553615570" lon="30.6898999214"><time>2026-09-01T13:43:25Z</time></trkpt><trkpt lat="59.2553400993" lon="30.6899213791"><time>2026-09-01T13:43:28Z</time></trkpt><trkpt lat="59.2552971840" lon="30.6899213791"><time>2026-09-01T13:43:30Z</time></trkpt><trkpt lat="59.2552757263" lon="30.6899642944"><time>2026-09-01T13:43:33Z</time></trkpt><trkpt lat="59.2552757263" lon="30.6899642944"><time>2026-09-01T13:43:35Z</time></trkpt><trkpt lat="59.2552757263" lon="30.6899642944"><time>2026-09-01T13:43:38Z</time></trkpt><trkpt lat="59.2552542686" lon="30.6900072098"><time>2026-09-01T13:43:40Z</time></trkpt><trkpt lat="59.2552542686" lon="30.6900072098"><time>2026-09-01T13:43:43Z</time></trkpt><trkpt lat="59.2552328110" lon="30.6900501251"><time>2026-09-01T13:43:45Z</time></trkpt><trkpt lat="59.2552113533" lon="30.6900930405"><time>2026-09-01T13:43:48Z</time></trkpt><trkpt lat="59.2551898956" lon="30.6901359558"><time>2026-09-01T13:43:50Z</time></trkpt><trkpt lat="59.2551684380" lon="30.6901359558"><time>2026-09-01T13:43:53Z</time></trkpt><trkpt lat="59.2551898956" lon="30.6901788712"><time>2026-09-01T13:43:55Z</time></trkpt><trkpt lat="59.2551684380" lon="30.6902003288"><time>2026-09-01T13:43:58Z</time></trkpt><trkpt lat="59.2551469803" lon="30.6902217865"><time>2026-09-01T13:44:00Z</time></trkpt><trkpt lat="59.2551469803" lon="30.6902432442"><time>2026-09-01T13:44:03Z</time></trkpt><trkpt lat="59.2551255226" lon="30.6902217865"><time>2026-09-01T13:44:05Z</time></trkpt><trkpt lat="59.2551040649" lon="30.6902217865"><time>2026-09-01T13:44:08Z</time></trkpt><trkpt lat="59.2551040649" lon="30.6902647018"><time>2026-09-01T13:44:10Z</time></trkpt><trkpt lat="59.2551040649" lon="30.6903076172"><time>2026-09-01T13:44:13Z</time></trkpt><trkpt lat="59.2551040649" lon="30.6903719902"><time>2026-09-01T13:44:15Z</time></trkpt><trkpt lat="59.2551040649" lon="30.6904363632"><time>2026-09-01T13:44:18Z</time></trkpt><trkpt lat="59.2551255226" lon="30.6904792786"><time>2026-09-01T13:44:20Z</time></trkpt><trkpt lat="59.2551255226" lon="30.6904792786"><time>2026-09-01T13:44:23Z</time></trkpt><trkpt lat="59.2551040649" lon="30.6904149055"><time>2026-09-01T13:44:25Z</time></trkpt><trkpt lat="59.2551040649" lon="30.6903934479"><time>2026-09-01T13:44:28Z</time></trkpt><trkpt lat="59.2551040649" lon="30.6904149055"><time>2026-09-01T13:44:30Z</time></trkpt><trkpt lat="59.2551040649" lon="30.6904149055"><time>2026-09-01T13:44:33Z</time></trkpt><trkpt lat="59.2551040649" lon="30.6904149055"><time>2026-09-01T13:44:35Z</time></trkpt><trkpt lat="59.2551040649" lon="30.6904149055"><time>2026-09-01T13:44:38Z</time></trkpt><trkpt lat="59.2551040649" lon="30.6904149055"><time>2026-09-01T13:44:40Z</time></trkpt><trkpt lat="59.2551040649" lon="30.6904149055"><time>2026-09-01T13:44:43Z</time></trkpt><trkpt lat="59.2550826073" lon="30.6903934479"><time>2026-09-01T13:44:45Z</time></trkpt><trkpt lat="59.2550826073" lon="30.6904149055"><time>2026-09-01T13:44:48Z</time></trkpt><trkpt lat="59.2550826073" lon="30.6904149055"><time>2026-09-01T13:44:50Z</time></trkpt><trkpt lat="59.2550826073" lon="30.6904149055"><time>2026-09-01T13:44:53Z</time></trkpt><trkpt lat="59.2551040649" lon="30.6904149055"><time>2026-09-01T13:44:55Z</time></trkpt><trkpt lat="59.2551040649" lon="30.6904792786"><time>2026-09-01T13:44:58Z</time></trkpt><trkpt lat="59.2551040649" lon="30.6904792786"><time>2026-09-01T13:45:00Z</time></trkpt><trkpt lat="59.2551040649" lon="30.6905007362"><time>2026-09-01T13:45:03Z</time></trkpt><trkpt lat="59.2551255226" lon="30.6905436516"><time>2026-09-01T13:45:05Z</time></trkpt><trkpt lat="59.2551255226" lon="30.6905651093"><time>2026-09-01T13:45:08Z</time></trkpt><trkpt lat="59.2551255226" lon="30.6905651093"><time>2026-09-01T13:45:10Z</time></trkpt><trkpt lat="59.2551255226" lon="30.6905651093"><time>2026-09-01T13:45:13Z</time></trkpt><trkpt lat="59.2551040649" lon="30.6906080246"><time>2026-09-01T13:45:15Z</time></trkpt><trkpt lat="59.2551040649" lon="30.6906294823"><time>2026-09-01T13:45:18Z</time></trkpt><trkpt lat="59.2551040649" lon="30.6906723976"><time>2026-09-01T13:45:20Z</time></trkpt><trkpt lat="59.2551040649" lon="30.6906723976"><time>2026-09-01T13:45:23Z</time></trkpt><trkpt lat="59.2551040649" lon="30.6907153130"><time>2026-09-01T13:45:25Z</time></trkpt><trkpt lat="59.2551255226" lon="30.6907153130"><time>2026-09-01T13:45:28Z</time></trkpt><trkpt lat="59.2551255226" lon="30.6907367706"><time>2026-09-01T13:45:30Z</time></trkpt><trkpt lat="59.2551469803" lon="30.6908011436"><time>2026-09-01T13:45:33Z</time></trkpt><trkpt lat="59.2551684380" lon="30.6908440590"><time>2026-09-01T13:45:35Z</time></trkpt><trkpt lat="59.2551898956" lon="30.6908655167"><time>2026-09-01T13:45:38Z</time></trkpt><trkpt lat="59.2551898956" lon="30.6908655167"><time>2026-09-01T13:45:40Z</time></trkpt><trkpt lat="59.2551898956" lon="30.6909084320"><time>2026-09-01T13:45:43Z</time></trkpt><trkpt lat="59.2551684380" lon="30.6909513474"><time>2026-09-01T13:45:45Z</time></trkpt><trkpt lat="59.2551684380" lon="30.6909728050"><time>2026-09-01T13:45:48Z</time></trkpt><trkpt lat="59.2551684380" lon="30.6910157204"><time>2026-09-01T13:45:50Z</time></trkpt><trkpt lat="59.2551684380" lon="30.6910371780"><time>2026-09-01T13:45:53Z</time></trkpt><trkpt lat="59.2551898956" lon="30.6910586357"><time>2026-09-01T13:45:55Z</time></trkpt><trkpt lat="59.2551898956" lon="30.6910586357"><time>2026-09-01T13:45:58Z</time></trkpt><trkpt lat="59.2551898956" lon="30.6910586357"><time>2026-09-01T13:46:00Z</time></trkpt><trkpt lat="59.2551898956" lon="30.6910586357"><time>2026-09-01T13:46:03Z</time></trkpt><trkpt lat="59.2551898956" lon="30.6910586357"><time>2026-09-01T13:46:05Z</time></trkpt><trkpt lat="59.2551898956" lon="30.6910800934"><time>2026-09-01T13:46:08Z</time></trkpt><trkpt lat="59.2551898956" lon="30.6911444664"><time>2026-09-01T13:46:10Z</time></trkpt><trkpt lat="59.2551898956" lon="30.6911659241"><time>2026-09-01T13:46:13Z</time></trkpt><trkpt lat="59.2551898956" lon="30.6911659241"><time>2026-09-01T13:46:15Z</time></trkpt><trkpt lat="59.2551684380" lon="30.6911873817"><time>2026-09-01T13:46:18Z</time></trkpt><trkpt lat="59.2551684380" lon="30.6911873817"><time>2026-09-01T13:46:20Z</time></trkpt><trkpt lat="59.2551684380" lon="30.6911873817"><time>2026-09-01T13:46:23Z</time></trkpt><trkpt lat="59.2551684380" lon="30.6911873817"><time>2026-09-01T13:46:25Z</time></trkpt><trkpt lat="59.2551898956" lon="30.6912302971"><time>2026-09-01T13:46:28Z</time></trkpt><trkpt lat="59.2551898956" lon="30.6912302971"><time>2026-09-01T13:46:30Z</time></trkpt><trkpt lat="59.2551898956" lon="30.6912302971"><time>2026-09-01T13:46:33Z</time></trkpt><trkpt lat="59.2551898956" lon="30.6912302971"><time>2026-09-01T13:46:35Z</time></trkpt><trkpt lat="59.2551898956" lon="30.6912302971"><time>2026-09-01T13:46:38Z</time></trkpt><trkpt lat="59.2551898956" lon="30.6912302971"><time>2026-09-01T13:46:40Z</time></trkpt><trkpt lat="59.2551898956" lon="30.6912732124"><time>2026-09-01T13:46:43Z</time></trkpt><trkpt lat="59.2551898956" lon="30.6912732124"><time>2026-09-01T13:46:45Z</time></trkpt><trkpt lat="59.2551898956" lon="30.6912732124"><time>2026-09-01T13:46:48Z</time></trkpt><trkpt lat="59.2551898956" lon="30.6913375854"><time>2026-09-01T13:46:50Z</time></trkpt><trkpt lat="59.2551898956" lon="30.6914019585"><time>2026-09-01T13:46:53Z</time></trkpt><trkpt lat="59.2551898956" lon="30.6914448738"><time>2026-09-01T13:46:55Z</time></trkpt><trkpt lat="59.2551898956" lon="30.6914448738"><time>2026-09-01T13:46:58Z</time></trkpt><trkpt lat="59.2551898956" lon="30.6914877892"><time>2026-09-01T13:47:00Z</time></trkpt><trkpt lat="59.2551898956" lon="30.6915092468"><time>2026-09-01T13:47:03Z</time></trkpt><trkpt lat="59.2551898956" lon="30.6915521622"><time>2026-09-01T13:47:05Z</time></trkpt><trkpt lat="59.2551684380" lon="30.6916379929"><time>2026-09-01T13:47:08Z</time></trkpt><trkpt lat="59.2551684380" lon="30.6916809082"><time>2026-09-01T13:47:10Z</time></trkpt><trkpt lat="59.2551684380" lon="30.6916809082"><time>2026-09-01T13:47:13Z</time></trkpt><trkpt lat="59.2551898956" lon="30.6917023659"><time>2026-09-01T13:47:15Z</time></trkpt><trkpt lat="59.2551898956" lon="30.6917023659"><time>2026-09-01T13:47:18Z</time></trkpt><trkpt lat="59.2551684380" lon="30.6917238235"><time>2026-09-01T13:47:20Z</time></trkpt><trkpt lat="59.2551684380" lon="30.6917452812"><time>2026-09-01T13:47:23Z</time></trkpt><trkpt lat="59.2551684380" lon="30.6917667389"><time>2026-09-01T13:47:25Z</time></trkpt><trkpt lat="59.2551255226" lon="30.6918096542"><time>2026-09-01T13:47:28Z</time></trkpt><trkpt lat="59.2551255226" lon="30.6918311119"><time>2026-09-01T13:47:30Z</time></trkpt><trkpt lat="59.2551255226" lon="30.6918311119"><time>2026-09-01T13:47:33Z</time></trkpt><trkpt lat="59.2551255226" lon="30.6918740273"><time>2026-09-01T13:47:35Z</time></trkpt><trkpt lat="59.2551040649" lon="30.6919169426"><time>2026-09-01T13:47:38Z</time></trkpt><trkpt lat="59.2551040649" lon="30.6919598579"><time>2026-09-01T13:47:40Z</time></trkpt><trkpt lat="59.2550826073" lon="30.6920242310"><time>2026-09-01T13:47:43Z</time></trkpt><trkpt lat="59.2550826073" lon="30.6920242310"><time>2026-09-01T13:47:45Z</time></trkpt><trkpt lat="59.2550396919" lon="30.6920671463"><time>2026-09-01T13:47:48Z</time></trkpt><trkpt lat="59.2550396919" lon="30.6920671463"><time>2026-09-01T13:47:50Z</time></trkpt><trkpt lat="59.2550396919" lon="30.6920671463"><time>2026-09-01T13:47:53Z</time></trkpt><trkpt lat="59.2550396919" lon="30.6920671463"><time>2026-09-01T13:47:55Z</time></trkpt><trkpt lat="59.2550396919" lon="30.6920671463"><time>2026-09-01T13:47:58Z</time></trkpt><trkpt lat="59.2550396919" lon="30.6920671463"><time>2026-09-01T13:48:00Z</time></trkpt><trkpt lat="59.2550396919" lon="30.6920671463"><time>2026-09-01T13:48:03Z</time></trkpt><trkpt lat="59.2550396919" lon="30.6920886040"><time>2026-09-01T13:48:05Z</time></trkpt><trkpt lat="59.2550182343" lon="30.6920886040"><time>2026-09-01T13:48:08Z</time></trkpt><trkpt lat="59.2550396919" lon="30.6921100616"><time>2026-09-01T13:48:10Z</time></trkpt><trkpt lat="59.2550396919" lon="30.6921315193"><time>2026-09-01T13:48:13Z</time></trkpt><trkpt lat="59.2550182343" lon="30.6922388077"><time>2026-09-01T13:48:15Z</time></trkpt><trkpt lat="59.2550182343" lon="30.6922388077"><time>2026-09-01T13:48:18Z</time></trkpt><trkpt lat="59.2550182343" lon="30.6922388077"><time>2026-09-01T13:48:20Z</time></trkpt><trkpt lat="59.2550182343" lon="30.6922388077"><time>2026-09-01T13:48:23Z</time></trkpt><trkpt lat="59.2550182343" lon="30.6922388077"><time>2026-09-01T13:48:25Z</time></trkpt><trkpt lat="59.2550182343" lon="30.6922388077"><time>2026-09-01T13:48:28Z</time></trkpt><trkpt lat="59.2550182343" lon="30.6922388077"><time>2026-09-01T13:48:30Z</time></trkpt><trkpt lat="59.2550182343" lon="30.6922388077"><time>2026-09-01T13:48:33Z</time></trkpt><trkpt lat="59.2550182343" lon="30.6922388077"><time>2026-09-01T13:48:35Z</time></trkpt><trkpt lat="59.2550182343" lon="30.6922388077"><time>2026-09-01T13:48:38Z</time></trkpt><trkpt lat="59.2550182343" lon="30.6922388077"><time>2026-09-01T13:48:40Z</time></trkpt><trkpt lat="59.2550182343" lon="30.6922388077"><time>2026-09-01T13:48:43Z</time></trkpt><trkpt lat="59.2550182343" lon="30.6922388077"><time>2026-09-01T13:48:45Z</time></trkpt><trkpt lat="59.2550182343" lon="30.6922388077"><time>2026-09-01T13:48:48Z</time></trkpt><trkpt lat="59.2550182343" lon="30.6922388077"><time>2026-09-01T13:48:50Z</time></trkpt><trkpt lat="59.2550182343" lon="30.6922388077"><time>2026-09-01T13:48:53Z</time></trkpt><trkpt lat="59.2550182343" lon="30.6922388077"><time>2026-09-01T13:48:55Z</time></trkpt><trkpt lat="59.2550182343" lon="30.6922388077"><time>2026-09-01T13:48:58Z</time></trkpt><trkpt lat="59.2550182343" lon="30.6922388077"><time>2026-09-01T13:49:00Z</time></trkpt><trkpt lat="59.2550182343" lon="30.6922388077"><time>2026-09-01T13:49:03Z</time></trkpt><trkpt lat="59.2550182343" lon="30.6922388077"><time>2026-09-01T13:49:05Z</time></trkpt><trkpt lat="59.2550182343" lon="30.6922388077"><time>2026-09-01T13:49:08Z</time></trkpt><trkpt lat="59.2550182343" lon="30.6922388077"><time>2026-09-01T13:49:10Z</time></trkpt><trkpt lat="59.2550182343" lon="30.6922388077"><time>2026-09-01T13:49:13Z</time></trkpt><trkpt lat="59.2550182343" lon="30.6922388077"><time>2026-09-01T13:49:15Z</time></trkpt><trkpt lat="59.2550182343" lon="30.6922388077"><time>2026-09-01T13:49:18Z</time></trkpt><trkpt lat="59.2550182343" lon="30.6922388077"><time>2026-09-01T13:49:20Z</time></trkpt><trkpt lat="59.2550182343" lon="30.6922388077"><time>2026-09-01T13:49:23Z</time></trkpt><trkpt lat="59.2550182343" lon="30.6922388077"><time>2026-09-01T13:49:25Z</time></trkpt><trkpt lat="59.2550182343" lon="30.6922388077"><time>2026-09-01T13:49:28Z</time></trkpt><trkpt lat="59.2550182343" lon="30.6922388077"><time>2026-09-01T13:49:30Z</time></trkpt><trkpt lat="59.2550182343" lon="30.6922388077"><time>2026-09-01T13:49:33Z</time></trkpt><trkpt lat="59.2550182343" lon="30.6922388077"><time>2026-09-01T13:49:35Z</time></trkpt><trkpt lat="59.2550182343" lon="30.6922388077"><time>2026-09-01T13:49:38Z</time></trkpt><trkpt lat="59.2550182343" lon="30.6922388077"><time>2026-09-01T13:49:40Z</time></trkpt><trkpt lat="59.2550182343" lon="30.6922388077"><time>2026-09-01T13:49:43Z</time></trkpt><trkpt lat="59.2550182343" lon="30.6922388077"><time>2026-09-01T13:49:45Z</time></trkpt><trkpt lat="59.2550182343" lon="30.6922388077"><time>2026-09-01T13:49:48Z</time></trkpt><trkpt lat="59.2550182343" lon="30.6922388077"><time>2026-09-01T13:49:50Z</time></trkpt><trkpt lat="59.2550182343" lon="30.6922388077"><time>2026-09-01T13:49:53Z</time></trkpt><trkpt lat="59.2550182343" lon="30.6922388077"><time>2026-09-01T13:49:55Z</time></trkpt><trkpt lat="59.2550182343" lon="30.6922388077"><time>2026-09-01T13:49:58Z</time></trkpt><trkpt lat="59.2550182343" lon="30.6922388077"><time>2026-09-01T13:50:00Z</time></trkpt><trkpt lat="59.2550182343" lon="30.6922388077"><time>2026-09-01T13:50:03Z</time></trkpt><trkpt lat="59.2550182343" lon="30.6922388077"><time>2026-09-01T13:50:05Z</time></trkpt><trkpt lat="59.2550182343" lon="30.6922388077"><time>2026-09-01T13:50:08Z</time></trkpt><trkpt lat="59.2550182343" lon="30.6922388077"><time>2026-09-01T13:50:10Z</time></trkpt><trkpt lat="59.2550182343" lon="30.6922388077"><time>2026-09-01T13:50:13Z</time></trkpt><trkpt lat="59.2550182343" lon="30.6922817230"><time>2026-09-01T13:50:15Z</time></trkpt><trkpt lat="59.2550182343" lon="30.6923031807"><time>2026-09-01T13:50:18Z</time></trkpt><trkpt lat="59.2550611496" lon="30.6923460960"><time>2026-09-01T13:50:20Z</time></trkpt><trkpt lat="59.2550611496" lon="30.6923460960"><time>2026-09-01T13:50:23Z</time></trkpt><trkpt lat="59.2550611496" lon="30.6923675537"><time>2026-09-01T13:50:25Z</time></trkpt><trkpt lat="59.2550611496" lon="30.6924104691"><time>2026-09-01T13:50:28Z</time></trkpt><trkpt lat="59.2550826073" lon="30.6924533844"><time>2026-09-01T13:50:30Z</time></trkpt><trkpt lat="59.2550826073" lon="30.6924748421"><time>2026-09-01T13:50:33Z</time></trkpt><trkpt lat="59.2550826073" lon="30.6924748421"><time>2026-09-01T13:50:35Z</time></trkpt><trkpt lat="59.2550826073" lon="30.6924962997"><time>2026-09-01T13:50:38Z</time></trkpt><trkpt lat="59.2550611496" lon="30.6925392151"><time>2026-09-01T13:50:40Z</time></trkpt><trkpt lat="59.2550396919" lon="30.6925821304"><time>2026-09-01T13:50:43Z</time></trkpt><trkpt lat="59.2549967766" lon="30.6926250458"><time>2026-09-01T13:50:45Z</time></trkpt><trkpt lat="59.2549967766" lon="30.6926465034"><time>2026-09-01T13:50:48Z</time></trkpt><trkpt lat="59.2549967766" lon="30.6926250458"><time>2026-09-01T13:50:50Z</time></trkpt><trkpt lat="59.2550182343" lon="30.6926035881"><time>2026-09-01T13:50:53Z</time></trkpt><trkpt lat="59.2550396919" lon="30.6926035881"><time>2026-09-01T13:50:55Z</time></trkpt><trkpt lat="59.2550396919" lon="30.6926250458"><time>2026-09-01T13:50:58Z</time></trkpt><trkpt lat="59.2550182343" lon="30.6926465034"><time>2026-09-01T13:51:00Z</time></trkpt><trkpt lat="59.2549967766" lon="30.6926679611"><time>2026-09-01T13:51:03Z</time></trkpt><trkpt lat="59.2549967766" lon="30.6927537918"><time>2026-09-01T13:51:05Z</time></trkpt><trkpt lat="59.2549967766" lon="30.6927752495"><time>2026-09-01T13:51:08Z</time></trkpt><trkpt lat="59.2550182343" lon="30.6927323341"><time>2026-09-01T13:51:10Z</time></trkpt><trkpt lat="59.2550182343" lon="30.6927108765"><time>2026-09-01T13:51:13Z</time></trkpt><trkpt lat="59.2550611496" lon="30.6926894188"><time>2026-09-01T13:51:15Z</time></trkpt><trkpt lat="59.2550826073" lon="30.6927108765"><time>2026-09-01T13:51:18Z</time></trkpt><trkpt lat="59.2550826073" lon="30.6927108765"><time>2026-09-01T13:51:20Z</time></trkpt><trkpt lat="59.2550826073" lon="30.6927108765"><time>2026-09-01T13:51:23Z</time></trkpt><trkpt lat="59.2551040649" lon="30.6927108765"><time>2026-09-01T13:51:25Z</time></trkpt><trkpt lat="59.2551040649" lon="30.6927323341"><time>2026-09-01T13:51:28Z</time></trkpt><trkpt lat="59.2551469803" lon="30.6927323341"><time>2026-09-01T13:51:30Z</time></trkpt><trkpt lat="59.2551469803" lon="30.6927323341"><time>2026-09-01T13:51:33Z</time></trkpt><trkpt lat="59.2551898956" lon="30.6927323341"><time>2026-09-01T13:51:35Z</time></trkpt><trkpt lat="59.2551898956" lon="30.6927323341"><time>2026-09-01T13:51:38Z</time></trkpt><trkpt lat="59.2552328110" lon="30.6927537918"><time>2026-09-01T13:51:40Z</time></trkpt><trkpt lat="59.2552328110" lon="30.6927537918"><time>2026-09-01T13:51:43Z</time></trkpt><trkpt lat="59.2552542686" lon="30.6927108765"><time>2026-09-01T13:51:45Z</time></trkpt><trkpt lat="59.2552757263" lon="30.6926894188"><time>2026-09-01T13:51:48Z</time></trkpt><trkpt lat="59.2552971840" lon="30.6926250458"><time>2026-09-01T13:51:50Z</time></trkpt><trkpt lat="59.2552971840" lon="30.6926250458"><time>2026-09-01T13:51:53Z</time></trkpt><trkpt lat="59.2552971840" lon="30.6926250458"><time>2026-09-01T13:51:55Z</time></trkpt><trkpt lat="59.2553186417" lon="30.6926250458"><time>2026-09-01T13:51:58Z</time></trkpt><trkpt lat="59.2553400993" lon="30.6926250458"><time>2026-09-01T13:52:00Z</time></trkpt><trkpt lat="59.2553615570" lon="30.6926035881"><time>2026-09-01T13:52:03Z</time></trkpt><trkpt lat="59.2553615570" lon="30.6926035881"><time>2026-09-01T13:52:05Z</time></trkpt><trkpt lat="59.2553615570" lon="30.6925821304"><time>2026-09-01T13:52:08Z</time></trkpt><trkpt lat="59.2554044724" lon="30.6925821304"><time>2026-09-01T13:52:10Z</time></trkpt><trkpt lat="59.2554259300" lon="30.6925606728"><time>2026-09-01T13:52:13Z</time></trkpt><trkpt lat="59.2554473877" lon="30.6925392151"><time>2026-09-01T13:52:15Z</time></trkpt><trkpt lat="59.2554903030" lon="30.6925392151"><time>2026-09-01T13:52:18Z</time></trkpt><trkpt lat="59.2555117607" lon="30.6925606728"><time>2026-09-01T13:52:20Z</time></trkpt><trkpt lat="59.2555546761" lon="30.6925606728"><time>2026-09-01T13:52:23Z</time></trkpt><trkpt lat="59.2555761337" lon="30.6925606728"><time>2026-09-01T13:52:25Z</time></trkpt><trkpt lat="59.2555975914" lon="30.6925392151"><time>2026-09-01T13:52:28Z</time></trkpt><trkpt lat="59.2555975914" lon="30.6925177574"><time>2026-09-01T13:52:30Z</time></trkpt><trkpt lat="59.2555975914" lon="30.6925177574"><time>2026-09-01T13:52:33Z</time></trkpt><trkpt lat="59.2555975914" lon="30.6925177574"><time>2026-09-01T13:52:35Z</time></trkpt><trkpt lat="59.2556190491" lon="30.6924962997"><time>2026-09-01T13:52:38Z</time></trkpt><trkpt lat="59.2556405067" lon="30.6924962997"><time>2026-09-01T13:52:40Z</time></trkpt><trkpt lat="59.2556619644" lon="30.6924962997"><time>2026-09-01T13:52:43Z</time></trkpt><trkpt lat="59.2556619644" lon="30.6924962997"><time>2026-09-01T13:52:45Z</time></trkpt><trkpt lat="59.2556834221" lon="30.6925177574"><time>2026-09-01T13:52:48Z</time></trkpt><trkpt lat="59.2556834221" lon="30.6925177574"><time>2026-09-01T13:52:50Z</time></trkpt><trkpt lat="59.2556834221" lon="30.6925392151"><time>2026-09-01T13:52:53Z</time></trkpt><trkpt lat="59.2557048798" lon="30.6925392151"><time>2026-09-01T13:52:55Z</time></trkpt><trkpt lat="59.2557048798" lon="30.6925392151"><time>2026-09-01T13:52:58Z</time></trkpt><trkpt lat="59.2557048798" lon="30.6925392151"><time>2026-09-01T13:53:00Z</time></trkpt><trkpt lat="59.2557477951" lon="30.6925606728"><time>2026-09-01T13:53:03Z</time></trkpt><trkpt lat="59.2557692528" lon="30.6925606728"><time>2026-09-01T13:53:05Z</time></trkpt><trkpt lat="59.2557907104" lon="30.6926035881"><time>2026-09-01T13:53:08Z</time></trkpt><trkpt lat="59.2558336258" lon="30.6926250458"><time>2026-09-01T13:53:10Z</time></trkpt><trkpt lat="59.2558550835" lon="30.6926250458"><time>2026-09-01T13:53:13Z</time></trkpt><trkpt lat="59.2558765411" lon="30.6926465034"><time>2026-09-01T13:53:15Z</time></trkpt><trkpt lat="59.2558765411" lon="30.6926465034"><time>2026-09-01T13:53:18Z</time></trkpt><trkpt lat="59.2558765411" lon="30.6926465034"><time>2026-09-01T13:53:20Z</time></trkpt><trkpt lat="59.2558765411" lon="30.6926465034"><time>2026-09-01T13:53:23Z</time></trkpt><trkpt lat="59.2558765411" lon="30.6926465034"><time>2026-09-01T13:53:25Z</time></trkpt><trkpt lat="59.2558765411" lon="30.6926465034"><time>2026-09-01T13:53:28Z</time></trkpt><trkpt lat="59.2558765411" lon="30.6926465034"><time>2026-09-01T13:53:30Z</time></trkpt><trkpt lat="59.2558765411" lon="30.6926465034"><time>2026-09-01T13:53:33Z</time></trkpt><trkpt lat="59.2558765411" lon="30.6926465034"><time>2026-09-01T13:53:35Z</time></trkpt><trkpt lat="59.2558765411" lon="30.6926465034"><time>2026-09-01T13:53:38Z</time></trkpt><trkpt lat="59.2558765411" lon="30.6926465034"><time>2026-09-01T13:53:40Z</time></trkpt><trkpt lat="59.2558765411" lon="30.6926465034"><time>2026-09-01T13:53:43Z</time></trkpt><trkpt lat="59.2558765411" lon="30.6926465034"><time>2026-09-01T13:53:45Z</time></trkpt><trkpt lat="59.2558765411" lon="30.6926465034"><time>2026-09-01T13:53:48Z</time></trkpt><trkpt lat="59.2558765411" lon="30.6926465034"><time>2026-09-01T13:53:50Z</time></trkpt><trkpt lat="59.2558765411" lon="30.6926465034"><time>2026-09-01T13:53:53Z</time></trkpt><trkpt lat="59.2558765411" lon="30.6926465034"><time>2026-09-01T13:53:55Z</time></trkpt><trkpt lat="59.2558765411" lon="30.6926465034"><time>2026-09-01T13:53:58Z</time></trkpt><trkpt lat="59.2558765411" lon="30.6926250458"><time>2026-09-01T13:54:00Z</time></trkpt><trkpt lat="59.2558765411" lon="30.6926250458"><time>2026-09-01T13:54:03Z</time></trkpt><trkpt lat="59.2558765411" lon="30.6926250458"><time>2026-09-01T13:54:05Z</time></trkpt><trkpt lat="59.2558765411" lon="30.6926250458"><time>2026-09-01T13:54:08Z</time></trkpt><trkpt lat="59.2558979988" lon="30.6926035881"><time>2026-09-01T13:54:10Z</time></trkpt><trkpt lat="59.2558979988" lon="30.6926035881"><time>2026-09-01T13:54:13Z</time></trkpt><trkpt lat="59.2559194565" lon="30.6925821304"><time>2026-09-01T13:54:15Z</time></trkpt><trkpt lat="59.2559409142" lon="30.6926035881"><time>2026-09-01T13:54:18Z</time></trkpt><trkpt lat="59.2559838295" lon="30.6926250458"><time>2026-09-01T13:54:20Z</time></trkpt><trkpt lat="59.2559838295" lon="30.6926250458"><time>2026-09-01T13:54:23Z</time></trkpt><trkpt lat="59.2560052872" lon="30.6926465034"><time>2026-09-01T13:54:25Z</time></trkpt><trkpt lat="59.2560267448" lon="30.6926250458"><time>2026-09-01T13:54:28Z</time></trkpt><trkpt lat="59.2560267448" lon="30.6926465034"><time>2026-09-01T13:54:30Z</time></trkpt><trkpt lat="59.2560482025" lon="30.6926465034"><time>2026-09-01T13:54:33Z</time></trkpt><trkpt lat="59.2560482025" lon="30.6926465034"><time>2026-09-01T13:54:35Z</time></trkpt><trkpt lat="59.2560482025" lon="30.6926679611"><time>2026-09-01T13:54:38Z</time></trkpt><trkpt lat="59.2560911179" lon="30.6927323341"><time>2026-09-01T13:54:40Z</time></trkpt><trkpt lat="59.2560911179" lon="30.6927323341"><time>2026-09-01T13:54:43Z</time></trkpt><trkpt lat="59.2560911179" lon="30.6927323341"><time>2026-09-01T13:54:45Z</time></trkpt><trkpt lat="59.2560911179" lon="30.6927323341"><time>2026-09-01T13:54:48Z</time></trkpt><trkpt lat="59.2561340332" lon="30.6927537918"><time>2026-09-01T13:54:50Z</time></trkpt><trkpt lat="59.2561554909" lon="30.6927752495"><time>2026-09-01T13:54:53Z</time></trkpt><trkpt lat="59.2561554909" lon="30.6927752495"><time>2026-09-01T13:54:55Z</time></trkpt><trkpt lat="59.2561769485" lon="30.6927752495"><time>2026-09-01T13:54:58Z</time></trkpt><trkpt lat="59.2561984062" lon="30.6927967072"><time>2026-09-01T13:55:00Z</time></trkpt><trkpt lat="59.2561984062" lon="30.6927967072"><time>2026-09-01T13:55:03Z</time></trkpt><trkpt lat="59.2562198639" lon="30.6927967072"><time>2026-09-01T13:55:05Z</time></trkpt><trkpt lat="59.2562413216" lon="30.6928396225"><time>2026-09-01T13:55:08Z</time></trkpt><trkpt lat="59.2562413216" lon="30.6928396225"><time>2026-09-01T13:55:10Z</time></trkpt><trkpt lat="59.2562627792" lon="30.6928610802"><time>2026-09-01T13:55:13Z</time></trkpt><trkpt lat="59.2563056946" lon="30.6929469109"><time>2026-09-01T13:55:15Z</time></trkpt><trkpt lat="59.2563271523" lon="30.6930112839"><time>2026-09-01T13:55:18Z</time></trkpt><trkpt lat="59.2563486099" lon="30.6929898262"><time>2026-09-01T13:55:20Z</time></trkpt><trkpt lat="59.2563486099" lon="30.6929898262"><time>2026-09-01T13:55:23Z</time></trkpt><trkpt lat="59.2563700676" lon="30.6930112839"><time>2026-09-01T13:55:25Z</time></trkpt><trkpt lat="59.2563700676" lon="30.6930327415"><time>2026-09-01T13:55:28Z</time></trkpt><trkpt lat="59.2563915253" lon="30.6930756569"><time>2026-09-01T13:55:30Z</time></trkpt><trkpt lat="59.2563915253" lon="30.6930541992"><time>2026-09-01T13:55:33Z</time></trkpt><trkpt lat="59.2564129829" lon="30.6930541992"><time>2026-09-01T13:55:35Z</time></trkpt><trkpt lat="59.2564344406" lon="30.6930971146"><time>2026-09-01T13:55:38Z</time></trkpt><trkpt lat="59.2564558983" lon="30.6931185722"><time>2026-09-01T13:55:40Z</time></trkpt><trkpt lat="59.2564773560" lon="30.6931400299"><time>2026-09-01T13:55:43Z</time></trkpt><trkpt lat="59.2564773560" lon="30.6931185722"><time>2026-09-01T13:55:45Z</time></trkpt><trkpt lat="59.2564988136" lon="30.6931400299"><time>2026-09-01T13:55:48Z</time></trkpt><trkpt lat="59.2565202713" lon="30.6931614876"><time>2026-09-01T13:55:53Z</time></trkpt><trkpt lat="59.2565202713" lon="30.6931614876"><time>2026-09-01T13:55:55Z</time></trkpt><trkpt lat="59.2565417290" lon="30.6932044029"><time>2026-09-01T13:55:58Z</time></trkpt><trkpt lat="59.2565631866" lon="30.6932258606"><time>2026-09-01T13:56:00Z</time></trkpt><trkpt lat="59.2565846443" lon="30.6932473183"><time>2026-09-01T13:56:03Z</time></trkpt><trkpt lat="59.2566275597" lon="30.6933116913"><time>2026-09-01T13:56:05Z</time></trkpt><trkpt lat="59.2566490173" lon="30.6933116913"><time>2026-09-01T13:56:08Z</time></trkpt><trkpt lat="59.2566704750" lon="30.6933331490"><time>2026-09-01T13:56:10Z</time></trkpt><trkpt lat="59.2566919327" lon="30.6933546066"><time>2026-09-01T13:56:13Z</time></trkpt><trkpt lat="59.2567348480" lon="30.6933760643"><time>2026-09-01T13:56:15Z</time></trkpt><trkpt lat="59.2567348480" lon="30.6933760643"><time>2026-09-01T13:56:18Z</time></trkpt><trkpt lat="59.2567563057" lon="30.6933760643"><time>2026-09-01T13:56:20Z</time></trkpt><trkpt lat="59.2567563057" lon="30.6933760643"><time>2026-09-01T13:56:23Z</time></trkpt><trkpt lat="59.2567563057" lon="30.6933760643"><time>2026-09-01T13:56:25Z</time></trkpt><trkpt lat="59.2567992210" lon="30.6933546066"><time>2026-09-01T13:56:28Z</time></trkpt><trkpt lat="59.2568421364" lon="30.6933331490"><time>2026-09-01T13:56:30Z</time></trkpt><trkpt lat="59.2568421364" lon="30.6933331490"><time>2026-09-01T13:56:33Z</time></trkpt><trkpt lat="59.2568635941" lon="30.6933331490"><time>2026-09-01T13:56:35Z</time></trkpt><trkpt lat="59.2569065094" lon="30.6933546066"><time>2026-09-01T13:56:38Z</time></trkpt><trkpt lat="59.2569494247" lon="30.6933760643"><time>2026-09-01T13:56:40Z</time></trkpt><trkpt lat="59.2569708824" lon="30.6933546066"><time>2026-09-01T13:56:43Z</time></trkpt><trkpt lat="59.2570137978" lon="30.6933116913"><time>2026-09-01T13:56:45Z</time></trkpt><trkpt lat="59.2570137978" lon="30.6933116913"><time>2026-09-01T13:56:48Z</time></trkpt><trkpt lat="59.2570137978" lon="30.6933116913"><time>2026-09-01T13:56:50Z</time></trkpt><trkpt lat="59.2570352554" lon="30.6933116913"><time>2026-09-01T13:56:53Z</time></trkpt><trkpt lat="59.2570567131" lon="30.6933760643"><time>2026-09-01T13:56:55Z</time></trkpt><trkpt lat="59.2570567131" lon="30.6933760643"><time>2026-09-01T13:56:58Z</time></trkpt><trkpt lat="59.2570996284" lon="30.6933546066"><time>2026-09-01T13:57:00Z</time></trkpt><trkpt lat="59.2571210861" lon="30.6933331490"><time>2026-09-01T13:57:03Z</time></trkpt><trkpt lat="59.2571210861" lon="30.6933331490"><time>2026-09-01T13:57:05Z</time></trkpt><trkpt lat="59.2571210861" lon="30.6933331490"><time>2026-09-01T13:57:08Z</time></trkpt><trkpt lat="59.2571210861" lon="30.6933331490"><time>2026-09-01T13:57:10Z</time></trkpt><trkpt lat="59.2571210861" lon="30.6933331490"><time>2026-09-01T13:57:13Z</time></trkpt><trkpt lat="59.2571210861" lon="30.6933331490"><time>2026-09-01T13:57:15Z</time></trkpt><trkpt lat="59.2571210861" lon="30.6933331490"><time>2026-09-01T13:57:18Z</time></trkpt><trkpt lat="59.2571210861" lon="30.6933331490"><time>2026-09-01T13:57:20Z</time></trkpt><trkpt lat="59.2571210861" lon="30.6933331490"><time>2026-09-01T13:57:23Z</time></trkpt><trkpt lat="59.2571210861" lon="30.6933331490"><time>2026-09-01T13:57:25Z</time></trkpt><trkpt lat="59.2571210861" lon="30.6933331490"><time>2026-09-01T13:57:28Z</time></trkpt><trkpt lat="59.2571210861" lon="30.6933331490"><time>2026-09-01T13:57:30Z</time></trkpt><trkpt lat="59.2571210861" lon="30.6933331490"><time>2026-09-01T13:57:33Z</time></trkpt><trkpt lat="59.2571210861" lon="30.6933331490"><time>2026-09-01T13:57:35Z</time></trkpt><trkpt lat="59.2571210861" lon="30.6933331490"><time>2026-09-01T13:57:38Z</time></trkpt><trkpt lat="59.2571210861" lon="30.6933331490"><time>2026-09-01T13:57:40Z</time></trkpt><trkpt lat="59.2571210861" lon="30.6933331490"><time>2026-09-01T13:57:43Z</time></trkpt><trkpt lat="59.2571425438" lon="30.6933331490"><time>2026-09-01T13:57:45Z</time></trkpt><trkpt lat="59.2571425438" lon="30.6933331490"><time>2026-09-01T13:57:48Z</time></trkpt><trkpt lat="59.2571425438" lon="30.6933331490"><time>2026-09-01T13:57:50Z</time></trkpt><trkpt lat="59.2571640015" lon="30.6933975220"><time>2026-09-01T13:57:53Z</time></trkpt><trkpt lat="59.2571640015" lon="30.6934404373"><time>2026-09-01T13:57:55Z</time></trkpt><trkpt lat="59.2572069168" lon="30.6934404373"><time>2026-09-01T13:57:58Z</time></trkpt><trkpt lat="59.2572283745" lon="30.6934404373"><time>2026-09-01T13:58:00Z</time></trkpt><trkpt lat="59.2572283745" lon="30.6934404373"><time>2026-09-01T13:58:03Z</time></trkpt><trkpt lat="59.2572283745" lon="30.6934404373"><time>2026-09-01T13:58:05Z</time></trkpt><trkpt lat="59.2572927475" lon="30.6934404373"><time>2026-09-01T13:58:08Z</time></trkpt><trkpt lat="59.2573142052" lon="30.6934404373"><time>2026-09-01T13:58:10Z</time></trkpt><trkpt lat="59.2573356628" lon="30.6934404373"><time>2026-09-01T13:58:13Z</time></trkpt><trkpt lat="59.2573356628" lon="30.6934404373"><time>2026-09-01T13:58:15Z</time></trkpt><trkpt lat="59.2573571205" lon="30.6934404373"><time>2026-09-01T13:58:18Z</time></trkpt><trkpt lat="59.2573785782" lon="30.6934833527"><time>2026-09-01T13:58:20Z</time></trkpt><trkpt lat="59.2574000359" lon="30.6935048103"><time>2026-09-01T13:58:23Z</time></trkpt><trkpt lat="59.2574000359" lon="30.6935048103"><time>2026-09-01T13:58:25Z</time></trkpt><trkpt lat="59.2574000359" lon="30.6935048103"><time>2026-09-01T13:58:28Z</time></trkpt><trkpt lat="59.2574214935" lon="30.6935262680"><time>2026-09-01T13:58:30Z</time></trkpt><trkpt lat="59.2574429512" lon="30.6935262680"><time>2026-09-01T13:58:33Z</time></trkpt><trkpt lat="59.2574858665" lon="30.6935906410"><time>2026-09-01T13:58:35Z</time></trkpt><trkpt lat="59.2574858665" lon="30.6935906410"><time>2026-09-01T13:58:38Z</time></trkpt><trkpt lat="59.2575073242" lon="30.6936120987"><time>2026-09-01T13:58:40Z</time></trkpt><trkpt lat="59.2575287819" lon="30.6936120987"><time>2026-09-01T13:58:43Z</time></trkpt><trkpt lat="59.2575502396" lon="30.6936335564"><time>2026-09-01T13:58:45Z</time></trkpt><trkpt lat="59.2575716972" lon="30.6936120987"><time>2026-09-01T13:58:48Z</time></trkpt><trkpt lat="59.2575716972" lon="30.6935906410"><time>2026-09-01T13:58:50Z</time></trkpt><trkpt lat="59.2575716972" lon="30.6935906410"><time>2026-09-01T13:58:53Z</time></trkpt><trkpt lat="59.2576146126" lon="30.6936764717"><time>2026-09-01T13:58:55Z</time></trkpt><trkpt lat="59.2576146126" lon="30.6936764717"><time>2026-09-01T13:58:58Z</time></trkpt><trkpt lat="59.2576360703" lon="30.6936979294"><time>2026-09-01T13:59:00Z</time></trkpt><trkpt lat="59.2576360703" lon="30.6936979294"><time>2026-09-01T13:59:03Z</time></trkpt><trkpt lat="59.2576360703" lon="30.6936979294"><time>2026-09-01T13:59:05Z</time></trkpt><trkpt lat="59.2576360703" lon="30.6936979294"><time>2026-09-01T13:59:08Z</time></trkpt><trkpt lat="59.2576360703" lon="30.6936979294"><time>2026-09-01T13:59:10Z</time></trkpt><trkpt lat="59.2576360703" lon="30.6936979294"><time>2026-09-01T13:59:13Z</time></trkpt><trkpt lat="59.2576360703" lon="30.6936979294"><time>2026-09-01T13:59:15Z</time></trkpt><trkpt lat="59.2576360703" lon="30.6936979294"><time>2026-09-01T13:59:18Z</time></trkpt><trkpt lat="59.2576360703" lon="30.6936979294"><time>2026-09-01T13:59:20Z</time></trkpt><trkpt lat="59.2576360703" lon="30.6936979294"><time>2026-09-01T13:59:23Z</time></trkpt><trkpt lat="59.2576360703" lon="30.6936979294"><time>2026-09-01T13:59:25Z</time></trkpt><trkpt lat="59.2576360703" lon="30.6936979294"><time>2026-09-01T13:59:28Z</time></trkpt><trkpt lat="59.2576360703" lon="30.6936979294"><time>2026-09-01T13:59:30Z</time></trkpt><trkpt lat="59.2576360703" lon="30.6936979294"><time>2026-09-01T13:59:33Z</time></trkpt><trkpt lat="59.2576360703" lon="30.6936979294"><time>2026-09-01T13:59:35Z</time></trkpt><trkpt lat="59.2576360703" lon="30.6936979294"><time>2026-09-01T13:59:38Z</time></trkpt><trkpt lat="59.2576360703" lon="30.6936979294"><time>2026-09-01T13:59:40Z</time></trkpt><trkpt lat="59.2576360703" lon="30.6936979294"><time>2026-09-01T13:59:43Z</time></trkpt><trkpt lat="59.2576360703" lon="30.6936979294"><time>2026-09-01T13:59:45Z</time></trkpt><trkpt lat="59.2576360703" lon="30.6936979294"><time>2026-09-01T13:59:48Z</time></trkpt><trkpt lat="59.2576360703" lon="30.6936979294"><time>2026-09-01T13:59:50Z</time></trkpt><trkpt lat="59.2576360703" lon="30.6936979294"><time>2026-09-01T13:59:53Z</time></trkpt><trkpt lat="59.2576360703" lon="30.6936979294"><time>2026-09-01T13:59:55Z</time></trkpt><trkpt lat="59.2576360703" lon="30.6936979294"><time>2026-09-01T13:59:58Z</time></trkpt><trkpt lat="59.2576360703" lon="30.6936979294"><time>2026-09-01T14:00:00Z</time></trkpt><trkpt lat="59.2576360703" lon="30.6936979294"><time>2026-09-01T14:00:03Z</time></trkpt><trkpt lat="59.2576360703" lon="30.6936979294"><time>2026-09-01T14:00:05Z</time></trkpt><trkpt lat="59.2576360703" lon="30.6936979294"><time>2026-09-01T14:00:08Z</time></trkpt><trkpt lat="59.2576360703" lon="30.6936979294"><time>2026-09-01T14:00:10Z</time></trkpt><trkpt lat="59.2576360703" lon="30.6936979294"><time>2026-09-01T14:00:13Z</time></trkpt><trkpt lat="59.2576360703" lon="30.6936979294"><time>2026-09-01T14:00:15Z</time></trkpt><trkpt lat="59.2576360703" lon="30.6936979294"><time>2026-09-01T14:00:18Z</time></trkpt><trkpt lat="59.2576360703" lon="30.6936979294"><time>2026-09-01T14:00:20Z</time></trkpt><trkpt lat="59.2576360703" lon="30.6936979294"><time>2026-09-01T14:00:23Z</time></trkpt><trkpt lat="59.2576360703" lon="30.6936979294"><time>2026-09-01T14:00:25Z</time></trkpt><trkpt lat="59.2576360703" lon="30.6936979294"><time>2026-09-01T14:00:28Z</time></trkpt><trkpt lat="59.2576360703" lon="30.6936979294"><time>2026-09-01T14:00:30Z</time></trkpt><trkpt lat="59.2576360703" lon="30.6936979294"><time>2026-09-01T14:00:33Z</time></trkpt><trkpt lat="59.2576360703" lon="30.6936979294"><time>2026-09-01T14:00:35Z</time></trkpt><trkpt lat="59.2576360703" lon="30.6936979294"><time>2026-09-01T14:00:38Z</time></trkpt><trkpt lat="59.2576360703" lon="30.6936979294"><time>2026-09-01T14:00:40Z</time></trkpt><trkpt lat="59.2576360703" lon="30.6936979294"><time>2026-09-01T14:00:43Z</time></trkpt><trkpt lat="59.2576360703" lon="30.6936979294"><time>2026-09-01T14:00:45Z</time></trkpt><trkpt lat="59.2576360703" lon="30.6936979294"><time>2026-09-01T14:00:48Z</time></trkpt><trkpt lat="59.2576360703" lon="30.6936979294"><time>2026-09-01T14:00:50Z</time></trkpt><trkpt lat="59.2576360703" lon="30.6936979294"><time>2026-09-01T14:00:53Z</time></trkpt><trkpt lat="59.2576360703" lon="30.6936979294"><time>2026-09-01T14:00:55Z</time></trkpt><trkpt lat="59.2576360703" lon="30.6936979294"><time>2026-09-01T14:00:58Z</time></trkpt><trkpt lat="59.2576360703" lon="30.6936979294"><time>2026-09-01T14:01:00Z</time></trkpt><trkpt lat="59.2576360703" lon="30.6936979294"><time>2026-09-01T14:01:03Z</time></trkpt><trkpt lat="59.2576360703" lon="30.6936979294"><time>2026-09-01T14:01:05Z</time></trkpt><trkpt lat="59.2576360703" lon="30.6936979294"><time>2026-09-01T14:01:08Z</time></trkpt><trkpt lat="59.2576360703" lon="30.6936979294"><time>2026-09-01T14:01:10Z</time></trkpt><trkpt lat="59.2576146126" lon="30.6936979294"><time>2026-09-01T14:01:13Z</time></trkpt><trkpt lat="59.2576146126" lon="30.6936979294"><time>2026-09-01T14:01:15Z</time></trkpt><trkpt lat="59.2576146126" lon="30.6936979294"><time>2026-09-01T14:01:18Z</time></trkpt><trkpt lat="59.2576146126" lon="30.6936979294"><time>2026-09-01T14:01:20Z</time></trkpt><trkpt lat="59.2576146126" lon="30.6936979294"><time>2026-09-01T14:01:23Z</time></trkpt><trkpt lat="59.2576146126" lon="30.6936979294"><time>2026-09-01T14:01:25Z</time></trkpt><trkpt lat="59.2576146126" lon="30.6936979294"><time>2026-09-01T14:01:28Z</time></trkpt><trkpt lat="59.2576146126" lon="30.6936979294"><time>2026-09-01T14:01:30Z</time></trkpt><trkpt lat="59.2576146126" lon="30.6936979294"><time>2026-09-01T14:01:33Z</time></trkpt><trkpt lat="59.2576146126" lon="30.6936979294"><time>2026-09-01T14:01:35Z</time></trkpt><trkpt lat="59.2576146126" lon="30.6936979294"><time>2026-09-01T14:01:38Z</time></trkpt><trkpt lat="59.2576146126" lon="30.6936979294"><time>2026-09-01T14:01:40Z</time></trkpt><trkpt lat="59.2576146126" lon="30.6936979294"><time>2026-09-01T14:01:43Z</time></trkpt><trkpt lat="59.2576146126" lon="30.6936979294"><time>2026-09-01T14:01:45Z</time></trkpt><trkpt lat="59.2576146126" lon="30.6936979294"><time>2026-09-01T14:01:48Z</time></trkpt><trkpt lat="59.2576146126" lon="30.6936979294"><time>2026-09-01T14:01:50Z</time></trkpt><trkpt lat="59.2576360703" lon="30.6936979294"><time>2026-09-01T14:01:53Z</time></trkpt><trkpt lat="59.2576360703" lon="30.6936979294"><time>2026-09-01T14:01:55Z</time></trkpt><trkpt lat="59.2576360703" lon="30.6936979294"><time>2026-09-01T14:01:58Z</time></trkpt><trkpt lat="59.2576360703" lon="30.6936979294"><time>2026-09-01T14:02:00Z</time></trkpt><trkpt lat="59.2576360703" lon="30.6936979294"><time>2026-09-01T14:02:03Z</time></trkpt><trkpt lat="59.2576360703" lon="30.6936979294"><time>2026-09-01T14:02:05Z</time></trkpt><trkpt lat="59.2576360703" lon="30.6936979294"><time>2026-09-01T14:02:08Z</time></trkpt><trkpt lat="59.2576360703" lon="30.6936979294"><time>2026-09-01T14:02:10Z</time></trkpt><trkpt lat="59.2576360703" lon="30.6936979294"><time>2026-09-01T14:02:13Z</time></trkpt><trkpt lat="59.2576360703" lon="30.6936979294"><time>2026-09-01T14:02:15Z</time></trkpt><trkpt lat="59.2576360703" lon="30.6936979294"><time>2026-09-01T14:02:18Z</time></trkpt><trkpt lat="59.2576360703" lon="30.6936979294"><time>2026-09-01T14:02:20Z</time></trkpt><trkpt lat="59.2576360703" lon="30.6936979294"><time>2026-09-01T14:02:23Z</time></trkpt><trkpt lat="59.2576360703" lon="30.6936979294"><time>2026-09-01T14:02:25Z</time></trkpt><trkpt lat="59.2576360703" lon="30.6936979294"><time>2026-09-01T14:02:28Z</time></trkpt><trkpt lat="59.2576360703" lon="30.6936979294"><time>2026-09-01T14:02:30Z</time></trkpt><trkpt lat="59.2576360703" lon="30.6936979294"><time>2026-09-01T14:02:33Z</time></trkpt><trkpt lat="59.2576360703" lon="30.6936979294"><time>2026-09-01T14:02:35Z</time></trkpt><trkpt lat="59.2576360703" lon="30.6936979294"><time>2026-09-01T14:02:38Z</time></trkpt><trkpt lat="59.2576360703" lon="30.6936979294"><time>2026-09-01T14:02:40Z</time></trkpt><trkpt lat="59.2576360703" lon="30.6936979294"><time>2026-09-01T14:02:43Z</time></trkpt><trkpt lat="59.2576360703" lon="30.6937193871"><time>2026-09-01T14:02:45Z</time></trkpt><trkpt lat="59.2576360703" lon="30.6937193871"><time>2026-09-01T14:02:48Z</time></trkpt><trkpt lat="59.2576360703" lon="30.6937193871"><time>2026-09-01T14:02:50Z</time></trkpt><trkpt lat="59.2576360703" lon="30.6937193871"><time>2026-09-01T14:02:53Z</time></trkpt><trkpt lat="59.2576360703" lon="30.6937193871"><time>2026-09-01T14:02:55Z</time></trkpt><trkpt lat="59.2576360703" lon="30.6936979294"><time>2026-09-01T14:02:58Z</time></trkpt><trkpt lat="59.2576575279" lon="30.6937193871"><time>2026-09-01T14:03:00Z</time></trkpt><trkpt lat="59.2576360703" lon="30.6937193871"><time>2026-09-01T14:03:03Z</time></trkpt><trkpt lat="59.2576360703" lon="30.6936764717"><time>2026-09-01T14:03:05Z</time></trkpt><trkpt lat="59.2576360703" lon="30.6936979294"><time>2026-09-01T14:03:08Z</time></trkpt><trkpt lat="59.2576360703" lon="30.6937193871"><time>2026-09-01T14:03:10Z</time></trkpt><trkpt lat="59.2576360703" lon="30.6937193871"><time>2026-09-01T14:03:13Z</time></trkpt><trkpt lat="59.2576360703" lon="30.6937193871"><time>2026-09-01T14:03:15Z</time></trkpt><trkpt lat="59.2576360703" lon="30.6937193871"><time>2026-09-01T14:03:18Z</time></trkpt><trkpt lat="59.2576575279" lon="30.6936979294"><time>2026-09-01T14:03:20Z</time></trkpt><trkpt lat="59.2576575279" lon="30.6936550140"><time>2026-09-01T14:03:23Z</time></trkpt><trkpt lat="59.2576360703" lon="30.6936764717"><time>2026-09-01T14:03:25Z</time></trkpt><trkpt lat="59.2576360703" lon="30.6937193871"><time>2026-09-01T14:03:28Z</time></trkpt><trkpt lat="59.2576360703" lon="30.6937623024"><time>2026-09-01T14:03:30Z</time></trkpt><trkpt lat="59.2576360703" lon="30.6937623024"><time>2026-09-01T14:03:33Z</time></trkpt><trkpt lat="59.2576360703" lon="30.6937623024"><time>2026-09-01T14:03:35Z</time></trkpt><trkpt lat="59.2576360703" lon="30.6937623024"><time>2026-09-01T14:03:38Z</time></trkpt><trkpt lat="59.2576360703" lon="30.6937623024"><time>2026-09-01T14:03:40Z</time></trkpt><trkpt lat="59.2576360703" lon="30.6937623024"><time>2026-09-01T14:03:43Z</time></trkpt><trkpt lat="59.2576360703" lon="30.6937623024"><time>2026-09-01T14:03:45Z</time></trkpt><trkpt lat="59.2576360703" lon="30.6937623024"><time>2026-09-01T14:03:48Z</time></trkpt><trkpt lat="59.2576360703" lon="30.6937623024"><time>2026-09-01T14:03:50Z</time></trkpt><trkpt lat="59.2576360703" lon="30.6937623024"><time>2026-09-01T14:03:53Z</time></trkpt><trkpt lat="59.2576360703" lon="30.6937623024"><time>2026-09-01T14:03:55Z</time></trkpt><trkpt lat="59.2576360703" lon="30.6937623024"><time>2026-09-01T14:03:58Z</time></trkpt><trkpt lat="59.2576360703" lon="30.6937623024"><time>2026-09-01T14:04:00Z</time></trkpt><trkpt lat="59.2576360703" lon="30.6937623024"><time>2026-09-01T14:04:03Z</time></trkpt><trkpt lat="59.2576360703" lon="30.6937623024"><time>2026-09-01T14:04:05Z</time></trkpt><trkpt lat="59.2576360703" lon="30.6937623024"><time>2026-09-01T14:04:08Z</time></trkpt><trkpt lat="59.2576360703" lon="30.6937623024"><time>2026-09-01T14:04:10Z</time></trkpt><trkpt lat="59.2576360703" lon="30.6937623024"><time>2026-09-01T14:04:13Z</time></trkpt><trkpt lat="59.2576360703" lon="30.6937623024"><time>2026-09-01T14:04:15Z</time></trkpt><trkpt lat="59.2576360703" lon="30.6937837601"><time>2026-09-01T14:04:18Z</time></trkpt><trkpt lat="59.2576575279" lon="30.6937837601"><time>2026-09-01T14:04:20Z</time></trkpt><trkpt lat="59.2576575279" lon="30.6938052177"><time>2026-09-01T14:04:23Z</time></trkpt><trkpt lat="59.2576789856" lon="30.6937837601"><time>2026-09-01T14:04:25Z</time></trkpt><trkpt lat="59.2576789856" lon="30.6937837601"><time>2026-09-01T14:04:28Z</time></trkpt><trkpt lat="59.2576789856" lon="30.6937623024"><time>2026-09-01T14:04:30Z</time></trkpt><trkpt lat="59.2577004433" lon="30.6937623024"><time>2026-09-01T14:04:33Z</time></trkpt><trkpt lat="59.2577219009" lon="30.6937837601"><time>2026-09-01T14:04:35Z</time></trkpt><trkpt lat="59.2577433586" lon="30.6937837601"><time>2026-09-01T14:04:38Z</time></trkpt><trkpt lat="59.2577648163" lon="30.6937837601"><time>2026-09-01T14:04:40Z</time></trkpt><trkpt lat="59.2577862740" lon="30.6937623024"><time>2026-09-01T14:04:43Z</time></trkpt><trkpt lat="59.2578077316" lon="30.6937408447"><time>2026-09-01T14:04:45Z</time></trkpt><trkpt lat="59.2578077316" lon="30.6937193871"><time>2026-09-01T14:04:48Z</time></trkpt><trkpt lat="59.2578291893" lon="30.6937408447"><time>2026-09-01T14:04:50Z</time></trkpt><trkpt lat="59.2578506470" lon="30.6937408447"><time>2026-09-01T14:04:53Z</time></trkpt><trkpt lat="59.2578721046" lon="30.6937408447"><time>2026-09-01T14:04:55Z</time></trkpt><trkpt lat="59.2578721046" lon="30.6937408447"><time>2026-09-01T14:04:58Z</time></trkpt><trkpt lat="59.2578721046" lon="30.6937623024"><time>2026-09-01T14:05:00Z</time></trkpt><trkpt lat="59.2578935623" lon="30.6937837601"><time>2026-09-01T14:05:03Z</time></trkpt><trkpt lat="59.2578935623" lon="30.6937837601"><time>2026-09-01T14:05:05Z</time></trkpt><trkpt lat="59.2579150200" lon="30.6938052177"><time>2026-09-01T14:05:08Z</time></trkpt><trkpt lat="59.2579364777" lon="30.6938481331"><time>2026-09-01T14:05:10Z</time></trkpt><trkpt lat="59.2579579353" lon="30.6938695908"><time>2026-09-01T14:05:13Z</time></trkpt><trkpt lat="59.2579579353" lon="30.6938695908"><time>2026-09-01T14:05:15Z</time></trkpt><trkpt lat="59.2579579353" lon="30.6938695908"><time>2026-09-01T14:05:18Z</time></trkpt><trkpt lat="59.2579793930" lon="30.6938910484"><time>2026-09-01T14:05:20Z</time></trkpt><trkpt lat="59.2580008507" lon="30.6938910484"><time>2026-09-01T14:05:23Z</time></trkpt><trkpt lat="59.2580008507" lon="30.6939339638"><time>2026-09-01T14:05:25Z</time></trkpt><trkpt lat="59.2580223083" lon="30.6939554214"><time>2026-09-01T14:05:28Z</time></trkpt><trkpt lat="59.2580652237" lon="30.6939983368"><time>2026-09-01T14:05:30Z</time></trkpt><trkpt lat="59.2580652237" lon="30.6939983368"><time>2026-09-01T14:05:33Z</time></trkpt><trkpt lat="59.2580652237" lon="30.6939983368"><time>2026-09-01T14:05:35Z</time></trkpt><trkpt lat="59.2580652237" lon="30.6939983368"><time>2026-09-01T14:05:38Z</time></trkpt><trkpt lat="59.2581081390" lon="30.6940412521"><time>2026-09-01T14:05:40Z</time></trkpt><trkpt lat="59.2581295967" lon="30.6940412521"><time>2026-09-01T14:05:43Z</time></trkpt><trkpt lat="59.2581510544" lon="30.6940627098"><time>2026-09-01T14:05:45Z</time></trkpt><trkpt lat="59.2581725121" lon="30.6941056252"><time>2026-09-01T14:05:48Z</time></trkpt><trkpt lat="59.2582154274" lon="30.6941056252"><time>2026-09-01T14:05:50Z</time></trkpt><trkpt lat="59.2582154274" lon="30.6940841675"><time>2026-09-01T14:05:53Z</time></trkpt><trkpt lat="59.2582368851" lon="30.6941270828"><time>2026-09-01T14:05:55Z</time></trkpt><trkpt lat="59.2582798004" lon="30.6941270828"><time>2026-09-01T14:05:58Z</time></trkpt><trkpt lat="59.2582798004" lon="30.6941056252"><time>2026-09-01T14:06:00Z</time></trkpt><trkpt lat="59.2583012581" lon="30.6941056252"><time>2026-09-01T14:06:03Z</time></trkpt><trkpt lat="59.2583012581" lon="30.6941056252"><time>2026-09-01T14:06:05Z</time></trkpt><trkpt lat="59.2583012581" lon="30.6941056252"><time>2026-09-01T14:06:08Z</time></trkpt><trkpt lat="59.2583012581" lon="30.6940841675"><time>2026-09-01T14:06:10Z</time></trkpt><trkpt lat="59.2583012581" lon="30.6940627098"><time>2026-09-01T14:06:13Z</time></trkpt><trkpt lat="59.2583012581" lon="30.6940627098"><time>2026-09-01T14:06:15Z</time></trkpt><trkpt lat="59.2583012581" lon="30.6940627098"><time>2026-09-01T14:06:18Z</time></trkpt><trkpt lat="59.2583012581" lon="30.6940627098"><time>2026-09-01T14:06:20Z</time></trkpt><trkpt lat="59.2583012581" lon="30.6940627098"><time>2026-09-01T14:06:23Z</time></trkpt><trkpt lat="59.2583227158" lon="30.6940412521"><time>2026-09-01T14:06:25Z</time></trkpt><trkpt lat="59.2583227158" lon="30.6940197945"><time>2026-09-01T14:06:28Z</time></trkpt><trkpt lat="59.2583227158" lon="30.6939339638"><time>2026-09-01T14:06:30Z</time></trkpt><trkpt lat="59.2583227158" lon="30.6938910484"><time>2026-09-01T14:06:33Z</time></trkpt><trkpt lat="59.2583227158" lon="30.6938910484"><time>2026-09-01T14:06:35Z</time></trkpt><trkpt lat="59.2583012581" lon="30.6938910484"><time>2026-09-01T14:06:38Z</time></trkpt><trkpt lat="59.2583012581" lon="30.6938910484"><time>2026-09-01T14:06:40Z</time></trkpt><trkpt lat="59.2583012581" lon="30.6938266754"><time>2026-09-01T14:06:43Z</time></trkpt><trkpt lat="59.2583012581" lon="30.6936550140"><time>2026-09-01T14:06:45Z</time></trkpt><trkpt lat="59.2582798004" lon="30.6936335564"><time>2026-09-01T14:06:48Z</time></trkpt><trkpt lat="59.2582583427" lon="30.6936120987"><time>2026-09-01T14:06:50Z</time></trkpt><trkpt lat="59.2582583427" lon="30.6935906410"><time>2026-09-01T14:06:53Z</time></trkpt><trkpt lat="59.2582583427" lon="30.6935048103"><time>2026-09-01T14:06:55Z</time></trkpt><trkpt lat="59.2582583427" lon="30.6935048103"><time>2026-09-01T14:06:58Z</time></trkpt><trkpt lat="59.2582368851" lon="30.6934404373"><time>2026-09-01T14:07:00Z</time></trkpt><trkpt lat="59.2582368851" lon="30.6934189796"><time>2026-09-01T14:07:03Z</time></trkpt><trkpt lat="59.2582368851" lon="30.6933546066"><time>2026-09-01T14:07:05Z</time></trkpt><trkpt lat="59.2582368851" lon="30.6933116913"><time>2026-09-01T14:07:08Z</time></trkpt><trkpt lat="59.2582368851" lon="30.6933116913"><time>2026-09-01T14:07:10Z</time></trkpt><trkpt lat="59.2582368851" lon="30.6933116913"><time>2026-09-01T14:07:13Z</time></trkpt><trkpt lat="59.2582368851" lon="30.6932044029"><time>2026-09-01T14:07:15Z</time></trkpt><trkpt lat="59.2582154274" lon="30.6931185722"><time>2026-09-01T14:07:18Z</time></trkpt><trkpt lat="59.2582154274" lon="30.6930971146"><time>2026-09-01T14:07:20Z</time></trkpt><trkpt lat="59.2581939697" lon="30.6930756569"><time>2026-09-01T14:07:23Z</time></trkpt><trkpt lat="59.2581939697" lon="30.6930327415"><time>2026-09-01T14:07:25Z</time></trkpt><trkpt lat="59.2582154274" lon="30.6929898262"><time>2026-09-01T14:07:28Z</time></trkpt><trkpt lat="59.2582154274" lon="30.6929469109"><time>2026-09-01T14:07:30Z</time></trkpt><trkpt lat="59.2581939697" lon="30.6929469109"><time>2026-09-01T14:07:33Z</time></trkpt><trkpt lat="59.2581725121" lon="30.6929254532"><time>2026-09-01T14:07:35Z</time></trkpt><trkpt lat="59.2581725121" lon="30.6928825378"><time>2026-09-01T14:07:38Z</time></trkpt><trkpt lat="59.2581725121" lon="30.6928396225"><time>2026-09-01T14:07:40Z</time></trkpt><trkpt lat="59.2581725121" lon="30.6928396225"><time>2026-09-01T14:07:43Z</time></trkpt><trkpt lat="59.2581725121" lon="30.6928181648"><time>2026-09-01T14:07:45Z</time></trkpt><trkpt lat="59.2581725121" lon="30.6927537918"><time>2026-09-01T14:07:48Z</time></trkpt><trkpt lat="59.2581510544" lon="30.6926679611"><time>2026-09-01T14:07:50Z</time></trkpt><trkpt lat="59.2581510544" lon="30.6926679611"><time>2026-09-01T14:07:53Z</time></trkpt><trkpt lat="59.2581510544" lon="30.6926679611"><time>2026-09-01T14:07:55Z</time></trkpt><trkpt lat="59.2581510544" lon="30.6926679611"><time>2026-09-01T14:07:58Z</time></trkpt><trkpt lat="59.2581510544" lon="30.6925392151"><time>2026-09-01T14:08:00Z</time></trkpt><trkpt lat="59.2581295967" lon="30.6925177574"><time>2026-09-01T14:08:03Z</time></trkpt><trkpt lat="59.2581081390" lon="30.6924533844"><time>2026-09-01T14:08:05Z</time></trkpt><trkpt lat="59.2580866814" lon="30.6923890114"><time>2026-09-01T14:08:08Z</time></trkpt><trkpt lat="59.2580866814" lon="30.6923890114"><time>2026-09-01T14:08:10Z</time></trkpt><trkpt lat="59.2580652237" lon="30.6923675537"><time>2026-09-01T14:08:13Z</time></trkpt><trkpt lat="59.2580437660" lon="30.6923031807"><time>2026-09-01T14:08:15Z</time></trkpt><trkpt lat="59.2580437660" lon="30.6922602654"><time>2026-09-01T14:08:18Z</time></trkpt><trkpt lat="59.2580437660" lon="30.6922602654"><time>2026-09-01T14:08:20Z</time></trkpt><trkpt lat="59.2580437660" lon="30.6922388077"><time>2026-09-01T14:08:23Z</time></trkpt><trkpt lat="59.2580437660" lon="30.6922173500"><time>2026-09-01T14:08:25Z</time></trkpt><trkpt lat="59.2580437660" lon="30.6921529770"><time>2026-09-01T14:08:28Z</time></trkpt><trkpt lat="59.2580223083" lon="30.6921100616"><time>2026-09-01T14:08:30Z</time></trkpt><trkpt lat="59.2580223083" lon="30.6921100616"><time>2026-09-01T14:08:33Z</time></trkpt><trkpt lat="59.2580223083" lon="30.6920027733"><time>2026-09-01T14:08:35Z</time></trkpt><trkpt lat="59.2580223083" lon="30.6919169426"><time>2026-09-01T14:08:38Z</time></trkpt><trkpt lat="59.2580437660" lon="30.6918525696"><time>2026-09-01T14:08:40Z</time></trkpt><trkpt lat="59.2580437660" lon="30.6918525696"><time>2026-09-01T14:08:43Z</time></trkpt><trkpt lat="59.2580223083" lon="30.6918311119"><time>2026-09-01T14:08:45Z</time></trkpt><trkpt lat="59.2580223083" lon="30.6917881966"><time>2026-09-01T14:08:48Z</time></trkpt><trkpt lat="59.2580223083" lon="30.6917667389"><time>2026-09-01T14:08:50Z</time></trkpt><trkpt lat="59.2580223083" lon="30.6917238235"><time>2026-09-01T14:08:53Z</time></trkpt><trkpt lat="59.2580437660" lon="30.6916809082"><time>2026-09-01T14:08:55Z</time></trkpt><trkpt lat="59.2580437660" lon="30.6916809082"><time>2026-09-01T14:08:58Z</time></trkpt><trkpt lat="59.2580437660" lon="30.6916809082"><time>2026-09-01T14:09:00Z</time></trkpt><trkpt lat="59.2580652237" lon="30.6916594505"><time>2026-09-01T14:09:03Z</time></trkpt><trkpt lat="59.2580866814" lon="30.6915736198"><time>2026-09-01T14:09:05Z</time></trkpt><trkpt lat="59.2580866814" lon="30.6915307045"><time>2026-09-01T14:09:08Z</time></trkpt><trkpt lat="59.2580866814" lon="30.6915092468"><time>2026-09-01T14:09:10Z</time></trkpt><trkpt lat="59.2580652237" lon="30.6915092468"><time>2026-09-01T14:09:13Z</time></trkpt><trkpt lat="59.2580866814" lon="30.6914663315"><time>2026-09-01T14:09:15Z</time></trkpt><trkpt lat="59.2580866814" lon="30.6914877892"><time>2026-09-01T14:09:18Z</time></trkpt><trkpt lat="59.2581295967" lon="30.6914234161"><time>2026-09-01T14:09:20Z</time></trkpt><trkpt lat="59.2581510544" lon="30.6913590431"><time>2026-09-01T14:09:23Z</time></trkpt><trkpt lat="59.2581510544" lon="30.6913161278"><time>2026-09-01T14:09:25Z</time></trkpt><trkpt lat="59.2581510544" lon="30.6913161278"><time>2026-09-01T14:09:28Z</time></trkpt><trkpt lat="59.2581510544" lon="30.6913161278"><time>2026-09-01T14:09:30Z</time></trkpt><trkpt lat="59.2581510544" lon="30.6912946701"><time>2026-09-01T14:09:33Z</time></trkpt><trkpt lat="59.2581725121" lon="30.6912302971"><time>2026-09-01T14:09:35Z</time></trkpt><trkpt lat="59.2581725121" lon="30.6912302971"><time>2026-09-01T14:09:38Z</time></trkpt><trkpt lat="59.2581725121" lon="30.6912302971"><time>2026-09-01T14:09:40Z</time></trkpt><trkpt lat="59.2581725121" lon="30.6912302971"><time>2026-09-01T14:09:43Z</time></trkpt><trkpt lat="59.2581725121" lon="30.6912302971"><time>2026-09-01T14:09:45Z</time></trkpt><trkpt lat="59.2581725121" lon="30.6912302971"><time>2026-09-01T14:09:48Z</time></trkpt><trkpt lat="59.2581725121" lon="30.6912302971"><time>2026-09-01T14:09:50Z</time></trkpt><trkpt lat="59.2581725121" lon="30.6912302971"><time>2026-09-01T14:09:53Z</time></trkpt><trkpt lat="59.2581725121" lon="30.6912302971"><time>2026-09-01T14:09:55Z</time></trkpt><trkpt lat="59.2581725121" lon="30.6912302971"><time>2026-09-01T14:09:58Z</time></trkpt><trkpt lat="59.2581725121" lon="30.6912302971"><time>2026-09-01T14:10:00Z</time></trkpt><trkpt lat="59.2581725121" lon="30.6912302971"><time>2026-09-01T14:10:03Z</time></trkpt><trkpt lat="59.2581725121" lon="30.6912302971"><time>2026-09-01T14:10:05Z</time></trkpt><trkpt lat="59.2581725121" lon="30.6912302971"><time>2026-09-01T14:10:08Z</time></trkpt><trkpt lat="59.2581725121" lon="30.6912302971"><time>2026-09-01T14:10:10Z</time></trkpt><trkpt lat="59.2581725121" lon="30.6912302971"><time>2026-09-01T14:10:13Z</time></trkpt><trkpt lat="59.2581725121" lon="30.6912302971"><time>2026-09-01T14:10:15Z</time></trkpt><trkpt lat="59.2581725121" lon="30.6912302971"><time>2026-09-01T14:10:18Z</time></trkpt><trkpt lat="59.2581725121" lon="30.6912302971"><time>2026-09-01T14:10:20Z</time></trkpt><trkpt lat="59.2581725121" lon="30.6912302971"><time>2026-09-01T14:10:23Z</time></trkpt><trkpt lat="59.2581725121" lon="30.6912302971"><time>2026-09-01T14:10:25Z</time></trkpt><trkpt lat="59.2581725121" lon="30.6912302971"><time>2026-09-01T14:10:28Z</time></trkpt><trkpt lat="59.2581725121" lon="30.6912302971"><time>2026-09-01T14:10:30Z</time></trkpt><trkpt lat="59.2581725121" lon="30.6912302971"><time>2026-09-01T14:10:33Z</time></trkpt><trkpt lat="59.2581725121" lon="30.6912302971"><time>2026-09-01T14:10:35Z</time></trkpt><trkpt lat="59.2581725121" lon="30.6912302971"><time>2026-09-01T14:10:38Z</time></trkpt><trkpt lat="59.2581725121" lon="30.6912302971"><time>2026-09-01T14:10:40Z</time></trkpt><trkpt lat="59.2581725121" lon="30.6912302971"><time>2026-09-01T14:10:43Z</time></trkpt><trkpt lat="59.2581725121" lon="30.6912302971"><time>2026-09-01T14:10:45Z</time></trkpt><trkpt lat="59.2581725121" lon="30.6912302971"><time>2026-09-01T14:10:48Z</time></trkpt><trkpt lat="59.2581725121" lon="30.6912302971"><time>2026-09-01T14:10:50Z</time></trkpt><trkpt lat="59.2581725121" lon="30.6912302971"><time>2026-09-01T14:10:53Z</time></trkpt><trkpt lat="59.2581725121" lon="30.6912302971"><time>2026-09-01T14:10:55Z</time></trkpt><trkpt lat="59.2581725121" lon="30.6912302971"><time>2026-09-01T14:10:58Z</time></trkpt><trkpt lat="59.2581725121" lon="30.6912302971"><time>2026-09-01T14:11:00Z</time></trkpt><trkpt lat="59.2581725121" lon="30.6912302971"><time>2026-09-01T14:11:03Z</time></trkpt><trkpt lat="59.2581725121" lon="30.6912302971"><time>2026-09-01T14:11:05Z</time></trkpt><trkpt lat="59.2581725121" lon="30.6912302971"><time>2026-09-01T14:11:08Z</time></trkpt><trkpt lat="59.2581725121" lon="30.6912088394"><time>2026-09-01T14:11:10Z</time></trkpt><trkpt lat="59.2581939697" lon="30.6912088394"><time>2026-09-01T14:11:13Z</time></trkpt><trkpt lat="59.2582154274" lon="30.6912302971"><time>2026-09-01T14:11:15Z</time></trkpt><trkpt lat="59.2582368851" lon="30.6912517548"><time>2026-09-01T14:11:18Z</time></trkpt><trkpt lat="59.2582368851" lon="30.6912517548"><time>2026-09-01T14:11:20Z</time></trkpt><trkpt lat="59.2582583427" lon="30.6912517548"><time>2026-09-01T14:11:23Z</time></trkpt><trkpt lat="59.2582798004" lon="30.6912732124"><time>2026-09-01T14:11:25Z</time></trkpt><trkpt lat="59.2583012581" lon="30.6912732124"><time>2026-09-01T14:11:28Z</time></trkpt><trkpt lat="59.2583012581" lon="30.6912732124"><time>2026-09-01T14:11:30Z</time></trkpt><trkpt lat="59.2583227158" lon="30.6912732124"><time>2026-09-01T14:11:33Z</time></trkpt><trkpt lat="59.2583441734" lon="30.6912732124"><time>2026-09-01T14:11:35Z</time></trkpt><trkpt lat="59.2583656311" lon="30.6912517548"><time>2026-09-01T14:11:38Z</time></trkpt><trkpt lat="59.2583656311" lon="30.6912517548"><time>2026-09-01T14:11:40Z</time></trkpt><trkpt lat="59.2583870888" lon="30.6913161278"><time>2026-09-01T14:11:45Z</time></trkpt><trkpt lat="59.2583870888" lon="30.6913161278"><time>2026-09-01T14:11:48Z</time></trkpt><trkpt lat="59.2584085464" lon="30.6912946701"><time>2026-09-01T14:11:50Z</time></trkpt><trkpt lat="59.2584300041" lon="30.6912732124"><time>2026-09-01T14:11:53Z</time></trkpt><trkpt lat="59.2584514618" lon="30.6912088394"><time>2026-09-01T14:11:55Z</time></trkpt><trkpt lat="59.2584729195" lon="30.6911873817"><time>2026-09-01T14:11:58Z</time></trkpt><trkpt lat="59.2584943771" lon="30.6911659241"><time>2026-09-01T14:12:00Z</time></trkpt><trkpt lat="59.2584729195" lon="30.6911659241"><time>2026-09-01T14:12:03Z</time></trkpt><trkpt lat="59.2584943771" lon="30.6911873817"><time>2026-09-01T14:12:05Z</time></trkpt><trkpt lat="59.2585158348" lon="30.6911873817"><time>2026-09-01T14:12:08Z</time></trkpt><trkpt lat="59.2585372925" lon="30.6911873817"><time>2026-09-01T14:12:10Z</time></trkpt><trkpt lat="59.2585372925" lon="30.6911659241"><time>2026-09-01T14:12:13Z</time></trkpt><trkpt lat="59.2585372925" lon="30.6911659241"><time>2026-09-01T14:12:15Z</time></trkpt><trkpt lat="59.2585587502" lon="30.6911659241"><time>2026-09-01T14:12:18Z</time></trkpt><trkpt lat="59.2585802078" lon="30.6911873817"><time>2026-09-01T14:12:20Z</time></trkpt><trkpt lat="59.2586016655" lon="30.6911659241"><time>2026-09-01T14:12:23Z</time></trkpt><trkpt lat="59.2586231232" lon="30.6911659241"><time>2026-09-01T14:12:25Z</time></trkpt><trkpt lat="59.2586445808" lon="30.6911444664"><time>2026-09-01T14:12:28Z</time></trkpt><trkpt lat="59.2586660385" lon="30.6911444664"><time>2026-09-01T14:12:30Z</time></trkpt><trkpt lat="59.2586660385" lon="30.6911444664"><time>2026-09-01T14:12:33Z</time></trkpt><trkpt lat="59.2586874962" lon="30.6911230087"><time>2026-09-01T14:12:35Z</time></trkpt><trkpt lat="59.2587089539" lon="30.6911230087"><time>2026-09-01T14:12:38Z</time></trkpt><trkpt lat="59.2587518692" lon="30.6911230087"><time>2026-09-01T14:12:40Z</time></trkpt><trkpt lat="59.2587733269" lon="30.6911015511"><time>2026-09-01T14:12:43Z</time></trkpt><trkpt lat="59.2587947845" lon="30.6910800934"><time>2026-09-01T14:12:45Z</time></trkpt><trkpt lat="59.2587947845" lon="30.6910586357"><time>2026-09-01T14:12:48Z</time></trkpt><trkpt lat="59.2587947845" lon="30.6910586357"><time>2026-09-01T14:12:50Z</time></trkpt><trkpt lat="59.2588162422" lon="30.6910586357"><time>2026-09-01T14:12:53Z</time></trkpt><trkpt lat="59.2588591576" lon="30.6910371780"><time>2026-09-01T14:12:55Z</time></trkpt><trkpt lat="59.2588806152" lon="30.6910157204"><time>2026-09-01T14:12:58Z</time></trkpt><trkpt lat="59.2589020729" lon="30.6910157204"><time>2026-09-01T14:13:00Z</time></trkpt><trkpt lat="59.2589020729" lon="30.6910157204"><time>2026-09-01T14:13:03Z</time></trkpt><trkpt lat="59.2589235306" lon="30.6909942627"><time>2026-09-01T14:13:05Z</time></trkpt><trkpt lat="59.2589235306" lon="30.6910157204"><time>2026-09-01T14:13:08Z</time></trkpt><trkpt lat="59.2589449883" lon="30.6910157204"><time>2026-09-01T14:13:10Z</time></trkpt><trkpt lat="59.2589449883" lon="30.6910157204"><time>2026-09-01T14:13:13Z</time></trkpt><trkpt lat="59.2589879036" lon="30.6910371780"><time>2026-09-01T14:13:15Z</time></trkpt><trkpt lat="59.2590093613" lon="30.6910157204"><time>2026-09-01T14:13:18Z</time></trkpt><trkpt lat="59.2590093613" lon="30.6910157204"><time>2026-09-01T14:13:20Z</time></trkpt><trkpt lat="59.2590308189" lon="30.6910157204"><time>2026-09-01T14:13:23Z</time></trkpt><trkpt lat="59.2590308189" lon="30.6910157204"><time>2026-09-01T14:13:25Z</time></trkpt><trkpt lat="59.2590737343" lon="30.6910157204"><time>2026-09-01T14:13:28Z</time></trkpt><trkpt lat="59.2590951920" lon="30.6910157204"><time>2026-09-01T14:13:30Z</time></trkpt><trkpt lat="59.2591381073" lon="30.6909942627"><time>2026-09-01T14:13:33Z</time></trkpt><trkpt lat="59.2591381073" lon="30.6909728050"><time>2026-09-01T14:13:35Z</time></trkpt><trkpt lat="59.2591595650" lon="30.6909728050"><time>2026-09-01T14:13:38Z</time></trkpt><trkpt lat="59.2591810226" lon="30.6909728050"><time>2026-09-01T14:13:40Z</time></trkpt><trkpt lat="59.2592024803" lon="30.6909513474"><time>2026-09-01T14:13:43Z</time></trkpt><trkpt lat="59.2592024803" lon="30.6909513474"><time>2026-09-01T14:13:45Z</time></trkpt><trkpt lat="59.2592453957" lon="30.6909298897"><time>2026-09-01T14:13:48Z</time></trkpt><trkpt lat="59.2592668533" lon="30.6909298897"><time>2026-09-01T14:13:50Z</time></trkpt><trkpt lat="59.2593097687" lon="30.6909084320"><time>2026-09-01T14:13:53Z</time></trkpt><trkpt lat="59.2593312263" lon="30.6909084320"><time>2026-09-01T14:13:55Z</time></trkpt><trkpt lat="59.2593312263" lon="30.6908869743"><time>2026-09-01T14:13:58Z</time></trkpt><trkpt lat="59.2593097687" lon="30.6908869743"><time>2026-09-01T14:14:00Z</time></trkpt><trkpt lat="59.2593526840" lon="30.6908655167"><time>2026-09-01T14:14:03Z</time></trkpt><trkpt lat="59.2593741417" lon="30.6908655167"><time>2026-09-01T14:14:05Z</time></trkpt><trkpt lat="59.2594170570" lon="30.6908655167"><time>2026-09-01T14:14:08Z</time></trkpt><trkpt lat="59.2594170570" lon="30.6908440590"><time>2026-09-01T14:14:10Z</time></trkpt><trkpt lat="59.2594170570" lon="30.6908440590"><time>2026-09-01T14:14:13Z</time></trkpt><trkpt lat="59.2594170570" lon="30.6908440590"><time>2026-09-01T14:14:15Z</time></trkpt><trkpt lat="59.2594599724" lon="30.6908226013"><time>2026-09-01T14:14:18Z</time></trkpt><trkpt lat="59.2594814301" lon="30.6908226013"><time>2026-09-01T14:14:20Z</time></trkpt><trkpt lat="59.2595243454" lon="30.6908011436"><time>2026-09-01T14:14:23Z</time></trkpt><trkpt lat="59.2595458031" lon="30.6907796860"><time>2026-09-01T14:14:25Z</time></trkpt><trkpt lat="59.2595887184" lon="30.6908011436"><time>2026-09-01T14:14:28Z</time></trkpt><trkpt lat="59.2596101761" lon="30.6907582283"><time>2026-09-01T14:14:30Z</time></trkpt><trkpt lat="59.2596101761" lon="30.6907582283"><time>2026-09-01T14:14:33Z</time></trkpt><trkpt lat="59.2596530914" lon="30.6907582283"><time>2026-09-01T14:14:35Z</time></trkpt><trkpt lat="59.2596745491" lon="30.6907582283"><time>2026-09-01T14:14:38Z</time></trkpt><trkpt lat="59.2596960068" lon="30.6907582283"><time>2026-09-01T14:14:40Z</time></trkpt><trkpt lat="59.2596960068" lon="30.6907582283"><time>2026-09-01T14:14:43Z</time></trkpt><trkpt lat="59.2597174644" lon="30.6907367706"><time>2026-09-01T14:14:45Z</time></trkpt><trkpt lat="59.2597174644" lon="30.6907367706"><time>2026-09-01T14:14:48Z</time></trkpt><trkpt lat="59.2597389221" lon="30.6907367706"><time>2026-09-01T14:14:50Z</time></trkpt><trkpt lat="59.2597818375" lon="30.6907367706"><time>2026-09-01T14:14:53Z</time></trkpt><trkpt lat="59.2598032951" lon="30.6907367706"><time>2026-09-01T14:14:55Z</time></trkpt><trkpt lat="59.2598032951" lon="30.6907367706"><time>2026-09-01T14:14:58Z</time></trkpt><trkpt lat="59.2598032951" lon="30.6907367706"><time>2026-09-01T14:15:00Z</time></trkpt><trkpt lat="59.2598247528" lon="30.6907367706"><time>2026-09-01T14:15:03Z</time></trkpt><trkpt lat="59.2598462105" lon="30.6907367706"><time>2026-09-01T14:15:05Z</time></trkpt><trkpt lat="59.2598462105" lon="30.6907367706"><time>2026-09-01T14:15:08Z</time></trkpt><trkpt lat="59.2598462105" lon="30.6907367706"><time>2026-09-01T14:15:10Z</time></trkpt><trkpt lat="59.2598676682" lon="30.6907367706"><time>2026-09-01T14:15:13Z</time></trkpt><trkpt lat="59.2598676682" lon="30.6907367706"><time>2026-09-01T14:15:15Z</time></trkpt><trkpt lat="59.2598676682" lon="30.6907367706"><time>2026-09-01T14:15:18Z</time></trkpt><trkpt lat="59.2598891258" lon="30.6907367706"><time>2026-09-01T14:15:20Z</time></trkpt><trkpt lat="59.2599105835" lon="30.6907367706"><time>2026-09-01T14:15:23Z</time></trkpt><trkpt lat="59.2599749565" lon="30.6907367706"><time>2026-09-01T14:15:25Z</time></trkpt><trkpt lat="59.2599964142" lon="30.6907367706"><time>2026-09-01T14:15:28Z</time></trkpt><trkpt lat="59.2600178719" lon="30.6907367706"><time>2026-09-01T14:15:30Z</time></trkpt><trkpt lat="59.2600178719" lon="30.6907367706"><time>2026-09-01T14:15:33Z</time></trkpt><trkpt lat="59.2600393295" lon="30.6907153130"><time>2026-09-01T14:15:35Z</time></trkpt><trkpt lat="59.2600822449" lon="30.6906938553"><time>2026-09-01T14:15:38Z</time></trkpt><trkpt lat="59.2601037025" lon="30.6906723976"><time>2026-09-01T14:15:40Z</time></trkpt><trkpt lat="59.2601251602" lon="30.6906509399"><time>2026-09-01T14:15:43Z</time></trkpt><trkpt lat="59.2601466179" lon="30.6906509399"><time>2026-09-01T14:15:45Z</time></trkpt><trkpt lat="59.2601680756" lon="30.6906294823"><time>2026-09-01T14:15:48Z</time></trkpt><trkpt lat="59.2601895332" lon="30.6906294823"><time>2026-09-01T14:15:50Z</time></trkpt><trkpt lat="59.2602324486" lon="30.6906294823"><time>2026-09-01T14:15:53Z</time></trkpt><trkpt lat="59.2602324486" lon="30.6906294823"><time>2026-09-01T14:15:55Z</time></trkpt><trkpt lat="59.2602324486" lon="30.6906294823"><time>2026-09-01T14:15:58Z</time></trkpt><trkpt lat="59.2602539063" lon="30.6906294823"><time>2026-09-01T14:16:00Z</time></trkpt><trkpt lat="59.2602753639" lon="30.6906509399"><time>2026-09-01T14:16:03Z</time></trkpt><trkpt lat="59.2602968216" lon="30.6906294823"><time>2026-09-01T14:16:05Z</time></trkpt><trkpt lat="59.2603182793" lon="30.6906080246"><time>2026-09-01T14:16:08Z</time></trkpt><trkpt lat="59.2603182793" lon="30.6906080246"><time>2026-09-01T14:16:10Z</time></trkpt><trkpt lat="59.2603826523" lon="30.6905651093"><time>2026-09-01T14:16:15Z</time></trkpt><trkpt lat="59.2603826523" lon="30.6905651093"><time>2026-09-01T14:16:18Z</time></trkpt><trkpt lat="59.2604041100" lon="30.6905436516"><time>2026-09-01T14:16:20Z</time></trkpt><trkpt lat="59.2604255676" lon="30.6905436516"><time>2026-09-01T14:16:23Z</time></trkpt><trkpt lat="59.2604684830" lon="30.6905436516"><time>2026-09-01T14:16:25Z</time></trkpt><trkpt lat="59.2604684830" lon="30.6905436516"><time>2026-09-01T14:16:28Z</time></trkpt><trkpt lat="59.2604684830" lon="30.6905436516"><time>2026-09-01T14:16:30Z</time></trkpt><trkpt lat="59.2604899406" lon="30.6905436516"><time>2026-09-01T14:16:33Z</time></trkpt><trkpt lat="59.2605113983" lon="30.6905221939"><time>2026-09-01T14:16:35Z</time></trkpt><trkpt lat="59.2605113983" lon="30.6905221939"><time>2026-09-01T14:16:38Z</time></trkpt><trkpt lat="59.2605543137" lon="30.6905221939"><time>2026-09-01T14:16:40Z</time></trkpt><trkpt lat="59.2605972290" lon="30.6905221939"><time>2026-09-01T14:16:43Z</time></trkpt><trkpt lat="59.2606401443" lon="30.6905221939"><time>2026-09-01T14:16:45Z</time></trkpt><trkpt lat="59.2606401443" lon="30.6905221939"><time>2026-09-01T14:16:48Z</time></trkpt><trkpt lat="59.2606401443" lon="30.6905221939"><time>2026-09-01T14:16:50Z</time></trkpt><trkpt lat="59.2606401443" lon="30.6905221939"><time>2026-09-01T14:16:53Z</time></trkpt><trkpt lat="59.2606401443" lon="30.6905221939"><time>2026-09-01T14:16:55Z</time></trkpt><trkpt lat="59.2606616020" lon="30.6905221939"><time>2026-09-01T14:16:58Z</time></trkpt><trkpt lat="59.2606830597" lon="30.6905221939"><time>2026-09-01T14:17:00Z</time></trkpt><trkpt lat="59.2607045174" lon="30.6905221939"><time>2026-09-01T14:17:03Z</time></trkpt><trkpt lat="59.2607259750" lon="30.6905007362"><time>2026-09-01T14:17:05Z</time></trkpt><trkpt lat="59.2607474327" lon="30.6904792786"><time>2026-09-01T14:17:08Z</time></trkpt><trkpt lat="59.2607903481" lon="30.6904578209"><time>2026-09-01T14:17:10Z</time></trkpt><trkpt lat="59.2608118057" lon="30.6904578209"><time>2026-09-01T14:17:13Z</time></trkpt><trkpt lat="59.2608118057" lon="30.6904363632"><time>2026-09-01T14:17:15Z</time></trkpt><trkpt lat="59.2608118057" lon="30.6904363632"><time>2026-09-01T14:17:18Z</time></trkpt><trkpt lat="59.2608118057" lon="30.6904363632"><time>2026-09-01T14:17:20Z</time></trkpt><trkpt lat="59.2608118057" lon="30.6904363632"><time>2026-09-01T14:17:23Z</time></trkpt><trkpt lat="59.2608332634" lon="30.6904149055"><time>2026-09-01T14:17:25Z</time></trkpt><trkpt lat="59.2608332634" lon="30.6904149055"><time>2026-09-01T14:17:28Z</time></trkpt><trkpt lat="59.2608547211" lon="30.6904149055"><time>2026-09-01T14:17:30Z</time></trkpt><trkpt lat="59.2608547211" lon="30.6904149055"><time>2026-09-01T14:17:33Z</time></trkpt><trkpt lat="59.2608547211" lon="30.6904149055"><time>2026-09-01T14:17:35Z</time></trkpt><trkpt lat="59.2608547211" lon="30.6904149055"><time>2026-09-01T14:17:38Z</time></trkpt><trkpt lat="59.2608547211" lon="30.6904149055"><time>2026-09-01T14:17:40Z</time></trkpt><trkpt lat="59.2608547211" lon="30.6904149055"><time>2026-09-01T14:17:43Z</time></trkpt><trkpt lat="59.2608547211" lon="30.6904363632"><time>2026-09-01T14:17:45Z</time></trkpt><trkpt lat="59.2608547211" lon="30.6904363632"><time>2026-09-01T14:17:48Z</time></trkpt><trkpt lat="59.2608761787" lon="30.6904149055"><time>2026-09-01T14:17:50Z</time></trkpt><trkpt lat="59.2608976364" lon="30.6904149055"><time>2026-09-01T14:17:53Z</time></trkpt><trkpt lat="59.2609405518" lon="30.6904149055"><time>2026-09-01T14:17:55Z</time></trkpt><trkpt lat="59.2609405518" lon="30.6904149055"><time>2026-09-01T14:17:58Z</time></trkpt><trkpt lat="59.2609834671" lon="30.6904363632"><time>2026-09-01T14:18:00Z</time></trkpt><trkpt lat="59.2609834671" lon="30.6904363632"><time>2026-09-01T14:18:03Z</time></trkpt><trkpt lat="59.2610263824" lon="30.6903934479"><time>2026-09-01T14:18:05Z</time></trkpt><trkpt lat="59.2610263824" lon="30.6903934479"><time>2026-09-01T14:18:08Z</time></trkpt><trkpt lat="59.2610263824" lon="30.6903934479"><time>2026-09-01T14:18:10Z</time></trkpt><trkpt lat="59.2610263824" lon="30.6903934479"><time>2026-09-01T14:18:13Z</time></trkpt><trkpt lat="59.2610263824" lon="30.6903934479"><time>2026-09-01T14:18:15Z</time></trkpt><trkpt lat="59.2610263824" lon="30.6903934479"><time>2026-09-01T14:18:18Z</time></trkpt><trkpt lat="59.2610478401" lon="30.6903934479"><time>2026-09-01T14:18:20Z</time></trkpt><trkpt lat="59.2610692978" lon="30.6903934479"><time>2026-09-01T14:18:23Z</time></trkpt><trkpt lat="59.2611122131" lon="30.6903719902"><time>2026-09-01T14:18:25Z</time></trkpt><trkpt lat="59.2611122131" lon="30.6903719902"><time>2026-09-01T14:18:28Z</time></trkpt><trkpt lat="59.2611336708" lon="30.6903505325"><time>2026-09-01T14:18:30Z</time></trkpt><trkpt lat="59.2611551285" lon="30.6903290749"><time>2026-09-01T14:18:33Z</time></trkpt><trkpt lat="59.2611551285" lon="30.6903290749"><time>2026-09-01T14:18:35Z</time></trkpt><trkpt lat="59.2611551285" lon="30.6903290749"><time>2026-09-01T14:18:38Z</time></trkpt><trkpt lat="59.2611551285" lon="30.6903290749"><time>2026-09-01T14:18:40Z</time></trkpt><trkpt lat="59.2611551285" lon="30.6903290749"><time>2026-09-01T14:18:43Z</time></trkpt><trkpt lat="59.2611551285" lon="30.6903290749"><time>2026-09-01T14:18:45Z</time></trkpt><trkpt lat="59.2611551285" lon="30.6903290749"><time>2026-09-01T14:18:48Z</time></trkpt><trkpt lat="59.2611551285" lon="30.6903290749"><time>2026-09-01T14:18:50Z</time></trkpt><trkpt lat="59.2611551285" lon="30.6903290749"><time>2026-09-01T14:18:53Z</time></trkpt><trkpt lat="59.2611551285" lon="30.6903290749"><time>2026-09-01T14:18:55Z</time></trkpt><trkpt lat="59.2611551285" lon="30.6903290749"><time>2026-09-01T14:18:58Z</time></trkpt><trkpt lat="59.2611551285" lon="30.6903290749"><time>2026-09-01T14:19:00Z</time></trkpt><trkpt lat="59.2611551285" lon="30.6903290749"><time>2026-09-01T14:19:03Z</time></trkpt><trkpt lat="59.2611551285" lon="30.6903290749"><time>2026-09-01T14:19:05Z</time></trkpt><trkpt lat="59.2611551285" lon="30.6903290749"><time>2026-09-01T14:19:08Z</time></trkpt><trkpt lat="59.2611551285" lon="30.6903290749"><time>2026-09-01T14:19:10Z</time></trkpt><trkpt lat="59.2611551285" lon="30.6903505325"><time>2026-09-01T14:19:13Z</time></trkpt><trkpt lat="59.2611551285" lon="30.6903505325"><time>2026-09-01T14:19:15Z</time></trkpt><trkpt lat="59.2611551285" lon="30.6903505325"><time>2026-09-01T14:19:18Z</time></trkpt><trkpt lat="59.2611551285" lon="30.6903505325"><time>2026-09-01T14:19:20Z</time></trkpt><trkpt lat="59.2611551285" lon="30.6903505325"><time>2026-09-01T14:19:23Z</time></trkpt><trkpt lat="59.2611551285" lon="30.6903505325"><time>2026-09-01T14:19:25Z</time></trkpt><trkpt lat="59.2611551285" lon="30.6903505325"><time>2026-09-01T14:19:28Z</time></trkpt><trkpt lat="59.2611551285" lon="30.6903505325"><time>2026-09-01T14:19:30Z</time></trkpt><trkpt lat="59.2611551285" lon="30.6903505325"><time>2026-09-01T14:19:33Z</time></trkpt><trkpt lat="59.2611551285" lon="30.6903505325"><time>2026-09-01T14:19:35Z</time></trkpt><trkpt lat="59.2611551285" lon="30.6903505325"><time>2026-09-01T14:19:38Z</time></trkpt><trkpt lat="59.2611551285" lon="30.6903505325"><time>2026-09-01T14:19:40Z</time></trkpt><trkpt lat="59.2611551285" lon="30.6903505325"><time>2026-09-01T14:19:43Z</time></trkpt><trkpt lat="59.2611336708" lon="30.6903505325"><time>2026-09-01T14:19:45Z</time></trkpt><trkpt lat="59.2611336708" lon="30.6903505325"><time>2026-09-01T14:19:48Z</time></trkpt><trkpt lat="59.2611551285" lon="30.6903934479"><time>2026-09-01T14:19:50Z</time></trkpt><trkpt lat="59.2611551285" lon="30.6904149055"><time>2026-09-01T14:19:53Z</time></trkpt><trkpt lat="59.2611551285" lon="30.6904149055"><time>2026-09-01T14:19:55Z</time></trkpt><trkpt lat="59.2611551285" lon="30.6904363632"><time>2026-09-01T14:19:58Z</time></trkpt><trkpt lat="59.2611765862" lon="30.6905221939"><time>2026-09-01T14:20:00Z</time></trkpt><trkpt lat="59.2611765862" lon="30.6905221939"><time>2026-09-01T14:20:03Z</time></trkpt><trkpt lat="59.2611765862" lon="30.6905221939"><time>2026-09-01T14:20:05Z</time></trkpt><trkpt lat="59.2611765862" lon="30.6905221939"><time>2026-09-01T14:20:08Z</time></trkpt><trkpt lat="59.2611765862" lon="30.6905221939"><time>2026-09-01T14:20:10Z</time></trkpt><trkpt lat="59.2611551285" lon="30.6905221939"><time>2026-09-01T14:20:13Z</time></trkpt><trkpt lat="59.2611336708" lon="30.6905436516"><time>2026-09-01T14:20:15Z</time></trkpt><trkpt lat="59.2610907555" lon="30.6905651093"><time>2026-09-01T14:20:18Z</time></trkpt><trkpt lat="59.2610478401" lon="30.6905865669"><time>2026-09-01T14:20:20Z</time></trkpt><trkpt lat="59.2610478401" lon="30.6906294823"><time>2026-09-01T14:20:23Z</time></trkpt><trkpt lat="59.2610478401" lon="30.6906938553"><time>2026-09-01T14:20:25Z</time></trkpt><trkpt lat="59.2610478401" lon="30.6907153130"><time>2026-09-01T14:20:28Z</time></trkpt><trkpt lat="59.2610478401" lon="30.6907153130"><time>2026-09-01T14:20:30Z</time></trkpt><trkpt lat="59.2610478401" lon="30.6907153130"><time>2026-09-01T14:20:33Z</time></trkpt><trkpt lat="59.2610478401" lon="30.6907153130"><time>2026-09-01T14:20:35Z</time></trkpt><trkpt lat="59.2610263824" lon="30.6907153130"><time>2026-09-01T14:20:38Z</time></trkpt><trkpt lat="59.2610049248" lon="30.6907582283"><time>2026-09-01T14:20:40Z</time></trkpt><trkpt lat="59.2610049248" lon="30.6907582283"><time>2026-09-01T14:20:43Z</time></trkpt><trkpt lat="59.2609834671" lon="30.6908011436"><time>2026-09-01T14:20:45Z</time></trkpt><trkpt lat="59.2609620094" lon="30.6908226013"><time>2026-09-01T14:20:48Z</time></trkpt><trkpt lat="59.2609620094" lon="30.6908869743"><time>2026-09-01T14:20:50Z</time></trkpt><trkpt lat="59.2609405518" lon="30.6908869743"><time>2026-09-01T14:20:53Z</time></trkpt><trkpt lat="59.2609190941" lon="30.6909298897"><time>2026-09-01T14:20:55Z</time></trkpt><trkpt lat="59.2608976364" lon="30.6909728050"><time>2026-09-01T14:20:58Z</time></trkpt><trkpt lat="59.2608976364" lon="30.6910157204"><time>2026-09-01T14:21:00Z</time></trkpt><trkpt lat="59.2609190941" lon="30.6910371780"><time>2026-09-01T14:21:03Z</time></trkpt><trkpt lat="59.2608976364" lon="30.6910371780"><time>2026-09-01T14:21:05Z</time></trkpt><trkpt lat="59.2608976364" lon="30.6909942627"><time>2026-09-01T14:21:08Z</time></trkpt><trkpt lat="59.2608761787" lon="30.6909513474"><time>2026-09-01T14:21:10Z</time></trkpt><trkpt lat="59.2608761787" lon="30.6909298897"><time>2026-09-01T14:21:13Z</time></trkpt><trkpt lat="59.2608547211" lon="30.6909513474"><time>2026-09-01T14:21:15Z</time></trkpt><trkpt lat="59.2608332634" lon="30.6909513474"><time>2026-09-01T14:21:18Z</time></trkpt><trkpt lat="59.2608332634" lon="30.6909513474"><time>2026-09-01T14:21:20Z</time></trkpt><trkpt lat="59.2608332634" lon="30.6909513474"><time>2026-09-01T14:21:23Z</time></trkpt><trkpt lat="59.2607903481" lon="30.6910157204"><time>2026-09-01T14:21:25Z</time></trkpt><trkpt lat="59.2607903481" lon="30.6910586357"><time>2026-09-01T14:21:28Z</time></trkpt><trkpt lat="59.2607688904" lon="30.6910371780"><time>2026-09-01T14:21:30Z</time></trkpt><trkpt lat="59.2607903481" lon="30.6910586357"><time>2026-09-01T14:21:33Z</time></trkpt><trkpt lat="59.2607903481" lon="30.6910586357"><time>2026-09-01T14:21:35Z</time></trkpt><trkpt lat="59.2607903481" lon="30.6910586357"><time>2026-09-01T14:21:38Z</time></trkpt><trkpt lat="59.2607903481" lon="30.6910586357"><time>2026-09-01T14:21:40Z</time></trkpt><trkpt lat="59.2607903481" lon="30.6910586357"><time>2026-09-01T14:21:43Z</time></trkpt><trkpt lat="59.2607903481" lon="30.6910586357"><time>2026-09-01T14:21:45Z</time></trkpt><trkpt lat="59.2607903481" lon="30.6910586357"><time>2026-09-01T14:21:48Z</time></trkpt><trkpt lat="59.2607903481" lon="30.6910586357"><time>2026-09-01T14:21:50Z</time></trkpt><trkpt lat="59.2607903481" lon="30.6910586357"><time>2026-09-01T14:21:53Z</time></trkpt><trkpt lat="59.2607903481" lon="30.6910586357"><time>2026-09-01T14:21:55Z</time></trkpt><trkpt lat="59.2607903481" lon="30.6910586357"><time>2026-09-01T14:21:58Z</time></trkpt><trkpt lat="59.2607903481" lon="30.6910586357"><time>2026-09-01T14:22:00Z</time></trkpt><trkpt lat="59.2607903481" lon="30.6910586357"><time>2026-09-01T14:22:03Z</time></trkpt><trkpt lat="59.2607903481" lon="30.6910586357"><time>2026-09-01T14:22:05Z</time></trkpt><trkpt lat="59.2607903481" lon="30.6910586357"><time>2026-09-01T14:22:08Z</time></trkpt><trkpt lat="59.2607903481" lon="30.6910586357"><time>2026-09-01T14:22:10Z</time></trkpt><trkpt lat="59.2607903481" lon="30.6910371780"><time>2026-09-01T14:22:13Z</time></trkpt><trkpt lat="59.2607688904" lon="30.6910157204"><time>2026-09-01T14:22:15Z</time></trkpt><trkpt lat="59.2607474327" lon="30.6910371780"><time>2026-09-01T14:22:18Z</time></trkpt><trkpt lat="59.2607259750" lon="30.6910586357"><time>2026-09-01T14:22:20Z</time></trkpt><trkpt lat="59.2607259750" lon="30.6910800934"><time>2026-09-01T14:22:23Z</time></trkpt><trkpt lat="59.2607259750" lon="30.6910800934"><time>2026-09-01T14:22:25Z</time></trkpt><trkpt lat="59.2607474327" lon="30.6910586357"><time>2026-09-01T14:22:28Z</time></trkpt><trkpt lat="59.2607688904" lon="30.6910371780"><time>2026-09-01T14:22:30Z</time></trkpt><trkpt lat="59.2607688904" lon="30.6910371780"><time>2026-09-01T14:22:33Z</time></trkpt><trkpt lat="59.2607688904" lon="30.6910371780"><time>2026-09-01T14:22:35Z</time></trkpt><trkpt lat="59.2607688904" lon="30.6910371780"><time>2026-09-01T14:22:38Z</time></trkpt><trkpt lat="59.2607688904" lon="30.6910371780"><time>2026-09-01T14:22:40Z</time></trkpt><trkpt lat="59.2607688904" lon="30.6910371780"><time>2026-09-01T14:22:43Z</time></trkpt><trkpt lat="59.2607688904" lon="30.6910371780"><time>2026-09-01T14:22:45Z</time></trkpt><trkpt lat="59.2607688904" lon="30.6910371780"><time>2026-09-01T14:22:48Z</time></trkpt><trkpt lat="59.2607688904" lon="30.6910371780"><time>2026-09-01T14:22:50Z</time></trkpt><trkpt lat="59.2607688904" lon="30.6910371780"><time>2026-09-01T14:22:53Z</time></trkpt><trkpt lat="59.2607688904" lon="30.6910371780"><time>2026-09-01T14:22:55Z</time></trkpt><trkpt lat="59.2607688904" lon="30.6910371780"><time>2026-09-01T14:22:58Z</time></trkpt><trkpt lat="59.2607688904" lon="30.6910371780"><time>2026-09-01T14:23:00Z</time></trkpt><trkpt lat="59.2607688904" lon="30.6910371780"><time>2026-09-01T14:23:03Z</time></trkpt><trkpt lat="59.2607688904" lon="30.6910371780"><time>2026-09-01T14:23:05Z</time></trkpt><trkpt lat="59.2607688904" lon="30.6910371780"><time>2026-09-01T14:23:08Z</time></trkpt><trkpt lat="59.2607688904" lon="30.6910371780"><time>2026-09-01T14:23:10Z</time></trkpt><trkpt lat="59.2607688904" lon="30.6910371780"><time>2026-09-01T14:23:13Z</time></trkpt><trkpt lat="59.2607688904" lon="30.6910371780"><time>2026-09-01T14:23:15Z</time></trkpt><trkpt lat="59.2607688904" lon="30.6910371780"><time>2026-09-01T14:23:18Z</time></trkpt><trkpt lat="59.2607688904" lon="30.6910371780"><time>2026-09-01T14:23:20Z</time></trkpt><trkpt lat="59.2607688904" lon="30.6910371780"><time>2026-09-01T14:23:23Z</time></trkpt><trkpt lat="59.2607688904" lon="30.6910371780"><time>2026-09-01T14:23:25Z</time></trkpt><trkpt lat="59.2607688904" lon="30.6910371780"><time>2026-09-01T14:23:28Z</time></trkpt><trkpt lat="59.2607688904" lon="30.6910371780"><time>2026-09-01T14:23:30Z</time></trkpt><trkpt lat="59.2607688904" lon="30.6910371780"><time>2026-09-01T14:23:33Z</time></trkpt><trkpt lat="59.2607688904" lon="30.6910586357"><time>2026-09-01T14:23:35Z</time></trkpt><trkpt lat="59.2607688904" lon="30.6910586357"><time>2026-09-01T14:23:38Z</time></trkpt><trkpt lat="59.2607688904" lon="30.6910586357"><time>2026-09-01T14:23:40Z</time></trkpt><trkpt lat="59.2607688904" lon="30.6910586357"><time>2026-09-01T14:23:43Z</time></trkpt><trkpt lat="59.2607688904" lon="30.6910586357"><time>2026-09-01T14:23:45Z</time></trkpt><trkpt lat="59.2607688904" lon="30.6910586357"><time>2026-09-01T14:23:48Z</time></trkpt><trkpt lat="59.2607688904" lon="30.6910586357"><time>2026-09-01T14:23:50Z</time></trkpt><trkpt lat="59.2607688904" lon="30.6910586357"><time>2026-09-01T14:23:53Z</time></trkpt><trkpt lat="59.2607688904" lon="30.6910586357"><time>2026-09-01T14:23:55Z</time></trkpt><trkpt lat="59.2607688904" lon="30.6910586357"><time>2026-09-01T14:23:58Z</time></trkpt><trkpt lat="59.2607688904" lon="30.6910586357"><time>2026-09-01T14:24:00Z</time></trkpt><trkpt lat="59.2607688904" lon="30.6910586357"><time>2026-09-01T14:24:03Z</time></trkpt><trkpt lat="59.2607688904" lon="30.6910586357"><time>2026-09-01T14:24:05Z</time></trkpt><trkpt lat="59.2607688904" lon="30.6910586357"><time>2026-09-01T14:24:08Z</time></trkpt><trkpt lat="59.2607688904" lon="30.6910586357"><time>2026-09-01T14:24:10Z</time></trkpt><trkpt lat="59.2607688904" lon="30.6910586357"><time>2026-09-01T14:24:13Z</time></trkpt><trkpt lat="59.2607688904" lon="30.6910586357"><time>2026-09-01T14:24:15Z</time></trkpt><trkpt lat="59.2607688904" lon="30.6910586357"><time>2026-09-01T14:24:18Z</time></trkpt><trkpt lat="59.2607688904" lon="30.6910586357"><time>2026-09-01T14:24:20Z</time></trkpt><trkpt lat="59.2607688904" lon="30.6910586357"><time>2026-09-01T14:24:23Z</time></trkpt><trkpt lat="59.2607688904" lon="30.6910586357"><time>2026-09-01T14:24:25Z</time></trkpt><trkpt lat="59.2607688904" lon="30.6910371780"><time>2026-09-01T14:24:28Z</time></trkpt><trkpt lat="59.2607688904" lon="30.6910371780"><time>2026-09-01T14:24:30Z</time></trkpt><trkpt lat="59.2607688904" lon="30.6910371780"><time>2026-09-01T14:24:33Z</time></trkpt><trkpt lat="59.2607688904" lon="30.6910371780"><time>2026-09-01T14:24:35Z</time></trkpt><trkpt lat="59.2607688904" lon="30.6910371780"><time>2026-09-01T14:24:38Z</time></trkpt><trkpt lat="59.2607474327" lon="30.6910586357"><time>2026-09-01T14:24:40Z</time></trkpt><trkpt lat="59.2607688904" lon="30.6910586357"><time>2026-09-01T14:24:43Z</time></trkpt><trkpt lat="59.2607474327" lon="30.6910371780"><time>2026-09-01T14:24:45Z</time></trkpt><trkpt lat="59.2607474327" lon="30.6910157204"><time>2026-09-01T14:24:48Z</time></trkpt><trkpt lat="59.2607474327" lon="30.6910157204"><time>2026-09-01T14:24:50Z</time></trkpt><trkpt lat="59.2607474327" lon="30.6910157204"><time>2026-09-01T14:24:53Z</time></trkpt><trkpt lat="59.2607474327" lon="30.6910371780"><time>2026-09-01T14:24:55Z</time></trkpt><trkpt lat="59.2607474327" lon="30.6910371780"><time>2026-09-01T14:24:58Z</time></trkpt><trkpt lat="59.2607474327" lon="30.6910371780"><time>2026-09-01T14:25:00Z</time></trkpt><trkpt lat="59.2607474327" lon="30.6910371780"><time>2026-09-01T14:25:03Z</time></trkpt><trkpt lat="59.2607474327" lon="30.6910371780"><time>2026-09-01T14:25:05Z</time></trkpt><trkpt lat="59.2607474327" lon="30.6910371780"><time>2026-09-01T14:25:08Z</time></trkpt><trkpt lat="59.2607474327" lon="30.6910371780"><time>2026-09-01T14:25:10Z</time></trkpt><trkpt lat="59.2607474327" lon="30.6910371780"><time>2026-09-01T14:25:13Z</time></trkpt><trkpt lat="59.2607474327" lon="30.6910371780"><time>2026-09-01T14:25:15Z</time></trkpt><trkpt lat="59.2607474327" lon="30.6910371780"><time>2026-09-01T14:25:18Z</time></trkpt><trkpt lat="59.2607474327" lon="30.6910371780"><time>2026-09-01T14:25:20Z</time></trkpt><trkpt lat="59.2607474327" lon="30.6910371780"><time>2026-09-01T14:25:23Z</time></trkpt><trkpt lat="59.2607474327" lon="30.6910371780"><time>2026-09-01T14:25:25Z</time></trkpt><trkpt lat="59.2607474327" lon="30.6910371780"><time>2026-09-01T14:25:28Z</time></trkpt><trkpt lat="59.2607688904" lon="30.6910371780"><time>2026-09-01T14:25:30Z</time></trkpt><trkpt lat="59.2607474327" lon="30.6910371780"><time>2026-09-01T14:25:33Z</time></trkpt><trkpt lat="59.2607474327" lon="30.6910371780"><time>2026-09-01T14:25:35Z</time></trkpt><trkpt lat="59.2607474327" lon="30.6910371780"><time>2026-09-01T14:25:38Z</time></trkpt><trkpt lat="59.2607688904" lon="30.6910586357"><time>2026-09-01T14:25:40Z</time></trkpt><trkpt lat="59.2607688904" lon="30.6910371780"><time>2026-09-01T14:25:43Z</time></trkpt><trkpt lat="59.2607688904" lon="30.6910157204"><time>2026-09-01T14:25:45Z</time></trkpt><trkpt lat="59.2607903481" lon="30.6909728050"><time>2026-09-01T14:25:48Z</time></trkpt><trkpt lat="59.2607903481" lon="30.6909084320"><time>2026-09-01T14:25:50Z</time></trkpt><trkpt lat="59.2607903481" lon="30.6909084320"><time>2026-09-01T14:25:53Z</time></trkpt><trkpt lat="59.2607903481" lon="30.6909084320"><time>2026-09-01T14:25:55Z</time></trkpt><trkpt lat="59.2608118057" lon="30.6908869743"><time>2026-09-01T14:25:58Z</time></trkpt><trkpt lat="59.2608118057" lon="30.6908655167"><time>2026-09-01T14:26:00Z</time></trkpt><trkpt lat="59.2608118057" lon="30.6908440590"><time>2026-09-01T14:26:03Z</time></trkpt><trkpt lat="59.2608118057" lon="30.6908440590"><time>2026-09-01T14:26:05Z</time></trkpt><trkpt lat="59.2608332634" lon="30.6908011436"><time>2026-09-01T14:26:08Z</time></trkpt><trkpt lat="59.2608547211" lon="30.6907367706"><time>2026-09-01T14:26:10Z</time></trkpt><trkpt lat="59.2608547211" lon="30.6907153130"><time>2026-09-01T14:26:13Z</time></trkpt><trkpt lat="59.2608761787" lon="30.6906723976"><time>2026-09-01T14:26:15Z</time></trkpt><trkpt lat="59.2608761787" lon="30.6906509399"><time>2026-09-01T14:26:18Z</time></trkpt><trkpt lat="59.2608761787" lon="30.6905865669"><time>2026-09-01T14:26:20Z</time></trkpt><trkpt lat="59.2608761787" lon="30.6905651093"><time>2026-09-01T14:26:23Z</time></trkpt><trkpt lat="59.2609190941" lon="30.6904792786"><time>2026-09-01T14:26:25Z</time></trkpt><trkpt lat="59.2609190941" lon="30.6904578209"><time>2026-09-01T14:26:28Z</time></trkpt><trkpt lat="59.2609190941" lon="30.6904578209"><time>2026-09-01T14:26:30Z</time></trkpt><trkpt lat="59.2609190941" lon="30.6904578209"><time>2026-09-01T14:26:33Z</time></trkpt><trkpt lat="59.2609190941" lon="30.6904578209"><time>2026-09-01T14:26:35Z</time></trkpt><trkpt lat="59.2608976364" lon="30.6904363632"><time>2026-09-01T14:26:38Z</time></trkpt><trkpt lat="59.2608761787" lon="30.6904149055"><time>2026-09-01T14:26:40Z</time></trkpt><trkpt lat="59.2608547211" lon="30.6903934479"><time>2026-09-01T14:26:43Z</time></trkpt><trkpt lat="59.2608118057" lon="30.6903934479"><time>2026-09-01T14:26:45Z</time></trkpt><trkpt lat="59.2608118057" lon="30.6903934479"><time>2026-09-01T14:26:48Z</time></trkpt><trkpt lat="59.2607688904" lon="30.6903934479"><time>2026-09-01T14:26:50Z</time></trkpt><trkpt lat="59.2607259750" lon="30.6903934479"><time>2026-09-01T14:26:53Z</time></trkpt><trkpt lat="59.2606830597" lon="30.6904149055"><time>2026-09-01T14:26:55Z</time></trkpt><trkpt lat="59.2606616020" lon="30.6904149055"><time>2026-09-01T14:26:58Z</time></trkpt><trkpt lat="59.2606401443" lon="30.6904149055"><time>2026-09-01T14:27:00Z</time></trkpt><trkpt lat="59.2605972290" lon="30.6904363632"><time>2026-09-01T14:27:03Z</time></trkpt><trkpt lat="59.2605543137" lon="30.6904578209"><time>2026-09-01T14:27:05Z</time></trkpt><trkpt lat="59.2605328560" lon="30.6904578209"><time>2026-09-01T14:27:08Z</time></trkpt><trkpt lat="59.2605328560" lon="30.6904792786"><time>2026-09-01T14:27:10Z</time></trkpt><trkpt lat="59.2605113983" lon="30.6904578209"><time>2026-09-01T14:27:13Z</time></trkpt><trkpt lat="59.2605113983" lon="30.6904578209"><time>2026-09-01T14:27:15Z</time></trkpt><trkpt lat="59.2605113983" lon="30.6904792786"><time>2026-09-01T14:27:18Z</time></trkpt><trkpt lat="59.2605113983" lon="30.6904792786"><time>2026-09-01T14:27:20Z</time></trkpt><trkpt lat="59.2605113983" lon="30.6904792786"><time>2026-09-01T14:27:23Z</time></trkpt><trkpt lat="59.2605113983" lon="30.6905007362"><time>2026-09-01T14:27:25Z</time></trkpt><trkpt lat="59.2605113983" lon="30.6905007362"><time>2026-09-01T14:27:28Z</time></trkpt><trkpt lat="59.2604899406" lon="30.6905221939"><time>2026-09-01T14:27:30Z</time></trkpt><trkpt lat="59.2604684830" lon="30.6905221939"><time>2026-09-01T14:27:33Z</time></trkpt><trkpt lat="59.2604684830" lon="30.6905007362"><time>2026-09-01T14:27:35Z</time></trkpt><trkpt lat="59.2604255676" lon="30.6904792786"><time>2026-09-01T14:27:38Z</time></trkpt><trkpt lat="59.2603826523" lon="30.6905007362"><time>2026-09-01T14:27:40Z</time></trkpt><trkpt lat="59.2603611946" lon="30.6905221939"><time>2026-09-01T14:27:43Z</time></trkpt><trkpt lat="59.2603611946" lon="30.6905221939"><time>2026-09-01T14:27:45Z</time></trkpt><trkpt lat="59.2603397369" lon="30.6905436516"><time>2026-09-01T14:27:48Z</time></trkpt><trkpt lat="59.2602968216" lon="30.6905436516"><time>2026-09-01T14:27:50Z</time></trkpt><trkpt lat="59.2602753639" lon="30.6905436516"><time>2026-09-01T14:27:53Z</time></trkpt><trkpt lat="59.2602324486" lon="30.6905436516"><time>2026-09-01T14:27:55Z</time></trkpt><trkpt lat="59.2602109909" lon="30.6905651093"><time>2026-09-01T14:27:58Z</time></trkpt><trkpt lat="59.2602109909" lon="30.6905651093"><time>2026-09-01T14:28:00Z</time></trkpt><trkpt lat="59.2602109909" lon="30.6905651093"><time>2026-09-01T14:28:03Z</time></trkpt><trkpt lat="59.2602109909" lon="30.6905651093"><time>2026-09-01T14:28:05Z</time></trkpt><trkpt lat="59.2601466179" lon="30.6905651093"><time>2026-09-01T14:28:08Z</time></trkpt><trkpt lat="59.2601251602" lon="30.6905865669"><time>2026-09-01T14:28:10Z</time></trkpt><trkpt lat="59.2601251602" lon="30.6905865669"><time>2026-09-01T14:28:13Z</time></trkpt><trkpt lat="59.2601037025" lon="30.6905651093"><time>2026-09-01T14:28:15Z</time></trkpt><trkpt lat="59.2601037025" lon="30.6905651093"><time>2026-09-01T14:28:18Z</time></trkpt><trkpt lat="59.2600607872" lon="30.6905865669"><time>2026-09-01T14:28:20Z</time></trkpt><trkpt lat="59.2600393295" lon="30.6906080246"><time>2026-09-01T14:28:23Z</time></trkpt><trkpt lat="59.2599964142" lon="30.6906294823"><time>2026-09-01T14:28:25Z</time></trkpt><trkpt lat="59.2599964142" lon="30.6906509399"><time>2026-09-01T14:28:28Z</time></trkpt><trkpt lat="59.2599964142" lon="30.6906509399"><time>2026-09-01T14:28:30Z</time></trkpt><trkpt lat="59.2599964142" lon="30.6906509399"><time>2026-09-01T14:28:33Z</time></trkpt><trkpt lat="59.2599964142" lon="30.6906509399"><time>2026-09-01T14:28:35Z</time></trkpt><trkpt lat="59.2599964142" lon="30.6906509399"><time>2026-09-01T14:28:38Z</time></trkpt><trkpt lat="59.2599749565" lon="30.6906294823"><time>2026-09-01T14:28:40Z</time></trkpt><trkpt lat="59.2599105835" lon="30.6906509399"><time>2026-09-01T14:28:43Z</time></trkpt><trkpt lat="59.2598676682" lon="30.6906723976"><time>2026-09-01T14:28:45Z</time></trkpt><trkpt lat="59.2598247528" lon="30.6906938553"><time>2026-09-01T14:28:48Z</time></trkpt><trkpt lat="59.2598247528" lon="30.6906938553"><time>2026-09-01T14:28:50Z</time></trkpt><trkpt lat="59.2598247528" lon="30.6906938553"><time>2026-09-01T14:28:53Z</time></trkpt><trkpt lat="59.2598247528" lon="30.6907153130"><time>2026-09-01T14:28:55Z</time></trkpt><trkpt lat="59.2598032951" lon="30.6907153130"><time>2026-09-01T14:28:58Z</time></trkpt><trkpt lat="59.2597818375" lon="30.6907153130"><time>2026-09-01T14:29:00Z</time></trkpt><trkpt lat="59.2597603798" lon="30.6907153130"><time>2026-09-01T14:29:03Z</time></trkpt><trkpt lat="59.2597174644" lon="30.6907153130"><time>2026-09-01T14:29:05Z</time></trkpt><trkpt lat="59.2596745491" lon="30.6907153130"><time>2026-09-01T14:29:08Z</time></trkpt><trkpt lat="59.2596316338" lon="30.6907367706"><time>2026-09-01T14:29:10Z</time></trkpt><trkpt lat="59.2596316338" lon="30.6907582283"><time>2026-09-01T14:29:13Z</time></trkpt><trkpt lat="59.2596316338" lon="30.6907582283"><time>2026-09-01T14:29:15Z</time></trkpt><trkpt lat="59.2596316338" lon="30.6907582283"><time>2026-09-01T14:29:18Z</time></trkpt><trkpt lat="59.2596316338" lon="30.6907582283"><time>2026-09-01T14:29:20Z</time></trkpt><trkpt lat="59.2596101761" lon="30.6907582283"><time>2026-09-01T14:29:23Z</time></trkpt><trkpt lat="59.2595887184" lon="30.6907582283"><time>2026-09-01T14:29:25Z</time></trkpt><trkpt lat="59.2595458031" lon="30.6907582283"><time>2026-09-01T14:29:28Z</time></trkpt><trkpt lat="59.2595458031" lon="30.6907582283"><time>2026-09-01T14:29:30Z</time></trkpt><trkpt lat="59.2595458031" lon="30.6907582283"><time>2026-09-01T14:29:33Z</time></trkpt><trkpt lat="59.2595458031" lon="30.6907796860"><time>2026-09-01T14:29:35Z</time></trkpt><trkpt lat="59.2595028877" lon="30.6908011436"><time>2026-09-01T14:29:38Z</time></trkpt><trkpt lat="59.2594814301" lon="30.6908226013"><time>2026-09-01T14:29:40Z</time></trkpt><trkpt lat="59.2594385147" lon="30.6908440590"><time>2026-09-01T14:29:43Z</time></trkpt><trkpt lat="59.2594385147" lon="30.6908440590"><time>2026-09-01T14:29:45Z</time></trkpt><trkpt lat="59.2593955994" lon="30.6908440590"><time>2026-09-01T14:29:48Z</time></trkpt><trkpt lat="59.2593741417" lon="30.6908440590"><time>2026-09-01T14:29:50Z</time></trkpt><trkpt lat="59.2593955994" lon="30.6908440590"><time>2026-09-01T14:29:53Z</time></trkpt><trkpt lat="59.2594385147" lon="30.6908440590"><time>2026-09-01T14:29:55Z</time></trkpt><trkpt lat="59.2594599724" lon="30.6908226013"><time>2026-09-01T14:29:58Z</time></trkpt><trkpt lat="59.2594599724" lon="30.6908011436"><time>2026-09-01T14:30:00Z</time></trkpt><trkpt lat="59.2594599724" lon="30.6908011436"><time>2026-09-01T14:30:03Z</time></trkpt><trkpt lat="59.2594599724" lon="30.6908440590"><time>2026-09-01T14:30:05Z</time></trkpt><trkpt lat="59.2594599724" lon="30.6908440590"><time>2026-09-01T14:30:08Z</time></trkpt><trkpt lat="59.2594599724" lon="30.6908440590"><time>2026-09-01T14:30:10Z</time></trkpt><trkpt lat="59.2594599724" lon="30.6908440590"><time>2026-09-01T14:30:13Z</time></trkpt><trkpt lat="59.2594599724" lon="30.6908440590"><time>2026-09-01T14:30:15Z</time></trkpt><trkpt lat="59.2594599724" lon="30.6908440590"><time>2026-09-01T14:30:18Z</time></trkpt><trkpt lat="59.2594599724" lon="30.6908440590"><time>2026-09-01T14:30:20Z</time></trkpt><trkpt lat="59.2594599724" lon="30.6908440590"><time>2026-09-01T14:30:23Z</time></trkpt><trkpt lat="59.2594599724" lon="30.6908440590"><time>2026-09-01T14:30:25Z</time></trkpt><trkpt lat="59.2594385147" lon="30.6908440590"><time>2026-09-01T14:30:28Z</time></trkpt><trkpt lat="59.2594385147" lon="30.6908440590"><time>2026-09-01T14:30:30Z</time></trkpt><trkpt lat="59.2594170570" lon="30.6908440590"><time>2026-09-01T14:30:33Z</time></trkpt><trkpt lat="59.2594170570" lon="30.6908440590"><time>2026-09-01T14:30:35Z</time></trkpt><trkpt lat="59.2594170570" lon="30.6908440590"><time>2026-09-01T14:30:38Z</time></trkpt><trkpt lat="59.2593955994" lon="30.6908440590"><time>2026-09-01T14:30:40Z</time></trkpt><trkpt lat="59.2593741417" lon="30.6908440590"><time>2026-09-01T14:30:43Z</time></trkpt><trkpt lat="59.2593955994" lon="30.6908655167"><time>2026-09-01T14:30:45Z</time></trkpt><trkpt lat="59.2593955994" lon="30.6908655167"><time>2026-09-01T14:30:48Z</time></trkpt><trkpt lat="59.2593955994" lon="30.6908655167"><time>2026-09-01T14:30:50Z</time></trkpt><trkpt lat="59.2593955994" lon="30.6908655167"><time>2026-09-01T14:30:53Z</time></trkpt><trkpt lat="59.2593955994" lon="30.6908655167"><time>2026-09-01T14:30:55Z</time></trkpt><trkpt lat="59.2593955994" lon="30.6908655167"><time>2026-09-01T14:30:58Z</time></trkpt><trkpt lat="59.2593741417" lon="30.6908655167"><time>2026-09-01T14:31:00Z</time></trkpt><trkpt lat="59.2593741417" lon="30.6908655167"><time>2026-09-01T14:31:03Z</time></trkpt><trkpt lat="59.2593312263" lon="30.6908440590"><time>2026-09-01T14:31:05Z</time></trkpt><trkpt lat="59.2593312263" lon="30.6908440590"><time>2026-09-01T14:31:08Z</time></trkpt><trkpt lat="59.2593097687" lon="30.6908440590"><time>2026-09-01T14:31:10Z</time></trkpt><trkpt lat="59.2592883110" lon="30.6908440590"><time>2026-09-01T14:31:13Z</time></trkpt><trkpt lat="59.2592883110" lon="30.6908655167"><time>2026-09-01T14:31:15Z</time></trkpt><trkpt lat="59.2592668533" lon="30.6908869743"><time>2026-09-01T14:31:18Z</time></trkpt><trkpt lat="59.2592239380" lon="30.6908869743"><time>2026-09-01T14:31:20Z</time></trkpt><trkpt lat="59.2592024803" lon="30.6909084320"><time>2026-09-01T14:31:23Z</time></trkpt><trkpt lat="59.2591810226" lon="30.6909084320"><time>2026-09-01T14:31:25Z</time></trkpt><trkpt lat="59.2591810226" lon="30.6909084320"><time>2026-09-01T14:31:28Z</time></trkpt><trkpt lat="59.2591595650" lon="30.6909298897"><time>2026-09-01T14:31:30Z</time></trkpt><trkpt lat="59.2591595650" lon="30.6909298897"><time>2026-09-01T14:31:33Z</time></trkpt><trkpt lat="59.2591381073" lon="30.6909298897"><time>2026-09-01T14:31:35Z</time></trkpt><trkpt lat="59.2591166496" lon="30.6909298897"><time>2026-09-01T14:31:38Z</time></trkpt><trkpt lat="59.2591166496" lon="30.6909298897"><time>2026-09-01T14:31:40Z</time></trkpt><trkpt lat="59.2591166496" lon="30.6909298897"><time>2026-09-01T14:31:43Z</time></trkpt><trkpt lat="59.2590737343" lon="30.6909513474"><time>2026-09-01T14:31:45Z</time></trkpt><trkpt lat="59.2590522766" lon="30.6909513474"><time>2026-09-01T14:31:48Z</time></trkpt><trkpt lat="59.2590522766" lon="30.6909513474"><time>2026-09-01T14:31:50Z</time></trkpt><trkpt lat="59.2590522766" lon="30.6909513474"><time>2026-09-01T14:31:53Z</time></trkpt><trkpt lat="59.2590093613" lon="30.6909728050"><time>2026-09-01T14:31:55Z</time></trkpt><trkpt lat="59.2589664459" lon="30.6909942627"><time>2026-09-01T14:31:58Z</time></trkpt><trkpt lat="59.2589449883" lon="30.6909942627"><time>2026-09-01T14:32:00Z</time></trkpt><trkpt lat="59.2589449883" lon="30.6910157204"><time>2026-09-01T14:32:03Z</time></trkpt><trkpt lat="59.2589020729" lon="30.6910157204"><time>2026-09-01T14:32:05Z</time></trkpt><trkpt lat="59.2588806152" lon="30.6910157204"><time>2026-09-01T14:32:08Z</time></trkpt><trkpt lat="59.2588376999" lon="30.6910586357"><time>2026-09-01T14:32:10Z</time></trkpt><trkpt lat="59.2588376999" lon="30.6910586357"><time>2026-09-01T14:32:13Z</time></trkpt><trkpt lat="59.2588376999" lon="30.6910586357"><time>2026-09-01T14:32:15Z</time></trkpt><trkpt lat="59.2588162422" lon="30.6910586357"><time>2026-09-01T14:32:18Z</time></trkpt><trkpt lat="59.2587947845" lon="30.6910586357"><time>2026-09-01T14:32:20Z</time></trkpt><trkpt lat="59.2587947845" lon="30.6910586357"><time>2026-09-01T14:32:23Z</time></trkpt><trkpt lat="59.2587518692" lon="30.6910800934"><time>2026-09-01T14:32:25Z</time></trkpt><trkpt lat="59.2587304115" lon="30.6910800934"><time>2026-09-01T14:32:28Z</time></trkpt><trkpt lat="59.2586874962" lon="30.6910800934"><time>2026-09-01T14:32:30Z</time></trkpt><trkpt lat="59.2586660385" lon="30.6910800934"><time>2026-09-01T14:32:33Z</time></trkpt><trkpt lat="59.2586874962" lon="30.6911015511"><time>2026-09-01T14:32:35Z</time></trkpt><trkpt lat="59.2586874962" lon="30.6911015511"><time>2026-09-01T14:32:38Z</time></trkpt><trkpt lat="59.2586660385" lon="30.6911230087"><time>2026-09-01T14:32:40Z</time></trkpt><trkpt lat="59.2586445808" lon="30.6911230087"><time>2026-09-01T14:32:43Z</time></trkpt><trkpt lat="59.2586231232" lon="30.6911230087"><time>2026-09-01T14:32:45Z</time></trkpt><trkpt lat="59.2585802078" lon="30.6911230087"><time>2026-09-01T14:32:48Z</time></trkpt><trkpt lat="59.2585158348" lon="30.6911230087"><time>2026-09-01T14:32:50Z</time></trkpt><trkpt lat="59.2584943771" lon="30.6910800934"><time>2026-09-01T14:32:53Z</time></trkpt><trkpt lat="59.2584729195" lon="30.6910800934"><time>2026-09-01T14:32:55Z</time></trkpt><trkpt lat="59.2584729195" lon="30.6910800934"><time>2026-09-01T14:32:58Z</time></trkpt><trkpt lat="59.2584729195" lon="30.6910800934"><time>2026-09-01T14:33:00Z</time></trkpt><trkpt lat="59.2584729195" lon="30.6910800934"><time>2026-09-01T14:33:03Z</time></trkpt><trkpt lat="59.2584729195" lon="30.6910800934"><time>2026-09-01T14:33:05Z</time></trkpt><trkpt lat="59.2584729195" lon="30.6910800934"><time>2026-09-01T14:33:08Z</time></trkpt><trkpt lat="59.2584514618" lon="30.6910800934"><time>2026-09-01T14:33:10Z</time></trkpt><trkpt lat="59.2584300041" lon="30.6910800934"><time>2026-09-01T14:33:13Z</time></trkpt><trkpt lat="59.2584300041" lon="30.6910371780"><time>2026-09-01T14:33:15Z</time></trkpt><trkpt lat="59.2584300041" lon="30.6910371780"><time>2026-09-01T14:33:18Z</time></trkpt><trkpt lat="59.2584300041" lon="30.6910586357"><time>2026-09-01T14:33:20Z</time></trkpt><trkpt lat="59.2584300041" lon="30.6910800934"><time>2026-09-01T14:33:23Z</time></trkpt><trkpt lat="59.2584300041" lon="30.6910800934"><time>2026-09-01T14:33:25Z</time></trkpt><trkpt lat="59.2584300041" lon="30.6910800934"><time>2026-09-01T14:33:28Z</time></trkpt><trkpt lat="59.2584300041" lon="30.6910800934"><time>2026-09-01T14:33:30Z</time></trkpt><trkpt lat="59.2584300041" lon="30.6910800934"><time>2026-09-01T14:33:33Z</time></trkpt><trkpt lat="59.2584300041" lon="30.6911015511"><time>2026-09-01T14:33:35Z</time></trkpt><trkpt lat="59.2584300041" lon="30.6911015511"><time>2026-09-01T14:33:38Z</time></trkpt><trkpt lat="59.2584085464" lon="30.6910586357"><time>2026-09-01T14:33:40Z</time></trkpt><trkpt lat="59.2584085464" lon="30.6910371780"><time>2026-09-01T14:33:43Z</time></trkpt><trkpt lat="59.2584085464" lon="30.6910371780"><time>2026-09-01T14:33:45Z</time></trkpt><trkpt lat="59.2584085464" lon="30.6910371780"><time>2026-09-01T14:33:48Z</time></trkpt><trkpt lat="59.2584085464" lon="30.6909942627"><time>2026-09-01T14:33:50Z</time></trkpt><trkpt lat="59.2583870888" lon="30.6909513474"><time>2026-09-01T14:33:53Z</time></trkpt><trkpt lat="59.2583656311" lon="30.6909298897"><time>2026-09-01T14:33:55Z</time></trkpt><trkpt lat="59.2583656311" lon="30.6909084320"><time>2026-09-01T14:33:58Z</time></trkpt><trkpt lat="59.2583441734" lon="30.6908869743"><time>2026-09-01T14:34:00Z</time></trkpt><trkpt lat="59.2583227158" lon="30.6908655167"><time>2026-09-01T14:34:03Z</time></trkpt><trkpt lat="59.2583012581" lon="30.6908440590"><time>2026-09-01T14:34:05Z</time></trkpt><trkpt lat="59.2583012581" lon="30.6908440590"><time>2026-09-01T14:34:08Z</time></trkpt><trkpt lat="59.2583012581" lon="30.6908440590"><time>2026-09-01T14:34:10Z</time></trkpt><trkpt lat="59.2583012581" lon="30.6908226013"><time>2026-09-01T14:34:13Z</time></trkpt><trkpt lat="59.2582798004" lon="30.6908226013"><time>2026-09-01T14:34:15Z</time></trkpt><trkpt lat="59.2582583427" lon="30.6908440590"><time>2026-09-01T14:34:18Z</time></trkpt><trkpt lat="59.2582368851" lon="30.6908226013"><time>2026-09-01T14:34:20Z</time></trkpt><trkpt lat="59.2582154274" lon="30.6908011436"><time>2026-09-01T14:34:23Z</time></trkpt><trkpt lat="59.2581939697" lon="30.6907796860"><time>2026-09-01T14:34:25Z</time></trkpt><trkpt lat="59.2581725121" lon="30.6907582283"><time>2026-09-01T14:34:28Z</time></trkpt><trkpt lat="59.2581725121" lon="30.6908011436"><time>2026-09-01T14:34:30Z</time></trkpt><trkpt lat="59.2581725121" lon="30.6908011436"><time>2026-09-01T14:34:33Z</time></trkpt><trkpt lat="59.2581725121" lon="30.6908011436"><time>2026-09-01T14:34:35Z</time></trkpt><trkpt lat="59.2581725121" lon="30.6908011436"><time>2026-09-01T14:34:38Z</time></trkpt><trkpt lat="59.2581725121" lon="30.6907796860"><time>2026-09-01T14:34:40Z</time></trkpt><trkpt lat="59.2581510544" lon="30.6907582283"><time>2026-09-01T14:34:43Z</time></trkpt><trkpt lat="59.2581510544" lon="30.6907367706"><time>2026-09-01T14:34:45Z</time></trkpt><trkpt lat="59.2581510544" lon="30.6906938553"><time>2026-09-01T14:34:48Z</time></trkpt><trkpt lat="59.2581295967" lon="30.6906294823"><time>2026-09-01T14:34:50Z</time></trkpt><trkpt lat="59.2581081390" lon="30.6905865669"><time>2026-09-01T14:34:53Z</time></trkpt><trkpt lat="59.2581081390" lon="30.6905865669"><time>2026-09-01T14:34:55Z</time></trkpt><trkpt lat="59.2581081390" lon="30.6905865669"><time>2026-09-01T14:34:58Z</time></trkpt><trkpt lat="59.2581081390" lon="30.6905865669"><time>2026-09-01T14:35:00Z</time></trkpt><trkpt lat="59.2581081390" lon="30.6905865669"><time>2026-09-01T14:35:03Z</time></trkpt><trkpt lat="59.2581081390" lon="30.6905865669"><time>2026-09-01T14:35:05Z</time></trkpt><trkpt lat="59.2581081390" lon="30.6905865669"><time>2026-09-01T14:35:08Z</time></trkpt><trkpt lat="59.2580866814" lon="30.6905221939"><time>2026-09-01T14:35:10Z</time></trkpt><trkpt lat="59.2580652237" lon="30.6904792786"><time>2026-09-01T14:35:13Z</time></trkpt><trkpt lat="59.2580437660" lon="30.6903934479"><time>2026-09-01T14:35:15Z</time></trkpt><trkpt lat="59.2580223083" lon="30.6903076172"><time>2026-09-01T14:35:18Z</time></trkpt><trkpt lat="59.2580008507" lon="30.6902217865"><time>2026-09-01T14:35:20Z</time></trkpt><trkpt lat="59.2579793930" lon="30.6902003288"><time>2026-09-01T14:35:23Z</time></trkpt><trkpt lat="59.2579793930" lon="30.6902217865"><time>2026-09-01T14:35:25Z</time></trkpt><trkpt lat="59.2579579353" lon="30.6902432442"><time>2026-09-01T14:35:28Z</time></trkpt><trkpt lat="59.2579579353" lon="30.6902217865"><time>2026-09-01T14:35:30Z</time></trkpt><trkpt lat="59.2579364777" lon="30.6901574135"><time>2026-09-01T14:35:33Z</time></trkpt><trkpt lat="59.2579364777" lon="30.6901574135"><time>2026-09-01T14:35:35Z</time></trkpt><trkpt lat="59.2579150200" lon="30.6901144981"><time>2026-09-01T14:35:38Z</time></trkpt><trkpt lat="59.2578935623" lon="30.6900501251"><time>2026-09-01T14:35:40Z</time></trkpt><trkpt lat="59.2578935623" lon="30.6900072098"><time>2026-09-01T14:35:43Z</time></trkpt><trkpt lat="59.2578935623" lon="30.6900072098"><time>2026-09-01T14:35:45Z</time></trkpt><trkpt lat="59.2578935623" lon="30.6900072098"><time>2026-09-01T14:35:48Z</time></trkpt><trkpt lat="59.2578935623" lon="30.6900072098"><time>2026-09-01T14:35:50Z</time></trkpt><trkpt lat="59.2578935623" lon="30.6899857521"><time>2026-09-01T14:35:53Z</time></trkpt><trkpt lat="59.2578721046" lon="30.6898999214"><time>2026-09-01T14:35:55Z</time></trkpt><trkpt lat="59.2578721046" lon="30.6898570061"><time>2026-09-01T14:35:58Z</time></trkpt><trkpt lat="59.2578721046" lon="30.6898570061"><time>2026-09-01T14:36:00Z</time></trkpt><trkpt lat="59.2578721046" lon="30.6898570061"><time>2026-09-01T14:36:03Z</time></trkpt><trkpt lat="59.2578506470" lon="30.6897926331"><time>2026-09-01T14:36:05Z</time></trkpt><trkpt lat="59.2578291893" lon="30.6897282600"><time>2026-09-01T14:36:08Z</time></trkpt><trkpt lat="59.2578291893" lon="30.6897282600"><time>2026-09-01T14:36:10Z</time></trkpt><trkpt lat="59.2578077316" lon="30.6897068024"><time>2026-09-01T14:36:13Z</time></trkpt><trkpt lat="59.2578077316" lon="30.6896853447"><time>2026-09-01T14:36:15Z</time></trkpt><trkpt lat="59.2577862740" lon="30.6896424294"><time>2026-09-01T14:36:18Z</time></trkpt><trkpt lat="59.2577862740" lon="30.6895780563"><time>2026-09-01T14:36:20Z</time></trkpt><trkpt lat="59.2577862740" lon="30.6895780563"><time>2026-09-01T14:36:23Z</time></trkpt><trkpt lat="59.2577862740" lon="30.6895780563"><time>2026-09-01T14:36:25Z</time></trkpt><trkpt lat="59.2577862740" lon="30.6895780563"><time>2026-09-01T14:36:28Z</time></trkpt><trkpt lat="59.2577862740" lon="30.6895780563"><time>2026-09-01T14:36:30Z</time></trkpt><trkpt lat="59.2577862740" lon="30.6895780563"><time>2026-09-01T14:36:33Z</time></trkpt><trkpt lat="59.2577862740" lon="30.6895780563"><time>2026-09-01T14:36:35Z</time></trkpt><trkpt lat="59.2577648163" lon="30.6895565987"><time>2026-09-01T14:36:38Z</time></trkpt><trkpt lat="59.2577433586" lon="30.6894707680"><time>2026-09-01T14:36:40Z</time></trkpt><trkpt lat="59.2577433586" lon="30.6894493103"><time>2026-09-01T14:36:43Z</time></trkpt><trkpt lat="59.2577433586" lon="30.6894493103"><time>2026-09-01T14:36:45Z</time></trkpt><trkpt lat="59.2577433586" lon="30.6894493103"><time>2026-09-01T14:36:48Z</time></trkpt><trkpt lat="59.2577219009" lon="30.6893849373"><time>2026-09-01T14:36:50Z</time></trkpt><trkpt lat="59.2577004433" lon="30.6893420219"><time>2026-09-01T14:36:53Z</time></trkpt><trkpt lat="59.2576789856" lon="30.6893205643"><time>2026-09-01T14:36:55Z</time></trkpt><trkpt lat="59.2576789856" lon="30.6892991066"><time>2026-09-01T14:36:58Z</time></trkpt><trkpt lat="59.2576575279" lon="30.6892561913"><time>2026-09-01T14:37:00Z</time></trkpt><trkpt lat="59.2576575279" lon="30.6892561913"><time>2026-09-01T14:37:03Z</time></trkpt><trkpt lat="59.2576575279" lon="30.6891703606"><time>2026-09-01T14:37:05Z</time></trkpt><trkpt lat="59.2576360703" lon="30.6891274452"><time>2026-09-01T14:37:08Z</time></trkpt><trkpt lat="59.2576146126" lon="30.6891274452"><time>2026-09-01T14:37:10Z</time></trkpt><trkpt lat="59.2575931549" lon="30.6891274452"><time>2026-09-01T14:37:13Z</time></trkpt><trkpt lat="59.2575716972" lon="30.6891274452"><time>2026-09-01T14:37:15Z</time></trkpt><trkpt lat="59.2575716972" lon="30.6891489029"><time>2026-09-01T14:37:18Z</time></trkpt><trkpt lat="59.2575931549" lon="30.6891489029"><time>2026-09-01T14:37:20Z</time></trkpt><trkpt lat="59.2575931549" lon="30.6891274452"><time>2026-09-01T14:37:23Z</time></trkpt><trkpt lat="59.2575931549" lon="30.6891274452"><time>2026-09-01T14:37:25Z</time></trkpt><trkpt lat="59.2575931549" lon="30.6891274452"><time>2026-09-01T14:37:28Z</time></trkpt><trkpt lat="59.2575931549" lon="30.6891274452"><time>2026-09-01T14:37:30Z</time></trkpt><trkpt lat="59.2575931549" lon="30.6891274452"><time>2026-09-01T14:37:33Z</time></trkpt><trkpt lat="59.2575931549" lon="30.6891059875"><time>2026-09-01T14:37:35Z</time></trkpt><trkpt lat="59.2575931549" lon="30.6890845299"><time>2026-09-01T14:37:38Z</time></trkpt><trkpt lat="59.2575716972" lon="30.6890630722"><time>2026-09-01T14:37:40Z</time></trkpt><trkpt lat="59.2575716972" lon="30.6890630722"><time>2026-09-01T14:37:43Z</time></trkpt><trkpt lat="59.2575716972" lon="30.6890630722"><time>2026-09-01T14:37:45Z</time></trkpt><trkpt lat="59.2575716972" lon="30.6890630722"><time>2026-09-01T14:37:48Z</time></trkpt><trkpt lat="59.2575502396" lon="30.6890201569"><time>2026-09-01T14:37:50Z</time></trkpt><trkpt lat="59.2575502396" lon="30.6889986992"><time>2026-09-01T14:37:53Z</time></trkpt><trkpt lat="59.2575502396" lon="30.6889986992"><time>2026-09-01T14:37:55Z</time></trkpt><trkpt lat="59.2575287819" lon="30.6889557838"><time>2026-09-01T14:37:58Z</time></trkpt><trkpt lat="59.2575287819" lon="30.6889128685"><time>2026-09-01T14:38:00Z</time></trkpt><trkpt lat="59.2575287819" lon="30.6889128685"><time>2026-09-01T14:38:03Z</time></trkpt><trkpt lat="59.2575287819" lon="30.6889128685"><time>2026-09-01T14:38:05Z</time></trkpt><trkpt lat="59.2575073242" lon="30.6888699532"><time>2026-09-01T14:38:08Z</time></trkpt><trkpt lat="59.2575073242" lon="30.6887841225"><time>2026-09-01T14:38:10Z</time></trkpt><trkpt lat="59.2574858665" lon="30.6887197495"><time>2026-09-01T14:38:13Z</time></trkpt><trkpt lat="59.2574644089" lon="30.6886553764"><time>2026-09-01T14:38:15Z</time></trkpt><trkpt lat="59.2574429512" lon="30.6885910034"><time>2026-09-01T14:38:18Z</time></trkpt><trkpt lat="59.2574429512" lon="30.6886339188"><time>2026-09-01T14:38:20Z</time></trkpt><trkpt lat="59.2574429512" lon="30.6886768341"><time>2026-09-01T14:38:23Z</time></trkpt><trkpt lat="59.2574429512" lon="30.6886982918"><time>2026-09-01T14:38:25Z</time></trkpt><trkpt lat="59.2574429512" lon="30.6886982918"><time>2026-09-01T14:38:28Z</time></trkpt><trkpt lat="59.2574429512" lon="30.6886982918"><time>2026-09-01T14:38:30Z</time></trkpt><trkpt lat="59.2574429512" lon="30.6886982918"><time>2026-09-01T14:38:33Z</time></trkpt><trkpt lat="59.2574429512" lon="30.6886982918"><time>2026-09-01T14:38:35Z</time></trkpt><trkpt lat="59.2574429512" lon="30.6886768341"><time>2026-09-01T14:38:38Z</time></trkpt><trkpt lat="59.2574429512" lon="30.6886982918"><time>2026-09-01T14:38:40Z</time></trkpt><trkpt lat="59.2574429512" lon="30.6886982918"><time>2026-09-01T14:38:43Z</time></trkpt><trkpt lat="59.2574429512" lon="30.6886982918"><time>2026-09-01T14:38:45Z</time></trkpt><trkpt lat="59.2574429512" lon="30.6886982918"><time>2026-09-01T14:38:48Z</time></trkpt><trkpt lat="59.2574429512" lon="30.6886982918"><time>2026-09-01T14:38:50Z</time></trkpt><trkpt lat="59.2574429512" lon="30.6886982918"><time>2026-09-01T14:38:53Z</time></trkpt><trkpt lat="59.2574429512" lon="30.6886982918"><time>2026-09-01T14:38:55Z</time></trkpt><trkpt lat="59.2574429512" lon="30.6886982918"><time>2026-09-01T14:38:58Z</time></trkpt><trkpt lat="59.2574429512" lon="30.6886982918"><time>2026-09-01T14:39:00Z</time></trkpt><trkpt lat="59.2574429512" lon="30.6886982918"><time>2026-09-01T14:39:03Z</time></trkpt><trkpt lat="59.2574429512" lon="30.6886982918"><time>2026-09-01T14:39:05Z</time></trkpt><trkpt lat="59.2574429512" lon="30.6886982918"><time>2026-09-01T14:39:08Z</time></trkpt><trkpt lat="59.2574429512" lon="30.6886982918"><time>2026-09-01T14:39:10Z</time></trkpt><trkpt lat="59.2574429512" lon="30.6886982918"><time>2026-09-01T14:39:13Z</time></trkpt><trkpt lat="59.2574429512" lon="30.6886982918"><time>2026-09-01T14:39:15Z</time></trkpt><trkpt lat="59.2574429512" lon="30.6886982918"><time>2026-09-01T14:39:18Z</time></trkpt><trkpt lat="59.2574644089" lon="30.6886768341"><time>2026-09-01T14:39:20Z</time></trkpt><trkpt lat="59.2574644089" lon="30.6886768341"><time>2026-09-01T14:39:23Z</time></trkpt><trkpt lat="59.2574644089" lon="30.6886768341"><time>2026-09-01T14:39:25Z</time></trkpt><trkpt lat="59.2574429512" lon="30.6886768341"><time>2026-09-01T14:39:28Z</time></trkpt><trkpt lat="59.2574429512" lon="30.6886553764"><time>2026-09-01T14:39:30Z</time></trkpt><trkpt lat="59.2574429512" lon="30.6886553764"><time>2026-09-01T14:39:33Z</time></trkpt><trkpt lat="59.2574429512" lon="30.6886553764"><time>2026-09-01T14:39:35Z</time></trkpt><trkpt lat="59.2574429512" lon="30.6886553764"><time>2026-09-01T14:39:38Z</time></trkpt><trkpt lat="59.2574429512" lon="30.6886553764"><time>2026-09-01T14:39:40Z</time></trkpt><trkpt lat="59.2574429512" lon="30.6886553764"><time>2026-09-01T14:39:43Z</time></trkpt><trkpt lat="59.2574429512" lon="30.6886553764"><time>2026-09-01T14:39:45Z</time></trkpt><trkpt lat="59.2574429512" lon="30.6886553764"><time>2026-09-01T14:39:48Z</time></trkpt><trkpt lat="59.2574429512" lon="30.6886768341"><time>2026-09-01T14:39:50Z</time></trkpt><trkpt lat="59.2574429512" lon="30.6886768341"><time>2026-09-01T14:39:53Z</time></trkpt><trkpt lat="59.2574429512" lon="30.6886768341"><time>2026-09-01T14:39:55Z</time></trkpt><trkpt lat="59.2574429512" lon="30.6886768341"><time>2026-09-01T14:39:58Z</time></trkpt><trkpt lat="59.2574429512" lon="30.6886768341"><time>2026-09-01T14:40:00Z</time></trkpt><trkpt lat="59.2574429512" lon="30.6886768341"><time>2026-09-01T14:40:03Z</time></trkpt><trkpt lat="59.2574429512" lon="30.6886768341"><time>2026-09-01T14:40:05Z</time></trkpt><trkpt lat="59.2574429512" lon="30.6886768341"><time>2026-09-01T14:40:08Z</time></trkpt><trkpt lat="59.2574429512" lon="30.6886768341"><time>2026-09-01T14:40:10Z</time></trkpt><trkpt lat="59.2574429512" lon="30.6886768341"><time>2026-09-01T14:40:13Z</time></trkpt><trkpt lat="59.2574429512" lon="30.6886768341"><time>2026-09-01T14:40:15Z</time></trkpt><trkpt lat="59.2574429512" lon="30.6886768341"><time>2026-09-01T14:40:18Z</time></trkpt><trkpt lat="59.2574429512" lon="30.6886768341"><time>2026-09-01T14:40:20Z</time></trkpt><trkpt lat="59.2574429512" lon="30.6886768341"><time>2026-09-01T14:40:23Z</time></trkpt><trkpt lat="59.2574429512" lon="30.6886768341"><time>2026-09-01T14:40:25Z</time></trkpt><trkpt lat="59.2574429512" lon="30.6886982918"><time>2026-09-01T14:40:28Z</time></trkpt><trkpt lat="59.2574429512" lon="30.6887197495"><time>2026-09-01T14:40:30Z</time></trkpt><trkpt lat="59.2574429512" lon="30.6887197495"><time>2026-09-01T14:40:33Z</time></trkpt><trkpt lat="59.2574429512" lon="30.6887197495"><time>2026-09-01T14:40:35Z</time></trkpt><trkpt lat="59.2574429512" lon="30.6887197495"><time>2026-09-01T14:40:38Z</time></trkpt><trkpt lat="59.2574429512" lon="30.6887197495"><time>2026-09-01T14:40:40Z</time></trkpt><trkpt lat="59.2574429512" lon="30.6887197495"><time>2026-09-01T14:40:43Z</time></trkpt><trkpt lat="59.2574429512" lon="30.6887197495"><time>2026-09-01T14:40:45Z</time></trkpt><trkpt lat="59.2574429512" lon="30.6886768341"><time>2026-09-01T14:40:48Z</time></trkpt><trkpt lat="59.2574429512" lon="30.6886124611"><time>2026-09-01T14:40:50Z</time></trkpt><trkpt lat="59.2574429512" lon="30.6885910034"><time>2026-09-01T14:40:53Z</time></trkpt><trkpt lat="59.2574644089" lon="30.6886124611"><time>2026-09-01T14:40:55Z</time></trkpt><trkpt lat="59.2574858665" lon="30.6886124611"><time>2026-09-01T14:40:58Z</time></trkpt><trkpt lat="59.2574858665" lon="30.6886768341"><time>2026-09-01T14:41:00Z</time></trkpt><trkpt lat="59.2574858665" lon="30.6886982918"><time>2026-09-01T14:41:03Z</time></trkpt><trkpt lat="59.2575073242" lon="30.6887412071"><time>2026-09-01T14:41:05Z</time></trkpt><trkpt lat="59.2575073242" lon="30.6887626648"><time>2026-09-01T14:41:08Z</time></trkpt><trkpt lat="59.2575073242" lon="30.6888055801"><time>2026-09-01T14:41:10Z</time></trkpt><trkpt lat="59.2575073242" lon="30.6888055801"><time>2026-09-01T14:41:13Z</time></trkpt><trkpt lat="59.2574858665" lon="30.6887626648"><time>2026-09-01T14:41:15Z</time></trkpt><trkpt lat="59.2574644089" lon="30.6887197495"><time>2026-09-01T14:41:18Z</time></trkpt><trkpt lat="59.2574644089" lon="30.6887197495"><time>2026-09-01T14:41:20Z</time></trkpt><trkpt lat="59.2574644089" lon="30.6887197495"><time>2026-09-01T14:41:23Z</time></trkpt><trkpt lat="59.2574644089" lon="30.6887197495"><time>2026-09-01T14:41:25Z</time></trkpt><trkpt lat="59.2574644089" lon="30.6887197495"><time>2026-09-01T14:41:28Z</time></trkpt><trkpt lat="59.2574644089" lon="30.6886982918"><time>2026-09-01T14:41:30Z</time></trkpt><trkpt lat="59.2574644089" lon="30.6886339188"><time>2026-09-01T14:41:33Z</time></trkpt><trkpt lat="59.2574214935" lon="30.6885266304"><time>2026-09-01T14:41:35Z</time></trkpt><trkpt lat="59.2574000359" lon="30.6884622574"><time>2026-09-01T14:41:38Z</time></trkpt><trkpt lat="59.2573785782" lon="30.6883978844"><time>2026-09-01T14:41:40Z</time></trkpt><trkpt lat="59.2573571205" lon="30.6883764267"><time>2026-09-01T14:41:43Z</time></trkpt><trkpt lat="59.2573571205" lon="30.6883764267"><time>2026-09-01T14:41:45Z</time></trkpt><trkpt lat="59.2573571205" lon="30.6883764267"><time>2026-09-01T14:41:48Z</time></trkpt><trkpt lat="59.2573785782" lon="30.6883764267"><time>2026-09-01T14:41:50Z</time></trkpt><trkpt lat="59.2573785782" lon="30.6883549690"><time>2026-09-01T14:41:53Z</time></trkpt><trkpt lat="59.2573785782" lon="30.6883549690"><time>2026-09-01T14:41:55Z</time></trkpt><trkpt lat="59.2573571205" lon="30.6883764267"><time>2026-09-01T14:41:58Z</time></trkpt><trkpt lat="59.2573356628" lon="30.6883120537"><time>2026-09-01T14:42:00Z</time></trkpt><trkpt lat="59.2573356628" lon="30.6882691383"><time>2026-09-01T14:42:03Z</time></trkpt><trkpt lat="59.2573356628" lon="30.6882691383"><time>2026-09-01T14:42:05Z</time></trkpt><trkpt lat="59.2573356628" lon="30.6882691383"><time>2026-09-01T14:42:08Z</time></trkpt><trkpt lat="59.2573142052" lon="30.6881618500"><time>2026-09-01T14:42:10Z</time></trkpt><trkpt lat="59.2573142052" lon="30.6880760193"><time>2026-09-01T14:42:13Z</time></trkpt><trkpt lat="59.2573142052" lon="30.6879687309"><time>2026-09-01T14:42:15Z</time></trkpt><trkpt lat="59.2573142052" lon="30.6879687309"><time>2026-09-01T14:42:18Z</time></trkpt><trkpt lat="59.2573142052" lon="30.6879687309"><time>2026-09-01T14:42:20Z</time></trkpt><trkpt lat="59.2573142052" lon="30.6879687309"><time>2026-09-01T14:42:23Z</time></trkpt><trkpt lat="59.2572927475" lon="30.6878829002"><time>2026-09-01T14:42:25Z</time></trkpt><trkpt lat="59.2572712898" lon="30.6878185272"><time>2026-09-01T14:42:28Z</time></trkpt><trkpt lat="59.2572498322" lon="30.6877541542"><time>2026-09-01T14:42:30Z</time></trkpt><trkpt lat="59.2572498322" lon="30.6877541542"><time>2026-09-01T14:42:33Z</time></trkpt><trkpt lat="59.2572283745" lon="30.6877326965"><time>2026-09-01T14:42:35Z</time></trkpt><trkpt lat="59.2572283745" lon="30.6877112389"><time>2026-09-01T14:42:38Z</time></trkpt><trkpt lat="59.2571854591" lon="30.6876897812"><time>2026-09-01T14:42:40Z</time></trkpt><trkpt lat="59.2571854591" lon="30.6876897812"><time>2026-09-01T14:42:43Z</time></trkpt><trkpt lat="59.2571854591" lon="30.6876897812"><time>2026-09-01T14:42:45Z</time></trkpt><trkpt lat="59.2571854591" lon="30.6876897812"><time>2026-09-01T14:42:48Z</time></trkpt><trkpt lat="59.2571854591" lon="30.6876897812"><time>2026-09-01T14:42:50Z</time></trkpt><trkpt lat="59.2571854591" lon="30.6876897812"><time>2026-09-01T14:42:53Z</time></trkpt><trkpt lat="59.2571854591" lon="30.6876897812"><time>2026-09-01T14:42:58Z</time></trkpt><trkpt lat="59.2571640015" lon="30.6876468658"><time>2026-09-01T14:43:00Z</time></trkpt><trkpt lat="59.2571640015" lon="30.6876254082"><time>2026-09-01T14:43:03Z</time></trkpt><trkpt lat="59.2571425438" lon="30.6876039505"><time>2026-09-01T14:43:05Z</time></trkpt><trkpt lat="59.2571210861" lon="30.6875824928"><time>2026-09-01T14:43:08Z</time></trkpt><trkpt lat="59.2571210861" lon="30.6875824928"><time>2026-09-01T14:43:10Z</time></trkpt><trkpt lat="59.2571210861" lon="30.6875181198"><time>2026-09-01T14:43:13Z</time></trkpt><trkpt lat="59.2570996284" lon="30.6874322891"><time>2026-09-01T14:43:15Z</time></trkpt><trkpt lat="59.2570781708" lon="30.6874108315"><time>2026-09-01T14:43:18Z</time></trkpt><trkpt lat="59.2570567131" lon="30.6873250008"><time>2026-09-01T14:43:20Z</time></trkpt><trkpt lat="59.2570352554" lon="30.6872820854"><time>2026-09-01T14:43:23Z</time></trkpt><trkpt lat="59.2569923401" lon="30.6872177124"><time>2026-09-01T14:43:25Z</time></trkpt><trkpt lat="59.2569708824" lon="30.6871747971"><time>2026-09-01T14:43:28Z</time></trkpt><trkpt lat="59.2569494247" lon="30.6871318817"><time>2026-09-01T14:43:30Z</time></trkpt><trkpt lat="59.2569494247" lon="30.6871318817"><time>2026-09-01T14:43:33Z</time></trkpt><trkpt lat="59.2569279671" lon="30.6870675087"><time>2026-09-01T14:43:35Z</time></trkpt><trkpt lat="59.2569065094" lon="30.6870245934"><time>2026-09-01T14:43:38Z</time></trkpt><trkpt lat="59.2569065094" lon="30.6869602203"><time>2026-09-01T14:43:40Z</time></trkpt><trkpt lat="59.2568850517" lon="30.6869387627"><time>2026-09-01T14:43:43Z</time></trkpt><trkpt lat="59.2568635941" lon="30.6868958473"><time>2026-09-01T14:43:45Z</time></trkpt><trkpt lat="59.2568635941" lon="30.6868743896"><time>2026-09-01T14:43:48Z</time></trkpt><trkpt lat="59.2568635941" lon="30.6868743896"><time>2026-09-01T14:43:50Z</time></trkpt><trkpt lat="59.2568421364" lon="30.6868100166"><time>2026-09-01T14:43:53Z</time></trkpt><trkpt lat="59.2567992210" lon="30.6867027283"><time>2026-09-01T14:43:58Z</time></trkpt><trkpt lat="59.2567563057" lon="30.6865954399"><time>2026-09-01T14:44:00Z</time></trkpt><trkpt lat="59.2567348480" lon="30.6865525246"><time>2026-09-01T14:44:03Z</time></trkpt><trkpt lat="59.2567133904" lon="30.6864881516"><time>2026-09-01T14:44:05Z</time></trkpt><trkpt lat="59.2567133904" lon="30.6864881516"><time>2026-09-01T14:44:08Z</time></trkpt><trkpt lat="59.2566919327" lon="30.6864666939"><time>2026-09-01T14:44:10Z</time></trkpt><trkpt lat="59.2566704750" lon="30.6864237785"><time>2026-09-01T14:44:13Z</time></trkpt><trkpt lat="59.2566490173" lon="30.6863379478"><time>2026-09-01T14:44:15Z</time></trkpt><trkpt lat="59.2566490173" lon="30.6863164902"><time>2026-09-01T14:44:18Z</time></trkpt><trkpt lat="59.2566275597" lon="30.6863379478"><time>2026-09-01T14:44:20Z</time></trkpt><trkpt lat="59.2566061020" lon="30.6863164902"><time>2026-09-01T14:44:23Z</time></trkpt><trkpt lat="59.2565846443" lon="30.6862306595"><time>2026-09-01T14:44:25Z</time></trkpt><trkpt lat="59.2565631866" lon="30.6861877441"><time>2026-09-01T14:44:28Z</time></trkpt><trkpt lat="59.2565631866" lon="30.6861877441"><time>2026-09-01T14:44:30Z</time></trkpt><trkpt lat="59.2565417290" lon="30.6861662865"><time>2026-09-01T14:44:33Z</time></trkpt><trkpt lat="59.2564988136" lon="30.6860804558"><time>2026-09-01T14:44:35Z</time></trkpt><trkpt lat="59.2564988136" lon="30.6860160828"><time>2026-09-01T14:44:38Z</time></trkpt><trkpt lat="59.2564988136" lon="30.6859946251"><time>2026-09-01T14:44:40Z</time></trkpt><trkpt lat="59.2564988136" lon="30.6859946251"><time>2026-09-01T14:44:43Z</time></trkpt><trkpt lat="59.2564988136" lon="30.6859731674"><time>2026-09-01T14:44:45Z</time></trkpt><trkpt lat="59.2564988136" lon="30.6859302521"><time>2026-09-01T14:44:48Z</time></trkpt><trkpt lat="59.2564988136" lon="30.6859302521"><time>2026-09-01T14:44:50Z</time></trkpt><trkpt lat="59.2564988136" lon="30.6858444214"><time>2026-09-01T14:44:53Z</time></trkpt><trkpt lat="59.2564773560" lon="30.6857585907"><time>2026-09-01T14:44:55Z</time></trkpt><trkpt lat="59.2564773560" lon="30.6857156754"><time>2026-09-01T14:44:58Z</time></trkpt><trkpt lat="59.2564773560" lon="30.6857156754"><time>2026-09-01T14:45:00Z</time></trkpt><trkpt lat="59.2564558983" lon="30.6856727600"><time>2026-09-01T14:45:03Z</time></trkpt><trkpt lat="59.2564344406" lon="30.6856298447"><time>2026-09-01T14:45:05Z</time></trkpt><trkpt lat="59.2564129829" lon="30.6855654716"><time>2026-09-01T14:45:08Z</time></trkpt><trkpt lat="59.2564129829" lon="30.6855654716"><time>2026-09-01T14:45:10Z</time></trkpt><trkpt lat="59.2564129829" lon="30.6855440140"><time>2026-09-01T14:45:13Z</time></trkpt><trkpt lat="59.2563915253" lon="30.6854581833"><time>2026-09-01T14:45:15Z</time></trkpt><trkpt lat="59.2563700676" lon="30.6853938103"><time>2026-09-01T14:45:18Z</time></trkpt><trkpt lat="59.2563700676" lon="30.6852865219"><time>2026-09-01T14:45:20Z</time></trkpt><trkpt lat="59.2563486099" lon="30.6852436066"><time>2026-09-01T14:45:23Z</time></trkpt><trkpt lat="59.2563486099" lon="30.6852650642"><time>2026-09-01T14:45:25Z</time></trkpt><trkpt lat="59.2563486099" lon="30.6853079796"><time>2026-09-01T14:45:28Z</time></trkpt><trkpt lat="59.2563271523" lon="30.6852865219"><time>2026-09-01T14:45:30Z</time></trkpt><trkpt lat="59.2563271523" lon="30.6852650642"><time>2026-09-01T14:45:33Z</time></trkpt><trkpt lat="59.2563056946" lon="30.6852006912"><time>2026-09-01T14:45:35Z</time></trkpt><trkpt lat="59.2563056946" lon="30.6851577759"><time>2026-09-01T14:45:38Z</time></trkpt><trkpt lat="59.2563056946" lon="30.6851577759"><time>2026-09-01T14:45:40Z</time></trkpt><trkpt lat="59.2563056946" lon="30.6851363182"><time>2026-09-01T14:45:43Z</time></trkpt><trkpt lat="59.2562842369" lon="30.6850934029"><time>2026-09-01T14:45:45Z</time></trkpt><trkpt lat="59.2562627792" lon="30.6850075722"><time>2026-09-01T14:45:48Z</time></trkpt><trkpt lat="59.2562413216" lon="30.6849217415"><time>2026-09-01T14:45:50Z</time></trkpt><trkpt lat="59.2562413216" lon="30.6848573685"><time>2026-09-01T14:45:53Z</time></trkpt><trkpt lat="59.2562198639" lon="30.6848144531"><time>2026-09-01T14:45:55Z</time></trkpt><trkpt lat="59.2561984062" lon="30.6847929955"><time>2026-09-01T14:45:58Z</time></trkpt><trkpt lat="59.2561984062" lon="30.6847929955"><time>2026-09-01T14:46:00Z</time></trkpt><trkpt lat="59.2561984062" lon="30.6847929955"><time>2026-09-01T14:46:03Z</time></trkpt><trkpt lat="59.2561984062" lon="30.6847929955"><time>2026-09-01T14:46:05Z</time></trkpt><trkpt lat="59.2561984062" lon="30.6847929955"><time>2026-09-01T14:46:08Z</time></trkpt><trkpt lat="59.2561554909" lon="30.6848144531"><time>2026-09-01T14:46:10Z</time></trkpt><trkpt lat="59.2561125755" lon="30.6848144531"><time>2026-09-01T14:46:13Z</time></trkpt><trkpt lat="59.2560911179" lon="30.6848359108"><time>2026-09-01T14:46:15Z</time></trkpt><trkpt lat="59.2560267448" lon="30.6848144531"><time>2026-09-01T14:46:18Z</time></trkpt><trkpt lat="59.2560052872" lon="30.6848359108"><time>2026-09-01T14:46:20Z</time></trkpt><trkpt lat="59.2560052872" lon="30.6848573685"><time>2026-09-01T14:46:23Z</time></trkpt><trkpt lat="59.2559838295" lon="30.6848788261"><time>2026-09-01T14:46:25Z</time></trkpt><trkpt lat="59.2559409142" lon="30.6849217415"><time>2026-09-01T14:46:28Z</time></trkpt><trkpt lat="59.2559194565" lon="30.6849431992"><time>2026-09-01T14:46:30Z</time></trkpt><trkpt lat="59.2559409142" lon="30.6849431992"><time>2026-09-01T14:46:33Z</time></trkpt><trkpt lat="59.2559409142" lon="30.6849861145"><time>2026-09-01T14:46:35Z</time></trkpt><trkpt lat="59.2559409142" lon="30.6849861145"><time>2026-09-01T14:46:38Z</time></trkpt><trkpt lat="59.2559409142" lon="30.6849861145"><time>2026-09-01T14:46:40Z</time></trkpt><trkpt lat="59.2559194565" lon="30.6850075722"><time>2026-09-01T14:46:43Z</time></trkpt><trkpt lat="59.2558765411" lon="30.6850504875"><time>2026-09-01T14:46:45Z</time></trkpt><trkpt lat="59.2558336258" lon="30.6850719452"><time>2026-09-01T14:46:48Z</time></trkpt><trkpt lat="59.2558121681" lon="30.6851148605"><time>2026-09-01T14:46:50Z</time></trkpt><trkpt lat="59.2558121681" lon="30.6851148605"><time>2026-09-01T14:46:53Z</time></trkpt><trkpt lat="59.2558121681" lon="30.6851792336"><time>2026-09-01T14:46:55Z</time></trkpt><trkpt lat="59.2558121681" lon="30.6852006912"><time>2026-09-01T14:46:58Z</time></trkpt><trkpt lat="59.2557477951" lon="30.6852006912"><time>2026-09-01T14:47:00Z</time></trkpt><trkpt lat="59.2557048798" lon="30.6852436066"><time>2026-09-01T14:47:03Z</time></trkpt><trkpt lat="59.2556619644" lon="30.6852436066"><time>2026-09-01T14:47:05Z</time></trkpt><trkpt lat="59.2556405067" lon="30.6852650642"><time>2026-09-01T14:47:08Z</time></trkpt><trkpt lat="59.2556405067" lon="30.6852650642"><time>2026-09-01T14:47:10Z</time></trkpt><trkpt lat="59.2556405067" lon="30.6852650642"><time>2026-09-01T14:47:13Z</time></trkpt><trkpt lat="59.2556405067" lon="30.6852650642"><time>2026-09-01T14:47:15Z</time></trkpt><trkpt lat="59.2556405067" lon="30.6852650642"><time>2026-09-01T14:47:18Z</time></trkpt><trkpt lat="59.2555975914" lon="30.6853079796"><time>2026-09-01T14:47:20Z</time></trkpt><trkpt lat="59.2555117607" lon="30.6853294373"><time>2026-09-01T14:47:23Z</time></trkpt><trkpt lat="59.2554688454" lon="30.6853294373"><time>2026-09-01T14:47:25Z</time></trkpt><trkpt lat="59.2554688454" lon="30.6853294373"><time>2026-09-01T14:47:28Z</time></trkpt><trkpt lat="59.2554688454" lon="30.6853294373"><time>2026-09-01T14:47:30Z</time></trkpt><trkpt lat="59.2554688454" lon="30.6853508949"><time>2026-09-01T14:47:33Z</time></trkpt><trkpt lat="59.2554259300" lon="30.6853723526"><time>2026-09-01T14:47:35Z</time></trkpt><trkpt lat="59.2553830147" lon="30.6853938103"><time>2026-09-01T14:47:38Z</time></trkpt><trkpt lat="59.2553615570" lon="30.6854152679"><time>2026-09-01T14:47:40Z</time></trkpt><trkpt lat="59.2553615570" lon="30.6854152679"><time>2026-09-01T14:47:43Z</time></trkpt><trkpt lat="59.2553615570" lon="30.6854152679"><time>2026-09-01T14:47:45Z</time></trkpt><trkpt lat="59.2553400993" lon="30.6854152679"><time>2026-09-01T14:47:48Z</time></trkpt><trkpt lat="59.2552757263" lon="30.6854581833"><time>2026-09-01T14:47:50Z</time></trkpt><trkpt lat="59.2552328110" lon="30.6854796410"><time>2026-09-01T14:47:53Z</time></trkpt><trkpt lat="59.2551898956" lon="30.6855225563"><time>2026-09-01T14:47:55Z</time></trkpt><trkpt lat="59.2551898956" lon="30.6855225563"><time>2026-09-01T14:47:58Z</time></trkpt><trkpt lat="59.2552113533" lon="30.6855225563"><time>2026-09-01T14:48:00Z</time></trkpt><trkpt lat="59.2551898956" lon="30.6855225563"><time>2026-09-01T14:48:03Z</time></trkpt><trkpt lat="59.2551684380" lon="30.6855869293"><time>2026-09-01T14:48:05Z</time></trkpt><trkpt lat="59.2551684380" lon="30.6856083870"><time>2026-09-01T14:48:08Z</time></trkpt><trkpt lat="59.2551684380" lon="30.6856083870"><time>2026-09-01T14:48:10Z</time></trkpt><trkpt lat="59.2551684380" lon="30.6856083870"><time>2026-09-01T14:48:13Z</time></trkpt><trkpt lat="59.2551684380" lon="30.6856083870"><time>2026-09-01T14:48:15Z</time></trkpt><trkpt lat="59.2551684380" lon="30.6856083870"><time>2026-09-01T14:48:18Z</time></trkpt><trkpt lat="59.2551684380" lon="30.6856083870"><time>2026-09-01T14:48:20Z</time></trkpt><trkpt lat="59.2551684380" lon="30.6856083870"><time>2026-09-01T14:48:23Z</time></trkpt><trkpt lat="59.2551684380" lon="30.6856083870"><time>2026-09-01T14:48:25Z</time></trkpt><trkpt lat="59.2551684380" lon="30.6856083870"><time>2026-09-01T14:48:28Z</time></trkpt><trkpt lat="59.2551684380" lon="30.6856083870"><time>2026-09-01T14:48:30Z</time></trkpt><trkpt lat="59.2551684380" lon="30.6856083870"><time>2026-09-01T14:48:33Z</time></trkpt><trkpt lat="59.2551684380" lon="30.6856083870"><time>2026-09-01T14:48:35Z</time></trkpt><trkpt lat="59.2551684380" lon="30.6856083870"><time>2026-09-01T14:48:38Z</time></trkpt><trkpt lat="59.2551684380" lon="30.6856083870"><time>2026-09-01T14:48:40Z</time></trkpt><trkpt lat="59.2551684380" lon="30.6856083870"><time>2026-09-01T14:48:43Z</time></trkpt><trkpt lat="59.2551684380" lon="30.6856083870"><time>2026-09-01T14:48:45Z</time></trkpt><trkpt lat="59.2551898956" lon="30.6856513023"><time>2026-09-01T14:48:48Z</time></trkpt><trkpt lat="59.2551898956" lon="30.6856513023"><time>2026-09-01T14:48:50Z</time></trkpt><trkpt lat="59.2551898956" lon="30.6856513023"><time>2026-09-01T14:48:53Z</time></trkpt><trkpt lat="59.2551898956" lon="30.6856513023"><time>2026-09-01T14:48:55Z</time></trkpt><trkpt lat="59.2551898956" lon="30.6856513023"><time>2026-09-01T14:48:58Z</time></trkpt><trkpt lat="59.2551898956" lon="30.6856513023"><time>2026-09-01T14:49:00Z</time></trkpt><trkpt lat="59.2551898956" lon="30.6856513023"><time>2026-09-01T14:49:03Z</time></trkpt><trkpt lat="59.2551898956" lon="30.6856942177"><time>2026-09-01T14:49:05Z</time></trkpt><trkpt lat="59.2551898956" lon="30.6856942177"><time>2026-09-01T14:49:08Z</time></trkpt><trkpt lat="59.2551898956" lon="30.6857156754"><time>2026-09-01T14:49:10Z</time></trkpt><trkpt lat="59.2551898956" lon="30.6856942177"><time>2026-09-01T14:49:13Z</time></trkpt><trkpt lat="59.2552113533" lon="30.6856942177"><time>2026-09-01T14:49:15Z</time></trkpt><trkpt lat="59.2552113533" lon="30.6856942177"><time>2026-09-01T14:49:18Z</time></trkpt><trkpt lat="59.2552113533" lon="30.6856942177"><time>2026-09-01T14:49:20Z</time></trkpt><trkpt lat="59.2552113533" lon="30.6856942177"><time>2026-09-01T14:49:23Z</time></trkpt><trkpt lat="59.2551898956" lon="30.6856727600"><time>2026-09-01T14:49:25Z</time></trkpt><trkpt lat="59.2551898956" lon="30.6856727600"><time>2026-09-01T14:49:28Z</time></trkpt><trkpt lat="59.2551898956" lon="30.6856727600"><time>2026-09-01T14:49:30Z</time></trkpt><trkpt lat="59.2551898956" lon="30.6856727600"><time>2026-09-01T14:49:33Z</time></trkpt><trkpt lat="59.2551898956" lon="30.6856727600"><time>2026-09-01T14:49:35Z</time></trkpt><trkpt lat="59.2551898956" lon="30.6856727600"><time>2026-09-01T14:49:38Z</time></trkpt><trkpt lat="59.2552328110" lon="30.6856513023"><time>2026-09-01T14:49:40Z</time></trkpt><trkpt lat="59.2552542686" lon="30.6856513023"><time>2026-09-01T14:49:43Z</time></trkpt><trkpt lat="59.2552328110" lon="30.6856298447"><time>2026-09-01T14:49:45Z</time></trkpt><trkpt lat="59.2552113533" lon="30.6856513023"><time>2026-09-01T14:49:48Z</time></trkpt><trkpt lat="59.2552113533" lon="30.6856513023"><time>2026-09-01T14:49:50Z</time></trkpt><trkpt lat="59.2552113533" lon="30.6856513023"><time>2026-09-01T14:49:53Z</time></trkpt><trkpt lat="59.2552113533" lon="30.6856513023"><time>2026-09-01T14:49:55Z</time></trkpt><trkpt lat="59.2552113533" lon="30.6856513023"><time>2026-09-01T14:49:58Z</time></trkpt><trkpt lat="59.2552113533" lon="30.6856513023"><time>2026-09-01T14:50:00Z</time></trkpt><trkpt lat="59.2552113533" lon="30.6856513023"><time>2026-09-01T14:50:03Z</time></trkpt><trkpt lat="59.2552113533" lon="30.6856298447"><time>2026-09-01T14:50:05Z</time></trkpt><trkpt lat="59.2552113533" lon="30.6856298447"><time>2026-09-01T14:50:08Z</time></trkpt><trkpt lat="59.2552113533" lon="30.6856298447"><time>2026-09-01T14:50:10Z</time></trkpt><trkpt lat="59.2552113533" lon="30.6856298447"><time>2026-09-01T14:50:13Z</time></trkpt><trkpt lat="59.2552113533" lon="30.6856298447"><time>2026-09-01T14:50:15Z</time></trkpt><trkpt lat="59.2552113533" lon="30.6856298447"><time>2026-09-01T14:50:18Z</time></trkpt><trkpt lat="59.2552113533" lon="30.6856727600"><time>2026-09-01T14:50:20Z</time></trkpt><trkpt lat="59.2552113533" lon="30.6857156754"><time>2026-09-01T14:50:23Z</time></trkpt><trkpt lat="59.2552113533" lon="30.6857156754"><time>2026-09-01T14:50:25Z</time></trkpt><trkpt lat="59.2552113533" lon="30.6857156754"><time>2026-09-01T14:50:28Z</time></trkpt><trkpt lat="59.2552113533" lon="30.6857156754"><time>2026-09-01T14:50:30Z</time></trkpt><trkpt lat="59.2552113533" lon="30.6856727600"><time>2026-09-01T14:50:33Z</time></trkpt><trkpt lat="59.2552113533" lon="30.6856513023"><time>2026-09-01T14:50:35Z</time></trkpt><trkpt lat="59.2552113533" lon="30.6856513023"><time>2026-09-01T14:50:38Z</time></trkpt><trkpt lat="59.2552113533" lon="30.6856513023"><time>2026-09-01T14:50:40Z</time></trkpt><trkpt lat="59.2552113533" lon="30.6856513023"><time>2026-09-01T14:50:43Z</time></trkpt><trkpt lat="59.2552113533" lon="30.6856513023"><time>2026-09-01T14:50:45Z</time></trkpt><trkpt lat="59.2552113533" lon="30.6856513023"><time>2026-09-01T14:50:48Z</time></trkpt><trkpt lat="59.2552113533" lon="30.6856513023"><time>2026-09-01T14:50:50Z</time></trkpt><trkpt lat="59.2552113533" lon="30.6856942177"><time>2026-09-01T14:50:53Z</time></trkpt><trkpt lat="59.2552113533" lon="30.6857371330"><time>2026-09-01T14:50:55Z</time></trkpt><trkpt lat="59.2551898956" lon="30.6857156754"><time>2026-09-01T14:50:58Z</time></trkpt><trkpt lat="59.2551898956" lon="30.6857371330"><time>2026-09-01T14:51:00Z</time></trkpt><trkpt lat="59.2551898956" lon="30.6856942177"><time>2026-09-01T14:51:03Z</time></trkpt><trkpt lat="59.2551898956" lon="30.6856942177"><time>2026-09-01T14:51:05Z</time></trkpt><trkpt lat="59.2551898956" lon="30.6856942177"><time>2026-09-01T14:51:08Z</time></trkpt><trkpt lat="59.2551898956" lon="30.6856942177"><time>2026-09-01T14:51:10Z</time></trkpt><trkpt lat="59.2551898956" lon="30.6856942177"><time>2026-09-01T14:51:13Z</time></trkpt><trkpt lat="59.2551898956" lon="30.6857156754"><time>2026-09-01T14:51:15Z</time></trkpt><trkpt lat="59.2551898956" lon="30.6857371330"><time>2026-09-01T14:51:18Z</time></trkpt><trkpt lat="59.2551898956" lon="30.6857585907"><time>2026-09-01T14:51:20Z</time></trkpt><trkpt lat="59.2551898956" lon="30.6857585907"><time>2026-09-01T14:51:23Z</time></trkpt><trkpt lat="59.2551898956" lon="30.6857585907"><time>2026-09-01T14:51:25Z</time></trkpt><trkpt lat="59.2551898956" lon="30.6857585907"><time>2026-09-01T14:51:28Z</time></trkpt><trkpt lat="59.2551898956" lon="30.6857585907"><time>2026-09-01T14:51:30Z</time></trkpt><trkpt lat="59.2551898956" lon="30.6857585907"><time>2026-09-01T14:51:33Z</time></trkpt><trkpt lat="59.2551898956" lon="30.6857585907"><time>2026-09-01T14:51:35Z</time></trkpt><trkpt lat="59.2551898956" lon="30.6857156754"><time>2026-09-01T14:51:38Z</time></trkpt><trkpt lat="59.2551898956" lon="30.6857156754"><time>2026-09-01T14:51:40Z</time></trkpt><trkpt lat="59.2551898956" lon="30.6857156754"><time>2026-09-01T14:51:43Z</time></trkpt><trkpt lat="59.2552113533" lon="30.6857156754"><time>2026-09-01T14:51:45Z</time></trkpt><trkpt lat="59.2552113533" lon="30.6857156754"><time>2026-09-01T14:51:48Z</time></trkpt><trkpt lat="59.2552113533" lon="30.6857156754"><time>2026-09-01T14:51:50Z</time></trkpt><trkpt lat="59.2552113533" lon="30.6857156754"><time>2026-09-01T14:51:53Z</time></trkpt><trkpt lat="59.2552113533" lon="30.6857156754"><time>2026-09-01T14:51:55Z</time></trkpt><trkpt lat="59.2552113533" lon="30.6857156754"><time>2026-09-01T14:51:58Z</time></trkpt><trkpt lat="59.2552113533" lon="30.6857156754"><time>2026-09-01T14:52:00Z</time></trkpt><trkpt lat="59.2552113533" lon="30.6857156754"><time>2026-09-01T14:52:03Z</time></trkpt><trkpt lat="59.2552113533" lon="30.6857156754"><time>2026-09-01T14:52:05Z</time></trkpt><trkpt lat="59.2552113533" lon="30.6857156754"><time>2026-09-01T14:52:08Z</time></trkpt><trkpt lat="59.2552113533" lon="30.6857156754"><time>2026-09-01T14:52:10Z</time></trkpt><trkpt lat="59.2552113533" lon="30.6857156754"><time>2026-09-01T14:52:13Z</time></trkpt><trkpt lat="59.2552113533" lon="30.6857156754"><time>2026-09-01T14:52:15Z</time></trkpt><trkpt lat="59.2552113533" lon="30.6857156754"><time>2026-09-01T14:52:18Z</time></trkpt><trkpt lat="59.2552113533" lon="30.6857156754"><time>2026-09-01T14:52:20Z</time></trkpt><trkpt lat="59.2552113533" lon="30.6857156754"><time>2026-09-01T14:52:23Z</time></trkpt><trkpt lat="59.2552113533" lon="30.6857156754"><time>2026-09-01T14:52:25Z</time></trkpt><trkpt lat="59.2552113533" lon="30.6857156754"><time>2026-09-01T14:52:28Z</time></trkpt><trkpt lat="59.2552113533" lon="30.6857156754"><time>2026-09-01T14:52:30Z</time></trkpt><trkpt lat="59.2552113533" lon="30.6857156754"><time>2026-09-01T14:52:33Z</time></trkpt><trkpt lat="59.2552113533" lon="30.6857156754"><time>2026-09-01T14:52:35Z</time></trkpt><trkpt lat="59.2552113533" lon="30.6857156754"><time>2026-09-01T14:52:38Z</time></trkpt><trkpt lat="59.2552113533" lon="30.6857156754"><time>2026-09-01T14:52:40Z</time></trkpt><trkpt lat="59.2552113533" lon="30.6857156754"><time>2026-09-01T14:52:43Z</time></trkpt><trkpt lat="59.2552113533" lon="30.6857156754"><time>2026-09-01T14:52:45Z</time></trkpt><trkpt lat="59.2552113533" lon="30.6857156754"><time>2026-09-01T14:52:48Z</time></trkpt><trkpt lat="59.2552113533" lon="30.6857156754"><time>2026-09-01T14:52:50Z</time></trkpt><trkpt lat="59.2552113533" lon="30.6857156754"><time>2026-09-01T14:52:53Z</time></trkpt><trkpt lat="59.2552113533" lon="30.6857156754"><time>2026-09-01T14:52:55Z</time></trkpt><trkpt lat="59.2552113533" lon="30.6857156754"><time>2026-09-01T14:52:58Z</time></trkpt><trkpt lat="59.2552113533" lon="30.6857156754"><time>2026-09-01T14:53:00Z</time></trkpt><trkpt lat="59.2552113533" lon="30.6857156754"><time>2026-09-01T14:53:03Z</time></trkpt><trkpt lat="59.2552113533" lon="30.6857156754"><time>2026-09-01T14:53:05Z</time></trkpt><trkpt lat="59.2552113533" lon="30.6857156754"><time>2026-09-01T14:53:08Z</time></trkpt><trkpt lat="59.2552113533" lon="30.6857156754"><time>2026-09-01T14:53:10Z</time></trkpt><trkpt lat="59.2552113533" lon="30.6857156754"><time>2026-09-01T14:53:13Z</time></trkpt><trkpt lat="59.2552113533" lon="30.6857156754"><time>2026-09-01T14:53:15Z</time></trkpt><trkpt lat="59.2552113533" lon="30.6857156754"><time>2026-09-01T14:53:18Z</time></trkpt><trkpt lat="59.2552113533" lon="30.6857156754"><time>2026-09-01T14:53:20Z</time></trkpt><trkpt lat="59.2552113533" lon="30.6857156754"><time>2026-09-01T14:53:23Z</time></trkpt><trkpt lat="59.2552113533" lon="30.6857156754"><time>2026-09-01T14:53:25Z</time></trkpt><trkpt lat="59.2552113533" lon="30.6857156754"><time>2026-09-01T14:53:28Z</time></trkpt><trkpt lat="59.2552113533" lon="30.6857156754"><time>2026-09-01T14:53:30Z</time></trkpt><trkpt lat="59.2552113533" lon="30.6857156754"><time>2026-09-01T14:53:33Z</time></trkpt><trkpt lat="59.2552113533" lon="30.6857156754"><time>2026-09-01T14:53:35Z</time></trkpt><trkpt lat="59.2552113533" lon="30.6857156754"><time>2026-09-01T14:53:38Z</time></trkpt><trkpt lat="59.2552113533" lon="30.6857156754"><time>2026-09-01T14:53:40Z</time></trkpt><trkpt lat="59.2552113533" lon="30.6857156754"><time>2026-09-01T14:53:43Z</time></trkpt><trkpt lat="59.2552113533" lon="30.6857156754"><time>2026-09-01T14:53:45Z</time></trkpt><trkpt lat="59.2552113533" lon="30.6856942177"><time>2026-09-01T14:53:48Z</time></trkpt><trkpt lat="59.2552113533" lon="30.6856942177"><time>2026-09-01T14:53:50Z</time></trkpt><trkpt lat="59.2552113533" lon="30.6856942177"><time>2026-09-01T14:53:53Z</time></trkpt><trkpt lat="59.2552113533" lon="30.6856942177"><time>2026-09-01T14:53:55Z</time></trkpt><trkpt lat="59.2552113533" lon="30.6856942177"><time>2026-09-01T14:53:58Z</time></trkpt><trkpt lat="59.2552113533" lon="30.6856942177"><time>2026-09-01T14:54:00Z</time></trkpt><trkpt lat="59.2552113533" lon="30.6856942177"><time>2026-09-01T14:54:03Z</time></trkpt><trkpt lat="59.2552113533" lon="30.6856942177"><time>2026-09-01T14:54:05Z</time></trkpt><trkpt lat="59.2552113533" lon="30.6856942177"><time>2026-09-01T14:54:08Z</time></trkpt><trkpt lat="59.2552113533" lon="30.6856942177"><time>2026-09-01T14:54:10Z</time></trkpt><trkpt lat="59.2552113533" lon="30.6856942177"><time>2026-09-01T14:54:13Z</time></trkpt><trkpt lat="59.2552113533" lon="30.6856942177"><time>2026-09-01T14:54:15Z</time></trkpt><trkpt lat="59.2552113533" lon="30.6856942177"><time>2026-09-01T14:54:18Z</time></trkpt><trkpt lat="59.2552113533" lon="30.6856942177"><time>2026-09-01T14:54:20Z</time></trkpt><trkpt lat="59.2552113533" lon="30.6856942177"><time>2026-09-01T14:54:23Z</time></trkpt><trkpt lat="59.2552113533" lon="30.6856942177"><time>2026-09-01T14:54:25Z</time></trkpt><trkpt lat="59.2552113533" lon="30.6856942177"><time>2026-09-01T14:54:28Z</time></trkpt><trkpt lat="59.2552113533" lon="30.6856942177"><time>2026-09-01T14:54:30Z</time></trkpt><trkpt lat="59.2552113533" lon="30.6856942177"><time>2026-09-01T14:54:33Z</time></trkpt><trkpt lat="59.2552113533" lon="30.6856942177"><time>2026-09-01T14:54:35Z</time></trkpt><trkpt lat="59.2552113533" lon="30.6856942177"><time>2026-09-01T14:54:38Z</time></trkpt><trkpt lat="59.2552113533" lon="30.6856942177"><time>2026-09-01T14:54:40Z</time></trkpt><trkpt lat="59.2552113533" lon="30.6856942177"><time>2026-09-01T14:54:43Z</time></trkpt><trkpt lat="59.2552113533" lon="30.6856942177"><time>2026-09-01T14:54:45Z</time></trkpt><trkpt lat="59.2552113533" lon="30.6856942177"><time>2026-09-01T14:54:48Z</time></trkpt><trkpt lat="59.2552113533" lon="30.6856942177"><time>2026-09-01T14:54:50Z</time></trkpt><trkpt lat="59.2552113533" lon="30.6856942177"><time>2026-09-01T14:54:53Z</time></trkpt><trkpt lat="59.2552113533" lon="30.6856942177"><time>2026-09-01T14:54:55Z</time></trkpt><trkpt lat="59.2552113533" lon="30.6856942177"><time>2026-09-01T14:54:58Z</time></trkpt><trkpt lat="59.2552113533" lon="30.6856942177"><time>2026-09-01T14:55:00Z</time></trkpt><trkpt lat="59.2552113533" lon="30.6856942177"><time>2026-09-01T14:55:03Z</time></trkpt><trkpt lat="59.2551898956" lon="30.6856942177"><time>2026-09-01T14:55:05Z</time></trkpt><trkpt lat="59.2551898956" lon="30.6856942177"><time>2026-09-01T14:55:08Z</time></trkpt><trkpt lat="59.2551898956" lon="30.6856942177"><time>2026-09-01T14:55:10Z</time></trkpt><trkpt lat="59.2551898956" lon="30.6856942177"><time>2026-09-01T14:55:13Z</time></trkpt><trkpt lat="59.2551898956" lon="30.6856942177"><time>2026-09-01T14:55:15Z</time></trkpt><trkpt lat="59.2551898956" lon="30.6856942177"><time>2026-09-01T14:55:18Z</time></trkpt><trkpt lat="59.2551898956" lon="30.6856942177"><time>2026-09-01T14:55:20Z</time></trkpt><trkpt lat="59.2551898956" lon="30.6856942177"><time>2026-09-01T14:55:23Z</time></trkpt><trkpt lat="59.2551898956" lon="30.6856942177"><time>2026-09-01T14:55:25Z</time></trkpt><trkpt lat="59.2552328110" lon="30.6857371330"><time>2026-09-01T14:55:28Z</time></trkpt><trkpt lat="59.2552113533" lon="30.6857156754"><time>2026-09-01T14:55:30Z</time></trkpt><trkpt lat="59.2552328110" lon="30.6857371330"><time>2026-09-01T14:55:33Z</time></trkpt><trkpt lat="59.2552113533" lon="30.6856727600"><time>2026-09-01T14:55:35Z</time></trkpt><trkpt lat="59.2552113533" lon="30.6856513023"><time>2026-09-01T14:55:38Z</time></trkpt><trkpt lat="59.2552113533" lon="30.6856513023"><time>2026-09-01T14:55:40Z</time></trkpt><trkpt lat="59.2552328110" lon="30.6856727600"><time>2026-09-01T14:55:43Z</time></trkpt><trkpt lat="59.2552328110" lon="30.6856513023"><time>2026-09-01T14:55:45Z</time></trkpt><trkpt lat="59.2552328110" lon="30.6856298447"><time>2026-09-01T14:55:48Z</time></trkpt><trkpt lat="59.2552113533" lon="30.6856727600"><time>2026-09-01T14:55:50Z</time></trkpt><trkpt lat="59.2551898956" lon="30.6857156754"><time>2026-09-01T14:55:53Z</time></trkpt><trkpt lat="59.2552113533" lon="30.6857156754"><time>2026-09-01T14:55:55Z</time></trkpt><trkpt lat="59.2552328110" lon="30.6857371330"><time>2026-09-01T14:55:58Z</time></trkpt><trkpt lat="59.2552542686" lon="30.6857800484"><time>2026-09-01T14:56:00Z</time></trkpt><trkpt lat="59.2552328110" lon="30.6857800484"><time>2026-09-01T14:56:03Z</time></trkpt><trkpt lat="59.2552328110" lon="30.6856942177"><time>2026-09-01T14:56:05Z</time></trkpt><trkpt lat="59.2552113533" lon="30.6856942177"><time>2026-09-01T14:56:08Z</time></trkpt><trkpt lat="59.2552113533" lon="30.6856298447"><time>2026-09-01T14:56:10Z</time></trkpt><trkpt lat="59.2551898956" lon="30.6855654716"><time>2026-09-01T14:56:13Z</time></trkpt><trkpt lat="59.2551684380" lon="30.6855869293"><time>2026-09-01T14:56:15Z</time></trkpt><trkpt lat="59.2551898956" lon="30.6856942177"><time>2026-09-01T14:56:18Z</time></trkpt><trkpt lat="59.2551898956" lon="30.6856942177"><time>2026-09-01T14:56:20Z</time></trkpt><trkpt lat="59.2551898956" lon="30.6856942177"><time>2026-09-01T14:56:23Z</time></trkpt><trkpt lat="59.2551684380" lon="30.6856513023"><time>2026-09-01T14:56:25Z</time></trkpt><trkpt lat="59.2551898956" lon="30.6856727600"><time>2026-09-01T14:56:28Z</time></trkpt><trkpt lat="59.2551684380" lon="30.6856513023"><time>2026-09-01T14:56:30Z</time></trkpt><trkpt lat="59.2551469803" lon="30.6856513023"><time>2026-09-01T14:56:33Z</time></trkpt><trkpt lat="59.2551469803" lon="30.6857156754"><time>2026-09-01T14:56:35Z</time></trkpt><trkpt lat="59.2551898956" lon="30.6856942177"><time>2026-09-01T14:56:38Z</time></trkpt><trkpt lat="59.2552113533" lon="30.6857585907"><time>2026-09-01T14:56:40Z</time></trkpt><trkpt lat="59.2551898956" lon="30.6857371330"><time>2026-09-01T14:56:43Z</time></trkpt><trkpt lat="59.2552328110" lon="30.6857156754"><time>2026-09-01T14:56:45Z</time></trkpt><trkpt lat="59.2552757263" lon="30.6857371330"><time>2026-09-01T14:56:48Z</time></trkpt><trkpt lat="59.2552113533" lon="30.6858229637"><time>2026-09-01T14:56:50Z</time></trkpt><trkpt lat="59.2552113533" lon="30.6858873367"><time>2026-09-01T14:56:53Z</time></trkpt><trkpt lat="59.2551898956" lon="30.6857800484"><time>2026-09-01T14:56:55Z</time></trkpt><trkpt lat="59.2552113533" lon="30.6856942177"><time>2026-09-01T14:56:58Z</time></trkpt><trkpt lat="59.2552542686" lon="30.6856727600"><time>2026-09-01T14:57:00Z</time></trkpt><trkpt lat="59.2552328110" lon="30.6857371330"><time>2026-09-01T14:57:03Z</time></trkpt><trkpt lat="59.2551898956" lon="30.6858658791"><time>2026-09-01T14:57:05Z</time></trkpt><trkpt lat="59.2552113533" lon="30.6859087944"><time>2026-09-01T14:57:08Z</time></trkpt><trkpt lat="59.2551898956" lon="30.6860160828"><time>2026-09-01T14:57:10Z</time></trkpt><trkpt lat="59.2552113533" lon="30.6859946251"><time>2026-09-01T14:57:13Z</time></trkpt><trkpt lat="59.2552113533" lon="30.6860375404"><time>2026-09-01T14:57:15Z</time></trkpt><trkpt lat="59.2552113533" lon="30.6860804558"><time>2026-09-01T14:57:18Z</time></trkpt><trkpt lat="59.2551684380" lon="30.6861448288"><time>2026-09-01T14:57:20Z</time></trkpt><trkpt lat="59.2551684380" lon="30.6860375404"><time>2026-09-01T14:57:23Z</time></trkpt><trkpt lat="59.2551898956" lon="30.6858444214"><time>2026-09-01T14:57:25Z</time></trkpt><trkpt lat="59.2551898956" lon="30.6857371330"><time>2026-09-01T14:57:28Z</time></trkpt><trkpt lat="59.2551684380" lon="30.6856513023"><time>2026-09-01T14:57:30Z</time></trkpt><trkpt lat="59.2551898956" lon="30.6856298447"><time>2026-09-01T14:57:33Z</time></trkpt><trkpt lat="59.2552113533" lon="30.6855869293"><time>2026-09-01T14:57:35Z</time></trkpt><trkpt lat="59.2551898956" lon="30.6856513023"><time>2026-09-01T14:57:38Z</time></trkpt><trkpt lat="59.2552542686" lon="30.6857156754"><time>2026-09-01T14:57:40Z</time></trkpt><trkpt lat="59.2552542686" lon="30.6856942177"><time>2026-09-01T14:57:43Z</time></trkpt><trkpt lat="59.2552113533" lon="30.6858015060"><time>2026-09-01T14:57:45Z</time></trkpt><trkpt lat="59.2552113533" lon="30.6859087944"><time>2026-09-01T14:57:48Z</time></trkpt><trkpt lat="59.2552113533" lon="30.6859946251"><time>2026-09-01T14:57:50Z</time></trkpt><trkpt lat="59.2551898956" lon="30.6860375404"><time>2026-09-01T14:57:53Z</time></trkpt><trkpt lat="59.2551898956" lon="30.6860160828"><time>2026-09-01T14:57:55Z</time></trkpt><trkpt lat="59.2551898956" lon="30.6859731674"><time>2026-09-01T14:57:58Z</time></trkpt><trkpt lat="59.2551684380" lon="30.6857585907"><time>2026-09-01T14:58:00Z</time></trkpt><trkpt lat="59.2551469803" lon="30.6856513023"><time>2026-09-01T14:58:03Z</time></trkpt><trkpt lat="59.2551040649" lon="30.6855654716"><time>2026-09-01T14:58:05Z</time></trkpt><trkpt lat="59.2551255226" lon="30.6856513023"><time>2026-09-01T14:58:08Z</time></trkpt><trkpt lat="59.2551684380" lon="30.6856942177"><time>2026-09-01T14:58:10Z</time></trkpt><trkpt lat="59.2551898956" lon="30.6856513023"><time>2026-09-01T14:58:13Z</time></trkpt><trkpt lat="59.2552113533" lon="30.6856298447"><time>2026-09-01T14:58:15Z</time></trkpt><trkpt lat="59.2552113533" lon="30.6856513023"><time>2026-09-01T14:58:18Z</time></trkpt><trkpt lat="59.2551898956" lon="30.6856513023"><time>2026-09-01T14:58:20Z</time></trkpt><trkpt lat="59.2551898956" lon="30.6856513023"><time>2026-09-01T14:58:23Z</time></trkpt><trkpt lat="59.2551898956" lon="30.6856513023"><time>2026-09-01T14:58:25Z</time></trkpt><trkpt lat="59.2551898956" lon="30.6856298447"><time>2026-09-01T14:58:28Z</time></trkpt><trkpt lat="59.2551898956" lon="30.6856513023"><time>2026-09-01T14:58:30Z</time></trkpt><trkpt lat="59.2552113533" lon="30.6856942177"><time>2026-09-01T14:58:33Z</time></trkpt><trkpt lat="59.2551898956" lon="30.6857371330"><time>2026-09-01T14:58:35Z</time></trkpt><trkpt lat="59.2551898956" lon="30.6857371330"><time>2026-09-01T14:58:38Z</time></trkpt><trkpt lat="59.2551898956" lon="30.6857371330"><time>2026-09-01T14:58:40Z</time></trkpt><trkpt lat="59.2551898956" lon="30.6857371330"><time>2026-09-01T14:58:43Z</time></trkpt><trkpt lat="59.2552113533" lon="30.6856942177"><time>2026-09-01T14:58:45Z</time></trkpt><trkpt lat="59.2552113533" lon="30.6856942177"><time>2026-09-01T14:58:48Z</time></trkpt><trkpt lat="59.2552113533" lon="30.6857156754"><time>2026-09-01T14:58:50Z</time></trkpt><trkpt lat="59.2552113533" lon="30.6857156754"><time>2026-09-01T14:58:53Z</time></trkpt><trkpt lat="59.2552113533" lon="30.6857156754"><time>2026-09-01T14:58:55Z</time></trkpt><trkpt lat="59.2552328110" lon="30.6856727600"><time>2026-09-01T14:58:58Z</time></trkpt><trkpt lat="59.2552542686" lon="30.6857371330"><time>2026-09-01T14:59:00Z</time></trkpt><trkpt lat="59.2552542686" lon="30.6857371330"><time>2026-09-01T14:59:03Z</time></trkpt><trkpt lat="59.2552757263" lon="30.6857371330"><time>2026-09-01T14:59:05Z</time></trkpt><trkpt lat="59.2552542686" lon="30.6857800484"><time>2026-09-01T14:59:08Z</time></trkpt><trkpt lat="59.2552328110" lon="30.6858658791"><time>2026-09-01T14:59:10Z</time></trkpt><trkpt lat="59.2552113533" lon="30.6859731674"><time>2026-09-01T14:59:13Z</time></trkpt><trkpt lat="59.2551898956" lon="30.6860589981"><time>2026-09-01T14:59:15Z</time></trkpt><trkpt lat="59.2551898956" lon="30.6861233711"><time>2026-09-01T14:59:18Z</time></trkpt><trkpt lat="59.2551898956" lon="30.6862306595"><time>2026-09-01T14:59:20Z</time></trkpt><trkpt lat="59.2551469803" lon="30.6863379478"><time>2026-09-01T14:59:23Z</time></trkpt><trkpt lat="59.2551469803" lon="30.6864452362"><time>2026-09-01T14:59:25Z</time></trkpt><trkpt lat="59.2551469803" lon="30.6864666939"><time>2026-09-01T14:59:28Z</time></trkpt><trkpt lat="59.2551469803" lon="30.6864237785"><time>2026-09-01T14:59:30Z</time></trkpt><trkpt lat="59.2551684380" lon="30.6862521172"><time>2026-09-01T14:59:33Z</time></trkpt><trkpt lat="59.2552328110" lon="30.6859946251"><time>2026-09-01T14:59:35Z</time></trkpt><trkpt lat="59.2552328110" lon="30.6858444214"><time>2026-09-01T14:59:38Z</time></trkpt><trkpt lat="59.2552328110" lon="30.6856942177"><time>2026-09-01T14:59:40Z</time></trkpt><trkpt lat="59.2552113533" lon="30.6856942177"><time>2026-09-01T14:59:43Z</time></trkpt><trkpt lat="59.2552113533" lon="30.6857156754"><time>2026-09-01T14:59:45Z</time></trkpt><trkpt lat="59.2552328110" lon="30.6857156754"><time>2026-09-01T14:59:48Z</time></trkpt><trkpt lat="59.2552328110" lon="30.6857156754"><time>2026-09-01T14:59:50Z</time></trkpt><trkpt lat="59.2552328110" lon="30.6857156754"><time>2026-09-01T14:59:53Z</time></trkpt><trkpt lat="59.2552328110" lon="30.6857371330"><time>2026-09-01T14:59:55Z</time></trkpt><trkpt lat="59.2552328110" lon="30.6857371330"><time>2026-09-01T14:59:58Z</time></trkpt><trkpt lat="59.2552328110" lon="30.6857371330"><time>2026-09-01T15:00:00Z</time></trkpt><trkpt lat="59.2552328110" lon="30.6857371330"><time>2026-09-01T15:00:03Z</time></trkpt><trkpt lat="59.2552328110" lon="30.6857371330"><time>2026-09-01T15:00:05Z</time></trkpt><trkpt lat="59.2552328110" lon="30.6857371330"><time>2026-09-01T15:00:08Z</time></trkpt><trkpt lat="59.2552328110" lon="30.6857371330"><time>2026-09-01T15:00:10Z</time></trkpt><trkpt lat="59.2552328110" lon="30.6857371330"><time>2026-09-01T15:00:13Z</time></trkpt><trkpt lat="59.2552328110" lon="30.6857371330"><time>2026-09-01T15:00:15Z</time></trkpt><trkpt lat="59.2552328110" lon="30.6857371330"><time>2026-09-01T15:00:18Z</time></trkpt><trkpt lat="59.2552328110" lon="30.6856942177"><time>2026-09-01T15:00:20Z</time></trkpt><trkpt lat="59.2552328110" lon="30.6856942177"><time>2026-09-01T15:00:23Z</time></trkpt><trkpt lat="59.2552328110" lon="30.6856727600"><time>2026-09-01T15:00:25Z</time></trkpt><trkpt lat="59.2552542686" lon="30.6856513023"><time>2026-09-01T15:00:28Z</time></trkpt><trkpt lat="59.2552757263" lon="30.6856083870"><time>2026-09-01T15:00:30Z</time></trkpt><trkpt lat="59.2552757263" lon="30.6855869293"><time>2026-09-01T15:00:33Z</time></trkpt><trkpt lat="59.2552757263" lon="30.6855869293"><time>2026-09-01T15:00:35Z</time></trkpt><trkpt lat="59.2552757263" lon="30.6855654716"><time>2026-09-01T15:00:38Z</time></trkpt><trkpt lat="59.2552757263" lon="30.6855654716"><time>2026-09-01T15:00:40Z</time></trkpt><trkpt lat="59.2552757263" lon="30.6855654716"><time>2026-09-01T15:00:43Z</time></trkpt><trkpt lat="59.2552757263" lon="30.6855654716"><time>2026-09-01T15:00:45Z</time></trkpt><trkpt lat="59.2552757263" lon="30.6855440140"><time>2026-09-01T15:00:48Z</time></trkpt><trkpt lat="59.2552757263" lon="30.6856083870"><time>2026-09-01T15:00:50Z</time></trkpt><trkpt lat="59.2552113533" lon="30.6856727600"><time>2026-09-01T15:00:53Z</time></trkpt><trkpt lat="59.2551684380" lon="30.6856942177"><time>2026-09-01T15:00:55Z</time></trkpt><trkpt lat="59.2552542686" lon="30.6856083870"><time>2026-09-01T15:00:58Z</time></trkpt><trkpt lat="59.2552757263" lon="30.6855010986"><time>2026-09-01T15:01:00Z</time></trkpt><trkpt lat="59.2552757263" lon="30.6855225563"><time>2026-09-01T15:01:03Z</time></trkpt><trkpt lat="59.2552328110" lon="30.6856083870"><time>2026-09-01T15:01:05Z</time></trkpt><trkpt lat="59.2551684380" lon="30.6856513023"><time>2026-09-01T15:01:08Z</time></trkpt><trkpt lat="59.2552113533" lon="30.6855869293"><time>2026-09-01T15:01:10Z</time></trkpt><trkpt lat="59.2552757263" lon="30.6855440140"><time>2026-09-01T15:01:13Z</time></trkpt><trkpt lat="59.2552971840" lon="30.6855440140"><time>2026-09-01T15:01:15Z</time></trkpt><trkpt lat="59.2552757263" lon="30.6855654716"><time>2026-09-01T15:01:18Z</time></trkpt><trkpt lat="59.2552328110" lon="30.6856298447"><time>2026-09-01T15:01:20Z</time></trkpt><trkpt lat="59.2551898956" lon="30.6856513023"><time>2026-09-01T15:01:23Z</time></trkpt><trkpt lat="59.2551684380" lon="30.6856727600"><time>2026-09-01T15:01:25Z</time></trkpt><trkpt lat="59.2552113533" lon="30.6856298447"><time>2026-09-01T15:01:28Z</time></trkpt><trkpt lat="59.2552757263" lon="30.6855654716"><time>2026-09-01T15:01:30Z</time></trkpt><trkpt lat="59.2552757263" lon="30.6855654716"><time>2026-09-01T15:01:33Z</time></trkpt><trkpt lat="59.2552757263" lon="30.6855654716"><time>2026-09-01T15:01:35Z</time></trkpt><trkpt lat="59.2552113533" lon="30.6856513023"><time>2026-09-01T15:01:38Z</time></trkpt><trkpt lat="59.2552328110" lon="30.6856083870"><time>2026-09-01T15:01:40Z</time></trkpt><trkpt lat="59.2552757263" lon="30.6855869293"><time>2026-09-01T15:01:43Z</time></trkpt><trkpt lat="59.2552757263" lon="30.6855869293"><time>2026-09-01T15:01:45Z</time></trkpt><trkpt lat="59.2552757263" lon="30.6855869293"><time>2026-09-01T15:01:48Z</time></trkpt><trkpt lat="59.2552757263" lon="30.6855869293"><time>2026-09-01T15:01:50Z</time></trkpt><trkpt lat="59.2552757263" lon="30.6855869293"><time>2026-09-01T15:01:53Z</time></trkpt><trkpt lat="59.2552757263" lon="30.6855869293"><time>2026-09-01T15:01:55Z</time></trkpt><trkpt lat="59.2552757263" lon="30.6855869293"><time>2026-09-01T15:01:58Z</time></trkpt><trkpt lat="59.2552757263" lon="30.6855869293"><time>2026-09-01T15:02:00Z</time></trkpt><trkpt lat="59.2552757263" lon="30.6855869293"><time>2026-09-01T15:02:03Z</time></trkpt><trkpt lat="59.2552757263" lon="30.6855869293"><time>2026-09-01T15:02:05Z</time></trkpt><trkpt lat="59.2552757263" lon="30.6855869293"><time>2026-09-01T15:02:08Z</time></trkpt><trkpt lat="59.2552757263" lon="30.6855869293"><time>2026-09-01T15:02:10Z</time></trkpt><trkpt lat="59.2552757263" lon="30.6855869293"><time>2026-09-01T15:02:13Z</time></trkpt><trkpt lat="59.2552757263" lon="30.6856083870"><time>2026-09-01T15:02:15Z</time></trkpt><trkpt lat="59.2552757263" lon="30.6856083870"><time>2026-09-01T15:02:18Z</time></trkpt><trkpt lat="59.2552757263" lon="30.6856083870"><time>2026-09-01T15:02:20Z</time></trkpt><trkpt lat="59.2552757263" lon="30.6856083870"><time>2026-09-01T15:02:23Z</time></trkpt><trkpt lat="59.2552757263" lon="30.6856083870"><time>2026-09-01T15:02:25Z</time></trkpt><trkpt lat="59.2552757263" lon="30.6856083870"><time>2026-09-01T15:02:28Z</time></trkpt><trkpt lat="59.2552757263" lon="30.6856083870"><time>2026-09-01T15:02:30Z</time></trkpt><trkpt lat="59.2552757263" lon="30.6856083870"><time>2026-09-01T15:02:33Z</time></trkpt><trkpt lat="59.2552757263" lon="30.6856083870"><time>2026-09-01T15:02:35Z</time></trkpt><trkpt lat="59.2552757263" lon="30.6856083870"><time>2026-09-01T15:02:38Z</time></trkpt><trkpt lat="59.2552757263" lon="30.6856083870"><time>2026-09-01T15:02:40Z</time></trkpt><trkpt lat="59.2552542686" lon="30.6856083870"><time>2026-09-01T15:02:43Z</time></trkpt><trkpt lat="59.2552542686" lon="30.6856083870"><time>2026-09-01T15:02:45Z</time></trkpt><trkpt lat="59.2552113533" lon="30.6856513023"><time>2026-09-01T15:02:48Z</time></trkpt><trkpt lat="59.2551898956" lon="30.6856727600"><time>2026-09-01T15:02:50Z</time></trkpt><trkpt lat="59.2551898956" lon="30.6856727600"><time>2026-09-01T15:02:53Z</time></trkpt><trkpt lat="59.2551898956" lon="30.6856727600"><time>2026-09-01T15:02:55Z</time></trkpt><trkpt lat="59.2551898956" lon="30.6856727600"><time>2026-09-01T15:02:58Z</time></trkpt><trkpt lat="59.2551898956" lon="30.6856727600"><time>2026-09-01T15:03:00Z</time></trkpt><trkpt lat="59.2551898956" lon="30.6856727600"><time>2026-09-01T15:03:03Z</time></trkpt><trkpt lat="59.2551898956" lon="30.6856727600"><time>2026-09-01T15:03:05Z</time></trkpt><trkpt lat="59.2551898956" lon="30.6856727600"><time>2026-09-01T15:03:08Z</time></trkpt><trkpt lat="59.2551898956" lon="30.6856727600"><time>2026-09-01T15:03:10Z</time></trkpt><trkpt lat="59.2551898956" lon="30.6856727600"><time>2026-09-01T15:03:13Z</time></trkpt><trkpt lat="59.2551898956" lon="30.6856727600"><time>2026-09-01T15:03:15Z</time></trkpt><trkpt lat="59.2551898956" lon="30.6856727600"><time>2026-09-01T15:03:18Z</time></trkpt><trkpt lat="59.2551898956" lon="30.6856727600"><time>2026-09-01T15:03:20Z</time></trkpt><trkpt lat="59.2551898956" lon="30.6856727600"><time>2026-09-01T15:03:23Z</time></trkpt><trkpt lat="59.2551898956" lon="30.6856727600"><time>2026-09-01T15:03:25Z</time></trkpt><trkpt lat="59.2551898956" lon="30.6856727600"><time>2026-09-01T15:03:28Z</time></trkpt><trkpt lat="59.2551898956" lon="30.6856727600"><time>2026-09-01T15:03:30Z</time></trkpt><trkpt lat="59.2551898956" lon="30.6856727600"><time>2026-09-01T15:03:33Z</time></trkpt><trkpt lat="59.2551898956" lon="30.6856727600"><time>2026-09-01T15:03:35Z</time></trkpt><trkpt lat="59.2551898956" lon="30.6856727600"><time>2026-09-01T15:03:38Z</time></trkpt><trkpt lat="59.2551898956" lon="30.6856727600"><time>2026-09-01T15:03:40Z</time></trkpt><trkpt lat="59.2551898956" lon="30.6856727600"><time>2026-09-01T15:03:43Z</time></trkpt><trkpt lat="59.2551898956" lon="30.6856727600"><time>2026-09-01T15:03:45Z</time></trkpt><trkpt lat="59.2551898956" lon="30.6856727600"><time>2026-09-01T15:03:48Z</time></trkpt><trkpt lat="59.2551898956" lon="30.6856727600"><time>2026-09-01T15:03:50Z</time></trkpt><trkpt lat="59.2551898956" lon="30.6856727600"><time>2026-09-01T15:03:53Z</time></trkpt><trkpt lat="59.2551898956" lon="30.6856727600"><time>2026-09-01T15:03:55Z</time></trkpt><trkpt lat="59.2551898956" lon="30.6856727600"><time>2026-09-01T15:03:58Z</time></trkpt><trkpt lat="59.2551898956" lon="30.6856727600"><time>2026-09-01T15:04:00Z</time></trkpt><trkpt lat="59.2551898956" lon="30.6856727600"><time>2026-09-01T15:04:03Z</time></trkpt><trkpt lat="59.2551898956" lon="30.6856727600"><time>2026-09-01T15:04:05Z</time></trkpt><trkpt lat="59.2551898956" lon="30.6856727600"><time>2026-09-01T15:04:08Z</time></trkpt><trkpt lat="59.2551898956" lon="30.6856727600"><time>2026-09-01T15:04:10Z</time></trkpt><trkpt lat="59.2551898956" lon="30.6856513023"><time>2026-09-01T15:04:13Z</time></trkpt><trkpt lat="59.2551898956" lon="30.6856513023"><time>2026-09-01T15:04:15Z</time></trkpt><trkpt lat="59.2551898956" lon="30.6856513023"><time>2026-09-01T15:04:18Z</time></trkpt><trkpt lat="59.2551898956" lon="30.6856513023"><time>2026-09-01T15:04:20Z</time></trkpt><trkpt lat="59.2551898956" lon="30.6856513023"><time>2026-09-01T15:04:23Z</time></trkpt><trkpt lat="59.2551898956" lon="30.6856513023"><time>2026-09-01T15:04:25Z</time></trkpt><trkpt lat="59.2551898956" lon="30.6856513023"><time>2026-09-01T15:04:28Z</time></trkpt><trkpt lat="59.2551898956" lon="30.6856513023"><time>2026-09-01T15:04:30Z</time></trkpt><trkpt lat="59.2551898956" lon="30.6856513023"><time>2026-09-01T15:04:33Z</time></trkpt><trkpt lat="59.2551898956" lon="30.6856513023"><time>2026-09-01T15:04:35Z</time></trkpt><trkpt lat="59.2551898956" lon="30.6856513023"><time>2026-09-01T15:04:38Z</time></trkpt><trkpt lat="59.2551898956" lon="30.6856513023"><time>2026-09-01T15:04:40Z</time></trkpt><trkpt lat="59.2551898956" lon="30.6856513023"><time>2026-09-01T15:04:43Z</time></trkpt><trkpt lat="59.2551898956" lon="30.6856513023"><time>2026-09-01T15:04:45Z</time></trkpt><trkpt lat="59.2551898956" lon="30.6856513023"><time>2026-09-01T15:04:48Z</time></trkpt><trkpt lat="59.2551898956" lon="30.6856513023"><time>2026-09-01T15:04:50Z</time></trkpt><trkpt lat="59.2551898956" lon="30.6856513023"><time>2026-09-01T15:04:53Z</time></trkpt><trkpt lat="59.2551898956" lon="30.6856513023"><time>2026-09-01T15:04:55Z</time></trkpt><trkpt lat="59.2551898956" lon="30.6856513023"><time>2026-09-01T15:04:58Z</time></trkpt><trkpt lat="59.2551898956" lon="30.6856513023"><time>2026-09-01T15:05:00Z</time></trkpt><trkpt lat="59.2551898956" lon="30.6856513023"><time>2026-09-01T15:05:03Z</time></trkpt><trkpt lat="59.2551898956" lon="30.6856513023"><time>2026-09-01T15:05:05Z</time></trkpt><trkpt lat="59.2551898956" lon="30.6856513023"><time>2026-09-01T15:05:08Z</time></trkpt><trkpt lat="59.2551898956" lon="30.6856513023"><time>2026-09-01T15:05:10Z</time></trkpt><trkpt lat="59.2551898956" lon="30.6856513023"><time>2026-09-01T15:05:13Z</time></trkpt><trkpt lat="59.2551898956" lon="30.6856513023"><time>2026-09-01T15:05:15Z</time></trkpt><trkpt lat="59.2551898956" lon="30.6856513023"><time>2026-09-01T15:05:18Z</time></trkpt><trkpt lat="59.2551898956" lon="30.6856513023"><time>2026-09-01T15:05:20Z</time></trkpt><trkpt lat="59.2551898956" lon="30.6856513023"><time>2026-09-01T15:05:23Z</time></trkpt><trkpt lat="59.2551898956" lon="30.6856513023"><time>2026-09-01T15:05:25Z</time></trkpt><trkpt lat="59.2551898956" lon="30.6856513023"><time>2026-09-01T15:05:28Z</time></trkpt><trkpt lat="59.2551898956" lon="30.6856513023"><time>2026-09-01T15:05:30Z</time></trkpt><trkpt lat="59.2551898956" lon="30.6856513023"><time>2026-09-01T15:05:33Z</time></trkpt><trkpt lat="59.2551898956" lon="30.6856513023"><time>2026-09-01T15:05:35Z</time></trkpt><trkpt lat="59.2551898956" lon="30.6856513023"><time>2026-09-01T15:05:38Z</time></trkpt><trkpt lat="59.2551898956" lon="30.6856513023"><time>2026-09-01T15:05:40Z</time></trkpt><trkpt lat="59.2551898956" lon="30.6856513023"><time>2026-09-01T15:05:43Z</time></trkpt><trkpt lat="59.2551898956" lon="30.6856513023"><time>2026-09-01T15:05:45Z</time></trkpt><trkpt lat="59.2551898956" lon="30.6856513023"><time>2026-09-01T15:05:48Z</time></trkpt><trkpt lat="59.2551898956" lon="30.6856513023"><time>2026-09-01T15:05:50Z</time></trkpt><trkpt lat="59.2551898956" lon="30.6856513023"><time>2026-09-01T15:05:53Z</time></trkpt><trkpt lat="59.2551898956" lon="30.6856513023"><time>2026-09-01T15:05:55Z</time></trkpt><trkpt lat="59.2551898956" lon="30.6856513023"><time>2026-09-01T15:05:58Z</time></trkpt><trkpt lat="59.2551898956" lon="30.6856513023"><time>2026-09-01T15:06:00Z</time></trkpt><trkpt lat="59.2551898956" lon="30.6856513023"><time>2026-09-01T15:06:03Z</time></trkpt><trkpt lat="59.2551898956" lon="30.6856513023"><time>2026-09-01T15:06:05Z</time></trkpt><trkpt lat="59.2551898956" lon="30.6856513023"><time>2026-09-01T15:06:08Z</time></trkpt><trkpt lat="59.2551898956" lon="30.6856513023"><time>2026-09-01T15:06:10Z</time></trkpt><trkpt lat="59.2551898956" lon="30.6856513023"><time>2026-09-01T15:06:13Z</time></trkpt><trkpt lat="59.2551898956" lon="30.6856513023"><time>2026-09-01T15:06:15Z</time></trkpt><trkpt lat="59.2551898956" lon="30.6856513023"><time>2026-09-01T15:06:18Z</time></trkpt><trkpt lat="59.2551898956" lon="30.6856513023"><time>2026-09-01T15:06:20Z</time></trkpt><trkpt lat="59.2551898956" lon="30.6856513023"><time>2026-09-01T15:06:23Z</time></trkpt><trkpt lat="59.2551898956" lon="30.6856513023"><time>2026-09-01T15:06:28Z</time></trkpt><trkpt lat="59.2551898956" lon="30.6856513023"><time>2026-09-01T15:06:30Z</time></trkpt><trkpt lat="59.2551898956" lon="30.6856513023"><time>2026-09-01T15:06:33Z</time></trkpt><trkpt lat="59.2551898956" lon="30.6856513023"><time>2026-09-01T15:06:35Z</time></trkpt><trkpt lat="59.2551898956" lon="30.6856513023"><time>2026-09-01T15:06:38Z</time></trkpt><trkpt lat="59.2551898956" lon="30.6856513023"><time>2026-09-01T15:06:40Z</time></trkpt><trkpt lat="59.2551898956" lon="30.6856513023"><time>2026-09-01T15:06:43Z</time></trkpt><trkpt lat="59.2551898956" lon="30.6856513023"><time>2026-09-01T15:06:45Z</time></trkpt><trkpt lat="59.2551898956" lon="30.6856513023"><time>2026-09-01T15:06:48Z</time></trkpt><trkpt lat="59.2551898956" lon="30.6856513023"><time>2026-09-01T15:06:50Z</time></trkpt><trkpt lat="59.2551898956" lon="30.6856513023"><time>2026-09-01T15:06:53Z</time></trkpt><trkpt lat="59.2551898956" lon="30.6856513023"><time>2026-09-01T15:06:55Z</time></trkpt><trkpt lat="59.2551898956" lon="30.6856513023"><time>2026-09-01T15:06:58Z</time></trkpt><trkpt lat="59.2551898956" lon="30.6856513023"><time>2026-09-01T15:07:00Z</time></trkpt><trkpt lat="59.2551898956" lon="30.6856513023"><time>2026-09-01T15:07:03Z</time></trkpt><trkpt lat="59.2551898956" lon="30.6856513023"><time>2026-09-01T15:07:05Z</time></trkpt><trkpt lat="59.2551898956" lon="30.6856513023"><time>2026-09-01T15:07:08Z</time></trkpt><trkpt lat="59.2551898956" lon="30.6856513023"><time>2026-09-01T15:07:10Z</time></trkpt><trkpt lat="59.2551898956" lon="30.6856513023"><time>2026-09-01T15:07:13Z</time></trkpt><trkpt lat="59.2551898956" lon="30.6856513023"><time>2026-09-01T15:07:15Z</time></trkpt><trkpt lat="59.2551898956" lon="30.6856513023"><time>2026-09-01T15:07:18Z</time></trkpt><trkpt lat="59.2551898956" lon="30.6856513023"><time>2026-09-01T15:07:20Z</time></trkpt><trkpt lat="59.2551898956" lon="30.6856513023"><time>2026-09-01T15:07:23Z</time></trkpt><trkpt lat="59.2551898956" lon="30.6856513023"><time>2026-09-01T15:07:25Z</time></trkpt><trkpt lat="59.2551898956" lon="30.6856513023"><time>2026-09-01T15:07:28Z</time></trkpt><trkpt lat="59.2551898956" lon="30.6856513023"><time>2026-09-01T15:07:30Z</time></trkpt><trkpt lat="59.2551898956" lon="30.6856727600"><time>2026-09-01T15:07:33Z</time></trkpt><trkpt lat="59.2551898956" lon="30.6856727600"><time>2026-09-01T15:07:35Z</time></trkpt><trkpt lat="59.2551898956" lon="30.6856727600"><time>2026-09-01T15:07:38Z</time></trkpt><trkpt lat="59.2551898956" lon="30.6856727600"><time>2026-09-01T15:07:40Z</time></trkpt><trkpt lat="59.2551898956" lon="30.6856727600"><time>2026-09-01T15:07:43Z</time></trkpt><trkpt lat="59.2551898956" lon="30.6856727600"><time>2026-09-01T15:07:45Z</time></trkpt><trkpt lat="59.2551898956" lon="30.6856727600"><time>2026-09-01T15:07:48Z</time></trkpt><trkpt lat="59.2551898956" lon="30.6856727600"><time>2026-09-01T15:07:50Z</time></trkpt><trkpt lat="59.2551898956" lon="30.6856727600"><time>2026-09-01T15:07:53Z</time></trkpt><trkpt lat="59.2551898956" lon="30.6856727600"><time>2026-09-01T15:07:55Z</time></trkpt><trkpt lat="59.2551898956" lon="30.6856727600"><time>2026-09-01T15:07:58Z</time></trkpt><trkpt lat="59.2551898956" lon="30.6856727600"><time>2026-09-01T15:08:00Z</time></trkpt><trkpt lat="59.2551898956" lon="30.6856727600"><time>2026-09-01T15:08:03Z</time></trkpt><trkpt lat="59.2551898956" lon="30.6856727600"><time>2026-09-01T15:08:05Z</time></trkpt><trkpt lat="59.2551898956" lon="30.6856727600"><time>2026-09-01T15:08:08Z</time></trkpt><trkpt lat="59.2551898956" lon="30.6856727600"><time>2026-09-01T15:08:10Z</time></trkpt><trkpt lat="59.2551898956" lon="30.6856727600"><time>2026-09-01T15:08:13Z</time></trkpt><trkpt lat="59.2551898956" lon="30.6856727600"><time>2026-09-01T15:08:15Z</time></trkpt><trkpt lat="59.2551898956" lon="30.6856727600"><time>2026-09-01T15:08:18Z</time></trkpt><trkpt lat="59.2551898956" lon="30.6856727600"><time>2026-09-01T15:08:20Z</time></trkpt><trkpt lat="59.2551898956" lon="30.6856727600"><time>2026-09-01T15:08:23Z</time></trkpt><trkpt lat="59.2551898956" lon="30.6856727600"><time>2026-09-01T15:08:25Z</time></trkpt><trkpt lat="59.2551898956" lon="30.6856727600"><time>2026-09-01T15:08:28Z</time></trkpt><trkpt lat="59.2551898956" lon="30.6856727600"><time>2026-09-01T15:08:30Z</time></trkpt><trkpt lat="59.2551898956" lon="30.6856727600"><time>2026-09-01T15:08:33Z</time></trkpt><trkpt lat="59.2551898956" lon="30.6856727600"><time>2026-09-01T15:08:35Z</time></trkpt><trkpt lat="59.2551898956" lon="30.6856727600"><time>2026-09-01T15:08:38Z</time></trkpt><trkpt lat="59.2551898956" lon="30.6856727600"><time>2026-09-01T15:08:40Z</time></trkpt><trkpt lat="59.2551898956" lon="30.6856727600"><time>2026-09-01T15:08:43Z</time></trkpt><trkpt lat="59.2551898956" lon="30.6856727600"><time>2026-09-01T15:08:45Z</time></trkpt><trkpt lat="59.2551898956" lon="30.6856727600"><time>2026-09-01T15:08:48Z</time></trkpt><trkpt lat="59.2551898956" lon="30.6856727600"><time>2026-09-01T15:08:50Z</time></trkpt><trkpt lat="59.2551898956" lon="30.6856727600"><time>2026-09-01T15:08:53Z</time></trkpt><trkpt lat="59.2551898956" lon="30.6856727600"><time>2026-09-01T15:08:55Z</time></trkpt><trkpt lat="59.2551898956" lon="30.6856727600"><time>2026-09-01T15:08:58Z</time></trkpt><trkpt lat="59.2551898956" lon="30.6856727600"><time>2026-09-01T15:09:00Z</time></trkpt><trkpt lat="59.2551898956" lon="30.6856727600"><time>2026-09-01T15:09:03Z</time></trkpt><trkpt lat="59.2551898956" lon="30.6856727600"><time>2026-09-01T15:09:05Z</time></trkpt><trkpt lat="59.2551898956" lon="30.6856727600"><time>2026-09-01T15:09:08Z</time></trkpt><trkpt lat="59.2551898956" lon="30.6856727600"><time>2026-09-01T15:09:10Z</time></trkpt><trkpt lat="59.2551898956" lon="30.6856727600"><time>2026-09-01T15:09:13Z</time></trkpt><trkpt lat="59.2551898956" lon="30.6856727600"><time>2026-09-01T15:09:15Z</time></trkpt><trkpt lat="59.2551898956" lon="30.6856727600"><time>2026-09-01T15:09:18Z</time></trkpt><trkpt lat="59.2551898956" lon="30.6856727600"><time>2026-09-01T15:09:20Z</time></trkpt><trkpt lat="59.2551898956" lon="30.6856727600"><time>2026-09-01T15:09:23Z</time></trkpt><trkpt lat="59.2551898956" lon="30.6856727600"><time>2026-09-01T15:09:25Z</time></trkpt><trkpt lat="59.2551898956" lon="30.6856727600"><time>2026-09-01T15:09:28Z</time></trkpt><trkpt lat="59.2551898956" lon="30.6856727600"><time>2026-09-01T15:09:30Z</time></trkpt><trkpt lat="59.2551898956" lon="30.6856727600"><time>2026-09-01T15:09:33Z</time></trkpt><trkpt lat="59.2551898956" lon="30.6856727600"><time>2026-09-01T15:09:35Z</time></trkpt><trkpt lat="59.2551898956" lon="30.6856727600"><time>2026-09-01T15:09:38Z</time></trkpt><trkpt lat="59.2551898956" lon="30.6856727600"><time>2026-09-01T15:09:40Z</time></trkpt><trkpt lat="59.2551898956" lon="30.6856727600"><time>2026-09-01T15:09:43Z</time></trkpt><trkpt lat="59.2551898956" lon="30.6856727600"><time>2026-09-01T15:09:45Z</time></trkpt><trkpt lat="59.2551898956" lon="30.6856727600"><time>2026-09-01T15:09:48Z</time></trkpt><trkpt lat="59.2551898956" lon="30.6856727600"><time>2026-09-01T15:09:50Z</time></trkpt><trkpt lat="59.2551898956" lon="30.6856727600"><time>2026-09-01T15:09:53Z</time></trkpt><trkpt lat="59.2551898956" lon="30.6856727600"><time>2026-09-01T15:09:55Z</time></trkpt><trkpt lat="59.2551898956" lon="30.6856727600"><time>2026-09-01T15:09:58Z</time></trkpt><trkpt lat="59.2551898956" lon="30.6856727600"><time>2026-09-01T15:10:00Z</time></trkpt><trkpt lat="59.2551898956" lon="30.6856727600"><time>2026-09-01T15:10:03Z</time></trkpt><trkpt lat="59.2551898956" lon="30.6856727600"><time>2026-09-01T15:10:05Z</time></trkpt><trkpt lat="59.2551898956" lon="30.6856727600"><time>2026-09-01T15:10:08Z</time></trkpt><trkpt lat="59.2551898956" lon="30.6856727600"><time>2026-09-01T15:10:10Z</time></trkpt><trkpt lat="59.2551898956" lon="30.6856727600"><time>2026-09-01T15:10:13Z</time></trkpt><trkpt lat="59.2551898956" lon="30.6856727600"><time>2026-09-01T15:10:15Z</time></trkpt><trkpt lat="59.2552113533" lon="30.6856727600"><time>2026-09-01T15:10:18Z</time></trkpt><trkpt lat="59.2552113533" lon="30.6856727600"><time>2026-09-01T15:10:20Z</time></trkpt><trkpt lat="59.2552113533" lon="30.6856727600"><time>2026-09-01T15:10:23Z</time></trkpt><trkpt lat="59.2552113533" lon="30.6856727600"><time>2026-09-01T15:10:25Z</time></trkpt><trkpt lat="59.2552113533" lon="30.6856727600"><time>2026-09-01T15:10:28Z</time></trkpt><trkpt lat="59.2552113533" lon="30.6856727600"><time>2026-09-01T15:10:30Z</time></trkpt><trkpt lat="59.2552113533" lon="30.6856727600"><time>2026-09-01T15:10:33Z</time></trkpt><trkpt lat="59.2552113533" lon="30.6856727600"><time>2026-09-01T15:10:35Z</time></trkpt><trkpt lat="59.2552113533" lon="30.6856727600"><time>2026-09-01T15:10:38Z</time></trkpt><trkpt lat="59.2552113533" lon="30.6856727600"><time>2026-09-01T15:10:40Z</time></trkpt><trkpt lat="59.2552113533" lon="30.6856727600"><time>2026-09-01T15:10:43Z</time></trkpt><trkpt lat="59.2551898956" lon="30.6856727600"><time>2026-09-01T15:10:45Z</time></trkpt><trkpt lat="59.2551898956" lon="30.6856727600"><time>2026-09-01T15:10:48Z</time></trkpt><trkpt lat="59.2551898956" lon="30.6856727600"><time>2026-09-01T15:10:50Z</time></trkpt><trkpt lat="59.2551898956" lon="30.6856727600"><time>2026-09-01T15:10:53Z</time></trkpt><trkpt lat="59.2551898956" lon="30.6856727600"><time>2026-09-01T15:10:55Z</time></trkpt><trkpt lat="59.2551898956" lon="30.6856727600"><time>2026-09-01T15:10:58Z</time></trkpt><trkpt lat="59.2551898956" lon="30.6856727600"><time>2026-09-01T15:11:00Z</time></trkpt><trkpt lat="59.2551898956" lon="30.6856727600"><time>2026-09-01T15:11:03Z</time></trkpt><trkpt lat="59.2551898956" lon="30.6856727600"><time>2026-09-01T15:11:05Z</time></trkpt><trkpt lat="59.2551898956" lon="30.6856727600"><time>2026-09-01T15:11:08Z</time></trkpt><trkpt lat="59.2551898956" lon="30.6856727600"><time>2026-09-01T15:11:10Z</time></trkpt><trkpt lat="59.2551898956" lon="30.6856727600"><time>2026-09-01T15:11:13Z</time></trkpt><trkpt lat="59.2551898956" lon="30.6856727600"><time>2026-09-01T15:11:15Z</time></trkpt><trkpt lat="59.2551898956" lon="30.6856727600"><time>2026-09-01T15:11:18Z</time></trkpt><trkpt lat="59.2551898956" lon="30.6856727600"><time>2026-09-01T15:11:20Z</time></trkpt><trkpt lat="59.2551898956" lon="30.6856727600"><time>2026-09-01T15:11:23Z</time></trkpt><trkpt lat="59.2551898956" lon="30.6856727600"><time>2026-09-01T15:11:25Z</time></trkpt><trkpt lat="59.2551898956" lon="30.6856727600"><time>2026-09-01T15:11:28Z</time></trkpt><trkpt lat="59.2551898956" lon="30.6856727600"><time>2026-09-01T15:11:30Z</time></trkpt><trkpt lat="59.2551898956" lon="30.6856727600"><time>2026-09-01T15:11:33Z</time></trkpt><trkpt lat="59.2551898956" lon="30.6856727600"><time>2026-09-01T15:11:35Z</time></trkpt><trkpt lat="59.2551898956" lon="30.6856727600"><time>2026-09-01T15:11:38Z</time></trkpt><trkpt lat="59.2551898956" lon="30.6856727600"><time>2026-09-01T15:11:40Z</time></trkpt><trkpt lat="59.2551898956" lon="30.6856727600"><time>2026-09-01T15:11:43Z</time></trkpt><trkpt lat="59.2551898956" lon="30.6856727600"><time>2026-09-01T15:11:45Z</time></trkpt><trkpt lat="59.2551898956" lon="30.6856727600"><time>2026-09-01T15:11:48Z</time></trkpt><trkpt lat="59.2551898956" lon="30.6856727600"><time>2026-09-01T15:11:50Z</time></trkpt><trkpt lat="59.2551898956" lon="30.6856727600"><time>2026-09-01T15:11:53Z</time></trkpt><trkpt lat="59.2551898956" lon="30.6856727600"><time>2026-09-01T15:11:55Z</time></trkpt><trkpt lat="59.2551898956" lon="30.6856727600"><time>2026-09-01T15:11:58Z</time></trkpt><trkpt lat="59.2551898956" lon="30.6856727600"><time>2026-09-01T15:12:00Z</time></trkpt><trkpt lat="59.2551898956" lon="30.6856727600"><time>2026-09-01T15:12:03Z</time></trkpt><trkpt lat="59.2551898956" lon="30.6856727600"><time>2026-09-01T15:12:05Z</time></trkpt><trkpt lat="59.2551898956" lon="30.6856727600"><time>2026-09-01T15:12:08Z</time></trkpt><trkpt lat="59.2551898956" lon="30.6856727600"><time>2026-09-01T15:12:10Z</time></trkpt><trkpt lat="59.2551898956" lon="30.6856727600"><time>2026-09-01T15:12:13Z</time></trkpt><trkpt lat="59.2551898956" lon="30.6856727600"><time>2026-09-01T15:12:15Z</time></trkpt><trkpt lat="59.2551898956" lon="30.6856727600"><time>2026-09-01T15:12:18Z</time></trkpt><trkpt lat="59.2551898956" lon="30.6856727600"><time>2026-09-01T15:12:20Z</time></trkpt><trkpt lat="59.2551898956" lon="30.6856727600"><time>2026-09-01T15:12:23Z</time></trkpt><trkpt lat="59.2551898956" lon="30.6856727600"><time>2026-09-01T15:12:25Z</time></trkpt><trkpt lat="59.2551898956" lon="30.6856727600"><time>2026-09-01T15:12:28Z</time></trkpt><trkpt lat="59.2551898956" lon="30.6856727600"><time>2026-09-01T15:12:30Z</time></trkpt><trkpt lat="59.2551898956" lon="30.6856727600"><time>2026-09-01T15:12:33Z</time></trkpt><trkpt lat="59.2551898956" lon="30.6856727600"><time>2026-09-01T15:12:35Z</time></trkpt><trkpt lat="59.2551898956" lon="30.6856727600"><time>2026-09-01T15:12:38Z</time></trkpt><trkpt lat="59.2551898956" lon="30.6856727600"><time>2026-09-01T15:12:40Z</time></trkpt><trkpt lat="59.2551898956" lon="30.6856727600"><time>2026-09-01T15:12:43Z</time></trkpt><trkpt lat="59.2551898956" lon="30.6856727600"><time>2026-09-01T15:12:45Z</time></trkpt><trkpt lat="59.2551898956" lon="30.6856727600"><time>2026-09-01T15:12:48Z</time></trkpt><trkpt lat="59.2551898956" lon="30.6856727600"><time>2026-09-01T15:12:50Z</time></trkpt><trkpt lat="59.2551898956" lon="30.6856727600"><time>2026-09-01T15:12:53Z</time></trkpt><trkpt lat="59.2551898956" lon="30.6856727600"><time>2026-09-01T15:12:55Z</time></trkpt><trkpt lat="59.2551898956" lon="30.6856727600"><time>2026-09-01T15:12:58Z</time></trkpt><trkpt lat="59.2551898956" lon="30.6856727600"><time>2026-09-01T15:13:00Z</time></trkpt><trkpt lat="59.2551898956" lon="30.6856727600"><time>2026-09-01T15:13:03Z</time></trkpt><trkpt lat="59.2551898956" lon="30.6856727600"><time>2026-09-01T15:13:05Z</time></trkpt><trkpt lat="59.2551898956" lon="30.6856727600"><time>2026-09-01T15:13:08Z</time></trkpt><trkpt lat="59.2551898956" lon="30.6856727600"><time>2026-09-01T15:13:10Z</time></trkpt><trkpt lat="59.2551898956" lon="30.6856727600"><time>2026-09-01T15:13:13Z</time></trkpt><trkpt lat="59.2551898956" lon="30.6856727600"><time>2026-09-01T15:13:15Z</time></trkpt><trkpt lat="59.2551898956" lon="30.6856727600"><time>2026-09-01T15:13:18Z</time></trkpt><trkpt lat="59.2551898956" lon="30.6856727600"><time>2026-09-01T15:13:20Z</time></trkpt><trkpt lat="59.2551898956" lon="30.6856727600"><time>2026-09-01T15:13:23Z</time></trkpt><trkpt lat="59.2551898956" lon="30.6856727600"><time>2026-09-01T15:13:25Z</time></trkpt><trkpt lat="59.2551898956" lon="30.6856727600"><time>2026-09-01T15:13:28Z</time></trkpt><trkpt lat="59.2551898956" lon="30.6856727600"><time>2026-09-01T15:13:30Z</time></trkpt><trkpt lat="59.2551898956" lon="30.6856727600"><time>2026-09-01T15:13:33Z</time></trkpt><trkpt lat="59.2551898956" lon="30.6856727600"><time>2026-09-01T15:13:35Z</time></trkpt><trkpt lat="59.2551898956" lon="30.6856727600"><time>2026-09-01T15:13:38Z</time></trkpt><trkpt lat="59.2551898956" lon="30.6857156754"><time>2026-09-01T15:13:40Z</time></trkpt><trkpt lat="59.2551898956" lon="30.6857156754"><time>2026-09-01T15:13:43Z</time></trkpt><trkpt lat="59.2551898956" lon="30.6857371330"><time>2026-09-01T15:13:45Z</time></trkpt><trkpt lat="59.2551898956" lon="30.6857371330"><time>2026-09-01T15:13:48Z</time></trkpt><trkpt lat="59.2552113533" lon="30.6857156754"><time>2026-09-01T15:13:50Z</time></trkpt><trkpt lat="59.2552113533" lon="30.6857156754"><time>2026-09-01T15:13:53Z</time></trkpt><trkpt lat="59.2552113533" lon="30.6857156754"><time>2026-09-01T15:13:55Z</time></trkpt><trkpt lat="59.2552113533" lon="30.6857156754"><time>2026-09-01T15:13:58Z</time></trkpt><trkpt lat="59.2552113533" lon="30.6857156754"><time>2026-09-01T15:14:00Z</time></trkpt><trkpt lat="59.2552113533" lon="30.6857156754"><time>2026-09-01T15:14:03Z</time></trkpt><trkpt lat="59.2552113533" lon="30.6857156754"><time>2026-09-01T15:14:05Z</time></trkpt><trkpt lat="59.2552113533" lon="30.6857156754"><time>2026-09-01T15:14:08Z</time></trkpt><trkpt lat="59.2552113533" lon="30.6857156754"><time>2026-09-01T15:14:10Z</time></trkpt><trkpt lat="59.2551898956" lon="30.6857156754"><time>2026-09-01T15:14:13Z</time></trkpt><trkpt lat="59.2551684380" lon="30.6856942177"><time>2026-09-01T15:14:15Z</time></trkpt><trkpt lat="59.2552113533" lon="30.6857156754"><time>2026-09-01T15:14:18Z</time></trkpt><trkpt lat="59.2552113533" lon="30.6857371330"><time>2026-09-01T15:14:20Z</time></trkpt><trkpt lat="59.2552113533" lon="30.6857371330"><time>2026-09-01T15:14:23Z</time></trkpt><trkpt lat="59.2552113533" lon="30.6857371330"><time>2026-09-01T15:14:25Z</time></trkpt><trkpt lat="59.2552113533" lon="30.6857371330"><time>2026-09-01T15:14:28Z</time></trkpt><trkpt lat="59.2552113533" lon="30.6857371330"><time>2026-09-01T15:14:30Z</time></trkpt><trkpt lat="59.2552113533" lon="30.6857371330"><time>2026-09-01T15:14:33Z</time></trkpt><trkpt lat="59.2552113533" lon="30.6857371330"><time>2026-09-01T15:14:35Z</time></trkpt><trkpt lat="59.2552113533" lon="30.6857371330"><time>2026-09-01T15:14:38Z</time></trkpt><trkpt lat="59.2552113533" lon="30.6857371330"><time>2026-09-01T15:14:40Z</time></trkpt><trkpt lat="59.2552113533" lon="30.6857371330"><time>2026-09-01T15:14:43Z</time></trkpt><trkpt lat="59.2552113533" lon="30.6857371330"><time>2026-09-01T15:14:45Z</time></trkpt><trkpt lat="59.2552113533" lon="30.6857371330"><time>2026-09-01T15:14:48Z</time></trkpt><trkpt lat="59.2552113533" lon="30.6857371330"><time>2026-09-01T15:14:50Z</time></trkpt><trkpt lat="59.2552113533" lon="30.6857371330"><time>2026-09-01T15:14:53Z</time></trkpt><trkpt lat="59.2552113533" lon="30.6857371330"><time>2026-09-01T15:14:55Z</time></trkpt><trkpt lat="59.2552113533" lon="30.6857371330"><time>2026-09-01T15:14:58Z</time></trkpt><trkpt lat="59.2552113533" lon="30.6857371330"><time>2026-09-01T15:15:00Z</time></trkpt><trkpt lat="59.2552113533" lon="30.6857371330"><time>2026-09-01T15:15:03Z</time></trkpt><trkpt lat="59.2552113533" lon="30.6857371330"><time>2026-09-01T15:15:05Z</time></trkpt><trkpt lat="59.2552113533" lon="30.6857371330"><time>2026-09-01T15:15:08Z</time></trkpt><trkpt lat="59.2552113533" lon="30.6857371330"><time>2026-09-01T15:15:10Z</time></trkpt><trkpt lat="59.2552328110" lon="30.6857371330"><time>2026-09-01T15:15:13Z</time></trkpt><trkpt lat="59.2552328110" lon="30.6856942177"><time>2026-09-01T15:15:15Z</time></trkpt><trkpt lat="59.2552328110" lon="30.6856513023"><time>2026-09-01T15:15:18Z</time></trkpt><trkpt lat="59.2552113533" lon="30.6856942177"><time>2026-09-01T15:15:20Z</time></trkpt><trkpt lat="59.2551898956" lon="30.6857371330"><time>2026-09-01T15:15:23Z</time></trkpt><trkpt lat="59.2551684380" lon="30.6857585907"><time>2026-09-01T15:15:25Z</time></trkpt><trkpt lat="59.2551684380" lon="30.6857585907"><time>2026-09-01T15:15:28Z</time></trkpt><trkpt lat="59.2551684380" lon="30.6857585907"><time>2026-09-01T15:15:30Z</time></trkpt><trkpt lat="59.2551684380" lon="30.6857585907"><time>2026-09-01T15:15:33Z</time></trkpt><trkpt lat="59.2552113533" lon="30.6857371330"><time>2026-09-01T15:15:35Z</time></trkpt><trkpt lat="59.2552113533" lon="30.6857371330"><time>2026-09-01T15:15:38Z</time></trkpt><trkpt lat="59.2552113533" lon="30.6857371330"><time>2026-09-01T15:15:40Z</time></trkpt><trkpt lat="59.2552113533" lon="30.6857371330"><time>2026-09-01T15:15:43Z</time></trkpt><trkpt lat="59.2552113533" lon="30.6857371330"><time>2026-09-01T15:15:45Z</time></trkpt><trkpt lat="59.2552113533" lon="30.6857371330"><time>2026-09-01T15:15:48Z</time></trkpt><trkpt lat="59.2552113533" lon="30.6857371330"><time>2026-09-01T15:15:50Z</time></trkpt><trkpt lat="59.2552113533" lon="30.6857371330"><time>2026-09-01T15:15:53Z</time></trkpt><trkpt lat="59.2552113533" lon="30.6857371330"><time>2026-09-01T15:15:55Z</time></trkpt><trkpt lat="59.2552113533" lon="30.6857371330"><time>2026-09-01T15:15:58Z</time></trkpt><trkpt lat="59.2552113533" lon="30.6857371330"><time>2026-09-01T15:16:00Z</time></trkpt><trkpt lat="59.2552113533" lon="30.6857371330"><time>2026-09-01T15:16:03Z</time></trkpt><trkpt lat="59.2552113533" lon="30.6857371330"><time>2026-09-01T15:16:05Z</time></trkpt><trkpt lat="59.2552113533" lon="30.6857371330"><time>2026-09-01T15:16:08Z</time></trkpt><trkpt lat="59.2552113533" lon="30.6857371330"><time>2026-09-01T15:16:10Z</time></trkpt><trkpt lat="59.2552113533" lon="30.6857371330"><time>2026-09-01T15:16:13Z</time></trkpt><trkpt lat="59.2552113533" lon="30.6857371330"><time>2026-09-01T15:16:15Z</time></trkpt><trkpt lat="59.2552113533" lon="30.6857371330"><time>2026-09-01T15:16:18Z</time></trkpt><trkpt lat="59.2552113533" lon="30.6857371330"><time>2026-09-01T15:16:20Z</time></trkpt><trkpt lat="59.2552113533" lon="30.6857371330"><time>2026-09-01T15:16:23Z</time></trkpt><trkpt lat="59.2552113533" lon="30.6857371330"><time>2026-09-01T15:16:25Z</time></trkpt><trkpt lat="59.2552113533" lon="30.6857371330"><time>2026-09-01T15:16:28Z</time></trkpt><trkpt lat="59.2552113533" lon="30.6857371330"><time>2026-09-01T15:16:30Z</time></trkpt><trkpt lat="59.2552113533" lon="30.6857371330"><time>2026-09-01T15:16:33Z</time></trkpt><trkpt lat="59.2552113533" lon="30.6857371330"><time>2026-09-01T15:16:35Z</time></trkpt><trkpt lat="59.2552113533" lon="30.6857371330"><time>2026-09-01T15:16:38Z</time></trkpt><trkpt lat="59.2552113533" lon="30.6857371330"><time>2026-09-01T15:16:40Z</time></trkpt><trkpt lat="59.2552113533" lon="30.6857371330"><time>2026-09-01T15:16:43Z</time></trkpt><trkpt lat="59.2552113533" lon="30.6857371330"><time>2026-09-01T15:16:45Z</time></trkpt><trkpt lat="59.2552113533" lon="30.6857371330"><time>2026-09-01T15:16:48Z</time></trkpt><trkpt lat="59.2552113533" lon="30.6857371330"><time>2026-09-01T15:16:50Z</time></trkpt><trkpt lat="59.2552113533" lon="30.6857371330"><time>2026-09-01T15:16:53Z</time></trkpt><trkpt lat="59.2552113533" lon="30.6857371330"><time>2026-09-01T15:16:55Z</time></trkpt><trkpt lat="59.2552113533" lon="30.6857371330"><time>2026-09-01T15:16:58Z</time></trkpt><trkpt lat="59.2552113533" lon="30.6857371330"><time>2026-09-01T15:17:00Z</time></trkpt><trkpt lat="59.2552113533" lon="30.6857371330"><time>2026-09-01T15:17:03Z</time></trkpt><trkpt lat="59.2552113533" lon="30.6857371330"><time>2026-09-01T15:17:05Z</time></trkpt><trkpt lat="59.2552113533" lon="30.6857371330"><time>2026-09-01T15:17:08Z</time></trkpt><trkpt lat="59.2552113533" lon="30.6857371330"><time>2026-09-01T15:17:10Z</time></trkpt><trkpt lat="59.2552113533" lon="30.6857371330"><time>2026-09-01T15:17:13Z</time></trkpt><trkpt lat="59.2552113533" lon="30.6857371330"><time>2026-09-01T15:17:15Z</time></trkpt><trkpt lat="59.2552113533" lon="30.6857371330"><time>2026-09-01T15:17:18Z</time></trkpt><trkpt lat="59.2552113533" lon="30.6857371330"><time>2026-09-01T15:17:20Z</time></trkpt><trkpt lat="59.2552113533" lon="30.6857371330"><time>2026-09-01T15:17:23Z</time></trkpt><trkpt lat="59.2552113533" lon="30.6857371330"><time>2026-09-01T15:17:25Z</time></trkpt><trkpt lat="59.2552113533" lon="30.6857371330"><time>2026-09-01T15:17:28Z</time></trkpt><trkpt lat="59.2552113533" lon="30.6857371330"><time>2026-09-01T15:17:30Z</time></trkpt><trkpt lat="59.2552113533" lon="30.6857371330"><time>2026-09-01T15:17:33Z</time></trkpt><trkpt lat="59.2552113533" lon="30.6857371330"><time>2026-09-01T15:17:35Z</time></trkpt><trkpt lat="59.2552113533" lon="30.6857371330"><time>2026-09-01T15:17:38Z</time></trkpt><trkpt lat="59.2552113533" lon="30.6857371330"><time>2026-09-01T15:17:40Z</time></trkpt><trkpt lat="59.2552113533" lon="30.6857371330"><time>2026-09-01T15:17:43Z</time></trkpt><trkpt lat="59.2552113533" lon="30.6857371330"><time>2026-09-01T15:17:45Z</time></trkpt><trkpt lat="59.2552113533" lon="30.6857371330"><time>2026-09-01T15:17:48Z</time></trkpt><trkpt lat="59.2552113533" lon="30.6857371330"><time>2026-09-01T15:17:50Z</time></trkpt><trkpt lat="59.2552113533" lon="30.6857371330"><time>2026-09-01T15:17:53Z</time></trkpt><trkpt lat="59.2552113533" lon="30.6857371330"><time>2026-09-01T15:17:55Z</time></trkpt><trkpt lat="59.2552113533" lon="30.6857371330"><time>2026-09-01T15:17:58Z</time></trkpt><trkpt lat="59.2552113533" lon="30.6857371330"><time>2026-09-01T15:18:00Z</time></trkpt><trkpt lat="59.2552113533" lon="30.6857585907"><time>2026-09-01T15:18:03Z</time></trkpt><trkpt lat="59.2552113533" lon="30.6857585907"><time>2026-09-01T15:18:05Z</time></trkpt><trkpt lat="59.2552113533" lon="30.6857585907"><time>2026-09-01T15:18:08Z</time></trkpt><trkpt lat="59.2552113533" lon="30.6857585907"><time>2026-09-01T15:18:10Z</time></trkpt><trkpt lat="59.2552113533" lon="30.6857800484"><time>2026-09-01T15:18:13Z</time></trkpt><trkpt lat="59.2551898956" lon="30.6858229637"><time>2026-09-01T15:18:15Z</time></trkpt><trkpt lat="59.2551898956" lon="30.6858229637"><time>2026-09-01T15:18:18Z</time></trkpt><trkpt lat="59.2551898956" lon="30.6858444214"><time>2026-09-01T15:18:20Z</time></trkpt><trkpt lat="59.2552113533" lon="30.6858015060"><time>2026-09-01T15:18:23Z</time></trkpt><trkpt lat="59.2552328110" lon="30.6857585907"><time>2026-09-01T15:18:25Z</time></trkpt><trkpt lat="59.2552328110" lon="30.6857156754"><time>2026-09-01T15:18:28Z</time></trkpt><trkpt lat="59.2552328110" lon="30.6857156754"><time>2026-09-01T15:18:30Z</time></trkpt><trkpt lat="59.2552328110" lon="30.6857585907"><time>2026-09-01T15:18:33Z</time></trkpt><trkpt lat="59.2552328110" lon="30.6857585907"><time>2026-09-01T15:18:35Z</time></trkpt><trkpt lat="59.2552328110" lon="30.6857585907"><time>2026-09-01T15:18:38Z</time></trkpt><trkpt lat="59.2552328110" lon="30.6857585907"><time>2026-09-01T15:18:40Z</time></trkpt><trkpt lat="59.2552113533" lon="30.6858015060"><time>2026-09-01T15:18:43Z</time></trkpt><trkpt lat="59.2552113533" lon="30.6858444214"><time>2026-09-01T15:18:45Z</time></trkpt><trkpt lat="59.2552328110" lon="30.6858015060"><time>2026-09-01T15:18:48Z</time></trkpt><trkpt lat="59.2552113533" lon="30.6857800484"><time>2026-09-01T15:18:50Z</time></trkpt><trkpt lat="59.2552328110" lon="30.6857800484"><time>2026-09-01T15:18:53Z</time></trkpt><trkpt lat="59.2552328110" lon="30.6857585907"><time>2026-09-01T15:18:55Z</time></trkpt><trkpt lat="59.2552328110" lon="30.6857371330"><time>2026-09-01T15:18:58Z</time></trkpt><trkpt lat="59.2552328110" lon="30.6857371330"><time>2026-09-01T15:19:00Z</time></trkpt><trkpt lat="59.2552328110" lon="30.6857371330"><time>2026-09-01T15:19:03Z</time></trkpt><trkpt lat="59.2552328110" lon="30.6857371330"><time>2026-09-01T15:19:05Z</time></trkpt><trkpt lat="59.2552328110" lon="30.6857371330"><time>2026-09-01T15:19:08Z</time></trkpt><trkpt lat="59.2552328110" lon="30.6857371330"><time>2026-09-01T15:19:10Z</time></trkpt><trkpt lat="59.2552328110" lon="30.6857371330"><time>2026-09-01T15:19:13Z</time></trkpt><trkpt lat="59.2552328110" lon="30.6857585907"><time>2026-09-01T15:19:15Z</time></trkpt><trkpt lat="59.2552542686" lon="30.6857156754"><time>2026-09-01T15:19:18Z</time></trkpt><trkpt lat="59.2552542686" lon="30.6857371330"><time>2026-09-01T15:19:20Z</time></trkpt><trkpt lat="59.2552542686" lon="30.6857371330"><time>2026-09-01T15:19:23Z</time></trkpt><trkpt lat="59.2552542686" lon="30.6857371330"><time>2026-09-01T15:19:25Z</time></trkpt><trkpt lat="59.2552542686" lon="30.6857371330"><time>2026-09-01T15:19:28Z</time></trkpt><trkpt lat="59.2552542686" lon="30.6857371330"><time>2026-09-01T15:19:30Z</time></trkpt><trkpt lat="59.2552542686" lon="30.6857371330"><time>2026-09-01T15:19:33Z</time></trkpt><trkpt lat="59.2552542686" lon="30.6857371330"><time>2026-09-01T15:19:35Z</time></trkpt><trkpt lat="59.2552542686" lon="30.6857371330"><time>2026-09-01T15:19:38Z</time></trkpt><trkpt lat="59.2552542686" lon="30.6857371330"><time>2026-09-01T15:19:40Z</time></trkpt><trkpt lat="59.2552542686" lon="30.6857371330"><time>2026-09-01T15:19:43Z</time></trkpt><trkpt lat="59.2552542686" lon="30.6857371330"><time>2026-09-01T15:19:45Z</time></trkpt><trkpt lat="59.2552542686" lon="30.6857371330"><time>2026-09-01T15:19:48Z</time></trkpt><trkpt lat="59.2552542686" lon="30.6857371330"><time>2026-09-01T15:19:50Z</time></trkpt><trkpt lat="59.2552542686" lon="30.6857371330"><time>2026-09-01T15:19:53Z</time></trkpt><trkpt lat="59.2552542686" lon="30.6857371330"><time>2026-09-01T15:19:55Z</time></trkpt><trkpt lat="59.2552542686" lon="30.6857371330"><time>2026-09-01T15:19:58Z</time></trkpt><trkpt lat="59.2552542686" lon="30.6857371330"><time>2026-09-01T15:20:00Z</time></trkpt><trkpt lat="59.2552542686" lon="30.6857371330"><time>2026-09-01T15:20:03Z</time></trkpt><trkpt lat="59.2552542686" lon="30.6857585907"><time>2026-09-01T15:20:05Z</time></trkpt><trkpt lat="59.2552542686" lon="30.6857585907"><time>2026-09-01T15:20:08Z</time></trkpt><trkpt lat="59.2552542686" lon="30.6857585907"><time>2026-09-01T15:20:10Z</time></trkpt><trkpt lat="59.2552542686" lon="30.6857585907"><time>2026-09-01T15:20:13Z</time></trkpt><trkpt lat="59.2552542686" lon="30.6857585907"><time>2026-09-01T15:20:15Z</time></trkpt><trkpt lat="59.2552542686" lon="30.6857585907"><time>2026-09-01T15:20:18Z</time></trkpt><trkpt lat="59.2552542686" lon="30.6857585907"><time>2026-09-01T15:20:20Z</time></trkpt><trkpt lat="59.2552542686" lon="30.6857585907"><time>2026-09-01T15:20:23Z</time></trkpt><trkpt lat="59.2552542686" lon="30.6857585907"><time>2026-09-01T15:20:25Z</time></trkpt><trkpt lat="59.2552542686" lon="30.6857585907"><time>2026-09-01T15:20:28Z</time></trkpt><trkpt lat="59.2552542686" lon="30.6857585907"><time>2026-09-01T15:20:30Z</time></trkpt><trkpt lat="59.2552542686" lon="30.6857585907"><time>2026-09-01T15:20:33Z</time></trkpt><trkpt lat="59.2552542686" lon="30.6857585907"><time>2026-09-01T15:20:35Z</time></trkpt><trkpt lat="59.2552542686" lon="30.6857585907"><time>2026-09-01T15:20:38Z</time></trkpt><trkpt lat="59.2552542686" lon="30.6857585907"><time>2026-09-01T15:20:40Z</time></trkpt><trkpt lat="59.2552542686" lon="30.6857585907"><time>2026-09-01T15:20:43Z</time></trkpt><trkpt lat="59.2552542686" lon="30.6857585907"><time>2026-09-01T15:20:45Z</time></trkpt><trkpt lat="59.2552542686" lon="30.6857800484"><time>2026-09-01T15:20:48Z</time></trkpt><trkpt lat="59.2552542686" lon="30.6857800484"><time>2026-09-01T15:20:50Z</time></trkpt><trkpt lat="59.2552542686" lon="30.6857800484"><time>2026-09-01T15:20:53Z</time></trkpt><trkpt lat="59.2552542686" lon="30.6857800484"><time>2026-09-01T15:20:55Z</time></trkpt><trkpt lat="59.2552542686" lon="30.6857800484"><time>2026-09-01T15:20:58Z</time></trkpt><trkpt lat="59.2552542686" lon="30.6857800484"><time>2026-09-01T15:21:00Z</time></trkpt><trkpt lat="59.2552542686" lon="30.6857800484"><time>2026-09-01T15:21:03Z</time></trkpt><trkpt lat="59.2552542686" lon="30.6857800484"><time>2026-09-01T15:21:05Z</time></trkpt><trkpt lat="59.2552542686" lon="30.6857800484"><time>2026-09-01T15:21:08Z</time></trkpt><trkpt lat="59.2552542686" lon="30.6857800484"><time>2026-09-01T15:21:10Z</time></trkpt><trkpt lat="59.2552542686" lon="30.6857800484"><time>2026-09-01T15:21:13Z</time></trkpt><trkpt lat="59.2552542686" lon="30.6857800484"><time>2026-09-01T15:21:15Z</time></trkpt><trkpt lat="59.2552542686" lon="30.6857800484"><time>2026-09-01T15:21:18Z</time></trkpt><trkpt lat="59.2552542686" lon="30.6857800484"><time>2026-09-01T15:21:20Z</time></trkpt><trkpt lat="59.2552542686" lon="30.6857800484"><time>2026-09-01T15:21:23Z</time></trkpt><trkpt lat="59.2552542686" lon="30.6857800484"><time>2026-09-01T15:21:25Z</time></trkpt><trkpt lat="59.2552542686" lon="30.6857800484"><time>2026-09-01T15:21:28Z</time></trkpt><trkpt lat="59.2552542686" lon="30.6857800484"><time>2026-09-01T15:21:30Z</time></trkpt><trkpt lat="59.2552542686" lon="30.6857800484"><time>2026-09-01T15:21:33Z</time></trkpt><trkpt lat="59.2552542686" lon="30.6857800484"><time>2026-09-01T15:21:35Z</time></trkpt><trkpt lat="59.2552542686" lon="30.6857800484"><time>2026-09-01T15:21:38Z</time></trkpt><trkpt lat="59.2552542686" lon="30.6857800484"><time>2026-09-01T15:21:40Z</time></trkpt><trkpt lat="59.2552542686" lon="30.6857800484"><time>2026-09-01T15:21:43Z</time></trkpt><trkpt lat="59.2552328110" lon="30.6858015060"><time>2026-09-01T15:21:45Z</time></trkpt><trkpt lat="59.2552328110" lon="30.6857585907"><time>2026-09-01T15:21:48Z</time></trkpt><trkpt lat="59.2552542686" lon="30.6857371330"><time>2026-09-01T15:21:50Z</time></trkpt><trkpt lat="59.2552542686" lon="30.6857371330"><time>2026-09-01T15:21:53Z</time></trkpt><trkpt lat="59.2552542686" lon="30.6857156754"><time>2026-09-01T15:21:55Z</time></trkpt><trkpt lat="59.2552542686" lon="30.6857156754"><time>2026-09-01T15:21:58Z</time></trkpt><trkpt lat="59.2552542686" lon="30.6857156754"><time>2026-09-01T15:22:00Z</time></trkpt><trkpt lat="59.2552542686" lon="30.6857156754"><time>2026-09-01T15:22:03Z</time></trkpt><trkpt lat="59.2552542686" lon="30.6857156754"><time>2026-09-01T15:22:05Z</time></trkpt><trkpt lat="59.2552542686" lon="30.6857156754"><time>2026-09-01T15:22:08Z</time></trkpt><trkpt lat="59.2552542686" lon="30.6857156754"><time>2026-09-01T15:22:10Z</time></trkpt><trkpt lat="59.2552542686" lon="30.6857156754"><time>2026-09-01T15:22:13Z</time></trkpt><trkpt lat="59.2552542686" lon="30.6857156754"><time>2026-09-01T15:22:15Z</time></trkpt><trkpt lat="59.2552542686" lon="30.6857156754"><time>2026-09-01T15:22:18Z</time></trkpt><trkpt lat="59.2552542686" lon="30.6857156754"><time>2026-09-01T15:22:20Z</time></trkpt><trkpt lat="59.2552542686" lon="30.6857156754"><time>2026-09-01T15:22:23Z</time></trkpt><trkpt lat="59.2552542686" lon="30.6857156754"><time>2026-09-01T15:22:25Z</time></trkpt><trkpt lat="59.2552542686" lon="30.6857156754"><time>2026-09-01T15:22:28Z</time></trkpt><trkpt lat="59.2552542686" lon="30.6857156754"><time>2026-09-01T15:22:30Z</time></trkpt><trkpt lat="59.2552542686" lon="30.6857156754"><time>2026-09-01T15:22:33Z</time></trkpt><trkpt lat="59.2552542686" lon="30.6857156754"><time>2026-09-01T15:22:35Z</time></trkpt><trkpt lat="59.2552542686" lon="30.6857156754"><time>2026-09-01T15:22:38Z</time></trkpt><trkpt lat="59.2552542686" lon="30.6857156754"><time>2026-09-01T15:22:40Z</time></trkpt><trkpt lat="59.2552542686" lon="30.6857156754"><time>2026-09-01T15:22:43Z</time></trkpt><trkpt lat="59.2552542686" lon="30.6857156754"><time>2026-09-01T15:22:45Z</time></trkpt><trkpt lat="59.2552542686" lon="30.6857156754"><time>2026-09-01T15:22:48Z</time></trkpt><trkpt lat="59.2552542686" lon="30.6857156754"><time>2026-09-01T15:22:50Z</time></trkpt><trkpt lat="59.2552542686" lon="30.6857156754"><time>2026-09-01T15:22:53Z</time></trkpt><trkpt lat="59.2552328110" lon="30.6857156754"><time>2026-09-01T15:22:55Z</time></trkpt><trkpt lat="59.2552328110" lon="30.6857156754"><time>2026-09-01T15:22:58Z</time></trkpt><trkpt lat="59.2552328110" lon="30.6857156754"><time>2026-09-01T15:23:00Z</time></trkpt><trkpt lat="59.2552328110" lon="30.6857156754"><time>2026-09-01T15:23:03Z</time></trkpt><trkpt lat="59.2552328110" lon="30.6857156754"><time>2026-09-01T15:23:05Z</time></trkpt><trkpt lat="59.2552328110" lon="30.6857156754"><time>2026-09-01T15:23:08Z</time></trkpt><trkpt lat="59.2551898956" lon="30.6858444214"><time>2026-09-01T15:23:10Z</time></trkpt><trkpt lat="59.2551898956" lon="30.6858873367"><time>2026-09-01T15:23:13Z</time></trkpt><trkpt lat="59.2552113533" lon="30.6858015060"><time>2026-09-01T15:23:15Z</time></trkpt><trkpt lat="59.2552328110" lon="30.6857156754"><time>2026-09-01T15:23:18Z</time></trkpt><trkpt lat="59.2552328110" lon="30.6857156754"><time>2026-09-01T15:23:20Z</time></trkpt><trkpt lat="59.2552328110" lon="30.6857156754"><time>2026-09-01T15:23:23Z</time></trkpt><trkpt lat="59.2552328110" lon="30.6857156754"><time>2026-09-01T15:23:25Z</time></trkpt><trkpt lat="59.2552328110" lon="30.6857156754"><time>2026-09-01T15:23:28Z</time></trkpt><trkpt lat="59.2552328110" lon="30.6857156754"><time>2026-09-01T15:23:33Z</time></trkpt><trkpt lat="59.2552328110" lon="30.6857156754"><time>2026-09-01T15:23:35Z</time></trkpt><trkpt lat="59.2552328110" lon="30.6857156754"><time>2026-09-01T15:23:38Z</time></trkpt><trkpt lat="59.2552328110" lon="30.6857156754"><time>2026-09-01T15:23:40Z</time></trkpt><trkpt lat="59.2552328110" lon="30.6857156754"><time>2026-09-01T15:23:43Z</time></trkpt><trkpt lat="59.2552328110" lon="30.6857156754"><time>2026-09-01T15:23:45Z</time></trkpt><trkpt lat="59.2552328110" lon="30.6857156754"><time>2026-09-01T15:23:48Z</time></trkpt><trkpt lat="59.2552328110" lon="30.6857156754"><time>2026-09-01T15:23:50Z</time></trkpt><trkpt lat="59.2552328110" lon="30.6857156754"><time>2026-09-01T15:23:53Z</time></trkpt><trkpt lat="59.2552328110" lon="30.6857156754"><time>2026-09-01T15:23:55Z</time></trkpt><trkpt lat="59.2552328110" lon="30.6857156754"><time>2026-09-01T15:23:58Z</time></trkpt><trkpt lat="59.2552328110" lon="30.6857156754"><time>2026-09-01T15:24:00Z</time></trkpt><trkpt lat="59.2552328110" lon="30.6857156754"><time>2026-09-01T15:24:03Z</time></trkpt><trkpt lat="59.2552328110" lon="30.6857156754"><time>2026-09-01T15:24:05Z</time></trkpt><trkpt lat="59.2552328110" lon="30.6857156754"><time>2026-09-01T15:24:08Z</time></trkpt><trkpt lat="59.2552328110" lon="30.6856942177"><time>2026-09-01T15:24:10Z</time></trkpt><trkpt lat="59.2552328110" lon="30.6856942177"><time>2026-09-01T15:24:13Z</time></trkpt><trkpt lat="59.2552328110" lon="30.6856942177"><time>2026-09-01T15:24:15Z</time></trkpt><trkpt lat="59.2552328110" lon="30.6856942177"><time>2026-09-01T15:24:18Z</time></trkpt><trkpt lat="59.2552328110" lon="30.6856942177"><time>2026-09-01T15:24:20Z</time></trkpt><trkpt lat="59.2552328110" lon="30.6856942177"><time>2026-09-01T15:24:23Z</time></trkpt><trkpt lat="59.2552328110" lon="30.6856942177"><time>2026-09-01T15:24:25Z</time></trkpt><trkpt lat="59.2552328110" lon="30.6856942177"><time>2026-09-01T15:24:28Z</time></trkpt><trkpt lat="59.2552328110" lon="30.6856942177"><time>2026-09-01T15:24:30Z</time></trkpt><trkpt lat="59.2552328110" lon="30.6856942177"><time>2026-09-01T15:24:33Z</time></trkpt><trkpt lat="59.2552328110" lon="30.6856942177"><time>2026-09-01T15:24:35Z</time></trkpt><trkpt lat="59.2552328110" lon="30.6856942177"><time>2026-09-01T15:24:38Z</time></trkpt><trkpt lat="59.2552328110" lon="30.6856942177"><time>2026-09-01T15:24:40Z</time></trkpt><trkpt lat="59.2552328110" lon="30.6856942177"><time>2026-09-01T15:24:43Z</time></trkpt><trkpt lat="59.2552328110" lon="30.6856942177"><time>2026-09-01T15:24:45Z</time></trkpt><trkpt lat="59.2552113533" lon="30.6856942177"><time>2026-09-01T15:24:48Z</time></trkpt><trkpt lat="59.2551898956" lon="30.6857156754"><time>2026-09-01T15:24:50Z</time></trkpt><trkpt lat="59.2551898956" lon="30.6857156754"><time>2026-09-01T15:24:53Z</time></trkpt><trkpt lat="59.2551898956" lon="30.6857156754"><time>2026-09-01T15:24:55Z</time></trkpt><trkpt lat="59.2551898956" lon="30.6857156754"><time>2026-09-01T15:24:58Z</time></trkpt><trkpt lat="59.2551898956" lon="30.6857156754"><time>2026-09-01T15:25:00Z</time></trkpt><trkpt lat="59.2551898956" lon="30.6857156754"><time>2026-09-01T15:25:03Z</time></trkpt><trkpt lat="59.2551898956" lon="30.6857156754"><time>2026-09-01T15:25:05Z</time></trkpt><trkpt lat="59.2551898956" lon="30.6857156754"><time>2026-09-01T15:25:08Z</time></trkpt><trkpt lat="59.2551898956" lon="30.6857156754"><time>2026-09-01T15:25:10Z</time></trkpt><trkpt lat="59.2551898956" lon="30.6857156754"><time>2026-09-01T15:25:13Z</time></trkpt><trkpt lat="59.2551898956" lon="30.6857156754"><time>2026-09-01T15:25:15Z</time></trkpt><trkpt lat="59.2551898956" lon="30.6857156754"><time>2026-09-01T15:25:18Z</time></trkpt><trkpt lat="59.2551898956" lon="30.6857156754"><time>2026-09-01T15:25:20Z</time></trkpt><trkpt lat="59.2551898956" lon="30.6857156754"><time>2026-09-01T15:25:23Z</time></trkpt><trkpt lat="59.2551898956" lon="30.6857156754"><time>2026-09-01T15:25:25Z</time></trkpt><trkpt lat="59.2551898956" lon="30.6857156754"><time>2026-09-01T15:25:28Z</time></trkpt><trkpt lat="59.2551898956" lon="30.6857156754"><time>2026-09-01T15:25:30Z</time></trkpt><trkpt lat="59.2551898956" lon="30.6857156754"><time>2026-09-01T15:25:33Z</time></trkpt><trkpt lat="59.2551898956" lon="30.6857156754"><time>2026-09-01T15:25:35Z</time></trkpt><trkpt lat="59.2551898956" lon="30.6857156754"><time>2026-09-01T15:25:38Z</time></trkpt><trkpt lat="59.2551898956" lon="30.6857156754"><time>2026-09-01T15:25:40Z</time></trkpt><trkpt lat="59.2551898956" lon="30.6857156754"><time>2026-09-01T15:25:43Z</time></trkpt><trkpt lat="59.2551898956" lon="30.6857156754"><time>2026-09-01T15:25:45Z</time></trkpt><trkpt lat="59.2551898956" lon="30.6857156754"><time>2026-09-01T15:25:48Z</time></trkpt><trkpt lat="59.2551898956" lon="30.6857156754"><time>2026-09-01T15:25:50Z</time></trkpt><trkpt lat="59.2551898956" lon="30.6857156754"><time>2026-09-01T15:25:53Z</time></trkpt><trkpt lat="59.2551898956" lon="30.6857156754"><time>2026-09-01T15:25:55Z</time></trkpt><trkpt lat="59.2551898956" lon="30.6857156754"><time>2026-09-01T15:25:58Z</time></trkpt><trkpt lat="59.2551898956" lon="30.6857156754"><time>2026-09-01T15:26:00Z</time></trkpt><trkpt lat="59.2551898956" lon="30.6857156754"><time>2026-09-01T15:26:03Z</time></trkpt><trkpt lat="59.2551898956" lon="30.6857156754"><time>2026-09-01T15:26:05Z</time></trkpt><trkpt lat="59.2551898956" lon="30.6857156754"><time>2026-09-01T15:26:08Z</time></trkpt><trkpt lat="59.2551898956" lon="30.6857156754"><time>2026-09-01T15:26:10Z</time></trkpt><trkpt lat="59.2551898956" lon="30.6857156754"><time>2026-09-01T15:26:13Z</time></trkpt><trkpt lat="59.2551898956" lon="30.6857156754"><time>2026-09-01T15:26:15Z</time></trkpt><trkpt lat="59.2551898956" lon="30.6857156754"><time>2026-09-01T15:26:18Z</time></trkpt><trkpt lat="59.2551898956" lon="30.6857156754"><time>2026-09-01T15:26:20Z</time></trkpt><trkpt lat="59.2551898956" lon="30.6857156754"><time>2026-09-01T15:26:23Z</time></trkpt><trkpt lat="59.2551898956" lon="30.6857156754"><time>2026-09-01T15:26:25Z</time></trkpt><trkpt lat="59.2551898956" lon="30.6857156754"><time>2026-09-01T15:26:28Z</time></trkpt><trkpt lat="59.2551898956" lon="30.6857156754"><time>2026-09-01T15:26:30Z</time></trkpt><trkpt lat="59.2551898956" lon="30.6857156754"><time>2026-09-01T15:26:33Z</time></trkpt><trkpt lat="59.2551898956" lon="30.6857156754"><time>2026-09-01T15:26:35Z</time></trkpt><trkpt lat="59.2551898956" lon="30.6857156754"><time>2026-09-01T15:26:38Z</time></trkpt><trkpt lat="59.2551898956" lon="30.6857156754"><time>2026-09-01T15:26:40Z</time></trkpt><trkpt lat="59.2551898956" lon="30.6857156754"><time>2026-09-01T15:26:43Z</time></trkpt><trkpt lat="59.2551898956" lon="30.6857156754"><time>2026-09-01T15:26:45Z</time></trkpt><trkpt lat="59.2551898956" lon="30.6857156754"><time>2026-09-01T15:26:48Z</time></trkpt><trkpt lat="59.2551898956" lon="30.6857156754"><time>2026-09-01T15:26:50Z</time></trkpt><trkpt lat="59.2551898956" lon="30.6857156754"><time>2026-09-01T15:26:53Z</time></trkpt><trkpt lat="59.2551898956" lon="30.6857156754"><time>2026-09-01T15:26:55Z</time></trkpt><trkpt lat="59.2551898956" lon="30.6857156754"><time>2026-09-01T15:26:58Z</time></trkpt><trkpt lat="59.2551898956" lon="30.6857156754"><time>2026-09-01T15:27:00Z</time></trkpt><trkpt lat="59.2551898956" lon="30.6857156754"><time>2026-09-01T15:27:03Z</time></trkpt><trkpt lat="59.2551898956" lon="30.6857156754"><time>2026-09-01T15:27:05Z</time></trkpt><trkpt lat="59.2551898956" lon="30.6857156754"><time>2026-09-01T15:27:08Z</time></trkpt><trkpt lat="59.2551898956" lon="30.6857156754"><time>2026-09-01T15:27:10Z</time></trkpt><trkpt lat="59.2551898956" lon="30.6857156754"><time>2026-09-01T15:27:13Z</time></trkpt><trkpt lat="59.2551898956" lon="30.6857156754"><time>2026-09-01T15:27:15Z</time></trkpt><trkpt lat="59.2551898956" lon="30.6857156754"><time>2026-09-01T15:27:18Z</time></trkpt><trkpt lat="59.2551898956" lon="30.6857156754"><time>2026-09-01T15:27:20Z</time></trkpt><trkpt lat="59.2551898956" lon="30.6857156754"><time>2026-09-01T15:27:23Z</time></trkpt><trkpt lat="59.2551898956" lon="30.6857156754"><time>2026-09-01T15:27:25Z</time></trkpt><trkpt lat="59.2551898956" lon="30.6857156754"><time>2026-09-01T15:27:28Z</time></trkpt><trkpt lat="59.2551898956" lon="30.6857156754"><time>2026-09-01T15:27:30Z</time></trkpt><trkpt lat="59.2551898956" lon="30.6857156754"><time>2026-09-01T15:27:33Z</time></trkpt><trkpt lat="59.2551898956" lon="30.6857371330"><time>2026-09-01T15:27:35Z</time></trkpt><trkpt lat="59.2551898956" lon="30.6858015060"><time>2026-09-01T15:27:38Z</time></trkpt><trkpt lat="59.2551898956" lon="30.6858229637"><time>2026-09-01T15:27:40Z</time></trkpt><trkpt lat="59.2551898956" lon="30.6857585907"><time>2026-09-01T15:27:43Z</time></trkpt><trkpt lat="59.2551898956" lon="30.6857371330"><time>2026-09-01T15:27:45Z</time></trkpt><trkpt lat="59.2551898956" lon="30.6857371330"><time>2026-09-01T15:27:48Z</time></trkpt><trkpt lat="59.2551898956" lon="30.6857371330"><time>2026-09-01T15:27:50Z</time></trkpt><trkpt lat="59.2551898956" lon="30.6857371330"><time>2026-09-01T15:27:53Z</time></trkpt><trkpt lat="59.2551898956" lon="30.6857371330"><time>2026-09-01T15:27:55Z</time></trkpt><trkpt lat="59.2551898956" lon="30.6857371330"><time>2026-09-01T15:27:58Z</time></trkpt><trkpt lat="59.2551898956" lon="30.6857371330"><time>2026-09-01T15:28:00Z</time></trkpt><trkpt lat="59.2551898956" lon="30.6857371330"><time>2026-09-01T15:28:03Z</time></trkpt><trkpt lat="59.2551898956" lon="30.6857371330"><time>2026-09-01T15:28:05Z</time></trkpt><trkpt lat="59.2551898956" lon="30.6857371330"><time>2026-09-01T15:28:08Z</time></trkpt><trkpt lat="59.2551898956" lon="30.6857371330"><time>2026-09-01T15:28:10Z</time></trkpt><trkpt lat="59.2551898956" lon="30.6857371330"><time>2026-09-01T15:28:13Z</time></trkpt><trkpt lat="59.2551898956" lon="30.6857156754"><time>2026-09-01T15:28:15Z</time></trkpt><trkpt lat="59.2551898956" lon="30.6856942177"><time>2026-09-01T15:28:18Z</time></trkpt><trkpt lat="59.2551898956" lon="30.6856727600"><time>2026-09-01T15:28:20Z</time></trkpt><trkpt lat="59.2551898956" lon="30.6856727600"><time>2026-09-01T15:28:23Z</time></trkpt><trkpt lat="59.2551898956" lon="30.6856727600"><time>2026-09-01T15:28:25Z</time></trkpt><trkpt lat="59.2551898956" lon="30.6856513023"><time>2026-09-01T15:28:28Z</time></trkpt><trkpt lat="59.2551898956" lon="30.6856513023"><time>2026-09-01T15:28:30Z</time></trkpt><trkpt lat="59.2551898956" lon="30.6856513023"><time>2026-09-01T15:28:33Z</time></trkpt><trkpt lat="59.2551898956" lon="30.6856513023"><time>2026-09-01T15:28:35Z</time></trkpt><trkpt lat="59.2551898956" lon="30.6855869293"><time>2026-09-01T15:28:38Z</time></trkpt><trkpt lat="59.2551898956" lon="30.6855869293"><time>2026-09-01T15:28:40Z</time></trkpt><trkpt lat="59.2551898956" lon="30.6855869293"><time>2026-09-01T15:28:43Z</time></trkpt><trkpt lat="59.2551898956" lon="30.6856083870"><time>2026-09-01T15:28:45Z</time></trkpt><trkpt lat="59.2551898956" lon="30.6856727600"><time>2026-09-01T15:28:48Z</time></trkpt><trkpt lat="59.2552113533" lon="30.6856942177"><time>2026-09-01T15:28:50Z</time></trkpt><trkpt lat="59.2552113533" lon="30.6856942177"><time>2026-09-01T15:28:53Z</time></trkpt><trkpt lat="59.2552328110" lon="30.6857156754"><time>2026-09-01T15:28:55Z</time></trkpt><trkpt lat="59.2552328110" lon="30.6857156754"><time>2026-09-01T15:28:58Z</time></trkpt><trkpt lat="59.2552542686" lon="30.6857371330"><time>2026-09-01T15:29:00Z</time></trkpt><trkpt lat="59.2552542686" lon="30.6857371330"><time>2026-09-01T15:29:03Z</time></trkpt><trkpt lat="59.2552542686" lon="30.6857371330"><time>2026-09-01T15:29:05Z</time></trkpt><trkpt lat="59.2552542686" lon="30.6857371330"><time>2026-09-01T15:29:08Z</time></trkpt><trkpt lat="59.2552542686" lon="30.6857371330"><time>2026-09-01T15:29:10Z</time></trkpt><trkpt lat="59.2552542686" lon="30.6857371330"><time>2026-09-01T15:29:13Z</time></trkpt><trkpt lat="59.2552542686" lon="30.6857371330"><time>2026-09-01T15:29:15Z</time></trkpt><trkpt lat="59.2552542686" lon="30.6857371330"><time>2026-09-01T15:29:18Z</time></trkpt><trkpt lat="59.2552542686" lon="30.6857371330"><time>2026-09-01T15:29:20Z</time></trkpt><trkpt lat="59.2552542686" lon="30.6857371330"><time>2026-09-01T15:29:23Z</time></trkpt><trkpt lat="59.2552542686" lon="30.6857371330"><time>2026-09-01T15:29:25Z</time></trkpt><trkpt lat="59.2552542686" lon="30.6857371330"><time>2026-09-01T15:29:28Z</time></trkpt><trkpt lat="59.2552542686" lon="30.6857371330"><time>2026-09-01T15:29:30Z</time></trkpt><trkpt lat="59.2552542686" lon="30.6857371330"><time>2026-09-01T15:29:33Z</time></trkpt><trkpt lat="59.2552542686" lon="30.6857371330"><time>2026-09-01T15:29:35Z</time></trkpt><trkpt lat="59.2552542686" lon="30.6857371330"><time>2026-09-01T15:29:38Z</time></trkpt><trkpt lat="59.2552542686" lon="30.6857371330"><time>2026-09-01T15:29:40Z</time></trkpt><trkpt lat="59.2552542686" lon="30.6857371330"><time>2026-09-01T15:29:43Z</time></trkpt><trkpt lat="59.2552542686" lon="30.6857371330"><time>2026-09-01T15:29:45Z</time></trkpt><trkpt lat="59.2552542686" lon="30.6857371330"><time>2026-09-01T15:29:48Z</time></trkpt><trkpt lat="59.2552542686" lon="30.6857371330"><time>2026-09-01T15:29:50Z</time></trkpt><trkpt lat="59.2552542686" lon="30.6857371330"><time>2026-09-01T15:29:53Z</time></trkpt><trkpt lat="59.2552542686" lon="30.6857371330"><time>2026-09-01T15:29:55Z</time></trkpt><trkpt lat="59.2552542686" lon="30.6857371330"><time>2026-09-01T15:29:58Z</time></trkpt><trkpt lat="59.2552542686" lon="30.6857371330"><time>2026-09-01T15:30:00Z</time></trkpt><trkpt lat="59.2552542686" lon="30.6857371330"><time>2026-09-01T15:30:03Z</time></trkpt><trkpt lat="59.2552542686" lon="30.6857371330"><time>2026-09-01T15:30:05Z</time></trkpt><trkpt lat="59.2552542686" lon="30.6857371330"><time>2026-09-01T15:30:08Z</time></trkpt><trkpt lat="59.2552113533" lon="30.6857585907"><time>2026-09-01T15:30:10Z</time></trkpt><trkpt lat="59.2552113533" lon="30.6857585907"><time>2026-09-01T15:30:13Z</time></trkpt><trkpt lat="59.2552113533" lon="30.6857585907"><time>2026-09-01T15:30:15Z</time></trkpt><trkpt lat="59.2552113533" lon="30.6857585907"><time>2026-09-01T15:30:18Z</time></trkpt><trkpt lat="59.2552113533" lon="30.6857585907"><time>2026-09-01T15:30:20Z</time></trkpt><trkpt lat="59.2552113533" lon="30.6857585907"><time>2026-09-01T15:30:23Z</time></trkpt><trkpt lat="59.2552113533" lon="30.6858015060"><time>2026-09-01T15:30:25Z</time></trkpt><trkpt lat="59.2552113533" lon="30.6858015060"><time>2026-09-01T15:30:28Z</time></trkpt><trkpt lat="59.2552113533" lon="30.6858015060"><time>2026-09-01T15:30:30Z</time></trkpt><trkpt lat="59.2552113533" lon="30.6858015060"><time>2026-09-01T15:30:33Z</time></trkpt><trkpt lat="59.2552113533" lon="30.6858015060"><time>2026-09-01T15:30:35Z</time></trkpt><trkpt lat="59.2552113533" lon="30.6858015060"><time>2026-09-01T15:30:38Z</time></trkpt><trkpt lat="59.2552113533" lon="30.6857800484"><time>2026-09-01T15:30:40Z</time></trkpt><trkpt lat="59.2552542686" lon="30.6857585907"><time>2026-09-01T15:30:43Z</time></trkpt><trkpt lat="59.2552542686" lon="30.6857585907"><time>2026-09-01T15:30:45Z</time></trkpt><trkpt lat="59.2552542686" lon="30.6857585907"><time>2026-09-01T15:30:48Z</time></trkpt><trkpt lat="59.2552542686" lon="30.6857585907"><time>2026-09-01T15:30:50Z</time></trkpt><trkpt lat="59.2552542686" lon="30.6857585907"><time>2026-09-01T15:30:53Z</time></trkpt><trkpt lat="59.2552542686" lon="30.6857585907"><time>2026-09-01T15:30:55Z</time></trkpt><trkpt lat="59.2552542686" lon="30.6857585907"><time>2026-09-01T15:30:58Z</time></trkpt><trkpt lat="59.2552542686" lon="30.6857585907"><time>2026-09-01T15:31:00Z</time></trkpt><trkpt lat="59.2552542686" lon="30.6857585907"><time>2026-09-01T15:31:03Z</time></trkpt><trkpt lat="59.2552328110" lon="30.6857371330"><time>2026-09-01T15:31:05Z</time></trkpt><trkpt lat="59.2552328110" lon="30.6857371330"><time>2026-09-01T15:31:08Z</time></trkpt><trkpt lat="59.2552328110" lon="30.6857371330"><time>2026-09-01T15:31:10Z</time></trkpt><trkpt lat="59.2552328110" lon="30.6857371330"><time>2026-09-01T15:31:13Z</time></trkpt><trkpt lat="59.2552328110" lon="30.6857371330"><time>2026-09-01T15:31:15Z</time></trkpt><trkpt lat="59.2552328110" lon="30.6857371330"><time>2026-09-01T15:31:18Z</time></trkpt><trkpt lat="59.2552328110" lon="30.6857371330"><time>2026-09-01T15:31:20Z</time></trkpt><trkpt lat="59.2552328110" lon="30.6857371330"><time>2026-09-01T15:31:23Z</time></trkpt><trkpt lat="59.2552328110" lon="30.6857371330"><time>2026-09-01T15:31:25Z</time></trkpt><trkpt lat="59.2552328110" lon="30.6857371330"><time>2026-09-01T15:31:28Z</time></trkpt><trkpt lat="59.2552328110" lon="30.6857371330"><time>2026-09-01T15:31:30Z</time></trkpt><trkpt lat="59.2552328110" lon="30.6857371330"><time>2026-09-01T15:31:33Z</time></trkpt><trkpt lat="59.2552328110" lon="30.6857371330"><time>2026-09-01T15:31:35Z</time></trkpt><trkpt lat="59.2552328110" lon="30.6857371330"><time>2026-09-01T15:31:38Z</time></trkpt><trkpt lat="59.2552328110" lon="30.6857371330"><time>2026-09-01T15:31:40Z</time></trkpt><trkpt lat="59.2552328110" lon="30.6857371330"><time>2026-09-01T15:31:43Z</time></trkpt><trkpt lat="59.2552328110" lon="30.6857371330"><time>2026-09-01T15:31:45Z</time></trkpt><trkpt lat="59.2552328110" lon="30.6857371330"><time>2026-09-01T15:31:48Z</time></trkpt><trkpt lat="59.2552328110" lon="30.6857371330"><time>2026-09-01T15:31:50Z</time></trkpt><trkpt lat="59.2552328110" lon="30.6857371330"><time>2026-09-01T15:31:53Z</time></trkpt><trkpt lat="59.2552328110" lon="30.6857371330"><time>2026-09-01T15:31:55Z</time></trkpt><trkpt lat="59.2552328110" lon="30.6857371330"><time>2026-09-01T15:31:58Z</time></trkpt><trkpt lat="59.2552328110" lon="30.6857371330"><time>2026-09-01T15:32:00Z</time></trkpt><trkpt lat="59.2552328110" lon="30.6857371330"><time>2026-09-01T15:32:03Z</time></trkpt><trkpt lat="59.2552328110" lon="30.6857371330"><time>2026-09-01T15:32:05Z</time></trkpt><trkpt lat="59.2552113533" lon="30.6856942177"><time>2026-09-01T15:32:08Z</time></trkpt><trkpt lat="59.2552113533" lon="30.6856083870"><time>2026-09-01T15:32:10Z</time></trkpt><trkpt lat="59.2552113533" lon="30.6855869293"><time>2026-09-01T15:32:13Z</time></trkpt><trkpt lat="59.2552113533" lon="30.6856298447"><time>2026-09-01T15:32:15Z</time></trkpt><trkpt lat="59.2552328110" lon="30.6856942177"><time>2026-09-01T15:32:18Z</time></trkpt><trkpt lat="59.2552328110" lon="30.6857371330"><time>2026-09-01T15:32:20Z</time></trkpt><trkpt lat="59.2552328110" lon="30.6857156754"><time>2026-09-01T15:32:23Z</time></trkpt><trkpt lat="59.2552328110" lon="30.6857156754"><time>2026-09-01T15:32:25Z</time></trkpt><trkpt lat="59.2552328110" lon="30.6857156754"><time>2026-09-01T15:32:28Z</time></trkpt><trkpt lat="59.2552328110" lon="30.6857156754"><time>2026-09-01T15:32:30Z</time></trkpt><trkpt lat="59.2552328110" lon="30.6857156754"><time>2026-09-01T15:32:33Z</time></trkpt><trkpt lat="59.2552328110" lon="30.6857156754"><time>2026-09-01T15:32:35Z</time></trkpt><trkpt lat="59.2552328110" lon="30.6857156754"><time>2026-09-01T15:32:38Z</time></trkpt><trkpt lat="59.2552328110" lon="30.6857156754"><time>2026-09-01T15:32:40Z</time></trkpt><trkpt lat="59.2552328110" lon="30.6857156754"><time>2026-09-01T15:32:43Z</time></trkpt><trkpt lat="59.2552328110" lon="30.6857156754"><time>2026-09-01T15:32:45Z</time></trkpt><trkpt lat="59.2552328110" lon="30.6857156754"><time>2026-09-01T15:32:48Z</time></trkpt><trkpt lat="59.2552328110" lon="30.6857156754"><time>2026-09-01T15:32:50Z</time></trkpt><trkpt lat="59.2552328110" lon="30.6857156754"><time>2026-09-01T15:32:53Z</time></trkpt><trkpt lat="59.2552328110" lon="30.6857156754"><time>2026-09-01T15:32:55Z</time></trkpt><trkpt lat="59.2552328110" lon="30.6857156754"><time>2026-09-01T15:32:58Z</time></trkpt><trkpt lat="59.2552328110" lon="30.6857156754"><time>2026-09-01T15:33:00Z</time></trkpt><trkpt lat="59.2552328110" lon="30.6857156754"><time>2026-09-01T15:33:03Z</time></trkpt><trkpt lat="59.2552328110" lon="30.6857156754"><time>2026-09-01T15:33:05Z</time></trkpt><trkpt lat="59.2552328110" lon="30.6857156754"><time>2026-09-01T15:33:08Z</time></trkpt><trkpt lat="59.2552328110" lon="30.6857156754"><time>2026-09-01T15:33:10Z</time></trkpt><trkpt lat="59.2552328110" lon="30.6857156754"><time>2026-09-01T15:33:13Z</time></trkpt><trkpt lat="59.2552328110" lon="30.6857156754"><time>2026-09-01T15:33:15Z</time></trkpt><trkpt lat="59.2552328110" lon="30.6857156754"><time>2026-09-01T15:33:18Z</time></trkpt><trkpt lat="59.2552328110" lon="30.6857156754"><time>2026-09-01T15:33:20Z</time></trkpt><trkpt lat="59.2552328110" lon="30.6857156754"><time>2026-09-01T15:33:23Z</time></trkpt><trkpt lat="59.2552328110" lon="30.6857156754"><time>2026-09-01T15:33:25Z</time></trkpt><trkpt lat="59.2552328110" lon="30.6857156754"><time>2026-09-01T15:33:28Z</time></trkpt><trkpt lat="59.2552328110" lon="30.6857156754"><time>2026-09-01T15:33:30Z</time></trkpt><trkpt lat="59.2552328110" lon="30.6857156754"><time>2026-09-01T15:33:33Z</time></trkpt><trkpt lat="59.2552328110" lon="30.6857156754"><time>2026-09-01T15:33:35Z</time></trkpt><trkpt lat="59.2552328110" lon="30.6857156754"><time>2026-09-01T15:33:38Z</time></trkpt><trkpt lat="59.2552328110" lon="30.6857156754"><time>2026-09-01T15:33:40Z</time></trkpt><trkpt lat="59.2552328110" lon="30.6857156754"><time>2026-09-01T15:33:43Z</time></trkpt><trkpt lat="59.2552328110" lon="30.6857156754"><time>2026-09-01T15:33:45Z</time></trkpt><trkpt lat="59.2552328110" lon="30.6857156754"><time>2026-09-01T15:33:48Z</time></trkpt><trkpt lat="59.2552328110" lon="30.6857156754"><time>2026-09-01T15:33:50Z</time></trkpt><trkpt lat="59.2552328110" lon="30.6857156754"><time>2026-09-01T15:33:53Z</time></trkpt><trkpt lat="59.2552328110" lon="30.6857156754"><time>2026-09-01T15:33:55Z</time></trkpt><trkpt lat="59.2552328110" lon="30.6857156754"><time>2026-09-01T15:33:58Z</time></trkpt><trkpt lat="59.2552328110" lon="30.6857156754"><time>2026-09-01T15:34:00Z</time></trkpt><trkpt lat="59.2552328110" lon="30.6857156754"><time>2026-09-01T15:34:03Z</time></trkpt><trkpt lat="59.2552328110" lon="30.6857156754"><time>2026-09-01T15:34:05Z</time></trkpt><trkpt lat="59.2552328110" lon="30.6857156754"><time>2026-09-01T15:34:08Z</time></trkpt><trkpt lat="59.2552328110" lon="30.6857156754"><time>2026-09-01T15:34:10Z</time></trkpt><trkpt lat="59.2552328110" lon="30.6857156754"><time>2026-09-01T15:34:13Z</time></trkpt><trkpt lat="59.2552328110" lon="30.6857156754"><time>2026-09-01T15:34:15Z</time></trkpt><trkpt lat="59.2552328110" lon="30.6857156754"><time>2026-09-01T15:34:18Z</time></trkpt><trkpt lat="59.2552328110" lon="30.6857156754"><time>2026-09-01T15:34:20Z</time></trkpt><trkpt lat="59.2552328110" lon="30.6857156754"><time>2026-09-01T15:34:23Z</time></trkpt><trkpt lat="59.2552328110" lon="30.6857156754"><time>2026-09-01T15:34:25Z</time></trkpt><trkpt lat="59.2552328110" lon="30.6857156754"><time>2026-09-01T15:34:28Z</time></trkpt><trkpt lat="59.2552328110" lon="30.6857156754"><time>2026-09-01T15:34:30Z</time></trkpt><trkpt lat="59.2552328110" lon="30.6857156754"><time>2026-09-01T15:34:33Z</time></trkpt><trkpt lat="59.2552328110" lon="30.6857156754"><time>2026-09-01T15:34:35Z</time></trkpt><trkpt lat="59.2552328110" lon="30.6857156754"><time>2026-09-01T15:34:38Z</time></trkpt><trkpt lat="59.2552328110" lon="30.6857156754"><time>2026-09-01T15:34:40Z</time></trkpt><trkpt lat="59.2552328110" lon="30.6857156754"><time>2026-09-01T15:34:43Z</time></trkpt><trkpt lat="59.2552328110" lon="30.6857156754"><time>2026-09-01T15:34:45Z</time></trkpt><trkpt lat="59.2552328110" lon="30.6857156754"><time>2026-09-01T15:34:48Z</time></trkpt><trkpt lat="59.2552328110" lon="30.6857156754"><time>2026-09-01T15:34:50Z</time></trkpt><trkpt lat="59.2552328110" lon="30.6857156754"><time>2026-09-01T15:34:53Z</time></trkpt><trkpt lat="59.2552328110" lon="30.6857156754"><time>2026-09-01T15:34:55Z</time></trkpt><trkpt lat="59.2552328110" lon="30.6857156754"><time>2026-09-01T15:34:58Z</time></trkpt><trkpt lat="59.2552328110" lon="30.6857156754"><time>2026-09-01T15:35:00Z</time></trkpt><trkpt lat="59.2552328110" lon="30.6857371330"><time>2026-09-01T15:35:03Z</time></trkpt><trkpt lat="59.2552328110" lon="30.6857371330"><time>2026-09-01T15:35:05Z</time></trkpt><trkpt lat="59.2552328110" lon="30.6857371330"><time>2026-09-01T15:35:08Z</time></trkpt><trkpt lat="59.2552328110" lon="30.6857371330"><time>2026-09-01T15:35:13Z</time></trkpt><trkpt lat="59.2552328110" lon="30.6857371330"><time>2026-09-01T15:35:15Z</time></trkpt><trkpt lat="59.2552328110" lon="30.6857371330"><time>2026-09-01T15:35:18Z</time></trkpt><trkpt lat="59.2552328110" lon="30.6857371330"><time>2026-09-01T15:35:20Z</time></trkpt><trkpt lat="59.2552328110" lon="30.6857371330"><time>2026-09-01T15:35:23Z</time></trkpt><trkpt lat="59.2552328110" lon="30.6857371330"><time>2026-09-01T15:35:25Z</time></trkpt><trkpt lat="59.2552328110" lon="30.6857371330"><time>2026-09-01T15:35:28Z</time></trkpt><trkpt lat="59.2552328110" lon="30.6857371330"><time>2026-09-01T15:35:30Z</time></trkpt><trkpt lat="59.2552328110" lon="30.6857371330"><time>2026-09-01T15:35:33Z</time></trkpt><trkpt lat="59.2552328110" lon="30.6857371330"><time>2026-09-01T15:35:35Z</time></trkpt><trkpt lat="59.2552328110" lon="30.6857371330"><time>2026-09-01T15:35:38Z</time></trkpt><trkpt lat="59.2552328110" lon="30.6857371330"><time>2026-09-01T15:35:40Z</time></trkpt><trkpt lat="59.2552328110" lon="30.6857371330"><time>2026-09-01T15:35:43Z</time></trkpt><trkpt lat="59.2552328110" lon="30.6857371330"><time>2026-09-01T15:35:45Z</time></trkpt><trkpt lat="59.2552328110" lon="30.6857371330"><time>2026-09-01T15:35:48Z</time></trkpt><trkpt lat="59.2552328110" lon="30.6857371330"><time>2026-09-01T15:35:50Z</time></trkpt><trkpt lat="59.2552328110" lon="30.6857371330"><time>2026-09-01T15:35:53Z</time></trkpt><trkpt lat="59.2552542686" lon="30.6857585907"><time>2026-09-01T15:35:55Z</time></trkpt><trkpt lat="59.2552328110" lon="30.6857371330"><time>2026-09-01T15:35:58Z</time></trkpt><trkpt lat="59.2552328110" lon="30.6857156754"><time>2026-09-01T15:36:00Z</time></trkpt><trkpt lat="59.2552328110" lon="30.6856942177"><time>2026-09-01T15:36:03Z</time></trkpt><trkpt lat="59.2552113533" lon="30.6856513023"><time>2026-09-01T15:36:05Z</time></trkpt><trkpt lat="59.2552113533" lon="30.6856513023"><time>2026-09-01T15:36:08Z</time></trkpt><trkpt lat="59.2552113533" lon="30.6856727600"><time>2026-09-01T15:36:10Z</time></trkpt><trkpt lat="59.2552328110" lon="30.6857156754"><time>2026-09-01T15:36:13Z</time></trkpt><trkpt lat="59.2552328110" lon="30.6857156754"><time>2026-09-01T15:36:15Z</time></trkpt><trkpt lat="59.2552328110" lon="30.6857371330"><time>2026-09-01T15:36:18Z</time></trkpt><trkpt lat="59.2552328110" lon="30.6857371330"><time>2026-09-01T15:36:20Z</time></trkpt><trkpt lat="59.2552328110" lon="30.6857371330"><time>2026-09-01T15:36:23Z</time></trkpt><trkpt lat="59.2552328110" lon="30.6857371330"><time>2026-09-01T15:36:25Z</time></trkpt><trkpt lat="59.2552328110" lon="30.6857371330"><time>2026-09-01T15:36:28Z</time></trkpt><trkpt lat="59.2552328110" lon="30.6857371330"><time>2026-09-01T15:36:30Z</time></trkpt><trkpt lat="59.2552328110" lon="30.6857371330"><time>2026-09-01T15:36:33Z</time></trkpt><trkpt lat="59.2552328110" lon="30.6857371330"><time>2026-09-01T15:36:35Z</time></trkpt><trkpt lat="59.2552328110" lon="30.6857371330"><time>2026-09-01T15:36:38Z</time></trkpt><trkpt lat="59.2552328110" lon="30.6857371330"><time>2026-09-01T15:36:40Z</time></trkpt><trkpt lat="59.2552328110" lon="30.6857371330"><time>2026-09-01T15:36:43Z</time></trkpt><trkpt lat="59.2552328110" lon="30.6857371330"><time>2026-09-01T15:36:45Z</time></trkpt><trkpt lat="59.2552328110" lon="30.6857371330"><time>2026-09-01T15:36:48Z</time></trkpt><trkpt lat="59.2552328110" lon="30.6857371330"><time>2026-09-01T15:36:50Z</time></trkpt><trkpt lat="59.2552328110" lon="30.6857371330"><time>2026-09-01T15:36:53Z</time></trkpt><trkpt lat="59.2552328110" lon="30.6857371330"><time>2026-09-01T15:36:55Z</time></trkpt><trkpt lat="59.2552328110" lon="30.6857371330"><time>2026-09-01T15:36:58Z</time></trkpt><trkpt lat="59.2552328110" lon="30.6857371330"><time>2026-09-01T15:37:00Z</time></trkpt><trkpt lat="59.2552328110" lon="30.6857371330"><time>2026-09-01T15:37:03Z</time></trkpt><trkpt lat="59.2552328110" lon="30.6857371330"><time>2026-09-01T15:37:05Z</time></trkpt><trkpt lat="59.2552328110" lon="30.6857371330"><time>2026-09-01T15:37:08Z</time></trkpt><trkpt lat="59.2552328110" lon="30.6857371330"><time>2026-09-01T15:37:10Z</time></trkpt><trkpt lat="59.2552328110" lon="30.6857371330"><time>2026-09-01T15:37:13Z</time></trkpt><trkpt lat="59.2552328110" lon="30.6857371330"><time>2026-09-01T15:37:15Z</time></trkpt><trkpt lat="59.2552328110" lon="30.6857371330"><time>2026-09-01T15:37:18Z</time></trkpt><trkpt lat="59.2552328110" lon="30.6857371330"><time>2026-09-01T15:37:20Z</time></trkpt><trkpt lat="59.2552328110" lon="30.6857371330"><time>2026-09-01T15:37:23Z</time></trkpt><trkpt lat="59.2552328110" lon="30.6857371330"><time>2026-09-01T15:37:25Z</time></trkpt><trkpt lat="59.2552328110" lon="30.6857371330"><time>2026-09-01T15:37:28Z</time></trkpt><trkpt lat="59.2552328110" lon="30.6857371330"><time>2026-09-01T15:37:30Z</time></trkpt><trkpt lat="59.2552328110" lon="30.6857371330"><time>2026-09-01T15:37:33Z</time></trkpt><trkpt lat="59.2552328110" lon="30.6857371330"><time>2026-09-01T15:37:35Z</time></trkpt><trkpt lat="59.2552328110" lon="30.6857371330"><time>2026-09-01T15:37:38Z</time></trkpt><trkpt lat="59.2552328110" lon="30.6857371330"><time>2026-09-01T15:37:40Z</time></trkpt><trkpt lat="59.2552328110" lon="30.6857371330"><time>2026-09-01T15:37:43Z</time></trkpt><trkpt lat="59.2552542686" lon="30.6857371330"><time>2026-09-01T15:37:45Z</time></trkpt><trkpt lat="59.2552542686" lon="30.6857371330"><time>2026-09-01T15:37:48Z</time></trkpt><trkpt lat="59.2552542686" lon="30.6857371330"><time>2026-09-01T15:37:50Z</time></trkpt><trkpt lat="59.2552542686" lon="30.6857371330"><time>2026-09-01T15:37:53Z</time></trkpt><trkpt lat="59.2552542686" lon="30.6857371330"><time>2026-09-01T15:37:55Z</time></trkpt><trkpt lat="59.2552542686" lon="30.6857371330"><time>2026-09-01T15:37:58Z</time></trkpt><trkpt lat="59.2552542686" lon="30.6857371330"><time>2026-09-01T15:38:00Z</time></trkpt><trkpt lat="59.2552542686" lon="30.6857371330"><time>2026-09-01T15:38:03Z</time></trkpt><trkpt lat="59.2552542686" lon="30.6857371330"><time>2026-09-01T15:38:05Z</time></trkpt><trkpt lat="59.2552542686" lon="30.6857371330"><time>2026-09-01T15:38:08Z</time></trkpt><trkpt lat="59.2552542686" lon="30.6857371330"><time>2026-09-01T15:38:10Z</time></trkpt><trkpt lat="59.2552542686" lon="30.6857371330"><time>2026-09-01T15:38:13Z</time></trkpt><trkpt lat="59.2552542686" lon="30.6857371330"><time>2026-09-01T15:38:15Z</time></trkpt><trkpt lat="59.2552542686" lon="30.6857371330"><time>2026-09-01T15:38:18Z</time></trkpt><trkpt lat="59.2552542686" lon="30.6857371330"><time>2026-09-01T15:38:20Z</time></trkpt><trkpt lat="59.2552542686" lon="30.6857371330"><time>2026-09-01T15:38:23Z</time></trkpt><trkpt lat="59.2552328110" lon="30.6857371330"><time>2026-09-01T15:38:25Z</time></trkpt><trkpt lat="59.2552328110" lon="30.6857371330"><time>2026-09-01T15:38:28Z</time></trkpt><trkpt lat="59.2552328110" lon="30.6857371330"><time>2026-09-01T15:38:30Z</time></trkpt><trkpt lat="59.2552328110" lon="30.6857371330"><time>2026-09-01T15:38:33Z</time></trkpt><trkpt lat="59.2552328110" lon="30.6857371330"><time>2026-09-01T15:38:35Z</time></trkpt><trkpt lat="59.2552328110" lon="30.6857371330"><time>2026-09-01T15:38:38Z</time></trkpt><trkpt lat="59.2552328110" lon="30.6857371330"><time>2026-09-01T15:38:40Z</time></trkpt><trkpt lat="59.2552328110" lon="30.6857371330"><time>2026-09-01T15:38:43Z</time></trkpt><trkpt lat="59.2552328110" lon="30.6857371330"><time>2026-09-01T15:38:45Z</time></trkpt><trkpt lat="59.2552328110" lon="30.6857371330"><time>2026-09-01T15:38:48Z</time></trkpt><trkpt lat="59.2552328110" lon="30.6857371330"><time>2026-09-01T15:38:50Z</time></trkpt><trkpt lat="59.2552328110" lon="30.6857371330"><time>2026-09-01T15:38:53Z</time></trkpt><trkpt lat="59.2552328110" lon="30.6857371330"><time>2026-09-01T15:38:55Z</time></trkpt><trkpt lat="59.2552328110" lon="30.6857371330"><time>2026-09-01T15:38:58Z</time></trkpt><trkpt lat="59.2552328110" lon="30.6857371330"><time>2026-09-01T15:39:00Z</time></trkpt><trkpt lat="59.2552328110" lon="30.6857371330"><time>2026-09-01T15:39:03Z</time></trkpt><trkpt lat="59.2552542686" lon="30.6857371330"><time>2026-09-01T15:39:05Z</time></trkpt><trkpt lat="59.2552542686" lon="30.6857371330"><time>2026-09-01T15:39:08Z</time></trkpt><trkpt lat="59.2552542686" lon="30.6857371330"><time>2026-09-01T15:39:10Z</time></trkpt><trkpt lat="59.2552328110" lon="30.6857156754"><time>2026-09-01T15:39:13Z</time></trkpt><trkpt lat="59.2552328110" lon="30.6857156754"><time>2026-09-01T15:39:15Z</time></trkpt><trkpt lat="59.2552328110" lon="30.6857156754"><time>2026-09-01T15:39:18Z</time></trkpt><trkpt lat="59.2552328110" lon="30.6857156754"><time>2026-09-01T15:39:20Z</time></trkpt><trkpt lat="59.2552328110" lon="30.6857156754"><time>2026-09-01T15:39:23Z</time></trkpt><trkpt lat="59.2552328110" lon="30.6857156754"><time>2026-09-01T15:39:25Z</time></trkpt><trkpt lat="59.2552328110" lon="30.6857156754"><time>2026-09-01T15:39:28Z</time></trkpt><trkpt lat="59.2552328110" lon="30.6857156754"><time>2026-09-01T15:39:30Z</time></trkpt><trkpt lat="59.2552328110" lon="30.6857156754"><time>2026-09-01T15:39:33Z</time></trkpt><trkpt lat="59.2552328110" lon="30.6857156754"><time>2026-09-01T15:39:35Z</time></trkpt><trkpt lat="59.2552328110" lon="30.6857156754"><time>2026-09-01T15:39:38Z</time></trkpt><trkpt lat="59.2552328110" lon="30.6857371330"><time>2026-09-01T15:39:40Z</time></trkpt><trkpt lat="59.2552328110" lon="30.6857371330"><time>2026-09-01T15:39:43Z</time></trkpt><trkpt lat="59.2552328110" lon="30.6857371330"><time>2026-09-01T15:39:45Z</time></trkpt><trkpt lat="59.2552328110" lon="30.6857371330"><time>2026-09-01T15:39:48Z</time></trkpt><trkpt lat="59.2552328110" lon="30.6857371330"><time>2026-09-01T15:39:50Z</time></trkpt><trkpt lat="59.2552328110" lon="30.6857371330"><time>2026-09-01T15:39:53Z</time></trkpt><trkpt lat="59.2552328110" lon="30.6857371330"><time>2026-09-01T15:39:55Z</time></trkpt><trkpt lat="59.2552328110" lon="30.6857371330"><time>2026-09-01T15:39:58Z</time></trkpt><trkpt lat="59.2552328110" lon="30.6857371330"><time>2026-09-01T15:40:00Z</time></trkpt><trkpt lat="59.2552328110" lon="30.6857371330"><time>2026-09-01T15:40:03Z</time></trkpt><trkpt lat="59.2552328110" lon="30.6857371330"><time>2026-09-01T15:40:05Z</time></trkpt><trkpt lat="59.2552328110" lon="30.6857371330"><time>2026-09-01T15:40:08Z</time></trkpt><trkpt lat="59.2552328110" lon="30.6857371330"><time>2026-09-01T15:40:10Z</time></trkpt><trkpt lat="59.2552328110" lon="30.6857371330"><time>2026-09-01T15:40:13Z</time></trkpt><trkpt lat="59.2552113533" lon="30.6856513023"><time>2026-09-01T15:40:15Z</time></trkpt><trkpt lat="59.2552328110" lon="30.6856727600"><time>2026-09-01T15:40:18Z</time></trkpt><trkpt lat="59.2552328110" lon="30.6857371330"><time>2026-09-01T15:40:20Z</time></trkpt><trkpt lat="59.2552542686" lon="30.6857585907"><time>2026-09-01T15:40:23Z</time></trkpt><trkpt lat="59.2552328110" lon="30.6857585907"><time>2026-09-01T15:40:25Z</time></trkpt><trkpt lat="59.2552328110" lon="30.6857585907"><time>2026-09-01T15:40:28Z</time></trkpt><trkpt lat="59.2552328110" lon="30.6857585907"><time>2026-09-01T15:40:30Z</time></trkpt><trkpt lat="59.2552328110" lon="30.6857585907"><time>2026-09-01T15:40:33Z</time></trkpt><trkpt lat="59.2552328110" lon="30.6857585907"><time>2026-09-01T15:40:35Z</time></trkpt><trkpt lat="59.2552328110" lon="30.6857156754"><time>2026-09-01T15:40:38Z</time></trkpt><trkpt lat="59.2552113533" lon="30.6857156754"><time>2026-09-01T15:40:40Z</time></trkpt><trkpt lat="59.2552113533" lon="30.6857156754"><time>2026-09-01T15:40:43Z</time></trkpt><trkpt lat="59.2552328110" lon="30.6857156754"><time>2026-09-01T15:40:45Z</time></trkpt><trkpt lat="59.2552328110" lon="30.6857156754"><time>2026-09-01T15:40:48Z</time></trkpt><trkpt lat="59.2552328110" lon="30.6857156754"><time>2026-09-01T15:40:50Z</time></trkpt><trkpt lat="59.2552328110" lon="30.6857156754"><time>2026-09-01T15:40:53Z</time></trkpt><trkpt lat="59.2552328110" lon="30.6857156754"><time>2026-09-01T15:40:55Z</time></trkpt><trkpt lat="59.2552328110" lon="30.6857156754"><time>2026-09-01T15:40:58Z</time></trkpt><trkpt lat="59.2552328110" lon="30.6857156754"><time>2026-09-01T15:41:00Z</time></trkpt><trkpt lat="59.2552328110" lon="30.6857156754"><time>2026-09-01T15:41:03Z</time></trkpt><trkpt lat="59.2552328110" lon="30.6857156754"><time>2026-09-01T15:41:05Z</time></trkpt><trkpt lat="59.2552328110" lon="30.6857156754"><time>2026-09-01T15:41:08Z</time></trkpt><trkpt lat="59.2552328110" lon="30.6856942177"><time>2026-09-01T15:41:10Z</time></trkpt><trkpt lat="59.2552328110" lon="30.6856942177"><time>2026-09-01T15:41:13Z</time></trkpt><trkpt lat="59.2552328110" lon="30.6856942177"><time>2026-09-01T15:41:15Z</time></trkpt><trkpt lat="59.2552328110" lon="30.6856942177"><time>2026-09-01T15:41:18Z</time></trkpt><trkpt lat="59.2552328110" lon="30.6856942177"><time>2026-09-01T15:41:20Z</time></trkpt><trkpt lat="59.2552328110" lon="30.6856942177"><time>2026-09-01T15:41:23Z</time></trkpt><trkpt lat="59.2552328110" lon="30.6856942177"><time>2026-09-01T15:41:25Z</time></trkpt><trkpt lat="59.2552328110" lon="30.6856942177"><time>2026-09-01T15:41:28Z</time></trkpt><trkpt lat="59.2552328110" lon="30.6856942177"><time>2026-09-01T15:41:30Z</time></trkpt><trkpt lat="59.2552328110" lon="30.6856942177"><time>2026-09-01T15:41:33Z</time></trkpt><trkpt lat="59.2552328110" lon="30.6856942177"><time>2026-09-01T15:41:35Z</time></trkpt><trkpt lat="59.2552328110" lon="30.6856942177"><time>2026-09-01T15:41:38Z</time></trkpt><trkpt lat="59.2552328110" lon="30.6856942177"><time>2026-09-01T15:41:40Z</time></trkpt><trkpt lat="59.2552328110" lon="30.6856942177"><time>2026-09-01T15:41:43Z</time></trkpt><trkpt lat="59.2552328110" lon="30.6856942177"><time>2026-09-01T15:41:45Z</time></trkpt><trkpt lat="59.2552328110" lon="30.6856942177"><time>2026-09-01T15:41:48Z</time></trkpt><trkpt lat="59.2552328110" lon="30.6856942177"><time>2026-09-01T15:41:50Z</time></trkpt><trkpt lat="59.2552328110" lon="30.6856942177"><time>2026-09-01T15:41:53Z</time></trkpt><trkpt lat="59.2552328110" lon="30.6856942177"><time>2026-09-01T15:41:55Z</time></trkpt><trkpt lat="59.2552328110" lon="30.6856942177"><time>2026-09-01T15:41:58Z</time></trkpt><trkpt lat="59.2552328110" lon="30.6856942177"><time>2026-09-01T15:42:00Z</time></trkpt><trkpt lat="59.2552328110" lon="30.6856942177"><time>2026-09-01T15:42:03Z</time></trkpt><trkpt lat="59.2552328110" lon="30.6856942177"><time>2026-09-01T15:42:05Z</time></trkpt><trkpt lat="59.2552328110" lon="30.6856942177"><time>2026-09-01T15:42:08Z</time></trkpt><trkpt lat="59.2552328110" lon="30.6856942177"><time>2026-09-01T15:42:10Z</time></trkpt><trkpt lat="59.2552328110" lon="30.6856942177"><time>2026-09-01T15:42:13Z</time></trkpt><trkpt lat="59.2552328110" lon="30.6856942177"><time>2026-09-01T15:42:15Z</time></trkpt><trkpt lat="59.2552328110" lon="30.6856942177"><time>2026-09-01T15:42:18Z</time></trkpt><trkpt lat="59.2552328110" lon="30.6856942177"><time>2026-09-01T15:42:20Z</time></trkpt><trkpt lat="59.2552328110" lon="30.6856942177"><time>2026-09-01T15:42:23Z</time></trkpt><trkpt lat="59.2552328110" lon="30.6856942177"><time>2026-09-01T15:42:25Z</time></trkpt><trkpt lat="59.2552328110" lon="30.6856942177"><time>2026-09-01T15:42:28Z</time></trkpt><trkpt lat="59.2552328110" lon="30.6856942177"><time>2026-09-01T15:42:30Z</time></trkpt><trkpt lat="59.2552328110" lon="30.6856942177"><time>2026-09-01T15:42:33Z</time></trkpt><trkpt lat="59.2552328110" lon="30.6856942177"><time>2026-09-01T15:42:35Z</time></trkpt><trkpt lat="59.2552328110" lon="30.6856942177"><time>2026-09-01T15:42:38Z</time></trkpt><trkpt lat="59.2552328110" lon="30.6856942177"><time>2026-09-01T15:42:40Z</time></trkpt><trkpt lat="59.2552328110" lon="30.6857371330"><time>2026-09-01T15:42:43Z</time></trkpt><trkpt lat="59.2552542686" lon="30.6857371330"><time>2026-09-01T15:42:45Z</time></trkpt><trkpt lat="59.2552542686" lon="30.6857156754"><time>2026-09-01T15:42:48Z</time></trkpt><trkpt lat="59.2552757263" lon="30.6856298447"><time>2026-09-01T15:42:50Z</time></trkpt><trkpt lat="59.2552542686" lon="30.6856513023"><time>2026-09-01T15:42:53Z</time></trkpt><trkpt lat="59.2552113533" lon="30.6856942177"><time>2026-09-01T15:42:55Z</time></trkpt><trkpt lat="59.2552113533" lon="30.6857156754"><time>2026-09-01T15:42:58Z</time></trkpt><trkpt lat="59.2552113533" lon="30.6857156754"><time>2026-09-01T15:43:00Z</time></trkpt><trkpt lat="59.2552113533" lon="30.6857156754"><time>2026-09-01T15:43:03Z</time></trkpt><trkpt lat="59.2552113533" lon="30.6857156754"><time>2026-09-01T15:43:05Z</time></trkpt><trkpt lat="59.2552113533" lon="30.6857156754"><time>2026-09-01T15:43:08Z</time></trkpt><trkpt lat="59.2552113533" lon="30.6857156754"><time>2026-09-01T15:43:10Z</time></trkpt><trkpt lat="59.2552113533" lon="30.6857156754"><time>2026-09-01T15:43:13Z</time></trkpt><trkpt lat="59.2552113533" lon="30.6857156754"><time>2026-09-01T15:43:15Z</time></trkpt><trkpt lat="59.2552113533" lon="30.6857156754"><time>2026-09-01T15:43:18Z</time></trkpt><trkpt lat="59.2552113533" lon="30.6857156754"><time>2026-09-01T15:43:20Z</time></trkpt><trkpt lat="59.2552113533" lon="30.6857156754"><time>2026-09-01T15:43:23Z</time></trkpt><trkpt lat="59.2552113533" lon="30.6857156754"><time>2026-09-01T15:43:25Z</time></trkpt><trkpt lat="59.2552113533" lon="30.6857156754"><time>2026-09-01T15:43:28Z</time></trkpt><trkpt lat="59.2552113533" lon="30.6857156754"><time>2026-09-01T15:43:30Z</time></trkpt><trkpt lat="59.2552113533" lon="30.6857156754"><time>2026-09-01T15:43:33Z</time></trkpt><trkpt lat="59.2552113533" lon="30.6857156754"><time>2026-09-01T15:43:35Z</time></trkpt><trkpt lat="59.2552113533" lon="30.6857156754"><time>2026-09-01T15:43:38Z</time></trkpt><trkpt lat="59.2552113533" lon="30.6857156754"><time>2026-09-01T15:43:40Z</time></trkpt><trkpt lat="59.2552113533" lon="30.6857156754"><time>2026-09-01T15:43:43Z</time></trkpt><trkpt lat="59.2552113533" lon="30.6857156754"><time>2026-09-01T15:43:45Z</time></trkpt><trkpt lat="59.2552113533" lon="30.6857156754"><time>2026-09-01T15:43:48Z</time></trkpt><trkpt lat="59.2552113533" lon="30.6857156754"><time>2026-09-01T15:43:50Z</time></trkpt><trkpt lat="59.2552113533" lon="30.6857156754"><time>2026-09-01T15:43:53Z</time></trkpt><trkpt lat="59.2552113533" lon="30.6857156754"><time>2026-09-01T15:43:58Z</time></trkpt><trkpt lat="59.2552113533" lon="30.6857156754"><time>2026-09-01T15:44:00Z</time></trkpt><trkpt lat="59.2552113533" lon="30.6857156754"><time>2026-09-01T15:44:03Z</time></trkpt><trkpt lat="59.2552113533" lon="30.6857156754"><time>2026-09-01T15:44:05Z</time></trkpt><trkpt lat="59.2552113533" lon="30.6857156754"><time>2026-09-01T15:44:08Z</time></trkpt><trkpt lat="59.2552113533" lon="30.6857156754"><time>2026-09-01T15:44:10Z</time></trkpt><trkpt lat="59.2552113533" lon="30.6857156754"><time>2026-09-01T15:44:13Z</time></trkpt><trkpt lat="59.2552113533" lon="30.6857156754"><time>2026-09-01T15:44:15Z</time></trkpt><trkpt lat="59.2552328110" lon="30.6857156754"><time>2026-09-01T15:44:20Z</time></trkpt><trkpt lat="59.2552328110" lon="30.6857156754"><time>2026-09-01T15:44:23Z</time></trkpt><trkpt lat="59.2552328110" lon="30.6857156754"><time>2026-09-01T15:44:28Z</time></trkpt><trkpt lat="59.2552328110" lon="30.6857156754"><time>2026-09-01T15:44:30Z</time></trkpt><trkpt lat="59.2552328110" lon="30.6857156754"><time>2026-09-01T15:44:33Z</time></trkpt><trkpt lat="59.2552328110" lon="30.6857156754"><time>2026-09-01T15:44:35Z</time></trkpt><trkpt lat="59.2552328110" lon="30.6857156754"><time>2026-09-01T15:44:38Z</time></trkpt><trkpt lat="59.2552328110" lon="30.6857156754"><time>2026-09-01T15:44:40Z</time></trkpt><trkpt lat="59.2552328110" lon="30.6857156754"><time>2026-09-01T15:44:43Z</time></trkpt><trkpt lat="59.2552328110" lon="30.6857156754"><time>2026-09-01T15:44:45Z</time></trkpt><trkpt lat="59.2552328110" lon="30.6857156754"><time>2026-09-01T15:44:48Z</time></trkpt><trkpt lat="59.2552328110" lon="30.6857156754"><time>2026-09-01T15:44:50Z</time></trkpt><trkpt lat="59.2552328110" lon="30.6857156754"><time>2026-09-01T15:44:53Z</time></trkpt><trkpt lat="59.2552328110" lon="30.6857156754"><time>2026-09-01T15:44:55Z</time></trkpt><trkpt lat="59.2552328110" lon="30.6857156754"><time>2026-09-01T15:44:58Z</time></trkpt><trkpt lat="59.2552328110" lon="30.6857156754"><time>2026-09-01T15:45:00Z</time></trkpt><trkpt lat="59.2552328110" lon="30.6857156754"><time>2026-09-01T15:45:03Z</time></trkpt><trkpt lat="59.2552328110" lon="30.6857156754"><time>2026-09-01T15:45:05Z</time></trkpt><trkpt lat="59.2552328110" lon="30.6857156754"><time>2026-09-01T15:45:08Z</time></trkpt><trkpt lat="59.2552328110" lon="30.6857156754"><time>2026-09-01T15:45:10Z</time></trkpt><trkpt lat="59.2552328110" lon="30.6857156754"><time>2026-09-01T15:45:13Z</time></trkpt><trkpt lat="59.2552328110" lon="30.6857156754"><time>2026-09-01T15:45:15Z</time></trkpt><trkpt lat="59.2552328110" lon="30.6857156754"><time>2026-09-01T15:45:18Z</time></trkpt><trkpt lat="59.2552328110" lon="30.6857156754"><time>2026-09-01T15:45:20Z</time></trkpt><trkpt lat="59.2552328110" lon="30.6857156754"><time>2026-09-01T15:45:23Z</time></trkpt><trkpt lat="59.2552113533" lon="30.6857156754"><time>2026-09-01T15:45:25Z</time></trkpt><trkpt lat="59.2552113533" lon="30.6857156754"><time>2026-09-01T15:45:28Z</time></trkpt><trkpt lat="59.2552113533" lon="30.6857156754"><time>2026-09-01T15:45:30Z</time></trkpt><trkpt lat="59.2552113533" lon="30.6857156754"><time>2026-09-01T15:45:33Z</time></trkpt><trkpt lat="59.2552113533" lon="30.6857156754"><time>2026-09-01T15:45:35Z</time></trkpt><trkpt lat="59.2552113533" lon="30.6857156754"><time>2026-09-01T15:45:38Z</time></trkpt><trkpt lat="59.2552113533" lon="30.6857156754"><time>2026-09-01T15:45:40Z</time></trkpt><trkpt lat="59.2552113533" lon="30.6857156754"><time>2026-09-01T15:45:43Z</time></trkpt><trkpt lat="59.2552113533" lon="30.6857156754"><time>2026-09-01T15:45:45Z</time></trkpt><trkpt lat="59.2552113533" lon="30.6857156754"><time>2026-09-01T15:45:48Z</time></trkpt><trkpt lat="59.2552113533" lon="30.6857156754"><time>2026-09-01T15:45:50Z</time></trkpt><trkpt lat="59.2552113533" lon="30.6857156754"><time>2026-09-01T15:45:53Z</time></trkpt><trkpt lat="59.2552113533" lon="30.6857156754"><time>2026-09-01T15:45:55Z</time></trkpt><trkpt lat="59.2552113533" lon="30.6857156754"><time>2026-09-01T15:45:58Z</time></trkpt><trkpt lat="59.2552113533" lon="30.6857156754"><time>2026-09-01T15:46:00Z</time></trkpt><trkpt lat="59.2552113533" lon="30.6857156754"><time>2026-09-01T15:46:03Z</time></trkpt><trkpt lat="59.2552113533" lon="30.6857156754"><time>2026-09-01T15:46:05Z</time></trkpt><trkpt lat="59.2552113533" lon="30.6857156754"><time>2026-09-01T15:46:08Z</time></trkpt><trkpt lat="59.2552113533" lon="30.6857156754"><time>2026-09-01T15:46:10Z</time></trkpt><trkpt lat="59.2552113533" lon="30.6857156754"><time>2026-09-01T15:46:13Z</time></trkpt><trkpt lat="59.2552113533" lon="30.6857156754"><time>2026-09-01T15:46:15Z</time></trkpt><trkpt lat="59.2552113533" lon="30.6857156754"><time>2026-09-01T15:46:18Z</time></trkpt><trkpt lat="59.2552113533" lon="30.6857156754"><time>2026-09-01T15:46:20Z</time></trkpt><trkpt lat="59.2552113533" lon="30.6857156754"><time>2026-09-01T15:46:23Z</time></trkpt><trkpt lat="59.2552113533" lon="30.6857156754"><time>2026-09-01T15:46:25Z</time></trkpt><trkpt lat="59.2552113533" lon="30.6857156754"><time>2026-09-01T15:46:28Z</time></trkpt><trkpt lat="59.2552113533" lon="30.6857156754"><time>2026-09-01T15:46:30Z</time></trkpt><trkpt lat="59.2552113533" lon="30.6857156754"><time>2026-09-01T15:46:33Z</time></trkpt><trkpt lat="59.2552113533" lon="30.6857156754"><time>2026-09-01T15:46:35Z</time></trkpt><trkpt lat="59.2552113533" lon="30.6857156754"><time>2026-09-01T15:46:38Z</time></trkpt><trkpt lat="59.2552113533" lon="30.6857156754"><time>2026-09-01T15:46:40Z</time></trkpt><trkpt lat="59.2552113533" lon="30.6857156754"><time>2026-09-01T15:46:43Z</time></trkpt><trkpt lat="59.2552113533" lon="30.6857156754"><time>2026-09-01T15:46:45Z</time></trkpt><trkpt lat="59.2552113533" lon="30.6857156754"><time>2026-09-01T15:46:48Z</time></trkpt><trkpt lat="59.2552113533" lon="30.6857156754"><time>2026-09-01T15:46:50Z</time></trkpt><trkpt lat="59.2552113533" lon="30.6857156754"><time>2026-09-01T15:46:53Z</time></trkpt><trkpt lat="59.2552113533" lon="30.6857156754"><time>2026-09-01T15:46:55Z</time></trkpt><trkpt lat="59.2552113533" lon="30.6857156754"><time>2026-09-01T15:46:58Z</time></trkpt><trkpt lat="59.2552113533" lon="30.6857156754"><time>2026-09-01T15:47:00Z</time></trkpt><trkpt lat="59.2552113533" lon="30.6857156754"><time>2026-09-01T15:47:03Z</time></trkpt><trkpt lat="59.2552113533" lon="30.6857156754"><time>2026-09-01T15:47:05Z</time></trkpt><trkpt lat="59.2552113533" lon="30.6857156754"><time>2026-09-01T15:47:08Z</time></trkpt><trkpt lat="59.2552113533" lon="30.6857156754"><time>2026-09-01T15:47:10Z</time></trkpt><trkpt lat="59.2552113533" lon="30.6857156754"><time>2026-09-01T15:47:13Z</time></trkpt><trkpt lat="59.2552113533" lon="30.6857156754"><time>2026-09-01T15:47:15Z</time></trkpt><trkpt lat="59.2552113533" lon="30.6857156754"><time>2026-09-01T15:47:18Z</time></trkpt><trkpt lat="59.2552113533" lon="30.6857156754"><time>2026-09-01T15:47:20Z</time></trkpt><trkpt lat="59.2552113533" lon="30.6857156754"><time>2026-09-01T15:47:23Z</time></trkpt><trkpt lat="59.2552113533" lon="30.6857156754"><time>2026-09-01T15:47:25Z</time></trkpt><trkpt lat="59.2552113533" lon="30.6857156754"><time>2026-09-01T15:47:28Z</time></trkpt><trkpt lat="59.2552113533" lon="30.6857156754"><time>2026-09-01T15:47:30Z</time></trkpt><trkpt lat="59.2552113533" lon="30.6857156754"><time>2026-09-01T15:47:33Z</time></trkpt><trkpt lat="59.2552113533" lon="30.6857156754"><time>2026-09-01T15:47:35Z</time></trkpt><trkpt lat="59.2552113533" lon="30.6857156754"><time>2026-09-01T15:47:38Z</time></trkpt><trkpt lat="59.2552113533" lon="30.6857156754"><time>2026-09-01T15:47:40Z</time></trkpt><trkpt lat="59.2552113533" lon="30.6857156754"><time>2026-09-01T15:47:43Z</time></trkpt><trkpt lat="59.2552113533" lon="30.6857156754"><time>2026-09-01T15:47:45Z</time></trkpt><trkpt lat="59.2552113533" lon="30.6857156754"><time>2026-09-01T15:47:48Z</time></trkpt><trkpt lat="59.2552113533" lon="30.6857156754"><time>2026-09-01T15:47:50Z</time></trkpt><trkpt lat="59.2552113533" lon="30.6857156754"><time>2026-09-01T15:47:53Z</time></trkpt><trkpt lat="59.2552113533" lon="30.6857156754"><time>2026-09-01T15:47:55Z</time></trkpt><trkpt lat="59.2552113533" lon="30.6857156754"><time>2026-09-01T15:47:58Z</time></trkpt><trkpt lat="59.2552113533" lon="30.6857156754"><time>2026-09-01T15:48:00Z</time></trkpt><trkpt lat="59.2552113533" lon="30.6857156754"><time>2026-09-01T15:48:03Z</time></trkpt><trkpt lat="59.2552113533" lon="30.6857156754"><time>2026-09-01T15:48:05Z</time></trkpt><trkpt lat="59.2552113533" lon="30.6857156754"><time>2026-09-01T15:48:08Z</time></trkpt><trkpt lat="59.2552113533" lon="30.6857156754"><time>2026-09-01T15:48:10Z</time></trkpt><trkpt lat="59.2552113533" lon="30.6857156754"><time>2026-09-01T15:48:13Z</time></trkpt><trkpt lat="59.2552113533" lon="30.6857156754"><time>2026-09-01T15:48:15Z</time></trkpt><trkpt lat="59.2552113533" lon="30.6857156754"><time>2026-09-01T15:48:18Z</time></trkpt><trkpt lat="59.2552113533" lon="30.6857156754"><time>2026-09-01T15:48:20Z</time></trkpt><trkpt lat="59.2552113533" lon="30.6857156754"><time>2026-09-01T15:48:23Z</time></trkpt><trkpt lat="59.2552113533" lon="30.6857156754"><time>2026-09-01T15:48:25Z</time></trkpt><trkpt lat="59.2552113533" lon="30.6857156754"><time>2026-09-01T15:48:28Z</time></trkpt><trkpt lat="59.2552113533" lon="30.6857156754"><time>2026-09-01T15:48:30Z</time></trkpt><trkpt lat="59.2552113533" lon="30.6857156754"><time>2026-09-01T15:48:33Z</time></trkpt><trkpt lat="59.2552113533" lon="30.6857156754"><time>2026-09-01T15:48:35Z</time></trkpt><trkpt lat="59.2552113533" lon="30.6857156754"><time>2026-09-01T15:48:38Z</time></trkpt><trkpt lat="59.2552113533" lon="30.6857156754"><time>2026-09-01T15:48:40Z</time></trkpt><trkpt lat="59.2552113533" lon="30.6857156754"><time>2026-09-01T15:48:43Z</time></trkpt><trkpt lat="59.2552113533" lon="30.6857156754"><time>2026-09-01T15:48:45Z</time></trkpt><trkpt lat="59.2552113533" lon="30.6857371330"><time>2026-09-01T15:48:48Z</time></trkpt><trkpt lat="59.2552113533" lon="30.6857371330"><time>2026-09-01T15:48:50Z</time></trkpt><trkpt lat="59.2552113533" lon="30.6857371330"><time>2026-09-01T15:48:53Z</time></trkpt><trkpt lat="59.2552113533" lon="30.6857371330"><time>2026-09-01T15:48:55Z</time></trkpt><trkpt lat="59.2552113533" lon="30.6857371330"><time>2026-09-01T15:48:58Z</time></trkpt><trkpt lat="59.2552113533" lon="30.6857371330"><time>2026-09-01T15:49:00Z</time></trkpt><trkpt lat="59.2552113533" lon="30.6857371330"><time>2026-09-01T15:49:03Z</time></trkpt><trkpt lat="59.2552113533" lon="30.6857371330"><time>2026-09-01T15:49:05Z</time></trkpt><trkpt lat="59.2552113533" lon="30.6857371330"><time>2026-09-01T15:49:08Z</time></trkpt><trkpt lat="59.2552113533" lon="30.6857371330"><time>2026-09-01T15:49:10Z</time></trkpt><trkpt lat="59.2552113533" lon="30.6857371330"><time>2026-09-01T15:49:13Z</time></trkpt><trkpt lat="59.2552113533" lon="30.6857371330"><time>2026-09-01T15:49:15Z</time></trkpt><trkpt lat="59.2552113533" lon="30.6857371330"><time>2026-09-01T15:49:18Z</time></trkpt><trkpt lat="59.2552113533" lon="30.6857371330"><time>2026-09-01T15:49:20Z</time></trkpt><trkpt lat="59.2552113533" lon="30.6857371330"><time>2026-09-01T15:49:23Z</time></trkpt><trkpt lat="59.2552113533" lon="30.6857371330"><time>2026-09-01T15:49:25Z</time></trkpt><trkpt lat="59.2552113533" lon="30.6857371330"><time>2026-09-01T15:49:28Z</time></trkpt><trkpt lat="59.2552113533" lon="30.6857371330"><time>2026-09-01T15:49:30Z</time></trkpt><trkpt lat="59.2552113533" lon="30.6857371330"><time>2026-09-01T15:49:33Z</time></trkpt><trkpt lat="59.2552113533" lon="30.6857371330"><time>2026-09-01T15:49:35Z</time></trkpt><trkpt lat="59.2552113533" lon="30.6857371330"><time>2026-09-01T15:49:38Z</time></trkpt><trkpt lat="59.2552113533" lon="30.6857371330"><time>2026-09-01T15:49:40Z</time></trkpt><trkpt lat="59.2552113533" lon="30.6857371330"><time>2026-09-01T15:49:43Z</time></trkpt><trkpt lat="59.2552113533" lon="30.6857371330"><time>2026-09-01T15:49:45Z</time></trkpt><trkpt lat="59.2552113533" lon="30.6857371330"><time>2026-09-01T15:49:48Z</time></trkpt><trkpt lat="59.2552113533" lon="30.6857371330"><time>2026-09-01T15:49:50Z</time></trkpt><trkpt lat="59.2552113533" lon="30.6857371330"><time>2026-09-01T15:49:53Z</time></trkpt><trkpt lat="59.2552113533" lon="30.6857371330"><time>2026-09-01T15:49:55Z</time></trkpt><trkpt lat="59.2552113533" lon="30.6857371330"><time>2026-09-01T15:49:58Z</time></trkpt><trkpt lat="59.2552113533" lon="30.6857371330"><time>2026-09-01T15:50:00Z</time></trkpt><trkpt lat="59.2552113533" lon="30.6857371330"><time>2026-09-01T15:50:03Z</time></trkpt><trkpt lat="59.2552113533" lon="30.6857371330"><time>2026-09-01T15:50:05Z</time></trkpt><trkpt lat="59.2552113533" lon="30.6857371330"><time>2026-09-01T15:50:08Z</time></trkpt><trkpt lat="59.2552113533" lon="30.6857371330"><time>2026-09-01T15:50:10Z</time></trkpt><trkpt lat="59.2552113533" lon="30.6857371330"><time>2026-09-01T15:50:13Z</time></trkpt><trkpt lat="59.2552113533" lon="30.6857371330"><time>2026-09-01T15:50:15Z</time></trkpt><trkpt lat="59.2552113533" lon="30.6857371330"><time>2026-09-01T15:50:18Z</time></trkpt><trkpt lat="59.2552113533" lon="30.6857371330"><time>2026-09-01T15:50:20Z</time></trkpt><trkpt lat="59.2552113533" lon="30.6857371330"><time>2026-09-01T15:50:23Z</time></trkpt><trkpt lat="59.2552113533" lon="30.6857156754"><time>2026-09-01T15:50:25Z</time></trkpt><trkpt lat="59.2552113533" lon="30.6857156754"><time>2026-09-01T15:50:28Z</time></trkpt><trkpt lat="59.2552113533" lon="30.6857156754"><time>2026-09-01T15:50:30Z</time></trkpt><trkpt lat="59.2552113533" lon="30.6857156754"><time>2026-09-01T15:50:33Z</time></trkpt><trkpt lat="59.2552113533" lon="30.6857156754"><time>2026-09-01T15:50:35Z</time></trkpt><trkpt lat="59.2552113533" lon="30.6857156754"><time>2026-09-01T15:50:38Z</time></trkpt><trkpt lat="59.2552113533" lon="30.6857156754"><time>2026-09-01T15:50:40Z</time></trkpt><trkpt lat="59.2552113533" lon="30.6857156754"><time>2026-09-01T15:50:43Z</time></trkpt><trkpt lat="59.2552113533" lon="30.6857156754"><time>2026-09-01T15:50:45Z</time></trkpt><trkpt lat="59.2552113533" lon="30.6857156754"><time>2026-09-01T15:50:48Z</time></trkpt><trkpt lat="59.2552113533" lon="30.6857156754"><time>2026-09-01T15:50:50Z</time></trkpt><trkpt lat="59.2552113533" lon="30.6857156754"><time>2026-09-01T15:50:53Z</time></trkpt><trkpt lat="59.2552113533" lon="30.6857156754"><time>2026-09-01T15:50:55Z</time></trkpt><trkpt lat="59.2552113533" lon="30.6857156754"><time>2026-09-01T15:50:58Z</time></trkpt><trkpt lat="59.2552113533" lon="30.6857156754"><time>2026-09-01T15:51:00Z</time></trkpt><trkpt lat="59.2552113533" lon="30.6857156754"><time>2026-09-01T15:51:03Z</time></trkpt><trkpt lat="59.2552113533" lon="30.6857156754"><time>2026-09-01T15:51:05Z</time></trkpt><trkpt lat="59.2552113533" lon="30.6857156754"><time>2026-09-01T15:51:08Z</time></trkpt><trkpt lat="59.2551898956" lon="30.6857371330"><time>2026-09-01T15:51:10Z</time></trkpt><trkpt lat="59.2552113533" lon="30.6857156754"><time>2026-09-01T15:51:13Z</time></trkpt><trkpt lat="59.2552113533" lon="30.6857156754"><time>2026-09-01T15:51:15Z</time></trkpt><trkpt lat="59.2552113533" lon="30.6857156754"><time>2026-09-01T15:51:18Z</time></trkpt><trkpt lat="59.2552113533" lon="30.6857156754"><time>2026-09-01T15:51:20Z</time></trkpt><trkpt lat="59.2552113533" lon="30.6857156754"><time>2026-09-01T15:51:23Z</time></trkpt><trkpt lat="59.2552113533" lon="30.6857156754"><time>2026-09-01T15:51:25Z</time></trkpt><trkpt lat="59.2552113533" lon="30.6857156754"><time>2026-09-01T15:51:28Z</time></trkpt><trkpt lat="59.2552113533" lon="30.6857156754"><time>2026-09-01T15:51:30Z</time></trkpt><trkpt lat="59.2552328110" lon="30.6857371330"><time>2026-09-01T15:51:33Z</time></trkpt><trkpt lat="59.2552328110" lon="30.6857371330"><time>2026-09-01T15:51:35Z</time></trkpt><trkpt lat="59.2552113533" lon="30.6857371330"><time>2026-09-01T15:51:38Z</time></trkpt><trkpt lat="59.2552113533" lon="30.6857371330"><time>2026-09-01T15:51:40Z</time></trkpt><trkpt lat="59.2552113533" lon="30.6857371330"><time>2026-09-01T15:51:43Z</time></trkpt><trkpt lat="59.2552113533" lon="30.6857371330"><time>2026-09-01T15:51:45Z</time></trkpt><trkpt lat="59.2552113533" lon="30.6857371330"><time>2026-09-01T15:51:48Z</time></trkpt><trkpt lat="59.2552113533" lon="30.6857371330"><time>2026-09-01T15:51:50Z</time></trkpt><trkpt lat="59.2552113533" lon="30.6857371330"><time>2026-09-01T15:51:53Z</time></trkpt><trkpt lat="59.2552113533" lon="30.6857371330"><time>2026-09-01T15:51:55Z</time></trkpt><trkpt lat="59.2552113533" lon="30.6857371330"><time>2026-09-01T15:51:58Z</time></trkpt><trkpt lat="59.2552113533" lon="30.6857371330"><time>2026-09-01T15:52:00Z</time></trkpt><trkpt lat="59.2552113533" lon="30.6857371330"><time>2026-09-01T15:52:03Z</time></trkpt><trkpt lat="59.2552113533" lon="30.6857371330"><time>2026-09-01T15:52:05Z</time></trkpt><trkpt lat="59.2552113533" lon="30.6857371330"><time>2026-09-01T15:52:08Z</time></trkpt><trkpt lat="59.2552113533" lon="30.6857371330"><time>2026-09-01T15:52:10Z</time></trkpt><trkpt lat="59.2552113533" lon="30.6857371330"><time>2026-09-01T15:52:13Z</time></trkpt><trkpt lat="59.2552113533" lon="30.6857371330"><time>2026-09-01T15:52:15Z</time></trkpt><trkpt lat="59.2552328110" lon="30.6857371330"><time>2026-09-01T15:52:18Z</time></trkpt><trkpt lat="59.2552113533" lon="30.6857371330"><time>2026-09-01T15:52:20Z</time></trkpt><trkpt lat="59.2552113533" lon="30.6857371330"><time>2026-09-01T15:52:23Z</time></trkpt><trkpt lat="59.2552113533" lon="30.6857371330"><time>2026-09-01T15:52:25Z</time></trkpt><trkpt lat="59.2552113533" lon="30.6857371330"><time>2026-09-01T15:52:28Z</time></trkpt><trkpt lat="59.2552113533" lon="30.6857371330"><time>2026-09-01T15:52:30Z</time></trkpt><trkpt lat="59.2552113533" lon="30.6857371330"><time>2026-09-01T15:52:33Z</time></trkpt><trkpt lat="59.2552113533" lon="30.6857371330"><time>2026-09-01T15:52:35Z</time></trkpt><trkpt lat="59.2552113533" lon="30.6857371330"><time>2026-09-01T15:52:38Z</time></trkpt><trkpt lat="59.2552113533" lon="30.6857371330"><time>2026-09-01T15:52:40Z</time></trkpt><trkpt lat="59.2552113533" lon="30.6857371330"><time>2026-09-01T15:52:43Z</time></trkpt><trkpt lat="59.2552113533" lon="30.6857371330"><time>2026-09-01T15:52:45Z</time></trkpt><trkpt lat="59.2552113533" lon="30.6857371330"><time>2026-09-01T15:52:48Z</time></trkpt><trkpt lat="59.2552113533" lon="30.6857371330"><time>2026-09-01T15:52:50Z</time></trkpt><trkpt lat="59.2552113533" lon="30.6857371330"><time>2026-09-01T15:52:53Z</time></trkpt><trkpt lat="59.2552113533" lon="30.6857371330"><time>2026-09-01T15:52:55Z</time></trkpt><trkpt lat="59.2552113533" lon="30.6857371330"><time>2026-09-01T15:52:58Z</time></trkpt><trkpt lat="59.2552113533" lon="30.6857371330"><time>2026-09-01T15:53:00Z</time></trkpt><trkpt lat="59.2552113533" lon="30.6857371330"><time>2026-09-01T15:53:03Z</time></trkpt><trkpt lat="59.2552113533" lon="30.6857371330"><time>2026-09-01T15:53:05Z</time></trkpt><trkpt lat="59.2552113533" lon="30.6857371330"><time>2026-09-01T15:53:08Z</time></trkpt><trkpt lat="59.2552113533" lon="30.6857371330"><time>2026-09-01T15:53:10Z</time></trkpt><trkpt lat="59.2552113533" lon="30.6857371330"><time>2026-09-01T15:53:13Z</time></trkpt><trkpt lat="59.2552113533" lon="30.6857371330"><time>2026-09-01T15:53:15Z</time></trkpt><trkpt lat="59.2552113533" lon="30.6857371330"><time>2026-09-01T15:53:18Z</time></trkpt><trkpt lat="59.2552113533" lon="30.6857371330"><time>2026-09-01T15:53:20Z</time></trkpt><trkpt lat="59.2552113533" lon="30.6857371330"><time>2026-09-01T15:53:23Z</time></trkpt><trkpt lat="59.2552113533" lon="30.6857371330"><time>2026-09-01T15:53:25Z</time></trkpt><trkpt lat="59.2552113533" lon="30.6857371330"><time>2026-09-01T15:53:30Z</time></trkpt><trkpt lat="59.2552113533" lon="30.6857371330"><time>2026-09-01T15:53:33Z</time></trkpt><trkpt lat="59.2552113533" lon="30.6857371330"><time>2026-09-01T15:53:35Z</time></trkpt><trkpt lat="59.2552113533" lon="30.6857371330"><time>2026-09-01T15:53:38Z</time></trkpt><trkpt lat="59.2552113533" lon="30.6857371330"><time>2026-09-01T15:53:40Z</time></trkpt><trkpt lat="59.2552113533" lon="30.6857371330"><time>2026-09-01T15:53:43Z</time></trkpt><trkpt lat="59.2552113533" lon="30.6857371330"><time>2026-09-01T15:53:45Z</time></trkpt><trkpt lat="59.2552113533" lon="30.6857371330"><time>2026-09-01T15:53:48Z</time></trkpt><trkpt lat="59.2552113533" lon="30.6857371330"><time>2026-09-01T15:53:50Z</time></trkpt><trkpt lat="59.2552113533" lon="30.6857371330"><time>2026-09-01T15:53:53Z</time></trkpt><trkpt lat="59.2552113533" lon="30.6857371330"><time>2026-09-01T15:53:55Z</time></trkpt><trkpt lat="59.2552113533" lon="30.6857371330"><time>2026-09-01T15:53:58Z</time></trkpt><trkpt lat="59.2552113533" lon="30.6857371330"><time>2026-09-01T15:54:00Z</time></trkpt><trkpt lat="59.2552113533" lon="30.6857371330"><time>2026-09-01T15:54:03Z</time></trkpt><trkpt lat="59.2552113533" lon="30.6857371330"><time>2026-09-01T15:54:05Z</time></trkpt><trkpt lat="59.2552113533" lon="30.6857371330"><time>2026-09-01T15:54:08Z</time></trkpt><trkpt lat="59.2552113533" lon="30.6857371330"><time>2026-09-01T15:54:10Z</time></trkpt><trkpt lat="59.2552113533" lon="30.6857371330"><time>2026-09-01T15:54:13Z</time></trkpt><trkpt lat="59.2552113533" lon="30.6857371330"><time>2026-09-01T15:54:15Z</time></trkpt><trkpt lat="59.2552113533" lon="30.6857371330"><time>2026-09-01T15:54:18Z</time></trkpt><trkpt lat="59.2552113533" lon="30.6857371330"><time>2026-09-01T15:54:20Z</time></trkpt><trkpt lat="59.2552113533" lon="30.6857371330"><time>2026-09-01T15:54:23Z</time></trkpt><trkpt lat="59.2552113533" lon="30.6857371330"><time>2026-09-01T15:54:25Z</time></trkpt><trkpt lat="59.2552113533" lon="30.6857371330"><time>2026-09-01T15:54:28Z</time></trkpt><trkpt lat="59.2552113533" lon="30.6857371330"><time>2026-09-01T15:54:30Z</time></trkpt><trkpt lat="59.2552113533" lon="30.6857371330"><time>2026-09-01T15:54:33Z</time></trkpt><trkpt lat="59.2552113533" lon="30.6857371330"><time>2026-09-01T15:54:35Z</time></trkpt><trkpt lat="59.2552113533" lon="30.6857371330"><time>2026-09-01T15:54:38Z</time></trkpt><trkpt lat="59.2552113533" lon="30.6857371330"><time>2026-09-01T15:54:40Z</time></trkpt><trkpt lat="59.2552113533" lon="30.6857371330"><time>2026-09-01T15:54:43Z</time></trkpt><trkpt lat="59.2552113533" lon="30.6857371330"><time>2026-09-01T15:54:45Z</time></trkpt><trkpt lat="59.2552113533" lon="30.6857371330"><time>2026-09-01T15:54:48Z</time></trkpt><trkpt lat="59.2552113533" lon="30.6857371330"><time>2026-09-01T15:54:50Z</time></trkpt><trkpt lat="59.2552113533" lon="30.6857371330"><time>2026-09-01T15:54:53Z</time></trkpt><trkpt lat="59.2552113533" lon="30.6857371330"><time>2026-09-01T15:54:55Z</time></trkpt><trkpt lat="59.2552113533" lon="30.6857371330"><time>2026-09-01T15:54:58Z</time></trkpt><trkpt lat="59.2552113533" lon="30.6857371330"><time>2026-09-01T15:55:00Z</time></trkpt><trkpt lat="59.2552113533" lon="30.6857371330"><time>2026-09-01T15:55:03Z</time></trkpt><trkpt lat="59.2552113533" lon="30.6857371330"><time>2026-09-01T15:55:05Z</time></trkpt><trkpt lat="59.2552113533" lon="30.6857371330"><time>2026-09-01T15:55:08Z</time></trkpt><trkpt lat="59.2552113533" lon="30.6857371330"><time>2026-09-01T15:55:10Z</time></trkpt><trkpt lat="59.2552113533" lon="30.6857371330"><time>2026-09-01T15:55:13Z</time></trkpt><trkpt lat="59.2552113533" lon="30.6857371330"><time>2026-09-01T15:55:15Z</time></trkpt><trkpt lat="59.2552113533" lon="30.6857371330"><time>2026-09-01T15:55:18Z</time></trkpt><trkpt lat="59.2552113533" lon="30.6857585907"><time>2026-09-01T15:55:20Z</time></trkpt><trkpt lat="59.2552113533" lon="30.6857585907"><time>2026-09-01T15:55:23Z</time></trkpt><trkpt lat="59.2552113533" lon="30.6857585907"><time>2026-09-01T15:55:25Z</time></trkpt><trkpt lat="59.2552113533" lon="30.6857585907"><time>2026-09-01T15:55:28Z</time></trkpt><trkpt lat="59.2552113533" lon="30.6857585907"><time>2026-09-01T15:55:30Z</time></trkpt><trkpt lat="59.2552113533" lon="30.6857585907"><time>2026-09-01T15:55:33Z</time></trkpt><trkpt lat="59.2552113533" lon="30.6857585907"><time>2026-09-01T15:55:35Z</time></trkpt><trkpt lat="59.2552113533" lon="30.6857585907"><time>2026-09-01T15:55:38Z</time></trkpt><trkpt lat="59.2552328110" lon="30.6857585907"><time>2026-09-01T15:55:40Z</time></trkpt><trkpt lat="59.2552328110" lon="30.6857585907"><time>2026-09-01T15:55:43Z</time></trkpt><trkpt lat="59.2552328110" lon="30.6857585907"><time>2026-09-01T15:55:45Z</time></trkpt><trkpt lat="59.2552542686" lon="30.6857371330"><time>2026-09-01T15:55:48Z</time></trkpt><trkpt lat="59.2552542686" lon="30.6857371330"><time>2026-09-01T15:55:50Z</time></trkpt><trkpt lat="59.2552542686" lon="30.6857371330"><time>2026-09-01T15:55:53Z</time></trkpt><trkpt lat="59.2552542686" lon="30.6857371330"><time>2026-09-01T15:55:55Z</time></trkpt><trkpt lat="59.2552542686" lon="30.6857371330"><time>2026-09-01T15:55:58Z</time></trkpt><trkpt lat="59.2552542686" lon="30.6857371330"><time>2026-09-01T15:56:00Z</time></trkpt><trkpt lat="59.2552542686" lon="30.6857585907"><time>2026-09-01T15:56:03Z</time></trkpt><trkpt lat="59.2552542686" lon="30.6857371330"><time>2026-09-01T15:56:05Z</time></trkpt><trkpt lat="59.2552542686" lon="30.6857156754"><time>2026-09-01T15:56:08Z</time></trkpt><trkpt lat="59.2552542686" lon="30.6857585907"><time>2026-09-01T15:56:10Z</time></trkpt><trkpt lat="59.2552542686" lon="30.6857585907"><time>2026-09-01T15:56:13Z</time></trkpt><trkpt lat="59.2552113533" lon="30.6857800484"><time>2026-09-01T15:56:15Z</time></trkpt><trkpt lat="59.2552328110" lon="30.6857800484"><time>2026-09-01T15:56:18Z</time></trkpt><trkpt lat="59.2552542686" lon="30.6857585907"><time>2026-09-01T15:56:20Z</time></trkpt><trkpt lat="59.2552542686" lon="30.6857585907"><time>2026-09-01T15:56:23Z</time></trkpt><trkpt lat="59.2552542686" lon="30.6857585907"><time>2026-09-01T15:56:25Z</time></trkpt><trkpt lat="59.2552542686" lon="30.6857585907"><time>2026-09-01T15:56:28Z</time></trkpt><trkpt lat="59.2552542686" lon="30.6857585907"><time>2026-09-01T15:56:30Z</time></trkpt><trkpt lat="59.2552542686" lon="30.6857585907"><time>2026-09-01T15:56:33Z</time></trkpt><trkpt lat="59.2552542686" lon="30.6857585907"><time>2026-09-01T15:56:35Z</time></trkpt><trkpt lat="59.2552542686" lon="30.6857585907"><time>2026-09-01T15:56:38Z</time></trkpt><trkpt lat="59.2552542686" lon="30.6857585907"><time>2026-09-01T15:56:40Z</time></trkpt><trkpt lat="59.2552542686" lon="30.6857585907"><time>2026-09-01T15:56:43Z</time></trkpt><trkpt lat="59.2552542686" lon="30.6857585907"><time>2026-09-01T15:56:45Z</time></trkpt><trkpt lat="59.2552542686" lon="30.6857585907"><time>2026-09-01T15:56:48Z</time></trkpt><trkpt lat="59.2552542686" lon="30.6857585907"><time>2026-09-01T15:56:50Z</time></trkpt><trkpt lat="59.2552542686" lon="30.6857585907"><time>2026-09-01T15:56:53Z</time></trkpt><trkpt lat="59.2552542686" lon="30.6857585907"><time>2026-09-01T15:56:55Z</time></trkpt><trkpt lat="59.2552542686" lon="30.6857585907"><time>2026-09-01T15:56:58Z</time></trkpt><trkpt lat="59.2552542686" lon="30.6857585907"><time>2026-09-01T15:57:00Z</time></trkpt><trkpt lat="59.2552542686" lon="30.6857585907"><time>2026-09-01T15:57:03Z</time></trkpt><trkpt lat="59.2552542686" lon="30.6857585907"><time>2026-09-01T15:57:05Z</time></trkpt><trkpt lat="59.2552542686" lon="30.6857585907"><time>2026-09-01T15:57:08Z</time></trkpt><trkpt lat="59.2552542686" lon="30.6857585907"><time>2026-09-01T15:57:10Z</time></trkpt><trkpt lat="59.2552542686" lon="30.6857585907"><time>2026-09-01T15:57:13Z</time></trkpt><trkpt lat="59.2552542686" lon="30.6857585907"><time>2026-09-01T15:57:15Z</time></trkpt><trkpt lat="59.2552542686" lon="30.6857585907"><time>2026-09-01T15:57:18Z</time></trkpt><trkpt lat="59.2552542686" lon="30.6857585907"><time>2026-09-01T15:57:20Z</time></trkpt><trkpt lat="59.2552542686" lon="30.6857585907"><time>2026-09-01T15:57:23Z</time></trkpt><trkpt lat="59.2552542686" lon="30.6857585907"><time>2026-09-01T15:57:25Z</time></trkpt><trkpt lat="59.2552542686" lon="30.6857585907"><time>2026-09-01T15:57:28Z</time></trkpt><trkpt lat="59.2552542686" lon="30.6857585907"><time>2026-09-01T15:57:30Z</time></trkpt><trkpt lat="59.2552542686" lon="30.6857585907"><time>2026-09-01T15:57:33Z</time></trkpt><trkpt lat="59.2552542686" lon="30.6857585907"><time>2026-09-01T15:57:35Z</time></trkpt><trkpt lat="59.2552542686" lon="30.6857585907"><time>2026-09-01T15:57:38Z</time></trkpt><trkpt lat="59.2552542686" lon="30.6857585907"><time>2026-09-01T15:57:40Z</time></trkpt><trkpt lat="59.2552542686" lon="30.6857585907"><time>2026-09-01T15:57:43Z</time></trkpt><trkpt lat="59.2552542686" lon="30.6857585907"><time>2026-09-01T15:57:45Z</time></trkpt><trkpt lat="59.2552542686" lon="30.6857585907"><time>2026-09-01T15:57:48Z</time></trkpt><trkpt lat="59.2552542686" lon="30.6857585907"><time>2026-09-01T15:57:50Z</time></trkpt><trkpt lat="59.2552542686" lon="30.6857585907"><time>2026-09-01T15:57:53Z</time></trkpt><trkpt lat="59.2552542686" lon="30.6857585907"><time>2026-09-01T15:57:55Z</time></trkpt><trkpt lat="59.2552542686" lon="30.6857585907"><time>2026-09-01T15:57:58Z</time></trkpt><trkpt lat="59.2552542686" lon="30.6857585907"><time>2026-09-01T15:58:00Z</time></trkpt><trkpt lat="59.2552542686" lon="30.6857585907"><time>2026-09-01T15:58:03Z</time></trkpt><trkpt lat="59.2552542686" lon="30.6857585907"><time>2026-09-01T15:58:08Z</time></trkpt><trkpt lat="59.2552542686" lon="30.6857585907"><time>2026-09-01T15:58:10Z</time></trkpt><trkpt lat="59.2552542686" lon="30.6857585907"><time>2026-09-01T15:58:13Z</time></trkpt><trkpt lat="59.2552542686" lon="30.6857585907"><time>2026-09-01T15:58:15Z</time></trkpt><trkpt lat="59.2552542686" lon="30.6857585907"><time>2026-09-01T15:58:18Z</time></trkpt><trkpt lat="59.2552328110" lon="30.6857585907"><time>2026-09-01T15:58:20Z</time></trkpt><trkpt lat="59.2552328110" lon="30.6857585907"><time>2026-09-01T15:58:23Z</time></trkpt><trkpt lat="59.2552328110" lon="30.6857585907"><time>2026-09-01T15:58:25Z</time></trkpt><trkpt lat="59.2552328110" lon="30.6857585907"><time>2026-09-01T15:58:28Z</time></trkpt><trkpt lat="59.2552328110" lon="30.6857585907"><time>2026-09-01T15:58:30Z</time></trkpt><trkpt lat="59.2552328110" lon="30.6857585907"><time>2026-09-01T15:58:33Z</time></trkpt><trkpt lat="59.2552328110" lon="30.6857585907"><time>2026-09-01T15:58:35Z</time></trkpt><trkpt lat="59.2552328110" lon="30.6857585907"><time>2026-09-01T15:58:38Z</time></trkpt><trkpt lat="59.2552328110" lon="30.6857800484"><time>2026-09-01T15:58:40Z</time></trkpt><trkpt lat="59.2552328110" lon="30.6857800484"><time>2026-09-01T15:58:43Z</time></trkpt><trkpt lat="59.2552328110" lon="30.6857800484"><time>2026-09-01T15:58:45Z</time></trkpt><trkpt lat="59.2552328110" lon="30.6857800484"><time>2026-09-01T15:58:48Z</time></trkpt><trkpt lat="59.2552328110" lon="30.6857800484"><time>2026-09-01T15:58:50Z</time></trkpt><trkpt lat="59.2552328110" lon="30.6857800484"><time>2026-09-01T15:58:53Z</time></trkpt><trkpt lat="59.2552328110" lon="30.6857800484"><time>2026-09-01T15:58:55Z</time></trkpt><trkpt lat="59.2552328110" lon="30.6857800484"><time>2026-09-01T15:58:58Z</time></trkpt><trkpt lat="59.2552328110" lon="30.6857800484"><time>2026-09-01T15:59:00Z</time></trkpt><trkpt lat="59.2552328110" lon="30.6857800484"><time>2026-09-01T15:59:03Z</time></trkpt><trkpt lat="59.2552328110" lon="30.6857800484"><time>2026-09-01T15:59:05Z</time></trkpt><trkpt lat="59.2552328110" lon="30.6857800484"><time>2026-09-01T15:59:08Z</time></trkpt><trkpt lat="59.2552328110" lon="30.6857800484"><time>2026-09-01T15:59:10Z</time></trkpt><trkpt lat="59.2552328110" lon="30.6857800484"><time>2026-09-01T15:59:13Z</time></trkpt><trkpt lat="59.2552328110" lon="30.6857800484"><time>2026-09-01T15:59:15Z</time></trkpt><trkpt lat="59.2552328110" lon="30.6857800484"><time>2026-09-01T15:59:18Z</time></trkpt><trkpt lat="59.2552328110" lon="30.6857800484"><time>2026-09-01T15:59:20Z</time></trkpt><trkpt lat="59.2552328110" lon="30.6857800484"><time>2026-09-01T15:59:23Z</time></trkpt><trkpt lat="59.2552328110" lon="30.6857800484"><time>2026-09-01T15:59:25Z</time></trkpt><trkpt lat="59.2552328110" lon="30.6857800484"><time>2026-09-01T15:59:28Z</time></trkpt><trkpt lat="59.2552328110" lon="30.6857800484"><time>2026-09-01T15:59:30Z</time></trkpt><trkpt lat="59.2552328110" lon="30.6857800484"><time>2026-09-01T15:59:33Z</time></trkpt><trkpt lat="59.2552328110" lon="30.6857800484"><time>2026-09-01T15:59:35Z</time></trkpt><trkpt lat="59.2552328110" lon="30.6857800484"><time>2026-09-01T15:59:38Z</time></trkpt><trkpt lat="59.2552328110" lon="30.6857800484"><time>2026-09-01T15:59:40Z</time></trkpt><trkpt lat="59.2552328110" lon="30.6857800484"><time>2026-09-01T15:59:43Z</time></trkpt><trkpt lat="59.2552328110" lon="30.6857800484"><time>2026-09-01T15:59:45Z</time></trkpt><trkpt lat="59.2552328110" lon="30.6857800484"><time>2026-09-01T15:59:48Z</time></trkpt><trkpt lat="59.2552328110" lon="30.6857800484"><time>2026-09-01T15:59:50Z</time></trkpt><trkpt lat="59.2552328110" lon="30.6857800484"><time>2026-09-01T15:59:53Z</time></trkpt><trkpt lat="59.2552328110" lon="30.6857800484"><time>2026-09-01T15:59:55Z</time></trkpt><trkpt lat="59.2552328110" lon="30.6857800484"><time>2026-09-01T15:59:58Z</time></trkpt><trkpt lat="59.2552328110" lon="30.6857585907"><time>2026-09-01T16:00:00Z</time></trkpt><trkpt lat="59.2552328110" lon="30.6857585907"><time>2026-09-01T16:00:03Z</time></trkpt><trkpt lat="59.2552328110" lon="30.6857585907"><time>2026-09-01T16:00:05Z</time></trkpt><trkpt lat="59.2552328110" lon="30.6857585907"><time>2026-09-01T16:00:08Z</time></trkpt><trkpt lat="59.2552328110" lon="30.6857585907"><time>2026-09-01T16:00:10Z</time></trkpt><trkpt lat="59.2552328110" lon="30.6857585907"><time>2026-09-01T16:00:13Z</time></trkpt><trkpt lat="59.2552542686" lon="30.6857585907"><time>2026-09-01T16:00:15Z</time></trkpt><trkpt lat="59.2552542686" lon="30.6857585907"><time>2026-09-01T16:00:18Z</time></trkpt><trkpt lat="59.2552542686" lon="30.6857585907"><time>2026-09-01T16:00:20Z</time></trkpt><trkpt lat="59.2552542686" lon="30.6857585907"><time>2026-09-01T16:00:23Z</time></trkpt><trkpt lat="59.2552542686" lon="30.6857585907"><time>2026-09-01T16:00:25Z</time></trkpt><trkpt lat="59.2552542686" lon="30.6857585907"><time>2026-09-01T16:00:28Z</time></trkpt><trkpt lat="59.2552542686" lon="30.6857585907"><time>2026-09-01T16:00:30Z</time></trkpt><trkpt lat="59.2552542686" lon="30.6857585907"><time>2026-09-01T16:00:33Z</time></trkpt><trkpt lat="59.2552542686" lon="30.6857585907"><time>2026-09-01T16:00:35Z</time></trkpt><trkpt lat="59.2552542686" lon="30.6857585907"><time>2026-09-01T16:00:38Z</time></trkpt><trkpt lat="59.2552542686" lon="30.6857585907"><time>2026-09-01T16:00:40Z</time></trkpt><trkpt lat="59.2552542686" lon="30.6857585907"><time>2026-09-01T16:00:43Z</time></trkpt><trkpt lat="59.2552542686" lon="30.6858015060"><time>2026-09-01T16:00:45Z</time></trkpt><trkpt lat="59.2552542686" lon="30.6858015060"><time>2026-09-01T16:00:48Z</time></trkpt><trkpt lat="59.2552542686" lon="30.6858015060"><time>2026-09-01T16:00:50Z</time></trkpt><trkpt lat="59.2552542686" lon="30.6858015060"><time>2026-09-01T16:00:53Z</time></trkpt><trkpt lat="59.2552328110" lon="30.6858444214"><time>2026-09-01T16:00:55Z</time></trkpt><trkpt lat="59.2552328110" lon="30.6858658791"><time>2026-09-01T16:00:58Z</time></trkpt><trkpt lat="59.2552328110" lon="30.6858873367"><time>2026-09-01T16:01:00Z</time></trkpt><trkpt lat="59.2552113533" lon="30.6859731674"><time>2026-09-01T16:01:03Z</time></trkpt><trkpt lat="59.2552328110" lon="30.6860160828"><time>2026-09-01T16:01:05Z</time></trkpt><trkpt lat="59.2552113533" lon="30.6860804558"><time>2026-09-01T16:01:08Z</time></trkpt><trkpt lat="59.2551898956" lon="30.6861448288"><time>2026-09-01T16:01:10Z</time></trkpt><trkpt lat="59.2551898956" lon="30.6861448288"><time>2026-09-01T16:01:13Z</time></trkpt><trkpt lat="59.2551898956" lon="30.6861448288"><time>2026-09-01T16:01:15Z</time></trkpt><trkpt lat="59.2552113533" lon="30.6861233711"><time>2026-09-01T16:01:20Z</time></trkpt><trkpt lat="59.2552542686" lon="30.6861877441"><time>2026-09-01T16:01:23Z</time></trkpt><trkpt lat="59.2552328110" lon="30.6862521172"><time>2026-09-01T16:01:28Z</time></trkpt><trkpt lat="59.2552113533" lon="30.6862735748"><time>2026-09-01T16:01:30Z</time></trkpt><trkpt lat="59.2551898956" lon="30.6863164902"><time>2026-09-01T16:01:33Z</time></trkpt><trkpt lat="59.2551684380" lon="30.6863379478"><time>2026-09-01T16:01:35Z</time></trkpt><trkpt lat="59.2551469803" lon="30.6863164902"><time>2026-09-01T16:01:38Z</time></trkpt><trkpt lat="59.2551684380" lon="30.6863164902"><time>2026-09-01T16:01:40Z</time></trkpt><trkpt lat="59.2551684380" lon="30.6863594055"><time>2026-09-01T16:01:43Z</time></trkpt><trkpt lat="59.2551469803" lon="30.6864023209"><time>2026-09-01T16:01:45Z</time></trkpt><trkpt lat="59.2551469803" lon="30.6864023209"><time>2026-09-01T16:01:48Z</time></trkpt><trkpt lat="59.2551469803" lon="30.6864237785"><time>2026-09-01T16:01:50Z</time></trkpt><trkpt lat="59.2551469803" lon="30.6864237785"><time>2026-09-01T16:01:53Z</time></trkpt><trkpt lat="59.2551684380" lon="30.6864666939"><time>2026-09-01T16:01:55Z</time></trkpt><trkpt lat="59.2551684380" lon="30.6865096092"><time>2026-09-01T16:01:58Z</time></trkpt><trkpt lat="59.2551898956" lon="30.6865096092"><time>2026-09-01T16:02:00Z</time></trkpt><trkpt lat="59.2552113533" lon="30.6865310669"><time>2026-09-01T16:02:03Z</time></trkpt><trkpt lat="59.2552113533" lon="30.6865525246"><time>2026-09-01T16:02:05Z</time></trkpt><trkpt lat="59.2552113533" lon="30.6865954399"><time>2026-09-01T16:02:08Z</time></trkpt><trkpt lat="59.2551684380" lon="30.6866812706"><time>2026-09-01T16:02:13Z</time></trkpt><trkpt lat="59.2551684380" lon="30.6867671013"><time>2026-09-01T16:02:15Z</time></trkpt><trkpt lat="59.2551684380" lon="30.6867671013"><time>2026-09-01T16:02:18Z</time></trkpt><trkpt lat="59.2551684380" lon="30.6867885590"><time>2026-09-01T16:02:20Z</time></trkpt><trkpt lat="59.2551684380" lon="30.6868529320"><time>2026-09-01T16:02:23Z</time></trkpt><trkpt lat="59.2551898956" lon="30.6868743896"><time>2026-09-01T16:02:25Z</time></trkpt><trkpt lat="59.2552113533" lon="30.6869173050"><time>2026-09-01T16:02:28Z</time></trkpt><trkpt lat="59.2552328110" lon="30.6869387627"><time>2026-09-01T16:02:30Z</time></trkpt><trkpt lat="59.2552328110" lon="30.6869602203"><time>2026-09-01T16:02:33Z</time></trkpt><trkpt lat="59.2552328110" lon="30.6870031357"><time>2026-09-01T16:02:35Z</time></trkpt><trkpt lat="59.2552328110" lon="30.6870460510"><time>2026-09-01T16:02:38Z</time></trkpt><trkpt lat="59.2552328110" lon="30.6870889664"><time>2026-09-01T16:02:40Z</time></trkpt><trkpt lat="59.2552328110" lon="30.6871318817"><time>2026-09-01T16:02:43Z</time></trkpt><trkpt lat="59.2552113533" lon="30.6871747971"><time>2026-09-01T16:02:45Z</time></trkpt><trkpt lat="59.2552113533" lon="30.6871747971"><time>2026-09-01T16:02:48Z</time></trkpt><trkpt lat="59.2552113533" lon="30.6871962547"><time>2026-09-01T16:02:50Z</time></trkpt><trkpt lat="59.2551898956" lon="30.6872177124"><time>2026-09-01T16:02:53Z</time></trkpt><trkpt lat="59.2551684380" lon="30.6872606277"><time>2026-09-01T16:02:55Z</time></trkpt><trkpt lat="59.2551684380" lon="30.6872820854"><time>2026-09-01T16:02:58Z</time></trkpt><trkpt lat="59.2551898956" lon="30.6873250008"><time>2026-09-01T16:03:00Z</time></trkpt><trkpt lat="59.2551898956" lon="30.6873464584"><time>2026-09-01T16:03:03Z</time></trkpt><trkpt lat="59.2552113533" lon="30.6874108315"><time>2026-09-01T16:03:05Z</time></trkpt><trkpt lat="59.2552113533" lon="30.6874537468"><time>2026-09-01T16:03:08Z</time></trkpt><trkpt lat="59.2551898956" lon="30.6874966621"><time>2026-09-01T16:03:10Z</time></trkpt><trkpt lat="59.2551898956" lon="30.6874966621"><time>2026-09-01T16:03:13Z</time></trkpt><trkpt lat="59.2551898956" lon="30.6874966621"><time>2026-09-01T16:03:15Z</time></trkpt><trkpt lat="59.2551898956" lon="30.6874966621"><time>2026-09-01T16:03:18Z</time></trkpt><trkpt lat="59.2552113533" lon="30.6875181198"><time>2026-09-01T16:03:20Z</time></trkpt><trkpt lat="59.2552113533" lon="30.6875181198"><time>2026-09-01T16:03:23Z</time></trkpt><trkpt lat="59.2552113533" lon="30.6875395775"><time>2026-09-01T16:03:25Z</time></trkpt><trkpt lat="59.2552113533" lon="30.6875610352"><time>2026-09-01T16:03:28Z</time></trkpt><trkpt lat="59.2552113533" lon="30.6875824928"><time>2026-09-01T16:03:30Z</time></trkpt><trkpt lat="59.2552113533" lon="30.6876039505"><time>2026-09-01T16:03:33Z</time></trkpt><trkpt lat="59.2551898956" lon="30.6876468658"><time>2026-09-01T16:03:35Z</time></trkpt><trkpt lat="59.2551898956" lon="30.6876468658"><time>2026-09-01T16:03:38Z</time></trkpt><trkpt lat="59.2551898956" lon="30.6876897812"><time>2026-09-01T16:03:40Z</time></trkpt><trkpt lat="59.2551684380" lon="30.6877326965"><time>2026-09-01T16:03:43Z</time></trkpt><trkpt lat="59.2551684380" lon="30.6878185272"><time>2026-09-01T16:03:45Z</time></trkpt><trkpt lat="59.2551469803" lon="30.6878614426"><time>2026-09-01T16:03:48Z</time></trkpt><trkpt lat="59.2551255226" lon="30.6879472733"><time>2026-09-01T16:03:50Z</time></trkpt><trkpt lat="59.2551255226" lon="30.6880331039"><time>2026-09-01T16:03:53Z</time></trkpt><trkpt lat="59.2550826073" lon="30.6880974770"><time>2026-09-01T16:03:55Z</time></trkpt><trkpt lat="59.2550826073" lon="30.6881618500"><time>2026-09-01T16:03:58Z</time></trkpt><trkpt lat="59.2550826073" lon="30.6882047653"><time>2026-09-01T16:04:00Z</time></trkpt><trkpt lat="59.2550826073" lon="30.6882047653"><time>2026-09-01T16:04:03Z</time></trkpt><trkpt lat="59.2551040649" lon="30.6882262230"><time>2026-09-01T16:04:05Z</time></trkpt><trkpt lat="59.2551040649" lon="30.6882691383"><time>2026-09-01T16:04:08Z</time></trkpt><trkpt lat="59.2551255226" lon="30.6882905960"><time>2026-09-01T16:04:10Z</time></trkpt><trkpt lat="59.2551255226" lon="30.6883120537"><time>2026-09-01T16:04:13Z</time></trkpt><trkpt lat="59.2551255226" lon="30.6883335114"><time>2026-09-01T16:04:15Z</time></trkpt><trkpt lat="59.2551255226" lon="30.6883549690"><time>2026-09-01T16:04:18Z</time></trkpt><trkpt lat="59.2551469803" lon="30.6883764267"><time>2026-09-01T16:04:20Z</time></trkpt><trkpt lat="59.2551469803" lon="30.6883764267"><time>2026-09-01T16:04:23Z</time></trkpt><trkpt lat="59.2551469803" lon="30.6884193420"><time>2026-09-01T16:04:25Z</time></trkpt><trkpt lat="59.2551255226" lon="30.6884622574"><time>2026-09-01T16:04:28Z</time></trkpt><trkpt lat="59.2551255226" lon="30.6885051727"><time>2026-09-01T16:04:30Z</time></trkpt><trkpt lat="59.2551255226" lon="30.6885266304"><time>2026-09-01T16:04:33Z</time></trkpt><trkpt lat="59.2551255226" lon="30.6885266304"><time>2026-09-01T16:04:35Z</time></trkpt><trkpt lat="59.2551255226" lon="30.6885480881"><time>2026-09-01T16:04:38Z</time></trkpt><trkpt lat="59.2551040649" lon="30.6886339188"><time>2026-09-01T16:04:40Z</time></trkpt><trkpt lat="59.2550826073" lon="30.6886768341"><time>2026-09-01T16:04:43Z</time></trkpt><trkpt lat="59.2550826073" lon="30.6887197495"><time>2026-09-01T16:04:45Z</time></trkpt><trkpt lat="59.2550826073" lon="30.6887197495"><time>2026-09-01T16:04:48Z</time></trkpt><trkpt lat="59.2550611496" lon="30.6887412071"><time>2026-09-01T16:04:50Z</time></trkpt><trkpt lat="59.2550611496" lon="30.6887626648"><time>2026-09-01T16:04:53Z</time></trkpt><trkpt lat="59.2550611496" lon="30.6888055801"><time>2026-09-01T16:04:55Z</time></trkpt><trkpt lat="59.2550611496" lon="30.6888055801"><time>2026-09-01T16:04:58Z</time></trkpt><trkpt lat="59.2550826073" lon="30.6888055801"><time>2026-09-01T16:05:00Z</time></trkpt><trkpt lat="59.2550826073" lon="30.6888055801"><time>2026-09-01T16:05:03Z</time></trkpt><trkpt lat="59.2550826073" lon="30.6888699532"><time>2026-09-01T16:05:05Z</time></trkpt><trkpt lat="59.2550611496" lon="30.6889128685"><time>2026-09-01T16:05:08Z</time></trkpt><trkpt lat="59.2550826073" lon="30.6889343262"><time>2026-09-01T16:05:10Z</time></trkpt><trkpt lat="59.2551040649" lon="30.6889772415"><time>2026-09-01T16:05:13Z</time></trkpt><trkpt lat="59.2551040649" lon="30.6890416145"><time>2026-09-01T16:05:15Z</time></trkpt><trkpt lat="59.2551040649" lon="30.6891274452"><time>2026-09-01T16:05:18Z</time></trkpt><trkpt lat="59.2550826073" lon="30.6891918182"><time>2026-09-01T16:05:20Z</time></trkpt><trkpt lat="59.2550826073" lon="30.6891918182"><time>2026-09-01T16:05:23Z</time></trkpt><trkpt lat="59.2551040649" lon="30.6892347336"><time>2026-09-01T16:05:25Z</time></trkpt><trkpt lat="59.2551040649" lon="30.6892776489"><time>2026-09-01T16:05:28Z</time></trkpt><trkpt lat="59.2551040649" lon="30.6893205643"><time>2026-09-01T16:05:30Z</time></trkpt><trkpt lat="59.2551255226" lon="30.6893420219"><time>2026-09-01T16:05:33Z</time></trkpt><trkpt lat="59.2550826073" lon="30.6894063950"><time>2026-09-01T16:05:35Z</time></trkpt><trkpt lat="59.2550611496" lon="30.6894493103"><time>2026-09-01T16:05:38Z</time></trkpt><trkpt lat="59.2550611496" lon="30.6894493103"><time>2026-09-01T16:05:40Z</time></trkpt><trkpt lat="59.2550611496" lon="30.6894922256"><time>2026-09-01T16:05:43Z</time></trkpt><trkpt lat="59.2550611496" lon="30.6895565987"><time>2026-09-01T16:05:45Z</time></trkpt><trkpt lat="59.2550826073" lon="30.6895565987"><time>2026-09-01T16:05:48Z</time></trkpt><trkpt lat="59.2550611496" lon="30.6895995140"><time>2026-09-01T16:05:50Z</time></trkpt><trkpt lat="59.2550396919" lon="30.6895995140"><time>2026-09-01T16:05:53Z</time></trkpt><trkpt lat="59.2550826073" lon="30.6896424294"><time>2026-09-01T16:05:55Z</time></trkpt><trkpt lat="59.2550611496" lon="30.6897282600"><time>2026-09-01T16:05:58Z</time></trkpt><trkpt lat="59.2550396919" lon="30.6897711754"><time>2026-09-01T16:06:00Z</time></trkpt><trkpt lat="59.2549967766" lon="30.6897711754"><time>2026-09-01T16:06:03Z</time></trkpt><trkpt lat="59.2549967766" lon="30.6898355484"><time>2026-09-01T16:06:05Z</time></trkpt><trkpt lat="59.2550182343" lon="30.6898570061"><time>2026-09-01T16:06:08Z</time></trkpt><trkpt lat="59.2550182343" lon="30.6899428368"><time>2026-09-01T16:06:10Z</time></trkpt><trkpt lat="59.2550182343" lon="30.6900286674"><time>2026-09-01T16:06:13Z</time></trkpt><trkpt lat="59.2549967766" lon="30.6901144981"><time>2026-09-01T16:06:15Z</time></trkpt><trkpt lat="59.2550182343" lon="30.6902003288"><time>2026-09-01T16:06:18Z</time></trkpt><trkpt lat="59.2550396919" lon="30.6903290749"><time>2026-09-01T16:06:20Z</time></trkpt><trkpt lat="59.2550611496" lon="30.6903290749"><time>2026-09-01T16:06:23Z</time></trkpt><trkpt lat="59.2550611496" lon="30.6903290749"><time>2026-09-01T16:06:25Z</time></trkpt><trkpt lat="59.2550826073" lon="30.6903934479"><time>2026-09-01T16:06:28Z</time></trkpt><trkpt lat="59.2551040649" lon="30.6903934479"><time>2026-09-01T16:06:30Z</time></trkpt><trkpt lat="59.2551040649" lon="30.6903934479"><time>2026-09-01T16:06:33Z</time></trkpt><trkpt lat="59.2550826073" lon="30.6903076172"><time>2026-09-01T16:06:35Z</time></trkpt><trkpt lat="59.2550826073" lon="30.6902432442"><time>2026-09-01T16:06:38Z</time></trkpt><trkpt lat="59.2550611496" lon="30.6902003288"><time>2026-09-01T16:06:40Z</time></trkpt><trkpt lat="59.2550611496" lon="30.6902003288"><time>2026-09-01T16:06:43Z</time></trkpt><trkpt lat="59.2550611496" lon="30.6902003288"><time>2026-09-01T16:06:45Z</time></trkpt><trkpt lat="59.2550611496" lon="30.6902432442"><time>2026-09-01T16:06:48Z</time></trkpt><trkpt lat="59.2551040649" lon="30.6903290749"><time>2026-09-01T16:06:50Z</time></trkpt><trkpt lat="59.2551469803" lon="30.6904149055"><time>2026-09-01T16:06:53Z</time></trkpt><trkpt lat="59.2551898956" lon="30.6904363632"><time>2026-09-01T16:06:55Z</time></trkpt><trkpt lat="59.2552113533" lon="30.6904578209"><time>2026-09-01T16:06:58Z</time></trkpt><trkpt lat="59.2552542686" lon="30.6905221939"><time>2026-09-01T16:07:00Z</time></trkpt><trkpt lat="59.2552542686" lon="30.6905865669"><time>2026-09-01T16:07:03Z</time></trkpt><trkpt lat="59.2552328110" lon="30.6906723976"><time>2026-09-01T16:07:05Z</time></trkpt><trkpt lat="59.2552328110" lon="30.6907367706"><time>2026-09-01T16:07:08Z</time></trkpt><trkpt lat="59.2552328110" lon="30.6907796860"><time>2026-09-01T16:07:10Z</time></trkpt><trkpt lat="59.2552542686" lon="30.6907582283"><time>2026-09-01T16:07:13Z</time></trkpt><trkpt lat="59.2552971840" lon="30.6907582283"><time>2026-09-01T16:07:15Z</time></trkpt><trkpt lat="59.2553400993" lon="30.6907582283"><time>2026-09-01T16:07:18Z</time></trkpt><trkpt lat="59.2553400993" lon="30.6908226013"><time>2026-09-01T16:07:20Z</time></trkpt><trkpt lat="59.2553400993" lon="30.6908440590"><time>2026-09-01T16:07:23Z</time></trkpt><trkpt lat="59.2553400993" lon="30.6909298897"><time>2026-09-01T16:07:25Z</time></trkpt><trkpt lat="59.2553615570" lon="30.6909298897"><time>2026-09-01T16:07:28Z</time></trkpt><trkpt lat="59.2554044724" lon="30.6909084320"><time>2026-09-01T16:07:30Z</time></trkpt><trkpt lat="59.2554044724" lon="30.6908440590"><time>2026-09-01T16:07:33Z</time></trkpt><trkpt lat="59.2553830147" lon="30.6907582283"><time>2026-09-01T16:07:35Z</time></trkpt><trkpt lat="59.2554044724" lon="30.6907153130"><time>2026-09-01T16:07:38Z</time></trkpt><trkpt lat="59.2554473877" lon="30.6906723976"><time>2026-09-01T16:07:40Z</time></trkpt><trkpt lat="59.2554688454" lon="30.6906938553"><time>2026-09-01T16:07:43Z</time></trkpt><trkpt lat="59.2554903030" lon="30.6906723976"><time>2026-09-01T16:07:45Z</time></trkpt><trkpt lat="59.2554903030" lon="30.6906723976"><time>2026-09-01T16:07:48Z</time></trkpt><trkpt lat="59.2555332184" lon="30.6907153130"><time>2026-09-01T16:07:50Z</time></trkpt><trkpt lat="59.2555546761" lon="30.6907796860"><time>2026-09-01T16:07:53Z</time></trkpt><trkpt lat="59.2555975914" lon="30.6908869743"><time>2026-09-01T16:07:55Z</time></trkpt><trkpt lat="59.2555975914" lon="30.6909298897"><time>2026-09-01T16:07:58Z</time></trkpt><trkpt lat="59.2555975914" lon="30.6909942627"><time>2026-09-01T16:08:00Z</time></trkpt><trkpt lat="59.2555975914" lon="30.6910586357"><time>2026-09-01T16:08:03Z</time></trkpt><trkpt lat="59.2556190491" lon="30.6911015511"><time>2026-09-01T16:08:05Z</time></trkpt><trkpt lat="59.2556405067" lon="30.6911230087"><time>2026-09-01T16:08:08Z</time></trkpt><trkpt lat="59.2556405067" lon="30.6912302971"><time>2026-09-01T16:08:10Z</time></trkpt><trkpt lat="59.2556405067" lon="30.6912732124"><time>2026-09-01T16:08:13Z</time></trkpt><trkpt lat="59.2556619644" lon="30.6912946701"><time>2026-09-01T16:08:15Z</time></trkpt><trkpt lat="59.2556834221" lon="30.6912946701"><time>2026-09-01T16:08:18Z</time></trkpt><trkpt lat="59.2556834221" lon="30.6912946701"><time>2026-09-01T16:08:20Z</time></trkpt><trkpt lat="59.2556834221" lon="30.6912946701"><time>2026-09-01T16:08:23Z</time></trkpt><trkpt lat="59.2556834221" lon="30.6912946701"><time>2026-09-01T16:08:25Z</time></trkpt><trkpt lat="59.2556834221" lon="30.6912946701"><time>2026-09-01T16:08:28Z</time></trkpt><trkpt lat="59.2556834221" lon="30.6912946701"><time>2026-09-01T16:08:30Z</time></trkpt><trkpt lat="59.2556834221" lon="30.6912946701"><time>2026-09-01T16:08:33Z</time></trkpt><trkpt lat="59.2556834221" lon="30.6912946701"><time>2026-09-01T16:08:35Z</time></trkpt><trkpt lat="59.2556834221" lon="30.6912946701"><time>2026-09-01T16:08:38Z</time></trkpt><trkpt lat="59.2556834221" lon="30.6912946701"><time>2026-09-01T16:08:40Z</time></trkpt><trkpt lat="59.2556834221" lon="30.6912946701"><time>2026-09-01T16:08:43Z</time></trkpt><trkpt lat="59.2556834221" lon="30.6912946701"><time>2026-09-01T16:08:45Z</time></trkpt><trkpt lat="59.2556834221" lon="30.6912946701"><time>2026-09-01T16:08:48Z</time></trkpt><trkpt lat="59.2556834221" lon="30.6912946701"><time>2026-09-01T16:08:50Z</time></trkpt><trkpt lat="59.2556834221" lon="30.6912946701"><time>2026-09-01T16:08:53Z</time></trkpt><trkpt lat="59.2556834221" lon="30.6912946701"><time>2026-09-01T16:08:55Z</time></trkpt><trkpt lat="59.2556619644" lon="30.6912946701"><time>2026-09-01T16:08:58Z</time></trkpt><trkpt lat="59.2556619644" lon="30.6912946701"><time>2026-09-01T16:09:00Z</time></trkpt><trkpt lat="59.2556619644" lon="30.6912946701"><time>2026-09-01T16:09:03Z</time></trkpt><trkpt lat="59.2556619644" lon="30.6912946701"><time>2026-09-01T16:09:05Z</time></trkpt><trkpt lat="59.2556619644" lon="30.6912946701"><time>2026-09-01T16:09:08Z</time></trkpt><trkpt lat="59.2556619644" lon="30.6912946701"><time>2026-09-01T16:09:10Z</time></trkpt><trkpt lat="59.2556619644" lon="30.6912946701"><time>2026-09-01T16:09:13Z</time></trkpt><trkpt lat="59.2556619644" lon="30.6912946701"><time>2026-09-01T16:09:15Z</time></trkpt><trkpt lat="59.2556619644" lon="30.6912946701"><time>2026-09-01T16:09:18Z</time></trkpt><trkpt lat="59.2556619644" lon="30.6912946701"><time>2026-09-01T16:09:20Z</time></trkpt><trkpt lat="59.2556619644" lon="30.6912302971"><time>2026-09-01T16:09:23Z</time></trkpt><trkpt lat="59.2555975914" lon="30.6911230087"><time>2026-09-01T16:09:25Z</time></trkpt><trkpt lat="59.2555761337" lon="30.6910371780"><time>2026-09-01T16:09:28Z</time></trkpt><trkpt lat="59.2555761337" lon="30.6909298897"><time>2026-09-01T16:09:30Z</time></trkpt><trkpt lat="59.2555546761" lon="30.6908655167"><time>2026-09-01T16:09:33Z</time></trkpt><trkpt lat="59.2554903030" lon="30.6906938553"><time>2026-09-01T16:09:35Z</time></trkpt><trkpt lat="59.2554259300" lon="30.6906509399"><time>2026-09-01T16:09:38Z</time></trkpt><trkpt lat="59.2553830147" lon="30.6905651093"><time>2026-09-01T16:09:40Z</time></trkpt><trkpt lat="59.2553615570" lon="30.6905007362"><time>2026-09-01T16:09:43Z</time></trkpt><trkpt lat="59.2553615570" lon="30.6904578209"><time>2026-09-01T16:09:45Z</time></trkpt><trkpt lat="59.2553615570" lon="30.6903934479"><time>2026-09-01T16:09:48Z</time></trkpt><trkpt lat="59.2552971840" lon="30.6902432442"><time>2026-09-01T16:09:50Z</time></trkpt><trkpt lat="59.2552757263" lon="30.6902217865"><time>2026-09-01T16:09:53Z</time></trkpt><trkpt lat="59.2552328110" lon="30.6901574135"><time>2026-09-01T16:09:55Z</time></trkpt><trkpt lat="59.2552113533" lon="30.6901144981"><time>2026-09-01T16:09:58Z</time></trkpt><trkpt lat="59.2551898956" lon="30.6900501251"><time>2026-09-01T16:10:00Z</time></trkpt><trkpt lat="59.2551898956" lon="30.6900715828"><time>2026-09-01T16:10:03Z</time></trkpt><trkpt lat="59.2551469803" lon="30.6900715828"><time>2026-09-01T16:10:05Z</time></trkpt><trkpt lat="59.2551255226" lon="30.6900501251"><time>2026-09-01T16:10:08Z</time></trkpt><trkpt lat="59.2551040649" lon="30.6900501251"><time>2026-09-01T16:10:10Z</time></trkpt><trkpt lat="59.2550826073" lon="30.6900072098"><time>2026-09-01T16:10:13Z</time></trkpt><trkpt lat="59.2550611496" lon="30.6899428368"><time>2026-09-01T16:10:15Z</time></trkpt><trkpt lat="59.2550396919" lon="30.6898784637"><time>2026-09-01T16:10:18Z</time></trkpt><trkpt lat="59.2550182343" lon="30.6898570061"><time>2026-09-01T16:10:20Z</time></trkpt><trkpt lat="59.2550182343" lon="30.6898355484"><time>2026-09-01T16:10:23Z</time></trkpt><trkpt lat="59.2549967766" lon="30.6897926331"><time>2026-09-01T16:10:25Z</time></trkpt><trkpt lat="59.2549967766" lon="30.6897926331"><time>2026-09-01T16:10:28Z</time></trkpt><trkpt lat="59.2549967766" lon="30.6897926331"><time>2026-09-01T16:10:30Z</time></trkpt><trkpt lat="59.2549967766" lon="30.6897282600"><time>2026-09-01T16:10:33Z</time></trkpt><trkpt lat="59.2549967766" lon="30.6896209717"><time>2026-09-01T16:10:35Z</time></trkpt><trkpt lat="59.2550182343" lon="30.6895565987"><time>2026-09-01T16:10:38Z</time></trkpt><trkpt lat="59.2550182343" lon="30.6894922256"><time>2026-09-01T16:10:40Z</time></trkpt><trkpt lat="59.2550396919" lon="30.6894278526"><time>2026-09-01T16:10:43Z</time></trkpt><trkpt lat="59.2550396919" lon="30.6894278526"><time>2026-09-01T16:10:45Z</time></trkpt><trkpt lat="59.2550396919" lon="30.6894278526"><time>2026-09-01T16:10:48Z</time></trkpt><trkpt lat="59.2550396919" lon="30.6893634796"><time>2026-09-01T16:10:50Z</time></trkpt><trkpt lat="59.2550396919" lon="30.6893205643"><time>2026-09-01T16:10:53Z</time></trkpt><trkpt lat="59.2550182343" lon="30.6892347336"><time>2026-09-01T16:10:55Z</time></trkpt><trkpt lat="59.2550182343" lon="30.6891489029"><time>2026-09-01T16:10:58Z</time></trkpt><trkpt lat="59.2549538612" lon="30.6891059875"><time>2026-09-01T16:11:00Z</time></trkpt><trkpt lat="59.2549538612" lon="30.6890845299"><time>2026-09-01T16:11:03Z</time></trkpt><trkpt lat="59.2549538612" lon="30.6890630722"><time>2026-09-01T16:11:05Z</time></trkpt><trkpt lat="59.2549753189" lon="30.6890201569"><time>2026-09-01T16:11:08Z</time></trkpt><trkpt lat="59.2549753189" lon="30.6889772415"><time>2026-09-01T16:11:10Z</time></trkpt><trkpt lat="59.2549753189" lon="30.6889557838"><time>2026-09-01T16:11:13Z</time></trkpt><trkpt lat="59.2549538612" lon="30.6888914108"><time>2026-09-01T16:11:15Z</time></trkpt><trkpt lat="59.2549538612" lon="30.6888270378"><time>2026-09-01T16:11:18Z</time></trkpt><trkpt lat="59.2549324036" lon="30.6887197495"><time>2026-09-01T16:11:20Z</time></trkpt><trkpt lat="59.2549109459" lon="30.6886553764"><time>2026-09-01T16:11:23Z</time></trkpt><trkpt lat="59.2549109459" lon="30.6886339188"><time>2026-09-01T16:11:25Z</time></trkpt><trkpt lat="59.2549324036" lon="30.6886553764"><time>2026-09-01T16:11:28Z</time></trkpt><trkpt lat="59.2549324036" lon="30.6886768341"><time>2026-09-01T16:11:30Z</time></trkpt><trkpt lat="59.2549324036" lon="30.6886553764"><time>2026-09-01T16:11:33Z</time></trkpt><trkpt lat="59.2549324036" lon="30.6885695457"><time>2026-09-01T16:11:35Z</time></trkpt><trkpt lat="59.2549538612" lon="30.6885266304"><time>2026-09-01T16:11:38Z</time></trkpt><trkpt lat="59.2549753189" lon="30.6884837151"><time>2026-09-01T16:11:40Z</time></trkpt><trkpt lat="59.2549753189" lon="30.6884837151"><time>2026-09-01T16:11:43Z</time></trkpt><trkpt lat="59.2549753189" lon="30.6884622574"><time>2026-09-01T16:11:45Z</time></trkpt><trkpt lat="59.2549538612" lon="30.6883978844"><time>2026-09-01T16:11:48Z</time></trkpt><trkpt lat="59.2549324036" lon="30.6883335114"><time>2026-09-01T16:11:50Z</time></trkpt><trkpt lat="59.2549324036" lon="30.6882691383"><time>2026-09-01T16:11:53Z</time></trkpt><trkpt lat="59.2549109459" lon="30.6882047653"><time>2026-09-01T16:11:55Z</time></trkpt><trkpt lat="59.2549109459" lon="30.6881833076"><time>2026-09-01T16:11:58Z</time></trkpt><trkpt lat="59.2549324036" lon="30.6881833076"><time>2026-09-01T16:12:00Z</time></trkpt><trkpt lat="59.2549324036" lon="30.6881618500"><time>2026-09-01T16:12:03Z</time></trkpt><trkpt lat="59.2549538612" lon="30.6880760193"><time>2026-09-01T16:12:05Z</time></trkpt><trkpt lat="59.2549538612" lon="30.6880331039"><time>2026-09-01T16:12:08Z</time></trkpt><trkpt lat="59.2549538612" lon="30.6880331039"><time>2026-09-01T16:12:10Z</time></trkpt><trkpt lat="59.2549538612" lon="30.6880331039"><time>2026-09-01T16:12:13Z</time></trkpt><trkpt lat="59.2549538612" lon="30.6879687309"><time>2026-09-01T16:12:15Z</time></trkpt><trkpt lat="59.2549753189" lon="30.6879258156"><time>2026-09-01T16:12:18Z</time></trkpt><trkpt lat="59.2549753189" lon="30.6877970695"><time>2026-09-01T16:12:20Z</time></trkpt><trkpt lat="59.2549538612" lon="30.6877326965"><time>2026-09-01T16:12:23Z</time></trkpt><trkpt lat="59.2549324036" lon="30.6876254082"><time>2026-09-01T16:12:25Z</time></trkpt><trkpt lat="59.2549538612" lon="30.6876039505"><time>2026-09-01T16:12:28Z</time></trkpt><trkpt lat="59.2549753189" lon="30.6875824928"><time>2026-09-01T16:12:30Z</time></trkpt><trkpt lat="59.2549967766" lon="30.6875610352"><time>2026-09-01T16:12:33Z</time></trkpt><trkpt lat="59.2550182343" lon="30.6874966621"><time>2026-09-01T16:12:35Z</time></trkpt><trkpt lat="59.2549967766" lon="30.6874108315"><time>2026-09-01T16:12:38Z</time></trkpt><trkpt lat="59.2549967766" lon="30.6873250008"><time>2026-09-01T16:12:40Z</time></trkpt><trkpt lat="59.2549967766" lon="30.6872606277"><time>2026-09-01T16:12:43Z</time></trkpt><trkpt lat="59.2550396919" lon="30.6873035431"><time>2026-09-01T16:12:45Z</time></trkpt><trkpt lat="59.2550396919" lon="30.6873250008"><time>2026-09-01T16:12:48Z</time></trkpt><trkpt lat="59.2550396919" lon="30.6873250008"><time>2026-09-01T16:12:50Z</time></trkpt><trkpt lat="59.2550396919" lon="30.6873250008"><time>2026-09-01T16:12:53Z</time></trkpt><trkpt lat="59.2550396919" lon="30.6873250008"><time>2026-09-01T16:12:55Z</time></trkpt><trkpt lat="59.2550396919" lon="30.6873250008"><time>2026-09-01T16:12:58Z</time></trkpt><trkpt lat="59.2550396919" lon="30.6873035431"><time>2026-09-01T16:13:00Z</time></trkpt><trkpt lat="59.2550396919" lon="30.6872820854"><time>2026-09-01T16:13:03Z</time></trkpt><trkpt lat="59.2550396919" lon="30.6871962547"><time>2026-09-01T16:13:05Z</time></trkpt><trkpt lat="59.2550611496" lon="30.6871318817"><time>2026-09-01T16:13:08Z</time></trkpt><trkpt lat="59.2550396919" lon="30.6870460510"><time>2026-09-01T16:13:10Z</time></trkpt><trkpt lat="59.2550396919" lon="30.6870031357"><time>2026-09-01T16:13:13Z</time></trkpt><trkpt lat="59.2550611496" lon="30.6870031357"><time>2026-09-01T16:13:15Z</time></trkpt><trkpt lat="59.2550611496" lon="30.6870031357"><time>2026-09-01T16:13:18Z</time></trkpt><trkpt lat="59.2550396919" lon="30.6869816780"><time>2026-09-01T16:13:20Z</time></trkpt><trkpt lat="59.2550396919" lon="30.6869173050"><time>2026-09-01T16:13:23Z</time></trkpt><trkpt lat="59.2550396919" lon="30.6868100166"><time>2026-09-01T16:13:25Z</time></trkpt><trkpt lat="59.2550396919" lon="30.6868100166"><time>2026-09-01T16:13:28Z</time></trkpt><trkpt lat="59.2550396919" lon="30.6868100166"><time>2026-09-01T16:13:30Z</time></trkpt><trkpt lat="59.2550396919" lon="30.6867885590"><time>2026-09-01T16:13:33Z</time></trkpt><trkpt lat="59.2550611496" lon="30.6866812706"><time>2026-09-01T16:13:35Z</time></trkpt><trkpt lat="59.2550611496" lon="30.6866812706"><time>2026-09-01T16:13:38Z</time></trkpt><trkpt lat="59.2550611496" lon="30.6866812706"><time>2026-09-01T16:13:40Z</time></trkpt><trkpt lat="59.2550611496" lon="30.6866812706"><time>2026-09-01T16:13:43Z</time></trkpt><trkpt lat="59.2550611496" lon="30.6866812706"><time>2026-09-01T16:13:45Z</time></trkpt><trkpt lat="59.2550611496" lon="30.6866598129"><time>2026-09-01T16:13:48Z</time></trkpt><trkpt lat="59.2550826073" lon="30.6865739822"><time>2026-09-01T16:13:50Z</time></trkpt><trkpt lat="59.2550826073" lon="30.6865310669"><time>2026-09-01T16:13:53Z</time></trkpt><trkpt lat="59.2551255226" lon="30.6864237785"><time>2026-09-01T16:13:55Z</time></trkpt><trkpt lat="59.2551255226" lon="30.6864023209"><time>2026-09-01T16:13:58Z</time></trkpt><trkpt lat="59.2551255226" lon="30.6864023209"><time>2026-09-01T16:14:00Z</time></trkpt><trkpt lat="59.2551255226" lon="30.6864023209"><time>2026-09-01T16:14:03Z</time></trkpt><trkpt lat="59.2551255226" lon="30.6864023209"><time>2026-09-01T16:14:05Z</time></trkpt><trkpt lat="59.2551255226" lon="30.6864023209"><time>2026-09-01T16:14:08Z</time></trkpt><trkpt lat="59.2551469803" lon="30.6862950325"><time>2026-09-01T16:14:10Z</time></trkpt><trkpt lat="59.2551469803" lon="30.6862735748"><time>2026-09-01T16:14:13Z</time></trkpt><trkpt lat="59.2551469803" lon="30.6862092018"><time>2026-09-01T16:14:15Z</time></trkpt><trkpt lat="59.2551469803" lon="30.6861448288"><time>2026-09-01T16:14:18Z</time></trkpt><trkpt lat="59.2551684380" lon="30.6861233711"><time>2026-09-01T16:14:20Z</time></trkpt><trkpt lat="59.2551684380" lon="30.6861019135"><time>2026-09-01T16:14:23Z</time></trkpt><trkpt lat="59.2551684380" lon="30.6859946251"><time>2026-09-01T16:14:25Z</time></trkpt><trkpt lat="59.2551684380" lon="30.6859087944"><time>2026-09-01T16:14:28Z</time></trkpt><trkpt lat="59.2551898956" lon="30.6858444214"><time>2026-09-01T16:14:30Z</time></trkpt><trkpt lat="59.2551898956" lon="30.6858015060"><time>2026-09-01T16:14:33Z</time></trkpt><trkpt lat="59.2552113533" lon="30.6857585907"><time>2026-09-01T16:14:35Z</time></trkpt><trkpt lat="59.2552113533" lon="30.6857585907"><time>2026-09-01T16:14:38Z</time></trkpt><trkpt lat="59.2552113533" lon="30.6857585907"><time>2026-09-01T16:14:40Z</time></trkpt><trkpt lat="59.2552328110" lon="30.6857800484"><time>2026-09-01T16:14:43Z</time></trkpt><trkpt lat="59.2552328110" lon="30.6857585907"><time>2026-09-01T16:14:45Z</time></trkpt><trkpt lat="59.2552328110" lon="30.6857371330"><time>2026-09-01T16:14:48Z</time></trkpt><trkpt lat="59.2552113533" lon="30.6857156754"><time>2026-09-01T16:14:50Z</time></trkpt><trkpt lat="59.2551898956" lon="30.6857371330"><time>2026-09-01T16:14:53Z</time></trkpt><trkpt lat="59.2551898956" lon="30.6857156754"><time>2026-09-01T16:14:55Z</time></trkpt><trkpt lat="59.2551898956" lon="30.6857156754"><time>2026-09-01T16:14:58Z</time></trkpt><trkpt lat="59.2551898956" lon="30.6857156754"><time>2026-09-01T16:15:00Z</time></trkpt><trkpt lat="59.2551898956" lon="30.6857371330"><time>2026-09-01T16:15:03Z</time></trkpt><trkpt lat="59.2551898956" lon="30.6857156754"><time>2026-09-01T16:15:05Z</time></trkpt><trkpt lat="59.2551898956" lon="30.6857156754"><time>2026-09-01T16:15:08Z</time></trkpt><trkpt lat="59.2551898956" lon="30.6857156754"><time>2026-09-01T16:15:10Z</time></trkpt><trkpt lat="59.2551898956" lon="30.6857156754"><time>2026-09-01T16:15:13Z</time></trkpt><trkpt lat="59.2551898956" lon="30.6857156754"><time>2026-09-01T16:15:15Z</time></trkpt><trkpt lat="59.2551898956" lon="30.6857156754"><time>2026-09-01T16:15:18Z</time></trkpt><trkpt lat="59.2551898956" lon="30.6857156754"><time>2026-09-01T16:15:20Z</time></trkpt><trkpt lat="59.2551898956" lon="30.6857156754"><time>2026-09-01T16:15:23Z</time></trkpt><trkpt lat="59.2551898956" lon="30.6857156754"><time>2026-09-01T16:15:25Z</time></trkpt><trkpt lat="59.2551898956" lon="30.6857156754"><time>2026-09-01T16:15:28Z</time></trkpt><trkpt lat="59.2551898956" lon="30.6857156754"><time>2026-09-01T16:15:30Z</time></trkpt><trkpt lat="59.2551898956" lon="30.6857156754"><time>2026-09-01T16:15:33Z</time></trkpt><trkpt lat="59.2551898956" lon="30.6857156754"><time>2026-09-01T16:15:35Z</time></trkpt><trkpt lat="59.2551898956" lon="30.6857156754"><time>2026-09-01T16:15:38Z</time></trkpt><trkpt lat="59.2551898956" lon="30.6857156754"><time>2026-09-01T16:15:40Z</time></trkpt><trkpt lat="59.2551898956" lon="30.6857156754"><time>2026-09-01T16:15:43Z</time></trkpt><trkpt lat="59.2551898956" lon="30.6857156754"><time>2026-09-01T16:15:45Z</time></trkpt><trkpt lat="59.2551898956" lon="30.6857156754"><time>2026-09-01T16:15:48Z</time></trkpt><trkpt lat="59.2551898956" lon="30.6857156754"><time>2026-09-01T16:15:50Z</time></trkpt><trkpt lat="59.2551898956" lon="30.6857156754"><time>2026-09-01T16:15:53Z</time></trkpt><trkpt lat="59.2551898956" lon="30.6857156754"><time>2026-09-01T16:15:55Z</time></trkpt><trkpt lat="59.2551898956" lon="30.6857156754"><time>2026-09-01T16:15:58Z</time></trkpt><trkpt lat="59.2551898956" lon="30.6857156754"><time>2026-09-01T16:16:00Z</time></trkpt><trkpt lat="59.2551898956" lon="30.6857156754"><time>2026-09-01T16:16:03Z</time></trkpt><trkpt lat="59.2551898956" lon="30.6857156754"><time>2026-09-01T16:16:05Z</time></trkpt><trkpt lat="59.2551898956" lon="30.6857156754"><time>2026-09-01T16:16:08Z</time></trkpt><trkpt lat="59.2551898956" lon="30.6857156754"><time>2026-09-01T16:16:10Z</time></trkpt><trkpt lat="59.2551898956" lon="30.6857156754"><time>2026-09-01T16:16:13Z</time></trkpt><trkpt lat="59.2551898956" lon="30.6856942177"><time>2026-09-01T16:16:15Z</time></trkpt><trkpt lat="59.2552113533" lon="30.6856513023"><time>2026-09-01T16:16:18Z</time></trkpt><trkpt lat="59.2552113533" lon="30.6856298447"><time>2026-09-01T16:16:20Z</time></trkpt><trkpt lat="59.2552113533" lon="30.6856298447"><time>2026-09-01T16:16:23Z</time></trkpt><trkpt lat="59.2552113533" lon="30.6856298447"><time>2026-09-01T16:16:25Z</time></trkpt><trkpt lat="59.2552113533" lon="30.6856298447"><time>2026-09-01T16:16:28Z</time></trkpt><trkpt lat="59.2552113533" lon="30.6856298447"><time>2026-09-01T16:16:30Z</time></trkpt><trkpt lat="59.2552113533" lon="30.6856298447"><time>2026-09-01T16:16:33Z</time></trkpt><trkpt lat="59.2552113533" lon="30.6856298447"><time>2026-09-01T16:16:35Z</time></trkpt><trkpt lat="59.2552113533" lon="30.6856298447"><time>2026-09-01T16:16:38Z</time></trkpt><trkpt lat="59.2552113533" lon="30.6856298447"><time>2026-09-01T16:16:40Z</time></trkpt><trkpt lat="59.2552113533" lon="30.6856298447"><time>2026-09-01T16:16:43Z</time></trkpt><trkpt lat="59.2552113533" lon="30.6856298447"><time>2026-09-01T16:16:45Z</time></trkpt><trkpt lat="59.2552113533" lon="30.6856298447"><time>2026-09-01T16:16:48Z</time></trkpt><trkpt lat="59.2552113533" lon="30.6856298447"><time>2026-09-01T16:16:50Z</time></trkpt><trkpt lat="59.2552113533" lon="30.6856298447"><time>2026-09-01T16:16:53Z</time></trkpt><trkpt lat="59.2552113533" lon="30.6856298447"><time>2026-09-01T16:16:55Z</time></trkpt><trkpt lat="59.2552113533" lon="30.6856298447"><time>2026-09-01T16:16:58Z</time></trkpt><trkpt lat="59.2552113533" lon="30.6856298447"><time>2026-09-01T16:17:00Z</time></trkpt><trkpt lat="59.2552113533" lon="30.6856298447"><time>2026-09-01T16:17:03Z</time></trkpt><trkpt lat="59.2552113533" lon="30.6856298447"><time>2026-09-01T16:17:05Z</time></trkpt><trkpt lat="59.2552113533" lon="30.6856298447"><time>2026-09-01T16:17:08Z</time></trkpt><trkpt lat="59.2552113533" lon="30.6856298447"><time>2026-09-01T16:17:10Z</time></trkpt><trkpt lat="59.2552113533" lon="30.6856298447"><time>2026-09-01T16:17:13Z</time></trkpt><trkpt lat="59.2552113533" lon="30.6857156754"><time>2026-09-01T16:17:15Z</time></trkpt><trkpt lat="59.2552113533" lon="30.6857156754"><time>2026-09-01T16:17:18Z</time></trkpt><trkpt lat="59.2552113533" lon="30.6857156754"><time>2026-09-01T16:17:20Z</time></trkpt><trkpt lat="59.2552113533" lon="30.6857156754"><time>2026-09-01T16:17:23Z</time></trkpt><trkpt lat="59.2552113533" lon="30.6857156754"><time>2026-09-01T16:17:25Z</time></trkpt><trkpt lat="59.2552113533" lon="30.6857156754"><time>2026-09-01T16:17:28Z</time></trkpt><trkpt lat="59.2552113533" lon="30.6857156754"><time>2026-09-01T16:17:30Z</time></trkpt><trkpt lat="59.2552113533" lon="30.6857156754"><time>2026-09-01T16:17:33Z</time></trkpt><trkpt lat="59.2552113533" lon="30.6857156754"><time>2026-09-01T16:17:35Z</time></trkpt><trkpt lat="59.2552113533" lon="30.6857156754"><time>2026-09-01T16:17:38Z</time></trkpt><trkpt lat="59.2552113533" lon="30.6857156754"><time>2026-09-01T16:17:40Z</time></trkpt><trkpt lat="59.2552113533" lon="30.6857156754"><time>2026-09-01T16:17:43Z</time></trkpt><trkpt lat="59.2552113533" lon="30.6857156754"><time>2026-09-01T16:17:45Z</time></trkpt><trkpt lat="59.2552113533" lon="30.6857156754"><time>2026-09-01T16:17:48Z</time></trkpt><trkpt lat="59.2552113533" lon="30.6857156754"><time>2026-09-01T16:17:50Z</time></trkpt><trkpt lat="59.2552113533" lon="30.6857156754"><time>2026-09-01T16:17:53Z</time></trkpt><trkpt lat="59.2552113533" lon="30.6857156754"><time>2026-09-01T16:17:55Z</time></trkpt><trkpt lat="59.2552113533" lon="30.6857156754"><time>2026-09-01T16:17:58Z</time></trkpt><trkpt lat="59.2552113533" lon="30.6857156754"><time>2026-09-01T16:18:00Z</time></trkpt><trkpt lat="59.2552113533" lon="30.6857156754"><time>2026-09-01T16:18:03Z</time></trkpt><trkpt lat="59.2552113533" lon="30.6857156754"><time>2026-09-01T16:18:05Z</time></trkpt><trkpt lat="59.2552113533" lon="30.6857156754"><time>2026-09-01T16:18:08Z</time></trkpt><trkpt lat="59.2552113533" lon="30.6857156754"><time>2026-09-01T16:18:10Z</time></trkpt><trkpt lat="59.2552113533" lon="30.6857156754"><time>2026-09-01T16:18:13Z</time></trkpt><trkpt lat="59.2552113533" lon="30.6857156754"><time>2026-09-01T16:18:15Z</time></trkpt><trkpt lat="59.2552113533" lon="30.6857156754"><time>2026-09-01T16:18:18Z</time></trkpt><trkpt lat="59.2552113533" lon="30.6857156754"><time>2026-09-01T16:18:20Z</time></trkpt><trkpt lat="59.2552113533" lon="30.6857156754"><time>2026-09-01T16:18:23Z</time></trkpt><trkpt lat="59.2552113533" lon="30.6857156754"><time>2026-09-01T16:18:25Z</time></trkpt><trkpt lat="59.2552113533" lon="30.6857156754"><time>2026-09-01T16:18:28Z</time></trkpt><trkpt lat="59.2552113533" lon="30.6857156754"><time>2026-09-01T16:18:30Z</time></trkpt><trkpt lat="59.2552113533" lon="30.6857156754"><time>2026-09-01T16:18:33Z</time></trkpt><trkpt lat="59.2552113533" lon="30.6857156754"><time>2026-09-01T16:18:35Z</time></trkpt><trkpt lat="59.2552113533" lon="30.6857156754"><time>2026-09-01T16:18:38Z</time></trkpt><trkpt lat="59.2552113533" lon="30.6857156754"><time>2026-09-01T16:18:40Z</time></trkpt><trkpt lat="59.2552113533" lon="30.6857156754"><time>2026-09-01T16:18:43Z</time></trkpt><trkpt lat="59.2552113533" lon="30.6857156754"><time>2026-09-01T16:18:45Z</time></trkpt><trkpt lat="59.2552113533" lon="30.6857156754"><time>2026-09-01T16:18:48Z</time></trkpt><trkpt lat="59.2552113533" lon="30.6857156754"><time>2026-09-01T16:18:50Z</time></trkpt><trkpt lat="59.2552113533" lon="30.6857156754"><time>2026-09-01T16:18:53Z</time></trkpt><trkpt lat="59.2552113533" lon="30.6857156754"><time>2026-09-01T16:18:55Z</time></trkpt><trkpt lat="59.2552113533" lon="30.6857156754"><time>2026-09-01T16:18:58Z</time></trkpt><trkpt lat="59.2552113533" lon="30.6857156754"><time>2026-09-01T16:19:00Z</time></trkpt><trkpt lat="59.2552113533" lon="30.6857156754"><time>2026-09-01T16:19:03Z</time></trkpt><trkpt lat="59.2552113533" lon="30.6857156754"><time>2026-09-01T16:19:05Z</time></trkpt><trkpt lat="59.2552113533" lon="30.6857156754"><time>2026-09-01T16:19:08Z</time></trkpt><trkpt lat="59.2552113533" lon="30.6857156754"><time>2026-09-01T16:19:10Z</time></trkpt><trkpt lat="59.2552113533" lon="30.6857156754"><time>2026-09-01T16:19:13Z</time></trkpt><trkpt lat="59.2552113533" lon="30.6857156754"><time>2026-09-01T16:19:15Z</time></trkpt><trkpt lat="59.2552113533" lon="30.6857156754"><time>2026-09-01T16:19:18Z</time></trkpt><trkpt lat="59.2552113533" lon="30.6857156754"><time>2026-09-01T16:19:20Z</time></trkpt><trkpt lat="59.2552113533" lon="30.6857156754"><time>2026-09-01T16:19:23Z</time></trkpt><trkpt lat="59.2552113533" lon="30.6857156754"><time>2026-09-01T16:19:25Z</time></trkpt><trkpt lat="59.2552113533" lon="30.6857156754"><time>2026-09-01T16:19:28Z</time></trkpt><trkpt lat="59.2552113533" lon="30.6857156754"><time>2026-09-01T16:19:30Z</time></trkpt><trkpt lat="59.2552113533" lon="30.6857156754"><time>2026-09-01T16:19:33Z</time></trkpt><trkpt lat="59.2552113533" lon="30.6857156754"><time>2026-09-01T16:19:35Z</time></trkpt><trkpt lat="59.2552113533" lon="30.6857371330"><time>2026-09-01T16:19:38Z</time></trkpt><trkpt lat="59.2552113533" lon="30.6857371330"><time>2026-09-01T16:19:40Z</time></trkpt><trkpt lat="59.2552113533" lon="30.6857371330"><time>2026-09-01T16:19:43Z</time></trkpt><trkpt lat="59.2552113533" lon="30.6857371330"><time>2026-09-01T16:19:45Z</time></trkpt><trkpt lat="59.2552113533" lon="30.6857371330"><time>2026-09-01T16:19:48Z</time></trkpt><trkpt lat="59.2552113533" lon="30.6857371330"><time>2026-09-01T16:19:50Z</time></trkpt><trkpt lat="59.2552113533" lon="30.6857371330"><time>2026-09-01T16:19:53Z</time></trkpt><trkpt lat="59.2552113533" lon="30.6857371330"><time>2026-09-01T16:19:55Z</time></trkpt><trkpt lat="59.2552113533" lon="30.6857371330"><time>2026-09-01T16:19:58Z</time></trkpt><trkpt lat="59.2552113533" lon="30.6857371330"><time>2026-09-01T16:20:00Z</time></trkpt><trkpt lat="59.2552113533" lon="30.6857371330"><time>2026-09-01T16:20:03Z</time></trkpt><trkpt lat="59.2552113533" lon="30.6857371330"><time>2026-09-01T16:20:05Z</time></trkpt><trkpt lat="59.2552113533" lon="30.6857371330"><time>2026-09-01T16:20:08Z</time></trkpt><trkpt lat="59.2552113533" lon="30.6857371330"><time>2026-09-01T16:20:10Z</time></trkpt><trkpt lat="59.2552113533" lon="30.6857371330"><time>2026-09-01T16:20:13Z</time></trkpt><trkpt lat="59.2552113533" lon="30.6857371330"><time>2026-09-01T16:20:15Z</time></trkpt><trkpt lat="59.2552113533" lon="30.6857371330"><time>2026-09-01T16:20:18Z</time></trkpt><trkpt lat="59.2552113533" lon="30.6857371330"><time>2026-09-01T16:20:20Z</time></trkpt><trkpt lat="59.2552113533" lon="30.6857371330"><time>2026-09-01T16:20:23Z</time></trkpt><trkpt lat="59.2552113533" lon="30.6857371330"><time>2026-09-01T16:20:25Z</time></trkpt><trkpt lat="59.2552113533" lon="30.6857371330"><time>2026-09-01T16:20:28Z</time></trkpt><trkpt lat="59.2552113533" lon="30.6857371330"><time>2026-09-01T16:20:30Z</time></trkpt><trkpt lat="59.2552113533" lon="30.6857371330"><time>2026-09-01T16:20:33Z</time></trkpt><trkpt lat="59.2551898956" lon="30.6856942177"><time>2026-09-01T16:20:35Z</time></trkpt><trkpt lat="59.2551898956" lon="30.6856942177"><time>2026-09-01T16:20:38Z</time></trkpt><trkpt lat="59.2551898956" lon="30.6856942177"><time>2026-09-01T16:20:40Z</time></trkpt><trkpt lat="59.2551898956" lon="30.6856942177"><time>2026-09-01T16:20:43Z</time></trkpt><trkpt lat="59.2551898956" lon="30.6856942177"><time>2026-09-01T16:20:45Z</time></trkpt><trkpt lat="59.2551898956" lon="30.6856942177"><time>2026-09-01T16:20:48Z</time></trkpt><trkpt lat="59.2551898956" lon="30.6856942177"><time>2026-09-01T16:20:50Z</time></trkpt><trkpt lat="59.2551898956" lon="30.6856942177"><time>2026-09-01T16:20:53Z</time></trkpt><trkpt lat="59.2551898956" lon="30.6856942177"><time>2026-09-01T16:20:55Z</time></trkpt><trkpt lat="59.2551898956" lon="30.6856942177"><time>2026-09-01T16:20:58Z</time></trkpt><trkpt lat="59.2551898956" lon="30.6856942177"><time>2026-09-01T16:21:00Z</time></trkpt><trkpt lat="59.2551898956" lon="30.6856942177"><time>2026-09-01T16:21:03Z</time></trkpt><trkpt lat="59.2551898956" lon="30.6856942177"><time>2026-09-01T16:21:05Z</time></trkpt><trkpt lat="59.2551898956" lon="30.6856942177"><time>2026-09-01T16:21:08Z</time></trkpt><trkpt lat="59.2551898956" lon="30.6856942177"><time>2026-09-01T16:21:10Z</time></trkpt><trkpt lat="59.2551898956" lon="30.6856942177"><time>2026-09-01T16:21:13Z</time></trkpt><trkpt lat="59.2551898956" lon="30.6856942177"><time>2026-09-01T16:21:15Z</time></trkpt><trkpt lat="59.2551898956" lon="30.6856942177"><time>2026-09-01T16:21:18Z</time></trkpt><trkpt lat="59.2551898956" lon="30.6856942177"><time>2026-09-01T16:21:20Z</time></trkpt><trkpt lat="59.2551898956" lon="30.6856942177"><time>2026-09-01T16:21:23Z</time></trkpt><trkpt lat="59.2551898956" lon="30.6856942177"><time>2026-09-01T16:21:25Z</time></trkpt><trkpt lat="59.2551898956" lon="30.6856942177"><time>2026-09-01T16:21:28Z</time></trkpt><trkpt lat="59.2551898956" lon="30.6856942177"><time>2026-09-01T16:21:30Z</time></trkpt><trkpt lat="59.2551898956" lon="30.6856942177"><time>2026-09-01T16:21:33Z</time></trkpt><trkpt lat="59.2551898956" lon="30.6856942177"><time>2026-09-01T16:21:35Z</time></trkpt><trkpt lat="59.2551898956" lon="30.6856942177"><time>2026-09-01T16:21:38Z</time></trkpt><trkpt lat="59.2551898956" lon="30.6856942177"><time>2026-09-01T16:21:40Z</time></trkpt><trkpt lat="59.2551898956" lon="30.6856942177"><time>2026-09-01T16:21:43Z</time></trkpt><trkpt lat="59.2551898956" lon="30.6856942177"><time>2026-09-01T16:21:45Z</time></trkpt><trkpt lat="59.2551898956" lon="30.6856942177"><time>2026-09-01T16:21:48Z</time></trkpt><trkpt lat="59.2551898956" lon="30.6856942177"><time>2026-09-01T16:21:50Z</time></trkpt><trkpt lat="59.2551898956" lon="30.6856942177"><time>2026-09-01T16:21:53Z</time></trkpt><trkpt lat="59.2551898956" lon="30.6856942177"><time>2026-09-01T16:21:55Z</time></trkpt><trkpt lat="59.2551898956" lon="30.6856942177"><time>2026-09-01T16:21:58Z</time></trkpt><trkpt lat="59.2551898956" lon="30.6856942177"><time>2026-09-01T16:22:00Z</time></trkpt><trkpt lat="59.2551898956" lon="30.6856942177"><time>2026-09-01T16:22:03Z</time></trkpt><trkpt lat="59.2551898956" lon="30.6856942177"><time>2026-09-01T16:22:05Z</time></trkpt><trkpt lat="59.2551898956" lon="30.6856942177"><time>2026-09-01T16:22:08Z</time></trkpt><trkpt lat="59.2551898956" lon="30.6856942177"><time>2026-09-01T16:22:10Z</time></trkpt><trkpt lat="59.2551898956" lon="30.6856942177"><time>2026-09-01T16:22:13Z</time></trkpt><trkpt lat="59.2551898956" lon="30.6856942177"><time>2026-09-01T16:22:15Z</time></trkpt><trkpt lat="59.2551898956" lon="30.6856942177"><time>2026-09-01T16:22:18Z</time></trkpt><trkpt lat="59.2551898956" lon="30.6856942177"><time>2026-09-01T16:22:20Z</time></trkpt><trkpt lat="59.2551898956" lon="30.6856942177"><time>2026-09-01T16:22:23Z</time></trkpt><trkpt lat="59.2551898956" lon="30.6856942177"><time>2026-09-01T16:22:25Z</time></trkpt><trkpt lat="59.2551898956" lon="30.6856942177"><time>2026-09-01T16:22:28Z</time></trkpt><trkpt lat="59.2551898956" lon="30.6856727600"><time>2026-09-01T16:22:30Z</time></trkpt><trkpt lat="59.2551898956" lon="30.6856727600"><time>2026-09-01T16:22:33Z</time></trkpt><trkpt lat="59.2551898956" lon="30.6856727600"><time>2026-09-01T16:22:35Z</time></trkpt><trkpt lat="59.2551898956" lon="30.6856727600"><time>2026-09-01T16:22:38Z</time></trkpt><trkpt lat="59.2551898956" lon="30.6856727600"><time>2026-09-01T16:22:40Z</time></trkpt><trkpt lat="59.2551898956" lon="30.6856727600"><time>2026-09-01T16:22:43Z</time></trkpt><trkpt lat="59.2551898956" lon="30.6856727600"><time>2026-09-01T16:22:45Z</time></trkpt><trkpt lat="59.2551898956" lon="30.6856727600"><time>2026-09-01T16:22:48Z</time></trkpt><trkpt lat="59.2551898956" lon="30.6856727600"><time>2026-09-01T16:22:50Z</time></trkpt><trkpt lat="59.2551898956" lon="30.6856727600"><time>2026-09-01T16:22:53Z</time></trkpt><trkpt lat="59.2551898956" lon="30.6856727600"><time>2026-09-01T16:22:55Z</time></trkpt><trkpt lat="59.2551898956" lon="30.6856727600"><time>2026-09-01T16:22:58Z</time></trkpt><trkpt lat="59.2551898956" lon="30.6856727600"><time>2026-09-01T16:23:00Z</time></trkpt><trkpt lat="59.2551898956" lon="30.6856727600"><time>2026-09-01T16:23:03Z</time></trkpt><trkpt lat="59.2551898956" lon="30.6856727600"><time>2026-09-01T16:23:05Z</time></trkpt><trkpt lat="59.2551898956" lon="30.6856727600"><time>2026-09-01T16:23:08Z</time></trkpt><trkpt lat="59.2551898956" lon="30.6856942177"><time>2026-09-01T16:23:10Z</time></trkpt><trkpt lat="59.2551898956" lon="30.6856942177"><time>2026-09-01T16:23:13Z</time></trkpt><trkpt lat="59.2552113533" lon="30.6856942177"><time>2026-09-01T16:23:15Z</time></trkpt><trkpt lat="59.2552113533" lon="30.6857156754"><time>2026-09-01T16:23:18Z</time></trkpt><trkpt lat="59.2552328110" lon="30.6857371330"><time>2026-09-01T16:23:20Z</time></trkpt><trkpt lat="59.2552328110" lon="30.6857371330"><time>2026-09-01T16:23:23Z</time></trkpt><trkpt lat="59.2552328110" lon="30.6857371330"><time>2026-09-01T16:23:25Z</time></trkpt><trkpt lat="59.2552328110" lon="30.6857371330"><time>2026-09-01T16:23:28Z</time></trkpt><trkpt lat="59.2552328110" lon="30.6857371330"><time>2026-09-01T16:23:30Z</time></trkpt><trkpt lat="59.2552328110" lon="30.6857371330"><time>2026-09-01T16:23:33Z</time></trkpt><trkpt lat="59.2552328110" lon="30.6857371330"><time>2026-09-01T16:23:35Z</time></trkpt><trkpt lat="59.2552328110" lon="30.6857371330"><time>2026-09-01T16:23:38Z</time></trkpt><trkpt lat="59.2552113533" lon="30.6856942177"><time>2026-09-01T16:23:40Z</time></trkpt><trkpt lat="59.2552113533" lon="30.6856942177"><time>2026-09-01T16:23:43Z</time></trkpt><trkpt lat="59.2552113533" lon="30.6856942177"><time>2026-09-01T16:23:45Z</time></trkpt><trkpt lat="59.2552113533" lon="30.6856942177"><time>2026-09-01T16:23:48Z</time></trkpt><trkpt lat="59.2552113533" lon="30.6856942177"><time>2026-09-01T16:23:50Z</time></trkpt><trkpt lat="59.2552113533" lon="30.6856942177"><time>2026-09-01T16:23:53Z</time></trkpt><trkpt lat="59.2552113533" lon="30.6856942177"><time>2026-09-01T16:23:55Z</time></trkpt><trkpt lat="59.2552113533" lon="30.6856942177"><time>2026-09-01T16:23:58Z</time></trkpt><trkpt lat="59.2552113533" lon="30.6856942177"><time>2026-09-01T16:24:00Z</time></trkpt><trkpt lat="59.2552113533" lon="30.6856942177"><time>2026-09-01T16:24:03Z</time></trkpt><trkpt lat="59.2552113533" lon="30.6856942177"><time>2026-09-01T16:24:05Z</time></trkpt><trkpt lat="59.2552113533" lon="30.6856942177"><time>2026-09-01T16:24:08Z</time></trkpt><trkpt lat="59.2552113533" lon="30.6856942177"><time>2026-09-01T16:24:10Z</time></trkpt><trkpt lat="59.2552113533" lon="30.6856942177"><time>2026-09-01T16:24:13Z</time></trkpt><trkpt lat="59.2552113533" lon="30.6856942177"><time>2026-09-01T16:24:15Z</time></trkpt><trkpt lat="59.2552113533" lon="30.6856942177"><time>2026-09-01T16:24:18Z</time></trkpt><trkpt lat="59.2552113533" lon="30.6856942177"><time>2026-09-01T16:24:20Z</time></trkpt><trkpt lat="59.2552113533" lon="30.6856942177"><time>2026-09-01T16:24:23Z</time></trkpt><trkpt lat="59.2552113533" lon="30.6856942177"><time>2026-09-01T16:24:25Z</time></trkpt><trkpt lat="59.2552113533" lon="30.6856942177"><time>2026-09-01T16:24:28Z</time></trkpt><trkpt lat="59.2552113533" lon="30.6856942177"><time>2026-09-01T16:24:30Z</time></trkpt><trkpt lat="59.2552113533" lon="30.6856942177"><time>2026-09-01T16:24:33Z</time></trkpt><trkpt lat="59.2552113533" lon="30.6856942177"><time>2026-09-01T16:24:35Z</time></trkpt><trkpt lat="59.2552113533" lon="30.6857156754"><time>2026-09-01T16:24:38Z</time></trkpt><trkpt lat="59.2552113533" lon="30.6857156754"><time>2026-09-01T16:24:40Z</time></trkpt><trkpt lat="59.2552113533" lon="30.6857156754"><time>2026-09-01T16:24:43Z</time></trkpt><trkpt lat="59.2552113533" lon="30.6857156754"><time>2026-09-01T16:24:45Z</time></trkpt><trkpt lat="59.2552113533" lon="30.6857156754"><time>2026-09-01T16:24:48Z</time></trkpt><trkpt lat="59.2552113533" lon="30.6857156754"><time>2026-09-01T16:24:50Z</time></trkpt><trkpt lat="59.2552113533" lon="30.6857156754"><time>2026-09-01T16:24:53Z</time></trkpt><trkpt lat="59.2552113533" lon="30.6857156754"><time>2026-09-01T16:24:55Z</time></trkpt><trkpt lat="59.2552113533" lon="30.6857156754"><time>2026-09-01T16:24:58Z</time></trkpt><trkpt lat="59.2552113533" lon="30.6857156754"><time>2026-09-01T16:25:00Z</time></trkpt><trkpt lat="59.2552113533" lon="30.6857156754"><time>2026-09-01T16:25:03Z</time></trkpt><trkpt lat="59.2552113533" lon="30.6857156754"><time>2026-09-01T16:25:05Z</time></trkpt><trkpt lat="59.2552113533" lon="30.6857156754"><time>2026-09-01T16:25:08Z</time></trkpt><trkpt lat="59.2552113533" lon="30.6857156754"><time>2026-09-01T16:25:10Z</time></trkpt><trkpt lat="59.2552113533" lon="30.6857156754"><time>2026-09-01T16:25:13Z</time></trkpt><trkpt lat="59.2552113533" lon="30.6857156754"><time>2026-09-01T16:25:15Z</time></trkpt><trkpt lat="59.2552113533" lon="30.6857156754"><time>2026-09-01T16:25:18Z</time></trkpt><trkpt lat="59.2552113533" lon="30.6857156754"><time>2026-09-01T16:25:20Z</time></trkpt><trkpt lat="59.2552113533" lon="30.6857156754"><time>2026-09-01T16:25:23Z</time></trkpt><trkpt lat="59.2552113533" lon="30.6857156754"><time>2026-09-01T16:25:25Z</time></trkpt><trkpt lat="59.2552113533" lon="30.6857156754"><time>2026-09-01T16:25:28Z</time></trkpt><trkpt lat="59.2552113533" lon="30.6857156754"><time>2026-09-01T16:25:30Z</time></trkpt><trkpt lat="59.2552113533" lon="30.6857156754"><time>2026-09-01T16:25:33Z</time></trkpt><trkpt lat="59.2552113533" lon="30.6857156754"><time>2026-09-01T16:25:35Z</time></trkpt><trkpt lat="59.2552113533" lon="30.6857156754"><time>2026-09-01T16:25:38Z</time></trkpt><trkpt lat="59.2552113533" lon="30.6857156754"><time>2026-09-01T16:25:40Z</time></trkpt><trkpt lat="59.2552113533" lon="30.6857156754"><time>2026-09-01T16:25:43Z</time></trkpt><trkpt lat="59.2552113533" lon="30.6857156754"><time>2026-09-01T16:25:45Z</time></trkpt><trkpt lat="59.2552113533" lon="30.6857156754"><time>2026-09-01T16:25:48Z</time></trkpt><trkpt lat="59.2552113533" lon="30.6857156754"><time>2026-09-01T16:25:50Z</time></trkpt><trkpt lat="59.2552113533" lon="30.6857156754"><time>2026-09-01T16:25:53Z</time></trkpt><trkpt lat="59.2552113533" lon="30.6857156754"><time>2026-09-01T16:25:55Z</time></trkpt><trkpt lat="59.2552113533" lon="30.6857156754"><time>2026-09-01T16:25:58Z</time></trkpt><trkpt lat="59.2552328110" lon="30.6857156754"><time>2026-09-01T16:26:00Z</time></trkpt><trkpt lat="59.2552328110" lon="30.6857371330"><time>2026-09-01T16:26:03Z</time></trkpt><trkpt lat="59.2552328110" lon="30.6857371330"><time>2026-09-01T16:26:05Z</time></trkpt><trkpt lat="59.2552328110" lon="30.6857371330"><time>2026-09-01T16:26:08Z</time></trkpt><trkpt lat="59.2552328110" lon="30.6857371330"><time>2026-09-01T16:26:10Z</time></trkpt><trkpt lat="59.2552328110" lon="30.6857371330"><time>2026-09-01T16:26:13Z</time></trkpt><trkpt lat="59.2552328110" lon="30.6857371330"><time>2026-09-01T16:26:15Z</time></trkpt><trkpt lat="59.2552328110" lon="30.6857371330"><time>2026-09-01T16:26:18Z</time></trkpt><trkpt lat="59.2552328110" lon="30.6857371330"><time>2026-09-01T16:26:20Z</time></trkpt><trkpt lat="59.2552328110" lon="30.6857371330"><time>2026-09-01T16:26:23Z</time></trkpt><trkpt lat="59.2552328110" lon="30.6857371330"><time>2026-09-01T16:26:25Z</time></trkpt><trkpt lat="59.2552328110" lon="30.6857371330"><time>2026-09-01T16:26:28Z</time></trkpt><trkpt lat="59.2552328110" lon="30.6857371330"><time>2026-09-01T16:26:30Z</time></trkpt><trkpt lat="59.2552542686" lon="30.6857371330"><time>2026-09-01T16:26:33Z</time></trkpt><trkpt lat="59.2552328110" lon="30.6857371330"><time>2026-09-01T16:26:35Z</time></trkpt><trkpt lat="59.2552328110" lon="30.6857371330"><time>2026-09-01T16:26:38Z</time></trkpt><trkpt lat="59.2552328110" lon="30.6857371330"><time>2026-09-01T16:26:40Z</time></trkpt><trkpt lat="59.2552328110" lon="30.6857371330"><time>2026-09-01T16:26:43Z</time></trkpt><trkpt lat="59.2552328110" lon="30.6857371330"><time>2026-09-01T16:26:45Z</time></trkpt><trkpt lat="59.2552328110" lon="30.6857371330"><time>2026-09-01T16:26:48Z</time></trkpt><trkpt lat="59.2552328110" lon="30.6857371330"><time>2026-09-01T16:26:50Z</time></trkpt><trkpt lat="59.2552328110" lon="30.6857371330"><time>2026-09-01T16:26:53Z</time></trkpt><trkpt lat="59.2552328110" lon="30.6857371330"><time>2026-09-01T16:26:55Z</time></trkpt><trkpt lat="59.2552328110" lon="30.6857371330"><time>2026-09-01T16:26:58Z</time></trkpt><trkpt lat="59.2552328110" lon="30.6857371330"><time>2026-09-01T16:27:00Z</time></trkpt><trkpt lat="59.2552328110" lon="30.6857371330"><time>2026-09-01T16:27:03Z</time></trkpt><trkpt lat="59.2552328110" lon="30.6857371330"><time>2026-09-01T16:27:05Z</time></trkpt><trkpt lat="59.2552328110" lon="30.6857371330"><time>2026-09-01T16:27:08Z</time></trkpt><trkpt lat="59.2552328110" lon="30.6857371330"><time>2026-09-01T16:27:10Z</time></trkpt><trkpt lat="59.2552328110" lon="30.6857371330"><time>2026-09-01T16:27:13Z</time></trkpt><trkpt lat="59.2552328110" lon="30.6857371330"><time>2026-09-01T16:27:15Z</time></trkpt><trkpt lat="59.2552328110" lon="30.6857371330"><time>2026-09-01T16:27:18Z</time></trkpt><trkpt lat="59.2552328110" lon="30.6857371330"><time>2026-09-01T16:27:20Z</time></trkpt><trkpt lat="59.2552328110" lon="30.6857371330"><time>2026-09-01T16:27:23Z</time></trkpt><trkpt lat="59.2552328110" lon="30.6857371330"><time>2026-09-01T16:27:25Z</time></trkpt><trkpt lat="59.2552328110" lon="30.6857371330"><time>2026-09-01T16:27:28Z</time></trkpt><trkpt lat="59.2552328110" lon="30.6857371330"><time>2026-09-01T16:27:30Z</time></trkpt><trkpt lat="59.2552328110" lon="30.6857371330"><time>2026-09-01T16:27:33Z</time></trkpt><trkpt lat="59.2552328110" lon="30.6857371330"><time>2026-09-01T16:27:35Z</time></trkpt><trkpt lat="59.2552328110" lon="30.6857371330"><time>2026-09-01T16:27:38Z</time></trkpt><trkpt lat="59.2552328110" lon="30.6857371330"><time>2026-09-01T16:27:40Z</time></trkpt><trkpt lat="59.2552328110" lon="30.6857371330"><time>2026-09-01T16:27:43Z</time></trkpt><trkpt lat="59.2552328110" lon="30.6857371330"><time>2026-09-01T16:27:45Z</time></trkpt><trkpt lat="59.2552328110" lon="30.6857371330"><time>2026-09-01T16:27:48Z</time></trkpt><trkpt lat="59.2552328110" lon="30.6857371330"><time>2026-09-01T16:27:50Z</time></trkpt><trkpt lat="59.2552328110" lon="30.6857371330"><time>2026-09-01T16:27:53Z</time></trkpt><trkpt lat="59.2552328110" lon="30.6857371330"><time>2026-09-01T16:27:55Z</time></trkpt><trkpt lat="59.2552328110" lon="30.6857371330"><time>2026-09-01T16:27:58Z</time></trkpt><trkpt lat="59.2552113533" lon="30.6857371330"><time>2026-09-01T16:28:00Z</time></trkpt><trkpt lat="59.2552113533" lon="30.6857371330"><time>2026-09-01T16:28:03Z</time></trkpt><trkpt lat="59.2552113533" lon="30.6857371330"><time>2026-09-01T16:28:05Z</time></trkpt><trkpt lat="59.2552113533" lon="30.6857371330"><time>2026-09-01T16:28:08Z</time></trkpt><trkpt lat="59.2552113533" lon="30.6857371330"><time>2026-09-01T16:28:10Z</time></trkpt><trkpt lat="59.2552113533" lon="30.6857371330"><time>2026-09-01T16:28:13Z</time></trkpt><trkpt lat="59.2552113533" lon="30.6857371330"><time>2026-09-01T16:28:15Z</time></trkpt><trkpt lat="59.2552113533" lon="30.6857371330"><time>2026-09-01T16:28:18Z</time></trkpt><trkpt lat="59.2552113533" lon="30.6857371330"><time>2026-09-01T16:28:20Z</time></trkpt><trkpt lat="59.2552113533" lon="30.6857371330"><time>2026-09-01T16:28:23Z</time></trkpt><trkpt lat="59.2552113533" lon="30.6857371330"><time>2026-09-01T16:28:25Z</time></trkpt><trkpt lat="59.2552113533" lon="30.6857371330"><time>2026-09-01T16:28:28Z</time></trkpt><trkpt lat="59.2552113533" lon="30.6857371330"><time>2026-09-01T16:28:30Z</time></trkpt><trkpt lat="59.2552113533" lon="30.6857371330"><time>2026-09-01T16:28:33Z</time></trkpt><trkpt lat="59.2552113533" lon="30.6857371330"><time>2026-09-01T16:28:35Z</time></trkpt><trkpt lat="59.2552113533" lon="30.6857371330"><time>2026-09-01T16:28:38Z</time></trkpt><trkpt lat="59.2552113533" lon="30.6857371330"><time>2026-09-01T16:28:40Z</time></trkpt><trkpt lat="59.2552113533" lon="30.6857371330"><time>2026-09-01T16:28:43Z</time></trkpt><trkpt lat="59.2552113533" lon="30.6857371330"><time>2026-09-01T16:28:45Z</time></trkpt><trkpt lat="59.2552113533" lon="30.6857371330"><time>2026-09-01T16:28:48Z</time></trkpt><trkpt lat="59.2552113533" lon="30.6857371330"><time>2026-09-01T16:28:50Z</time></trkpt><trkpt lat="59.2552113533" lon="30.6857371330"><time>2026-09-01T16:28:53Z</time></trkpt><trkpt lat="59.2552542686" lon="30.6857585907"><time>2026-09-01T16:28:55Z</time></trkpt><trkpt lat="59.2552971840" lon="30.6858015060"><time>2026-09-01T16:28:58Z</time></trkpt><trkpt lat="59.2552971840" lon="30.6857800484"><time>2026-09-01T16:29:00Z</time></trkpt><trkpt lat="59.2552971840" lon="30.6857800484"><time>2026-09-01T16:29:03Z</time></trkpt><trkpt lat="59.2553186417" lon="30.6857800484"><time>2026-09-01T16:29:05Z</time></trkpt><trkpt lat="59.2553615570" lon="30.6857800484"><time>2026-09-01T16:29:08Z</time></trkpt><trkpt lat="59.2553615570" lon="30.6857800484"><time>2026-09-01T16:29:10Z</time></trkpt><trkpt lat="59.2553615570" lon="30.6857800484"><time>2026-09-01T16:29:13Z</time></trkpt><trkpt lat="59.2553615570" lon="30.6857800484"><time>2026-09-01T16:29:15Z</time></trkpt><trkpt lat="59.2553615570" lon="30.6857585907"><time>2026-09-01T16:29:18Z</time></trkpt><trkpt lat="59.2553400993" lon="30.6857585907"><time>2026-09-01T16:29:20Z</time></trkpt><trkpt lat="59.2553400993" lon="30.6857800484"><time>2026-09-01T16:29:23Z</time></trkpt><trkpt lat="59.2553400993" lon="30.6857800484"><time>2026-09-01T16:29:25Z</time></trkpt><trkpt lat="59.2553400993" lon="30.6857585907"><time>2026-09-01T16:29:28Z</time></trkpt><trkpt lat="59.2553400993" lon="30.6856727600"><time>2026-09-01T16:29:30Z</time></trkpt><trkpt lat="59.2553400993" lon="30.6856298447"><time>2026-09-01T16:29:33Z</time></trkpt><trkpt lat="59.2553400993" lon="30.6856083870"><time>2026-09-01T16:29:35Z</time></trkpt><trkpt lat="59.2553400993" lon="30.6856083870"><time>2026-09-01T16:29:38Z</time></trkpt><trkpt lat="59.2553615570" lon="30.6856083870"><time>2026-09-01T16:29:40Z</time></trkpt><trkpt lat="59.2553615570" lon="30.6856083870"><time>2026-09-01T16:29:43Z</time></trkpt><trkpt lat="59.2553615570" lon="30.6856083870"><time>2026-09-01T16:29:45Z</time></trkpt><trkpt lat="59.2553400993" lon="30.6855869293"><time>2026-09-01T16:29:48Z</time></trkpt><trkpt lat="59.2553186417" lon="30.6855869293"><time>2026-09-01T16:29:50Z</time></trkpt><trkpt lat="59.2553186417" lon="30.6855869293"><time>2026-09-01T16:29:53Z</time></trkpt><trkpt lat="59.2552757263" lon="30.6855654716"><time>2026-09-01T16:29:55Z</time></trkpt><trkpt lat="59.2552757263" lon="30.6855654716"><time>2026-09-01T16:29:58Z</time></trkpt><trkpt lat="59.2552757263" lon="30.6855654716"><time>2026-09-01T16:30:00Z</time></trkpt><trkpt lat="59.2552757263" lon="30.6855654716"><time>2026-09-01T16:30:03Z</time></trkpt><trkpt lat="59.2552757263" lon="30.6855654716"><time>2026-09-01T16:30:05Z</time></trkpt><trkpt lat="59.2552757263" lon="30.6855654716"><time>2026-09-01T16:30:08Z</time></trkpt><trkpt lat="59.2552757263" lon="30.6855654716"><time>2026-09-01T16:30:10Z</time></trkpt><trkpt lat="59.2552757263" lon="30.6855654716"><time>2026-09-01T16:30:13Z</time></trkpt><trkpt lat="59.2552542686" lon="30.6856083870"><time>2026-09-01T16:30:15Z</time></trkpt><trkpt lat="59.2552328110" lon="30.6856513023"><time>2026-09-01T16:30:18Z</time></trkpt><trkpt lat="59.2552113533" lon="30.6856513023"><time>2026-09-01T16:30:20Z</time></trkpt><trkpt lat="59.2552113533" lon="30.6856513023"><time>2026-09-01T16:30:23Z</time></trkpt><trkpt lat="59.2552113533" lon="30.6856513023"><time>2026-09-01T16:30:25Z</time></trkpt><trkpt lat="59.2552113533" lon="30.6856513023"><time>2026-09-01T16:30:28Z</time></trkpt><trkpt lat="59.2552113533" lon="30.6856513023"><time>2026-09-01T16:30:30Z</time></trkpt><trkpt lat="59.2552113533" lon="30.6856513023"><time>2026-09-01T16:30:33Z</time></trkpt><trkpt lat="59.2552113533" lon="30.6856513023"><time>2026-09-01T16:30:35Z</time></trkpt><trkpt lat="59.2552113533" lon="30.6856513023"><time>2026-09-01T16:30:38Z</time></trkpt><trkpt lat="59.2552113533" lon="30.6856513023"><time>2026-09-01T16:30:40Z</time></trkpt><trkpt lat="59.2552328110" lon="30.6857156754"><time>2026-09-01T16:30:43Z</time></trkpt><trkpt lat="59.2552542686" lon="30.6857800484"><time>2026-09-01T16:30:45Z</time></trkpt><trkpt lat="59.2552542686" lon="30.6857800484"><time>2026-09-01T16:30:48Z</time></trkpt><trkpt lat="59.2552328110" lon="30.6857371330"><time>2026-09-01T16:30:50Z</time></trkpt><trkpt lat="59.2552113533" lon="30.6856942177"><time>2026-09-01T16:30:53Z</time></trkpt><trkpt lat="59.2552113533" lon="30.6857156754"><time>2026-09-01T16:30:55Z</time></trkpt><trkpt lat="59.2552113533" lon="30.6857371330"><time>2026-09-01T16:30:58Z</time></trkpt><trkpt lat="59.2552113533" lon="30.6857371330"><time>2026-09-01T16:31:00Z</time></trkpt><trkpt lat="59.2552113533" lon="30.6857371330"><time>2026-09-01T16:31:03Z</time></trkpt><trkpt lat="59.2552113533" lon="30.6857371330"><time>2026-09-01T16:31:05Z</time></trkpt><trkpt lat="59.2552113533" lon="30.6857585907"><time>2026-09-01T16:31:08Z</time></trkpt><trkpt lat="59.2552113533" lon="30.6857585907"><time>2026-09-01T16:31:10Z</time></trkpt><trkpt lat="59.2552113533" lon="30.6857585907"><time>2026-09-01T16:31:13Z</time></trkpt><trkpt lat="59.2552113533" lon="30.6857585907"><time>2026-09-01T16:31:15Z</time></trkpt><trkpt lat="59.2552113533" lon="30.6857585907"><time>2026-09-01T16:31:18Z</time></trkpt><trkpt lat="59.2552113533" lon="30.6857585907"><time>2026-09-01T16:31:20Z</time></trkpt><trkpt lat="59.2552113533" lon="30.6857585907"><time>2026-09-01T16:31:23Z</time></trkpt><trkpt lat="59.2552113533" lon="30.6857585907"><time>2026-09-01T16:31:25Z</time></trkpt><trkpt lat="59.2552113533" lon="30.6857585907"><time>2026-09-01T16:31:28Z</time></trkpt><trkpt lat="59.2552113533" lon="30.6857585907"><time>2026-09-01T16:31:30Z</time></trkpt><trkpt lat="59.2552113533" lon="30.6857585907"><time>2026-09-01T16:31:33Z</time></trkpt><trkpt lat="59.2552113533" lon="30.6857585907"><time>2026-09-01T16:31:35Z</time></trkpt><trkpt lat="59.2552113533" lon="30.6857371330"><time>2026-09-01T16:31:38Z</time></trkpt><trkpt lat="59.2552113533" lon="30.6857371330"><time>2026-09-01T16:31:40Z</time></trkpt><trkpt lat="59.2552113533" lon="30.6857371330"><time>2026-09-01T16:31:43Z</time></trkpt><trkpt lat="59.2552113533" lon="30.6857371330"><time>2026-09-01T16:31:45Z</time></trkpt><trkpt lat="59.2552113533" lon="30.6857371330"><time>2026-09-01T16:31:48Z</time></trkpt><trkpt lat="59.2551898956" lon="30.6856942177"><time>2026-09-01T16:31:50Z</time></trkpt><trkpt lat="59.2552113533" lon="30.6856942177"><time>2026-09-01T16:31:53Z</time></trkpt><trkpt lat="59.2552113533" lon="30.6856942177"><time>2026-09-01T16:31:55Z</time></trkpt><trkpt lat="59.2552113533" lon="30.6856942177"><time>2026-09-01T16:31:58Z</time></trkpt><trkpt lat="59.2552113533" lon="30.6856942177"><time>2026-09-01T16:32:00Z</time></trkpt><trkpt lat="59.2552113533" lon="30.6856942177"><time>2026-09-01T16:32:03Z</time></trkpt><trkpt lat="59.2552113533" lon="30.6856942177"><time>2026-09-01T16:32:05Z</time></trkpt><trkpt lat="59.2552113533" lon="30.6856942177"><time>2026-09-01T16:32:08Z</time></trkpt><trkpt lat="59.2552113533" lon="30.6856942177"><time>2026-09-01T16:32:10Z</time></trkpt><trkpt lat="59.2552113533" lon="30.6856942177"><time>2026-09-01T16:32:13Z</time></trkpt><trkpt lat="59.2552113533" lon="30.6856942177"><time>2026-09-01T16:32:15Z</time></trkpt><trkpt lat="59.2552328110" lon="30.6856727600"><time>2026-09-01T16:32:18Z</time></trkpt><trkpt lat="59.2552542686" lon="30.6856513023"><time>2026-09-01T16:32:20Z</time></trkpt><trkpt lat="59.2552542686" lon="30.6856513023"><time>2026-09-01T16:32:23Z</time></trkpt><trkpt lat="59.2552542686" lon="30.6856513023"><time>2026-09-01T16:32:25Z</time></trkpt><trkpt lat="59.2552542686" lon="30.6856513023"><time>2026-09-01T16:32:28Z</time></trkpt><trkpt lat="59.2552542686" lon="30.6856513023"><time>2026-09-01T16:32:30Z</time></trkpt><trkpt lat="59.2552328110" lon="30.6856942177"><time>2026-09-01T16:32:33Z</time></trkpt><trkpt lat="59.2552328110" lon="30.6856942177"><time>2026-09-01T16:32:35Z</time></trkpt><trkpt lat="59.2552328110" lon="30.6856942177"><time>2026-09-01T16:32:38Z</time></trkpt><trkpt lat="59.2552328110" lon="30.6856942177"><time>2026-09-01T16:32:40Z</time></trkpt><trkpt lat="59.2552328110" lon="30.6856942177"><time>2026-09-01T16:32:43Z</time></trkpt><trkpt lat="59.2552328110" lon="30.6856942177"><time>2026-09-01T16:32:45Z</time></trkpt><trkpt lat="59.2552328110" lon="30.6856942177"><time>2026-09-01T16:32:48Z</time></trkpt><trkpt lat="59.2552328110" lon="30.6856942177"><time>2026-09-01T16:32:53Z</time></trkpt><trkpt lat="59.2552328110" lon="30.6856942177"><time>2026-09-01T16:32:55Z</time></trkpt><trkpt lat="59.2552328110" lon="30.6856942177"><time>2026-09-01T16:32:58Z</time></trkpt><trkpt lat="59.2552328110" lon="30.6856942177"><time>2026-09-01T16:33:00Z</time></trkpt><trkpt lat="59.2552328110" lon="30.6856942177"><time>2026-09-01T16:33:03Z</time></trkpt><trkpt lat="59.2552328110" lon="30.6856942177"><time>2026-09-01T16:33:05Z</time></trkpt><trkpt lat="59.2552328110" lon="30.6856942177"><time>2026-09-01T16:33:08Z</time></trkpt><trkpt lat="59.2552328110" lon="30.6856942177"><time>2026-09-01T16:33:10Z</time></trkpt><trkpt lat="59.2552328110" lon="30.6856727600"><time>2026-09-01T16:33:13Z</time></trkpt><trkpt lat="59.2552328110" lon="30.6856727600"><time>2026-09-01T16:33:15Z</time></trkpt><trkpt lat="59.2552328110" lon="30.6856727600"><time>2026-09-01T16:33:18Z</time></trkpt><trkpt lat="59.2552328110" lon="30.6856727600"><time>2026-09-01T16:33:20Z</time></trkpt><trkpt lat="59.2552328110" lon="30.6856727600"><time>2026-09-01T16:33:23Z</time></trkpt><trkpt lat="59.2552328110" lon="30.6856727600"><time>2026-09-01T16:33:25Z</time></trkpt><trkpt lat="59.2552328110" lon="30.6856727600"><time>2026-09-01T16:33:28Z</time></trkpt><trkpt lat="59.2552328110" lon="30.6856727600"><time>2026-09-01T16:33:30Z</time></trkpt><trkpt lat="59.2552328110" lon="30.6856727600"><time>2026-09-01T16:33:33Z</time></trkpt><trkpt lat="59.2552328110" lon="30.6856727600"><time>2026-09-01T16:33:35Z</time></trkpt><trkpt lat="59.2552328110" lon="30.6856727600"><time>2026-09-01T16:33:38Z</time></trkpt><trkpt lat="59.2552328110" lon="30.6856727600"><time>2026-09-01T16:33:40Z</time></trkpt><trkpt lat="59.2552328110" lon="30.6856727600"><time>2026-09-01T16:33:43Z</time></trkpt><trkpt lat="59.2552328110" lon="30.6856727600"><time>2026-09-01T16:33:45Z</time></trkpt><trkpt lat="59.2552328110" lon="30.6856727600"><time>2026-09-01T16:33:48Z</time></trkpt><trkpt lat="59.2552328110" lon="30.6856727600"><time>2026-09-01T16:33:50Z</time></trkpt><trkpt lat="59.2552328110" lon="30.6856942177"><time>2026-09-01T16:33:53Z</time></trkpt><trkpt lat="59.2552328110" lon="30.6856942177"><time>2026-09-01T16:33:55Z</time></trkpt><trkpt lat="59.2552328110" lon="30.6856942177"><time>2026-09-01T16:33:58Z</time></trkpt><trkpt lat="59.2552328110" lon="30.6856942177"><time>2026-09-01T16:34:00Z</time></trkpt><trkpt lat="59.2552328110" lon="30.6856942177"><time>2026-09-01T16:34:03Z</time></trkpt><trkpt lat="59.2552328110" lon="30.6856942177"><time>2026-09-01T16:34:05Z</time></trkpt><trkpt lat="59.2552328110" lon="30.6856942177"><time>2026-09-01T16:34:08Z</time></trkpt><trkpt lat="59.2552328110" lon="30.6857371330"><time>2026-09-01T16:34:10Z</time></trkpt><trkpt lat="59.2552328110" lon="30.6857371330"><time>2026-09-01T16:34:13Z</time></trkpt><trkpt lat="59.2552328110" lon="30.6857371330"><time>2026-09-01T16:34:15Z</time></trkpt><trkpt lat="59.2552113533" lon="30.6857371330"><time>2026-09-01T16:34:18Z</time></trkpt><trkpt lat="59.2552113533" lon="30.6857371330"><time>2026-09-01T16:34:20Z</time></trkpt><trkpt lat="59.2552113533" lon="30.6857371330"><time>2026-09-01T16:34:23Z</time></trkpt><trkpt lat="59.2552113533" lon="30.6857371330"><time>2026-09-01T16:34:25Z</time></trkpt><trkpt lat="59.2552113533" lon="30.6857371330"><time>2026-09-01T16:34:28Z</time></trkpt><trkpt lat="59.2552113533" lon="30.6857371330"><time>2026-09-01T16:34:30Z</time></trkpt><trkpt lat="59.2552113533" lon="30.6857371330"><time>2026-09-01T16:34:33Z</time></trkpt><trkpt lat="59.2552113533" lon="30.6857371330"><time>2026-09-01T16:34:35Z</time></trkpt><trkpt lat="59.2552113533" lon="30.6857371330"><time>2026-09-01T16:34:38Z</time></trkpt><trkpt lat="59.2552113533" lon="30.6857371330"><time>2026-09-01T16:34:40Z</time></trkpt><trkpt lat="59.2552113533" lon="30.6857371330"><time>2026-09-01T16:34:43Z</time></trkpt><trkpt lat="59.2552113533" lon="30.6857371330"><time>2026-09-01T16:34:45Z</time></trkpt><trkpt lat="59.2552113533" lon="30.6857371330"><time>2026-09-01T16:34:48Z</time></trkpt><trkpt lat="59.2552113533" lon="30.6857371330"><time>2026-09-01T16:34:50Z</time></trkpt><trkpt lat="59.2552113533" lon="30.6857371330"><time>2026-09-01T16:34:53Z</time></trkpt><trkpt lat="59.2552113533" lon="30.6857371330"><time>2026-09-01T16:34:55Z</time></trkpt><trkpt lat="59.2552113533" lon="30.6857371330"><time>2026-09-01T16:34:58Z</time></trkpt><trkpt lat="59.2552113533" lon="30.6857371330"><time>2026-09-01T16:35:00Z</time></trkpt><trkpt lat="59.2552113533" lon="30.6857371330"><time>2026-09-01T16:35:03Z</time></trkpt><trkpt lat="59.2552113533" lon="30.6857371330"><time>2026-09-01T16:35:05Z</time></trkpt><trkpt lat="59.2552113533" lon="30.6857371330"><time>2026-09-01T16:35:08Z</time></trkpt><trkpt lat="59.2552113533" lon="30.6857371330"><time>2026-09-01T16:35:10Z</time></trkpt><trkpt lat="59.2552113533" lon="30.6857371330"><time>2026-09-01T16:35:13Z</time></trkpt><trkpt lat="59.2552113533" lon="30.6857371330"><time>2026-09-01T16:35:15Z</time></trkpt><trkpt lat="59.2552113533" lon="30.6857371330"><time>2026-09-01T16:35:18Z</time></trkpt><trkpt lat="59.2552113533" lon="30.6857371330"><time>2026-09-01T16:35:20Z</time></trkpt><trkpt lat="59.2552113533" lon="30.6857371330"><time>2026-09-01T16:35:23Z</time></trkpt><trkpt lat="59.2552113533" lon="30.6857371330"><time>2026-09-01T16:35:25Z</time></trkpt><trkpt lat="59.2552113533" lon="30.6857371330"><time>2026-09-01T16:35:28Z</time></trkpt><trkpt lat="59.2552113533" lon="30.6857371330"><time>2026-09-01T16:35:30Z</time></trkpt><trkpt lat="59.2552113533" lon="30.6857371330"><time>2026-09-01T16:35:33Z</time></trkpt><trkpt lat="59.2552113533" lon="30.6857371330"><time>2026-09-01T16:35:35Z</time></trkpt><trkpt lat="59.2552113533" lon="30.6857371330"><time>2026-09-01T16:35:38Z</time></trkpt><trkpt lat="59.2552113533" lon="30.6857371330"><time>2026-09-01T16:35:40Z</time></trkpt><trkpt lat="59.2552113533" lon="30.6857371330"><time>2026-09-01T16:35:43Z</time></trkpt><trkpt lat="59.2552113533" lon="30.6857371330"><time>2026-09-01T16:35:45Z</time></trkpt><trkpt lat="59.2552113533" lon="30.6857371330"><time>2026-09-01T16:35:48Z</time></trkpt><trkpt lat="59.2552113533" lon="30.6857371330"><time>2026-09-01T16:35:50Z</time></trkpt><trkpt lat="59.2552113533" lon="30.6857371330"><time>2026-09-01T16:35:53Z</time></trkpt><trkpt lat="59.2552113533" lon="30.6857371330"><time>2026-09-01T16:35:55Z</time></trkpt><trkpt lat="59.2552113533" lon="30.6857371330"><time>2026-09-01T16:35:58Z</time></trkpt><trkpt lat="59.2552113533" lon="30.6857371330"><time>2026-09-01T16:36:00Z</time></trkpt><trkpt lat="59.2552113533" lon="30.6857371330"><time>2026-09-01T16:36:03Z</time></trkpt><trkpt lat="59.2552113533" lon="30.6857371330"><time>2026-09-01T16:36:05Z</time></trkpt><trkpt lat="59.2552113533" lon="30.6857371330"><time>2026-09-01T16:36:08Z</time></trkpt><trkpt lat="59.2552113533" lon="30.6857371330"><time>2026-09-01T16:36:10Z</time></trkpt><trkpt lat="59.2552113533" lon="30.6857371330"><time>2026-09-01T16:36:13Z</time></trkpt><trkpt lat="59.2552113533" lon="30.6857371330"><time>2026-09-01T16:36:15Z</time></trkpt><trkpt lat="59.2552113533" lon="30.6857371330"><time>2026-09-01T16:36:18Z</time></trkpt><trkpt lat="59.2552113533" lon="30.6857371330"><time>2026-09-01T16:36:20Z</time></trkpt><trkpt lat="59.2552113533" lon="30.6857371330"><time>2026-09-01T16:36:23Z</time></trkpt><trkpt lat="59.2552113533" lon="30.6857371330"><time>2026-09-01T16:36:25Z</time></trkpt><trkpt lat="59.2552113533" lon="30.6857371330"><time>2026-09-01T16:36:28Z</time></trkpt><trkpt lat="59.2552113533" lon="30.6857371330"><time>2026-09-01T16:36:30Z</time></trkpt><trkpt lat="59.2552113533" lon="30.6857371330"><time>2026-09-01T16:36:33Z</time></trkpt><trkpt lat="59.2552113533" lon="30.6857371330"><time>2026-09-01T16:36:35Z</time></trkpt><trkpt lat="59.2552113533" lon="30.6857371330"><time>2026-09-01T16:36:38Z</time></trkpt><trkpt lat="59.2552113533" lon="30.6857371330"><time>2026-09-01T16:36:40Z</time></trkpt><trkpt lat="59.2552113533" lon="30.6857371330"><time>2026-09-01T16:36:43Z</time></trkpt><trkpt lat="59.2552113533" lon="30.6857371330"><time>2026-09-01T16:36:45Z</time></trkpt><trkpt lat="59.2552113533" lon="30.6857371330"><time>2026-09-01T16:36:48Z</time></trkpt><trkpt lat="59.2552113533" lon="30.6856942177"><time>2026-09-01T16:36:50Z</time></trkpt><trkpt lat="59.2552113533" lon="30.6856942177"><time>2026-09-01T16:36:53Z</time></trkpt><trkpt lat="59.2552113533" lon="30.6856942177"><time>2026-09-01T16:36:55Z</time></trkpt><trkpt lat="59.2552113533" lon="30.6856942177"><time>2026-09-01T16:36:58Z</time></trkpt><trkpt lat="59.2552113533" lon="30.6856942177"><time>2026-09-01T16:37:00Z</time></trkpt><trkpt lat="59.2552113533" lon="30.6856942177"><time>2026-09-01T16:37:03Z</time></trkpt><trkpt lat="59.2552113533" lon="30.6856942177"><time>2026-09-01T16:37:05Z</time></trkpt><trkpt lat="59.2552113533" lon="30.6856942177"><time>2026-09-01T16:37:08Z</time></trkpt><trkpt lat="59.2552113533" lon="30.6856942177"><time>2026-09-01T16:37:10Z</time></trkpt><trkpt lat="59.2552113533" lon="30.6856942177"><time>2026-09-01T16:37:13Z</time></trkpt><trkpt lat="59.2552113533" lon="30.6856942177"><time>2026-09-01T16:37:15Z</time></trkpt><trkpt lat="59.2552113533" lon="30.6856942177"><time>2026-09-01T16:37:18Z</time></trkpt><trkpt lat="59.2552113533" lon="30.6856942177"><time>2026-09-01T16:37:20Z</time></trkpt><trkpt lat="59.2552113533" lon="30.6856942177"><time>2026-09-01T16:37:23Z</time></trkpt><trkpt lat="59.2552113533" lon="30.6856942177"><time>2026-09-01T16:37:25Z</time></trkpt><trkpt lat="59.2552113533" lon="30.6856942177"><time>2026-09-01T16:37:28Z</time></trkpt><trkpt lat="59.2552113533" lon="30.6856942177"><time>2026-09-01T16:37:30Z</time></trkpt><trkpt lat="59.2552113533" lon="30.6856942177"><time>2026-09-01T16:37:33Z</time></trkpt><trkpt lat="59.2551898956" lon="30.6856942177"><time>2026-09-01T16:37:35Z</time></trkpt><trkpt lat="59.2551898956" lon="30.6856942177"><time>2026-09-01T16:37:38Z</time></trkpt><trkpt lat="59.2551898956" lon="30.6856727600"><time>2026-09-01T16:37:40Z</time></trkpt><trkpt lat="59.2551684380" lon="30.6856727600"><time>2026-09-01T16:37:43Z</time></trkpt><trkpt lat="59.2551684380" lon="30.6856727600"><time>2026-09-01T16:37:45Z</time></trkpt><trkpt lat="59.2551684380" lon="30.6856727600"><time>2026-09-01T16:37:48Z</time></trkpt><trkpt lat="59.2551684380" lon="30.6856727600"><time>2026-09-01T16:37:50Z</time></trkpt><trkpt lat="59.2551684380" lon="30.6856727600"><time>2026-09-01T16:37:53Z</time></trkpt><trkpt lat="59.2551898956" lon="30.6856942177"><time>2026-09-01T16:37:55Z</time></trkpt><trkpt lat="59.2551898956" lon="30.6856942177"><time>2026-09-01T16:37:58Z</time></trkpt><trkpt lat="59.2551898956" lon="30.6856942177"><time>2026-09-01T16:38:00Z</time></trkpt><trkpt lat="59.2551898956" lon="30.6856942177"><time>2026-09-01T16:38:03Z</time></trkpt><trkpt lat="59.2551898956" lon="30.6856942177"><time>2026-09-01T16:38:05Z</time></trkpt><trkpt lat="59.2551898956" lon="30.6857156754"><time>2026-09-01T16:38:08Z</time></trkpt><trkpt lat="59.2551898956" lon="30.6856942177"><time>2026-09-01T16:38:10Z</time></trkpt><trkpt lat="59.2551898956" lon="30.6856942177"><time>2026-09-01T16:38:13Z</time></trkpt><trkpt lat="59.2551898956" lon="30.6856942177"><time>2026-09-01T16:38:15Z</time></trkpt><trkpt lat="59.2551898956" lon="30.6856942177"><time>2026-09-01T16:38:18Z</time></trkpt><trkpt lat="59.2551898956" lon="30.6856942177"><time>2026-09-01T16:38:20Z</time></trkpt><trkpt lat="59.2551898956" lon="30.6856942177"><time>2026-09-01T16:38:23Z</time></trkpt><trkpt lat="59.2551898956" lon="30.6856942177"><time>2026-09-01T16:38:25Z</time></trkpt><trkpt lat="59.2551898956" lon="30.6856942177"><time>2026-09-01T16:38:28Z</time></trkpt><trkpt lat="59.2551898956" lon="30.6856942177"><time>2026-09-01T16:38:30Z</time></trkpt><trkpt lat="59.2551898956" lon="30.6856942177"><time>2026-09-01T16:38:33Z</time></trkpt><trkpt lat="59.2551898956" lon="30.6856942177"><time>2026-09-01T16:38:35Z</time></trkpt><trkpt lat="59.2551898956" lon="30.6856942177"><time>2026-09-01T16:38:38Z</time></trkpt><trkpt lat="59.2551898956" lon="30.6856942177"><time>2026-09-01T16:38:40Z</time></trkpt><trkpt lat="59.2551898956" lon="30.6856942177"><time>2026-09-01T16:38:43Z</time></trkpt><trkpt lat="59.2551898956" lon="30.6856942177"><time>2026-09-01T16:38:45Z</time></trkpt><trkpt lat="59.2551898956" lon="30.6856942177"><time>2026-09-01T16:38:48Z</time></trkpt><trkpt lat="59.2551898956" lon="30.6856727600"><time>2026-09-01T16:38:50Z</time></trkpt><trkpt lat="59.2551898956" lon="30.6856727600"><time>2026-09-01T16:38:53Z</time></trkpt><trkpt lat="59.2551898956" lon="30.6856727600"><time>2026-09-01T16:38:55Z</time></trkpt><trkpt lat="59.2551898956" lon="30.6856727600"><time>2026-09-01T16:38:58Z</time></trkpt><trkpt lat="59.2551898956" lon="30.6856727600"><time>2026-09-01T16:39:00Z</time></trkpt><trkpt lat="59.2551898956" lon="30.6856727600"><time>2026-09-01T16:39:03Z</time></trkpt><trkpt lat="59.2551898956" lon="30.6856727600"><time>2026-09-01T16:39:05Z</time></trkpt><trkpt lat="59.2551898956" lon="30.6856727600"><time>2026-09-01T16:39:08Z</time></trkpt><trkpt lat="59.2551898956" lon="30.6856727600"><time>2026-09-01T16:39:10Z</time></trkpt><trkpt lat="59.2551898956" lon="30.6856727600"><time>2026-09-01T16:39:13Z</time></trkpt><trkpt lat="59.2551898956" lon="30.6856727600"><time>2026-09-01T16:39:15Z</time></trkpt><trkpt lat="59.2551898956" lon="30.6856727600"><time>2026-09-01T16:39:18Z</time></trkpt><trkpt lat="59.2551898956" lon="30.6856727600"><time>2026-09-01T16:39:20Z</time></trkpt><trkpt lat="59.2551898956" lon="30.6856727600"><time>2026-09-01T16:39:23Z</time></trkpt><trkpt lat="59.2551898956" lon="30.6856727600"><time>2026-09-01T16:39:25Z</time></trkpt><trkpt lat="59.2551898956" lon="30.6856727600"><time>2026-09-01T16:39:28Z</time></trkpt><trkpt lat="59.2551898956" lon="30.6856727600"><time>2026-09-01T16:39:30Z</time></trkpt><trkpt lat="59.2551898956" lon="30.6856727600"><time>2026-09-01T16:39:33Z</time></trkpt><trkpt lat="59.2551898956" lon="30.6856727600"><time>2026-09-01T16:39:35Z</time></trkpt><trkpt lat="59.2551898956" lon="30.6856727600"><time>2026-09-01T16:39:38Z</time></trkpt><trkpt lat="59.2551898956" lon="30.6857156754"><time>2026-09-01T16:39:40Z</time></trkpt><trkpt lat="59.2552113533" lon="30.6856942177"><time>2026-09-01T16:39:43Z</time></trkpt><trkpt lat="59.2552113533" lon="30.6856727600"><time>2026-09-01T16:39:45Z</time></trkpt><trkpt lat="59.2552113533" lon="30.6856727600"><time>2026-09-01T16:39:48Z</time></trkpt><trkpt lat="59.2552113533" lon="30.6856727600"><time>2026-09-01T16:39:50Z</time></trkpt><trkpt lat="59.2552113533" lon="30.6856727600"><time>2026-09-01T16:39:53Z</time></trkpt><trkpt lat="59.2552113533" lon="30.6856727600"><time>2026-09-01T16:39:55Z</time></trkpt><trkpt lat="59.2552113533" lon="30.6856727600"><time>2026-09-01T16:39:58Z</time></trkpt><trkpt lat="59.2552113533" lon="30.6856727600"><time>2026-09-01T16:40:00Z</time></trkpt><trkpt lat="59.2552113533" lon="30.6856727600"><time>2026-09-01T16:40:03Z</time></trkpt><trkpt lat="59.2552113533" lon="30.6856727600"><time>2026-09-01T16:40:05Z</time></trkpt><trkpt lat="59.2552113533" lon="30.6856727600"><time>2026-09-01T16:40:08Z</time></trkpt><trkpt lat="59.2552113533" lon="30.6856727600"><time>2026-09-01T16:40:10Z</time></trkpt><trkpt lat="59.2552113533" lon="30.6856727600"><time>2026-09-01T16:40:13Z</time></trkpt><trkpt lat="59.2552113533" lon="30.6856727600"><time>2026-09-01T16:40:15Z</time></trkpt><trkpt lat="59.2552113533" lon="30.6856727600"><time>2026-09-01T16:40:18Z</time></trkpt><trkpt lat="59.2552113533" lon="30.6856727600"><time>2026-09-01T16:40:20Z</time></trkpt><trkpt lat="59.2552113533" lon="30.6856727600"><time>2026-09-01T16:40:23Z</time></trkpt><trkpt lat="59.2552113533" lon="30.6856727600"><time>2026-09-01T16:40:25Z</time></trkpt><trkpt lat="59.2552113533" lon="30.6856727600"><time>2026-09-01T16:40:28Z</time></trkpt><trkpt lat="59.2552113533" lon="30.6856727600"><time>2026-09-01T16:40:30Z</time></trkpt><trkpt lat="59.2552113533" lon="30.6856727600"><time>2026-09-01T16:40:33Z</time></trkpt><trkpt lat="59.2552113533" lon="30.6856727600"><time>2026-09-01T16:40:35Z</time></trkpt><trkpt lat="59.2552113533" lon="30.6856727600"><time>2026-09-01T16:40:38Z</time></trkpt><trkpt lat="59.2552113533" lon="30.6856727600"><time>2026-09-01T16:40:40Z</time></trkpt><trkpt lat="59.2552113533" lon="30.6856727600"><time>2026-09-01T16:40:43Z</time></trkpt><trkpt lat="59.2552113533" lon="30.6856727600"><time>2026-09-01T16:40:45Z</time></trkpt><trkpt lat="59.2552113533" lon="30.6856727600"><time>2026-09-01T16:40:48Z</time></trkpt><trkpt lat="59.2552113533" lon="30.6856727600"><time>2026-09-01T16:40:50Z</time></trkpt><trkpt lat="59.2552113533" lon="30.6856727600"><time>2026-09-01T16:40:53Z</time></trkpt><trkpt lat="59.2552113533" lon="30.6856727600"><time>2026-09-01T16:40:55Z</time></trkpt><trkpt lat="59.2552113533" lon="30.6856727600"><time>2026-09-01T16:40:58Z</time></trkpt><trkpt lat="59.2551898956" lon="30.6856727600"><time>2026-09-01T16:41:00Z</time></trkpt><trkpt lat="59.2551898956" lon="30.6856727600"><time>2026-09-01T16:41:03Z</time></trkpt><trkpt lat="59.2551898956" lon="30.6856942177"><time>2026-09-01T16:41:05Z</time></trkpt><trkpt lat="59.2551898956" lon="30.6857156754"><time>2026-09-01T16:41:08Z</time></trkpt><trkpt lat="59.2551898956" lon="30.6857156754"><time>2026-09-01T16:41:10Z</time></trkpt><trkpt lat="59.2551898956" lon="30.6857156754"><time>2026-09-01T16:41:13Z</time></trkpt><trkpt lat="59.2551898956" lon="30.6857156754"><time>2026-09-01T16:41:15Z</time></trkpt><trkpt lat="59.2551898956" lon="30.6857156754"><time>2026-09-01T16:41:18Z</time></trkpt><trkpt lat="59.2551898956" lon="30.6857156754"><time>2026-09-01T16:41:20Z</time></trkpt><trkpt lat="59.2551898956" lon="30.6857371330"><time>2026-09-01T16:41:23Z</time></trkpt><trkpt lat="59.2551684380" lon="30.6857371330"><time>2026-09-01T16:41:25Z</time></trkpt><trkpt lat="59.2551684380" lon="30.6857585907"><time>2026-09-01T16:41:28Z</time></trkpt><trkpt lat="59.2551469803" lon="30.6857585907"><time>2026-09-01T16:41:30Z</time></trkpt><trkpt lat="59.2551255226" lon="30.6857800484"><time>2026-09-01T16:41:33Z</time></trkpt><trkpt lat="59.2550611496" lon="30.6858229637"><time>2026-09-01T16:41:35Z</time></trkpt><trkpt lat="59.2550611496" lon="30.6858015060"><time>2026-09-01T16:41:38Z</time></trkpt><trkpt lat="59.2550611496" lon="30.6858229637"><time>2026-09-01T16:41:40Z</time></trkpt><trkpt lat="59.2550396919" lon="30.6858229637"><time>2026-09-01T16:41:43Z</time></trkpt><trkpt lat="59.2550182343" lon="30.6858444214"><time>2026-09-01T16:41:45Z</time></trkpt><trkpt lat="59.2549967766" lon="30.6858873367"><time>2026-09-01T16:41:48Z</time></trkpt><trkpt lat="59.2549538612" lon="30.6859302521"><time>2026-09-01T16:41:50Z</time></trkpt><trkpt lat="59.2549109459" lon="30.6859731674"><time>2026-09-01T16:41:53Z</time></trkpt><trkpt lat="59.2549109459" lon="30.6859517097"><time>2026-09-01T16:41:55Z</time></trkpt><trkpt lat="59.2549109459" lon="30.6859517097"><time>2026-09-01T16:41:58Z</time></trkpt><trkpt lat="59.2548894882" lon="30.6859946251"><time>2026-09-01T16:42:00Z</time></trkpt><trkpt lat="59.2548680305" lon="30.6860160828"><time>2026-09-01T16:42:03Z</time></trkpt><trkpt lat="59.2548465729" lon="30.6860375404"><time>2026-09-01T16:42:05Z</time></trkpt><trkpt lat="59.2548465729" lon="30.6860375404"><time>2026-09-01T16:42:08Z</time></trkpt><trkpt lat="59.2548251152" lon="30.6860589981"><time>2026-09-01T16:42:10Z</time></trkpt><trkpt lat="59.2547821999" lon="30.6860804558"><time>2026-09-01T16:42:13Z</time></trkpt><trkpt lat="59.2547821999" lon="30.6861019135"><time>2026-09-01T16:42:15Z</time></trkpt><trkpt lat="59.2547821999" lon="30.6861233711"><time>2026-09-01T16:42:18Z</time></trkpt><trkpt lat="59.2547607422" lon="30.6861448288"><time>2026-09-01T16:42:20Z</time></trkpt><trkpt lat="59.2547392845" lon="30.6861662865"><time>2026-09-01T16:42:23Z</time></trkpt><trkpt lat="59.2547178268" lon="30.6861662865"><time>2026-09-01T16:42:25Z</time></trkpt><trkpt lat="59.2546963692" lon="30.6861662865"><time>2026-09-01T16:42:28Z</time></trkpt><trkpt lat="59.2546749115" lon="30.6861877441"><time>2026-09-01T16:42:30Z</time></trkpt><trkpt lat="59.2546749115" lon="30.6862092018"><time>2026-09-01T16:42:33Z</time></trkpt><trkpt lat="59.2546749115" lon="30.6862092018"><time>2026-09-01T16:42:35Z</time></trkpt><trkpt lat="59.2546749115" lon="30.6862092018"><time>2026-09-01T16:42:38Z</time></trkpt><trkpt lat="59.2546534538" lon="30.6862521172"><time>2026-09-01T16:42:40Z</time></trkpt><trkpt lat="59.2546319962" lon="30.6862950325"><time>2026-09-01T16:42:43Z</time></trkpt><trkpt lat="59.2546319962" lon="30.6863164902"><time>2026-09-01T16:42:45Z</time></trkpt><trkpt lat="59.2546534538" lon="30.6862950325"><time>2026-09-01T16:42:48Z</time></trkpt><trkpt lat="59.2546534538" lon="30.6862735748"><time>2026-09-01T16:42:50Z</time></trkpt><trkpt lat="59.2546534538" lon="30.6862735748"><time>2026-09-01T16:42:53Z</time></trkpt><trkpt lat="59.2546319962" lon="30.6862735748"><time>2026-09-01T16:42:55Z</time></trkpt><trkpt lat="59.2546319962" lon="30.6863379478"><time>2026-09-01T16:42:58Z</time></trkpt><trkpt lat="59.2546319962" lon="30.6863594055"><time>2026-09-01T16:43:00Z</time></trkpt><trkpt lat="59.2546105385" lon="30.6863379478"><time>2026-09-01T16:43:03Z</time></trkpt><trkpt lat="59.2545890808" lon="30.6863379478"><time>2026-09-01T16:43:05Z</time></trkpt><trkpt lat="59.2545890808" lon="30.6863164902"><time>2026-09-01T16:43:08Z</time></trkpt><trkpt lat="59.2545676231" lon="30.6863594055"><time>2026-09-01T16:43:10Z</time></trkpt><trkpt lat="59.2545890808" lon="30.6863808632"><time>2026-09-01T16:43:13Z</time></trkpt><trkpt lat="59.2545890808" lon="30.6863594055"><time>2026-09-01T16:43:15Z</time></trkpt><trkpt lat="59.2545890808" lon="30.6864023209"><time>2026-09-01T16:43:18Z</time></trkpt><trkpt lat="59.2545890808" lon="30.6864023209"><time>2026-09-01T16:43:20Z</time></trkpt><trkpt lat="59.2545676231" lon="30.6864023209"><time>2026-09-01T16:43:23Z</time></trkpt><trkpt lat="59.2545461655" lon="30.6864237785"><time>2026-09-01T16:43:25Z</time></trkpt><trkpt lat="59.2545032501" lon="30.6864237785"><time>2026-09-01T16:43:28Z</time></trkpt><trkpt lat="59.2545032501" lon="30.6864452362"><time>2026-09-01T16:43:30Z</time></trkpt><trkpt lat="59.2545032501" lon="30.6864452362"><time>2026-09-01T16:43:33Z</time></trkpt><trkpt lat="59.2545032501" lon="30.6864237785"><time>2026-09-01T16:43:35Z</time></trkpt><trkpt lat="59.2544817924" lon="30.6864452362"><time>2026-09-01T16:43:38Z</time></trkpt><trkpt lat="59.2544603348" lon="30.6864452362"><time>2026-09-01T16:43:40Z</time></trkpt><trkpt lat="59.2544603348" lon="30.6864452362"><time>2026-09-01T16:43:43Z</time></trkpt><trkpt lat="59.2544388771" lon="30.6864452362"><time>2026-09-01T16:43:45Z</time></trkpt><trkpt lat="59.2544174194" lon="30.6864452362"><time>2026-09-01T16:43:48Z</time></trkpt><trkpt lat="59.2544174194" lon="30.6864666939"><time>2026-09-01T16:43:50Z</time></trkpt><trkpt lat="59.2543959618" lon="30.6864666939"><time>2026-09-01T16:43:53Z</time></trkpt><trkpt lat="59.2543745041" lon="30.6864881516"><time>2026-09-01T16:43:55Z</time></trkpt><trkpt lat="59.2543530464" lon="30.6865096092"><time>2026-09-01T16:43:58Z</time></trkpt><trkpt lat="59.2543101311" lon="30.6865525246"><time>2026-09-01T16:44:00Z</time></trkpt><trkpt lat="59.2542886734" lon="30.6865739822"><time>2026-09-01T16:44:03Z</time></trkpt><trkpt lat="59.2542886734" lon="30.6865739822"><time>2026-09-01T16:44:05Z</time></trkpt><trkpt lat="59.2542886734" lon="30.6865739822"><time>2026-09-01T16:44:08Z</time></trkpt><trkpt lat="59.2542886734" lon="30.6865739822"><time>2026-09-01T16:44:10Z</time></trkpt><trkpt lat="59.2542886734" lon="30.6865954399"><time>2026-09-01T16:44:13Z</time></trkpt><trkpt lat="59.2542457581" lon="30.6866168976"><time>2026-09-01T16:44:15Z</time></trkpt><trkpt lat="59.2542243004" lon="30.6866598129"><time>2026-09-01T16:44:18Z</time></trkpt><trkpt lat="59.2542243004" lon="30.6866598129"><time>2026-09-01T16:44:20Z</time></trkpt><trkpt lat="59.2542243004" lon="30.6866598129"><time>2026-09-01T16:44:23Z</time></trkpt><trkpt lat="59.2542243004" lon="30.6866598129"><time>2026-09-01T16:44:25Z</time></trkpt><trkpt lat="59.2542243004" lon="30.6867241859"><time>2026-09-01T16:44:28Z</time></trkpt><trkpt lat="59.2542028427" lon="30.6867241859"><time>2026-09-01T16:44:30Z</time></trkpt><trkpt lat="59.2541813850" lon="30.6867241859"><time>2026-09-01T16:44:33Z</time></trkpt><trkpt lat="59.2541599274" lon="30.6867671013"><time>2026-09-01T16:44:35Z</time></trkpt><trkpt lat="59.2541599274" lon="30.6867885590"><time>2026-09-01T16:44:38Z</time></trkpt><trkpt lat="59.2541170120" lon="30.6868100166"><time>2026-09-01T16:44:40Z</time></trkpt><trkpt lat="59.2541170120" lon="30.6868100166"><time>2026-09-01T16:44:43Z</time></trkpt><trkpt lat="59.2540955544" lon="30.6868314743"><time>2026-09-01T16:44:45Z</time></trkpt><trkpt lat="59.2540526390" lon="30.6868100166"><time>2026-09-01T16:44:48Z</time></trkpt><trkpt lat="59.2540311813" lon="30.6868529320"><time>2026-09-01T16:44:50Z</time></trkpt><trkpt lat="59.2540311813" lon="30.6868529320"><time>2026-09-01T16:44:53Z</time></trkpt><trkpt lat="59.2540311813" lon="30.6868529320"><time>2026-09-01T16:44:55Z</time></trkpt><trkpt lat="59.2540097237" lon="30.6868529320"><time>2026-09-01T16:44:58Z</time></trkpt><trkpt lat="59.2539668083" lon="30.6868958473"><time>2026-09-01T16:45:00Z</time></trkpt><trkpt lat="59.2539453506" lon="30.6868958473"><time>2026-09-01T16:45:03Z</time></trkpt><trkpt lat="59.2539453506" lon="30.6868958473"><time>2026-09-01T16:45:05Z</time></trkpt><trkpt lat="59.2539453506" lon="30.6868958473"><time>2026-09-01T16:45:08Z</time></trkpt><trkpt lat="59.2539238930" lon="30.6869387627"><time>2026-09-01T16:45:10Z</time></trkpt><trkpt lat="59.2539238930" lon="30.6869602203"><time>2026-09-01T16:45:13Z</time></trkpt><trkpt lat="59.2539024353" lon="30.6869816780"><time>2026-09-01T16:45:15Z</time></trkpt><trkpt lat="59.2538809776" lon="30.6870031357"><time>2026-09-01T16:45:18Z</time></trkpt><trkpt lat="59.2538809776" lon="30.6870245934"><time>2026-09-01T16:45:20Z</time></trkpt><trkpt lat="59.2538809776" lon="30.6870460510"><time>2026-09-01T16:45:23Z</time></trkpt><trkpt lat="59.2538595200" lon="30.6870245934"><time>2026-09-01T16:45:25Z</time></trkpt><trkpt lat="59.2538380623" lon="30.6870031357"><time>2026-09-01T16:45:28Z</time></trkpt><trkpt lat="59.2538166046" lon="30.6869816780"><time>2026-09-01T16:45:30Z</time></trkpt><trkpt lat="59.2538166046" lon="30.6869816780"><time>2026-09-01T16:45:33Z</time></trkpt><trkpt lat="59.2538166046" lon="30.6870245934"><time>2026-09-01T16:45:38Z</time></trkpt><trkpt lat="59.2537951469" lon="30.6870675087"><time>2026-09-01T16:45:40Z</time></trkpt><trkpt lat="59.2537951469" lon="30.6870889664"><time>2026-09-01T16:45:43Z</time></trkpt><trkpt lat="59.2537736893" lon="30.6870889664"><time>2026-09-01T16:45:45Z</time></trkpt><trkpt lat="59.2537522316" lon="30.6871104240"><time>2026-09-01T16:45:48Z</time></trkpt><trkpt lat="59.2537307739" lon="30.6871318817"><time>2026-09-01T16:45:50Z</time></trkpt><trkpt lat="59.2537093163" lon="30.6871533394"><time>2026-09-01T16:45:53Z</time></trkpt><trkpt lat="59.2537093163" lon="30.6871533394"><time>2026-09-01T16:45:55Z</time></trkpt><trkpt lat="59.2537093163" lon="30.6871533394"><time>2026-09-01T16:45:58Z</time></trkpt><trkpt lat="59.2536878586" lon="30.6871533394"><time>2026-09-01T16:46:00Z</time></trkpt><trkpt lat="59.2536664009" lon="30.6871533394"><time>2026-09-01T16:46:03Z</time></trkpt><trkpt lat="59.2536234856" lon="30.6871747971"><time>2026-09-01T16:46:05Z</time></trkpt><trkpt lat="59.2536234856" lon="30.6871747971"><time>2026-09-01T16:46:08Z</time></trkpt><trkpt lat="59.2536020279" lon="30.6871747971"><time>2026-09-01T16:46:10Z</time></trkpt><trkpt lat="59.2535805702" lon="30.6871962547"><time>2026-09-01T16:46:13Z</time></trkpt><trkpt lat="59.2535591125" lon="30.6872177124"><time>2026-09-01T16:46:15Z</time></trkpt><trkpt lat="59.2535591125" lon="30.6872177124"><time>2026-09-01T16:46:18Z</time></trkpt><trkpt lat="59.2535591125" lon="30.6872177124"><time>2026-09-01T16:46:20Z</time></trkpt><trkpt lat="59.2535591125" lon="30.6872177124"><time>2026-09-01T16:46:23Z</time></trkpt><trkpt lat="59.2535591125" lon="30.6872177124"><time>2026-09-01T16:46:25Z</time></trkpt><trkpt lat="59.2535591125" lon="30.6872177124"><time>2026-09-01T16:46:28Z</time></trkpt><trkpt lat="59.2535591125" lon="30.6872606277"><time>2026-09-01T16:46:30Z</time></trkpt><trkpt lat="59.2535591125" lon="30.6872606277"><time>2026-09-01T16:46:33Z</time></trkpt><trkpt lat="59.2535376549" lon="30.6873035431"><time>2026-09-01T16:46:35Z</time></trkpt><trkpt lat="59.2535376549" lon="30.6872820854"><time>2026-09-01T16:46:38Z</time></trkpt><trkpt lat="59.2535161972" lon="30.6872606277"><time>2026-09-01T16:46:40Z</time></trkpt><trkpt lat="59.2535161972" lon="30.6872606277"><time>2026-09-01T16:46:43Z</time></trkpt><trkpt lat="59.2534732819" lon="30.6872606277"><time>2026-09-01T16:46:45Z</time></trkpt><trkpt lat="59.2534732819" lon="30.6872606277"><time>2026-09-01T16:46:48Z</time></trkpt><trkpt lat="59.2534732819" lon="30.6872606277"><time>2026-09-01T16:46:50Z</time></trkpt><trkpt lat="59.2534732819" lon="30.6872606277"><time>2026-09-01T16:46:53Z</time></trkpt><trkpt lat="59.2534303665" lon="30.6873035431"><time>2026-09-01T16:46:55Z</time></trkpt><trkpt lat="59.2534303665" lon="30.6873035431"><time>2026-09-01T16:46:58Z</time></trkpt><trkpt lat="59.2534303665" lon="30.6873035431"><time>2026-09-01T16:47:00Z</time></trkpt><trkpt lat="59.2534303665" lon="30.6873035431"><time>2026-09-01T16:47:03Z</time></trkpt><trkpt lat="59.2534303665" lon="30.6873035431"><time>2026-09-01T16:47:05Z</time></trkpt><trkpt lat="59.2534303665" lon="30.6873035431"><time>2026-09-01T16:47:08Z</time></trkpt><trkpt lat="59.2534089088" lon="30.6873250008"><time>2026-09-01T16:47:10Z</time></trkpt><trkpt lat="59.2534089088" lon="30.6873035431"><time>2026-09-01T16:47:13Z</time></trkpt><trkpt lat="59.2533874512" lon="30.6873035431"><time>2026-09-01T16:47:15Z</time></trkpt><trkpt lat="59.2533659935" lon="30.6873035431"><time>2026-09-01T16:47:18Z</time></trkpt><trkpt lat="59.2533445358" lon="30.6873250008"><time>2026-09-01T16:47:20Z</time></trkpt><trkpt lat="59.2533445358" lon="30.6873250008"><time>2026-09-01T16:47:23Z</time></trkpt><trkpt lat="59.2533445358" lon="30.6873250008"><time>2026-09-01T16:47:25Z</time></trkpt><trkpt lat="59.2533445358" lon="30.6873250008"><time>2026-09-01T16:47:28Z</time></trkpt><trkpt lat="59.2533445358" lon="30.6873464584"><time>2026-09-01T16:47:30Z</time></trkpt><trkpt lat="59.2533230782" lon="30.6873679161"><time>2026-09-01T16:47:33Z</time></trkpt><trkpt lat="59.2532801628" lon="30.6874108315"><time>2026-09-01T16:47:35Z</time></trkpt><trkpt lat="59.2532587051" lon="30.6874322891"><time>2026-09-01T16:47:38Z</time></trkpt><trkpt lat="59.2532801628" lon="30.6874322891"><time>2026-09-01T16:47:40Z</time></trkpt><trkpt lat="59.2532587051" lon="30.6874537468"><time>2026-09-01T16:47:43Z</time></trkpt><trkpt lat="59.2532372475" lon="30.6874322891"><time>2026-09-01T16:47:45Z</time></trkpt><trkpt lat="59.2532157898" lon="30.6874322891"><time>2026-09-01T16:47:48Z</time></trkpt><trkpt lat="59.2531728745" lon="30.6874537468"><time>2026-09-01T16:47:50Z</time></trkpt><trkpt lat="59.2531299591" lon="30.6874966621"><time>2026-09-01T16:47:53Z</time></trkpt><trkpt lat="59.2531299591" lon="30.6875610352"><time>2026-09-01T16:47:55Z</time></trkpt><trkpt lat="59.2531299591" lon="30.6875824928"><time>2026-09-01T16:47:58Z</time></trkpt><trkpt lat="59.2531299591" lon="30.6876039505"><time>2026-09-01T16:48:00Z</time></trkpt><trkpt lat="59.2531299591" lon="30.6875824928"><time>2026-09-01T16:48:03Z</time></trkpt><trkpt lat="59.2531085014" lon="30.6875824928"><time>2026-09-01T16:48:05Z</time></trkpt><trkpt lat="59.2531085014" lon="30.6875824928"><time>2026-09-01T16:48:08Z</time></trkpt><trkpt lat="59.2531085014" lon="30.6875824928"><time>2026-09-01T16:48:10Z</time></trkpt><trkpt lat="59.2531085014" lon="30.6875824928"><time>2026-09-01T16:48:13Z</time></trkpt><trkpt lat="59.2530870438" lon="30.6876039505"><time>2026-09-01T16:48:15Z</time></trkpt><trkpt lat="59.2530870438" lon="30.6876468658"><time>2026-09-01T16:48:18Z</time></trkpt><trkpt lat="59.2530441284" lon="30.6876897812"><time>2026-09-01T16:48:20Z</time></trkpt><trkpt lat="59.2530226707" lon="30.6877112389"><time>2026-09-01T16:48:23Z</time></trkpt><trkpt lat="59.2530226707" lon="30.6877326965"><time>2026-09-01T16:48:25Z</time></trkpt><trkpt lat="59.2530226707" lon="30.6877326965"><time>2026-09-01T16:48:28Z</time></trkpt><trkpt lat="59.2529797554" lon="30.6877541542"><time>2026-09-01T16:48:33Z</time></trkpt><trkpt lat="59.2529582977" lon="30.6877541542"><time>2026-09-01T16:48:35Z</time></trkpt><trkpt lat="59.2529582977" lon="30.6877541542"><time>2026-09-01T16:48:38Z</time></trkpt><trkpt lat="59.2529368401" lon="30.6877541542"><time>2026-09-01T16:48:40Z</time></trkpt><trkpt lat="59.2529368401" lon="30.6877756119"><time>2026-09-01T16:48:43Z</time></trkpt><trkpt lat="59.2528939247" lon="30.6877970695"><time>2026-09-01T16:48:45Z</time></trkpt><trkpt lat="59.2528939247" lon="30.6877970695"><time>2026-09-01T16:48:48Z</time></trkpt><trkpt lat="59.2528939247" lon="30.6877970695"><time>2026-09-01T16:48:50Z</time></trkpt><trkpt lat="59.2528939247" lon="30.6877970695"><time>2026-09-01T16:48:53Z</time></trkpt><trkpt lat="59.2528724670" lon="30.6878185272"><time>2026-09-01T16:48:58Z</time></trkpt><trkpt lat="59.2528510094" lon="30.6878185272"><time>2026-09-01T16:49:00Z</time></trkpt><trkpt lat="59.2528510094" lon="30.6878399849"><time>2026-09-01T16:49:03Z</time></trkpt><trkpt lat="59.2528080940" lon="30.6878614426"><time>2026-09-01T16:49:05Z</time></trkpt><trkpt lat="59.2527866364" lon="30.6878829002"><time>2026-09-01T16:49:08Z</time></trkpt><trkpt lat="59.2527651787" lon="30.6878829002"><time>2026-09-01T16:49:10Z</time></trkpt><trkpt lat="59.2527651787" lon="30.6878829002"><time>2026-09-01T16:49:13Z</time></trkpt><trkpt lat="59.2527651787" lon="30.6878829002"><time>2026-09-01T16:49:15Z</time></trkpt><trkpt lat="59.2527437210" lon="30.6879043579"><time>2026-09-01T16:49:18Z</time></trkpt><trkpt lat="59.2527222633" lon="30.6879472733"><time>2026-09-01T16:49:20Z</time></trkpt><trkpt lat="59.2527222633" lon="30.6879472733"><time>2026-09-01T16:49:23Z</time></trkpt><trkpt lat="59.2527222633" lon="30.6879472733"><time>2026-09-01T16:49:25Z</time></trkpt><trkpt lat="59.2527222633" lon="30.6879472733"><time>2026-09-01T16:49:28Z</time></trkpt><trkpt lat="59.2527222633" lon="30.6879472733"><time>2026-09-01T16:49:30Z</time></trkpt><trkpt lat="59.2527008057" lon="30.6879687309"><time>2026-09-01T16:49:33Z</time></trkpt><trkpt lat="59.2526578903" lon="30.6879901886"><time>2026-09-01T16:49:35Z</time></trkpt><trkpt lat="59.2526364326" lon="30.6880331039"><time>2026-09-01T16:49:38Z</time></trkpt><trkpt lat="59.2526149750" lon="30.6880760193"><time>2026-09-01T16:49:40Z</time></trkpt><trkpt lat="59.2526149750" lon="30.6880974770"><time>2026-09-01T16:49:43Z</time></trkpt><trkpt lat="59.2526149750" lon="30.6880974770"><time>2026-09-01T16:49:45Z</time></trkpt><trkpt lat="59.2526149750" lon="30.6880974770"><time>2026-09-01T16:49:48Z</time></trkpt><trkpt lat="59.2526149750" lon="30.6880974770"><time>2026-09-01T16:49:50Z</time></trkpt><trkpt lat="59.2526149750" lon="30.6880974770"><time>2026-09-01T16:49:53Z</time></trkpt><trkpt lat="59.2526149750" lon="30.6880974770"><time>2026-09-01T16:49:55Z</time></trkpt><trkpt lat="59.2526149750" lon="30.6880974770"><time>2026-09-01T16:49:58Z</time></trkpt><trkpt lat="59.2526149750" lon="30.6880974770"><time>2026-09-01T16:50:00Z</time></trkpt><trkpt lat="59.2526149750" lon="30.6881618500"><time>2026-09-01T16:50:03Z</time></trkpt><trkpt lat="59.2525935173" lon="30.6881833076"><time>2026-09-01T16:50:05Z</time></trkpt><trkpt lat="59.2525720596" lon="30.6881833076"><time>2026-09-01T16:50:08Z</time></trkpt><trkpt lat="59.2525506020" lon="30.6881833076"><time>2026-09-01T16:50:10Z</time></trkpt><trkpt lat="59.2525506020" lon="30.6881833076"><time>2026-09-01T16:50:13Z</time></trkpt><trkpt lat="59.2525506020" lon="30.6881833076"><time>2026-09-01T16:50:15Z</time></trkpt><trkpt lat="59.2525506020" lon="30.6881833076"><time>2026-09-01T16:50:18Z</time></trkpt><trkpt lat="59.2525076866" lon="30.6882047653"><time>2026-09-01T16:50:20Z</time></trkpt><trkpt lat="59.2524862289" lon="30.6882262230"><time>2026-09-01T16:50:23Z</time></trkpt><trkpt lat="59.2524862289" lon="30.6882476807"><time>2026-09-01T16:50:25Z</time></trkpt><trkpt lat="59.2524862289" lon="30.6882476807"><time>2026-09-01T16:50:28Z</time></trkpt><trkpt lat="59.2524647713" lon="30.6882476807"><time>2026-09-01T16:50:30Z</time></trkpt><trkpt lat="59.2524647713" lon="30.6882905960"><time>2026-09-01T16:50:33Z</time></trkpt><trkpt lat="59.2524433136" lon="30.6882905960"><time>2026-09-01T16:50:35Z</time></trkpt><trkpt lat="59.2524433136" lon="30.6882905960"><time>2026-09-01T16:50:38Z</time></trkpt><trkpt lat="59.2524218559" lon="30.6882905960"><time>2026-09-01T16:50:40Z</time></trkpt><trkpt lat="59.2524003983" lon="30.6883120537"><time>2026-09-01T16:50:43Z</time></trkpt><trkpt lat="59.2523789406" lon="30.6883335114"><time>2026-09-01T16:50:45Z</time></trkpt><trkpt lat="59.2523574829" lon="30.6883335114"><time>2026-09-01T16:50:48Z</time></trkpt><trkpt lat="59.2522931099" lon="30.6883764267"><time>2026-09-01T16:50:50Z</time></trkpt><trkpt lat="59.2522931099" lon="30.6883978844"><time>2026-09-01T16:50:53Z</time></trkpt><trkpt lat="59.2522931099" lon="30.6883978844"><time>2026-09-01T16:50:55Z</time></trkpt><trkpt lat="59.2522931099" lon="30.6883978844"><time>2026-09-01T16:50:58Z</time></trkpt><trkpt lat="59.2522931099" lon="30.6883978844"><time>2026-09-01T16:51:00Z</time></trkpt><trkpt lat="59.2522931099" lon="30.6883978844"><time>2026-09-01T16:51:03Z</time></trkpt><trkpt lat="59.2522931099" lon="30.6883978844"><time>2026-09-01T16:51:05Z</time></trkpt><trkpt lat="59.2522716522" lon="30.6883978844"><time>2026-09-01T16:51:08Z</time></trkpt><trkpt lat="59.2522501945" lon="30.6884193420"><time>2026-09-01T16:51:10Z</time></trkpt><trkpt lat="59.2522501945" lon="30.6884193420"><time>2026-09-01T16:51:13Z</time></trkpt><trkpt lat="59.2522287369" lon="30.6884622574"><time>2026-09-01T16:51:15Z</time></trkpt><trkpt lat="59.2522072792" lon="30.6884837151"><time>2026-09-01T16:51:18Z</time></trkpt><trkpt lat="59.2521858215" lon="30.6884837151"><time>2026-09-01T16:51:20Z</time></trkpt><trkpt lat="59.2521858215" lon="30.6884837151"><time>2026-09-01T16:51:23Z</time></trkpt><trkpt lat="59.2521858215" lon="30.6885266304"><time>2026-09-01T16:51:25Z</time></trkpt><trkpt lat="59.2521643639" lon="30.6885695457"><time>2026-09-01T16:51:28Z</time></trkpt><trkpt lat="59.2521429062" lon="30.6885910034"><time>2026-09-01T16:51:30Z</time></trkpt><trkpt lat="59.2521429062" lon="30.6885695457"><time>2026-09-01T16:51:33Z</time></trkpt><trkpt lat="59.2521214485" lon="30.6885695457"><time>2026-09-01T16:51:35Z</time></trkpt><trkpt lat="59.2520999908" lon="30.6885695457"><time>2026-09-01T16:51:38Z</time></trkpt><trkpt lat="59.2520570755" lon="30.6885910034"><time>2026-09-01T16:51:40Z</time></trkpt><trkpt lat="59.2520141602" lon="30.6886124611"><time>2026-09-01T16:51:43Z</time></trkpt><trkpt lat="59.2520141602" lon="30.6886124611"><time>2026-09-01T16:51:45Z</time></trkpt><trkpt lat="59.2520141602" lon="30.6886124611"><time>2026-09-01T16:51:48Z</time></trkpt><trkpt lat="59.2520141602" lon="30.6886124611"><time>2026-09-01T16:51:50Z</time></trkpt><trkpt lat="59.2520141602" lon="30.6886339188"><time>2026-09-01T16:51:53Z</time></trkpt><trkpt lat="59.2520141602" lon="30.6886553764"><time>2026-09-01T16:51:55Z</time></trkpt><trkpt lat="59.2520141602" lon="30.6887197495"><time>2026-09-01T16:51:58Z</time></trkpt><trkpt lat="59.2520141602" lon="30.6887197495"><time>2026-09-01T16:52:00Z</time></trkpt><trkpt lat="59.2520141602" lon="30.6887197495"><time>2026-09-01T16:52:03Z</time></trkpt><trkpt lat="59.2520141602" lon="30.6887412071"><time>2026-09-01T16:52:05Z</time></trkpt><trkpt lat="59.2519927025" lon="30.6887626648"><time>2026-09-01T16:52:08Z</time></trkpt><trkpt lat="59.2519712448" lon="30.6887841225"><time>2026-09-01T16:52:10Z</time></trkpt><trkpt lat="59.2519497871" lon="30.6887841225"><time>2026-09-01T16:52:13Z</time></trkpt><trkpt lat="59.2519497871" lon="30.6888270378"><time>2026-09-01T16:52:15Z</time></trkpt><trkpt lat="59.2519497871" lon="30.6888484955"><time>2026-09-01T16:52:18Z</time></trkpt><trkpt lat="59.2519283295" lon="30.6888699532"><time>2026-09-01T16:52:20Z</time></trkpt><trkpt lat="59.2519068718" lon="30.6888914108"><time>2026-09-01T16:52:23Z</time></trkpt><trkpt lat="59.2519068718" lon="30.6889128685"><time>2026-09-01T16:52:25Z</time></trkpt><trkpt lat="59.2519068718" lon="30.6889128685"><time>2026-09-01T16:52:28Z</time></trkpt><trkpt lat="59.2518639565" lon="30.6889128685"><time>2026-09-01T16:52:30Z</time></trkpt><trkpt lat="59.2518424988" lon="30.6889128685"><time>2026-09-01T16:52:33Z</time></trkpt><trkpt lat="59.2518424988" lon="30.6889128685"><time>2026-09-01T16:52:35Z</time></trkpt><trkpt lat="59.2518210411" lon="30.6889343262"><time>2026-09-01T16:52:38Z</time></trkpt><trkpt lat="59.2517995834" lon="30.6889557838"><time>2026-09-01T16:52:40Z</time></trkpt><trkpt lat="59.2517781258" lon="30.6889557838"><time>2026-09-01T16:52:43Z</time></trkpt><trkpt lat="59.2517781258" lon="30.6889557838"><time>2026-09-01T16:52:45Z</time></trkpt><trkpt lat="59.2517781258" lon="30.6889557838"><time>2026-09-01T16:52:48Z</time></trkpt><trkpt lat="59.2517566681" lon="30.6889986992"><time>2026-09-01T16:52:50Z</time></trkpt><trkpt lat="59.2517352104" lon="30.6890201569"><time>2026-09-01T16:52:53Z</time></trkpt><trkpt lat="59.2516922951" lon="30.6890201569"><time>2026-09-01T16:52:55Z</time></trkpt><trkpt lat="59.2516922951" lon="30.6890201569"><time>2026-09-01T16:52:58Z</time></trkpt><trkpt lat="59.2516922951" lon="30.6890416145"><time>2026-09-01T16:53:00Z</time></trkpt><trkpt lat="59.2516922951" lon="30.6890416145"><time>2026-09-01T16:53:03Z</time></trkpt><trkpt lat="59.2516708374" lon="30.6890201569"><time>2026-09-01T16:53:05Z</time></trkpt><trkpt lat="59.2516493797" lon="30.6889986992"><time>2026-09-01T16:53:08Z</time></trkpt><trkpt lat="59.2516064644" lon="30.6889772415"><time>2026-09-01T16:53:10Z</time></trkpt><trkpt lat="59.2516279221" lon="30.6889772415"><time>2026-09-01T16:53:13Z</time></trkpt><trkpt lat="59.2516279221" lon="30.6889986992"><time>2026-09-01T16:53:15Z</time></trkpt><trkpt lat="59.2516493797" lon="30.6890201569"><time>2026-09-01T16:53:18Z</time></trkpt><trkpt lat="59.2516279221" lon="30.6890201569"><time>2026-09-01T16:53:20Z</time></trkpt><trkpt lat="59.2516279221" lon="30.6889772415"><time>2026-09-01T16:53:23Z</time></trkpt><trkpt lat="59.2515850067" lon="30.6889343262"><time>2026-09-01T16:53:25Z</time></trkpt><trkpt lat="59.2515850067" lon="30.6889557838"><time>2026-09-01T16:53:28Z</time></trkpt><trkpt lat="59.2515850067" lon="30.6889557838"><time>2026-09-01T16:53:33Z</time></trkpt><trkpt lat="59.2515850067" lon="30.6889557838"><time>2026-09-01T16:53:35Z</time></trkpt><trkpt lat="59.2515850067" lon="30.6889557838"><time>2026-09-01T16:53:38Z</time></trkpt><trkpt lat="59.2515635490" lon="30.6889986992"><time>2026-09-01T16:53:40Z</time></trkpt><trkpt lat="59.2515206337" lon="30.6890416145"><time>2026-09-01T16:53:43Z</time></trkpt><trkpt lat="59.2514991760" lon="30.6890630722"><time>2026-09-01T16:53:45Z</time></trkpt><trkpt lat="59.2514991760" lon="30.6890630722"><time>2026-09-01T16:53:48Z</time></trkpt><trkpt lat="59.2514777184" lon="30.6890845299"><time>2026-09-01T16:53:50Z</time></trkpt><trkpt lat="59.2514562607" lon="30.6891059875"><time>2026-09-01T16:53:53Z</time></trkpt><trkpt lat="59.2514348030" lon="30.6891274452"><time>2026-09-01T16:53:55Z</time></trkpt><trkpt lat="59.2514348030" lon="30.6891274452"><time>2026-09-01T16:53:58Z</time></trkpt><trkpt lat="59.2514348030" lon="30.6891274452"><time>2026-09-01T16:54:00Z</time></trkpt><trkpt lat="59.2514348030" lon="30.6891274452"><time>2026-09-01T16:54:03Z</time></trkpt><trkpt lat="59.2514133453" lon="30.6891489029"><time>2026-09-01T16:54:05Z</time></trkpt><trkpt lat="59.2513918877" lon="30.6891703606"><time>2026-09-01T16:54:08Z</time></trkpt><trkpt lat="59.2513704300" lon="30.6892132759"><time>2026-09-01T16:54:10Z</time></trkpt><trkpt lat="59.2513704300" lon="30.6892132759"><time>2026-09-01T16:54:13Z</time></trkpt><trkpt lat="59.2513489723" lon="30.6892132759"><time>2026-09-01T16:54:15Z</time></trkpt><trkpt lat="59.2513275146" lon="30.6892347336"><time>2026-09-01T16:54:18Z</time></trkpt><trkpt lat="59.2512845993" lon="30.6892776489"><time>2026-09-01T16:54:20Z</time></trkpt><trkpt lat="59.2512845993" lon="30.6892776489"><time>2026-09-01T16:54:23Z</time></trkpt><trkpt lat="59.2512845993" lon="30.6892776489"><time>2026-09-01T16:54:25Z</time></trkpt><trkpt lat="59.2512845993" lon="30.6892776489"><time>2026-09-01T16:54:28Z</time></trkpt><trkpt lat="59.2512416840" lon="30.6892991066"><time>2026-09-01T16:54:30Z</time></trkpt><trkpt lat="59.2512202263" lon="30.6893420219"><time>2026-09-01T16:54:33Z</time></trkpt><trkpt lat="59.2511987686" lon="30.6893634796"><time>2026-09-01T16:54:35Z</time></trkpt><trkpt lat="59.2511987686" lon="30.6893634796"><time>2026-09-01T16:54:38Z</time></trkpt><trkpt lat="59.2512202263" lon="30.6893420219"><time>2026-09-01T16:54:40Z</time></trkpt><trkpt lat="59.2511987686" lon="30.6893634796"><time>2026-09-01T16:54:43Z</time></trkpt><trkpt lat="59.2511773109" lon="30.6893849373"><time>2026-09-01T16:54:45Z</time></trkpt><trkpt lat="59.2511773109" lon="30.6893849373"><time>2026-09-01T16:54:48Z</time></trkpt><trkpt lat="59.2511558533" lon="30.6894063950"><time>2026-09-01T16:54:50Z</time></trkpt><trkpt lat="59.2511129379" lon="30.6894278526"><time>2026-09-01T16:54:53Z</time></trkpt><trkpt lat="59.2510914803" lon="30.6894278526"><time>2026-09-01T16:54:55Z</time></trkpt><trkpt lat="59.2510914803" lon="30.6894278526"><time>2026-09-01T16:54:58Z</time></trkpt><trkpt lat="59.2510914803" lon="30.6894278526"><time>2026-09-01T16:55:00Z</time></trkpt><trkpt lat="59.2510700226" lon="30.6894493103"><time>2026-09-01T16:55:03Z</time></trkpt><trkpt lat="59.2510485649" lon="30.6894707680"><time>2026-09-01T16:55:05Z</time></trkpt><trkpt lat="59.2510485649" lon="30.6894707680"><time>2026-09-01T16:55:08Z</time></trkpt><trkpt lat="59.2510485649" lon="30.6894707680"><time>2026-09-01T16:55:10Z</time></trkpt><trkpt lat="59.2510485649" lon="30.6894707680"><time>2026-09-01T16:55:13Z</time></trkpt><trkpt lat="59.2510271072" lon="30.6894922256"><time>2026-09-01T16:55:15Z</time></trkpt><trkpt lat="59.2510271072" lon="30.6894922256"><time>2026-09-01T16:55:18Z</time></trkpt><trkpt lat="59.2510271072" lon="30.6895136833"><time>2026-09-01T16:55:20Z</time></trkpt><trkpt lat="59.2510056496" lon="30.6895351410"><time>2026-09-01T16:55:23Z</time></trkpt><trkpt lat="59.2509841919" lon="30.6895780563"><time>2026-09-01T16:55:25Z</time></trkpt><trkpt lat="59.2509627342" lon="30.6895780563"><time>2026-09-01T16:55:28Z</time></trkpt><trkpt lat="59.2509412766" lon="30.6895995140"><time>2026-09-01T16:55:30Z</time></trkpt><trkpt lat="59.2509412766" lon="30.6895995140"><time>2026-09-01T16:55:33Z</time></trkpt><trkpt lat="59.2509412766" lon="30.6895995140"><time>2026-09-01T16:55:35Z</time></trkpt><trkpt lat="59.2509412766" lon="30.6895995140"><time>2026-09-01T16:55:38Z</time></trkpt><trkpt lat="59.2509412766" lon="30.6895995140"><time>2026-09-01T16:55:40Z</time></trkpt><trkpt lat="59.2509412766" lon="30.6895995140"><time>2026-09-01T16:55:43Z</time></trkpt><trkpt lat="59.2509412766" lon="30.6895995140"><time>2026-09-01T16:55:45Z</time></trkpt><trkpt lat="59.2509412766" lon="30.6895995140"><time>2026-09-01T16:55:48Z</time></trkpt><trkpt lat="59.2509412766" lon="30.6895995140"><time>2026-09-01T16:55:50Z</time></trkpt><trkpt lat="59.2509198189" lon="30.6896638870"><time>2026-09-01T16:55:53Z</time></trkpt><trkpt lat="59.2508769035" lon="30.6896853447"><time>2026-09-01T16:55:55Z</time></trkpt><trkpt lat="59.2508339882" lon="30.6897068024"><time>2026-09-01T16:55:58Z</time></trkpt><trkpt lat="59.2508125305" lon="30.6897282600"><time>2026-09-01T16:56:00Z</time></trkpt><trkpt lat="59.2508125305" lon="30.6897282600"><time>2026-09-01T16:56:03Z</time></trkpt><trkpt lat="59.2507910728" lon="30.6897282600"><time>2026-09-01T16:56:05Z</time></trkpt><trkpt lat="59.2508125305" lon="30.6897926331"><time>2026-09-01T16:56:08Z</time></trkpt><trkpt lat="59.2507910728" lon="30.6897926331"><time>2026-09-01T16:56:10Z</time></trkpt><trkpt lat="59.2507910728" lon="30.6898140907"><time>2026-09-01T16:56:13Z</time></trkpt><trkpt lat="59.2507696152" lon="30.6898140907"><time>2026-09-01T16:56:15Z</time></trkpt><trkpt lat="59.2507696152" lon="30.6898355484"><time>2026-09-01T16:56:18Z</time></trkpt><trkpt lat="59.2507481575" lon="30.6898784637"><time>2026-09-01T16:56:20Z</time></trkpt><trkpt lat="59.2507481575" lon="30.6898784637"><time>2026-09-01T16:56:23Z</time></trkpt><trkpt lat="59.2507266998" lon="30.6898784637"><time>2026-09-01T16:56:25Z</time></trkpt><trkpt lat="59.2507052422" lon="30.6898570061"><time>2026-09-01T16:56:28Z</time></trkpt><trkpt lat="59.2506623268" lon="30.6898570061"><time>2026-09-01T16:56:30Z</time></trkpt><trkpt lat="59.2506408691" lon="30.6898784637"><time>2026-09-01T16:56:33Z</time></trkpt><trkpt lat="59.2506408691" lon="30.6898570061"><time>2026-09-01T16:56:35Z</time></trkpt><trkpt lat="59.2506408691" lon="30.6898784637"><time>2026-09-01T16:56:38Z</time></trkpt><trkpt lat="59.2506194115" lon="30.6898784637"><time>2026-09-01T16:56:40Z</time></trkpt><trkpt lat="59.2505979538" lon="30.6898999214"><time>2026-09-01T16:56:43Z</time></trkpt><trkpt lat="59.2505335808" lon="30.6899428368"><time>2026-09-01T16:56:45Z</time></trkpt><trkpt lat="59.2505121231" lon="30.6899428368"><time>2026-09-01T16:56:48Z</time></trkpt><trkpt lat="59.2504692078" lon="30.6899857521"><time>2026-09-01T16:56:50Z</time></trkpt><trkpt lat="59.2504692078" lon="30.6899857521"><time>2026-09-01T16:56:53Z</time></trkpt><trkpt lat="59.2504692078" lon="30.6899857521"><time>2026-09-01T16:56:55Z</time></trkpt><trkpt lat="59.2504692078" lon="30.6899857521"><time>2026-09-01T16:56:58Z</time></trkpt><trkpt lat="59.2505121231" lon="30.6900072098"><time>2026-09-01T16:57:00Z</time></trkpt><trkpt lat="59.2505121231" lon="30.6900072098"><time>2026-09-01T16:57:03Z</time></trkpt><trkpt lat="59.2505121231" lon="30.6899857521"><time>2026-09-01T16:57:05Z</time></trkpt><trkpt lat="59.2504906654" lon="30.6900072098"><time>2026-09-01T16:57:08Z</time></trkpt><trkpt lat="59.2504692078" lon="30.6900072098"><time>2026-09-01T16:57:10Z</time></trkpt><trkpt lat="59.2504692078" lon="30.6900072098"><time>2026-09-01T16:57:13Z</time></trkpt><trkpt lat="59.2504692078" lon="30.6900286674"><time>2026-09-01T16:57:15Z</time></trkpt><trkpt lat="59.2504262924" lon="30.6900715828"><time>2026-09-01T16:57:18Z</time></trkpt><trkpt lat="59.2504048347" lon="30.6900715828"><time>2026-09-01T16:57:20Z</time></trkpt><trkpt lat="59.2504048347" lon="30.6900930405"><time>2026-09-01T16:57:23Z</time></trkpt><trkpt lat="59.2503619194" lon="30.6901144981"><time>2026-09-01T16:57:25Z</time></trkpt><trkpt lat="59.2503190041" lon="30.6901359558"><time>2026-09-01T16:57:28Z</time></trkpt><trkpt lat="59.2502546310" lon="30.6902003288"><time>2026-09-01T16:57:30Z</time></trkpt><trkpt lat="59.2502331734" lon="30.6902217865"><time>2026-09-01T16:57:33Z</time></trkpt><trkpt lat="59.2502117157" lon="30.6902432442"><time>2026-09-01T16:57:35Z</time></trkpt><trkpt lat="59.2502117157" lon="30.6902432442"><time>2026-09-01T16:57:38Z</time></trkpt><trkpt lat="59.2502117157" lon="30.6902647018"><time>2026-09-01T16:57:40Z</time></trkpt><trkpt lat="59.2502331734" lon="30.6902432442"><time>2026-09-01T16:57:43Z</time></trkpt><trkpt lat="59.2502975464" lon="30.6902003288"><time>2026-09-01T16:57:45Z</time></trkpt><trkpt lat="59.2502975464" lon="30.6902003288"><time>2026-09-01T16:57:48Z</time></trkpt><trkpt lat="59.2502546310" lon="30.6902432442"><time>2026-09-01T16:57:50Z</time></trkpt><trkpt lat="59.2502117157" lon="30.6902647018"><time>2026-09-01T16:57:53Z</time></trkpt><trkpt lat="59.2501688004" lon="30.6903076172"><time>2026-09-01T16:57:55Z</time></trkpt><trkpt lat="59.2501688004" lon="30.6903076172"><time>2026-09-01T16:57:58Z</time></trkpt><trkpt lat="59.2501688004" lon="30.6903076172"><time>2026-09-01T16:58:00Z</time></trkpt><trkpt lat="59.2501688004" lon="30.6903076172"><time>2026-09-01T16:58:03Z</time></trkpt><trkpt lat="59.2501688004" lon="30.6903076172"><time>2026-09-01T16:58:05Z</time></trkpt><trkpt lat="59.2501688004" lon="30.6903076172"><time>2026-09-01T16:58:08Z</time></trkpt><trkpt lat="59.2501688004" lon="30.6903076172"><time>2026-09-01T16:58:10Z</time></trkpt><trkpt lat="59.2501258850" lon="30.6903290749"><time>2026-09-01T16:58:13Z</time></trkpt><trkpt lat="59.2500615120" lon="30.6903505325"><time>2026-09-01T16:58:15Z</time></trkpt><trkpt lat="59.2500400543" lon="30.6903719902"><time>2026-09-01T16:58:18Z</time></trkpt><trkpt lat="59.2500400543" lon="30.6903719902"><time>2026-09-01T16:58:20Z</time></trkpt><trkpt lat="59.2500400543" lon="30.6903719902"><time>2026-09-01T16:58:23Z</time></trkpt><trkpt lat="59.2500400543" lon="30.6903934479"><time>2026-09-01T16:58:25Z</time></trkpt><trkpt lat="59.2500400543" lon="30.6903934479"><time>2026-09-01T16:58:28Z</time></trkpt><trkpt lat="59.2500185966" lon="30.6903934479"><time>2026-09-01T16:58:30Z</time></trkpt><trkpt lat="59.2499971390" lon="30.6903934479"><time>2026-09-01T16:58:33Z</time></trkpt><trkpt lat="59.2499756813" lon="30.6904363632"><time>2026-09-01T16:58:35Z</time></trkpt><trkpt lat="59.2499542236" lon="30.6904578209"><time>2026-09-01T16:58:38Z</time></trkpt><trkpt lat="59.2499113083" lon="30.6905007362"><time>2026-09-01T16:58:40Z</time></trkpt><trkpt lat="59.2498683929" lon="30.6905007362"><time>2026-09-01T16:58:43Z</time></trkpt><trkpt lat="59.2498469353" lon="30.6905651093"><time>2026-09-01T16:58:45Z</time></trkpt><trkpt lat="59.2498254776" lon="30.6905865669"><time>2026-09-01T16:58:48Z</time></trkpt><trkpt lat="59.2498254776" lon="30.6905865669"><time>2026-09-01T16:58:50Z</time></trkpt><trkpt lat="59.2498469353" lon="30.6905651093"><time>2026-09-01T16:58:53Z</time></trkpt><trkpt lat="59.2498683929" lon="30.6905436516"><time>2026-09-01T16:58:55Z</time></trkpt><trkpt lat="59.2498683929" lon="30.6905436516"><time>2026-09-01T16:58:58Z</time></trkpt><trkpt lat="59.2498254776" lon="30.6905865669"><time>2026-09-01T16:59:00Z</time></trkpt><trkpt lat="59.2498040199" lon="30.6905865669"><time>2026-09-01T16:59:03Z</time></trkpt><trkpt lat="59.2498040199" lon="30.6906080246"><time>2026-09-01T16:59:05Z</time></trkpt><trkpt lat="59.2498040199" lon="30.6906080246"><time>2026-09-01T16:59:08Z</time></trkpt><trkpt lat="59.2498254776" lon="30.6905865669"><time>2026-09-01T16:59:10Z</time></trkpt><trkpt lat="59.2498254776" lon="30.6905865669"><time>2026-09-01T16:59:13Z</time></trkpt><trkpt lat="59.2498254776" lon="30.6905865669"><time>2026-09-01T16:59:15Z</time></trkpt><trkpt lat="59.2498254776" lon="30.6905865669"><time>2026-09-01T16:59:18Z</time></trkpt><trkpt lat="59.2498254776" lon="30.6905865669"><time>2026-09-01T16:59:20Z</time></trkpt><trkpt lat="59.2498254776" lon="30.6905865669"><time>2026-09-01T16:59:23Z</time></trkpt><trkpt lat="59.2498254776" lon="30.6905865669"><time>2026-09-01T16:59:25Z</time></trkpt><trkpt lat="59.2498254776" lon="30.6905865669"><time>2026-09-01T16:59:28Z</time></trkpt><trkpt lat="59.2498254776" lon="30.6905865669"><time>2026-09-01T16:59:30Z</time></trkpt><trkpt lat="59.2498254776" lon="30.6905865669"><time>2026-09-01T16:59:33Z</time></trkpt><trkpt lat="59.2498254776" lon="30.6905865669"><time>2026-09-01T16:59:35Z</time></trkpt><trkpt lat="59.2498254776" lon="30.6905865669"><time>2026-09-01T16:59:38Z</time></trkpt><trkpt lat="59.2498254776" lon="30.6905865669"><time>2026-09-01T16:59:40Z</time></trkpt><trkpt lat="59.2498254776" lon="30.6905865669"><time>2026-09-01T16:59:43Z</time></trkpt><trkpt lat="59.2498254776" lon="30.6905865669"><time>2026-09-01T16:59:45Z</time></trkpt><trkpt lat="59.2498254776" lon="30.6905865669"><time>2026-09-01T16:59:48Z</time></trkpt><trkpt lat="59.2498040199" lon="30.6906080246"><time>2026-09-01T16:59:50Z</time></trkpt><trkpt lat="59.2498040199" lon="30.6906080246"><time>2026-09-01T16:59:53Z</time></trkpt><trkpt lat="59.2498040199" lon="30.6906080246"><time>2026-09-01T16:59:55Z</time></trkpt><trkpt lat="59.2497825623" lon="30.6906509399"><time>2026-09-01T16:59:58Z</time></trkpt><trkpt lat="59.2497611046" lon="30.6906938553"><time>2026-09-01T17:00:00Z</time></trkpt><trkpt lat="59.2497396469" lon="30.6907367706"><time>2026-09-01T17:00:03Z</time></trkpt><trkpt lat="59.2497396469" lon="30.6907582283"><time>2026-09-01T17:00:05Z</time></trkpt><trkpt lat="59.2497396469" lon="30.6907582283"><time>2026-09-01T17:00:08Z</time></trkpt><trkpt lat="59.2497396469" lon="30.6907582283"><time>2026-09-01T17:00:10Z</time></trkpt><trkpt lat="59.2497396469" lon="30.6907582283"><time>2026-09-01T17:00:13Z</time></trkpt><trkpt lat="59.2496967316" lon="30.6907582283"><time>2026-09-01T17:00:15Z</time></trkpt><trkpt lat="59.2496752739" lon="30.6907582283"><time>2026-09-01T17:00:18Z</time></trkpt><trkpt lat="59.2496109009" lon="30.6907796860"><time>2026-09-01T17:00:20Z</time></trkpt><trkpt lat="59.2495679855" lon="30.6907796860"><time>2026-09-01T17:00:23Z</time></trkpt><trkpt lat="59.2495250702" lon="30.6908226013"><time>2026-09-01T17:00:25Z</time></trkpt><trkpt lat="59.2494821548" lon="30.6908440590"><time>2026-09-01T17:00:28Z</time></trkpt><trkpt lat="59.2494392395" lon="30.6908655167"><time>2026-09-01T17:00:30Z</time></trkpt><trkpt lat="59.2494392395" lon="30.6908655167"><time>2026-09-01T17:00:33Z</time></trkpt><trkpt lat="59.2494392395" lon="30.6908655167"><time>2026-09-01T17:00:35Z</time></trkpt><trkpt lat="59.2494392395" lon="30.6908655167"><time>2026-09-01T17:00:38Z</time></trkpt><trkpt lat="59.2494392395" lon="30.6908655167"><time>2026-09-01T17:00:40Z</time></trkpt><trkpt lat="59.2494392395" lon="30.6908655167"><time>2026-09-01T17:00:43Z</time></trkpt><trkpt lat="59.2494392395" lon="30.6908655167"><time>2026-09-01T17:00:45Z</time></trkpt><trkpt lat="59.2494606972" lon="30.6908655167"><time>2026-09-01T17:00:48Z</time></trkpt><trkpt lat="59.2494392395" lon="30.6909084320"><time>2026-09-01T17:00:50Z</time></trkpt><trkpt lat="59.2493963242" lon="30.6909513474"><time>2026-09-01T17:00:53Z</time></trkpt><trkpt lat="59.2493534088" lon="30.6909942627"><time>2026-09-01T17:00:55Z</time></trkpt><trkpt lat="59.2493319511" lon="30.6909942627"><time>2026-09-01T17:00:58Z</time></trkpt><trkpt lat="59.2493104935" lon="30.6910157204"><time>2026-09-01T17:01:00Z</time></trkpt><trkpt lat="59.2492890358" lon="30.6910371780"><time>2026-09-01T17:01:03Z</time></trkpt><trkpt lat="59.2492890358" lon="30.6910371780"><time>2026-09-01T17:01:05Z</time></trkpt><trkpt lat="59.2492675781" lon="30.6910371780"><time>2026-09-01T17:01:08Z</time></trkpt><trkpt lat="59.2492461205" lon="30.6910800934"><time>2026-09-01T17:01:10Z</time></trkpt><trkpt lat="59.2492461205" lon="30.6910800934"><time>2026-09-01T17:01:13Z</time></trkpt><trkpt lat="59.2492675781" lon="30.6910800934"><time>2026-09-01T17:01:15Z</time></trkpt><trkpt lat="59.2492461205" lon="30.6911230087"><time>2026-09-01T17:01:18Z</time></trkpt><trkpt lat="59.2492032051" lon="30.6911873817"><time>2026-09-01T17:01:20Z</time></trkpt><trkpt lat="59.2491602898" lon="30.6912088394"><time>2026-09-01T17:01:23Z</time></trkpt><trkpt lat="59.2490959167" lon="30.6912517548"><time>2026-09-01T17:01:25Z</time></trkpt><trkpt lat="59.2490959167" lon="30.6912732124"><time>2026-09-01T17:01:28Z</time></trkpt><trkpt lat="59.2491173744" lon="30.6912732124"><time>2026-09-01T17:01:30Z</time></trkpt><trkpt lat="59.2491388321" lon="30.6912732124"><time>2026-09-01T17:01:33Z</time></trkpt><trkpt lat="59.2491388321" lon="30.6912732124"><time>2026-09-01T17:01:35Z</time></trkpt><trkpt lat="59.2490959167" lon="30.6912946701"><time>2026-09-01T17:01:38Z</time></trkpt><trkpt lat="59.2490530014" lon="30.6913161278"><time>2026-09-01T17:01:40Z</time></trkpt><trkpt lat="59.2490530014" lon="30.6913161278"><time>2026-09-01T17:01:43Z</time></trkpt><trkpt lat="59.2490530014" lon="30.6913161278"><time>2026-09-01T17:01:45Z</time></trkpt><trkpt lat="59.2490530014" lon="30.6913161278"><time>2026-09-01T17:01:48Z</time></trkpt><trkpt lat="59.2490100861" lon="30.6912732124"><time>2026-09-01T17:01:50Z</time></trkpt><trkpt lat="59.2489886284" lon="30.6912946701"><time>2026-09-01T17:01:53Z</time></trkpt><trkpt lat="59.2489671707" lon="30.6913161278"><time>2026-09-01T17:01:55Z</time></trkpt><trkpt lat="59.2489671707" lon="30.6913161278"><time>2026-09-01T17:01:58Z</time></trkpt><trkpt lat="59.2489886284" lon="30.6913161278"><time>2026-09-01T17:02:00Z</time></trkpt><trkpt lat="59.2489886284" lon="30.6913161278"><time>2026-09-01T17:02:03Z</time></trkpt><trkpt lat="59.2489886284" lon="30.6913161278"><time>2026-09-01T17:02:05Z</time></trkpt><trkpt lat="59.2489671707" lon="30.6913375854"><time>2026-09-01T17:02:08Z</time></trkpt><trkpt lat="59.2489671707" lon="30.6913161278"><time>2026-09-01T17:02:10Z</time></trkpt><trkpt lat="59.2489671707" lon="30.6912946701"><time>2026-09-01T17:02:13Z</time></trkpt><trkpt lat="59.2489671707" lon="30.6912946701"><time>2026-09-01T17:02:15Z</time></trkpt><trkpt lat="59.2489671707" lon="30.6912946701"><time>2026-09-01T17:02:18Z</time></trkpt><trkpt lat="59.2489671707" lon="30.6912946701"><time>2026-09-01T17:02:20Z</time></trkpt><trkpt lat="59.2489671707" lon="30.6912946701"><time>2026-09-01T17:02:23Z</time></trkpt><trkpt lat="59.2489671707" lon="30.6912946701"><time>2026-09-01T17:02:25Z</time></trkpt><trkpt lat="59.2489671707" lon="30.6912946701"><time>2026-09-01T17:02:28Z</time></trkpt><trkpt lat="59.2489671707" lon="30.6912946701"><time>2026-09-01T17:02:30Z</time></trkpt><trkpt lat="59.2489671707" lon="30.6912946701"><time>2026-09-01T17:02:33Z</time></trkpt><trkpt lat="59.2489671707" lon="30.6912946701"><time>2026-09-01T17:02:35Z</time></trkpt><trkpt lat="59.2489671707" lon="30.6912946701"><time>2026-09-01T17:02:38Z</time></trkpt><trkpt lat="59.2489671707" lon="30.6912946701"><time>2026-09-01T17:02:40Z</time></trkpt><trkpt lat="59.2489671707" lon="30.6912946701"><time>2026-09-01T17:02:43Z</time></trkpt><trkpt lat="59.2489886284" lon="30.6912302971"><time>2026-09-01T17:02:45Z</time></trkpt><trkpt lat="59.2489886284" lon="30.6912302971"><time>2026-09-01T17:02:48Z</time></trkpt><trkpt lat="59.2489886284" lon="30.6912302971"><time>2026-09-01T17:02:50Z</time></trkpt><trkpt lat="59.2489886284" lon="30.6912302971"><time>2026-09-01T17:02:53Z</time></trkpt><trkpt lat="59.2489886284" lon="30.6912302971"><time>2026-09-01T17:02:55Z</time></trkpt><trkpt lat="59.2489886284" lon="30.6912302971"><time>2026-09-01T17:02:58Z</time></trkpt><trkpt lat="59.2489886284" lon="30.6912302971"><time>2026-09-01T17:03:00Z</time></trkpt><trkpt lat="59.2489886284" lon="30.6912302971"><time>2026-09-01T17:03:03Z</time></trkpt></trkseg></trk></gpx>